<?xml version="1.0" encoding="UTF-8" standalone="no" ?>
<gpx xmlns="http://www.topografix.com/GPX/1/1" xmlns:xsi="http://www.w3.org/2001/XMLSchema-instance" xsi:schemaLocation="http://www.topografix.com/GPX/1/1 http://www.topografix.com/GPX/1/1/gpx.xsd" version="1.1" creator="VisuGPX - https://www.visugpx.com">
  <metadata>
    <name>Biviers epinouze</name>
  </metadata>
  <trk>
    <name><![CDATA[2021-07-31_140303]]></name>
    <extensions>
      <line xmlns="http://www.topografix.com/GPX/gpx_style/0/2">
        <width>4</width>
      </line>
    </extensions>
    <trkseg>
      <trkpt lat="45.23871" lon="5.80353">
        <ele>410.8</ele>
        <time>2021-07-31T12:03:04.000Z</time>
      </trkpt>
      <trkpt lat="45.2387" lon="5.80353">
        <ele>410.8</ele>
        <time>2021-07-31T12:03:05.000Z</time>
      </trkpt>
      <trkpt lat="45.23865" lon="5.80365">
        <ele>409.5</ele>
        <time>2021-07-31T12:03:11.000Z</time>
      </trkpt>
      <trkpt lat="45.23852" lon="5.80367">
        <ele>408.2</ele>
        <time>2021-07-31T12:03:13.000Z</time>
      </trkpt>
      <trkpt lat="45.23839" lon="5.8036">
        <ele>407.6</ele>
        <time>2021-07-31T12:03:15.000Z</time>
      </trkpt>
      <trkpt lat="45.23839" lon="5.8036">
        <ele>407.6</ele>
        <time>2021-07-31T12:03:15.000Z</time>
      </trkpt>
      <trkpt lat="45.2383" lon="5.80346">
        <ele>407.9</ele>
        <time>2021-07-31T12:03:17.000Z</time>
      </trkpt>
      <trkpt lat="45.23823" lon="5.80336">
        <ele>408.3</ele>
        <time>2021-07-31T12:03:19.000Z</time>
      </trkpt>
      <trkpt lat="45.23811" lon="5.80337">
        <ele>407.3</ele>
        <time>2021-07-31T12:03:22.000Z</time>
      </trkpt>
      <trkpt lat="45.23803" lon="5.80345">
        <ele>406.2</ele>
        <time>2021-07-31T12:03:25.000Z</time>
      </trkpt>
      <trkpt lat="45.23802" lon="5.80346">
        <ele>406.2</ele>
        <time>2021-07-31T12:03:30.000Z</time>
      </trkpt>
      <trkpt lat="45.23802" lon="5.80346">
        <ele>406.2</ele>
        <time>2021-07-31T12:03:31.000Z</time>
      </trkpt>
      <trkpt lat="45.23802" lon="5.80346">
        <ele>406.1</ele>
        <time>2021-07-31T12:03:35.000Z</time>
      </trkpt>
      <trkpt lat="45.23802" lon="5.80346">
        <ele>406.1</ele>
        <time>2021-07-31T12:03:36.000Z</time>
      </trkpt>
      <trkpt lat="45.23802" lon="5.80347">
        <ele>406.1</ele>
        <time>2021-07-31T12:03:38.000Z</time>
      </trkpt>
      <trkpt lat="45.23802" lon="5.80347">
        <ele>406</ele>
        <time>2021-07-31T12:03:41.000Z</time>
      </trkpt>
      <trkpt lat="45.23802" lon="5.80347">
        <ele>406</ele>
        <time>2021-07-31T12:03:42.000Z</time>
      </trkpt>
      <trkpt lat="45.23802" lon="5.80346">
        <ele>406</ele>
        <time>2021-07-31T12:04:19.000Z</time>
      </trkpt>
      <trkpt lat="45.23804" lon="5.80345">
        <ele>406.4</ele>
        <time>2021-07-31T12:04:23.000Z</time>
      </trkpt>
      <trkpt lat="45.23804" lon="5.80345">
        <ele>406.4</ele>
        <time>2021-07-31T12:04:25.000Z</time>
      </trkpt>
      <trkpt lat="45.23805" lon="5.80344">
        <ele>406.4</ele>
        <time>2021-07-31T12:04:34.000Z</time>
      </trkpt>
      <trkpt lat="45.23805" lon="5.80344">
        <ele>406.5</ele>
        <time>2021-07-31T12:04:35.000Z</time>
      </trkpt>
      <trkpt lat="45.23805" lon="5.80344">
        <ele>406.5</ele>
        <time>2021-07-31T12:04:37.000Z</time>
      </trkpt>
      <trkpt lat="45.23805" lon="5.80344">
        <ele>406.4</ele>
        <time>2021-07-31T12:05:15.000Z</time>
      </trkpt>
      <trkpt lat="45.23804" lon="5.80343">
        <ele>406.5</ele>
        <time>2021-07-31T12:05:18.000Z</time>
      </trkpt>
      <trkpt lat="45.23804" lon="5.80343">
        <ele>406.5</ele>
        <time>2021-07-31T12:05:19.000Z</time>
      </trkpt>
      <trkpt lat="45.23804" lon="5.80343">
        <ele>406.5</ele>
        <time>2021-07-31T12:05:20.000Z</time>
      </trkpt>
      <trkpt lat="45.23804" lon="5.80343">
        <ele>406.5</ele>
        <time>2021-07-31T12:05:23.000Z</time>
      </trkpt>
      <trkpt lat="45.23803" lon="5.80342">
        <ele>406.5</ele>
        <time>2021-07-31T12:05:26.000Z</time>
      </trkpt>
      <trkpt lat="45.23803" lon="5.80342">
        <ele>406.6</ele>
        <time>2021-07-31T12:05:30.000Z</time>
      </trkpt>
      <trkpt lat="45.23803" lon="5.80342">
        <ele>406.6</ele>
        <time>2021-07-31T12:05:31.000Z</time>
      </trkpt>
      <trkpt lat="45.23803" lon="5.80342">
        <ele>406.6</ele>
        <time>2021-07-31T12:05:32.000Z</time>
      </trkpt>
      <trkpt lat="45.23803" lon="5.80342">
        <ele>406.6</ele>
        <time>2021-07-31T12:05:34.000Z</time>
      </trkpt>
      <trkpt lat="45.23803" lon="5.80343">
        <ele>406.4</ele>
        <time>2021-07-31T12:05:41.000Z</time>
      </trkpt>
      <trkpt lat="45.23803" lon="5.80343">
        <ele>406.4</ele>
        <time>2021-07-31T12:05:43.000Z</time>
      </trkpt>
      <trkpt lat="45.23803" lon="5.80343">
        <ele>406.5</ele>
        <time>2021-07-31T12:05:52.000Z</time>
      </trkpt>
      <trkpt lat="45.23803" lon="5.80344">
        <ele>406.4</ele>
        <time>2021-07-31T12:05:55.000Z</time>
      </trkpt>
      <trkpt lat="45.23803" lon="5.80343">
        <ele>406.5</ele>
        <time>2021-07-31T12:05:56.000Z</time>
      </trkpt>
      <trkpt lat="45.23803" lon="5.80343">
        <ele>406.4</ele>
        <time>2021-07-31T12:06:00.000Z</time>
      </trkpt>
      <trkpt lat="45.23803" lon="5.80343">
        <ele>406.4</ele>
        <time>2021-07-31T12:06:05.000Z</time>
      </trkpt>
      <trkpt lat="45.23802" lon="5.80343">
        <ele>406.4</ele>
        <time>2021-07-31T12:06:06.000Z</time>
      </trkpt>
      <trkpt lat="45.23803" lon="5.80343">
        <ele>406.4</ele>
        <time>2021-07-31T12:06:17.000Z</time>
      </trkpt>
      <trkpt lat="45.23804" lon="5.80345">
        <ele>406.3</ele>
        <time>2021-07-31T12:06:23.000Z</time>
      </trkpt>
      <trkpt lat="45.23803" lon="5.80345">
        <ele>406.3</ele>
        <time>2021-07-31T12:06:24.000Z</time>
      </trkpt>
      <trkpt lat="45.23803" lon="5.80345">
        <ele>406.3</ele>
        <time>2021-07-31T12:06:25.000Z</time>
      </trkpt>
      <trkpt lat="45.23803" lon="5.80345">
        <ele>406.4</ele>
        <time>2021-07-31T12:06:26.000Z</time>
      </trkpt>
      <trkpt lat="45.23803" lon="5.80344">
        <ele>406.3</ele>
        <time>2021-07-31T12:06:30.000Z</time>
      </trkpt>
      <trkpt lat="45.23803" lon="5.80344">
        <ele>406.3</ele>
        <time>2021-07-31T12:06:45.000Z</time>
      </trkpt>
      <trkpt lat="45.23803" lon="5.80342">
        <ele>406.4</ele>
        <time>2021-07-31T12:06:50.000Z</time>
      </trkpt>
      <trkpt lat="45.23803" lon="5.80343">
        <ele>406.4</ele>
        <time>2021-07-31T12:06:51.000Z</time>
      </trkpt>
      <trkpt lat="45.23803" lon="5.80343">
        <ele>406.4</ele>
        <time>2021-07-31T12:06:52.000Z</time>
      </trkpt>
      <trkpt lat="45.23803" lon="5.80342">
        <ele>406.6</ele>
        <time>2021-07-31T12:06:56.000Z</time>
      </trkpt>
      <trkpt lat="45.23803" lon="5.80343">
        <ele>406.5</ele>
        <time>2021-07-31T12:07:07.000Z</time>
      </trkpt>
      <trkpt lat="45.23804" lon="5.80342">
        <ele>406.5</ele>
        <time>2021-07-31T12:07:12.000Z</time>
      </trkpt>
      <trkpt lat="45.23804" lon="5.80341">
        <ele>406.7</ele>
        <time>2021-07-31T12:07:18.000Z</time>
      </trkpt>
      <trkpt lat="45.23804" lon="5.80341">
        <ele>406.7</ele>
        <time>2021-07-31T12:07:19.000Z</time>
      </trkpt>
      <trkpt lat="45.23804" lon="5.8034">
        <ele>406.7</ele>
        <time>2021-07-31T12:07:21.000Z</time>
      </trkpt>
      <trkpt lat="45.23804" lon="5.80341">
        <ele>406.7</ele>
        <time>2021-07-31T12:07:26.000Z</time>
      </trkpt>
      <trkpt lat="45.23804" lon="5.80341">
        <ele>406.7</ele>
        <time>2021-07-31T12:07:28.000Z</time>
      </trkpt>
      <trkpt lat="45.23804" lon="5.80341">
        <ele>406.7</ele>
        <time>2021-07-31T12:07:29.000Z</time>
      </trkpt>
      <trkpt lat="45.23805" lon="5.80341">
        <ele>406.7</ele>
        <time>2021-07-31T12:07:33.000Z</time>
      </trkpt>
      <trkpt lat="45.23805" lon="5.80341">
        <ele>406.7</ele>
        <time>2021-07-31T12:07:34.000Z</time>
      </trkpt>
      <trkpt lat="45.23804" lon="5.80341">
        <ele>406.6</ele>
        <time>2021-07-31T12:07:39.000Z</time>
      </trkpt>
      <trkpt lat="45.23804" lon="5.80342">
        <ele>406.6</ele>
        <time>2021-07-31T12:08:55.000Z</time>
      </trkpt>
      <trkpt lat="45.23804" lon="5.80342">
        <ele>406.7</ele>
        <time>2021-07-31T12:08:58.000Z</time>
      </trkpt>
      <trkpt lat="45.23804" lon="5.80341">
        <ele>406.7</ele>
        <time>2021-07-31T12:08:59.000Z</time>
      </trkpt>
      <trkpt lat="45.23804" lon="5.80343">
        <ele>406.5</ele>
        <time>2021-07-31T12:09:07.000Z</time>
      </trkpt>
      <trkpt lat="45.23803" lon="5.80343">
        <ele>406.5</ele>
        <time>2021-07-31T12:10:25.000Z</time>
      </trkpt>
      <trkpt lat="45.23802" lon="5.80343">
        <ele>406.4</ele>
        <time>2021-07-31T12:10:30.000Z</time>
      </trkpt>
      <trkpt lat="45.23803" lon="5.80343">
        <ele>406.4</ele>
        <time>2021-07-31T12:10:31.000Z</time>
      </trkpt>
      <trkpt lat="45.23803" lon="5.80343">
        <ele>406.4</ele>
        <time>2021-07-31T12:10:32.000Z</time>
      </trkpt>
      <trkpt lat="45.23803" lon="5.80343">
        <ele>406.4</ele>
        <time>2021-07-31T12:10:33.000Z</time>
      </trkpt>
      <trkpt lat="45.23804" lon="5.80343">
        <ele>406.5</ele>
        <time>2021-07-31T12:10:38.000Z</time>
      </trkpt>
      <trkpt lat="45.23804" lon="5.80344">
        <ele>406.4</ele>
        <time>2021-07-31T12:10:54.000Z</time>
      </trkpt>
      <trkpt lat="45.23796" lon="5.80352">
        <ele>405.3</ele>
        <time>2021-07-31T12:10:58.000Z</time>
      </trkpt>
      <trkpt lat="45.23787" lon="5.80363">
        <ele>403.8</ele>
        <time>2021-07-31T12:11:00.000Z</time>
      </trkpt>
      <trkpt lat="45.23775" lon="5.80361">
        <ele>403.1</ele>
        <time>2021-07-31T12:11:02.000Z</time>
      </trkpt>
      <trkpt lat="45.23768" lon="5.80345">
        <ele>404</ele>
        <time>2021-07-31T12:11:04.000Z</time>
      </trkpt>
      <trkpt lat="45.23763" lon="5.80331">
        <ele>404.9</ele>
        <time>2021-07-31T12:11:06.000Z</time>
      </trkpt>
      <trkpt lat="45.23758" lon="5.80315">
        <ele>404.8</ele>
        <time>2021-07-31T12:11:08.000Z</time>
      </trkpt>
      <trkpt lat="45.23752" lon="5.80299">
        <ele>404.6</ele>
        <time>2021-07-31T12:11:10.000Z</time>
      </trkpt>
      <trkpt lat="45.23748" lon="5.80281">
        <ele>404.3</ele>
        <time>2021-07-31T12:11:12.000Z</time>
      </trkpt>
      <trkpt lat="45.23742" lon="5.80265">
        <ele>403.8</ele>
        <time>2021-07-31T12:11:14.000Z</time>
      </trkpt>
      <trkpt lat="45.23737" lon="5.80249">
        <ele>403.4</ele>
        <time>2021-07-31T12:11:16.000Z</time>
      </trkpt>
      <trkpt lat="45.23732" lon="5.80233">
        <ele>404</ele>
        <time>2021-07-31T12:11:18.000Z</time>
      </trkpt>
      <trkpt lat="45.23725" lon="5.80218">
        <ele>404.1</ele>
        <time>2021-07-31T12:11:20.000Z</time>
      </trkpt>
      <trkpt lat="45.23719" lon="5.80202">
        <ele>404.4</ele>
        <time>2021-07-31T12:11:22.000Z</time>
      </trkpt>
      <trkpt lat="45.23713" lon="5.80189">
        <ele>404.3</ele>
        <time>2021-07-31T12:11:24.000Z</time>
      </trkpt>
      <trkpt lat="45.23705" lon="5.80176">
        <ele>403.9</ele>
        <time>2021-07-31T12:11:27.000Z</time>
      </trkpt>
      <trkpt lat="45.23701" lon="5.80164">
        <ele>404</ele>
        <time>2021-07-31T12:11:29.000Z</time>
      </trkpt>
      <trkpt lat="45.23696" lon="5.80146">
        <ele>405.1</ele>
        <time>2021-07-31T12:11:32.000Z</time>
      </trkpt>
      <trkpt lat="45.23692" lon="5.80131">
        <ele>405.8</ele>
        <time>2021-07-31T12:11:34.000Z</time>
      </trkpt>
      <trkpt lat="45.23685" lon="5.80116">
        <ele>406.1</ele>
        <time>2021-07-31T12:11:36.000Z</time>
      </trkpt>
      <trkpt lat="45.23679" lon="5.80102">
        <ele>406.4</ele>
        <time>2021-07-31T12:11:38.000Z</time>
      </trkpt>
      <trkpt lat="45.23676" lon="5.80091">
        <ele>407.1</ele>
        <time>2021-07-31T12:11:41.000Z</time>
      </trkpt>
      <trkpt lat="45.23675" lon="5.80091">
        <ele>406.9</ele>
        <time>2021-07-31T12:11:42.000Z</time>
      </trkpt>
      <trkpt lat="45.23671" lon="5.80077">
        <ele>407</ele>
        <time>2021-07-31T12:11:51.000Z</time>
      </trkpt>
      <trkpt lat="45.23669" lon="5.80058">
        <ele>407.6</ele>
        <time>2021-07-31T12:11:54.000Z</time>
      </trkpt>
      <trkpt lat="45.23667" lon="5.80039">
        <ele>408.2</ele>
        <time>2021-07-31T12:11:56.000Z</time>
      </trkpt>
      <trkpt lat="45.23658" lon="5.80016">
        <ele>407.2</ele>
        <time>2021-07-31T12:11:58.000Z</time>
      </trkpt>
      <trkpt lat="45.23651" lon="5.80004">
        <ele>405.9</ele>
        <time>2021-07-31T12:11:59.000Z</time>
      </trkpt>
      <trkpt lat="45.23643" lon="5.79993">
        <ele>405</ele>
        <time>2021-07-31T12:12:00.000Z</time>
      </trkpt>
      <trkpt lat="45.23633" lon="5.79983">
        <ele>403.9</ele>
        <time>2021-07-31T12:12:01.000Z</time>
      </trkpt>
      <trkpt lat="45.23624" lon="5.79974">
        <ele>402.4</ele>
        <time>2021-07-31T12:12:02.000Z</time>
      </trkpt>
      <trkpt lat="45.23611" lon="5.79969">
        <ele>399.5</ele>
        <time>2021-07-31T12:12:03.000Z</time>
      </trkpt>
      <trkpt lat="45.23599" lon="5.79967">
        <ele>396.1</ele>
        <time>2021-07-31T12:12:04.000Z</time>
      </trkpt>
      <trkpt lat="45.23587" lon="5.79966">
        <ele>392.2</ele>
        <time>2021-07-31T12:12:05.000Z</time>
      </trkpt>
      <trkpt lat="45.23575" lon="5.79966">
        <ele>389.8</ele>
        <time>2021-07-31T12:12:06.000Z</time>
      </trkpt>
      <trkpt lat="45.23563" lon="5.79966">
        <ele>387.9</ele>
        <time>2021-07-31T12:12:07.000Z</time>
      </trkpt>
      <trkpt lat="45.23552" lon="5.79965">
        <ele>386</ele>
        <time>2021-07-31T12:12:08.000Z</time>
      </trkpt>
      <trkpt lat="45.23539" lon="5.79965">
        <ele>383.8</ele>
        <time>2021-07-31T12:12:09.000Z</time>
      </trkpt>
      <trkpt lat="45.23528" lon="5.79965">
        <ele>381.8</ele>
        <time>2021-07-31T12:12:10.000Z</time>
      </trkpt>
      <trkpt lat="45.23516" lon="5.79965">
        <ele>379.8</ele>
        <time>2021-07-31T12:12:11.000Z</time>
      </trkpt>
      <trkpt lat="45.23502" lon="5.79965">
        <ele>377.4</ele>
        <time>2021-07-31T12:12:12.000Z</time>
      </trkpt>
      <trkpt lat="45.2349" lon="5.79965">
        <ele>376.6</ele>
        <time>2021-07-31T12:12:13.000Z</time>
      </trkpt>
      <trkpt lat="45.23479" lon="5.79966">
        <ele>376.1</ele>
        <time>2021-07-31T12:12:14.000Z</time>
      </trkpt>
      <trkpt lat="45.23467" lon="5.79966">
        <ele>375.6</ele>
        <time>2021-07-31T12:12:15.000Z</time>
      </trkpt>
      <trkpt lat="45.23457" lon="5.79964">
        <ele>375.1</ele>
        <time>2021-07-31T12:12:16.000Z</time>
      </trkpt>
      <trkpt lat="45.23446" lon="5.79964">
        <ele>374.7</ele>
        <time>2021-07-31T12:12:17.000Z</time>
      </trkpt>
      <trkpt lat="45.23434" lon="5.79966">
        <ele>374.2</ele>
        <time>2021-07-31T12:12:18.000Z</time>
      </trkpt>
      <trkpt lat="45.23424" lon="5.79968">
        <ele>373.7</ele>
        <time>2021-07-31T12:12:19.000Z</time>
      </trkpt>
      <trkpt lat="45.23414" lon="5.79971">
        <ele>373.2</ele>
        <time>2021-07-31T12:12:20.000Z</time>
      </trkpt>
      <trkpt lat="45.23403" lon="5.79973">
        <ele>372.5</ele>
        <time>2021-07-31T12:12:21.000Z</time>
      </trkpt>
      <trkpt lat="45.23392" lon="5.79977">
        <ele>371.8</ele>
        <time>2021-07-31T12:12:22.000Z</time>
      </trkpt>
      <trkpt lat="45.23383" lon="5.7998">
        <ele>371.1</ele>
        <time>2021-07-31T12:12:23.000Z</time>
      </trkpt>
      <trkpt lat="45.23373" lon="5.79984">
        <ele>370.4</ele>
        <time>2021-07-31T12:12:24.000Z</time>
      </trkpt>
      <trkpt lat="45.23364" lon="5.79987">
        <ele>369.7</ele>
        <time>2021-07-31T12:12:25.000Z</time>
      </trkpt>
      <trkpt lat="45.23346" lon="5.79986">
        <ele>368.5</ele>
        <time>2021-07-31T12:12:27.000Z</time>
      </trkpt>
      <trkpt lat="45.2333" lon="5.79979">
        <ele>367.9</ele>
        <time>2021-07-31T12:12:29.000Z</time>
      </trkpt>
      <trkpt lat="45.23316" lon="5.79968">
        <ele>367.9</ele>
        <time>2021-07-31T12:12:31.000Z</time>
      </trkpt>
      <trkpt lat="45.23305" lon="5.79956">
        <ele>368.1</ele>
        <time>2021-07-31T12:12:33.000Z</time>
      </trkpt>
      <trkpt lat="45.23294" lon="5.79944">
        <ele>368.4</ele>
        <time>2021-07-31T12:12:35.000Z</time>
      </trkpt>
      <trkpt lat="45.23285" lon="5.79934">
        <ele>368.8</ele>
        <time>2021-07-31T12:12:37.000Z</time>
      </trkpt>
      <trkpt lat="45.23277" lon="5.79923">
        <ele>369.3</ele>
        <time>2021-07-31T12:12:39.000Z</time>
      </trkpt>
      <trkpt lat="45.23268" lon="5.79913">
        <ele>369.9</ele>
        <time>2021-07-31T12:12:41.000Z</time>
      </trkpt>
      <trkpt lat="45.23259" lon="5.79903">
        <ele>370.8</ele>
        <time>2021-07-31T12:12:43.000Z</time>
      </trkpt>
      <trkpt lat="45.23251" lon="5.79893">
        <ele>371.6</ele>
        <time>2021-07-31T12:12:45.000Z</time>
      </trkpt>
      <trkpt lat="45.23242" lon="5.79884">
        <ele>372.2</ele>
        <time>2021-07-31T12:12:47.000Z</time>
      </trkpt>
      <trkpt lat="45.23231" lon="5.79877">
        <ele>372.6</ele>
        <time>2021-07-31T12:12:49.000Z</time>
      </trkpt>
      <trkpt lat="45.23218" lon="5.79869">
        <ele>372.7</ele>
        <time>2021-07-31T12:12:51.000Z</time>
      </trkpt>
      <trkpt lat="45.23206" lon="5.79857">
        <ele>373.1</ele>
        <time>2021-07-31T12:12:53.000Z</time>
      </trkpt>
      <trkpt lat="45.23193" lon="5.79847">
        <ele>373</ele>
        <time>2021-07-31T12:12:55.000Z</time>
      </trkpt>
      <trkpt lat="45.2318" lon="5.79835">
        <ele>372.9</ele>
        <time>2021-07-31T12:12:57.000Z</time>
      </trkpt>
      <trkpt lat="45.23168" lon="5.79822">
        <ele>373</ele>
        <time>2021-07-31T12:12:59.000Z</time>
      </trkpt>
      <trkpt lat="45.23158" lon="5.79807">
        <ele>373.1</ele>
        <time>2021-07-31T12:13:01.000Z</time>
      </trkpt>
      <trkpt lat="45.23146" lon="5.79794">
        <ele>372.9</ele>
        <time>2021-07-31T12:13:03.000Z</time>
      </trkpt>
      <trkpt lat="45.23135" lon="5.79782">
        <ele>372.5</ele>
        <time>2021-07-31T12:13:05.000Z</time>
      </trkpt>
      <trkpt lat="45.23124" lon="5.79769">
        <ele>372.2</ele>
        <time>2021-07-31T12:13:07.000Z</time>
      </trkpt>
      <trkpt lat="45.23114" lon="5.79754">
        <ele>372</ele>
        <time>2021-07-31T12:13:09.000Z</time>
      </trkpt>
      <trkpt lat="45.23106" lon="5.79738">
        <ele>372.5</ele>
        <time>2021-07-31T12:13:11.000Z</time>
      </trkpt>
      <trkpt lat="45.23099" lon="5.7972">
        <ele>372.9</ele>
        <time>2021-07-31T12:13:13.000Z</time>
      </trkpt>
      <trkpt lat="45.23092" lon="5.79704">
        <ele>373.4</ele>
        <time>2021-07-31T12:13:15.000Z</time>
      </trkpt>
      <trkpt lat="45.23086" lon="5.79686">
        <ele>373.9</ele>
        <time>2021-07-31T12:13:17.000Z</time>
      </trkpt>
      <trkpt lat="45.23081" lon="5.79665">
        <ele>374.9</ele>
        <time>2021-07-31T12:13:19.000Z</time>
      </trkpt>
      <trkpt lat="45.23076" lon="5.79648">
        <ele>375.1</ele>
        <time>2021-07-31T12:13:21.000Z</time>
      </trkpt>
      <trkpt lat="45.2307" lon="5.79628">
        <ele>375.4</ele>
        <time>2021-07-31T12:13:23.000Z</time>
      </trkpt>
      <trkpt lat="45.23063" lon="5.7961">
        <ele>375.4</ele>
        <time>2021-07-31T12:13:25.000Z</time>
      </trkpt>
      <trkpt lat="45.23056" lon="5.79591">
        <ele>375.4</ele>
        <time>2021-07-31T12:13:27.000Z</time>
      </trkpt>
      <trkpt lat="45.23049" lon="5.79572">
        <ele>375.2</ele>
        <time>2021-07-31T12:13:29.000Z</time>
      </trkpt>
      <trkpt lat="45.23043" lon="5.79553">
        <ele>374.9</ele>
        <time>2021-07-31T12:13:31.000Z</time>
      </trkpt>
      <trkpt lat="45.23039" lon="5.79533">
        <ele>374.9</ele>
        <time>2021-07-31T12:13:33.000Z</time>
      </trkpt>
      <trkpt lat="45.23037" lon="5.79515">
        <ele>375</ele>
        <time>2021-07-31T12:13:35.000Z</time>
      </trkpt>
      <trkpt lat="45.23036" lon="5.79496">
        <ele>375.3</ele>
        <time>2021-07-31T12:13:37.000Z</time>
      </trkpt>
      <trkpt lat="45.23036" lon="5.79477">
        <ele>376.2</ele>
        <time>2021-07-31T12:13:39.000Z</time>
      </trkpt>
      <trkpt lat="45.23036" lon="5.79459">
        <ele>377.2</ele>
        <time>2021-07-31T12:13:41.000Z</time>
      </trkpt>
      <trkpt lat="45.23037" lon="5.79441">
        <ele>378.1</ele>
        <time>2021-07-31T12:13:43.000Z</time>
      </trkpt>
      <trkpt lat="45.23039" lon="5.79429">
        <ele>379.1</ele>
        <time>2021-07-31T12:13:45.000Z</time>
      </trkpt>
      <trkpt lat="45.23039" lon="5.79409">
        <ele>379.6</ele>
        <time>2021-07-31T12:13:48.000Z</time>
      </trkpt>
      <trkpt lat="45.23038" lon="5.79392">
        <ele>379.3</ele>
        <time>2021-07-31T12:13:50.000Z</time>
      </trkpt>
      <trkpt lat="45.23036" lon="5.79374">
        <ele>378.9</ele>
        <time>2021-07-31T12:13:52.000Z</time>
      </trkpt>
      <trkpt lat="45.23034" lon="5.79355">
        <ele>378.4</ele>
        <time>2021-07-31T12:13:54.000Z</time>
      </trkpt>
      <trkpt lat="45.23032" lon="5.79337">
        <ele>378.1</ele>
        <time>2021-07-31T12:13:56.000Z</time>
      </trkpt>
      <trkpt lat="45.23031" lon="5.79318">
        <ele>378.3</ele>
        <time>2021-07-31T12:13:58.000Z</time>
      </trkpt>
      <trkpt lat="45.23028" lon="5.793">
        <ele>378.6</ele>
        <time>2021-07-31T12:14:00.000Z</time>
      </trkpt>
      <trkpt lat="45.23025" lon="5.79279">
        <ele>378.9</ele>
        <time>2021-07-31T12:14:02.000Z</time>
      </trkpt>
      <trkpt lat="45.23023" lon="5.79259">
        <ele>379.2</ele>
        <time>2021-07-31T12:14:04.000Z</time>
      </trkpt>
      <trkpt lat="45.23021" lon="5.79239">
        <ele>379.7</ele>
        <time>2021-07-31T12:14:06.000Z</time>
      </trkpt>
      <trkpt lat="45.2302" lon="5.79219">
        <ele>380.2</ele>
        <time>2021-07-31T12:14:08.000Z</time>
      </trkpt>
      <trkpt lat="45.23019" lon="5.79199">
        <ele>380.9</ele>
        <time>2021-07-31T12:14:10.000Z</time>
      </trkpt>
      <trkpt lat="45.23018" lon="5.79181">
        <ele>381.4</ele>
        <time>2021-07-31T12:14:12.000Z</time>
      </trkpt>
      <trkpt lat="45.23018" lon="5.79163">
        <ele>381.8</ele>
        <time>2021-07-31T12:14:14.000Z</time>
      </trkpt>
      <trkpt lat="45.23015" lon="5.79144">
        <ele>381.1</ele>
        <time>2021-07-31T12:14:16.000Z</time>
      </trkpt>
      <trkpt lat="45.23007" lon="5.7913">
        <ele>379.9</ele>
        <time>2021-07-31T12:14:18.000Z</time>
      </trkpt>
      <trkpt lat="45.22998" lon="5.79116">
        <ele>378.5</ele>
        <time>2021-07-31T12:14:20.000Z</time>
      </trkpt>
      <trkpt lat="45.22989" lon="5.79102">
        <ele>377.4</ele>
        <time>2021-07-31T12:14:22.000Z</time>
      </trkpt>
      <trkpt lat="45.2298" lon="5.79088">
        <ele>376.4</ele>
        <time>2021-07-31T12:14:24.000Z</time>
      </trkpt>
      <trkpt lat="45.22972" lon="5.79076">
        <ele>376.2</ele>
        <time>2021-07-31T12:14:26.000Z</time>
      </trkpt>
      <trkpt lat="45.22966" lon="5.79064">
        <ele>376.7</ele>
        <time>2021-07-31T12:14:28.000Z</time>
      </trkpt>
      <trkpt lat="45.22958" lon="5.79054">
        <ele>376.8</ele>
        <time>2021-07-31T12:14:30.000Z</time>
      </trkpt>
      <trkpt lat="45.2295" lon="5.79044">
        <ele>377</ele>
        <time>2021-07-31T12:14:32.000Z</time>
      </trkpt>
      <trkpt lat="45.22943" lon="5.79033">
        <ele>377.3</ele>
        <time>2021-07-31T12:14:34.000Z</time>
      </trkpt>
      <trkpt lat="45.22937" lon="5.79024">
        <ele>377.6</ele>
        <time>2021-07-31T12:14:36.000Z</time>
      </trkpt>
      <trkpt lat="45.2293" lon="5.79011">
        <ele>378.1</ele>
        <time>2021-07-31T12:14:39.000Z</time>
      </trkpt>
      <trkpt lat="45.22923" lon="5.78995">
        <ele>378.9</ele>
        <time>2021-07-31T12:14:42.000Z</time>
      </trkpt>
      <trkpt lat="45.22922" lon="5.78979">
        <ele>380.3</ele>
        <time>2021-07-31T12:14:45.000Z</time>
      </trkpt>
      <trkpt lat="45.22915" lon="5.78965">
        <ele>380.9</ele>
        <time>2021-07-31T12:14:48.000Z</time>
      </trkpt>
      <trkpt lat="45.22907" lon="5.78957">
        <ele>381</ele>
        <time>2021-07-31T12:14:50.000Z</time>
      </trkpt>
      <trkpt lat="45.22899" lon="5.78948">
        <ele>381.3</ele>
        <time>2021-07-31T12:14:52.000Z</time>
      </trkpt>
      <trkpt lat="45.22887" lon="5.78946">
        <ele>380.8</ele>
        <time>2021-07-31T12:14:54.000Z</time>
      </trkpt>
      <trkpt lat="45.22872" lon="5.78942">
        <ele>380.3</ele>
        <time>2021-07-31T12:14:56.000Z</time>
      </trkpt>
      <trkpt lat="45.2286" lon="5.78926">
        <ele>381.3</ele>
        <time>2021-07-31T12:14:58.000Z</time>
      </trkpt>
      <trkpt lat="45.2285" lon="5.78911">
        <ele>382.1</ele>
        <time>2021-07-31T12:15:00.000Z</time>
      </trkpt>
      <trkpt lat="45.22836" lon="5.7891">
        <ele>381.5</ele>
        <time>2021-07-31T12:15:02.000Z</time>
      </trkpt>
      <trkpt lat="45.22827" lon="5.78908">
        <ele>380.5</ele>
        <time>2021-07-31T12:15:04.000Z</time>
      </trkpt>
      <trkpt lat="45.22821" lon="5.78897">
        <ele>380.2</ele>
        <time>2021-07-31T12:15:06.000Z</time>
      </trkpt>
      <trkpt lat="45.22816" lon="5.78882">
        <ele>380.2</ele>
        <time>2021-07-31T12:15:08.000Z</time>
      </trkpt>
      <trkpt lat="45.22809" lon="5.7887">
        <ele>379.7</ele>
        <time>2021-07-31T12:15:10.000Z</time>
      </trkpt>
      <trkpt lat="45.228" lon="5.78858">
        <ele>379.2</ele>
        <time>2021-07-31T12:15:12.000Z</time>
      </trkpt>
      <trkpt lat="45.22792" lon="5.78843">
        <ele>378.9</ele>
        <time>2021-07-31T12:15:14.000Z</time>
      </trkpt>
      <trkpt lat="45.22781" lon="5.78831">
        <ele>378.2</ele>
        <time>2021-07-31T12:15:16.000Z</time>
      </trkpt>
      <trkpt lat="45.22771" lon="5.78816">
        <ele>377.5</ele>
        <time>2021-07-31T12:15:18.000Z</time>
      </trkpt>
      <trkpt lat="45.2276" lon="5.78805">
        <ele>376.5</ele>
        <time>2021-07-31T12:15:20.000Z</time>
      </trkpt>
      <trkpt lat="45.22747" lon="5.78794">
        <ele>375.5</ele>
        <time>2021-07-31T12:15:22.000Z</time>
      </trkpt>
      <trkpt lat="45.22733" lon="5.78785">
        <ele>374.7</ele>
        <time>2021-07-31T12:15:24.000Z</time>
      </trkpt>
      <trkpt lat="45.22718" lon="5.78776">
        <ele>373.9</ele>
        <time>2021-07-31T12:15:26.000Z</time>
      </trkpt>
      <trkpt lat="45.22704" lon="5.78766">
        <ele>373.4</ele>
        <time>2021-07-31T12:15:28.000Z</time>
      </trkpt>
      <trkpt lat="45.2269" lon="5.78755">
        <ele>373.4</ele>
        <time>2021-07-31T12:15:30.000Z</time>
      </trkpt>
      <trkpt lat="45.22683" lon="5.78741">
        <ele>373.7</ele>
        <time>2021-07-31T12:15:32.000Z</time>
      </trkpt>
      <trkpt lat="45.22675" lon="5.78727">
        <ele>373.9</ele>
        <time>2021-07-31T12:15:34.000Z</time>
      </trkpt>
      <trkpt lat="45.22666" lon="5.78712">
        <ele>374.1</ele>
        <time>2021-07-31T12:15:36.000Z</time>
      </trkpt>
      <trkpt lat="45.22656" lon="5.78695">
        <ele>373.8</ele>
        <time>2021-07-31T12:15:38.000Z</time>
      </trkpt>
      <trkpt lat="45.22651" lon="5.78676">
        <ele>374.3</ele>
        <time>2021-07-31T12:15:40.000Z</time>
      </trkpt>
      <trkpt lat="45.22644" lon="5.78659">
        <ele>374.2</ele>
        <time>2021-07-31T12:15:42.000Z</time>
      </trkpt>
      <trkpt lat="45.22637" lon="5.78642">
        <ele>374.1</ele>
        <time>2021-07-31T12:15:44.000Z</time>
      </trkpt>
      <trkpt lat="45.22633" lon="5.78623">
        <ele>374.7</ele>
        <time>2021-07-31T12:15:46.000Z</time>
      </trkpt>
      <trkpt lat="45.22632" lon="5.78603">
        <ele>375.5</ele>
        <time>2021-07-31T12:15:48.000Z</time>
      </trkpt>
      <trkpt lat="45.2263" lon="5.78584">
        <ele>376.4</ele>
        <time>2021-07-31T12:15:50.000Z</time>
      </trkpt>
      <trkpt lat="45.22627" lon="5.78567">
        <ele>376.7</ele>
        <time>2021-07-31T12:15:52.000Z</time>
      </trkpt>
      <trkpt lat="45.22622" lon="5.78551">
        <ele>376.8</ele>
        <time>2021-07-31T12:15:54.000Z</time>
      </trkpt>
      <trkpt lat="45.22617" lon="5.78534">
        <ele>377</ele>
        <time>2021-07-31T12:15:56.000Z</time>
      </trkpt>
      <trkpt lat="45.22609" lon="5.78517">
        <ele>376.8</ele>
        <time>2021-07-31T12:15:58.000Z</time>
      </trkpt>
      <trkpt lat="45.22602" lon="5.785">
        <ele>376.7</ele>
        <time>2021-07-31T12:16:00.000Z</time>
      </trkpt>
      <trkpt lat="45.22594" lon="5.78484">
        <ele>376.4</ele>
        <time>2021-07-31T12:16:02.000Z</time>
      </trkpt>
      <trkpt lat="45.22588" lon="5.78471">
        <ele>376</ele>
        <time>2021-07-31T12:16:04.000Z</time>
      </trkpt>
      <trkpt lat="45.22578" lon="5.78463">
        <ele>374.9</ele>
        <time>2021-07-31T12:16:08.000Z</time>
      </trkpt>
      <trkpt lat="45.22569" lon="5.78456">
        <ele>373.7</ele>
        <time>2021-07-31T12:16:10.000Z</time>
      </trkpt>
      <trkpt lat="45.22559" lon="5.78441">
        <ele>372.7</ele>
        <time>2021-07-31T12:16:12.000Z</time>
      </trkpt>
      <trkpt lat="45.22549" lon="5.78424">
        <ele>371.5</ele>
        <time>2021-07-31T12:16:14.000Z</time>
      </trkpt>
      <trkpt lat="45.22537" lon="5.78405">
        <ele>369.8</ele>
        <time>2021-07-31T12:16:16.000Z</time>
      </trkpt>
      <trkpt lat="45.22527" lon="5.78385">
        <ele>368.4</ele>
        <time>2021-07-31T12:16:18.000Z</time>
      </trkpt>
      <trkpt lat="45.22523" lon="5.78374">
        <ele>367.9</ele>
        <time>2021-07-31T12:16:19.000Z</time>
      </trkpt>
      <trkpt lat="45.22512" lon="5.78356">
        <ele>366.4</ele>
        <time>2021-07-31T12:16:21.000Z</time>
      </trkpt>
      <trkpt lat="45.22499" lon="5.78341">
        <ele>364.7</ele>
        <time>2021-07-31T12:16:23.000Z</time>
      </trkpt>
      <trkpt lat="45.22487" lon="5.78328">
        <ele>363.6</ele>
        <time>2021-07-31T12:16:25.000Z</time>
      </trkpt>
      <trkpt lat="45.22476" lon="5.78313">
        <ele>363.7</ele>
        <time>2021-07-31T12:16:27.000Z</time>
      </trkpt>
      <trkpt lat="45.22467" lon="5.78297">
        <ele>363.9</ele>
        <time>2021-07-31T12:16:29.000Z</time>
      </trkpt>
      <trkpt lat="45.22458" lon="5.78281">
        <ele>364.4</ele>
        <time>2021-07-31T12:16:31.000Z</time>
      </trkpt>
      <trkpt lat="45.22448" lon="5.78265">
        <ele>364.7</ele>
        <time>2021-07-31T12:16:33.000Z</time>
      </trkpt>
      <trkpt lat="45.22438" lon="5.78251">
        <ele>364.7</ele>
        <time>2021-07-31T12:16:35.000Z</time>
      </trkpt>
      <trkpt lat="45.22428" lon="5.78237">
        <ele>364.5</ele>
        <time>2021-07-31T12:16:37.000Z</time>
      </trkpt>
      <trkpt lat="45.22418" lon="5.78223">
        <ele>364.2</ele>
        <time>2021-07-31T12:16:39.000Z</time>
      </trkpt>
      <trkpt lat="45.22407" lon="5.7821">
        <ele>363.9</ele>
        <time>2021-07-31T12:16:41.000Z</time>
      </trkpt>
      <trkpt lat="45.22396" lon="5.782">
        <ele>363.5</ele>
        <time>2021-07-31T12:16:43.000Z</time>
      </trkpt>
      <trkpt lat="45.22384" lon="5.78189">
        <ele>363</ele>
        <time>2021-07-31T12:16:45.000Z</time>
      </trkpt>
      <trkpt lat="45.22374" lon="5.7818">
        <ele>362.5</ele>
        <time>2021-07-31T12:16:47.000Z</time>
      </trkpt>
      <trkpt lat="45.22365" lon="5.78172">
        <ele>362.1</ele>
        <time>2021-07-31T12:16:49.000Z</time>
      </trkpt>
      <trkpt lat="45.22353" lon="5.78177">
        <ele>360.5</ele>
        <time>2021-07-31T12:16:51.000Z</time>
      </trkpt>
      <trkpt lat="45.2234" lon="5.78186">
        <ele>358.6</ele>
        <time>2021-07-31T12:16:53.000Z</time>
      </trkpt>
      <trkpt lat="45.22324" lon="5.78196">
        <ele>356.3</ele>
        <time>2021-07-31T12:16:55.000Z</time>
      </trkpt>
      <trkpt lat="45.22314" lon="5.78199">
        <ele>355.2</ele>
        <time>2021-07-31T12:16:56.000Z</time>
      </trkpt>
      <trkpt lat="45.22304" lon="5.78203">
        <ele>353.9</ele>
        <time>2021-07-31T12:16:57.000Z</time>
      </trkpt>
      <trkpt lat="45.22287" lon="5.78204">
        <ele>352.2</ele>
        <time>2021-07-31T12:16:59.000Z</time>
      </trkpt>
      <trkpt lat="45.22278" lon="5.78202">
        <ele>351.4</ele>
        <time>2021-07-31T12:17:00.000Z</time>
      </trkpt>
      <trkpt lat="45.22263" lon="5.78188">
        <ele>351.2</ele>
        <time>2021-07-31T12:17:02.000Z</time>
      </trkpt>
      <trkpt lat="45.22255" lon="5.78179">
        <ele>351.4</ele>
        <time>2021-07-31T12:17:03.000Z</time>
      </trkpt>
      <trkpt lat="45.22249" lon="5.78168">
        <ele>351.7</ele>
        <time>2021-07-31T12:17:04.000Z</time>
      </trkpt>
      <trkpt lat="45.22243" lon="5.78157">
        <ele>351.5</ele>
        <time>2021-07-31T12:17:05.000Z</time>
      </trkpt>
      <trkpt lat="45.22237" lon="5.78146">
        <ele>351.2</ele>
        <time>2021-07-31T12:17:06.000Z</time>
      </trkpt>
      <trkpt lat="45.22231" lon="5.78136">
        <ele>350.6</ele>
        <time>2021-07-31T12:17:07.000Z</time>
      </trkpt>
      <trkpt lat="45.22222" lon="5.78116">
        <ele>349.9</ele>
        <time>2021-07-31T12:17:09.000Z</time>
      </trkpt>
      <trkpt lat="45.22214" lon="5.78096">
        <ele>349.6</ele>
        <time>2021-07-31T12:17:11.000Z</time>
      </trkpt>
      <trkpt lat="45.22209" lon="5.78075">
        <ele>349.5</ele>
        <time>2021-07-31T12:17:13.000Z</time>
      </trkpt>
      <trkpt lat="45.22204" lon="5.78054">
        <ele>349.3</ele>
        <time>2021-07-31T12:17:15.000Z</time>
      </trkpt>
      <trkpt lat="45.22199" lon="5.78035">
        <ele>349</ele>
        <time>2021-07-31T12:17:17.000Z</time>
      </trkpt>
      <trkpt lat="45.22195" lon="5.78017">
        <ele>349</ele>
        <time>2021-07-31T12:17:19.000Z</time>
      </trkpt>
      <trkpt lat="45.2219" lon="5.77997">
        <ele>348.9</ele>
        <time>2021-07-31T12:17:21.000Z</time>
      </trkpt>
      <trkpt lat="45.22185" lon="5.77975">
        <ele>348.5</ele>
        <time>2021-07-31T12:17:23.000Z</time>
      </trkpt>
      <trkpt lat="45.22182" lon="5.77951">
        <ele>348.3</ele>
        <time>2021-07-31T12:17:25.000Z</time>
      </trkpt>
      <trkpt lat="45.22178" lon="5.77929">
        <ele>348.1</ele>
        <time>2021-07-31T12:17:27.000Z</time>
      </trkpt>
      <trkpt lat="45.22173" lon="5.77906">
        <ele>348.5</ele>
        <time>2021-07-31T12:17:29.000Z</time>
      </trkpt>
      <trkpt lat="45.22168" lon="5.77886">
        <ele>349.2</ele>
        <time>2021-07-31T12:17:31.000Z</time>
      </trkpt>
      <trkpt lat="45.22163" lon="5.77865">
        <ele>350.3</ele>
        <time>2021-07-31T12:17:33.000Z</time>
      </trkpt>
      <trkpt lat="45.22159" lon="5.77846">
        <ele>351.4</ele>
        <time>2021-07-31T12:17:35.000Z</time>
      </trkpt>
      <trkpt lat="45.22161" lon="5.77828">
        <ele>353.1</ele>
        <time>2021-07-31T12:17:37.000Z</time>
      </trkpt>
      <trkpt lat="45.22167" lon="5.77815">
        <ele>355.8</ele>
        <time>2021-07-31T12:17:40.000Z</time>
      </trkpt>
      <trkpt lat="45.22161" lon="5.77798">
        <ele>356</ele>
        <time>2021-07-31T12:17:43.000Z</time>
      </trkpt>
      <trkpt lat="45.22151" lon="5.77787">
        <ele>354.5</ele>
        <time>2021-07-31T12:17:45.000Z</time>
      </trkpt>
      <trkpt lat="45.22136" lon="5.77778">
        <ele>351.9</ele>
        <time>2021-07-31T12:17:47.000Z</time>
      </trkpt>
      <trkpt lat="45.22127" lon="5.77775">
        <ele>349.8</ele>
        <time>2021-07-31T12:17:48.000Z</time>
      </trkpt>
      <trkpt lat="45.22117" lon="5.77774">
        <ele>347.4</ele>
        <time>2021-07-31T12:17:49.000Z</time>
      </trkpt>
      <trkpt lat="45.22104" lon="5.77779">
        <ele>343.9</ele>
        <time>2021-07-31T12:17:50.000Z</time>
      </trkpt>
      <trkpt lat="45.22095" lon="5.77785">
        <ele>341.2</ele>
        <time>2021-07-31T12:17:51.000Z</time>
      </trkpt>
      <trkpt lat="45.22087" lon="5.77791">
        <ele>339</ele>
        <time>2021-07-31T12:17:52.000Z</time>
      </trkpt>
      <trkpt lat="45.22079" lon="5.77798">
        <ele>336.9</ele>
        <time>2021-07-31T12:17:53.000Z</time>
      </trkpt>
      <trkpt lat="45.22072" lon="5.77808">
        <ele>335</ele>
        <time>2021-07-31T12:17:54.000Z</time>
      </trkpt>
      <trkpt lat="45.2206" lon="5.77824">
        <ele>332.1</ele>
        <time>2021-07-31T12:17:56.000Z</time>
      </trkpt>
      <trkpt lat="45.22045" lon="5.77835">
        <ele>328.7</ele>
        <time>2021-07-31T12:17:58.000Z</time>
      </trkpt>
      <trkpt lat="45.22032" lon="5.77844">
        <ele>326.1</ele>
        <time>2021-07-31T12:18:00.000Z</time>
      </trkpt>
      <trkpt lat="45.22021" lon="5.77849">
        <ele>324.2</ele>
        <time>2021-07-31T12:18:02.000Z</time>
      </trkpt>
      <trkpt lat="45.22014" lon="5.77832">
        <ele>322.8</ele>
        <time>2021-07-31T12:18:05.000Z</time>
      </trkpt>
      <trkpt lat="45.22013" lon="5.77817">
        <ele>323.1</ele>
        <time>2021-07-31T12:18:07.000Z</time>
      </trkpt>
      <trkpt lat="45.22011" lon="5.77801">
        <ele>323.1</ele>
        <time>2021-07-31T12:18:09.000Z</time>
      </trkpt>
      <trkpt lat="45.22008" lon="5.77784">
        <ele>322.9</ele>
        <time>2021-07-31T12:18:11.000Z</time>
      </trkpt>
      <trkpt lat="45.22004" lon="5.77767">
        <ele>322.6</ele>
        <time>2021-07-31T12:18:13.000Z</time>
      </trkpt>
      <trkpt lat="45.22" lon="5.77753">
        <ele>321.9</ele>
        <time>2021-07-31T12:18:15.000Z</time>
      </trkpt>
      <trkpt lat="45.21993" lon="5.77737">
        <ele>322.2</ele>
        <time>2021-07-31T12:18:17.000Z</time>
      </trkpt>
      <trkpt lat="45.21987" lon="5.77722">
        <ele>322.5</ele>
        <time>2021-07-31T12:18:19.000Z</time>
      </trkpt>
      <trkpt lat="45.21979" lon="5.7771">
        <ele>322.4</ele>
        <time>2021-07-31T12:18:21.000Z</time>
      </trkpt>
      <trkpt lat="45.2197" lon="5.77698">
        <ele>322.2</ele>
        <time>2021-07-31T12:18:23.000Z</time>
      </trkpt>
      <trkpt lat="45.21959" lon="5.77687">
        <ele>321.9</ele>
        <time>2021-07-31T12:18:25.000Z</time>
      </trkpt>
      <trkpt lat="45.21948" lon="5.77678">
        <ele>321.4</ele>
        <time>2021-07-31T12:18:27.000Z</time>
      </trkpt>
      <trkpt lat="45.21937" lon="5.77669">
        <ele>320.8</ele>
        <time>2021-07-31T12:18:29.000Z</time>
      </trkpt>
      <trkpt lat="45.21926" lon="5.77662">
        <ele>320.6</ele>
        <time>2021-07-31T12:18:31.000Z</time>
      </trkpt>
      <trkpt lat="45.21914" lon="5.77654">
        <ele>320.3</ele>
        <time>2021-07-31T12:18:33.000Z</time>
      </trkpt>
      <trkpt lat="45.21901" lon="5.77642">
        <ele>320.4</ele>
        <time>2021-07-31T12:18:35.000Z</time>
      </trkpt>
      <trkpt lat="45.21887" lon="5.77631">
        <ele>320.1</ele>
        <time>2021-07-31T12:18:37.000Z</time>
      </trkpt>
      <trkpt lat="45.21873" lon="5.7762">
        <ele>319.5</ele>
        <time>2021-07-31T12:18:39.000Z</time>
      </trkpt>
      <trkpt lat="45.21858" lon="5.77609">
        <ele>318.7</ele>
        <time>2021-07-31T12:18:41.000Z</time>
      </trkpt>
      <trkpt lat="45.21841" lon="5.77603">
        <ele>316.8</ele>
        <time>2021-07-31T12:18:43.000Z</time>
      </trkpt>
      <trkpt lat="45.21831" lon="5.77602">
        <ele>315.7</ele>
        <time>2021-07-31T12:18:44.000Z</time>
      </trkpt>
      <trkpt lat="45.21821" lon="5.77601">
        <ele>314.5</ele>
        <time>2021-07-31T12:18:45.000Z</time>
      </trkpt>
      <trkpt lat="45.2181" lon="5.776">
        <ele>313.2</ele>
        <time>2021-07-31T12:18:46.000Z</time>
      </trkpt>
      <trkpt lat="45.21799" lon="5.77598">
        <ele>312</ele>
        <time>2021-07-31T12:18:47.000Z</time>
      </trkpt>
      <trkpt lat="45.21789" lon="5.77597">
        <ele>310.7</ele>
        <time>2021-07-31T12:18:48.000Z</time>
      </trkpt>
      <trkpt lat="45.2178" lon="5.77594">
        <ele>309.6</ele>
        <time>2021-07-31T12:18:49.000Z</time>
      </trkpt>
      <trkpt lat="45.2177" lon="5.77594">
        <ele>308.4</ele>
        <time>2021-07-31T12:18:50.000Z</time>
      </trkpt>
      <trkpt lat="45.21761" lon="5.77594">
        <ele>307.3</ele>
        <time>2021-07-31T12:18:51.000Z</time>
      </trkpt>
      <trkpt lat="45.21744" lon="5.77601">
        <ele>305.1</ele>
        <time>2021-07-31T12:18:53.000Z</time>
      </trkpt>
      <trkpt lat="45.21729" lon="5.77612">
        <ele>303.2</ele>
        <time>2021-07-31T12:18:55.000Z</time>
      </trkpt>
      <trkpt lat="45.21718" lon="5.77618">
        <ele>301.7</ele>
        <time>2021-07-31T12:18:57.000Z</time>
      </trkpt>
      <trkpt lat="45.21707" lon="5.77614">
        <ele>300.6</ele>
        <time>2021-07-31T12:19:00.000Z</time>
      </trkpt>
      <trkpt lat="45.21701" lon="5.776">
        <ele>300.5</ele>
        <time>2021-07-31T12:19:02.000Z</time>
      </trkpt>
      <trkpt lat="45.21691" lon="5.77585">
        <ele>300.3</ele>
        <time>2021-07-31T12:19:04.000Z</time>
      </trkpt>
      <trkpt lat="45.21681" lon="5.77569">
        <ele>299.3</ele>
        <time>2021-07-31T12:19:06.000Z</time>
      </trkpt>
      <trkpt lat="45.21671" lon="5.77551">
        <ele>298.1</ele>
        <time>2021-07-31T12:19:08.000Z</time>
      </trkpt>
      <trkpt lat="45.21663" lon="5.77529">
        <ele>296.9</ele>
        <time>2021-07-31T12:19:10.000Z</time>
      </trkpt>
      <trkpt lat="45.21656" lon="5.77508">
        <ele>295.6</ele>
        <time>2021-07-31T12:19:12.000Z</time>
      </trkpt>
      <trkpt lat="45.21648" lon="5.77486">
        <ele>294.4</ele>
        <time>2021-07-31T12:19:14.000Z</time>
      </trkpt>
      <trkpt lat="45.21642" lon="5.77462">
        <ele>293.6</ele>
        <time>2021-07-31T12:19:16.000Z</time>
      </trkpt>
      <trkpt lat="45.21638" lon="5.77449">
        <ele>293.1</ele>
        <time>2021-07-31T12:19:17.000Z</time>
      </trkpt>
      <trkpt lat="45.21634" lon="5.77436">
        <ele>292.7</ele>
        <time>2021-07-31T12:19:18.000Z</time>
      </trkpt>
      <trkpt lat="45.21631" lon="5.77424">
        <ele>292.3</ele>
        <time>2021-07-31T12:19:19.000Z</time>
      </trkpt>
      <trkpt lat="45.21628" lon="5.7741">
        <ele>291.7</ele>
        <time>2021-07-31T12:19:20.000Z</time>
      </trkpt>
      <trkpt lat="45.21626" lon="5.77394">
        <ele>291</ele>
        <time>2021-07-31T12:19:21.000Z</time>
      </trkpt>
      <trkpt lat="45.21626" lon="5.77377">
        <ele>290.4</ele>
        <time>2021-07-31T12:19:22.000Z</time>
      </trkpt>
      <trkpt lat="45.21623" lon="5.77361">
        <ele>289.6</ele>
        <time>2021-07-31T12:19:23.000Z</time>
      </trkpt>
      <trkpt lat="45.21619" lon="5.77347">
        <ele>288.7</ele>
        <time>2021-07-31T12:19:24.000Z</time>
      </trkpt>
      <trkpt lat="45.21615" lon="5.77334">
        <ele>287.8</ele>
        <time>2021-07-31T12:19:25.000Z</time>
      </trkpt>
      <trkpt lat="45.21611" lon="5.77319">
        <ele>287</ele>
        <time>2021-07-31T12:19:26.000Z</time>
      </trkpt>
      <trkpt lat="45.21607" lon="5.77306">
        <ele>286.2</ele>
        <time>2021-07-31T12:19:27.000Z</time>
      </trkpt>
      <trkpt lat="45.21603" lon="5.77291">
        <ele>285.5</ele>
        <time>2021-07-31T12:19:28.000Z</time>
      </trkpt>
      <trkpt lat="45.21599" lon="5.77276">
        <ele>284.8</ele>
        <time>2021-07-31T12:19:29.000Z</time>
      </trkpt>
      <trkpt lat="45.21595" lon="5.77261">
        <ele>284.2</ele>
        <time>2021-07-31T12:19:30.000Z</time>
      </trkpt>
      <trkpt lat="45.21592" lon="5.77247">
        <ele>283.7</ele>
        <time>2021-07-31T12:19:31.000Z</time>
      </trkpt>
      <trkpt lat="45.21588" lon="5.77231">
        <ele>283</ele>
        <time>2021-07-31T12:19:32.000Z</time>
      </trkpt>
      <trkpt lat="45.21585" lon="5.77216">
        <ele>282.4</ele>
        <time>2021-07-31T12:19:33.000Z</time>
      </trkpt>
      <trkpt lat="45.21582" lon="5.772">
        <ele>281.6</ele>
        <time>2021-07-31T12:19:34.000Z</time>
      </trkpt>
      <trkpt lat="45.21579" lon="5.77184">
        <ele>280.9</ele>
        <time>2021-07-31T12:19:35.000Z</time>
      </trkpt>
      <trkpt lat="45.21577" lon="5.77168">
        <ele>280.2</ele>
        <time>2021-07-31T12:19:36.000Z</time>
      </trkpt>
      <trkpt lat="45.21574" lon="5.77152">
        <ele>279.6</ele>
        <time>2021-07-31T12:19:37.000Z</time>
      </trkpt>
      <trkpt lat="45.21571" lon="5.77135">
        <ele>278.9</ele>
        <time>2021-07-31T12:19:38.000Z</time>
      </trkpt>
      <trkpt lat="45.21568" lon="5.77119">
        <ele>278.2</ele>
        <time>2021-07-31T12:19:39.000Z</time>
      </trkpt>
      <trkpt lat="45.21563" lon="5.77102">
        <ele>277.3</ele>
        <time>2021-07-31T12:19:40.000Z</time>
      </trkpt>
      <trkpt lat="45.2156" lon="5.77086">
        <ele>276.4</ele>
        <time>2021-07-31T12:19:41.000Z</time>
      </trkpt>
      <trkpt lat="45.21556" lon="5.77069">
        <ele>275.6</ele>
        <time>2021-07-31T12:19:42.000Z</time>
      </trkpt>
      <trkpt lat="45.21552" lon="5.77052">
        <ele>274.8</ele>
        <time>2021-07-31T12:19:43.000Z</time>
      </trkpt>
      <trkpt lat="45.21549" lon="5.77035">
        <ele>274.1</ele>
        <time>2021-07-31T12:19:44.000Z</time>
      </trkpt>
      <trkpt lat="45.21545" lon="5.77017">
        <ele>273.3</ele>
        <time>2021-07-31T12:19:45.000Z</time>
      </trkpt>
      <trkpt lat="45.21541" lon="5.77">
        <ele>272.4</ele>
        <time>2021-07-31T12:19:46.000Z</time>
      </trkpt>
      <trkpt lat="45.21537" lon="5.76983">
        <ele>271.8</ele>
        <time>2021-07-31T12:19:47.000Z</time>
      </trkpt>
      <trkpt lat="45.21534" lon="5.76965">
        <ele>271.3</ele>
        <time>2021-07-31T12:19:48.000Z</time>
      </trkpt>
      <trkpt lat="45.21531" lon="5.76948">
        <ele>270.6</ele>
        <time>2021-07-31T12:19:49.000Z</time>
      </trkpt>
      <trkpt lat="45.21527" lon="5.7693">
        <ele>269.9</ele>
        <time>2021-07-31T12:19:50.000Z</time>
      </trkpt>
      <trkpt lat="45.21523" lon="5.76914">
        <ele>268.9</ele>
        <time>2021-07-31T12:19:51.000Z</time>
      </trkpt>
      <trkpt lat="45.21519" lon="5.76897">
        <ele>267.7</ele>
        <time>2021-07-31T12:19:52.000Z</time>
      </trkpt>
      <trkpt lat="45.21514" lon="5.76881">
        <ele>266.5</ele>
        <time>2021-07-31T12:19:53.000Z</time>
      </trkpt>
      <trkpt lat="45.2151" lon="5.76865">
        <ele>265.4</ele>
        <time>2021-07-31T12:19:54.000Z</time>
      </trkpt>
      <trkpt lat="45.21505" lon="5.76849">
        <ele>264.3</ele>
        <time>2021-07-31T12:19:55.000Z</time>
      </trkpt>
      <trkpt lat="45.21501" lon="5.76832">
        <ele>263.5</ele>
        <time>2021-07-31T12:19:56.000Z</time>
      </trkpt>
      <trkpt lat="45.21496" lon="5.76816">
        <ele>265.2</ele>
        <time>2021-07-31T12:19:57.000Z</time>
      </trkpt>
      <trkpt lat="45.21492" lon="5.768">
        <ele>267.4</ele>
        <time>2021-07-31T12:19:58.000Z</time>
      </trkpt>
      <trkpt lat="45.21489" lon="5.76785">
        <ele>269.1</ele>
        <time>2021-07-31T12:19:59.000Z</time>
      </trkpt>
      <trkpt lat="45.21485" lon="5.7677">
        <ele>270.5</ele>
        <time>2021-07-31T12:20:00.000Z</time>
      </trkpt>
      <trkpt lat="45.21482" lon="5.76754">
        <ele>271.9</ele>
        <time>2021-07-31T12:20:01.000Z</time>
      </trkpt>
      <trkpt lat="45.21479" lon="5.76739">
        <ele>274.1</ele>
        <time>2021-07-31T12:20:02.000Z</time>
      </trkpt>
      <trkpt lat="45.21475" lon="5.76725">
        <ele>275.8</ele>
        <time>2021-07-31T12:20:03.000Z</time>
      </trkpt>
      <trkpt lat="45.21472" lon="5.76709">
        <ele>277.3</ele>
        <time>2021-07-31T12:20:04.000Z</time>
      </trkpt>
      <trkpt lat="45.21468" lon="5.76693">
        <ele>278.7</ele>
        <time>2021-07-31T12:20:05.000Z</time>
      </trkpt>
      <trkpt lat="45.21464" lon="5.76677">
        <ele>279.5</ele>
        <time>2021-07-31T12:20:06.000Z</time>
      </trkpt>
      <trkpt lat="45.21459" lon="5.76662">
        <ele>279.3</ele>
        <time>2021-07-31T12:20:07.000Z</time>
      </trkpt>
      <trkpt lat="45.21455" lon="5.76647">
        <ele>278.6</ele>
        <time>2021-07-31T12:20:08.000Z</time>
      </trkpt>
      <trkpt lat="45.2145" lon="5.76633">
        <ele>276.8</ele>
        <time>2021-07-31T12:20:09.000Z</time>
      </trkpt>
      <trkpt lat="45.21445" lon="5.76619">
        <ele>275.5</ele>
        <time>2021-07-31T12:20:10.000Z</time>
      </trkpt>
      <trkpt lat="45.21441" lon="5.76605">
        <ele>273.9</ele>
        <time>2021-07-31T12:20:11.000Z</time>
      </trkpt>
      <trkpt lat="45.21437" lon="5.76592">
        <ele>272.4</ele>
        <time>2021-07-31T12:20:12.000Z</time>
      </trkpt>
      <trkpt lat="45.21433" lon="5.76579">
        <ele>271</ele>
        <time>2021-07-31T12:20:13.000Z</time>
      </trkpt>
      <trkpt lat="45.21429" lon="5.76566">
        <ele>269.2</ele>
        <time>2021-07-31T12:20:14.000Z</time>
      </trkpt>
      <trkpt lat="45.21425" lon="5.76554">
        <ele>267.6</ele>
        <time>2021-07-31T12:20:15.000Z</time>
      </trkpt>
      <trkpt lat="45.21421" lon="5.76542">
        <ele>265.9</ele>
        <time>2021-07-31T12:20:16.000Z</time>
      </trkpt>
      <trkpt lat="45.21417" lon="5.7653">
        <ele>263.9</ele>
        <time>2021-07-31T12:20:17.000Z</time>
      </trkpt>
      <trkpt lat="45.21413" lon="5.76517">
        <ele>263.6</ele>
        <time>2021-07-31T12:20:18.000Z</time>
      </trkpt>
      <trkpt lat="45.21409" lon="5.76505">
        <ele>263.3</ele>
        <time>2021-07-31T12:20:19.000Z</time>
      </trkpt>
      <trkpt lat="45.21402" lon="5.76483">
        <ele>263</ele>
        <time>2021-07-31T12:20:21.000Z</time>
      </trkpt>
      <trkpt lat="45.21394" lon="5.76462">
        <ele>261.7</ele>
        <time>2021-07-31T12:20:23.000Z</time>
      </trkpt>
      <trkpt lat="45.21385" lon="5.7644">
        <ele>260.1</ele>
        <time>2021-07-31T12:20:25.000Z</time>
      </trkpt>
      <trkpt lat="45.2138" lon="5.76429">
        <ele>259</ele>
        <time>2021-07-31T12:20:26.000Z</time>
      </trkpt>
      <trkpt lat="45.21375" lon="5.76418">
        <ele>257.9</ele>
        <time>2021-07-31T12:20:27.000Z</time>
      </trkpt>
      <trkpt lat="45.21371" lon="5.76407">
        <ele>257.8</ele>
        <time>2021-07-31T12:20:28.000Z</time>
      </trkpt>
      <trkpt lat="45.21363" lon="5.76386">
        <ele>257.8</ele>
        <time>2021-07-31T12:20:30.000Z</time>
      </trkpt>
      <trkpt lat="45.21354" lon="5.76364">
        <ele>257.2</ele>
        <time>2021-07-31T12:20:32.000Z</time>
      </trkpt>
      <trkpt lat="45.2135" lon="5.76352">
        <ele>256.9</ele>
        <time>2021-07-31T12:20:33.000Z</time>
      </trkpt>
      <trkpt lat="45.21345" lon="5.76341">
        <ele>256.3</ele>
        <time>2021-07-31T12:20:34.000Z</time>
      </trkpt>
      <trkpt lat="45.21341" lon="5.7633">
        <ele>255.6</ele>
        <time>2021-07-31T12:20:35.000Z</time>
      </trkpt>
      <trkpt lat="45.21336" lon="5.76318">
        <ele>255.4</ele>
        <time>2021-07-31T12:20:36.000Z</time>
      </trkpt>
      <trkpt lat="45.21332" lon="5.76306">
        <ele>255.9</ele>
        <time>2021-07-31T12:20:37.000Z</time>
      </trkpt>
      <trkpt lat="45.21329" lon="5.76293">
        <ele>256.8</ele>
        <time>2021-07-31T12:20:38.000Z</time>
      </trkpt>
      <trkpt lat="45.21325" lon="5.7628">
        <ele>257.3</ele>
        <time>2021-07-31T12:20:39.000Z</time>
      </trkpt>
      <trkpt lat="45.21321" lon="5.76268">
        <ele>258.1</ele>
        <time>2021-07-31T12:20:40.000Z</time>
      </trkpt>
      <trkpt lat="45.21318" lon="5.76245">
        <ele>260</ele>
        <time>2021-07-31T12:20:42.000Z</time>
      </trkpt>
      <trkpt lat="45.21313" lon="5.7622">
        <ele>263.3</ele>
        <time>2021-07-31T12:20:44.000Z</time>
      </trkpt>
      <trkpt lat="45.21309" lon="5.76196">
        <ele>266.1</ele>
        <time>2021-07-31T12:20:46.000Z</time>
      </trkpt>
      <trkpt lat="45.21307" lon="5.76184">
        <ele>266.9</ele>
        <time>2021-07-31T12:20:47.000Z</time>
      </trkpt>
      <trkpt lat="45.21302" lon="5.76161">
        <ele>267.8</ele>
        <time>2021-07-31T12:20:49.000Z</time>
      </trkpt>
      <trkpt lat="45.21297" lon="5.76138">
        <ele>266.8</ele>
        <time>2021-07-31T12:20:51.000Z</time>
      </trkpt>
      <trkpt lat="45.21295" lon="5.76115">
        <ele>267</ele>
        <time>2021-07-31T12:20:53.000Z</time>
      </trkpt>
      <trkpt lat="45.21291" lon="5.76094">
        <ele>265.9</ele>
        <time>2021-07-31T12:20:55.000Z</time>
      </trkpt>
      <trkpt lat="45.21286" lon="5.76072">
        <ele>263.8</ele>
        <time>2021-07-31T12:20:57.000Z</time>
      </trkpt>
      <trkpt lat="45.21282" lon="5.7605">
        <ele>262.2</ele>
        <time>2021-07-31T12:20:59.000Z</time>
      </trkpt>
      <trkpt lat="45.2128" lon="5.76029">
        <ele>261.7</ele>
        <time>2021-07-31T12:21:01.000Z</time>
      </trkpt>
      <trkpt lat="45.21278" lon="5.76005">
        <ele>260.8</ele>
        <time>2021-07-31T12:21:03.000Z</time>
      </trkpt>
      <trkpt lat="45.21274" lon="5.75982">
        <ele>260.2</ele>
        <time>2021-07-31T12:21:05.000Z</time>
      </trkpt>
      <trkpt lat="45.21272" lon="5.7597">
        <ele>259.4</ele>
        <time>2021-07-31T12:21:06.000Z</time>
      </trkpt>
      <trkpt lat="45.21267" lon="5.75948">
        <ele>258.5</ele>
        <time>2021-07-31T12:21:08.000Z</time>
      </trkpt>
      <trkpt lat="45.21263" lon="5.75931">
        <ele>258</ele>
        <time>2021-07-31T12:21:10.000Z</time>
      </trkpt>
      <trkpt lat="45.2126" lon="5.75918">
        <ele>257.5</ele>
        <time>2021-07-31T12:21:12.000Z</time>
      </trkpt>
      <trkpt lat="45.21255" lon="5.75906">
        <ele>256.4</ele>
        <time>2021-07-31T12:21:14.000Z</time>
      </trkpt>
      <trkpt lat="45.21251" lon="5.75891">
        <ele>256.1</ele>
        <time>2021-07-31T12:21:16.000Z</time>
      </trkpt>
      <trkpt lat="45.21248" lon="5.75875">
        <ele>256.6</ele>
        <time>2021-07-31T12:21:18.000Z</time>
      </trkpt>
      <trkpt lat="45.21244" lon="5.75859">
        <ele>256.9</ele>
        <time>2021-07-31T12:21:20.000Z</time>
      </trkpt>
      <trkpt lat="45.21241" lon="5.75843">
        <ele>257.4</ele>
        <time>2021-07-31T12:21:22.000Z</time>
      </trkpt>
      <trkpt lat="45.21237" lon="5.75828">
        <ele>257.2</ele>
        <time>2021-07-31T12:21:24.000Z</time>
      </trkpt>
      <trkpt lat="45.21233" lon="5.75811">
        <ele>256</ele>
        <time>2021-07-31T12:21:26.000Z</time>
      </trkpt>
      <trkpt lat="45.21229" lon="5.75794">
        <ele>254.7</ele>
        <time>2021-07-31T12:21:28.000Z</time>
      </trkpt>
      <trkpt lat="45.21224" lon="5.75778">
        <ele>253.3</ele>
        <time>2021-07-31T12:21:30.000Z</time>
      </trkpt>
      <trkpt lat="45.21221" lon="5.75762">
        <ele>252.4</ele>
        <time>2021-07-31T12:21:32.000Z</time>
      </trkpt>
      <trkpt lat="45.21217" lon="5.75745">
        <ele>251.4</ele>
        <time>2021-07-31T12:21:34.000Z</time>
      </trkpt>
      <trkpt lat="45.21213" lon="5.75729">
        <ele>250.6</ele>
        <time>2021-07-31T12:21:36.000Z</time>
      </trkpt>
      <trkpt lat="45.21211" lon="5.75715">
        <ele>250.3</ele>
        <time>2021-07-31T12:21:38.000Z</time>
      </trkpt>
      <trkpt lat="45.21207" lon="5.75699">
        <ele>249.7</ele>
        <time>2021-07-31T12:21:40.000Z</time>
      </trkpt>
      <trkpt lat="45.21204" lon="5.75686">
        <ele>249.2</ele>
        <time>2021-07-31T12:21:42.000Z</time>
      </trkpt>
      <trkpt lat="45.21201" lon="5.75673">
        <ele>248.6</ele>
        <time>2021-07-31T12:21:44.000Z</time>
      </trkpt>
      <trkpt lat="45.21197" lon="5.7566">
        <ele>248</ele>
        <time>2021-07-31T12:21:46.000Z</time>
      </trkpt>
      <trkpt lat="45.21196" lon="5.75647">
        <ele>247.8</ele>
        <time>2021-07-31T12:21:48.000Z</time>
      </trkpt>
      <trkpt lat="45.21192" lon="5.75634">
        <ele>247.3</ele>
        <time>2021-07-31T12:21:50.000Z</time>
      </trkpt>
      <trkpt lat="45.21188" lon="5.75621">
        <ele>246.4</ele>
        <time>2021-07-31T12:21:52.000Z</time>
      </trkpt>
      <trkpt lat="45.21182" lon="5.7561">
        <ele>244.9</ele>
        <time>2021-07-31T12:21:54.000Z</time>
      </trkpt>
      <trkpt lat="45.21176" lon="5.75598">
        <ele>243.4</ele>
        <time>2021-07-31T12:21:56.000Z</time>
      </trkpt>
      <trkpt lat="45.21169" lon="5.75587">
        <ele>241.7</ele>
        <time>2021-07-31T12:21:58.000Z</time>
      </trkpt>
      <trkpt lat="45.21164" lon="5.75575">
        <ele>241.4</ele>
        <time>2021-07-31T12:22:00.000Z</time>
      </trkpt>
      <trkpt lat="45.21159" lon="5.75563">
        <ele>241.7</ele>
        <time>2021-07-31T12:22:02.000Z</time>
      </trkpt>
      <trkpt lat="45.21152" lon="5.75546">
        <ele>242.2</ele>
        <time>2021-07-31T12:22:05.000Z</time>
      </trkpt>
      <trkpt lat="45.21145" lon="5.75531">
        <ele>242.5</ele>
        <time>2021-07-31T12:22:08.000Z</time>
      </trkpt>
      <trkpt lat="45.2114" lon="5.75521">
        <ele>242.6</ele>
        <time>2021-07-31T12:22:10.000Z</time>
      </trkpt>
      <trkpt lat="45.21133" lon="5.75505">
        <ele>242.8</ele>
        <time>2021-07-31T12:22:13.000Z</time>
      </trkpt>
      <trkpt lat="45.21126" lon="5.7549">
        <ele>243.8</ele>
        <time>2021-07-31T12:22:16.000Z</time>
      </trkpt>
      <trkpt lat="45.21119" lon="5.75474">
        <ele>245</ele>
        <time>2021-07-31T12:22:19.000Z</time>
      </trkpt>
      <trkpt lat="45.21112" lon="5.75459">
        <ele>246.1</ele>
        <time>2021-07-31T12:22:22.000Z</time>
      </trkpt>
      <trkpt lat="45.21105" lon="5.75446">
        <ele>246.8</ele>
        <time>2021-07-31T12:22:25.000Z</time>
      </trkpt>
      <trkpt lat="45.21098" lon="5.75433">
        <ele>247.3</ele>
        <time>2021-07-31T12:22:28.000Z</time>
      </trkpt>
      <trkpt lat="45.21092" lon="5.7542">
        <ele>247.7</ele>
        <time>2021-07-31T12:22:31.000Z</time>
      </trkpt>
      <trkpt lat="45.21085" lon="5.75407">
        <ele>247.9</ele>
        <time>2021-07-31T12:22:34.000Z</time>
      </trkpt>
      <trkpt lat="45.2108" lon="5.75393">
        <ele>248.4</ele>
        <time>2021-07-31T12:22:37.000Z</time>
      </trkpt>
      <trkpt lat="45.21074" lon="5.7538">
        <ele>249.1</ele>
        <time>2021-07-31T12:22:40.000Z</time>
      </trkpt>
      <trkpt lat="45.21069" lon="5.75366">
        <ele>249.8</ele>
        <time>2021-07-31T12:22:43.000Z</time>
      </trkpt>
      <trkpt lat="45.21063" lon="5.75352">
        <ele>250.5</ele>
        <time>2021-07-31T12:22:46.000Z</time>
      </trkpt>
      <trkpt lat="45.21055" lon="5.7534">
        <ele>251</ele>
        <time>2021-07-31T12:22:49.000Z</time>
      </trkpt>
      <trkpt lat="45.21048" lon="5.75328">
        <ele>251.7</ele>
        <time>2021-07-31T12:22:52.000Z</time>
      </trkpt>
      <trkpt lat="45.21042" lon="5.75315">
        <ele>252.9</ele>
        <time>2021-07-31T12:22:55.000Z</time>
      </trkpt>
      <trkpt lat="45.21035" lon="5.75303">
        <ele>253.9</ele>
        <time>2021-07-31T12:22:58.000Z</time>
      </trkpt>
      <trkpt lat="45.21029" lon="5.7529">
        <ele>254.7</ele>
        <time>2021-07-31T12:23:01.000Z</time>
      </trkpt>
      <trkpt lat="45.21023" lon="5.75278">
        <ele>255.5</ele>
        <time>2021-07-31T12:23:04.000Z</time>
      </trkpt>
      <trkpt lat="45.21016" lon="5.75265">
        <ele>256.1</ele>
        <time>2021-07-31T12:23:07.000Z</time>
      </trkpt>
      <trkpt lat="45.21011" lon="5.7525">
        <ele>256.9</ele>
        <time>2021-07-31T12:23:10.000Z</time>
      </trkpt>
      <trkpt lat="45.21004" lon="5.75236">
        <ele>257.5</ele>
        <time>2021-07-31T12:23:13.000Z</time>
      </trkpt>
      <trkpt lat="45.20999" lon="5.75221">
        <ele>258.1</ele>
        <time>2021-07-31T12:23:16.000Z</time>
      </trkpt>
      <trkpt lat="45.20993" lon="5.75207">
        <ele>258.8</ele>
        <time>2021-07-31T12:23:19.000Z</time>
      </trkpt>
      <trkpt lat="45.20987" lon="5.75193">
        <ele>259.4</ele>
        <time>2021-07-31T12:23:22.000Z</time>
      </trkpt>
      <trkpt lat="45.2098" lon="5.75179">
        <ele>260</ele>
        <time>2021-07-31T12:23:25.000Z</time>
      </trkpt>
      <trkpt lat="45.20973" lon="5.75165">
        <ele>260.6</ele>
        <time>2021-07-31T12:23:28.000Z</time>
      </trkpt>
      <trkpt lat="45.20969" lon="5.75152">
        <ele>261.2</ele>
        <time>2021-07-31T12:23:30.000Z</time>
      </trkpt>
      <trkpt lat="45.20961" lon="5.7514">
        <ele>261.7</ele>
        <time>2021-07-31T12:23:33.000Z</time>
      </trkpt>
      <trkpt lat="45.20954" lon="5.75125">
        <ele>262.2</ele>
        <time>2021-07-31T12:23:36.000Z</time>
      </trkpt>
      <trkpt lat="45.20947" lon="5.75111">
        <ele>262.8</ele>
        <time>2021-07-31T12:23:39.000Z</time>
      </trkpt>
      <trkpt lat="45.2094" lon="5.75095">
        <ele>263.7</ele>
        <time>2021-07-31T12:23:42.000Z</time>
      </trkpt>
      <trkpt lat="45.20934" lon="5.75079">
        <ele>264.3</ele>
        <time>2021-07-31T12:23:45.000Z</time>
      </trkpt>
      <trkpt lat="45.20931" lon="5.75067">
        <ele>264.8</ele>
        <time>2021-07-31T12:23:47.000Z</time>
      </trkpt>
      <trkpt lat="45.20928" lon="5.75055">
        <ele>265.2</ele>
        <time>2021-07-31T12:23:49.000Z</time>
      </trkpt>
      <trkpt lat="45.20924" lon="5.75041">
        <ele>265.7</ele>
        <time>2021-07-31T12:23:51.000Z</time>
      </trkpt>
      <trkpt lat="45.20922" lon="5.75027">
        <ele>266.2</ele>
        <time>2021-07-31T12:23:53.000Z</time>
      </trkpt>
      <trkpt lat="45.20918" lon="5.75015">
        <ele>266.4</ele>
        <time>2021-07-31T12:23:55.000Z</time>
      </trkpt>
      <trkpt lat="45.20912" lon="5.75003">
        <ele>266.6</ele>
        <time>2021-07-31T12:23:57.000Z</time>
      </trkpt>
      <trkpt lat="45.20906" lon="5.74985">
        <ele>267.2</ele>
        <time>2021-07-31T12:24:00.000Z</time>
      </trkpt>
      <trkpt lat="45.209" lon="5.74967">
        <ele>267.8</ele>
        <time>2021-07-31T12:24:03.000Z</time>
      </trkpt>
      <trkpt lat="45.20896" lon="5.74954">
        <ele>268.2</ele>
        <time>2021-07-31T12:24:05.000Z</time>
      </trkpt>
      <trkpt lat="45.20891" lon="5.74942">
        <ele>268.3</ele>
        <time>2021-07-31T12:24:07.000Z</time>
      </trkpt>
      <trkpt lat="45.20885" lon="5.74929">
        <ele>268.4</ele>
        <time>2021-07-31T12:24:09.000Z</time>
      </trkpt>
      <trkpt lat="45.20878" lon="5.74912">
        <ele>268.4</ele>
        <time>2021-07-31T12:24:12.000Z</time>
      </trkpt>
      <trkpt lat="45.20872" lon="5.74899">
        <ele>268</ele>
        <time>2021-07-31T12:24:14.000Z</time>
      </trkpt>
      <trkpt lat="45.20864" lon="5.74885">
        <ele>267.4</ele>
        <time>2021-07-31T12:24:16.000Z</time>
      </trkpt>
      <trkpt lat="45.20854" lon="5.74869">
        <ele>266.8</ele>
        <time>2021-07-31T12:24:18.000Z</time>
      </trkpt>
      <trkpt lat="45.20842" lon="5.74855">
        <ele>266.2</ele>
        <time>2021-07-31T12:24:20.000Z</time>
      </trkpt>
      <trkpt lat="45.20831" lon="5.74839">
        <ele>265.8</ele>
        <time>2021-07-31T12:24:22.000Z</time>
      </trkpt>
      <trkpt lat="45.20819" lon="5.74825">
        <ele>265.3</ele>
        <time>2021-07-31T12:24:24.000Z</time>
      </trkpt>
      <trkpt lat="45.20807" lon="5.74811">
        <ele>264.7</ele>
        <time>2021-07-31T12:24:26.000Z</time>
      </trkpt>
      <trkpt lat="45.20794" lon="5.74796">
        <ele>264.1</ele>
        <time>2021-07-31T12:24:28.000Z</time>
      </trkpt>
      <trkpt lat="45.20783" lon="5.7478">
        <ele>263.6</ele>
        <time>2021-07-31T12:24:30.000Z</time>
      </trkpt>
      <trkpt lat="45.20774" lon="5.74761">
        <ele>263.2</ele>
        <time>2021-07-31T12:24:32.000Z</time>
      </trkpt>
      <trkpt lat="45.20767" lon="5.7474">
        <ele>263</ele>
        <time>2021-07-31T12:24:34.000Z</time>
      </trkpt>
      <trkpt lat="45.20758" lon="5.74719">
        <ele>262.9</ele>
        <time>2021-07-31T12:24:36.000Z</time>
      </trkpt>
      <trkpt lat="45.20753" lon="5.74708">
        <ele>262.7</ele>
        <time>2021-07-31T12:24:37.000Z</time>
      </trkpt>
      <trkpt lat="45.20742" lon="5.74675">
        <ele>262</ele>
        <time>2021-07-31T12:24:40.000Z</time>
      </trkpt>
      <trkpt lat="45.20735" lon="5.74653">
        <ele>261.5</ele>
        <time>2021-07-31T12:24:42.000Z</time>
      </trkpt>
      <trkpt lat="45.20731" lon="5.74641">
        <ele>261.2</ele>
        <time>2021-07-31T12:24:43.000Z</time>
      </trkpt>
      <trkpt lat="45.20727" lon="5.74629">
        <ele>260.8</ele>
        <time>2021-07-31T12:24:44.000Z</time>
      </trkpt>
      <trkpt lat="45.20721" lon="5.74608">
        <ele>260.2</ele>
        <time>2021-07-31T12:24:46.000Z</time>
      </trkpt>
      <trkpt lat="45.20713" lon="5.74586">
        <ele>259.2</ele>
        <time>2021-07-31T12:24:48.000Z</time>
      </trkpt>
      <trkpt lat="45.20708" lon="5.74575">
        <ele>258.5</ele>
        <time>2021-07-31T12:24:49.000Z</time>
      </trkpt>
      <trkpt lat="45.20702" lon="5.74554">
        <ele>257.7</ele>
        <time>2021-07-31T12:24:51.000Z</time>
      </trkpt>
      <trkpt lat="45.20702" lon="5.74533">
        <ele>257.8</ele>
        <time>2021-07-31T12:24:53.000Z</time>
      </trkpt>
      <trkpt lat="45.20703" lon="5.7451">
        <ele>257.9</ele>
        <time>2021-07-31T12:24:55.000Z</time>
      </trkpt>
      <trkpt lat="45.20705" lon="5.74497">
        <ele>258.1</ele>
        <time>2021-07-31T12:24:56.000Z</time>
      </trkpt>
      <trkpt lat="45.20708" lon="5.74476">
        <ele>258.5</ele>
        <time>2021-07-31T12:24:58.000Z</time>
      </trkpt>
      <trkpt lat="45.20711" lon="5.74453">
        <ele>259</ele>
        <time>2021-07-31T12:25:00.000Z</time>
      </trkpt>
      <trkpt lat="45.20709" lon="5.74429">
        <ele>258.7</ele>
        <time>2021-07-31T12:25:02.000Z</time>
      </trkpt>
      <trkpt lat="45.20704" lon="5.74406">
        <ele>257.9</ele>
        <time>2021-07-31T12:25:04.000Z</time>
      </trkpt>
      <trkpt lat="45.20701" lon="5.74395">
        <ele>257.3</ele>
        <time>2021-07-31T12:25:05.000Z</time>
      </trkpt>
      <trkpt lat="45.20692" lon="5.74373">
        <ele>256.1</ele>
        <time>2021-07-31T12:25:07.000Z</time>
      </trkpt>
      <trkpt lat="45.20684" lon="5.74352">
        <ele>255.2</ele>
        <time>2021-07-31T12:25:09.000Z</time>
      </trkpt>
      <trkpt lat="45.20676" lon="5.7433">
        <ele>254.4</ele>
        <time>2021-07-31T12:25:11.000Z</time>
      </trkpt>
      <trkpt lat="45.20669" lon="5.74307">
        <ele>253.3</ele>
        <time>2021-07-31T12:25:13.000Z</time>
      </trkpt>
      <trkpt lat="45.20662" lon="5.74283">
        <ele>252.7</ele>
        <time>2021-07-31T12:25:15.000Z</time>
      </trkpt>
      <trkpt lat="45.20658" lon="5.74271">
        <ele>252.3</ele>
        <time>2021-07-31T12:25:16.000Z</time>
      </trkpt>
      <trkpt lat="45.20652" lon="5.74248">
        <ele>252.1</ele>
        <time>2021-07-31T12:25:18.000Z</time>
      </trkpt>
      <trkpt lat="45.20649" lon="5.74235">
        <ele>252.5</ele>
        <time>2021-07-31T12:25:19.000Z</time>
      </trkpt>
      <trkpt lat="45.20646" lon="5.74223">
        <ele>252.6</ele>
        <time>2021-07-31T12:25:20.000Z</time>
      </trkpt>
      <trkpt lat="45.20637" lon="5.742">
        <ele>252.3</ele>
        <time>2021-07-31T12:25:22.000Z</time>
      </trkpt>
      <trkpt lat="45.20629" lon="5.74177">
        <ele>251.6</ele>
        <time>2021-07-31T12:25:24.000Z</time>
      </trkpt>
      <trkpt lat="45.20622" lon="5.74153">
        <ele>251.4</ele>
        <time>2021-07-31T12:25:26.000Z</time>
      </trkpt>
      <trkpt lat="45.20618" lon="5.74142">
        <ele>251.3</ele>
        <time>2021-07-31T12:25:27.000Z</time>
      </trkpt>
      <trkpt lat="45.20614" lon="5.7413">
        <ele>251.4</ele>
        <time>2021-07-31T12:25:28.000Z</time>
      </trkpt>
      <trkpt lat="45.2061" lon="5.74117">
        <ele>251.7</ele>
        <time>2021-07-31T12:25:29.000Z</time>
      </trkpt>
      <trkpt lat="45.20607" lon="5.74104">
        <ele>251.9</ele>
        <time>2021-07-31T12:25:30.000Z</time>
      </trkpt>
      <trkpt lat="45.20605" lon="5.74092">
        <ele>252.3</ele>
        <time>2021-07-31T12:25:31.000Z</time>
      </trkpt>
      <trkpt lat="45.20598" lon="5.74069">
        <ele>252.6</ele>
        <time>2021-07-31T12:25:33.000Z</time>
      </trkpt>
      <trkpt lat="45.20592" lon="5.74047">
        <ele>252.9</ele>
        <time>2021-07-31T12:25:35.000Z</time>
      </trkpt>
      <trkpt lat="45.20588" lon="5.74035">
        <ele>253</ele>
        <time>2021-07-31T12:25:36.000Z</time>
      </trkpt>
      <trkpt lat="45.20585" lon="5.74022">
        <ele>253.1</ele>
        <time>2021-07-31T12:25:37.000Z</time>
      </trkpt>
      <trkpt lat="45.20583" lon="5.7401">
        <ele>253.3</ele>
        <time>2021-07-31T12:25:38.000Z</time>
      </trkpt>
      <trkpt lat="45.2058" lon="5.73997">
        <ele>253.5</ele>
        <time>2021-07-31T12:25:39.000Z</time>
      </trkpt>
      <trkpt lat="45.20577" lon="5.73985">
        <ele>253.6</ele>
        <time>2021-07-31T12:25:40.000Z</time>
      </trkpt>
      <trkpt lat="45.20574" lon="5.73973">
        <ele>253.4</ele>
        <time>2021-07-31T12:25:41.000Z</time>
      </trkpt>
      <trkpt lat="45.2057" lon="5.7396">
        <ele>253.2</ele>
        <time>2021-07-31T12:25:42.000Z</time>
      </trkpt>
      <trkpt lat="45.20566" lon="5.73948">
        <ele>252.9</ele>
        <time>2021-07-31T12:25:43.000Z</time>
      </trkpt>
      <trkpt lat="45.20559" lon="5.73924">
        <ele>252.4</ele>
        <time>2021-07-31T12:25:45.000Z</time>
      </trkpt>
      <trkpt lat="45.20552" lon="5.73901">
        <ele>251.8</ele>
        <time>2021-07-31T12:25:47.000Z</time>
      </trkpt>
      <trkpt lat="45.20542" lon="5.73881">
        <ele>250.5</ele>
        <time>2021-07-31T12:25:49.000Z</time>
      </trkpt>
      <trkpt lat="45.20531" lon="5.73861">
        <ele>248.6</ele>
        <time>2021-07-31T12:25:51.000Z</time>
      </trkpt>
      <trkpt lat="45.20524" lon="5.73852">
        <ele>247.1</ele>
        <time>2021-07-31T12:25:52.000Z</time>
      </trkpt>
      <trkpt lat="45.20517" lon="5.73844">
        <ele>245.7</ele>
        <time>2021-07-31T12:25:53.000Z</time>
      </trkpt>
      <trkpt lat="45.20509" lon="5.73837">
        <ele>244.2</ele>
        <time>2021-07-31T12:25:54.000Z</time>
      </trkpt>
      <trkpt lat="45.20496" lon="5.73821">
        <ele>241.9</ele>
        <time>2021-07-31T12:25:56.000Z</time>
      </trkpt>
      <trkpt lat="45.20483" lon="5.73807">
        <ele>240.4</ele>
        <time>2021-07-31T12:25:58.000Z</time>
      </trkpt>
      <trkpt lat="45.2047" lon="5.73793">
        <ele>238.6</ele>
        <time>2021-07-31T12:26:00.000Z</time>
      </trkpt>
      <trkpt lat="45.20457" lon="5.73779">
        <ele>236.8</ele>
        <time>2021-07-31T12:26:02.000Z</time>
      </trkpt>
      <trkpt lat="45.20445" lon="5.73765">
        <ele>234.9</ele>
        <time>2021-07-31T12:26:04.000Z</time>
      </trkpt>
      <trkpt lat="45.20436" lon="5.73751">
        <ele>233.3</ele>
        <time>2021-07-31T12:26:06.000Z</time>
      </trkpt>
      <trkpt lat="45.20427" lon="5.73737">
        <ele>232.7</ele>
        <time>2021-07-31T12:26:08.000Z</time>
      </trkpt>
      <trkpt lat="45.20418" lon="5.73723">
        <ele>232.2</ele>
        <time>2021-07-31T12:26:10.000Z</time>
      </trkpt>
      <trkpt lat="45.20409" lon="5.73712">
        <ele>232</ele>
        <time>2021-07-31T12:26:12.000Z</time>
      </trkpt>
      <trkpt lat="45.20402" lon="5.73702">
        <ele>232</ele>
        <time>2021-07-31T12:26:14.000Z</time>
      </trkpt>
      <trkpt lat="45.20394" lon="5.73691">
        <ele>231.9</ele>
        <time>2021-07-31T12:26:16.000Z</time>
      </trkpt>
      <trkpt lat="45.20385" lon="5.7368">
        <ele>231.8</ele>
        <time>2021-07-31T12:26:18.000Z</time>
      </trkpt>
      <trkpt lat="45.20376" lon="5.73669">
        <ele>231.6</ele>
        <time>2021-07-31T12:26:20.000Z</time>
      </trkpt>
      <trkpt lat="45.20367" lon="5.73658">
        <ele>231.8</ele>
        <time>2021-07-31T12:26:22.000Z</time>
      </trkpt>
      <trkpt lat="45.20361" lon="5.73648">
        <ele>232.3</ele>
        <time>2021-07-31T12:26:24.000Z</time>
      </trkpt>
      <trkpt lat="45.20355" lon="5.73638">
        <ele>232.4</ele>
        <time>2021-07-31T12:26:26.000Z</time>
      </trkpt>
      <trkpt lat="45.20348" lon="5.73627">
        <ele>232.7</ele>
        <time>2021-07-31T12:26:28.000Z</time>
      </trkpt>
      <trkpt lat="45.2034" lon="5.73616">
        <ele>232.4</ele>
        <time>2021-07-31T12:26:30.000Z</time>
      </trkpt>
      <trkpt lat="45.20331" lon="5.73605">
        <ele>232</ele>
        <time>2021-07-31T12:26:32.000Z</time>
      </trkpt>
      <trkpt lat="45.20321" lon="5.73594">
        <ele>231.5</ele>
        <time>2021-07-31T12:26:34.000Z</time>
      </trkpt>
      <trkpt lat="45.20313" lon="5.73583">
        <ele>231.3</ele>
        <time>2021-07-31T12:26:36.000Z</time>
      </trkpt>
      <trkpt lat="45.20304" lon="5.73574">
        <ele>231</ele>
        <time>2021-07-31T12:26:38.000Z</time>
      </trkpt>
      <trkpt lat="45.20298" lon="5.73565">
        <ele>230.8</ele>
        <time>2021-07-31T12:26:40.000Z</time>
      </trkpt>
      <trkpt lat="45.20289" lon="5.73554">
        <ele>230.5</ele>
        <time>2021-07-31T12:26:43.000Z</time>
      </trkpt>
      <trkpt lat="45.20281" lon="5.73546">
        <ele>230.1</ele>
        <time>2021-07-31T12:26:45.000Z</time>
      </trkpt>
      <trkpt lat="45.20271" lon="5.73534">
        <ele>229.4</ele>
        <time>2021-07-31T12:26:47.000Z</time>
      </trkpt>
      <trkpt lat="45.20261" lon="5.7352">
        <ele>228.7</ele>
        <time>2021-07-31T12:26:49.000Z</time>
      </trkpt>
      <trkpt lat="45.20252" lon="5.73504">
        <ele>228.2</ele>
        <time>2021-07-31T12:26:51.000Z</time>
      </trkpt>
      <trkpt lat="45.20242" lon="5.73488">
        <ele>228.9</ele>
        <time>2021-07-31T12:26:53.000Z</time>
      </trkpt>
      <trkpt lat="45.20234" lon="5.73472">
        <ele>229.8</ele>
        <time>2021-07-31T12:26:55.000Z</time>
      </trkpt>
      <trkpt lat="45.20225" lon="5.73455">
        <ele>230.6</ele>
        <time>2021-07-31T12:26:57.000Z</time>
      </trkpt>
      <trkpt lat="45.20216" lon="5.73438">
        <ele>231.2</ele>
        <time>2021-07-31T12:26:59.000Z</time>
      </trkpt>
      <trkpt lat="45.20203" lon="5.73426">
        <ele>230.1</ele>
        <time>2021-07-31T12:27:01.000Z</time>
      </trkpt>
      <trkpt lat="45.20192" lon="5.73413">
        <ele>230</ele>
        <time>2021-07-31T12:27:03.000Z</time>
      </trkpt>
      <trkpt lat="45.20178" lon="5.73406">
        <ele>229.7</ele>
        <time>2021-07-31T12:27:05.000Z</time>
      </trkpt>
      <trkpt lat="45.20164" lon="5.73399">
        <ele>228.9</ele>
        <time>2021-07-31T12:27:07.000Z</time>
      </trkpt>
      <trkpt lat="45.20149" lon="5.73393">
        <ele>228.4</ele>
        <time>2021-07-31T12:27:09.000Z</time>
      </trkpt>
      <trkpt lat="45.20135" lon="5.73388">
        <ele>227.5</ele>
        <time>2021-07-31T12:27:11.000Z</time>
      </trkpt>
      <trkpt lat="45.20121" lon="5.73383">
        <ele>226</ele>
        <time>2021-07-31T12:27:13.000Z</time>
      </trkpt>
      <trkpt lat="45.20106" lon="5.7338">
        <ele>224.1</ele>
        <time>2021-07-31T12:27:15.000Z</time>
      </trkpt>
      <trkpt lat="45.20092" lon="5.73379">
        <ele>221.8</ele>
        <time>2021-07-31T12:27:17.000Z</time>
      </trkpt>
      <trkpt lat="45.20076" lon="5.73375">
        <ele>220.6</ele>
        <time>2021-07-31T12:27:19.000Z</time>
      </trkpt>
      <trkpt lat="45.20062" lon="5.73368">
        <ele>221</ele>
        <time>2021-07-31T12:27:21.000Z</time>
      </trkpt>
      <trkpt lat="45.20047" lon="5.73362">
        <ele>220.8</ele>
        <time>2021-07-31T12:27:23.000Z</time>
      </trkpt>
      <trkpt lat="45.20033" lon="5.73355">
        <ele>220.7</ele>
        <time>2021-07-31T12:27:25.000Z</time>
      </trkpt>
      <trkpt lat="45.20017" lon="5.73348">
        <ele>220.2</ele>
        <time>2021-07-31T12:27:27.000Z</time>
      </trkpt>
      <trkpt lat="45.20002" lon="5.73342">
        <ele>219.5</ele>
        <time>2021-07-31T12:27:29.000Z</time>
      </trkpt>
      <trkpt lat="45.19986" lon="5.73336">
        <ele>219.5</ele>
        <time>2021-07-31T12:27:31.000Z</time>
      </trkpt>
      <trkpt lat="45.19971" lon="5.7333">
        <ele>220.5</ele>
        <time>2021-07-31T12:27:33.000Z</time>
      </trkpt>
      <trkpt lat="45.19957" lon="5.73321">
        <ele>222.8</ele>
        <time>2021-07-31T12:27:35.000Z</time>
      </trkpt>
      <trkpt lat="45.19941" lon="5.73313">
        <ele>224.7</ele>
        <time>2021-07-31T12:27:37.000Z</time>
      </trkpt>
      <trkpt lat="45.19927" lon="5.73307">
        <ele>226.2</ele>
        <time>2021-07-31T12:27:39.000Z</time>
      </trkpt>
      <trkpt lat="45.19912" lon="5.73301">
        <ele>227.1</ele>
        <time>2021-07-31T12:27:41.000Z</time>
      </trkpt>
      <trkpt lat="45.19897" lon="5.73294">
        <ele>227.9</ele>
        <time>2021-07-31T12:27:43.000Z</time>
      </trkpt>
      <trkpt lat="45.19885" lon="5.73287">
        <ele>229</ele>
        <time>2021-07-31T12:27:45.000Z</time>
      </trkpt>
      <trkpt lat="45.19873" lon="5.73284">
        <ele>228.5</ele>
        <time>2021-07-31T12:27:47.000Z</time>
      </trkpt>
      <trkpt lat="45.19858" lon="5.7328">
        <ele>227.9</ele>
        <time>2021-07-31T12:27:49.000Z</time>
      </trkpt>
      <trkpt lat="45.19843" lon="5.73276">
        <ele>227.2</ele>
        <time>2021-07-31T12:27:51.000Z</time>
      </trkpt>
      <trkpt lat="45.19828" lon="5.73271">
        <ele>226.3</ele>
        <time>2021-07-31T12:27:53.000Z</time>
      </trkpt>
      <trkpt lat="45.19813" lon="5.73268">
        <ele>224.6</ele>
        <time>2021-07-31T12:27:55.000Z</time>
      </trkpt>
      <trkpt lat="45.19797" lon="5.73264">
        <ele>222.7</ele>
        <time>2021-07-31T12:27:57.000Z</time>
      </trkpt>
      <trkpt lat="45.19782" lon="5.73258">
        <ele>220.9</ele>
        <time>2021-07-31T12:27:59.000Z</time>
      </trkpt>
      <trkpt lat="45.19769" lon="5.73249">
        <ele>219.4</ele>
        <time>2021-07-31T12:28:01.000Z</time>
      </trkpt>
      <trkpt lat="45.19757" lon="5.73238">
        <ele>219.8</ele>
        <time>2021-07-31T12:28:03.000Z</time>
      </trkpt>
      <trkpt lat="45.19743" lon="5.73232">
        <ele>219</ele>
        <time>2021-07-31T12:28:05.000Z</time>
      </trkpt>
      <trkpt lat="45.19727" lon="5.73224">
        <ele>219.3</ele>
        <time>2021-07-31T12:28:07.000Z</time>
      </trkpt>
      <trkpt lat="45.19712" lon="5.73214">
        <ele>219.8</ele>
        <time>2021-07-31T12:28:09.000Z</time>
      </trkpt>
      <trkpt lat="45.19698" lon="5.73203">
        <ele>220.3</ele>
        <time>2021-07-31T12:28:11.000Z</time>
      </trkpt>
      <trkpt lat="45.19684" lon="5.73191">
        <ele>220.4</ele>
        <time>2021-07-31T12:28:13.000Z</time>
      </trkpt>
      <trkpt lat="45.19673" lon="5.73178">
        <ele>220.4</ele>
        <time>2021-07-31T12:28:15.000Z</time>
      </trkpt>
      <trkpt lat="45.1966" lon="5.73166">
        <ele>220.8</ele>
        <time>2021-07-31T12:28:17.000Z</time>
      </trkpt>
      <trkpt lat="45.19647" lon="5.73153">
        <ele>221.5</ele>
        <time>2021-07-31T12:28:19.000Z</time>
      </trkpt>
      <trkpt lat="45.19635" lon="5.73138">
        <ele>222.2</ele>
        <time>2021-07-31T12:28:21.000Z</time>
      </trkpt>
      <trkpt lat="45.19625" lon="5.73123">
        <ele>223</ele>
        <time>2021-07-31T12:28:23.000Z</time>
      </trkpt>
      <trkpt lat="45.19616" lon="5.73108">
        <ele>223.7</ele>
        <time>2021-07-31T12:28:25.000Z</time>
      </trkpt>
      <trkpt lat="45.19606" lon="5.73093">
        <ele>224.2</ele>
        <time>2021-07-31T12:28:27.000Z</time>
      </trkpt>
      <trkpt lat="45.19597" lon="5.73077">
        <ele>225.5</ele>
        <time>2021-07-31T12:28:29.000Z</time>
      </trkpt>
      <trkpt lat="45.19588" lon="5.73063">
        <ele>227.1</ele>
        <time>2021-07-31T12:28:31.000Z</time>
      </trkpt>
      <trkpt lat="45.19577" lon="5.73048">
        <ele>228</ele>
        <time>2021-07-31T12:28:33.000Z</time>
      </trkpt>
      <trkpt lat="45.19567" lon="5.73032">
        <ele>228.9</ele>
        <time>2021-07-31T12:28:35.000Z</time>
      </trkpt>
      <trkpt lat="45.19558" lon="5.73019">
        <ele>228.5</ele>
        <time>2021-07-31T12:28:37.000Z</time>
      </trkpt>
      <trkpt lat="45.19548" lon="5.73004">
        <ele>227.7</ele>
        <time>2021-07-31T12:28:39.000Z</time>
      </trkpt>
      <trkpt lat="45.19539" lon="5.72989">
        <ele>228.5</ele>
        <time>2021-07-31T12:28:41.000Z</time>
      </trkpt>
      <trkpt lat="45.1953" lon="5.72973">
        <ele>229.3</ele>
        <time>2021-07-31T12:28:43.000Z</time>
      </trkpt>
      <trkpt lat="45.1952" lon="5.72957">
        <ele>228.9</ele>
        <time>2021-07-31T12:28:45.000Z</time>
      </trkpt>
      <trkpt lat="45.1951" lon="5.72942">
        <ele>228.3</ele>
        <time>2021-07-31T12:28:47.000Z</time>
      </trkpt>
      <trkpt lat="45.195" lon="5.72926">
        <ele>226.8</ele>
        <time>2021-07-31T12:28:49.000Z</time>
      </trkpt>
      <trkpt lat="45.19492" lon="5.72912">
        <ele>228.3</ele>
        <time>2021-07-31T12:28:51.000Z</time>
      </trkpt>
      <trkpt lat="45.19484" lon="5.72899">
        <ele>230.8</ele>
        <time>2021-07-31T12:28:53.000Z</time>
      </trkpt>
      <trkpt lat="45.19475" lon="5.72885">
        <ele>232.9</ele>
        <time>2021-07-31T12:28:55.000Z</time>
      </trkpt>
      <trkpt lat="45.19467" lon="5.72869">
        <ele>234.7</ele>
        <time>2021-07-31T12:28:57.000Z</time>
      </trkpt>
      <trkpt lat="45.19459" lon="5.72854">
        <ele>235.6</ele>
        <time>2021-07-31T12:28:59.000Z</time>
      </trkpt>
      <trkpt lat="45.19454" lon="5.72837">
        <ele>237.3</ele>
        <time>2021-07-31T12:29:01.000Z</time>
      </trkpt>
      <trkpt lat="45.19448" lon="5.72818">
        <ele>239.4</ele>
        <time>2021-07-31T12:29:03.000Z</time>
      </trkpt>
      <trkpt lat="45.19442" lon="5.728">
        <ele>241</ele>
        <time>2021-07-31T12:29:05.000Z</time>
      </trkpt>
      <trkpt lat="45.19437" lon="5.72782">
        <ele>243.2</ele>
        <time>2021-07-31T12:29:07.000Z</time>
      </trkpt>
      <trkpt lat="45.19433" lon="5.72761">
        <ele>246.2</ele>
        <time>2021-07-31T12:29:09.000Z</time>
      </trkpt>
      <trkpt lat="45.1943" lon="5.72741">
        <ele>248.5</ele>
        <time>2021-07-31T12:29:11.000Z</time>
      </trkpt>
      <trkpt lat="45.19427" lon="5.72719">
        <ele>248.6</ele>
        <time>2021-07-31T12:29:13.000Z</time>
      </trkpt>
      <trkpt lat="45.19422" lon="5.72695">
        <ele>248.7</ele>
        <time>2021-07-31T12:29:15.000Z</time>
      </trkpt>
      <trkpt lat="45.19417" lon="5.72672">
        <ele>247.7</ele>
        <time>2021-07-31T12:29:17.000Z</time>
      </trkpt>
      <trkpt lat="45.1941" lon="5.72652">
        <ele>247.9</ele>
        <time>2021-07-31T12:29:19.000Z</time>
      </trkpt>
      <trkpt lat="45.19403" lon="5.72631">
        <ele>248.6</ele>
        <time>2021-07-31T12:29:21.000Z</time>
      </trkpt>
      <trkpt lat="45.194" lon="5.72611">
        <ele>250.5</ele>
        <time>2021-07-31T12:29:23.000Z</time>
      </trkpt>
      <trkpt lat="45.19398" lon="5.72593">
        <ele>252.5</ele>
        <time>2021-07-31T12:29:25.000Z</time>
      </trkpt>
      <trkpt lat="45.19394" lon="5.72574">
        <ele>254.1</ele>
        <time>2021-07-31T12:29:27.000Z</time>
      </trkpt>
      <trkpt lat="45.19389" lon="5.72556">
        <ele>256</ele>
        <time>2021-07-31T12:29:29.000Z</time>
      </trkpt>
      <trkpt lat="45.19386" lon="5.72541">
        <ele>257.8</ele>
        <time>2021-07-31T12:29:31.000Z</time>
      </trkpt>
      <trkpt lat="45.19385" lon="5.72527">
        <ele>260.7</ele>
        <time>2021-07-31T12:29:33.000Z</time>
      </trkpt>
      <trkpt lat="45.19386" lon="5.72513">
        <ele>264.4</ele>
        <time>2021-07-31T12:29:35.000Z</time>
      </trkpt>
      <trkpt lat="45.19382" lon="5.72498">
        <ele>265.7</ele>
        <time>2021-07-31T12:29:37.000Z</time>
      </trkpt>
      <trkpt lat="45.19378" lon="5.72483">
        <ele>267</ele>
        <time>2021-07-31T12:29:39.000Z</time>
      </trkpt>
      <trkpt lat="45.19375" lon="5.72468">
        <ele>268.6</ele>
        <time>2021-07-31T12:29:41.000Z</time>
      </trkpt>
      <trkpt lat="45.19374" lon="5.72452">
        <ele>271.9</ele>
        <time>2021-07-31T12:29:43.000Z</time>
      </trkpt>
      <trkpt lat="45.19371" lon="5.72437">
        <ele>274.5</ele>
        <time>2021-07-31T12:29:45.000Z</time>
      </trkpt>
      <trkpt lat="45.19367" lon="5.72421">
        <ele>275.9</ele>
        <time>2021-07-31T12:29:47.000Z</time>
      </trkpt>
      <trkpt lat="45.19362" lon="5.72403">
        <ele>274.2</ele>
        <time>2021-07-31T12:29:50.000Z</time>
      </trkpt>
      <trkpt lat="45.19358" lon="5.72391">
        <ele>272.4</ele>
        <time>2021-07-31T12:29:52.000Z</time>
      </trkpt>
      <trkpt lat="45.19356" lon="5.72377">
        <ele>271.7</ele>
        <time>2021-07-31T12:29:54.000Z</time>
      </trkpt>
      <trkpt lat="45.19355" lon="5.72362">
        <ele>271.7</ele>
        <time>2021-07-31T12:29:56.000Z</time>
      </trkpt>
      <trkpt lat="45.19354" lon="5.72347">
        <ele>272.1</ele>
        <time>2021-07-31T12:29:58.000Z</time>
      </trkpt>
      <trkpt lat="45.19353" lon="5.72333">
        <ele>271.8</ele>
        <time>2021-07-31T12:30:00.000Z</time>
      </trkpt>
      <trkpt lat="45.19353" lon="5.72316">
        <ele>269.9</ele>
        <time>2021-07-31T12:30:02.000Z</time>
      </trkpt>
      <trkpt lat="45.19352" lon="5.723">
        <ele>268.1</ele>
        <time>2021-07-31T12:30:04.000Z</time>
      </trkpt>
      <trkpt lat="45.19351" lon="5.72284">
        <ele>265.5</ele>
        <time>2021-07-31T12:30:06.000Z</time>
      </trkpt>
      <trkpt lat="45.19349" lon="5.72267">
        <ele>262.9</ele>
        <time>2021-07-31T12:30:08.000Z</time>
      </trkpt>
      <trkpt lat="45.19348" lon="5.7225">
        <ele>260.8</ele>
        <time>2021-07-31T12:30:10.000Z</time>
      </trkpt>
      <trkpt lat="45.19347" lon="5.72233">
        <ele>255.7</ele>
        <time>2021-07-31T12:30:12.000Z</time>
      </trkpt>
      <trkpt lat="45.19346" lon="5.72215">
        <ele>251.3</ele>
        <time>2021-07-31T12:30:14.000Z</time>
      </trkpt>
      <trkpt lat="45.19346" lon="5.72198">
        <ele>247.5</ele>
        <time>2021-07-31T12:30:16.000Z</time>
      </trkpt>
      <trkpt lat="45.19345" lon="5.72182">
        <ele>243.6</ele>
        <time>2021-07-31T12:30:18.000Z</time>
      </trkpt>
      <trkpt lat="45.19346" lon="5.72167">
        <ele>240.4</ele>
        <time>2021-07-31T12:30:20.000Z</time>
      </trkpt>
      <trkpt lat="45.19346" lon="5.72151">
        <ele>237</ele>
        <time>2021-07-31T12:30:22.000Z</time>
      </trkpt>
      <trkpt lat="45.19346" lon="5.72135">
        <ele>234.1</ele>
        <time>2021-07-31T12:30:24.000Z</time>
      </trkpt>
      <trkpt lat="45.19339" lon="5.72122">
        <ele>230.3</ele>
        <time>2021-07-31T12:30:26.000Z</time>
      </trkpt>
      <trkpt lat="45.19334" lon="5.72108">
        <ele>227.2</ele>
        <time>2021-07-31T12:30:28.000Z</time>
      </trkpt>
      <trkpt lat="45.19331" lon="5.72092">
        <ele>224.1</ele>
        <time>2021-07-31T12:30:30.000Z</time>
      </trkpt>
      <trkpt lat="45.19329" lon="5.72069">
        <ele>222.9</ele>
        <time>2021-07-31T12:30:32.000Z</time>
      </trkpt>
      <trkpt lat="45.19327" lon="5.72045">
        <ele>223</ele>
        <time>2021-07-31T12:30:34.000Z</time>
      </trkpt>
      <trkpt lat="45.19326" lon="5.72022">
        <ele>223.1</ele>
        <time>2021-07-31T12:30:36.000Z</time>
      </trkpt>
      <trkpt lat="45.19326" lon="5.71999">
        <ele>223.1</ele>
        <time>2021-07-31T12:30:38.000Z</time>
      </trkpt>
      <trkpt lat="45.19328" lon="5.71976">
        <ele>221.2</ele>
        <time>2021-07-31T12:30:40.000Z</time>
      </trkpt>
      <trkpt lat="45.19331" lon="5.71951">
        <ele>219.1</ele>
        <time>2021-07-31T12:30:42.000Z</time>
      </trkpt>
      <trkpt lat="45.19332" lon="5.71936">
        <ele>217.7</ele>
        <time>2021-07-31T12:30:44.000Z</time>
      </trkpt>
      <trkpt lat="45.19328" lon="5.7192">
        <ele>216.2</ele>
        <time>2021-07-31T12:30:46.000Z</time>
      </trkpt>
      <trkpt lat="45.1933" lon="5.71903">
        <ele>216.1</ele>
        <time>2021-07-31T12:30:48.000Z</time>
      </trkpt>
      <trkpt lat="45.19332" lon="5.71886">
        <ele>216.4</ele>
        <time>2021-07-31T12:30:50.000Z</time>
      </trkpt>
      <trkpt lat="45.19335" lon="5.7187">
        <ele>216.6</ele>
        <time>2021-07-31T12:30:52.000Z</time>
      </trkpt>
      <trkpt lat="45.1934" lon="5.71851">
        <ele>216.9</ele>
        <time>2021-07-31T12:30:54.000Z</time>
      </trkpt>
      <trkpt lat="45.19346" lon="5.71834">
        <ele>217</ele>
        <time>2021-07-31T12:30:56.000Z</time>
      </trkpt>
      <trkpt lat="45.19352" lon="5.71817">
        <ele>217.9</ele>
        <time>2021-07-31T12:30:58.000Z</time>
      </trkpt>
      <trkpt lat="45.19358" lon="5.718">
        <ele>218.8</ele>
        <time>2021-07-31T12:31:00.000Z</time>
      </trkpt>
      <trkpt lat="45.19364" lon="5.71783">
        <ele>219.6</ele>
        <time>2021-07-31T12:31:02.000Z</time>
      </trkpt>
      <trkpt lat="45.19371" lon="5.71767">
        <ele>220.3</ele>
        <time>2021-07-31T12:31:04.000Z</time>
      </trkpt>
      <trkpt lat="45.1938" lon="5.71749">
        <ele>220.9</ele>
        <time>2021-07-31T12:31:06.000Z</time>
      </trkpt>
      <trkpt lat="45.19389" lon="5.71733">
        <ele>220.4</ele>
        <time>2021-07-31T12:31:08.000Z</time>
      </trkpt>
      <trkpt lat="45.19397" lon="5.7172">
        <ele>219.9</ele>
        <time>2021-07-31T12:31:10.000Z</time>
      </trkpt>
      <trkpt lat="45.19405" lon="5.71705">
        <ele>219.1</ele>
        <time>2021-07-31T12:31:12.000Z</time>
      </trkpt>
      <trkpt lat="45.19415" lon="5.71689">
        <ele>217.9</ele>
        <time>2021-07-31T12:31:14.000Z</time>
      </trkpt>
      <trkpt lat="45.19425" lon="5.71676">
        <ele>216.8</ele>
        <time>2021-07-31T12:31:16.000Z</time>
      </trkpt>
      <trkpt lat="45.19436" lon="5.71664">
        <ele>215.7</ele>
        <time>2021-07-31T12:31:18.000Z</time>
      </trkpt>
      <trkpt lat="45.19446" lon="5.71654">
        <ele>214.8</ele>
        <time>2021-07-31T12:31:20.000Z</time>
      </trkpt>
      <trkpt lat="45.19457" lon="5.71644">
        <ele>213.7</ele>
        <time>2021-07-31T12:31:22.000Z</time>
      </trkpt>
      <trkpt lat="45.19469" lon="5.71635">
        <ele>212.7</ele>
        <time>2021-07-31T12:31:24.000Z</time>
      </trkpt>
      <trkpt lat="45.19482" lon="5.71627">
        <ele>211.6</ele>
        <time>2021-07-31T12:31:26.000Z</time>
      </trkpt>
      <trkpt lat="45.19497" lon="5.71617">
        <ele>210.4</ele>
        <time>2021-07-31T12:31:28.000Z</time>
      </trkpt>
      <trkpt lat="45.19509" lon="5.7161">
        <ele>210</ele>
        <time>2021-07-31T12:31:30.000Z</time>
      </trkpt>
      <trkpt lat="45.19522" lon="5.71604">
        <ele>209.8</ele>
        <time>2021-07-31T12:31:32.000Z</time>
      </trkpt>
      <trkpt lat="45.19533" lon="5.71598">
        <ele>209.6</ele>
        <time>2021-07-31T12:31:34.000Z</time>
      </trkpt>
      <trkpt lat="45.19547" lon="5.71592">
        <ele>209.3</ele>
        <time>2021-07-31T12:31:36.000Z</time>
      </trkpt>
      <trkpt lat="45.19562" lon="5.71588">
        <ele>209.2</ele>
        <time>2021-07-31T12:31:38.000Z</time>
      </trkpt>
      <trkpt lat="45.19575" lon="5.71584">
        <ele>209</ele>
        <time>2021-07-31T12:31:40.000Z</time>
      </trkpt>
      <trkpt lat="45.1959" lon="5.71581">
        <ele>209.7</ele>
        <time>2021-07-31T12:31:42.000Z</time>
      </trkpt>
      <trkpt lat="45.19605" lon="5.71576">
        <ele>211.2</ele>
        <time>2021-07-31T12:31:44.000Z</time>
      </trkpt>
      <trkpt lat="45.19618" lon="5.71573">
        <ele>212.6</ele>
        <time>2021-07-31T12:31:46.000Z</time>
      </trkpt>
      <trkpt lat="45.19633" lon="5.7157">
        <ele>214.2</ele>
        <time>2021-07-31T12:31:48.000Z</time>
      </trkpt>
      <trkpt lat="45.19647" lon="5.71569">
        <ele>215.7</ele>
        <time>2021-07-31T12:31:50.000Z</time>
      </trkpt>
      <trkpt lat="45.19661" lon="5.71567">
        <ele>217.2</ele>
        <time>2021-07-31T12:31:52.000Z</time>
      </trkpt>
      <trkpt lat="45.19675" lon="5.71566">
        <ele>217.4</ele>
        <time>2021-07-31T12:31:54.000Z</time>
      </trkpt>
      <trkpt lat="45.19689" lon="5.71566">
        <ele>216.8</ele>
        <time>2021-07-31T12:31:56.000Z</time>
      </trkpt>
      <trkpt lat="45.19704" lon="5.71566">
        <ele>216.2</ele>
        <time>2021-07-31T12:31:58.000Z</time>
      </trkpt>
      <trkpt lat="45.19718" lon="5.71568">
        <ele>215.6</ele>
        <time>2021-07-31T12:32:00.000Z</time>
      </trkpt>
      <trkpt lat="45.19733" lon="5.71569">
        <ele>215</ele>
        <time>2021-07-31T12:32:02.000Z</time>
      </trkpt>
      <trkpt lat="45.19747" lon="5.71571">
        <ele>214.5</ele>
        <time>2021-07-31T12:32:04.000Z</time>
      </trkpt>
      <trkpt lat="45.19761" lon="5.71573">
        <ele>214.5</ele>
        <time>2021-07-31T12:32:06.000Z</time>
      </trkpt>
      <trkpt lat="45.19774" lon="5.71577">
        <ele>214.5</ele>
        <time>2021-07-31T12:32:08.000Z</time>
      </trkpt>
      <trkpt lat="45.19788" lon="5.71579">
        <ele>214.5</ele>
        <time>2021-07-31T12:32:10.000Z</time>
      </trkpt>
      <trkpt lat="45.19801" lon="5.71582">
        <ele>214.4</ele>
        <time>2021-07-31T12:32:12.000Z</time>
      </trkpt>
      <trkpt lat="45.19815" lon="5.71584">
        <ele>214.2</ele>
        <time>2021-07-31T12:32:14.000Z</time>
      </trkpt>
      <trkpt lat="45.19829" lon="5.71587">
        <ele>214</ele>
        <time>2021-07-31T12:32:16.000Z</time>
      </trkpt>
      <trkpt lat="45.19844" lon="5.7159">
        <ele>213.8</ele>
        <time>2021-07-31T12:32:18.000Z</time>
      </trkpt>
      <trkpt lat="45.19857" lon="5.71591">
        <ele>213.6</ele>
        <time>2021-07-31T12:32:20.000Z</time>
      </trkpt>
      <trkpt lat="45.1987" lon="5.71594">
        <ele>213.5</ele>
        <time>2021-07-31T12:32:22.000Z</time>
      </trkpt>
      <trkpt lat="45.19884" lon="5.71598">
        <ele>213.4</ele>
        <time>2021-07-31T12:32:24.000Z</time>
      </trkpt>
      <trkpt lat="45.19898" lon="5.71601">
        <ele>213.3</ele>
        <time>2021-07-31T12:32:26.000Z</time>
      </trkpt>
      <trkpt lat="45.19913" lon="5.71603">
        <ele>213.2</ele>
        <time>2021-07-31T12:32:28.000Z</time>
      </trkpt>
      <trkpt lat="45.19926" lon="5.71603">
        <ele>213.1</ele>
        <time>2021-07-31T12:32:30.000Z</time>
      </trkpt>
      <trkpt lat="45.1994" lon="5.71606">
        <ele>212.9</ele>
        <time>2021-07-31T12:32:32.000Z</time>
      </trkpt>
      <trkpt lat="45.19955" lon="5.71609">
        <ele>212.8</ele>
        <time>2021-07-31T12:32:34.000Z</time>
      </trkpt>
      <trkpt lat="45.19969" lon="5.71614">
        <ele>212.8</ele>
        <time>2021-07-31T12:32:36.000Z</time>
      </trkpt>
      <trkpt lat="45.19984" lon="5.71617">
        <ele>213</ele>
        <time>2021-07-31T12:32:38.000Z</time>
      </trkpt>
      <trkpt lat="45.19997" lon="5.71619">
        <ele>213</ele>
        <time>2021-07-31T12:32:40.000Z</time>
      </trkpt>
      <trkpt lat="45.20012" lon="5.71619">
        <ele>215.3</ele>
        <time>2021-07-31T12:32:42.000Z</time>
      </trkpt>
      <trkpt lat="45.20027" lon="5.71615">
        <ele>217.8</ele>
        <time>2021-07-31T12:32:44.000Z</time>
      </trkpt>
      <trkpt lat="45.20041" lon="5.71611">
        <ele>219.9</ele>
        <time>2021-07-31T12:32:46.000Z</time>
      </trkpt>
      <trkpt lat="45.20055" lon="5.71606">
        <ele>221.9</ele>
        <time>2021-07-31T12:32:48.000Z</time>
      </trkpt>
      <trkpt lat="45.20068" lon="5.716">
        <ele>223.7</ele>
        <time>2021-07-31T12:32:50.000Z</time>
      </trkpt>
      <trkpt lat="45.20083" lon="5.71593">
        <ele>225.3</ele>
        <time>2021-07-31T12:32:52.000Z</time>
      </trkpt>
      <trkpt lat="45.20096" lon="5.71585">
        <ele>227.3</ele>
        <time>2021-07-31T12:32:54.000Z</time>
      </trkpt>
      <trkpt lat="45.20109" lon="5.71577">
        <ele>229.1</ele>
        <time>2021-07-31T12:32:56.000Z</time>
      </trkpt>
      <trkpt lat="45.20122" lon="5.71568">
        <ele>230.6</ele>
        <time>2021-07-31T12:32:58.000Z</time>
      </trkpt>
      <trkpt lat="45.20135" lon="5.71557">
        <ele>231.3</ele>
        <time>2021-07-31T12:33:00.000Z</time>
      </trkpt>
      <trkpt lat="45.20147" lon="5.71546">
        <ele>232.3</ele>
        <time>2021-07-31T12:33:02.000Z</time>
      </trkpt>
      <trkpt lat="45.20158" lon="5.71534">
        <ele>232.6</ele>
        <time>2021-07-31T12:33:04.000Z</time>
      </trkpt>
      <trkpt lat="45.20169" lon="5.71521">
        <ele>232.6</ele>
        <time>2021-07-31T12:33:06.000Z</time>
      </trkpt>
      <trkpt lat="45.20181" lon="5.71509">
        <ele>232.7</ele>
        <time>2021-07-31T12:33:08.000Z</time>
      </trkpt>
      <trkpt lat="45.20193" lon="5.71496">
        <ele>233.1</ele>
        <time>2021-07-31T12:33:10.000Z</time>
      </trkpt>
      <trkpt lat="45.20204" lon="5.71483">
        <ele>233.3</ele>
        <time>2021-07-31T12:33:12.000Z</time>
      </trkpt>
      <trkpt lat="45.20216" lon="5.7147">
        <ele>233.7</ele>
        <time>2021-07-31T12:33:14.000Z</time>
      </trkpt>
      <trkpt lat="45.20228" lon="5.71458">
        <ele>233.5</ele>
        <time>2021-07-31T12:33:16.000Z</time>
      </trkpt>
      <trkpt lat="45.20238" lon="5.71446">
        <ele>233.1</ele>
        <time>2021-07-31T12:33:18.000Z</time>
      </trkpt>
      <trkpt lat="45.20249" lon="5.71433">
        <ele>232.1</ele>
        <time>2021-07-31T12:33:20.000Z</time>
      </trkpt>
      <trkpt lat="45.20259" lon="5.7142">
        <ele>231.4</ele>
        <time>2021-07-31T12:33:22.000Z</time>
      </trkpt>
      <trkpt lat="45.2027" lon="5.71406">
        <ele>231.3</ele>
        <time>2021-07-31T12:33:24.000Z</time>
      </trkpt>
      <trkpt lat="45.20282" lon="5.71394">
        <ele>231.7</ele>
        <time>2021-07-31T12:33:26.000Z</time>
      </trkpt>
      <trkpt lat="45.20292" lon="5.71381">
        <ele>231.7</ele>
        <time>2021-07-31T12:33:28.000Z</time>
      </trkpt>
      <trkpt lat="45.203" lon="5.71367">
        <ele>231</ele>
        <time>2021-07-31T12:33:30.000Z</time>
      </trkpt>
      <trkpt lat="45.20311" lon="5.71353">
        <ele>230.8</ele>
        <time>2021-07-31T12:33:32.000Z</time>
      </trkpt>
      <trkpt lat="45.20321" lon="5.71341">
        <ele>230.8</ele>
        <time>2021-07-31T12:33:34.000Z</time>
      </trkpt>
      <trkpt lat="45.20333" lon="5.7133">
        <ele>231.2</ele>
        <time>2021-07-31T12:33:36.000Z</time>
      </trkpt>
      <trkpt lat="45.20342" lon="5.71314">
        <ele>230.4</ele>
        <time>2021-07-31T12:33:38.000Z</time>
      </trkpt>
      <trkpt lat="45.20351" lon="5.71299">
        <ele>230.1</ele>
        <time>2021-07-31T12:33:40.000Z</time>
      </trkpt>
      <trkpt lat="45.20361" lon="5.71286">
        <ele>229.6</ele>
        <time>2021-07-31T12:33:42.000Z</time>
      </trkpt>
      <trkpt lat="45.20373" lon="5.71273">
        <ele>229.5</ele>
        <time>2021-07-31T12:33:44.000Z</time>
      </trkpt>
      <trkpt lat="45.20382" lon="5.71256">
        <ele>228.3</ele>
        <time>2021-07-31T12:33:46.000Z</time>
      </trkpt>
      <trkpt lat="45.2039" lon="5.71238">
        <ele>227.3</ele>
        <time>2021-07-31T12:33:48.000Z</time>
      </trkpt>
      <trkpt lat="45.204" lon="5.71225">
        <ele>227.6</ele>
        <time>2021-07-31T12:33:50.000Z</time>
      </trkpt>
      <trkpt lat="45.20411" lon="5.71213">
        <ele>227.3</ele>
        <time>2021-07-31T12:33:52.000Z</time>
      </trkpt>
      <trkpt lat="45.20421" lon="5.71201">
        <ele>227.2</ele>
        <time>2021-07-31T12:33:54.000Z</time>
      </trkpt>
      <trkpt lat="45.20433" lon="5.71187">
        <ele>227.3</ele>
        <time>2021-07-31T12:33:56.000Z</time>
      </trkpt>
      <trkpt lat="45.20444" lon="5.71174">
        <ele>227.1</ele>
        <time>2021-07-31T12:33:58.000Z</time>
      </trkpt>
      <trkpt lat="45.20454" lon="5.71158">
        <ele>227</ele>
        <time>2021-07-31T12:34:00.000Z</time>
      </trkpt>
      <trkpt lat="45.20462" lon="5.71141">
        <ele>227.2</ele>
        <time>2021-07-31T12:34:02.000Z</time>
      </trkpt>
      <trkpt lat="45.20472" lon="5.71125">
        <ele>227.7</ele>
        <time>2021-07-31T12:34:04.000Z</time>
      </trkpt>
      <trkpt lat="45.20479" lon="5.71108">
        <ele>227.9</ele>
        <time>2021-07-31T12:34:06.000Z</time>
      </trkpt>
      <trkpt lat="45.20486" lon="5.7109">
        <ele>227.9</ele>
        <time>2021-07-31T12:34:08.000Z</time>
      </trkpt>
      <trkpt lat="45.20494" lon="5.71074">
        <ele>227.8</ele>
        <time>2021-07-31T12:34:10.000Z</time>
      </trkpt>
      <trkpt lat="45.20502" lon="5.71057">
        <ele>227.1</ele>
        <time>2021-07-31T12:34:12.000Z</time>
      </trkpt>
      <trkpt lat="45.2051" lon="5.71042">
        <ele>225.8</ele>
        <time>2021-07-31T12:34:14.000Z</time>
      </trkpt>
      <trkpt lat="45.20517" lon="5.71024">
        <ele>224.3</ele>
        <time>2021-07-31T12:34:16.000Z</time>
      </trkpt>
      <trkpt lat="45.20522" lon="5.71005">
        <ele>222.6</ele>
        <time>2021-07-31T12:34:18.000Z</time>
      </trkpt>
      <trkpt lat="45.20527" lon="5.70987">
        <ele>221.5</ele>
        <time>2021-07-31T12:34:20.000Z</time>
      </trkpt>
      <trkpt lat="45.20533" lon="5.70971">
        <ele>221.1</ele>
        <time>2021-07-31T12:34:22.000Z</time>
      </trkpt>
      <trkpt lat="45.20538" lon="5.70951">
        <ele>220.4</ele>
        <time>2021-07-31T12:34:24.000Z</time>
      </trkpt>
      <trkpt lat="45.20541" lon="5.70933">
        <ele>219.7</ele>
        <time>2021-07-31T12:34:26.000Z</time>
      </trkpt>
      <trkpt lat="45.20547" lon="5.70914">
        <ele>219.3</ele>
        <time>2021-07-31T12:34:28.000Z</time>
      </trkpt>
      <trkpt lat="45.20553" lon="5.70899">
        <ele>219</ele>
        <time>2021-07-31T12:34:30.000Z</time>
      </trkpt>
      <trkpt lat="45.20558" lon="5.70878">
        <ele>218.4</ele>
        <time>2021-07-31T12:34:32.000Z</time>
      </trkpt>
      <trkpt lat="45.20562" lon="5.70861">
        <ele>217.8</ele>
        <time>2021-07-31T12:34:34.000Z</time>
      </trkpt>
      <trkpt lat="45.20568" lon="5.70842">
        <ele>217</ele>
        <time>2021-07-31T12:34:36.000Z</time>
      </trkpt>
      <trkpt lat="45.20572" lon="5.70825">
        <ele>216.8</ele>
        <time>2021-07-31T12:34:38.000Z</time>
      </trkpt>
      <trkpt lat="45.20578" lon="5.7081">
        <ele>217.1</ele>
        <time>2021-07-31T12:34:40.000Z</time>
      </trkpt>
      <trkpt lat="45.20584" lon="5.70796">
        <ele>217.4</ele>
        <time>2021-07-31T12:34:42.000Z</time>
      </trkpt>
      <trkpt lat="45.20591" lon="5.70777">
        <ele>217.6</ele>
        <time>2021-07-31T12:34:44.000Z</time>
      </trkpt>
      <trkpt lat="45.20597" lon="5.70758">
        <ele>217.7</ele>
        <time>2021-07-31T12:34:46.000Z</time>
      </trkpt>
      <trkpt lat="45.20603" lon="5.7074">
        <ele>217.7</ele>
        <time>2021-07-31T12:34:48.000Z</time>
      </trkpt>
      <trkpt lat="45.20607" lon="5.70723">
        <ele>217.5</ele>
        <time>2021-07-31T12:34:50.000Z</time>
      </trkpt>
      <trkpt lat="45.20613" lon="5.70708">
        <ele>217.5</ele>
        <time>2021-07-31T12:34:52.000Z</time>
      </trkpt>
      <trkpt lat="45.2062" lon="5.70696">
        <ele>217.7</ele>
        <time>2021-07-31T12:34:54.000Z</time>
      </trkpt>
      <trkpt lat="45.20625" lon="5.70682">
        <ele>217.9</ele>
        <time>2021-07-31T12:34:56.000Z</time>
      </trkpt>
      <trkpt lat="45.20631" lon="5.70667">
        <ele>218.3</ele>
        <time>2021-07-31T12:34:58.000Z</time>
      </trkpt>
      <trkpt lat="45.20638" lon="5.70652">
        <ele>217.6</ele>
        <time>2021-07-31T12:35:00.000Z</time>
      </trkpt>
      <trkpt lat="45.20645" lon="5.70638">
        <ele>216.9</ele>
        <time>2021-07-31T12:35:02.000Z</time>
      </trkpt>
      <trkpt lat="45.20651" lon="5.70623">
        <ele>216</ele>
        <time>2021-07-31T12:35:04.000Z</time>
      </trkpt>
      <trkpt lat="45.20658" lon="5.70607">
        <ele>214.9</ele>
        <time>2021-07-31T12:35:06.000Z</time>
      </trkpt>
      <trkpt lat="45.20666" lon="5.70591">
        <ele>213.7</ele>
        <time>2021-07-31T12:35:08.000Z</time>
      </trkpt>
      <trkpt lat="45.20672" lon="5.70575">
        <ele>212.4</ele>
        <time>2021-07-31T12:35:10.000Z</time>
      </trkpt>
      <trkpt lat="45.20678" lon="5.70559">
        <ele>211.5</ele>
        <time>2021-07-31T12:35:12.000Z</time>
      </trkpt>
      <trkpt lat="45.20685" lon="5.70542">
        <ele>210.5</ele>
        <time>2021-07-31T12:35:14.000Z</time>
      </trkpt>
      <trkpt lat="45.20691" lon="5.70525">
        <ele>209.7</ele>
        <time>2021-07-31T12:35:16.000Z</time>
      </trkpt>
      <trkpt lat="45.20698" lon="5.70509">
        <ele>209</ele>
        <time>2021-07-31T12:35:18.000Z</time>
      </trkpt>
      <trkpt lat="45.20707" lon="5.70495">
        <ele>209</ele>
        <time>2021-07-31T12:35:20.000Z</time>
      </trkpt>
      <trkpt lat="45.20713" lon="5.70476">
        <ele>209.5</ele>
        <time>2021-07-31T12:35:22.000Z</time>
      </trkpt>
      <trkpt lat="45.2072" lon="5.7046">
        <ele>210.2</ele>
        <time>2021-07-31T12:35:24.000Z</time>
      </trkpt>
      <trkpt lat="45.20726" lon="5.70443">
        <ele>210.9</ele>
        <time>2021-07-31T12:35:26.000Z</time>
      </trkpt>
      <trkpt lat="45.20732" lon="5.70423">
        <ele>211.6</ele>
        <time>2021-07-31T12:35:28.000Z</time>
      </trkpt>
      <trkpt lat="45.2074" lon="5.70406">
        <ele>212.1</ele>
        <time>2021-07-31T12:35:30.000Z</time>
      </trkpt>
      <trkpt lat="45.20747" lon="5.70389">
        <ele>212.2</ele>
        <time>2021-07-31T12:35:32.000Z</time>
      </trkpt>
      <trkpt lat="45.20753" lon="5.70372">
        <ele>211.9</ele>
        <time>2021-07-31T12:35:34.000Z</time>
      </trkpt>
      <trkpt lat="45.20756" lon="5.70355">
        <ele>211.5</ele>
        <time>2021-07-31T12:35:36.000Z</time>
      </trkpt>
      <trkpt lat="45.20756" lon="5.70339">
        <ele>211.1</ele>
        <time>2021-07-31T12:35:39.000Z</time>
      </trkpt>
      <trkpt lat="45.2076" lon="5.70325">
        <ele>210.6</ele>
        <time>2021-07-31T12:35:41.000Z</time>
      </trkpt>
      <trkpt lat="45.20766" lon="5.70311">
        <ele>210.1</ele>
        <time>2021-07-31T12:35:43.000Z</time>
      </trkpt>
      <trkpt lat="45.20772" lon="5.70296">
        <ele>209.7</ele>
        <time>2021-07-31T12:35:45.000Z</time>
      </trkpt>
      <trkpt lat="45.20778" lon="5.70279">
        <ele>209.4</ele>
        <time>2021-07-31T12:35:47.000Z</time>
      </trkpt>
      <trkpt lat="45.20781" lon="5.70261">
        <ele>209</ele>
        <time>2021-07-31T12:35:49.000Z</time>
      </trkpt>
      <trkpt lat="45.20785" lon="5.7024">
        <ele>208.9</ele>
        <time>2021-07-31T12:35:51.000Z</time>
      </trkpt>
      <trkpt lat="45.20788" lon="5.70221">
        <ele>209.1</ele>
        <time>2021-07-31T12:35:53.000Z</time>
      </trkpt>
      <trkpt lat="45.20797" lon="5.70203">
        <ele>209.4</ele>
        <time>2021-07-31T12:35:55.000Z</time>
      </trkpt>
      <trkpt lat="45.20805" lon="5.70188">
        <ele>209.8</ele>
        <time>2021-07-31T12:35:57.000Z</time>
      </trkpt>
      <trkpt lat="45.20814" lon="5.70174">
        <ele>210.2</ele>
        <time>2021-07-31T12:35:59.000Z</time>
      </trkpt>
      <trkpt lat="45.20821" lon="5.70161">
        <ele>210.7</ele>
        <time>2021-07-31T12:36:01.000Z</time>
      </trkpt>
      <trkpt lat="45.2083" lon="5.70147">
        <ele>211.2</ele>
        <time>2021-07-31T12:36:03.000Z</time>
      </trkpt>
      <trkpt lat="45.20838" lon="5.70134">
        <ele>211.1</ele>
        <time>2021-07-31T12:36:05.000Z</time>
      </trkpt>
      <trkpt lat="45.20847" lon="5.70121">
        <ele>210.5</ele>
        <time>2021-07-31T12:36:07.000Z</time>
      </trkpt>
      <trkpt lat="45.20853" lon="5.70107">
        <ele>210</ele>
        <time>2021-07-31T12:36:09.000Z</time>
      </trkpt>
      <trkpt lat="45.20859" lon="5.70093">
        <ele>209.5</ele>
        <time>2021-07-31T12:36:11.000Z</time>
      </trkpt>
      <trkpt lat="45.20866" lon="5.70079">
        <ele>209</ele>
        <time>2021-07-31T12:36:13.000Z</time>
      </trkpt>
      <trkpt lat="45.20871" lon="5.70065">
        <ele>208.7</ele>
        <time>2021-07-31T12:36:15.000Z</time>
      </trkpt>
      <trkpt lat="45.20877" lon="5.70051">
        <ele>208.4</ele>
        <time>2021-07-31T12:36:17.000Z</time>
      </trkpt>
      <trkpt lat="45.20884" lon="5.70036">
        <ele>208.3</ele>
        <time>2021-07-31T12:36:19.000Z</time>
      </trkpt>
      <trkpt lat="45.20891" lon="5.70021">
        <ele>208.3</ele>
        <time>2021-07-31T12:36:21.000Z</time>
      </trkpt>
      <trkpt lat="45.20898" lon="5.70005">
        <ele>208.5</ele>
        <time>2021-07-31T12:36:23.000Z</time>
      </trkpt>
      <trkpt lat="45.20905" lon="5.69989">
        <ele>208.7</ele>
        <time>2021-07-31T12:36:25.000Z</time>
      </trkpt>
      <trkpt lat="45.2091" lon="5.69973">
        <ele>208.9</ele>
        <time>2021-07-31T12:36:27.000Z</time>
      </trkpt>
      <trkpt lat="45.20916" lon="5.69955">
        <ele>209.1</ele>
        <time>2021-07-31T12:36:29.000Z</time>
      </trkpt>
      <trkpt lat="45.20923" lon="5.69939">
        <ele>209.4</ele>
        <time>2021-07-31T12:36:31.000Z</time>
      </trkpt>
      <trkpt lat="45.20929" lon="5.69921">
        <ele>209.6</ele>
        <time>2021-07-31T12:36:33.000Z</time>
      </trkpt>
      <trkpt lat="45.20934" lon="5.69904">
        <ele>209.2</ele>
        <time>2021-07-31T12:36:35.000Z</time>
      </trkpt>
      <trkpt lat="45.20941" lon="5.69888">
        <ele>208.7</ele>
        <time>2021-07-31T12:36:37.000Z</time>
      </trkpt>
      <trkpt lat="45.20947" lon="5.69871">
        <ele>208.2</ele>
        <time>2021-07-31T12:36:39.000Z</time>
      </trkpt>
      <trkpt lat="45.20953" lon="5.69853">
        <ele>207.8</ele>
        <time>2021-07-31T12:36:41.000Z</time>
      </trkpt>
      <trkpt lat="45.20958" lon="5.69835">
        <ele>207.5</ele>
        <time>2021-07-31T12:36:43.000Z</time>
      </trkpt>
      <trkpt lat="45.20964" lon="5.69816">
        <ele>207.8</ele>
        <time>2021-07-31T12:36:45.000Z</time>
      </trkpt>
      <trkpt lat="45.20969" lon="5.69798">
        <ele>208.3</ele>
        <time>2021-07-31T12:36:47.000Z</time>
      </trkpt>
      <trkpt lat="45.20975" lon="5.69783">
        <ele>208.8</ele>
        <time>2021-07-31T12:36:49.000Z</time>
      </trkpt>
      <trkpt lat="45.2098" lon="5.69765">
        <ele>209.4</ele>
        <time>2021-07-31T12:36:51.000Z</time>
      </trkpt>
      <trkpt lat="45.20984" lon="5.69745">
        <ele>209.8</ele>
        <time>2021-07-31T12:36:53.000Z</time>
      </trkpt>
      <trkpt lat="45.2099" lon="5.69727">
        <ele>209.7</ele>
        <time>2021-07-31T12:36:55.000Z</time>
      </trkpt>
      <trkpt lat="45.20996" lon="5.69708">
        <ele>209.3</ele>
        <time>2021-07-31T12:36:57.000Z</time>
      </trkpt>
      <trkpt lat="45.20999" lon="5.69688">
        <ele>208.7</ele>
        <time>2021-07-31T12:36:59.000Z</time>
      </trkpt>
      <trkpt lat="45.21004" lon="5.69669">
        <ele>208.1</ele>
        <time>2021-07-31T12:37:01.000Z</time>
      </trkpt>
      <trkpt lat="45.21011" lon="5.69651">
        <ele>207.8</ele>
        <time>2021-07-31T12:37:03.000Z</time>
      </trkpt>
      <trkpt lat="45.21016" lon="5.69632">
        <ele>207.6</ele>
        <time>2021-07-31T12:37:05.000Z</time>
      </trkpt>
      <trkpt lat="45.21022" lon="5.69614">
        <ele>207.4</ele>
        <time>2021-07-31T12:37:07.000Z</time>
      </trkpt>
      <trkpt lat="45.21029" lon="5.69598">
        <ele>207.2</ele>
        <time>2021-07-31T12:37:09.000Z</time>
      </trkpt>
      <trkpt lat="45.21034" lon="5.69578">
        <ele>206.9</ele>
        <time>2021-07-31T12:37:11.000Z</time>
      </trkpt>
      <trkpt lat="45.21039" lon="5.6956">
        <ele>206.7</ele>
        <time>2021-07-31T12:37:13.000Z</time>
      </trkpt>
      <trkpt lat="45.21043" lon="5.6954">
        <ele>206.5</ele>
        <time>2021-07-31T12:37:15.000Z</time>
      </trkpt>
      <trkpt lat="45.21049" lon="5.6952">
        <ele>206.5</ele>
        <time>2021-07-31T12:37:17.000Z</time>
      </trkpt>
      <trkpt lat="45.21054" lon="5.69502">
        <ele>206.6</ele>
        <time>2021-07-31T12:37:19.000Z</time>
      </trkpt>
      <trkpt lat="45.21058" lon="5.69483">
        <ele>206.5</ele>
        <time>2021-07-31T12:37:21.000Z</time>
      </trkpt>
      <trkpt lat="45.21061" lon="5.69464">
        <ele>206.3</ele>
        <time>2021-07-31T12:37:23.000Z</time>
      </trkpt>
      <trkpt lat="45.21063" lon="5.69444">
        <ele>206</ele>
        <time>2021-07-31T12:37:25.000Z</time>
      </trkpt>
      <trkpt lat="45.21065" lon="5.69424">
        <ele>205.7</ele>
        <time>2021-07-31T12:37:27.000Z</time>
      </trkpt>
      <trkpt lat="45.21068" lon="5.69404">
        <ele>205.7</ele>
        <time>2021-07-31T12:37:29.000Z</time>
      </trkpt>
      <trkpt lat="45.21071" lon="5.69384">
        <ele>205.9</ele>
        <time>2021-07-31T12:37:31.000Z</time>
      </trkpt>
      <trkpt lat="45.21073" lon="5.69365">
        <ele>206</ele>
        <time>2021-07-31T12:37:33.000Z</time>
      </trkpt>
      <trkpt lat="45.21075" lon="5.69345">
        <ele>206.1</ele>
        <time>2021-07-31T12:37:35.000Z</time>
      </trkpt>
      <trkpt lat="45.21078" lon="5.69326">
        <ele>206.4</ele>
        <time>2021-07-31T12:37:37.000Z</time>
      </trkpt>
      <trkpt lat="45.21081" lon="5.69307">
        <ele>207.2</ele>
        <time>2021-07-31T12:37:39.000Z</time>
      </trkpt>
      <trkpt lat="45.21083" lon="5.6929">
        <ele>208.1</ele>
        <time>2021-07-31T12:37:41.000Z</time>
      </trkpt>
      <trkpt lat="45.21084" lon="5.69271">
        <ele>209</ele>
        <time>2021-07-31T12:37:43.000Z</time>
      </trkpt>
      <trkpt lat="45.21087" lon="5.69252">
        <ele>209.7</ele>
        <time>2021-07-31T12:37:45.000Z</time>
      </trkpt>
      <trkpt lat="45.2109" lon="5.69234">
        <ele>210</ele>
        <time>2021-07-31T12:37:47.000Z</time>
      </trkpt>
      <trkpt lat="45.21093" lon="5.69214">
        <ele>210.3</ele>
        <time>2021-07-31T12:37:49.000Z</time>
      </trkpt>
      <trkpt lat="45.21095" lon="5.69196">
        <ele>210.7</ele>
        <time>2021-07-31T12:37:51.000Z</time>
      </trkpt>
      <trkpt lat="45.21097" lon="5.69176">
        <ele>211.1</ele>
        <time>2021-07-31T12:37:53.000Z</time>
      </trkpt>
      <trkpt lat="45.211" lon="5.69158">
        <ele>211</ele>
        <time>2021-07-31T12:37:55.000Z</time>
      </trkpt>
      <trkpt lat="45.21103" lon="5.6914">
        <ele>210.6</ele>
        <time>2021-07-31T12:37:57.000Z</time>
      </trkpt>
      <trkpt lat="45.21106" lon="5.69123">
        <ele>210.1</ele>
        <time>2021-07-31T12:37:59.000Z</time>
      </trkpt>
      <trkpt lat="45.21106" lon="5.69103">
        <ele>209.8</ele>
        <time>2021-07-31T12:38:01.000Z</time>
      </trkpt>
      <trkpt lat="45.21109" lon="5.69085">
        <ele>209.4</ele>
        <time>2021-07-31T12:38:03.000Z</time>
      </trkpt>
      <trkpt lat="45.2111" lon="5.69065">
        <ele>209.1</ele>
        <time>2021-07-31T12:38:05.000Z</time>
      </trkpt>
      <trkpt lat="45.21112" lon="5.69044">
        <ele>208.7</ele>
        <time>2021-07-31T12:38:07.000Z</time>
      </trkpt>
      <trkpt lat="45.21116" lon="5.69025">
        <ele>208.4</ele>
        <time>2021-07-31T12:38:09.000Z</time>
      </trkpt>
      <trkpt lat="45.2112" lon="5.69007">
        <ele>208.1</ele>
        <time>2021-07-31T12:38:11.000Z</time>
      </trkpt>
      <trkpt lat="45.21122" lon="5.68988">
        <ele>208.3</ele>
        <time>2021-07-31T12:38:13.000Z</time>
      </trkpt>
      <trkpt lat="45.21125" lon="5.6897">
        <ele>208.7</ele>
        <time>2021-07-31T12:38:15.000Z</time>
      </trkpt>
      <trkpt lat="45.21129" lon="5.68953">
        <ele>209</ele>
        <time>2021-07-31T12:38:17.000Z</time>
      </trkpt>
      <trkpt lat="45.21133" lon="5.68935">
        <ele>209.3</ele>
        <time>2021-07-31T12:38:19.000Z</time>
      </trkpt>
      <trkpt lat="45.21136" lon="5.68915">
        <ele>209.4</ele>
        <time>2021-07-31T12:38:21.000Z</time>
      </trkpt>
      <trkpt lat="45.21138" lon="5.68893">
        <ele>209</ele>
        <time>2021-07-31T12:38:23.000Z</time>
      </trkpt>
      <trkpt lat="45.2114" lon="5.68872">
        <ele>208.5</ele>
        <time>2021-07-31T12:38:25.000Z</time>
      </trkpt>
      <trkpt lat="45.21145" lon="5.68851">
        <ele>208.1</ele>
        <time>2021-07-31T12:38:27.000Z</time>
      </trkpt>
      <trkpt lat="45.21148" lon="5.68835">
        <ele>207.7</ele>
        <time>2021-07-31T12:38:29.000Z</time>
      </trkpt>
      <trkpt lat="45.21153" lon="5.68816">
        <ele>207.4</ele>
        <time>2021-07-31T12:38:31.000Z</time>
      </trkpt>
      <trkpt lat="45.21158" lon="5.68798">
        <ele>207.2</ele>
        <time>2021-07-31T12:38:33.000Z</time>
      </trkpt>
      <trkpt lat="45.21164" lon="5.6878">
        <ele>207.1</ele>
        <time>2021-07-31T12:38:35.000Z</time>
      </trkpt>
      <trkpt lat="45.21168" lon="5.68761">
        <ele>207</ele>
        <time>2021-07-31T12:38:37.000Z</time>
      </trkpt>
      <trkpt lat="45.21172" lon="5.68744">
        <ele>207</ele>
        <time>2021-07-31T12:38:39.000Z</time>
      </trkpt>
      <trkpt lat="45.21176" lon="5.68725">
        <ele>207</ele>
        <time>2021-07-31T12:38:41.000Z</time>
      </trkpt>
      <trkpt lat="45.21179" lon="5.68703">
        <ele>207</ele>
        <time>2021-07-31T12:38:43.000Z</time>
      </trkpt>
      <trkpt lat="45.21184" lon="5.68685">
        <ele>207</ele>
        <time>2021-07-31T12:38:45.000Z</time>
      </trkpt>
      <trkpt lat="45.21188" lon="5.68666">
        <ele>207</ele>
        <time>2021-07-31T12:38:47.000Z</time>
      </trkpt>
      <trkpt lat="45.21192" lon="5.6865">
        <ele>207.1</ele>
        <time>2021-07-31T12:38:49.000Z</time>
      </trkpt>
      <trkpt lat="45.21195" lon="5.68635">
        <ele>207.3</ele>
        <time>2021-07-31T12:38:51.000Z</time>
      </trkpt>
      <trkpt lat="45.21196" lon="5.68617">
        <ele>207.4</ele>
        <time>2021-07-31T12:38:53.000Z</time>
      </trkpt>
      <trkpt lat="45.21203" lon="5.68604">
        <ele>207.4</ele>
        <time>2021-07-31T12:38:55.000Z</time>
      </trkpt>
      <trkpt lat="45.21212" lon="5.68596">
        <ele>207.4</ele>
        <time>2021-07-31T12:38:57.000Z</time>
      </trkpt>
      <trkpt lat="45.2122" lon="5.68584">
        <ele>207.4</ele>
        <time>2021-07-31T12:38:59.000Z</time>
      </trkpt>
      <trkpt lat="45.21225" lon="5.68569">
        <ele>207.8</ele>
        <time>2021-07-31T12:39:01.000Z</time>
      </trkpt>
      <trkpt lat="45.21229" lon="5.68553">
        <ele>208.4</ele>
        <time>2021-07-31T12:39:03.000Z</time>
      </trkpt>
      <trkpt lat="45.21229" lon="5.68537">
        <ele>208.9</ele>
        <time>2021-07-31T12:39:05.000Z</time>
      </trkpt>
      <trkpt lat="45.21223" lon="5.68526">
        <ele>209.2</ele>
        <time>2021-07-31T12:39:07.000Z</time>
      </trkpt>
      <trkpt lat="45.21215" lon="5.68517">
        <ele>209.3</ele>
        <time>2021-07-31T12:39:09.000Z</time>
      </trkpt>
      <trkpt lat="45.2121" lon="5.68504">
        <ele>209.5</ele>
        <time>2021-07-31T12:39:11.000Z</time>
      </trkpt>
      <trkpt lat="45.21211" lon="5.68487">
        <ele>209.6</ele>
        <time>2021-07-31T12:39:13.000Z</time>
      </trkpt>
      <trkpt lat="45.21216" lon="5.68476">
        <ele>209.8</ele>
        <time>2021-07-31T12:39:15.000Z</time>
      </trkpt>
      <trkpt lat="45.2122" lon="5.68458">
        <ele>210.1</ele>
        <time>2021-07-31T12:39:17.000Z</time>
      </trkpt>
      <trkpt lat="45.21226" lon="5.68442">
        <ele>210.4</ele>
        <time>2021-07-31T12:39:19.000Z</time>
      </trkpt>
      <trkpt lat="45.21232" lon="5.68429">
        <ele>210.9</ele>
        <time>2021-07-31T12:39:21.000Z</time>
      </trkpt>
      <trkpt lat="45.21239" lon="5.68417">
        <ele>211.3</ele>
        <time>2021-07-31T12:39:23.000Z</time>
      </trkpt>
      <trkpt lat="45.21244" lon="5.68405">
        <ele>211.5</ele>
        <time>2021-07-31T12:39:25.000Z</time>
      </trkpt>
      <trkpt lat="45.2125" lon="5.68392">
        <ele>211.7</ele>
        <time>2021-07-31T12:39:27.000Z</time>
      </trkpt>
      <trkpt lat="45.21255" lon="5.6838">
        <ele>211.3</ele>
        <time>2021-07-31T12:39:29.000Z</time>
      </trkpt>
      <trkpt lat="45.21261" lon="5.68367">
        <ele>210.9</ele>
        <time>2021-07-31T12:39:31.000Z</time>
      </trkpt>
      <trkpt lat="45.21267" lon="5.68354">
        <ele>210.5</ele>
        <time>2021-07-31T12:39:33.000Z</time>
      </trkpt>
      <trkpt lat="45.21273" lon="5.68341">
        <ele>210.2</ele>
        <time>2021-07-31T12:39:35.000Z</time>
      </trkpt>
      <trkpt lat="45.2128" lon="5.68327">
        <ele>209.9</ele>
        <time>2021-07-31T12:39:37.000Z</time>
      </trkpt>
      <trkpt lat="45.21287" lon="5.68313">
        <ele>209.8</ele>
        <time>2021-07-31T12:39:39.000Z</time>
      </trkpt>
      <trkpt lat="45.21295" lon="5.683">
        <ele>209.6</ele>
        <time>2021-07-31T12:39:41.000Z</time>
      </trkpt>
      <trkpt lat="45.21302" lon="5.68285">
        <ele>209.5</ele>
        <time>2021-07-31T12:39:43.000Z</time>
      </trkpt>
      <trkpt lat="45.2131" lon="5.68273">
        <ele>209.4</ele>
        <time>2021-07-31T12:39:45.000Z</time>
      </trkpt>
      <trkpt lat="45.21318" lon="5.68256">
        <ele>209.3</ele>
        <time>2021-07-31T12:39:47.000Z</time>
      </trkpt>
      <trkpt lat="45.21326" lon="5.68241">
        <ele>209.3</ele>
        <time>2021-07-31T12:39:49.000Z</time>
      </trkpt>
      <trkpt lat="45.21333" lon="5.68226">
        <ele>209.3</ele>
        <time>2021-07-31T12:39:51.000Z</time>
      </trkpt>
      <trkpt lat="45.21341" lon="5.68211">
        <ele>209.3</ele>
        <time>2021-07-31T12:39:53.000Z</time>
      </trkpt>
      <trkpt lat="45.2135" lon="5.68196">
        <ele>209.4</ele>
        <time>2021-07-31T12:39:55.000Z</time>
      </trkpt>
      <trkpt lat="45.21357" lon="5.68183">
        <ele>209.5</ele>
        <time>2021-07-31T12:39:57.000Z</time>
      </trkpt>
      <trkpt lat="45.21365" lon="5.68167">
        <ele>209.6</ele>
        <time>2021-07-31T12:39:59.000Z</time>
      </trkpt>
      <trkpt lat="45.21373" lon="5.68151">
        <ele>209.3</ele>
        <time>2021-07-31T12:40:01.000Z</time>
      </trkpt>
      <trkpt lat="45.21382" lon="5.68136">
        <ele>208.8</ele>
        <time>2021-07-31T12:40:03.000Z</time>
      </trkpt>
      <trkpt lat="45.2139" lon="5.68121">
        <ele>208.4</ele>
        <time>2021-07-31T12:40:05.000Z</time>
      </trkpt>
      <trkpt lat="45.21397" lon="5.68106">
        <ele>207.9</ele>
        <time>2021-07-31T12:40:07.000Z</time>
      </trkpt>
      <trkpt lat="45.21406" lon="5.6809">
        <ele>207.4</ele>
        <time>2021-07-31T12:40:09.000Z</time>
      </trkpt>
      <trkpt lat="45.21413" lon="5.68076">
        <ele>207.3</ele>
        <time>2021-07-31T12:40:11.000Z</time>
      </trkpt>
      <trkpt lat="45.21422" lon="5.6806">
        <ele>207.6</ele>
        <time>2021-07-31T12:40:13.000Z</time>
      </trkpt>
      <trkpt lat="45.2143" lon="5.68044">
        <ele>208.1</ele>
        <time>2021-07-31T12:40:15.000Z</time>
      </trkpt>
      <trkpt lat="45.21439" lon="5.68028">
        <ele>208.4</ele>
        <time>2021-07-31T12:40:17.000Z</time>
      </trkpt>
      <trkpt lat="45.21447" lon="5.68013">
        <ele>208.7</ele>
        <time>2021-07-31T12:40:19.000Z</time>
      </trkpt>
      <trkpt lat="45.21455" lon="5.67997">
        <ele>209</ele>
        <time>2021-07-31T12:40:21.000Z</time>
      </trkpt>
      <trkpt lat="45.21465" lon="5.67981">
        <ele>208.9</ele>
        <time>2021-07-31T12:40:23.000Z</time>
      </trkpt>
      <trkpt lat="45.21473" lon="5.67965">
        <ele>208.7</ele>
        <time>2021-07-31T12:40:25.000Z</time>
      </trkpt>
      <trkpt lat="45.21482" lon="5.6795">
        <ele>208.5</ele>
        <time>2021-07-31T12:40:27.000Z</time>
      </trkpt>
      <trkpt lat="45.21491" lon="5.67935">
        <ele>208.3</ele>
        <time>2021-07-31T12:40:29.000Z</time>
      </trkpt>
      <trkpt lat="45.21499" lon="5.67919">
        <ele>208</ele>
        <time>2021-07-31T12:40:31.000Z</time>
      </trkpt>
      <trkpt lat="45.21508" lon="5.67902">
        <ele>206.7</ele>
        <time>2021-07-31T12:40:33.000Z</time>
      </trkpt>
      <trkpt lat="45.21517" lon="5.67885">
        <ele>205.5</ele>
        <time>2021-07-31T12:40:35.000Z</time>
      </trkpt>
      <trkpt lat="45.21525" lon="5.67868">
        <ele>204.4</ele>
        <time>2021-07-31T12:40:37.000Z</time>
      </trkpt>
      <trkpt lat="45.21534" lon="5.67851">
        <ele>203.4</ele>
        <time>2021-07-31T12:40:39.000Z</time>
      </trkpt>
      <trkpt lat="45.21543" lon="5.67834">
        <ele>202.5</ele>
        <time>2021-07-31T12:40:41.000Z</time>
      </trkpt>
      <trkpt lat="45.21552" lon="5.67817">
        <ele>202.9</ele>
        <time>2021-07-31T12:40:43.000Z</time>
      </trkpt>
      <trkpt lat="45.2156" lon="5.678">
        <ele>203.4</ele>
        <time>2021-07-31T12:40:45.000Z</time>
      </trkpt>
      <trkpt lat="45.21567" lon="5.67782">
        <ele>203.9</ele>
        <time>2021-07-31T12:40:47.000Z</time>
      </trkpt>
      <trkpt lat="45.21574" lon="5.67765">
        <ele>204.5</ele>
        <time>2021-07-31T12:40:49.000Z</time>
      </trkpt>
      <trkpt lat="45.21583" lon="5.67747">
        <ele>205.1</ele>
        <time>2021-07-31T12:40:51.000Z</time>
      </trkpt>
      <trkpt lat="45.21591" lon="5.6773">
        <ele>205.9</ele>
        <time>2021-07-31T12:40:53.000Z</time>
      </trkpt>
      <trkpt lat="45.21599" lon="5.67712">
        <ele>206.4</ele>
        <time>2021-07-31T12:40:55.000Z</time>
      </trkpt>
      <trkpt lat="45.21607" lon="5.67694">
        <ele>206.7</ele>
        <time>2021-07-31T12:40:57.000Z</time>
      </trkpt>
      <trkpt lat="45.21616" lon="5.67677">
        <ele>206.8</ele>
        <time>2021-07-31T12:40:59.000Z</time>
      </trkpt>
      <trkpt lat="45.21625" lon="5.67662">
        <ele>206.3</ele>
        <time>2021-07-31T12:41:01.000Z</time>
      </trkpt>
      <trkpt lat="45.21633" lon="5.67644">
        <ele>205.2</ele>
        <time>2021-07-31T12:41:03.000Z</time>
      </trkpt>
      <trkpt lat="45.21643" lon="5.67627">
        <ele>204.3</ele>
        <time>2021-07-31T12:41:05.000Z</time>
      </trkpt>
      <trkpt lat="45.21652" lon="5.6761">
        <ele>203.3</ele>
        <time>2021-07-31T12:41:07.000Z</time>
      </trkpt>
      <trkpt lat="45.21662" lon="5.67594">
        <ele>202.5</ele>
        <time>2021-07-31T12:41:09.000Z</time>
      </trkpt>
      <trkpt lat="45.21671" lon="5.67579">
        <ele>202.6</ele>
        <time>2021-07-31T12:41:11.000Z</time>
      </trkpt>
      <trkpt lat="45.2168" lon="5.67562">
        <ele>204.2</ele>
        <time>2021-07-31T12:41:13.000Z</time>
      </trkpt>
      <trkpt lat="45.21689" lon="5.67547">
        <ele>205.3</ele>
        <time>2021-07-31T12:41:15.000Z</time>
      </trkpt>
      <trkpt lat="45.21698" lon="5.67531">
        <ele>206.4</ele>
        <time>2021-07-31T12:41:17.000Z</time>
      </trkpt>
      <trkpt lat="45.21708" lon="5.67516">
        <ele>207.1</ele>
        <time>2021-07-31T12:41:19.000Z</time>
      </trkpt>
      <trkpt lat="45.21718" lon="5.675">
        <ele>207.5</ele>
        <time>2021-07-31T12:41:21.000Z</time>
      </trkpt>
      <trkpt lat="45.21728" lon="5.67485">
        <ele>207.2</ele>
        <time>2021-07-31T12:41:23.000Z</time>
      </trkpt>
      <trkpt lat="45.21739" lon="5.67469">
        <ele>207.1</ele>
        <time>2021-07-31T12:41:25.000Z</time>
      </trkpt>
      <trkpt lat="45.21749" lon="5.67454">
        <ele>207.1</ele>
        <time>2021-07-31T12:41:27.000Z</time>
      </trkpt>
      <trkpt lat="45.2176" lon="5.6744">
        <ele>207</ele>
        <time>2021-07-31T12:41:29.000Z</time>
      </trkpt>
      <trkpt lat="45.2177" lon="5.67427">
        <ele>206.6</ele>
        <time>2021-07-31T12:41:31.000Z</time>
      </trkpt>
      <trkpt lat="45.21782" lon="5.67415">
        <ele>206</ele>
        <time>2021-07-31T12:41:33.000Z</time>
      </trkpt>
      <trkpt lat="45.21794" lon="5.67402">
        <ele>205</ele>
        <time>2021-07-31T12:41:35.000Z</time>
      </trkpt>
      <trkpt lat="45.21805" lon="5.6739">
        <ele>204.7</ele>
        <time>2021-07-31T12:41:37.000Z</time>
      </trkpt>
      <trkpt lat="45.21817" lon="5.67378">
        <ele>204.8</ele>
        <time>2021-07-31T12:41:39.000Z</time>
      </trkpt>
      <trkpt lat="45.21829" lon="5.67366">
        <ele>205.4</ele>
        <time>2021-07-31T12:41:41.000Z</time>
      </trkpt>
      <trkpt lat="45.2184" lon="5.67354">
        <ele>206</ele>
        <time>2021-07-31T12:41:43.000Z</time>
      </trkpt>
      <trkpt lat="45.21851" lon="5.67344">
        <ele>206.2</ele>
        <time>2021-07-31T12:41:45.000Z</time>
      </trkpt>
      <trkpt lat="45.21863" lon="5.67332">
        <ele>206.2</ele>
        <time>2021-07-31T12:41:47.000Z</time>
      </trkpt>
      <trkpt lat="45.21877" lon="5.6732">
        <ele>205.8</ele>
        <time>2021-07-31T12:41:49.000Z</time>
      </trkpt>
      <trkpt lat="45.2189" lon="5.6731">
        <ele>205.8</ele>
        <time>2021-07-31T12:41:51.000Z</time>
      </trkpt>
      <trkpt lat="45.21902" lon="5.67299">
        <ele>206.2</ele>
        <time>2021-07-31T12:41:53.000Z</time>
      </trkpt>
      <trkpt lat="45.21916" lon="5.6729">
        <ele>207.1</ele>
        <time>2021-07-31T12:41:55.000Z</time>
      </trkpt>
      <trkpt lat="45.21929" lon="5.6728">
        <ele>207.3</ele>
        <time>2021-07-31T12:41:57.000Z</time>
      </trkpt>
      <trkpt lat="45.21942" lon="5.6727">
        <ele>207.4</ele>
        <time>2021-07-31T12:41:59.000Z</time>
      </trkpt>
      <trkpt lat="45.21954" lon="5.6726">
        <ele>207.4</ele>
        <time>2021-07-31T12:42:01.000Z</time>
      </trkpt>
      <trkpt lat="45.21967" lon="5.6725">
        <ele>207.2</ele>
        <time>2021-07-31T12:42:03.000Z</time>
      </trkpt>
      <trkpt lat="45.21979" lon="5.6724">
        <ele>207.1</ele>
        <time>2021-07-31T12:42:05.000Z</time>
      </trkpt>
      <trkpt lat="45.21991" lon="5.67231">
        <ele>207.6</ele>
        <time>2021-07-31T12:42:07.000Z</time>
      </trkpt>
      <trkpt lat="45.22003" lon="5.67222">
        <ele>208.4</ele>
        <time>2021-07-31T12:42:09.000Z</time>
      </trkpt>
      <trkpt lat="45.22015" lon="5.67213">
        <ele>209</ele>
        <time>2021-07-31T12:42:11.000Z</time>
      </trkpt>
      <trkpt lat="45.22026" lon="5.67203">
        <ele>209.5</ele>
        <time>2021-07-31T12:42:13.000Z</time>
      </trkpt>
      <trkpt lat="45.22038" lon="5.67194">
        <ele>210</ele>
        <time>2021-07-31T12:42:15.000Z</time>
      </trkpt>
      <trkpt lat="45.2205" lon="5.67184">
        <ele>210.3</ele>
        <time>2021-07-31T12:42:17.000Z</time>
      </trkpt>
      <trkpt lat="45.22062" lon="5.67173">
        <ele>210.4</ele>
        <time>2021-07-31T12:42:19.000Z</time>
      </trkpt>
      <trkpt lat="45.22074" lon="5.67164">
        <ele>209.8</ele>
        <time>2021-07-31T12:42:21.000Z</time>
      </trkpt>
      <trkpt lat="45.22088" lon="5.67157">
        <ele>208.6</ele>
        <time>2021-07-31T12:42:23.000Z</time>
      </trkpt>
      <trkpt lat="45.22099" lon="5.67149">
        <ele>207.4</ele>
        <time>2021-07-31T12:42:25.000Z</time>
      </trkpt>
      <trkpt lat="45.22111" lon="5.67141">
        <ele>206.5</ele>
        <time>2021-07-31T12:42:27.000Z</time>
      </trkpt>
      <trkpt lat="45.22124" lon="5.67132">
        <ele>205.7</ele>
        <time>2021-07-31T12:42:29.000Z</time>
      </trkpt>
      <trkpt lat="45.22136" lon="5.67124">
        <ele>205.2</ele>
        <time>2021-07-31T12:42:31.000Z</time>
      </trkpt>
      <trkpt lat="45.22148" lon="5.67115">
        <ele>205</ele>
        <time>2021-07-31T12:42:33.000Z</time>
      </trkpt>
      <trkpt lat="45.22162" lon="5.67107">
        <ele>205.1</ele>
        <time>2021-07-31T12:42:35.000Z</time>
      </trkpt>
      <trkpt lat="45.22174" lon="5.67098">
        <ele>205.1</ele>
        <time>2021-07-31T12:42:37.000Z</time>
      </trkpt>
      <trkpt lat="45.22187" lon="5.67089">
        <ele>204.8</ele>
        <time>2021-07-31T12:42:39.000Z</time>
      </trkpt>
      <trkpt lat="45.22199" lon="5.67079">
        <ele>204.4</ele>
        <time>2021-07-31T12:42:41.000Z</time>
      </trkpt>
      <trkpt lat="45.22213" lon="5.67069">
        <ele>204.1</ele>
        <time>2021-07-31T12:42:43.000Z</time>
      </trkpt>
      <trkpt lat="45.22226" lon="5.6706">
        <ele>203.9</ele>
        <time>2021-07-31T12:42:45.000Z</time>
      </trkpt>
      <trkpt lat="45.22238" lon="5.67048">
        <ele>203.8</ele>
        <time>2021-07-31T12:42:47.000Z</time>
      </trkpt>
      <trkpt lat="45.22251" lon="5.67039">
        <ele>204</ele>
        <time>2021-07-31T12:42:49.000Z</time>
      </trkpt>
      <trkpt lat="45.22263" lon="5.6703">
        <ele>204.5</ele>
        <time>2021-07-31T12:42:51.000Z</time>
      </trkpt>
      <trkpt lat="45.22276" lon="5.6702">
        <ele>205</ele>
        <time>2021-07-31T12:42:53.000Z</time>
      </trkpt>
      <trkpt lat="45.22288" lon="5.6701">
        <ele>205.4</ele>
        <time>2021-07-31T12:42:55.000Z</time>
      </trkpt>
      <trkpt lat="45.223" lon="5.67001">
        <ele>205.8</ele>
        <time>2021-07-31T12:42:57.000Z</time>
      </trkpt>
      <trkpt lat="45.22312" lon="5.66991">
        <ele>206.1</ele>
        <time>2021-07-31T12:42:59.000Z</time>
      </trkpt>
      <trkpt lat="45.22325" lon="5.66981">
        <ele>206.6</ele>
        <time>2021-07-31T12:43:01.000Z</time>
      </trkpt>
      <trkpt lat="45.22337" lon="5.66972">
        <ele>206.8</ele>
        <time>2021-07-31T12:43:03.000Z</time>
      </trkpt>
      <trkpt lat="45.2235" lon="5.66964">
        <ele>206.2</ele>
        <time>2021-07-31T12:43:05.000Z</time>
      </trkpt>
      <trkpt lat="45.22362" lon="5.66954">
        <ele>205.6</ele>
        <time>2021-07-31T12:43:07.000Z</time>
      </trkpt>
      <trkpt lat="45.22376" lon="5.66946">
        <ele>205</ele>
        <time>2021-07-31T12:43:09.000Z</time>
      </trkpt>
      <trkpt lat="45.22389" lon="5.66937">
        <ele>204.3</ele>
        <time>2021-07-31T12:43:11.000Z</time>
      </trkpt>
      <trkpt lat="45.22401" lon="5.66928">
        <ele>203.7</ele>
        <time>2021-07-31T12:43:13.000Z</time>
      </trkpt>
      <trkpt lat="45.22414" lon="5.66919">
        <ele>203.1</ele>
        <time>2021-07-31T12:43:15.000Z</time>
      </trkpt>
      <trkpt lat="45.22426" lon="5.66909">
        <ele>202.8</ele>
        <time>2021-07-31T12:43:17.000Z</time>
      </trkpt>
      <trkpt lat="45.22438" lon="5.66901">
        <ele>202.8</ele>
        <time>2021-07-31T12:43:19.000Z</time>
      </trkpt>
      <trkpt lat="45.2245" lon="5.66892">
        <ele>202.7</ele>
        <time>2021-07-31T12:43:21.000Z</time>
      </trkpt>
      <trkpt lat="45.22462" lon="5.66884">
        <ele>202.8</ele>
        <time>2021-07-31T12:43:23.000Z</time>
      </trkpt>
      <trkpt lat="45.22475" lon="5.66875">
        <ele>202.9</ele>
        <time>2021-07-31T12:43:25.000Z</time>
      </trkpt>
      <trkpt lat="45.22488" lon="5.66866">
        <ele>203.1</ele>
        <time>2021-07-31T12:43:27.000Z</time>
      </trkpt>
      <trkpt lat="45.22501" lon="5.66857">
        <ele>203.3</ele>
        <time>2021-07-31T12:43:29.000Z</time>
      </trkpt>
      <trkpt lat="45.22514" lon="5.66848">
        <ele>202.9</ele>
        <time>2021-07-31T12:43:31.000Z</time>
      </trkpt>
      <trkpt lat="45.22526" lon="5.6684">
        <ele>202.5</ele>
        <time>2021-07-31T12:43:33.000Z</time>
      </trkpt>
      <trkpt lat="45.22539" lon="5.66832">
        <ele>202</ele>
        <time>2021-07-31T12:43:35.000Z</time>
      </trkpt>
      <trkpt lat="45.22552" lon="5.66822">
        <ele>201.5</ele>
        <time>2021-07-31T12:43:37.000Z</time>
      </trkpt>
      <trkpt lat="45.22565" lon="5.66812">
        <ele>201</ele>
        <time>2021-07-31T12:43:39.000Z</time>
      </trkpt>
      <trkpt lat="45.22577" lon="5.66804">
        <ele>200.7</ele>
        <time>2021-07-31T12:43:41.000Z</time>
      </trkpt>
      <trkpt lat="45.2259" lon="5.66795">
        <ele>201</ele>
        <time>2021-07-31T12:43:43.000Z</time>
      </trkpt>
      <trkpt lat="45.22601" lon="5.66787">
        <ele>201.6</ele>
        <time>2021-07-31T12:43:45.000Z</time>
      </trkpt>
      <trkpt lat="45.22614" lon="5.66779">
        <ele>202.3</ele>
        <time>2021-07-31T12:43:47.000Z</time>
      </trkpt>
      <trkpt lat="45.22627" lon="5.66767">
        <ele>202.9</ele>
        <time>2021-07-31T12:43:49.000Z</time>
      </trkpt>
      <trkpt lat="45.22641" lon="5.66755">
        <ele>203.5</ele>
        <time>2021-07-31T12:43:51.000Z</time>
      </trkpt>
      <trkpt lat="45.22653" lon="5.66747">
        <ele>204.1</ele>
        <time>2021-07-31T12:43:53.000Z</time>
      </trkpt>
      <trkpt lat="45.22666" lon="5.66738">
        <ele>204.8</ele>
        <time>2021-07-31T12:43:55.000Z</time>
      </trkpt>
      <trkpt lat="45.22678" lon="5.66729">
        <ele>204.9</ele>
        <time>2021-07-31T12:43:57.000Z</time>
      </trkpt>
      <trkpt lat="45.2269" lon="5.66719">
        <ele>204.9</ele>
        <time>2021-07-31T12:43:59.000Z</time>
      </trkpt>
      <trkpt lat="45.22704" lon="5.6671">
        <ele>205</ele>
        <time>2021-07-31T12:44:01.000Z</time>
      </trkpt>
      <trkpt lat="45.22717" lon="5.66701">
        <ele>204.9</ele>
        <time>2021-07-31T12:44:03.000Z</time>
      </trkpt>
      <trkpt lat="45.2273" lon="5.66693">
        <ele>204.8</ele>
        <time>2021-07-31T12:44:05.000Z</time>
      </trkpt>
      <trkpt lat="45.22743" lon="5.66683">
        <ele>204.5</ele>
        <time>2021-07-31T12:44:07.000Z</time>
      </trkpt>
      <trkpt lat="45.22755" lon="5.66674">
        <ele>204.1</ele>
        <time>2021-07-31T12:44:09.000Z</time>
      </trkpt>
      <trkpt lat="45.22767" lon="5.66665">
        <ele>203.5</ele>
        <time>2021-07-31T12:44:11.000Z</time>
      </trkpt>
      <trkpt lat="45.22779" lon="5.66657">
        <ele>202.9</ele>
        <time>2021-07-31T12:44:13.000Z</time>
      </trkpt>
      <trkpt lat="45.22791" lon="5.66648">
        <ele>202.4</ele>
        <time>2021-07-31T12:44:15.000Z</time>
      </trkpt>
      <trkpt lat="45.22804" lon="5.66637">
        <ele>202</ele>
        <time>2021-07-31T12:44:17.000Z</time>
      </trkpt>
      <trkpt lat="45.22817" lon="5.66627">
        <ele>201.6</ele>
        <time>2021-07-31T12:44:19.000Z</time>
      </trkpt>
      <trkpt lat="45.2283" lon="5.66619">
        <ele>201.4</ele>
        <time>2021-07-31T12:44:21.000Z</time>
      </trkpt>
      <trkpt lat="45.22842" lon="5.6661">
        <ele>201.8</ele>
        <time>2021-07-31T12:44:23.000Z</time>
      </trkpt>
      <trkpt lat="45.22855" lon="5.66602">
        <ele>202.1</ele>
        <time>2021-07-31T12:44:25.000Z</time>
      </trkpt>
      <trkpt lat="45.22869" lon="5.66592">
        <ele>202.2</ele>
        <time>2021-07-31T12:44:27.000Z</time>
      </trkpt>
      <trkpt lat="45.22881" lon="5.66583">
        <ele>202.1</ele>
        <time>2021-07-31T12:44:29.000Z</time>
      </trkpt>
      <trkpt lat="45.22894" lon="5.66574">
        <ele>202.1</ele>
        <time>2021-07-31T12:44:31.000Z</time>
      </trkpt>
      <trkpt lat="45.22905" lon="5.66568">
        <ele>202</ele>
        <time>2021-07-31T12:44:33.000Z</time>
      </trkpt>
      <trkpt lat="45.22916" lon="5.6656">
        <ele>201.9</ele>
        <time>2021-07-31T12:44:35.000Z</time>
      </trkpt>
      <trkpt lat="45.22929" lon="5.6655">
        <ele>202.2</ele>
        <time>2021-07-31T12:44:37.000Z</time>
      </trkpt>
      <trkpt lat="45.22941" lon="5.6654">
        <ele>202.6</ele>
        <time>2021-07-31T12:44:39.000Z</time>
      </trkpt>
      <trkpt lat="45.22954" lon="5.66529">
        <ele>203.2</ele>
        <time>2021-07-31T12:44:41.000Z</time>
      </trkpt>
      <trkpt lat="45.22967" lon="5.6652">
        <ele>203.9</ele>
        <time>2021-07-31T12:44:43.000Z</time>
      </trkpt>
      <trkpt lat="45.22979" lon="5.6651">
        <ele>204.5</ele>
        <time>2021-07-31T12:44:45.000Z</time>
      </trkpt>
      <trkpt lat="45.22992" lon="5.66501">
        <ele>205.4</ele>
        <time>2021-07-31T12:44:47.000Z</time>
      </trkpt>
      <trkpt lat="45.23004" lon="5.66492">
        <ele>205.2</ele>
        <time>2021-07-31T12:44:49.000Z</time>
      </trkpt>
      <trkpt lat="45.23018" lon="5.66484">
        <ele>204.2</ele>
        <time>2021-07-31T12:44:51.000Z</time>
      </trkpt>
      <trkpt lat="45.2303" lon="5.66475">
        <ele>203.4</ele>
        <time>2021-07-31T12:44:53.000Z</time>
      </trkpt>
      <trkpt lat="45.23043" lon="5.66465">
        <ele>202.8</ele>
        <time>2021-07-31T12:44:55.000Z</time>
      </trkpt>
      <trkpt lat="45.23055" lon="5.66456">
        <ele>202.4</ele>
        <time>2021-07-31T12:44:57.000Z</time>
      </trkpt>
      <trkpt lat="45.23069" lon="5.66448">
        <ele>202.2</ele>
        <time>2021-07-31T12:44:59.000Z</time>
      </trkpt>
      <trkpt lat="45.23082" lon="5.66438">
        <ele>202.2</ele>
        <time>2021-07-31T12:45:01.000Z</time>
      </trkpt>
      <trkpt lat="45.23094" lon="5.66429">
        <ele>202</ele>
        <time>2021-07-31T12:45:03.000Z</time>
      </trkpt>
      <trkpt lat="45.23106" lon="5.66422">
        <ele>201.7</ele>
        <time>2021-07-31T12:45:05.000Z</time>
      </trkpt>
      <trkpt lat="45.23119" lon="5.66412">
        <ele>201.6</ele>
        <time>2021-07-31T12:45:07.000Z</time>
      </trkpt>
      <trkpt lat="45.23131" lon="5.66403">
        <ele>201.8</ele>
        <time>2021-07-31T12:45:09.000Z</time>
      </trkpt>
      <trkpt lat="45.23143" lon="5.66395">
        <ele>202.2</ele>
        <time>2021-07-31T12:45:11.000Z</time>
      </trkpt>
      <trkpt lat="45.23154" lon="5.66386">
        <ele>202.9</ele>
        <time>2021-07-31T12:45:13.000Z</time>
      </trkpt>
      <trkpt lat="45.23166" lon="5.66378">
        <ele>203.8</ele>
        <time>2021-07-31T12:45:15.000Z</time>
      </trkpt>
      <trkpt lat="45.23178" lon="5.66368">
        <ele>204.4</ele>
        <time>2021-07-31T12:45:17.000Z</time>
      </trkpt>
      <trkpt lat="45.2319" lon="5.66359">
        <ele>204.8</ele>
        <time>2021-07-31T12:45:19.000Z</time>
      </trkpt>
      <trkpt lat="45.23201" lon="5.6635">
        <ele>205</ele>
        <time>2021-07-31T12:45:21.000Z</time>
      </trkpt>
      <trkpt lat="45.23213" lon="5.66341">
        <ele>205.1</ele>
        <time>2021-07-31T12:45:23.000Z</time>
      </trkpt>
      <trkpt lat="45.23225" lon="5.66331">
        <ele>204.9</ele>
        <time>2021-07-31T12:45:25.000Z</time>
      </trkpt>
      <trkpt lat="45.23237" lon="5.66321">
        <ele>204.9</ele>
        <time>2021-07-31T12:45:27.000Z</time>
      </trkpt>
      <trkpt lat="45.23249" lon="5.66313">
        <ele>205.2</ele>
        <time>2021-07-31T12:45:29.000Z</time>
      </trkpt>
      <trkpt lat="45.2326" lon="5.66304">
        <ele>205.2</ele>
        <time>2021-07-31T12:45:31.000Z</time>
      </trkpt>
      <trkpt lat="45.2327" lon="5.66296">
        <ele>205.1</ele>
        <time>2021-07-31T12:45:33.000Z</time>
      </trkpt>
      <trkpt lat="45.23281" lon="5.66288">
        <ele>204.8</ele>
        <time>2021-07-31T12:45:35.000Z</time>
      </trkpt>
      <trkpt lat="45.23293" lon="5.66281">
        <ele>204.4</ele>
        <time>2021-07-31T12:45:37.000Z</time>
      </trkpt>
      <trkpt lat="45.23306" lon="5.66272">
        <ele>204.1</ele>
        <time>2021-07-31T12:45:39.000Z</time>
      </trkpt>
      <trkpt lat="45.23318" lon="5.66265">
        <ele>203.5</ele>
        <time>2021-07-31T12:45:41.000Z</time>
      </trkpt>
      <trkpt lat="45.2333" lon="5.66256">
        <ele>203</ele>
        <time>2021-07-31T12:45:43.000Z</time>
      </trkpt>
      <trkpt lat="45.23342" lon="5.66246">
        <ele>203.3</ele>
        <time>2021-07-31T12:45:45.000Z</time>
      </trkpt>
      <trkpt lat="45.23353" lon="5.66236">
        <ele>203.8</ele>
        <time>2021-07-31T12:45:47.000Z</time>
      </trkpt>
      <trkpt lat="45.23364" lon="5.6623">
        <ele>204</ele>
        <time>2021-07-31T12:45:49.000Z</time>
      </trkpt>
      <trkpt lat="45.23377" lon="5.66222">
        <ele>204.4</ele>
        <time>2021-07-31T12:45:51.000Z</time>
      </trkpt>
      <trkpt lat="45.2339" lon="5.66214">
        <ele>204.6</ele>
        <time>2021-07-31T12:45:53.000Z</time>
      </trkpt>
      <trkpt lat="45.23402" lon="5.66206">
        <ele>204.9</ele>
        <time>2021-07-31T12:45:55.000Z</time>
      </trkpt>
      <trkpt lat="45.23415" lon="5.66197">
        <ele>205.2</ele>
        <time>2021-07-31T12:45:57.000Z</time>
      </trkpt>
      <trkpt lat="45.23426" lon="5.66188">
        <ele>205</ele>
        <time>2021-07-31T12:45:59.000Z</time>
      </trkpt>
      <trkpt lat="45.23439" lon="5.6618">
        <ele>204.5</ele>
        <time>2021-07-31T12:46:01.000Z</time>
      </trkpt>
      <trkpt lat="45.23451" lon="5.66171">
        <ele>203.9</ele>
        <time>2021-07-31T12:46:03.000Z</time>
      </trkpt>
      <trkpt lat="45.23463" lon="5.66162">
        <ele>203.2</ele>
        <time>2021-07-31T12:46:05.000Z</time>
      </trkpt>
      <trkpt lat="45.23475" lon="5.66152">
        <ele>202.7</ele>
        <time>2021-07-31T12:46:07.000Z</time>
      </trkpt>
      <trkpt lat="45.23485" lon="5.66142">
        <ele>202.2</ele>
        <time>2021-07-31T12:46:09.000Z</time>
      </trkpt>
      <trkpt lat="45.23497" lon="5.66134">
        <ele>201.8</ele>
        <time>2021-07-31T12:46:11.000Z</time>
      </trkpt>
      <trkpt lat="45.23508" lon="5.66126">
        <ele>201.9</ele>
        <time>2021-07-31T12:46:13.000Z</time>
      </trkpt>
      <trkpt lat="45.23521" lon="5.66118">
        <ele>202.1</ele>
        <time>2021-07-31T12:46:15.000Z</time>
      </trkpt>
      <trkpt lat="45.23532" lon="5.66109">
        <ele>202.4</ele>
        <time>2021-07-31T12:46:17.000Z</time>
      </trkpt>
      <trkpt lat="45.23544" lon="5.661">
        <ele>202.7</ele>
        <time>2021-07-31T12:46:19.000Z</time>
      </trkpt>
      <trkpt lat="45.23556" lon="5.66091">
        <ele>203</ele>
        <time>2021-07-31T12:46:21.000Z</time>
      </trkpt>
      <trkpt lat="45.23568" lon="5.66082">
        <ele>203.2</ele>
        <time>2021-07-31T12:46:23.000Z</time>
      </trkpt>
      <trkpt lat="45.23579" lon="5.66073">
        <ele>203</ele>
        <time>2021-07-31T12:46:25.000Z</time>
      </trkpt>
      <trkpt lat="45.2359" lon="5.66065">
        <ele>202.8</ele>
        <time>2021-07-31T12:46:27.000Z</time>
      </trkpt>
      <trkpt lat="45.23602" lon="5.66059">
        <ele>202.4</ele>
        <time>2021-07-31T12:46:29.000Z</time>
      </trkpt>
      <trkpt lat="45.23614" lon="5.66056">
        <ele>202.1</ele>
        <time>2021-07-31T12:46:31.000Z</time>
      </trkpt>
      <trkpt lat="45.23626" lon="5.66053">
        <ele>201.9</ele>
        <time>2021-07-31T12:46:33.000Z</time>
      </trkpt>
      <trkpt lat="45.23639" lon="5.66052">
        <ele>201.6</ele>
        <time>2021-07-31T12:46:35.000Z</time>
      </trkpt>
      <trkpt lat="45.23652" lon="5.66052">
        <ele>201.3</ele>
        <time>2021-07-31T12:46:37.000Z</time>
      </trkpt>
      <trkpt lat="45.23667" lon="5.66052">
        <ele>200.9</ele>
        <time>2021-07-31T12:46:39.000Z</time>
      </trkpt>
      <trkpt lat="45.2368" lon="5.66053">
        <ele>201</ele>
        <time>2021-07-31T12:46:41.000Z</time>
      </trkpt>
      <trkpt lat="45.23692" lon="5.66051">
        <ele>201.3</ele>
        <time>2021-07-31T12:46:43.000Z</time>
      </trkpt>
      <trkpt lat="45.23701" lon="5.66038">
        <ele>201.8</ele>
        <time>2021-07-31T12:46:45.000Z</time>
      </trkpt>
      <trkpt lat="45.23701" lon="5.66022">
        <ele>202.4</ele>
        <time>2021-07-31T12:46:47.000Z</time>
      </trkpt>
      <trkpt lat="45.237" lon="5.66008">
        <ele>202.9</ele>
        <time>2021-07-31T12:46:49.000Z</time>
      </trkpt>
      <trkpt lat="45.23698" lon="5.65991">
        <ele>202.9</ele>
        <time>2021-07-31T12:46:52.000Z</time>
      </trkpt>
      <trkpt lat="45.23698" lon="5.65978">
        <ele>202.3</ele>
        <time>2021-07-31T12:46:56.000Z</time>
      </trkpt>
      <trkpt lat="45.23707" lon="5.65973">
        <ele>202</ele>
        <time>2021-07-31T12:46:58.000Z</time>
      </trkpt>
      <trkpt lat="45.23716" lon="5.65966">
        <ele>201.7</ele>
        <time>2021-07-31T12:47:00.000Z</time>
      </trkpt>
      <trkpt lat="45.23726" lon="5.6596">
        <ele>201.5</ele>
        <time>2021-07-31T12:47:02.000Z</time>
      </trkpt>
      <trkpt lat="45.23736" lon="5.65956">
        <ele>201.4</ele>
        <time>2021-07-31T12:47:04.000Z</time>
      </trkpt>
      <trkpt lat="45.23748" lon="5.65958">
        <ele>201.5</ele>
        <time>2021-07-31T12:47:06.000Z</time>
      </trkpt>
      <trkpt lat="45.2376" lon="5.65961">
        <ele>201.5</ele>
        <time>2021-07-31T12:47:08.000Z</time>
      </trkpt>
      <trkpt lat="45.23773" lon="5.65966">
        <ele>201.5</ele>
        <time>2021-07-31T12:47:10.000Z</time>
      </trkpt>
      <trkpt lat="45.23787" lon="5.6597">
        <ele>201.5</ele>
        <time>2021-07-31T12:47:12.000Z</time>
      </trkpt>
      <trkpt lat="45.23801" lon="5.65975">
        <ele>201.5</ele>
        <time>2021-07-31T12:47:14.000Z</time>
      </trkpt>
      <trkpt lat="45.23814" lon="5.6598">
        <ele>201.6</ele>
        <time>2021-07-31T12:47:16.000Z</time>
      </trkpt>
      <trkpt lat="45.23828" lon="5.65982">
        <ele>201.6</ele>
        <time>2021-07-31T12:47:18.000Z</time>
      </trkpt>
      <trkpt lat="45.23841" lon="5.65985">
        <ele>201.8</ele>
        <time>2021-07-31T12:47:20.000Z</time>
      </trkpt>
      <trkpt lat="45.23853" lon="5.65988">
        <ele>202.1</ele>
        <time>2021-07-31T12:47:22.000Z</time>
      </trkpt>
      <trkpt lat="45.23863" lon="5.65987">
        <ele>202.2</ele>
        <time>2021-07-31T12:47:24.000Z</time>
      </trkpt>
      <trkpt lat="45.23875" lon="5.65981">
        <ele>202.2</ele>
        <time>2021-07-31T12:47:26.000Z</time>
      </trkpt>
      <trkpt lat="45.23886" lon="5.65972">
        <ele>201.9</ele>
        <time>2021-07-31T12:47:28.000Z</time>
      </trkpt>
      <trkpt lat="45.23898" lon="5.65964">
        <ele>201.7</ele>
        <time>2021-07-31T12:47:30.000Z</time>
      </trkpt>
      <trkpt lat="45.23908" lon="5.65957">
        <ele>201.3</ele>
        <time>2021-07-31T12:47:32.000Z</time>
      </trkpt>
      <trkpt lat="45.23916" lon="5.65944">
        <ele>200.6</ele>
        <time>2021-07-31T12:47:34.000Z</time>
      </trkpt>
      <trkpt lat="45.23919" lon="5.65928">
        <ele>199.6</ele>
        <time>2021-07-31T12:47:36.000Z</time>
      </trkpt>
      <trkpt lat="45.23915" lon="5.65913">
        <ele>199</ele>
        <time>2021-07-31T12:47:38.000Z</time>
      </trkpt>
      <trkpt lat="45.23908" lon="5.65897">
        <ele>199.1</ele>
        <time>2021-07-31T12:47:40.000Z</time>
      </trkpt>
      <trkpt lat="45.23903" lon="5.6588">
        <ele>199</ele>
        <time>2021-07-31T12:47:42.000Z</time>
      </trkpt>
      <trkpt lat="45.23902" lon="5.65864">
        <ele>198.9</ele>
        <time>2021-07-31T12:47:44.000Z</time>
      </trkpt>
      <trkpt lat="45.23905" lon="5.65847">
        <ele>198.9</ele>
        <time>2021-07-31T12:47:46.000Z</time>
      </trkpt>
      <trkpt lat="45.23911" lon="5.65831">
        <ele>199</ele>
        <time>2021-07-31T12:47:48.000Z</time>
      </trkpt>
      <trkpt lat="45.23922" lon="5.65819">
        <ele>199.7</ele>
        <time>2021-07-31T12:47:50.000Z</time>
      </trkpt>
      <trkpt lat="45.23934" lon="5.65808">
        <ele>200.6</ele>
        <time>2021-07-31T12:47:52.000Z</time>
      </trkpt>
      <trkpt lat="45.23947" lon="5.658">
        <ele>201.2</ele>
        <time>2021-07-31T12:47:54.000Z</time>
      </trkpt>
      <trkpt lat="45.23961" lon="5.6579">
        <ele>201.9</ele>
        <time>2021-07-31T12:47:56.000Z</time>
      </trkpt>
      <trkpt lat="45.23974" lon="5.6578">
        <ele>202.4</ele>
        <time>2021-07-31T12:47:58.000Z</time>
      </trkpt>
      <trkpt lat="45.23986" lon="5.65772">
        <ele>202.7</ele>
        <time>2021-07-31T12:48:00.000Z</time>
      </trkpt>
      <trkpt lat="45.24" lon="5.65763">
        <ele>203</ele>
        <time>2021-07-31T12:48:02.000Z</time>
      </trkpt>
      <trkpt lat="45.24013" lon="5.65753">
        <ele>202.7</ele>
        <time>2021-07-31T12:48:04.000Z</time>
      </trkpt>
      <trkpt lat="45.24025" lon="5.65743">
        <ele>202.3</ele>
        <time>2021-07-31T12:48:06.000Z</time>
      </trkpt>
      <trkpt lat="45.24038" lon="5.65733">
        <ele>201.8</ele>
        <time>2021-07-31T12:48:08.000Z</time>
      </trkpt>
      <trkpt lat="45.24049" lon="5.65723">
        <ele>201.6</ele>
        <time>2021-07-31T12:48:10.000Z</time>
      </trkpt>
      <trkpt lat="45.2406" lon="5.65712">
        <ele>201.3</ele>
        <time>2021-07-31T12:48:12.000Z</time>
      </trkpt>
      <trkpt lat="45.24074" lon="5.65704">
        <ele>201.1</ele>
        <time>2021-07-31T12:48:14.000Z</time>
      </trkpt>
      <trkpt lat="45.24086" lon="5.65697">
        <ele>201.1</ele>
        <time>2021-07-31T12:48:16.000Z</time>
      </trkpt>
      <trkpt lat="45.24099" lon="5.65689">
        <ele>201.4</ele>
        <time>2021-07-31T12:48:18.000Z</time>
      </trkpt>
      <trkpt lat="45.24111" lon="5.65681">
        <ele>201.8</ele>
        <time>2021-07-31T12:48:20.000Z</time>
      </trkpt>
      <trkpt lat="45.24122" lon="5.65676">
        <ele>202.2</ele>
        <time>2021-07-31T12:48:22.000Z</time>
      </trkpt>
      <trkpt lat="45.24132" lon="5.65666">
        <ele>202.7</ele>
        <time>2021-07-31T12:48:24.000Z</time>
      </trkpt>
      <trkpt lat="45.24145" lon="5.65656">
        <ele>203</ele>
        <time>2021-07-31T12:48:26.000Z</time>
      </trkpt>
      <trkpt lat="45.24157" lon="5.65647">
        <ele>203.1</ele>
        <time>2021-07-31T12:48:28.000Z</time>
      </trkpt>
      <trkpt lat="45.24169" lon="5.65637">
        <ele>203.3</ele>
        <time>2021-07-31T12:48:30.000Z</time>
      </trkpt>
      <trkpt lat="45.24181" lon="5.65628">
        <ele>203</ele>
        <time>2021-07-31T12:48:32.000Z</time>
      </trkpt>
      <trkpt lat="45.24194" lon="5.6562">
        <ele>203</ele>
        <time>2021-07-31T12:48:34.000Z</time>
      </trkpt>
      <trkpt lat="45.24206" lon="5.6561">
        <ele>203.1</ele>
        <time>2021-07-31T12:48:36.000Z</time>
      </trkpt>
      <trkpt lat="45.24218" lon="5.65601">
        <ele>203.5</ele>
        <time>2021-07-31T12:48:38.000Z</time>
      </trkpt>
      <trkpt lat="45.24231" lon="5.65591">
        <ele>204.1</ele>
        <time>2021-07-31T12:48:40.000Z</time>
      </trkpt>
      <trkpt lat="45.24243" lon="5.65582">
        <ele>204.6</ele>
        <time>2021-07-31T12:48:42.000Z</time>
      </trkpt>
      <trkpt lat="45.24256" lon="5.65573">
        <ele>204.7</ele>
        <time>2021-07-31T12:48:44.000Z</time>
      </trkpt>
      <trkpt lat="45.24269" lon="5.65564">
        <ele>204.5</ele>
        <time>2021-07-31T12:48:46.000Z</time>
      </trkpt>
      <trkpt lat="45.24282" lon="5.65554">
        <ele>204.3</ele>
        <time>2021-07-31T12:48:48.000Z</time>
      </trkpt>
      <trkpt lat="45.24294" lon="5.65544">
        <ele>204.1</ele>
        <time>2021-07-31T12:48:50.000Z</time>
      </trkpt>
      <trkpt lat="45.24307" lon="5.65535">
        <ele>203.9</ele>
        <time>2021-07-31T12:48:52.000Z</time>
      </trkpt>
      <trkpt lat="45.24319" lon="5.65525">
        <ele>203.7</ele>
        <time>2021-07-31T12:48:54.000Z</time>
      </trkpt>
      <trkpt lat="45.24332" lon="5.65515">
        <ele>203.5</ele>
        <time>2021-07-31T12:48:56.000Z</time>
      </trkpt>
      <trkpt lat="45.24345" lon="5.65505">
        <ele>202.6</ele>
        <time>2021-07-31T12:48:58.000Z</time>
      </trkpt>
      <trkpt lat="45.24359" lon="5.65496">
        <ele>201.7</ele>
        <time>2021-07-31T12:49:00.000Z</time>
      </trkpt>
      <trkpt lat="45.24372" lon="5.65488">
        <ele>201</ele>
        <time>2021-07-31T12:49:02.000Z</time>
      </trkpt>
      <trkpt lat="45.24386" lon="5.65478">
        <ele>200.4</ele>
        <time>2021-07-31T12:49:04.000Z</time>
      </trkpt>
      <trkpt lat="45.24399" lon="5.65469">
        <ele>199.9</ele>
        <time>2021-07-31T12:49:06.000Z</time>
      </trkpt>
      <trkpt lat="45.24413" lon="5.65459">
        <ele>199.6</ele>
        <time>2021-07-31T12:49:08.000Z</time>
      </trkpt>
      <trkpt lat="45.24426" lon="5.6545">
        <ele>199.1</ele>
        <time>2021-07-31T12:49:10.000Z</time>
      </trkpt>
      <trkpt lat="45.2444" lon="5.65441">
        <ele>198.2</ele>
        <time>2021-07-31T12:49:12.000Z</time>
      </trkpt>
      <trkpt lat="45.24452" lon="5.65433">
        <ele>197.3</ele>
        <time>2021-07-31T12:49:14.000Z</time>
      </trkpt>
      <trkpt lat="45.24464" lon="5.65425">
        <ele>196.2</ele>
        <time>2021-07-31T12:49:16.000Z</time>
      </trkpt>
      <trkpt lat="45.24476" lon="5.65416">
        <ele>195.1</ele>
        <time>2021-07-31T12:49:18.000Z</time>
      </trkpt>
      <trkpt lat="45.24488" lon="5.65409">
        <ele>194.3</ele>
        <time>2021-07-31T12:49:20.000Z</time>
      </trkpt>
      <trkpt lat="45.24499" lon="5.65401">
        <ele>193.8</ele>
        <time>2021-07-31T12:49:22.000Z</time>
      </trkpt>
      <trkpt lat="45.24512" lon="5.65392">
        <ele>194.5</ele>
        <time>2021-07-31T12:49:24.000Z</time>
      </trkpt>
      <trkpt lat="45.24524" lon="5.6538">
        <ele>195.3</ele>
        <time>2021-07-31T12:49:26.000Z</time>
      </trkpt>
      <trkpt lat="45.24537" lon="5.65368">
        <ele>196</ele>
        <time>2021-07-31T12:49:28.000Z</time>
      </trkpt>
      <trkpt lat="45.24551" lon="5.65358">
        <ele>196.6</ele>
        <time>2021-07-31T12:49:30.000Z</time>
      </trkpt>
      <trkpt lat="45.24563" lon="5.6535">
        <ele>197.1</ele>
        <time>2021-07-31T12:49:32.000Z</time>
      </trkpt>
      <trkpt lat="45.24575" lon="5.65341">
        <ele>197.6</ele>
        <time>2021-07-31T12:49:34.000Z</time>
      </trkpt>
      <trkpt lat="45.24589" lon="5.65332">
        <ele>198.2</ele>
        <time>2021-07-31T12:49:36.000Z</time>
      </trkpt>
      <trkpt lat="45.24603" lon="5.6532">
        <ele>199</ele>
        <time>2021-07-31T12:49:38.000Z</time>
      </trkpt>
      <trkpt lat="45.24615" lon="5.6531">
        <ele>199.6</ele>
        <time>2021-07-31T12:49:40.000Z</time>
      </trkpt>
      <trkpt lat="45.24627" lon="5.65301">
        <ele>200.1</ele>
        <time>2021-07-31T12:49:42.000Z</time>
      </trkpt>
      <trkpt lat="45.24643" lon="5.65293">
        <ele>200.5</ele>
        <time>2021-07-31T12:49:44.000Z</time>
      </trkpt>
      <trkpt lat="45.24657" lon="5.65283">
        <ele>200.9</ele>
        <time>2021-07-31T12:49:46.000Z</time>
      </trkpt>
      <trkpt lat="45.24669" lon="5.65271">
        <ele>201.2</ele>
        <time>2021-07-31T12:49:48.000Z</time>
      </trkpt>
      <trkpt lat="45.24684" lon="5.65259">
        <ele>201.2</ele>
        <time>2021-07-31T12:49:50.000Z</time>
      </trkpt>
      <trkpt lat="45.24696" lon="5.65246">
        <ele>200.9</ele>
        <time>2021-07-31T12:49:52.000Z</time>
      </trkpt>
      <trkpt lat="45.24708" lon="5.65236">
        <ele>200.5</ele>
        <time>2021-07-31T12:49:54.000Z</time>
      </trkpt>
      <trkpt lat="45.24719" lon="5.65225">
        <ele>200.3</ele>
        <time>2021-07-31T12:49:56.000Z</time>
      </trkpt>
      <trkpt lat="45.24731" lon="5.65214">
        <ele>200.2</ele>
        <time>2021-07-31T12:49:58.000Z</time>
      </trkpt>
      <trkpt lat="45.24744" lon="5.652">
        <ele>200.3</ele>
        <time>2021-07-31T12:50:00.000Z</time>
      </trkpt>
      <trkpt lat="45.24758" lon="5.65187">
        <ele>200.5</ele>
        <time>2021-07-31T12:50:02.000Z</time>
      </trkpt>
      <trkpt lat="45.24769" lon="5.65173">
        <ele>200.6</ele>
        <time>2021-07-31T12:50:04.000Z</time>
      </trkpt>
      <trkpt lat="45.2478" lon="5.6516">
        <ele>200.7</ele>
        <time>2021-07-31T12:50:06.000Z</time>
      </trkpt>
      <trkpt lat="45.24791" lon="5.65146">
        <ele>200.8</ele>
        <time>2021-07-31T12:50:08.000Z</time>
      </trkpt>
      <trkpt lat="45.24801" lon="5.65132">
        <ele>200.9</ele>
        <time>2021-07-31T12:50:10.000Z</time>
      </trkpt>
      <trkpt lat="45.24811" lon="5.65118">
        <ele>201.1</ele>
        <time>2021-07-31T12:50:12.000Z</time>
      </trkpt>
      <trkpt lat="45.24822" lon="5.65107">
        <ele>201.4</ele>
        <time>2021-07-31T12:50:14.000Z</time>
      </trkpt>
      <trkpt lat="45.24832" lon="5.65093">
        <ele>201.8</ele>
        <time>2021-07-31T12:50:16.000Z</time>
      </trkpt>
      <trkpt lat="45.2484" lon="5.65078">
        <ele>201.7</ele>
        <time>2021-07-31T12:50:18.000Z</time>
      </trkpt>
      <trkpt lat="45.24852" lon="5.6506">
        <ele>201.2</ele>
        <time>2021-07-31T12:50:20.000Z</time>
      </trkpt>
      <trkpt lat="45.24863" lon="5.65045">
        <ele>200.8</ele>
        <time>2021-07-31T12:50:22.000Z</time>
      </trkpt>
      <trkpt lat="45.24873" lon="5.65032">
        <ele>200.5</ele>
        <time>2021-07-31T12:50:24.000Z</time>
      </trkpt>
      <trkpt lat="45.24883" lon="5.65021">
        <ele>200.3</ele>
        <time>2021-07-31T12:50:26.000Z</time>
      </trkpt>
      <trkpt lat="45.24892" lon="5.65008">
        <ele>200.3</ele>
        <time>2021-07-31T12:50:28.000Z</time>
      </trkpt>
      <trkpt lat="45.24902" lon="5.64994">
        <ele>200.2</ele>
        <time>2021-07-31T12:50:30.000Z</time>
      </trkpt>
      <trkpt lat="45.24914" lon="5.6498">
        <ele>200.5</ele>
        <time>2021-07-31T12:50:32.000Z</time>
      </trkpt>
      <trkpt lat="45.24925" lon="5.64964">
        <ele>201.1</ele>
        <time>2021-07-31T12:50:34.000Z</time>
      </trkpt>
      <trkpt lat="45.24935" lon="5.6495">
        <ele>201.7</ele>
        <time>2021-07-31T12:50:36.000Z</time>
      </trkpt>
      <trkpt lat="45.24947" lon="5.64937">
        <ele>202.1</ele>
        <time>2021-07-31T12:50:38.000Z</time>
      </trkpt>
      <trkpt lat="45.24956" lon="5.64921">
        <ele>202.4</ele>
        <time>2021-07-31T12:50:40.000Z</time>
      </trkpt>
      <trkpt lat="45.24967" lon="5.64907">
        <ele>202.3</ele>
        <time>2021-07-31T12:50:42.000Z</time>
      </trkpt>
      <trkpt lat="45.24978" lon="5.64892">
        <ele>201.9</ele>
        <time>2021-07-31T12:50:44.000Z</time>
      </trkpt>
      <trkpt lat="45.2499" lon="5.64876">
        <ele>201.4</ele>
        <time>2021-07-31T12:50:46.000Z</time>
      </trkpt>
      <trkpt lat="45.25002" lon="5.64861">
        <ele>201.1</ele>
        <time>2021-07-31T12:50:48.000Z</time>
      </trkpt>
      <trkpt lat="45.25012" lon="5.64847">
        <ele>201</ele>
        <time>2021-07-31T12:50:50.000Z</time>
      </trkpt>
      <trkpt lat="45.25022" lon="5.64834">
        <ele>201</ele>
        <time>2021-07-31T12:50:52.000Z</time>
      </trkpt>
      <trkpt lat="45.25031" lon="5.64821">
        <ele>201.7</ele>
        <time>2021-07-31T12:50:54.000Z</time>
      </trkpt>
      <trkpt lat="45.2504" lon="5.64806">
        <ele>202</ele>
        <time>2021-07-31T12:50:56.000Z</time>
      </trkpt>
      <trkpt lat="45.2505" lon="5.64791">
        <ele>202</ele>
        <time>2021-07-31T12:50:58.000Z</time>
      </trkpt>
      <trkpt lat="45.25059" lon="5.64777">
        <ele>201.7</ele>
        <time>2021-07-31T12:51:00.000Z</time>
      </trkpt>
      <trkpt lat="45.25071" lon="5.64761">
        <ele>200.9</ele>
        <time>2021-07-31T12:51:02.000Z</time>
      </trkpt>
      <trkpt lat="45.25083" lon="5.64746">
        <ele>200.1</ele>
        <time>2021-07-31T12:51:04.000Z</time>
      </trkpt>
      <trkpt lat="45.25095" lon="5.64733">
        <ele>200</ele>
        <time>2021-07-31T12:51:06.000Z</time>
      </trkpt>
      <trkpt lat="45.25105" lon="5.64721">
        <ele>200</ele>
        <time>2021-07-31T12:51:08.000Z</time>
      </trkpt>
      <trkpt lat="45.25115" lon="5.64707">
        <ele>200.2</ele>
        <time>2021-07-31T12:51:10.000Z</time>
      </trkpt>
      <trkpt lat="45.25125" lon="5.64691">
        <ele>200.4</ele>
        <time>2021-07-31T12:51:12.000Z</time>
      </trkpt>
      <trkpt lat="45.25134" lon="5.64679">
        <ele>200.7</ele>
        <time>2021-07-31T12:51:14.000Z</time>
      </trkpt>
      <trkpt lat="45.25145" lon="5.64667">
        <ele>201</ele>
        <time>2021-07-31T12:51:16.000Z</time>
      </trkpt>
      <trkpt lat="45.25157" lon="5.64652">
        <ele>201.1</ele>
        <time>2021-07-31T12:51:18.000Z</time>
      </trkpt>
      <trkpt lat="45.25168" lon="5.64637">
        <ele>201.4</ele>
        <time>2021-07-31T12:51:20.000Z</time>
      </trkpt>
      <trkpt lat="45.2518" lon="5.64624">
        <ele>201.8</ele>
        <time>2021-07-31T12:51:22.000Z</time>
      </trkpt>
      <trkpt lat="45.25191" lon="5.64611">
        <ele>202.1</ele>
        <time>2021-07-31T12:51:24.000Z</time>
      </trkpt>
      <trkpt lat="45.25201" lon="5.64596">
        <ele>202.3</ele>
        <time>2021-07-31T12:51:26.000Z</time>
      </trkpt>
      <trkpt lat="45.2521" lon="5.64584">
        <ele>202.5</ele>
        <time>2021-07-31T12:51:28.000Z</time>
      </trkpt>
      <trkpt lat="45.25219" lon="5.6457">
        <ele>202.2</ele>
        <time>2021-07-31T12:51:30.000Z</time>
      </trkpt>
      <trkpt lat="45.25227" lon="5.64559">
        <ele>202</ele>
        <time>2021-07-31T12:51:32.000Z</time>
      </trkpt>
      <trkpt lat="45.25237" lon="5.64545">
        <ele>201.8</ele>
        <time>2021-07-31T12:51:34.000Z</time>
      </trkpt>
      <trkpt lat="45.2525" lon="5.64529">
        <ele>201.7</ele>
        <time>2021-07-31T12:51:36.000Z</time>
      </trkpt>
      <trkpt lat="45.25261" lon="5.64515">
        <ele>201.3</ele>
        <time>2021-07-31T12:51:38.000Z</time>
      </trkpt>
      <trkpt lat="45.25271" lon="5.64503">
        <ele>201.1</ele>
        <time>2021-07-31T12:51:40.000Z</time>
      </trkpt>
      <trkpt lat="45.25283" lon="5.6449">
        <ele>201</ele>
        <time>2021-07-31T12:51:42.000Z</time>
      </trkpt>
      <trkpt lat="45.25295" lon="5.64474">
        <ele>200.8</ele>
        <time>2021-07-31T12:51:44.000Z</time>
      </trkpt>
      <trkpt lat="45.25306" lon="5.64459">
        <ele>200.5</ele>
        <time>2021-07-31T12:51:46.000Z</time>
      </trkpt>
      <trkpt lat="45.25317" lon="5.64445">
        <ele>200.1</ele>
        <time>2021-07-31T12:51:48.000Z</time>
      </trkpt>
      <trkpt lat="45.25328" lon="5.6443">
        <ele>199.5</ele>
        <time>2021-07-31T12:51:50.000Z</time>
      </trkpt>
      <trkpt lat="45.25337" lon="5.64417">
        <ele>199.1</ele>
        <time>2021-07-31T12:51:52.000Z</time>
      </trkpt>
      <trkpt lat="45.25348" lon="5.64404">
        <ele>199.4</ele>
        <time>2021-07-31T12:51:54.000Z</time>
      </trkpt>
      <trkpt lat="45.25359" lon="5.6439">
        <ele>199.5</ele>
        <time>2021-07-31T12:51:56.000Z</time>
      </trkpt>
      <trkpt lat="45.25369" lon="5.64378">
        <ele>199.5</ele>
        <time>2021-07-31T12:51:58.000Z</time>
      </trkpt>
      <trkpt lat="45.25381" lon="5.64364">
        <ele>199.3</ele>
        <time>2021-07-31T12:52:00.000Z</time>
      </trkpt>
      <trkpt lat="45.2539" lon="5.64349">
        <ele>199</ele>
        <time>2021-07-31T12:52:02.000Z</time>
      </trkpt>
      <trkpt lat="45.25399" lon="5.64334">
        <ele>198.4</ele>
        <time>2021-07-31T12:52:04.000Z</time>
      </trkpt>
      <trkpt lat="45.2541" lon="5.6432">
        <ele>198.3</ele>
        <time>2021-07-31T12:52:06.000Z</time>
      </trkpt>
      <trkpt lat="45.25419" lon="5.64305">
        <ele>198.4</ele>
        <time>2021-07-31T12:52:08.000Z</time>
      </trkpt>
      <trkpt lat="45.25428" lon="5.6429">
        <ele>198.7</ele>
        <time>2021-07-31T12:52:10.000Z</time>
      </trkpt>
      <trkpt lat="45.25436" lon="5.64275">
        <ele>199</ele>
        <time>2021-07-31T12:52:12.000Z</time>
      </trkpt>
      <trkpt lat="45.25446" lon="5.64261">
        <ele>199.3</ele>
        <time>2021-07-31T12:52:14.000Z</time>
      </trkpt>
      <trkpt lat="45.25454" lon="5.64244">
        <ele>199.6</ele>
        <time>2021-07-31T12:52:16.000Z</time>
      </trkpt>
      <trkpt lat="45.25463" lon="5.64227">
        <ele>200.2</ele>
        <time>2021-07-31T12:52:18.000Z</time>
      </trkpt>
      <trkpt lat="45.25473" lon="5.6421">
        <ele>200.8</ele>
        <time>2021-07-31T12:52:20.000Z</time>
      </trkpt>
      <trkpt lat="45.25483" lon="5.64194">
        <ele>201.3</ele>
        <time>2021-07-31T12:52:22.000Z</time>
      </trkpt>
      <trkpt lat="45.25492" lon="5.6418">
        <ele>201.7</ele>
        <time>2021-07-31T12:52:24.000Z</time>
      </trkpt>
      <trkpt lat="45.255" lon="5.64162">
        <ele>202</ele>
        <time>2021-07-31T12:52:26.000Z</time>
      </trkpt>
      <trkpt lat="45.25507" lon="5.64146">
        <ele>201.8</ele>
        <time>2021-07-31T12:52:28.000Z</time>
      </trkpt>
      <trkpt lat="45.25516" lon="5.64128">
        <ele>201.6</ele>
        <time>2021-07-31T12:52:30.000Z</time>
      </trkpt>
      <trkpt lat="45.25523" lon="5.6411">
        <ele>201.5</ele>
        <time>2021-07-31T12:52:32.000Z</time>
      </trkpt>
      <trkpt lat="45.25531" lon="5.64093">
        <ele>201.3</ele>
        <time>2021-07-31T12:52:34.000Z</time>
      </trkpt>
      <trkpt lat="45.25538" lon="5.64077">
        <ele>201.1</ele>
        <time>2021-07-31T12:52:36.000Z</time>
      </trkpt>
      <trkpt lat="45.25547" lon="5.6406">
        <ele>200.7</ele>
        <time>2021-07-31T12:52:38.000Z</time>
      </trkpt>
      <trkpt lat="45.25554" lon="5.64041">
        <ele>200.4</ele>
        <time>2021-07-31T12:52:40.000Z</time>
      </trkpt>
      <trkpt lat="45.25561" lon="5.64023">
        <ele>200</ele>
        <time>2021-07-31T12:52:42.000Z</time>
      </trkpt>
      <trkpt lat="45.25568" lon="5.64005">
        <ele>199.6</ele>
        <time>2021-07-31T12:52:44.000Z</time>
      </trkpt>
      <trkpt lat="45.25577" lon="5.63988">
        <ele>199.6</ele>
        <time>2021-07-31T12:52:46.000Z</time>
      </trkpt>
      <trkpt lat="45.25584" lon="5.6397">
        <ele>200.1</ele>
        <time>2021-07-31T12:52:48.000Z</time>
      </trkpt>
      <trkpt lat="45.2559" lon="5.63951">
        <ele>200.8</ele>
        <time>2021-07-31T12:52:50.000Z</time>
      </trkpt>
      <trkpt lat="45.25597" lon="5.63933">
        <ele>201.4</ele>
        <time>2021-07-31T12:52:52.000Z</time>
      </trkpt>
      <trkpt lat="45.25604" lon="5.63915">
        <ele>201.8</ele>
        <time>2021-07-31T12:52:54.000Z</time>
      </trkpt>
      <trkpt lat="45.25611" lon="5.63897">
        <ele>201.6</ele>
        <time>2021-07-31T12:52:56.000Z</time>
      </trkpt>
      <trkpt lat="45.25621" lon="5.63879">
        <ele>201.3</ele>
        <time>2021-07-31T12:52:58.000Z</time>
      </trkpt>
      <trkpt lat="45.2563" lon="5.63863">
        <ele>201.1</ele>
        <time>2021-07-31T12:53:00.000Z</time>
      </trkpt>
      <trkpt lat="45.25639" lon="5.63847">
        <ele>200.8</ele>
        <time>2021-07-31T12:53:02.000Z</time>
      </trkpt>
      <trkpt lat="45.25648" lon="5.63833">
        <ele>200.5</ele>
        <time>2021-07-31T12:53:04.000Z</time>
      </trkpt>
      <trkpt lat="45.2566" lon="5.63819">
        <ele>200.7</ele>
        <time>2021-07-31T12:53:06.000Z</time>
      </trkpt>
      <trkpt lat="45.25671" lon="5.63807">
        <ele>200.8</ele>
        <time>2021-07-31T12:53:08.000Z</time>
      </trkpt>
      <trkpt lat="45.25681" lon="5.63792">
        <ele>200.9</ele>
        <time>2021-07-31T12:53:10.000Z</time>
      </trkpt>
      <trkpt lat="45.25691" lon="5.63776">
        <ele>200.9</ele>
        <time>2021-07-31T12:53:12.000Z</time>
      </trkpt>
      <trkpt lat="45.25701" lon="5.63762">
        <ele>200.7</ele>
        <time>2021-07-31T12:53:14.000Z</time>
      </trkpt>
      <trkpt lat="45.2571" lon="5.63746">
        <ele>200.4</ele>
        <time>2021-07-31T12:53:16.000Z</time>
      </trkpt>
      <trkpt lat="45.25721" lon="5.63731">
        <ele>199.9</ele>
        <time>2021-07-31T12:53:18.000Z</time>
      </trkpt>
      <trkpt lat="45.25732" lon="5.63718">
        <ele>199.5</ele>
        <time>2021-07-31T12:53:20.000Z</time>
      </trkpt>
      <trkpt lat="45.25744" lon="5.63705">
        <ele>199.3</ele>
        <time>2021-07-31T12:53:22.000Z</time>
      </trkpt>
      <trkpt lat="45.25754" lon="5.63691">
        <ele>199.4</ele>
        <time>2021-07-31T12:53:24.000Z</time>
      </trkpt>
      <trkpt lat="45.25765" lon="5.63679">
        <ele>199.4</ele>
        <time>2021-07-31T12:53:26.000Z</time>
      </trkpt>
      <trkpt lat="45.25777" lon="5.63666">
        <ele>199.4</ele>
        <time>2021-07-31T12:53:28.000Z</time>
      </trkpt>
      <trkpt lat="45.25788" lon="5.63653">
        <ele>199.3</ele>
        <time>2021-07-31T12:53:30.000Z</time>
      </trkpt>
      <trkpt lat="45.25799" lon="5.63639">
        <ele>199.4</ele>
        <time>2021-07-31T12:53:32.000Z</time>
      </trkpt>
      <trkpt lat="45.25809" lon="5.63625">
        <ele>199.6</ele>
        <time>2021-07-31T12:53:34.000Z</time>
      </trkpt>
      <trkpt lat="45.25819" lon="5.63611">
        <ele>200</ele>
        <time>2021-07-31T12:53:36.000Z</time>
      </trkpt>
      <trkpt lat="45.25828" lon="5.63599">
        <ele>200.4</ele>
        <time>2021-07-31T12:53:38.000Z</time>
      </trkpt>
      <trkpt lat="45.2584" lon="5.63586">
        <ele>200.7</ele>
        <time>2021-07-31T12:53:40.000Z</time>
      </trkpt>
      <trkpt lat="45.25852" lon="5.63574">
        <ele>200.6</ele>
        <time>2021-07-31T12:53:42.000Z</time>
      </trkpt>
      <trkpt lat="45.25863" lon="5.63562">
        <ele>200.4</ele>
        <time>2021-07-31T12:53:44.000Z</time>
      </trkpt>
      <trkpt lat="45.25875" lon="5.63549">
        <ele>200.2</ele>
        <time>2021-07-31T12:53:46.000Z</time>
      </trkpt>
      <trkpt lat="45.25887" lon="5.63536">
        <ele>200.1</ele>
        <time>2021-07-31T12:53:48.000Z</time>
      </trkpt>
      <trkpt lat="45.25898" lon="5.63523">
        <ele>200</ele>
        <time>2021-07-31T12:53:50.000Z</time>
      </trkpt>
      <trkpt lat="45.2591" lon="5.63508">
        <ele>200</ele>
        <time>2021-07-31T12:53:52.000Z</time>
      </trkpt>
      <trkpt lat="45.25921" lon="5.63494">
        <ele>200.5</ele>
        <time>2021-07-31T12:53:54.000Z</time>
      </trkpt>
      <trkpt lat="45.25931" lon="5.63481">
        <ele>201.5</ele>
        <time>2021-07-31T12:53:56.000Z</time>
      </trkpt>
      <trkpt lat="45.25942" lon="5.63473">
        <ele>202</ele>
        <time>2021-07-31T12:53:58.000Z</time>
      </trkpt>
      <trkpt lat="45.25952" lon="5.6346">
        <ele>202.7</ele>
        <time>2021-07-31T12:54:00.000Z</time>
      </trkpt>
      <trkpt lat="45.25964" lon="5.63444">
        <ele>203.5</ele>
        <time>2021-07-31T12:54:02.000Z</time>
      </trkpt>
      <trkpt lat="45.25974" lon="5.6343">
        <ele>204</ele>
        <time>2021-07-31T12:54:04.000Z</time>
      </trkpt>
      <trkpt lat="45.25986" lon="5.63415">
        <ele>204.3</ele>
        <time>2021-07-31T12:54:06.000Z</time>
      </trkpt>
      <trkpt lat="45.25997" lon="5.63403">
        <ele>203.9</ele>
        <time>2021-07-31T12:54:08.000Z</time>
      </trkpt>
      <trkpt lat="45.26008" lon="5.6339">
        <ele>203.2</ele>
        <time>2021-07-31T12:54:10.000Z</time>
      </trkpt>
      <trkpt lat="45.26019" lon="5.63377">
        <ele>202.5</ele>
        <time>2021-07-31T12:54:12.000Z</time>
      </trkpt>
      <trkpt lat="45.2603" lon="5.63361">
        <ele>201.8</ele>
        <time>2021-07-31T12:54:14.000Z</time>
      </trkpt>
      <trkpt lat="45.2604" lon="5.63347">
        <ele>201.1</ele>
        <time>2021-07-31T12:54:16.000Z</time>
      </trkpt>
      <trkpt lat="45.26051" lon="5.63333">
        <ele>200.5</ele>
        <time>2021-07-31T12:54:18.000Z</time>
      </trkpt>
      <trkpt lat="45.26063" lon="5.63321">
        <ele>200.1</ele>
        <time>2021-07-31T12:54:20.000Z</time>
      </trkpt>
      <trkpt lat="45.26073" lon="5.63309">
        <ele>199.7</ele>
        <time>2021-07-31T12:54:22.000Z</time>
      </trkpt>
      <trkpt lat="45.26084" lon="5.63296">
        <ele>199.5</ele>
        <time>2021-07-31T12:54:24.000Z</time>
      </trkpt>
      <trkpt lat="45.26095" lon="5.63283">
        <ele>199.8</ele>
        <time>2021-07-31T12:54:26.000Z</time>
      </trkpt>
      <trkpt lat="45.26105" lon="5.63269">
        <ele>200.1</ele>
        <time>2021-07-31T12:54:28.000Z</time>
      </trkpt>
      <trkpt lat="45.26115" lon="5.63254">
        <ele>200.3</ele>
        <time>2021-07-31T12:54:30.000Z</time>
      </trkpt>
      <trkpt lat="45.26124" lon="5.6324">
        <ele>200.5</ele>
        <time>2021-07-31T12:54:32.000Z</time>
      </trkpt>
      <trkpt lat="45.26135" lon="5.63227">
        <ele>200.6</ele>
        <time>2021-07-31T12:54:34.000Z</time>
      </trkpt>
      <trkpt lat="45.26145" lon="5.63212">
        <ele>200.7</ele>
        <time>2021-07-31T12:54:36.000Z</time>
      </trkpt>
      <trkpt lat="45.26156" lon="5.63199">
        <ele>200.9</ele>
        <time>2021-07-31T12:54:38.000Z</time>
      </trkpt>
      <trkpt lat="45.26167" lon="5.63187">
        <ele>201</ele>
        <time>2021-07-31T12:54:40.000Z</time>
      </trkpt>
      <trkpt lat="45.26179" lon="5.63176">
        <ele>201.2</ele>
        <time>2021-07-31T12:54:42.000Z</time>
      </trkpt>
      <trkpt lat="45.26192" lon="5.63162">
        <ele>201.2</ele>
        <time>2021-07-31T12:54:44.000Z</time>
      </trkpt>
      <trkpt lat="45.26202" lon="5.63148">
        <ele>201.1</ele>
        <time>2021-07-31T12:54:46.000Z</time>
      </trkpt>
      <trkpt lat="45.26213" lon="5.63133">
        <ele>200.9</ele>
        <time>2021-07-31T12:54:48.000Z</time>
      </trkpt>
      <trkpt lat="45.26224" lon="5.63119">
        <ele>200.5</ele>
        <time>2021-07-31T12:54:50.000Z</time>
      </trkpt>
      <trkpt lat="45.26235" lon="5.63107">
        <ele>200.1</ele>
        <time>2021-07-31T12:54:52.000Z</time>
      </trkpt>
      <trkpt lat="45.26247" lon="5.63092">
        <ele>199.3</ele>
        <time>2021-07-31T12:54:54.000Z</time>
      </trkpt>
      <trkpt lat="45.26257" lon="5.63077">
        <ele>198.9</ele>
        <time>2021-07-31T12:54:56.000Z</time>
      </trkpt>
      <trkpt lat="45.26268" lon="5.63064">
        <ele>198.8</ele>
        <time>2021-07-31T12:54:58.000Z</time>
      </trkpt>
      <trkpt lat="45.2628" lon="5.63051">
        <ele>198.6</ele>
        <time>2021-07-31T12:55:00.000Z</time>
      </trkpt>
      <trkpt lat="45.26291" lon="5.63038">
        <ele>198.5</ele>
        <time>2021-07-31T12:55:02.000Z</time>
      </trkpt>
      <trkpt lat="45.26301" lon="5.63024">
        <ele>198.4</ele>
        <time>2021-07-31T12:55:04.000Z</time>
      </trkpt>
      <trkpt lat="45.26311" lon="5.6301">
        <ele>198.3</ele>
        <time>2021-07-31T12:55:06.000Z</time>
      </trkpt>
      <trkpt lat="45.26323" lon="5.62996">
        <ele>198.2</ele>
        <time>2021-07-31T12:55:08.000Z</time>
      </trkpt>
      <trkpt lat="45.26334" lon="5.62982">
        <ele>198.4</ele>
        <time>2021-07-31T12:55:10.000Z</time>
      </trkpt>
      <trkpt lat="45.26345" lon="5.6297">
        <ele>198.6</ele>
        <time>2021-07-31T12:55:12.000Z</time>
      </trkpt>
      <trkpt lat="45.26356" lon="5.62956">
        <ele>198.7</ele>
        <time>2021-07-31T12:55:14.000Z</time>
      </trkpt>
      <trkpt lat="45.26366" lon="5.62941">
        <ele>198.8</ele>
        <time>2021-07-31T12:55:16.000Z</time>
      </trkpt>
      <trkpt lat="45.26377" lon="5.62928">
        <ele>198.8</ele>
        <time>2021-07-31T12:55:18.000Z</time>
      </trkpt>
      <trkpt lat="45.26389" lon="5.62913">
        <ele>198.6</ele>
        <time>2021-07-31T12:55:20.000Z</time>
      </trkpt>
      <trkpt lat="45.26401" lon="5.62899">
        <ele>198.3</ele>
        <time>2021-07-31T12:55:22.000Z</time>
      </trkpt>
      <trkpt lat="45.26411" lon="5.62884">
        <ele>198.1</ele>
        <time>2021-07-31T12:55:24.000Z</time>
      </trkpt>
      <trkpt lat="45.26422" lon="5.62871">
        <ele>198</ele>
        <time>2021-07-31T12:55:26.000Z</time>
      </trkpt>
      <trkpt lat="45.26433" lon="5.62859">
        <ele>197.9</ele>
        <time>2021-07-31T12:55:28.000Z</time>
      </trkpt>
      <trkpt lat="45.26444" lon="5.62846">
        <ele>197.8</ele>
        <time>2021-07-31T12:55:30.000Z</time>
      </trkpt>
      <trkpt lat="45.26455" lon="5.62833">
        <ele>197.6</ele>
        <time>2021-07-31T12:55:32.000Z</time>
      </trkpt>
      <trkpt lat="45.26466" lon="5.6282">
        <ele>197.6</ele>
        <time>2021-07-31T12:55:34.000Z</time>
      </trkpt>
      <trkpt lat="45.26479" lon="5.62811">
        <ele>197.6</ele>
        <time>2021-07-31T12:55:36.000Z</time>
      </trkpt>
      <trkpt lat="45.26489" lon="5.62798">
        <ele>197.6</ele>
        <time>2021-07-31T12:55:38.000Z</time>
      </trkpt>
      <trkpt lat="45.26498" lon="5.62787">
        <ele>197.6</ele>
        <time>2021-07-31T12:55:40.000Z</time>
      </trkpt>
      <trkpt lat="45.26509" lon="5.62776">
        <ele>198</ele>
        <time>2021-07-31T12:55:42.000Z</time>
      </trkpt>
      <trkpt lat="45.26521" lon="5.62765">
        <ele>198.5</ele>
        <time>2021-07-31T12:55:44.000Z</time>
      </trkpt>
      <trkpt lat="45.26533" lon="5.62753">
        <ele>199.1</ele>
        <time>2021-07-31T12:55:46.000Z</time>
      </trkpt>
      <trkpt lat="45.26546" lon="5.6274">
        <ele>199.7</ele>
        <time>2021-07-31T12:55:48.000Z</time>
      </trkpt>
      <trkpt lat="45.26558" lon="5.62729">
        <ele>200.2</ele>
        <time>2021-07-31T12:55:50.000Z</time>
      </trkpt>
      <trkpt lat="45.26571" lon="5.6272">
        <ele>200.6</ele>
        <time>2021-07-31T12:55:52.000Z</time>
      </trkpt>
      <trkpt lat="45.26584" lon="5.6271">
        <ele>200.9</ele>
        <time>2021-07-31T12:55:54.000Z</time>
      </trkpt>
      <trkpt lat="45.26597" lon="5.62699">
        <ele>200.1</ele>
        <time>2021-07-31T12:55:56.000Z</time>
      </trkpt>
      <trkpt lat="45.26609" lon="5.62688">
        <ele>199.3</ele>
        <time>2021-07-31T12:55:58.000Z</time>
      </trkpt>
      <trkpt lat="45.2662" lon="5.62676">
        <ele>198.4</ele>
        <time>2021-07-31T12:56:00.000Z</time>
      </trkpt>
      <trkpt lat="45.26633" lon="5.62665">
        <ele>197.5</ele>
        <time>2021-07-31T12:56:02.000Z</time>
      </trkpt>
      <trkpt lat="45.26645" lon="5.62654">
        <ele>197</ele>
        <time>2021-07-31T12:56:04.000Z</time>
      </trkpt>
      <trkpt lat="45.26657" lon="5.6264">
        <ele>197</ele>
        <time>2021-07-31T12:56:06.000Z</time>
      </trkpt>
      <trkpt lat="45.26669" lon="5.62627">
        <ele>197.4</ele>
        <time>2021-07-31T12:56:08.000Z</time>
      </trkpt>
      <trkpt lat="45.2668" lon="5.62613">
        <ele>197.7</ele>
        <time>2021-07-31T12:56:10.000Z</time>
      </trkpt>
      <trkpt lat="45.2669" lon="5.62601">
        <ele>198</ele>
        <time>2021-07-31T12:56:12.000Z</time>
      </trkpt>
      <trkpt lat="45.26702" lon="5.6259">
        <ele>198.1</ele>
        <time>2021-07-31T12:56:14.000Z</time>
      </trkpt>
      <trkpt lat="45.26714" lon="5.62577">
        <ele>197.8</ele>
        <time>2021-07-31T12:56:16.000Z</time>
      </trkpt>
      <trkpt lat="45.26728" lon="5.62564">
        <ele>197.5</ele>
        <time>2021-07-31T12:56:18.000Z</time>
      </trkpt>
      <trkpt lat="45.26741" lon="5.62552">
        <ele>197.4</ele>
        <time>2021-07-31T12:56:20.000Z</time>
      </trkpt>
      <trkpt lat="45.26752" lon="5.62541">
        <ele>197.5</ele>
        <time>2021-07-31T12:56:22.000Z</time>
      </trkpt>
      <trkpt lat="45.26764" lon="5.62531">
        <ele>197.5</ele>
        <time>2021-07-31T12:56:24.000Z</time>
      </trkpt>
      <trkpt lat="45.26776" lon="5.62519">
        <ele>197.5</ele>
        <time>2021-07-31T12:56:26.000Z</time>
      </trkpt>
      <trkpt lat="45.26787" lon="5.62509">
        <ele>197.4</ele>
        <time>2021-07-31T12:56:28.000Z</time>
      </trkpt>
      <trkpt lat="45.26801" lon="5.62496">
        <ele>197.2</ele>
        <time>2021-07-31T12:56:30.000Z</time>
      </trkpt>
      <trkpt lat="45.26813" lon="5.62484">
        <ele>197.2</ele>
        <time>2021-07-31T12:56:32.000Z</time>
      </trkpt>
      <trkpt lat="45.26824" lon="5.62477">
        <ele>197.2</ele>
        <time>2021-07-31T12:56:34.000Z</time>
      </trkpt>
      <trkpt lat="45.26837" lon="5.62465">
        <ele>197.6</ele>
        <time>2021-07-31T12:56:36.000Z</time>
      </trkpt>
      <trkpt lat="45.26849" lon="5.62455">
        <ele>197.7</ele>
        <time>2021-07-31T12:56:38.000Z</time>
      </trkpt>
      <trkpt lat="45.26862" lon="5.62443">
        <ele>197.8</ele>
        <time>2021-07-31T12:56:40.000Z</time>
      </trkpt>
      <trkpt lat="45.26874" lon="5.62432">
        <ele>197.9</ele>
        <time>2021-07-31T12:56:42.000Z</time>
      </trkpt>
      <trkpt lat="45.26886" lon="5.6242">
        <ele>197.9</ele>
        <time>2021-07-31T12:56:44.000Z</time>
      </trkpt>
      <trkpt lat="45.26899" lon="5.62408">
        <ele>197.6</ele>
        <time>2021-07-31T12:56:46.000Z</time>
      </trkpt>
      <trkpt lat="45.26911" lon="5.62397">
        <ele>197.4</ele>
        <time>2021-07-31T12:56:48.000Z</time>
      </trkpt>
      <trkpt lat="45.26923" lon="5.62387">
        <ele>197.5</ele>
        <time>2021-07-31T12:56:50.000Z</time>
      </trkpt>
      <trkpt lat="45.26935" lon="5.62378">
        <ele>197.9</ele>
        <time>2021-07-31T12:56:52.000Z</time>
      </trkpt>
      <trkpt lat="45.26947" lon="5.6237">
        <ele>198.3</ele>
        <time>2021-07-31T12:56:54.000Z</time>
      </trkpt>
      <trkpt lat="45.26959" lon="5.62365">
        <ele>198.5</ele>
        <time>2021-07-31T12:56:56.000Z</time>
      </trkpt>
      <trkpt lat="45.26975" lon="5.62355">
        <ele>198.8</ele>
        <time>2021-07-31T12:56:58.000Z</time>
      </trkpt>
      <trkpt lat="45.26988" lon="5.62348">
        <ele>199</ele>
        <time>2021-07-31T12:57:00.000Z</time>
      </trkpt>
      <trkpt lat="45.27002" lon="5.62339">
        <ele>199</ele>
        <time>2021-07-31T12:57:02.000Z</time>
      </trkpt>
      <trkpt lat="45.27014" lon="5.62333">
        <ele>198.8</ele>
        <time>2021-07-31T12:57:04.000Z</time>
      </trkpt>
      <trkpt lat="45.27026" lon="5.62326">
        <ele>198.4</ele>
        <time>2021-07-31T12:57:06.000Z</time>
      </trkpt>
      <trkpt lat="45.2704" lon="5.62316">
        <ele>197.9</ele>
        <time>2021-07-31T12:57:08.000Z</time>
      </trkpt>
      <trkpt lat="45.27055" lon="5.62306">
        <ele>197.5</ele>
        <time>2021-07-31T12:57:10.000Z</time>
      </trkpt>
      <trkpt lat="45.2707" lon="5.623">
        <ele>197.2</ele>
        <time>2021-07-31T12:57:12.000Z</time>
      </trkpt>
      <trkpt lat="45.27085" lon="5.62294">
        <ele>197</ele>
        <time>2021-07-31T12:57:14.000Z</time>
      </trkpt>
      <trkpt lat="45.27096" lon="5.62287">
        <ele>196.9</ele>
        <time>2021-07-31T12:57:16.000Z</time>
      </trkpt>
      <trkpt lat="45.27107" lon="5.62277">
        <ele>196.7</ele>
        <time>2021-07-31T12:57:18.000Z</time>
      </trkpt>
      <trkpt lat="45.27119" lon="5.62265">
        <ele>196.6</ele>
        <time>2021-07-31T12:57:20.000Z</time>
      </trkpt>
      <trkpt lat="45.27133" lon="5.62252">
        <ele>196.6</ele>
        <time>2021-07-31T12:57:22.000Z</time>
      </trkpt>
      <trkpt lat="45.27148" lon="5.62242">
        <ele>196.7</ele>
        <time>2021-07-31T12:57:24.000Z</time>
      </trkpt>
      <trkpt lat="45.27162" lon="5.62234">
        <ele>196.8</ele>
        <time>2021-07-31T12:57:26.000Z</time>
      </trkpt>
      <trkpt lat="45.27175" lon="5.62228">
        <ele>196.6</ele>
        <time>2021-07-31T12:57:28.000Z</time>
      </trkpt>
      <trkpt lat="45.27188" lon="5.62224">
        <ele>196.4</ele>
        <time>2021-07-31T12:57:30.000Z</time>
      </trkpt>
      <trkpt lat="45.27199" lon="5.62222">
        <ele>196.3</ele>
        <time>2021-07-31T12:57:32.000Z</time>
      </trkpt>
      <trkpt lat="45.27209" lon="5.62218">
        <ele>196.2</ele>
        <time>2021-07-31T12:57:34.000Z</time>
      </trkpt>
      <trkpt lat="45.27223" lon="5.62214">
        <ele>196.1</ele>
        <time>2021-07-31T12:57:37.000Z</time>
      </trkpt>
      <trkpt lat="45.27232" lon="5.62211">
        <ele>196.1</ele>
        <time>2021-07-31T12:57:39.000Z</time>
      </trkpt>
      <trkpt lat="45.27242" lon="5.62205">
        <ele>196.1</ele>
        <time>2021-07-31T12:57:41.000Z</time>
      </trkpt>
      <trkpt lat="45.27252" lon="5.62199">
        <ele>196.3</ele>
        <time>2021-07-31T12:57:43.000Z</time>
      </trkpt>
      <trkpt lat="45.27263" lon="5.62195">
        <ele>196.7</ele>
        <time>2021-07-31T12:57:45.000Z</time>
      </trkpt>
      <trkpt lat="45.27274" lon="5.62189">
        <ele>197.2</ele>
        <time>2021-07-31T12:57:47.000Z</time>
      </trkpt>
      <trkpt lat="45.27287" lon="5.62184">
        <ele>197.7</ele>
        <time>2021-07-31T12:57:49.000Z</time>
      </trkpt>
      <trkpt lat="45.27298" lon="5.62175">
        <ele>198.4</ele>
        <time>2021-07-31T12:57:51.000Z</time>
      </trkpt>
      <trkpt lat="45.27311" lon="5.62168">
        <ele>199.1</ele>
        <time>2021-07-31T12:57:53.000Z</time>
      </trkpt>
      <trkpt lat="45.27325" lon="5.6216">
        <ele>199.3</ele>
        <time>2021-07-31T12:57:55.000Z</time>
      </trkpt>
      <trkpt lat="45.27339" lon="5.62156">
        <ele>199.3</ele>
        <time>2021-07-31T12:57:57.000Z</time>
      </trkpt>
      <trkpt lat="45.27355" lon="5.62153">
        <ele>199.1</ele>
        <time>2021-07-31T12:57:59.000Z</time>
      </trkpt>
      <trkpt lat="45.27369" lon="5.62151">
        <ele>198.9</ele>
        <time>2021-07-31T12:58:01.000Z</time>
      </trkpt>
      <trkpt lat="45.27383" lon="5.6215">
        <ele>198.8</ele>
        <time>2021-07-31T12:58:03.000Z</time>
      </trkpt>
      <trkpt lat="45.27397" lon="5.62147">
        <ele>198.8</ele>
        <time>2021-07-31T12:58:05.000Z</time>
      </trkpt>
      <trkpt lat="45.27412" lon="5.62147">
        <ele>198.8</ele>
        <time>2021-07-31T12:58:07.000Z</time>
      </trkpt>
      <trkpt lat="45.27425" lon="5.62144">
        <ele>198.8</ele>
        <time>2021-07-31T12:58:09.000Z</time>
      </trkpt>
      <trkpt lat="45.2744" lon="5.6214">
        <ele>198.9</ele>
        <time>2021-07-31T12:58:11.000Z</time>
      </trkpt>
      <trkpt lat="45.27454" lon="5.62136">
        <ele>198.9</ele>
        <time>2021-07-31T12:58:13.000Z</time>
      </trkpt>
      <trkpt lat="45.27469" lon="5.62134">
        <ele>199</ele>
        <time>2021-07-31T12:58:15.000Z</time>
      </trkpt>
      <trkpt lat="45.27485" lon="5.62134">
        <ele>199.1</ele>
        <time>2021-07-31T12:58:17.000Z</time>
      </trkpt>
      <trkpt lat="45.27498" lon="5.62136">
        <ele>199.2</ele>
        <time>2021-07-31T12:58:19.000Z</time>
      </trkpt>
      <trkpt lat="45.27513" lon="5.62137">
        <ele>199.6</ele>
        <time>2021-07-31T12:58:21.000Z</time>
      </trkpt>
      <trkpt lat="45.27527" lon="5.6214">
        <ele>200.1</ele>
        <time>2021-07-31T12:58:23.000Z</time>
      </trkpt>
      <trkpt lat="45.2754" lon="5.62143">
        <ele>200.5</ele>
        <time>2021-07-31T12:58:25.000Z</time>
      </trkpt>
      <trkpt lat="45.27553" lon="5.62144">
        <ele>200.8</ele>
        <time>2021-07-31T12:58:27.000Z</time>
      </trkpt>
      <trkpt lat="45.27568" lon="5.62142">
        <ele>201.2</ele>
        <time>2021-07-31T12:58:29.000Z</time>
      </trkpt>
      <trkpt lat="45.27582" lon="5.62139">
        <ele>201.6</ele>
        <time>2021-07-31T12:58:31.000Z</time>
      </trkpt>
      <trkpt lat="45.27596" lon="5.62134">
        <ele>201.8</ele>
        <time>2021-07-31T12:58:33.000Z</time>
      </trkpt>
      <trkpt lat="45.27609" lon="5.62127">
        <ele>202</ele>
        <time>2021-07-31T12:58:35.000Z</time>
      </trkpt>
      <trkpt lat="45.27624" lon="5.6212">
        <ele>202.2</ele>
        <time>2021-07-31T12:58:37.000Z</time>
      </trkpt>
      <trkpt lat="45.27638" lon="5.62114">
        <ele>202.5</ele>
        <time>2021-07-31T12:58:39.000Z</time>
      </trkpt>
      <trkpt lat="45.27652" lon="5.6211">
        <ele>202.7</ele>
        <time>2021-07-31T12:58:41.000Z</time>
      </trkpt>
      <trkpt lat="45.27667" lon="5.62106">
        <ele>202.9</ele>
        <time>2021-07-31T12:58:43.000Z</time>
      </trkpt>
      <trkpt lat="45.27682" lon="5.62103">
        <ele>202.8</ele>
        <time>2021-07-31T12:58:45.000Z</time>
      </trkpt>
      <trkpt lat="45.277" lon="5.62102">
        <ele>202.6</ele>
        <time>2021-07-31T12:58:47.000Z</time>
      </trkpt>
      <trkpt lat="45.27714" lon="5.62097">
        <ele>202.5</ele>
        <time>2021-07-31T12:58:49.000Z</time>
      </trkpt>
      <trkpt lat="45.27727" lon="5.62094">
        <ele>202.3</ele>
        <time>2021-07-31T12:58:51.000Z</time>
      </trkpt>
      <trkpt lat="45.27742" lon="5.62089">
        <ele>202.1</ele>
        <time>2021-07-31T12:58:53.000Z</time>
      </trkpt>
      <trkpt lat="45.27754" lon="5.62086">
        <ele>201.9</ele>
        <time>2021-07-31T12:58:55.000Z</time>
      </trkpt>
      <trkpt lat="45.27764" lon="5.62084">
        <ele>201.8</ele>
        <time>2021-07-31T12:58:57.000Z</time>
      </trkpt>
      <trkpt lat="45.27779" lon="5.62081">
        <ele>201.5</ele>
        <time>2021-07-31T12:58:59.000Z</time>
      </trkpt>
      <trkpt lat="45.27794" lon="5.62078">
        <ele>201.2</ele>
        <time>2021-07-31T12:59:01.000Z</time>
      </trkpt>
      <trkpt lat="45.27808" lon="5.62074">
        <ele>200.8</ele>
        <time>2021-07-31T12:59:03.000Z</time>
      </trkpt>
      <trkpt lat="45.27823" lon="5.62071">
        <ele>200.4</ele>
        <time>2021-07-31T12:59:05.000Z</time>
      </trkpt>
      <trkpt lat="45.27836" lon="5.62069">
        <ele>200.2</ele>
        <time>2021-07-31T12:59:07.000Z</time>
      </trkpt>
      <trkpt lat="45.2785" lon="5.62065">
        <ele>200.5</ele>
        <time>2021-07-31T12:59:09.000Z</time>
      </trkpt>
      <trkpt lat="45.27864" lon="5.62065">
        <ele>200.8</ele>
        <time>2021-07-31T12:59:11.000Z</time>
      </trkpt>
      <trkpt lat="45.27877" lon="5.62065">
        <ele>201.3</ele>
        <time>2021-07-31T12:59:13.000Z</time>
      </trkpt>
      <trkpt lat="45.27891" lon="5.62065">
        <ele>201.8</ele>
        <time>2021-07-31T12:59:15.000Z</time>
      </trkpt>
      <trkpt lat="45.27904" lon="5.62066">
        <ele>202.2</ele>
        <time>2021-07-31T12:59:17.000Z</time>
      </trkpt>
      <trkpt lat="45.27918" lon="5.62064">
        <ele>202.4</ele>
        <time>2021-07-31T12:59:19.000Z</time>
      </trkpt>
      <trkpt lat="45.27932" lon="5.62064">
        <ele>201.8</ele>
        <time>2021-07-31T12:59:21.000Z</time>
      </trkpt>
      <trkpt lat="45.27947" lon="5.62062">
        <ele>201.3</ele>
        <time>2021-07-31T12:59:23.000Z</time>
      </trkpt>
      <trkpt lat="45.27962" lon="5.62062">
        <ele>200.9</ele>
        <time>2021-07-31T12:59:25.000Z</time>
      </trkpt>
      <trkpt lat="45.27976" lon="5.62063">
        <ele>200.7</ele>
        <time>2021-07-31T12:59:27.000Z</time>
      </trkpt>
      <trkpt lat="45.27989" lon="5.62061">
        <ele>200.2</ele>
        <time>2021-07-31T12:59:29.000Z</time>
      </trkpt>
      <trkpt lat="45.28002" lon="5.6206">
        <ele>199.7</ele>
        <time>2021-07-31T12:59:31.000Z</time>
      </trkpt>
      <trkpt lat="45.28015" lon="5.62059">
        <ele>199.1</ele>
        <time>2021-07-31T12:59:33.000Z</time>
      </trkpt>
      <trkpt lat="45.2803" lon="5.62058">
        <ele>198.6</ele>
        <time>2021-07-31T12:59:35.000Z</time>
      </trkpt>
      <trkpt lat="45.28045" lon="5.62058">
        <ele>198</ele>
        <time>2021-07-31T12:59:37.000Z</time>
      </trkpt>
      <trkpt lat="45.2806" lon="5.62058">
        <ele>197.6</ele>
        <time>2021-07-31T12:59:39.000Z</time>
      </trkpt>
      <trkpt lat="45.28074" lon="5.62059">
        <ele>197.1</ele>
        <time>2021-07-31T12:59:41.000Z</time>
      </trkpt>
      <trkpt lat="45.28087" lon="5.62056">
        <ele>196.7</ele>
        <time>2021-07-31T12:59:43.000Z</time>
      </trkpt>
      <trkpt lat="45.281" lon="5.62054">
        <ele>196.7</ele>
        <time>2021-07-31T12:59:45.000Z</time>
      </trkpt>
      <trkpt lat="45.28115" lon="5.62053">
        <ele>196.7</ele>
        <time>2021-07-31T12:59:47.000Z</time>
      </trkpt>
      <trkpt lat="45.28128" lon="5.62051">
        <ele>196.8</ele>
        <time>2021-07-31T12:59:49.000Z</time>
      </trkpt>
      <trkpt lat="45.28141" lon="5.62049">
        <ele>196.7</ele>
        <time>2021-07-31T12:59:51.000Z</time>
      </trkpt>
      <trkpt lat="45.28155" lon="5.62045">
        <ele>196.6</ele>
        <time>2021-07-31T12:59:53.000Z</time>
      </trkpt>
      <trkpt lat="45.28168" lon="5.62042">
        <ele>196.5</ele>
        <time>2021-07-31T12:59:55.000Z</time>
      </trkpt>
      <trkpt lat="45.28182" lon="5.6204">
        <ele>196.4</ele>
        <time>2021-07-31T12:59:57.000Z</time>
      </trkpt>
      <trkpt lat="45.28194" lon="5.62037">
        <ele>196.4</ele>
        <time>2021-07-31T12:59:59.000Z</time>
      </trkpt>
      <trkpt lat="45.28208" lon="5.62034">
        <ele>196.4</ele>
        <time>2021-07-31T13:00:01.000Z</time>
      </trkpt>
      <trkpt lat="45.28221" lon="5.62033">
        <ele>196.5</ele>
        <time>2021-07-31T13:00:03.000Z</time>
      </trkpt>
      <trkpt lat="45.28235" lon="5.6203">
        <ele>196.7</ele>
        <time>2021-07-31T13:00:05.000Z</time>
      </trkpt>
      <trkpt lat="45.28248" lon="5.62027">
        <ele>197</ele>
        <time>2021-07-31T13:00:07.000Z</time>
      </trkpt>
      <trkpt lat="45.28262" lon="5.62024">
        <ele>197.2</ele>
        <time>2021-07-31T13:00:09.000Z</time>
      </trkpt>
      <trkpt lat="45.28276" lon="5.62021">
        <ele>197.3</ele>
        <time>2021-07-31T13:00:11.000Z</time>
      </trkpt>
      <trkpt lat="45.2829" lon="5.62018">
        <ele>197.5</ele>
        <time>2021-07-31T13:00:13.000Z</time>
      </trkpt>
      <trkpt lat="45.28304" lon="5.62015">
        <ele>197.6</ele>
        <time>2021-07-31T13:00:15.000Z</time>
      </trkpt>
      <trkpt lat="45.28317" lon="5.62011">
        <ele>197.7</ele>
        <time>2021-07-31T13:00:17.000Z</time>
      </trkpt>
      <trkpt lat="45.28331" lon="5.62008">
        <ele>197.8</ele>
        <time>2021-07-31T13:00:19.000Z</time>
      </trkpt>
      <trkpt lat="45.28346" lon="5.62005">
        <ele>197.9</ele>
        <time>2021-07-31T13:00:21.000Z</time>
      </trkpt>
      <trkpt lat="45.2836" lon="5.62002">
        <ele>198</ele>
        <time>2021-07-31T13:00:23.000Z</time>
      </trkpt>
      <trkpt lat="45.28374" lon="5.61999">
        <ele>197.9</ele>
        <time>2021-07-31T13:00:25.000Z</time>
      </trkpt>
      <trkpt lat="45.28387" lon="5.61996">
        <ele>197.8</ele>
        <time>2021-07-31T13:00:27.000Z</time>
      </trkpt>
      <trkpt lat="45.28401" lon="5.61994">
        <ele>197.7</ele>
        <time>2021-07-31T13:00:29.000Z</time>
      </trkpt>
      <trkpt lat="45.28417" lon="5.61992">
        <ele>197.6</ele>
        <time>2021-07-31T13:00:31.000Z</time>
      </trkpt>
      <trkpt lat="45.2843" lon="5.61989">
        <ele>197.4</ele>
        <time>2021-07-31T13:00:33.000Z</time>
      </trkpt>
      <trkpt lat="45.28444" lon="5.61986">
        <ele>197.3</ele>
        <time>2021-07-31T13:00:35.000Z</time>
      </trkpt>
      <trkpt lat="45.28459" lon="5.61983">
        <ele>197.1</ele>
        <time>2021-07-31T13:00:37.000Z</time>
      </trkpt>
      <trkpt lat="45.28473" lon="5.61981">
        <ele>196.9</ele>
        <time>2021-07-31T13:00:39.000Z</time>
      </trkpt>
      <trkpt lat="45.28487" lon="5.61978">
        <ele>196.7</ele>
        <time>2021-07-31T13:00:41.000Z</time>
      </trkpt>
      <trkpt lat="45.28501" lon="5.61975">
        <ele>196.5</ele>
        <time>2021-07-31T13:00:43.000Z</time>
      </trkpt>
      <trkpt lat="45.28514" lon="5.61972">
        <ele>196.7</ele>
        <time>2021-07-31T13:00:45.000Z</time>
      </trkpt>
      <trkpt lat="45.28528" lon="5.61969">
        <ele>197</ele>
        <time>2021-07-31T13:00:47.000Z</time>
      </trkpt>
      <trkpt lat="45.28541" lon="5.61968">
        <ele>197.3</ele>
        <time>2021-07-31T13:00:49.000Z</time>
      </trkpt>
      <trkpt lat="45.28556" lon="5.61966">
        <ele>197.7</ele>
        <time>2021-07-31T13:00:51.000Z</time>
      </trkpt>
      <trkpt lat="45.2857" lon="5.61963">
        <ele>198.1</ele>
        <time>2021-07-31T13:00:53.000Z</time>
      </trkpt>
      <trkpt lat="45.28585" lon="5.6196">
        <ele>198.5</ele>
        <time>2021-07-31T13:00:55.000Z</time>
      </trkpt>
      <trkpt lat="45.28598" lon="5.61956">
        <ele>198.7</ele>
        <time>2021-07-31T13:00:57.000Z</time>
      </trkpt>
      <trkpt lat="45.28612" lon="5.6195">
        <ele>198.8</ele>
        <time>2021-07-31T13:00:59.000Z</time>
      </trkpt>
      <trkpt lat="45.28625" lon="5.61944">
        <ele>198.8</ele>
        <time>2021-07-31T13:01:01.000Z</time>
      </trkpt>
      <trkpt lat="45.28639" lon="5.61939">
        <ele>198.9</ele>
        <time>2021-07-31T13:01:03.000Z</time>
      </trkpt>
      <trkpt lat="45.28654" lon="5.61935">
        <ele>199.1</ele>
        <time>2021-07-31T13:01:05.000Z</time>
      </trkpt>
      <trkpt lat="45.28667" lon="5.61932">
        <ele>199.2</ele>
        <time>2021-07-31T13:01:07.000Z</time>
      </trkpt>
      <trkpt lat="45.28681" lon="5.61929">
        <ele>199.4</ele>
        <time>2021-07-31T13:01:09.000Z</time>
      </trkpt>
      <trkpt lat="45.28696" lon="5.61926">
        <ele>199.7</ele>
        <time>2021-07-31T13:01:11.000Z</time>
      </trkpt>
      <trkpt lat="45.2871" lon="5.61923">
        <ele>200</ele>
        <time>2021-07-31T13:01:13.000Z</time>
      </trkpt>
      <trkpt lat="45.28723" lon="5.61919">
        <ele>200.3</ele>
        <time>2021-07-31T13:01:15.000Z</time>
      </trkpt>
      <trkpt lat="45.28738" lon="5.61916">
        <ele>200.6</ele>
        <time>2021-07-31T13:01:17.000Z</time>
      </trkpt>
      <trkpt lat="45.28752" lon="5.61914">
        <ele>200.7</ele>
        <time>2021-07-31T13:01:19.000Z</time>
      </trkpt>
      <trkpt lat="45.28766" lon="5.6191">
        <ele>200.8</ele>
        <time>2021-07-31T13:01:21.000Z</time>
      </trkpt>
      <trkpt lat="45.2878" lon="5.61907">
        <ele>200.9</ele>
        <time>2021-07-31T13:01:23.000Z</time>
      </trkpt>
      <trkpt lat="45.28794" lon="5.61904">
        <ele>201.1</ele>
        <time>2021-07-31T13:01:25.000Z</time>
      </trkpt>
      <trkpt lat="45.28808" lon="5.61901">
        <ele>201</ele>
        <time>2021-07-31T13:01:27.000Z</time>
      </trkpt>
      <trkpt lat="45.28822" lon="5.61898">
        <ele>201.1</ele>
        <time>2021-07-31T13:01:29.000Z</time>
      </trkpt>
      <trkpt lat="45.28836" lon="5.61895">
        <ele>201.1</ele>
        <time>2021-07-31T13:01:31.000Z</time>
      </trkpt>
      <trkpt lat="45.28849" lon="5.61892">
        <ele>201</ele>
        <time>2021-07-31T13:01:33.000Z</time>
      </trkpt>
      <trkpt lat="45.28864" lon="5.61888">
        <ele>200.9</ele>
        <time>2021-07-31T13:01:35.000Z</time>
      </trkpt>
      <trkpt lat="45.28877" lon="5.61885">
        <ele>201.1</ele>
        <time>2021-07-31T13:01:37.000Z</time>
      </trkpt>
      <trkpt lat="45.28891" lon="5.61881">
        <ele>201.1</ele>
        <time>2021-07-31T13:01:39.000Z</time>
      </trkpt>
      <trkpt lat="45.28907" lon="5.61877">
        <ele>201.3</ele>
        <time>2021-07-31T13:01:41.000Z</time>
      </trkpt>
      <trkpt lat="45.28921" lon="5.61874">
        <ele>201.4</ele>
        <time>2021-07-31T13:01:43.000Z</time>
      </trkpt>
      <trkpt lat="45.28936" lon="5.61871">
        <ele>201.4</ele>
        <time>2021-07-31T13:01:45.000Z</time>
      </trkpt>
      <trkpt lat="45.28951" lon="5.61868">
        <ele>201.3</ele>
        <time>2021-07-31T13:01:47.000Z</time>
      </trkpt>
      <trkpt lat="45.28965" lon="5.61865">
        <ele>201.4</ele>
        <time>2021-07-31T13:01:49.000Z</time>
      </trkpt>
      <trkpt lat="45.28979" lon="5.61859">
        <ele>201.5</ele>
        <time>2021-07-31T13:01:51.000Z</time>
      </trkpt>
      <trkpt lat="45.28993" lon="5.61856">
        <ele>201.8</ele>
        <time>2021-07-31T13:01:53.000Z</time>
      </trkpt>
      <trkpt lat="45.29007" lon="5.61851">
        <ele>201.8</ele>
        <time>2021-07-31T13:01:55.000Z</time>
      </trkpt>
      <trkpt lat="45.2902" lon="5.61848">
        <ele>201.6</ele>
        <time>2021-07-31T13:01:57.000Z</time>
      </trkpt>
      <trkpt lat="45.29035" lon="5.61845">
        <ele>201.3</ele>
        <time>2021-07-31T13:01:59.000Z</time>
      </trkpt>
      <trkpt lat="45.29049" lon="5.61841">
        <ele>201.2</ele>
        <time>2021-07-31T13:02:01.000Z</time>
      </trkpt>
      <trkpt lat="45.29064" lon="5.61836">
        <ele>201.1</ele>
        <time>2021-07-31T13:02:03.000Z</time>
      </trkpt>
      <trkpt lat="45.29079" lon="5.61837">
        <ele>200.9</ele>
        <time>2021-07-31T13:02:05.000Z</time>
      </trkpt>
      <trkpt lat="45.29092" lon="5.61837">
        <ele>200.7</ele>
        <time>2021-07-31T13:02:07.000Z</time>
      </trkpt>
      <trkpt lat="45.29107" lon="5.61834">
        <ele>200.4</ele>
        <time>2021-07-31T13:02:09.000Z</time>
      </trkpt>
      <trkpt lat="45.29122" lon="5.61831">
        <ele>200</ele>
        <time>2021-07-31T13:02:11.000Z</time>
      </trkpt>
      <trkpt lat="45.29136" lon="5.61827">
        <ele>199.6</ele>
        <time>2021-07-31T13:02:13.000Z</time>
      </trkpt>
      <trkpt lat="45.29149" lon="5.61821">
        <ele>199.3</ele>
        <time>2021-07-31T13:02:15.000Z</time>
      </trkpt>
      <trkpt lat="45.29164" lon="5.61817">
        <ele>199</ele>
        <time>2021-07-31T13:02:17.000Z</time>
      </trkpt>
      <trkpt lat="45.2918" lon="5.61813">
        <ele>198.8</ele>
        <time>2021-07-31T13:02:19.000Z</time>
      </trkpt>
      <trkpt lat="45.29196" lon="5.61811">
        <ele>198.7</ele>
        <time>2021-07-31T13:02:21.000Z</time>
      </trkpt>
      <trkpt lat="45.29211" lon="5.61809">
        <ele>198.6</ele>
        <time>2021-07-31T13:02:23.000Z</time>
      </trkpt>
      <trkpt lat="45.29227" lon="5.61806">
        <ele>198.5</ele>
        <time>2021-07-31T13:02:25.000Z</time>
      </trkpt>
      <trkpt lat="45.29242" lon="5.61802">
        <ele>198.6</ele>
        <time>2021-07-31T13:02:27.000Z</time>
      </trkpt>
      <trkpt lat="45.29257" lon="5.61796">
        <ele>198.7</ele>
        <time>2021-07-31T13:02:29.000Z</time>
      </trkpt>
      <trkpt lat="45.29271" lon="5.61791">
        <ele>198.8</ele>
        <time>2021-07-31T13:02:31.000Z</time>
      </trkpt>
      <trkpt lat="45.29285" lon="5.61786">
        <ele>198.9</ele>
        <time>2021-07-31T13:02:33.000Z</time>
      </trkpt>
      <trkpt lat="45.29299" lon="5.61781">
        <ele>198.9</ele>
        <time>2021-07-31T13:02:35.000Z</time>
      </trkpt>
      <trkpt lat="45.29313" lon="5.61774">
        <ele>199.1</ele>
        <time>2021-07-31T13:02:37.000Z</time>
      </trkpt>
      <trkpt lat="45.29328" lon="5.61771">
        <ele>199.1</ele>
        <time>2021-07-31T13:02:39.000Z</time>
      </trkpt>
      <trkpt lat="45.29342" lon="5.61769">
        <ele>199</ele>
        <time>2021-07-31T13:02:41.000Z</time>
      </trkpt>
      <trkpt lat="45.29357" lon="5.61764">
        <ele>198.9</ele>
        <time>2021-07-31T13:02:43.000Z</time>
      </trkpt>
      <trkpt lat="45.29371" lon="5.6176">
        <ele>198.8</ele>
        <time>2021-07-31T13:02:45.000Z</time>
      </trkpt>
      <trkpt lat="45.29385" lon="5.61757">
        <ele>198.6</ele>
        <time>2021-07-31T13:02:47.000Z</time>
      </trkpt>
      <trkpt lat="45.294" lon="5.61755">
        <ele>198.4</ele>
        <time>2021-07-31T13:02:49.000Z</time>
      </trkpt>
      <trkpt lat="45.29415" lon="5.61753">
        <ele>198</ele>
        <time>2021-07-31T13:02:51.000Z</time>
      </trkpt>
      <trkpt lat="45.2943" lon="5.61751">
        <ele>198.3</ele>
        <time>2021-07-31T13:02:53.000Z</time>
      </trkpt>
      <trkpt lat="45.29444" lon="5.61747">
        <ele>198.6</ele>
        <time>2021-07-31T13:02:55.000Z</time>
      </trkpt>
      <trkpt lat="45.29458" lon="5.61742">
        <ele>198.9</ele>
        <time>2021-07-31T13:02:57.000Z</time>
      </trkpt>
      <trkpt lat="45.29472" lon="5.6174">
        <ele>199.2</ele>
        <time>2021-07-31T13:02:59.000Z</time>
      </trkpt>
      <trkpt lat="45.29487" lon="5.61738">
        <ele>199.4</ele>
        <time>2021-07-31T13:03:01.000Z</time>
      </trkpt>
      <trkpt lat="45.295" lon="5.61736">
        <ele>199.7</ele>
        <time>2021-07-31T13:03:03.000Z</time>
      </trkpt>
      <trkpt lat="45.29515" lon="5.61734">
        <ele>199.5</ele>
        <time>2021-07-31T13:03:05.000Z</time>
      </trkpt>
      <trkpt lat="45.2953" lon="5.61731">
        <ele>199.4</ele>
        <time>2021-07-31T13:03:07.000Z</time>
      </trkpt>
      <trkpt lat="45.29544" lon="5.61728">
        <ele>199.4</ele>
        <time>2021-07-31T13:03:09.000Z</time>
      </trkpt>
      <trkpt lat="45.29557" lon="5.61726">
        <ele>199.3</ele>
        <time>2021-07-31T13:03:11.000Z</time>
      </trkpt>
      <trkpt lat="45.2957" lon="5.61721">
        <ele>199.3</ele>
        <time>2021-07-31T13:03:13.000Z</time>
      </trkpt>
      <trkpt lat="45.29583" lon="5.6172">
        <ele>199.4</ele>
        <time>2021-07-31T13:03:15.000Z</time>
      </trkpt>
      <trkpt lat="45.29597" lon="5.61717">
        <ele>198.6</ele>
        <time>2021-07-31T13:03:17.000Z</time>
      </trkpt>
      <trkpt lat="45.29611" lon="5.61712">
        <ele>197.9</ele>
        <time>2021-07-31T13:03:19.000Z</time>
      </trkpt>
      <trkpt lat="45.29624" lon="5.61704">
        <ele>197.4</ele>
        <time>2021-07-31T13:03:21.000Z</time>
      </trkpt>
      <trkpt lat="45.29635" lon="5.61694">
        <ele>197.2</ele>
        <time>2021-07-31T13:03:23.000Z</time>
      </trkpt>
      <trkpt lat="45.29647" lon="5.61684">
        <ele>197</ele>
        <time>2021-07-31T13:03:25.000Z</time>
      </trkpt>
      <trkpt lat="45.29659" lon="5.61672">
        <ele>197</ele>
        <time>2021-07-31T13:03:27.000Z</time>
      </trkpt>
      <trkpt lat="45.29671" lon="5.61661">
        <ele>197</ele>
        <time>2021-07-31T13:03:29.000Z</time>
      </trkpt>
      <trkpt lat="45.29682" lon="5.61651">
        <ele>196.9</ele>
        <time>2021-07-31T13:03:31.000Z</time>
      </trkpt>
      <trkpt lat="45.29693" lon="5.61641">
        <ele>196.9</ele>
        <time>2021-07-31T13:03:33.000Z</time>
      </trkpt>
      <trkpt lat="45.29704" lon="5.61633">
        <ele>196.8</ele>
        <time>2021-07-31T13:03:35.000Z</time>
      </trkpt>
      <trkpt lat="45.29716" lon="5.61622">
        <ele>196.9</ele>
        <time>2021-07-31T13:03:37.000Z</time>
      </trkpt>
      <trkpt lat="45.29727" lon="5.61613">
        <ele>197</ele>
        <time>2021-07-31T13:03:39.000Z</time>
      </trkpt>
      <trkpt lat="45.29737" lon="5.61603">
        <ele>197.3</ele>
        <time>2021-07-31T13:03:41.000Z</time>
      </trkpt>
      <trkpt lat="45.2975" lon="5.61591">
        <ele>197.6</ele>
        <time>2021-07-31T13:03:43.000Z</time>
      </trkpt>
      <trkpt lat="45.29761" lon="5.61578">
        <ele>197.8</ele>
        <time>2021-07-31T13:03:45.000Z</time>
      </trkpt>
      <trkpt lat="45.29772" lon="5.61567">
        <ele>197.7</ele>
        <time>2021-07-31T13:03:47.000Z</time>
      </trkpt>
      <trkpt lat="45.29784" lon="5.61556">
        <ele>197.7</ele>
        <time>2021-07-31T13:03:49.000Z</time>
      </trkpt>
      <trkpt lat="45.29796" lon="5.61544">
        <ele>197.9</ele>
        <time>2021-07-31T13:03:51.000Z</time>
      </trkpt>
      <trkpt lat="45.29808" lon="5.61531">
        <ele>198</ele>
        <time>2021-07-31T13:03:53.000Z</time>
      </trkpt>
      <trkpt lat="45.2982" lon="5.61518">
        <ele>198.4</ele>
        <time>2021-07-31T13:03:55.000Z</time>
      </trkpt>
      <trkpt lat="45.29832" lon="5.61507">
        <ele>198.7</ele>
        <time>2021-07-31T13:03:57.000Z</time>
      </trkpt>
      <trkpt lat="45.29844" lon="5.61495">
        <ele>198</ele>
        <time>2021-07-31T13:03:59.000Z</time>
      </trkpt>
      <trkpt lat="45.29855" lon="5.61484">
        <ele>197.1</ele>
        <time>2021-07-31T13:04:01.000Z</time>
      </trkpt>
      <trkpt lat="45.29865" lon="5.61474">
        <ele>196.4</ele>
        <time>2021-07-31T13:04:03.000Z</time>
      </trkpt>
      <trkpt lat="45.29877" lon="5.61462">
        <ele>195.8</ele>
        <time>2021-07-31T13:04:05.000Z</time>
      </trkpt>
      <trkpt lat="45.29889" lon="5.61451">
        <ele>195.5</ele>
        <time>2021-07-31T13:04:07.000Z</time>
      </trkpt>
      <trkpt lat="45.29901" lon="5.61439">
        <ele>195.4</ele>
        <time>2021-07-31T13:04:09.000Z</time>
      </trkpt>
      <trkpt lat="45.29913" lon="5.61429">
        <ele>195.5</ele>
        <time>2021-07-31T13:04:11.000Z</time>
      </trkpt>
      <trkpt lat="45.29925" lon="5.61416">
        <ele>195.5</ele>
        <time>2021-07-31T13:04:13.000Z</time>
      </trkpt>
      <trkpt lat="45.29937" lon="5.61403">
        <ele>194.8</ele>
        <time>2021-07-31T13:04:15.000Z</time>
      </trkpt>
      <trkpt lat="45.29948" lon="5.6139">
        <ele>194.3</ele>
        <time>2021-07-31T13:04:17.000Z</time>
      </trkpt>
      <trkpt lat="45.29957" lon="5.61376">
        <ele>194</ele>
        <time>2021-07-31T13:04:19.000Z</time>
      </trkpt>
      <trkpt lat="45.29967" lon="5.61362">
        <ele>193.9</ele>
        <time>2021-07-31T13:04:21.000Z</time>
      </trkpt>
      <trkpt lat="45.29975" lon="5.61346">
        <ele>194</ele>
        <time>2021-07-31T13:04:23.000Z</time>
      </trkpt>
      <trkpt lat="45.29983" lon="5.61332">
        <ele>194.2</ele>
        <time>2021-07-31T13:04:25.000Z</time>
      </trkpt>
      <trkpt lat="45.29992" lon="5.61315">
        <ele>194.8</ele>
        <time>2021-07-31T13:04:27.000Z</time>
      </trkpt>
      <trkpt lat="45.30001" lon="5.61297">
        <ele>195.7</ele>
        <time>2021-07-31T13:04:29.000Z</time>
      </trkpt>
      <trkpt lat="45.30011" lon="5.61278">
        <ele>195.9</ele>
        <time>2021-07-31T13:04:31.000Z</time>
      </trkpt>
      <trkpt lat="45.30019" lon="5.6126">
        <ele>195.9</ele>
        <time>2021-07-31T13:04:33.000Z</time>
      </trkpt>
      <trkpt lat="45.30028" lon="5.61241">
        <ele>195.3</ele>
        <time>2021-07-31T13:04:35.000Z</time>
      </trkpt>
      <trkpt lat="45.30036" lon="5.61222">
        <ele>194.5</ele>
        <time>2021-07-31T13:04:37.000Z</time>
      </trkpt>
      <trkpt lat="45.30043" lon="5.61207">
        <ele>193.9</ele>
        <time>2021-07-31T13:04:39.000Z</time>
      </trkpt>
      <trkpt lat="45.3005" lon="5.61191">
        <ele>193.3</ele>
        <time>2021-07-31T13:04:41.000Z</time>
      </trkpt>
      <trkpt lat="45.30057" lon="5.61173">
        <ele>192.6</ele>
        <time>2021-07-31T13:04:43.000Z</time>
      </trkpt>
      <trkpt lat="45.30064" lon="5.61156">
        <ele>191.9</ele>
        <time>2021-07-31T13:04:45.000Z</time>
      </trkpt>
      <trkpt lat="45.30071" lon="5.61138">
        <ele>191.5</ele>
        <time>2021-07-31T13:04:47.000Z</time>
      </trkpt>
      <trkpt lat="45.30077" lon="5.61122">
        <ele>191.4</ele>
        <time>2021-07-31T13:04:49.000Z</time>
      </trkpt>
      <trkpt lat="45.30085" lon="5.61103">
        <ele>191.5</ele>
        <time>2021-07-31T13:04:51.000Z</time>
      </trkpt>
      <trkpt lat="45.30091" lon="5.61084">
        <ele>191.8</ele>
        <time>2021-07-31T13:04:53.000Z</time>
      </trkpt>
      <trkpt lat="45.301" lon="5.61068">
        <ele>191.9</ele>
        <time>2021-07-31T13:04:55.000Z</time>
      </trkpt>
      <trkpt lat="45.30107" lon="5.61055">
        <ele>192</ele>
        <time>2021-07-31T13:04:57.000Z</time>
      </trkpt>
      <trkpt lat="45.30112" lon="5.61038">
        <ele>192.2</ele>
        <time>2021-07-31T13:04:59.000Z</time>
      </trkpt>
      <trkpt lat="45.30121" lon="5.61021">
        <ele>192.3</ele>
        <time>2021-07-31T13:05:01.000Z</time>
      </trkpt>
      <trkpt lat="45.3013" lon="5.61001">
        <ele>192.3</ele>
        <time>2021-07-31T13:05:03.000Z</time>
      </trkpt>
      <trkpt lat="45.30137" lon="5.60981">
        <ele>192.3</ele>
        <time>2021-07-31T13:05:05.000Z</time>
      </trkpt>
      <trkpt lat="45.30143" lon="5.60961">
        <ele>192.4</ele>
        <time>2021-07-31T13:05:07.000Z</time>
      </trkpt>
      <trkpt lat="45.3015" lon="5.60943">
        <ele>192.6</ele>
        <time>2021-07-31T13:05:09.000Z</time>
      </trkpt>
      <trkpt lat="45.30158" lon="5.60924">
        <ele>192.8</ele>
        <time>2021-07-31T13:05:11.000Z</time>
      </trkpt>
      <trkpt lat="45.30166" lon="5.60907">
        <ele>193.4</ele>
        <time>2021-07-31T13:05:13.000Z</time>
      </trkpt>
      <trkpt lat="45.30172" lon="5.60888">
        <ele>194</ele>
        <time>2021-07-31T13:05:15.000Z</time>
      </trkpt>
      <trkpt lat="45.30179" lon="5.6087">
        <ele>194.4</ele>
        <time>2021-07-31T13:05:17.000Z</time>
      </trkpt>
      <trkpt lat="45.30187" lon="5.60853">
        <ele>194.6</ele>
        <time>2021-07-31T13:05:19.000Z</time>
      </trkpt>
      <trkpt lat="45.30194" lon="5.60835">
        <ele>194.7</ele>
        <time>2021-07-31T13:05:21.000Z</time>
      </trkpt>
      <trkpt lat="45.30201" lon="5.60818">
        <ele>194.5</ele>
        <time>2021-07-31T13:05:23.000Z</time>
      </trkpt>
      <trkpt lat="45.30209" lon="5.60798">
        <ele>194.2</ele>
        <time>2021-07-31T13:05:25.000Z</time>
      </trkpt>
      <trkpt lat="45.30216" lon="5.60779">
        <ele>193.9</ele>
        <time>2021-07-31T13:05:27.000Z</time>
      </trkpt>
      <trkpt lat="45.30224" lon="5.60762">
        <ele>193.5</ele>
        <time>2021-07-31T13:05:29.000Z</time>
      </trkpt>
      <trkpt lat="45.30233" lon="5.60744">
        <ele>192.9</ele>
        <time>2021-07-31T13:05:31.000Z</time>
      </trkpt>
      <trkpt lat="45.30239" lon="5.60728">
        <ele>192.4</ele>
        <time>2021-07-31T13:05:33.000Z</time>
      </trkpt>
      <trkpt lat="45.30244" lon="5.60709">
        <ele>191.8</ele>
        <time>2021-07-31T13:05:35.000Z</time>
      </trkpt>
      <trkpt lat="45.3025" lon="5.60692">
        <ele>191.3</ele>
        <time>2021-07-31T13:05:37.000Z</time>
      </trkpt>
      <trkpt lat="45.30255" lon="5.60673">
        <ele>191.1</ele>
        <time>2021-07-31T13:05:39.000Z</time>
      </trkpt>
      <trkpt lat="45.30261" lon="5.60656">
        <ele>191.1</ele>
        <time>2021-07-31T13:05:41.000Z</time>
      </trkpt>
      <trkpt lat="45.30264" lon="5.60639">
        <ele>191.3</ele>
        <time>2021-07-31T13:05:43.000Z</time>
      </trkpt>
      <trkpt lat="45.30268" lon="5.60619">
        <ele>191.6</ele>
        <time>2021-07-31T13:05:45.000Z</time>
      </trkpt>
      <trkpt lat="45.30273" lon="5.60601">
        <ele>191.8</ele>
        <time>2021-07-31T13:05:47.000Z</time>
      </trkpt>
      <trkpt lat="45.30276" lon="5.60582">
        <ele>191.9</ele>
        <time>2021-07-31T13:05:49.000Z</time>
      </trkpt>
      <trkpt lat="45.30279" lon="5.60562">
        <ele>191.6</ele>
        <time>2021-07-31T13:05:51.000Z</time>
      </trkpt>
      <trkpt lat="45.30281" lon="5.60542">
        <ele>191.1</ele>
        <time>2021-07-31T13:05:53.000Z</time>
      </trkpt>
      <trkpt lat="45.30284" lon="5.60521">
        <ele>190.6</ele>
        <time>2021-07-31T13:05:55.000Z</time>
      </trkpt>
      <trkpt lat="45.30286" lon="5.60501">
        <ele>190.2</ele>
        <time>2021-07-31T13:05:57.000Z</time>
      </trkpt>
      <trkpt lat="45.30288" lon="5.60482">
        <ele>189.8</ele>
        <time>2021-07-31T13:05:59.000Z</time>
      </trkpt>
      <trkpt lat="45.30291" lon="5.60461">
        <ele>189.3</ele>
        <time>2021-07-31T13:06:01.000Z</time>
      </trkpt>
      <trkpt lat="45.30294" lon="5.60441">
        <ele>188.8</ele>
        <time>2021-07-31T13:06:03.000Z</time>
      </trkpt>
      <trkpt lat="45.30296" lon="5.6042">
        <ele>188.3</ele>
        <time>2021-07-31T13:06:05.000Z</time>
      </trkpt>
      <trkpt lat="45.303" lon="5.60398">
        <ele>188.3</ele>
        <time>2021-07-31T13:06:07.000Z</time>
      </trkpt>
      <trkpt lat="45.30303" lon="5.60379">
        <ele>188.5</ele>
        <time>2021-07-31T13:06:09.000Z</time>
      </trkpt>
      <trkpt lat="45.30305" lon="5.60359">
        <ele>188.6</ele>
        <time>2021-07-31T13:06:11.000Z</time>
      </trkpt>
      <trkpt lat="45.30307" lon="5.60338">
        <ele>188.8</ele>
        <time>2021-07-31T13:06:13.000Z</time>
      </trkpt>
      <trkpt lat="45.30308" lon="5.60317">
        <ele>189.2</ele>
        <time>2021-07-31T13:06:15.000Z</time>
      </trkpt>
      <trkpt lat="45.3031" lon="5.60296">
        <ele>189.5</ele>
        <time>2021-07-31T13:06:17.000Z</time>
      </trkpt>
      <trkpt lat="45.30311" lon="5.60278">
        <ele>189.9</ele>
        <time>2021-07-31T13:06:19.000Z</time>
      </trkpt>
      <trkpt lat="45.30312" lon="5.60257">
        <ele>190.4</ele>
        <time>2021-07-31T13:06:21.000Z</time>
      </trkpt>
      <trkpt lat="45.30313" lon="5.60235">
        <ele>191.5</ele>
        <time>2021-07-31T13:06:23.000Z</time>
      </trkpt>
      <trkpt lat="45.30314" lon="5.60216">
        <ele>192.7</ele>
        <time>2021-07-31T13:06:25.000Z</time>
      </trkpt>
      <trkpt lat="45.30315" lon="5.60194">
        <ele>194</ele>
        <time>2021-07-31T13:06:27.000Z</time>
      </trkpt>
      <trkpt lat="45.30316" lon="5.60172">
        <ele>195.5</ele>
        <time>2021-07-31T13:06:29.000Z</time>
      </trkpt>
      <trkpt lat="45.30317" lon="5.60151">
        <ele>195.2</ele>
        <time>2021-07-31T13:06:31.000Z</time>
      </trkpt>
      <trkpt lat="45.30318" lon="5.6013">
        <ele>194.3</ele>
        <time>2021-07-31T13:06:33.000Z</time>
      </trkpt>
      <trkpt lat="45.30319" lon="5.60109">
        <ele>193.4</ele>
        <time>2021-07-31T13:06:35.000Z</time>
      </trkpt>
      <trkpt lat="45.3032" lon="5.60088">
        <ele>192.5</ele>
        <time>2021-07-31T13:06:37.000Z</time>
      </trkpt>
      <trkpt lat="45.30319" lon="5.60068">
        <ele>192</ele>
        <time>2021-07-31T13:06:39.000Z</time>
      </trkpt>
      <trkpt lat="45.30317" lon="5.60048">
        <ele>191.5</ele>
        <time>2021-07-31T13:06:41.000Z</time>
      </trkpt>
      <trkpt lat="45.30317" lon="5.60026">
        <ele>191</ele>
        <time>2021-07-31T13:06:43.000Z</time>
      </trkpt>
      <trkpt lat="45.30318" lon="5.60013">
        <ele>190.7</ele>
        <time>2021-07-31T13:06:44.000Z</time>
      </trkpt>
      <trkpt lat="45.30318" lon="5.6">
        <ele>190.4</ele>
        <time>2021-07-31T13:06:45.000Z</time>
      </trkpt>
      <trkpt lat="45.3032" lon="5.59977">
        <ele>190</ele>
        <time>2021-07-31T13:06:47.000Z</time>
      </trkpt>
      <trkpt lat="45.30322" lon="5.59961">
        <ele>189.8</ele>
        <time>2021-07-31T13:06:49.000Z</time>
      </trkpt>
      <trkpt lat="45.30323" lon="5.59949">
        <ele>189.6</ele>
        <time>2021-07-31T13:06:51.000Z</time>
      </trkpt>
      <trkpt lat="45.30327" lon="5.59935">
        <ele>189.4</ele>
        <time>2021-07-31T13:06:53.000Z</time>
      </trkpt>
      <trkpt lat="45.3033" lon="5.5992">
        <ele>189.1</ele>
        <time>2021-07-31T13:06:55.000Z</time>
      </trkpt>
      <trkpt lat="45.3033" lon="5.59904">
        <ele>189.1</ele>
        <time>2021-07-31T13:06:57.000Z</time>
      </trkpt>
      <trkpt lat="45.3033" lon="5.5989">
        <ele>189.1</ele>
        <time>2021-07-31T13:06:59.000Z</time>
      </trkpt>
      <trkpt lat="45.3033" lon="5.59872">
        <ele>189.1</ele>
        <time>2021-07-31T13:07:01.000Z</time>
      </trkpt>
      <trkpt lat="45.30331" lon="5.59851">
        <ele>189.1</ele>
        <time>2021-07-31T13:07:03.000Z</time>
      </trkpt>
      <trkpt lat="45.30332" lon="5.59833">
        <ele>189</ele>
        <time>2021-07-31T13:07:05.000Z</time>
      </trkpt>
      <trkpt lat="45.30332" lon="5.59816">
        <ele>189</ele>
        <time>2021-07-31T13:07:07.000Z</time>
      </trkpt>
      <trkpt lat="45.30332" lon="5.59799">
        <ele>189</ele>
        <time>2021-07-31T13:07:09.000Z</time>
      </trkpt>
      <trkpt lat="45.30332" lon="5.59779">
        <ele>189</ele>
        <time>2021-07-31T13:07:11.000Z</time>
      </trkpt>
      <trkpt lat="45.3033" lon="5.59761">
        <ele>189.1</ele>
        <time>2021-07-31T13:07:13.000Z</time>
      </trkpt>
      <trkpt lat="45.30327" lon="5.59744">
        <ele>189.1</ele>
        <time>2021-07-31T13:07:15.000Z</time>
      </trkpt>
      <trkpt lat="45.30326" lon="5.59723">
        <ele>189.2</ele>
        <time>2021-07-31T13:07:17.000Z</time>
      </trkpt>
      <trkpt lat="45.30325" lon="5.59704">
        <ele>189.2</ele>
        <time>2021-07-31T13:07:19.000Z</time>
      </trkpt>
      <trkpt lat="45.30324" lon="5.59684">
        <ele>189.3</ele>
        <time>2021-07-31T13:07:21.000Z</time>
      </trkpt>
      <trkpt lat="45.30323" lon="5.59664">
        <ele>189.4</ele>
        <time>2021-07-31T13:07:23.000Z</time>
      </trkpt>
      <trkpt lat="45.30321" lon="5.59643">
        <ele>189.4</ele>
        <time>2021-07-31T13:07:25.000Z</time>
      </trkpt>
      <trkpt lat="45.30317" lon="5.59625">
        <ele>189.5</ele>
        <time>2021-07-31T13:07:27.000Z</time>
      </trkpt>
      <trkpt lat="45.30315" lon="5.59606">
        <ele>189.5</ele>
        <time>2021-07-31T13:07:29.000Z</time>
      </trkpt>
      <trkpt lat="45.30313" lon="5.59587">
        <ele>189.5</ele>
        <time>2021-07-31T13:07:31.000Z</time>
      </trkpt>
      <trkpt lat="45.30312" lon="5.59568">
        <ele>189.7</ele>
        <time>2021-07-31T13:07:33.000Z</time>
      </trkpt>
      <trkpt lat="45.30313" lon="5.59547">
        <ele>189.9</ele>
        <time>2021-07-31T13:07:35.000Z</time>
      </trkpt>
      <trkpt lat="45.30314" lon="5.59526">
        <ele>190.1</ele>
        <time>2021-07-31T13:07:37.000Z</time>
      </trkpt>
      <trkpt lat="45.30313" lon="5.59508">
        <ele>190.4</ele>
        <time>2021-07-31T13:07:39.000Z</time>
      </trkpt>
      <trkpt lat="45.30314" lon="5.5949">
        <ele>190.5</ele>
        <time>2021-07-31T13:07:41.000Z</time>
      </trkpt>
      <trkpt lat="45.30315" lon="5.59469">
        <ele>190.5</ele>
        <time>2021-07-31T13:07:43.000Z</time>
      </trkpt>
      <trkpt lat="45.30317" lon="5.59449">
        <ele>190.5</ele>
        <time>2021-07-31T13:07:45.000Z</time>
      </trkpt>
      <trkpt lat="45.30317" lon="5.59428">
        <ele>190.6</ele>
        <time>2021-07-31T13:07:47.000Z</time>
      </trkpt>
      <trkpt lat="45.30317" lon="5.59409">
        <ele>190.3</ele>
        <time>2021-07-31T13:07:49.000Z</time>
      </trkpt>
      <trkpt lat="45.30317" lon="5.5939">
        <ele>189.7</ele>
        <time>2021-07-31T13:07:51.000Z</time>
      </trkpt>
      <trkpt lat="45.30316" lon="5.59372">
        <ele>189.2</ele>
        <time>2021-07-31T13:07:53.000Z</time>
      </trkpt>
      <trkpt lat="45.30316" lon="5.59351">
        <ele>188.6</ele>
        <time>2021-07-31T13:07:55.000Z</time>
      </trkpt>
      <trkpt lat="45.30314" lon="5.5933">
        <ele>188.2</ele>
        <time>2021-07-31T13:07:57.000Z</time>
      </trkpt>
      <trkpt lat="45.30311" lon="5.59311">
        <ele>188.5</ele>
        <time>2021-07-31T13:07:59.000Z</time>
      </trkpt>
      <trkpt lat="45.30308" lon="5.59292">
        <ele>188.9</ele>
        <time>2021-07-31T13:08:01.000Z</time>
      </trkpt>
      <trkpt lat="45.30304" lon="5.59273">
        <ele>189.2</ele>
        <time>2021-07-31T13:08:03.000Z</time>
      </trkpt>
      <trkpt lat="45.30301" lon="5.59256">
        <ele>189.5</ele>
        <time>2021-07-31T13:08:05.000Z</time>
      </trkpt>
      <trkpt lat="45.30296" lon="5.59236">
        <ele>189.8</ele>
        <time>2021-07-31T13:08:07.000Z</time>
      </trkpt>
      <trkpt lat="45.30291" lon="5.59218">
        <ele>190.2</ele>
        <time>2021-07-31T13:08:09.000Z</time>
      </trkpt>
      <trkpt lat="45.30287" lon="5.59198">
        <ele>190.6</ele>
        <time>2021-07-31T13:08:11.000Z</time>
      </trkpt>
      <trkpt lat="45.30283" lon="5.59178">
        <ele>190.9</ele>
        <time>2021-07-31T13:08:13.000Z</time>
      </trkpt>
      <trkpt lat="45.30279" lon="5.59159">
        <ele>191.1</ele>
        <time>2021-07-31T13:08:15.000Z</time>
      </trkpt>
      <trkpt lat="45.30276" lon="5.59141">
        <ele>190.9</ele>
        <time>2021-07-31T13:08:17.000Z</time>
      </trkpt>
      <trkpt lat="45.30272" lon="5.59122">
        <ele>190.6</ele>
        <time>2021-07-31T13:08:19.000Z</time>
      </trkpt>
      <trkpt lat="45.30267" lon="5.59105">
        <ele>190.5</ele>
        <time>2021-07-31T13:08:21.000Z</time>
      </trkpt>
      <trkpt lat="45.30263" lon="5.59086">
        <ele>190.2</ele>
        <time>2021-07-31T13:08:23.000Z</time>
      </trkpt>
      <trkpt lat="45.30259" lon="5.59066">
        <ele>190.9</ele>
        <time>2021-07-31T13:08:25.000Z</time>
      </trkpt>
      <trkpt lat="45.30253" lon="5.59046">
        <ele>191.7</ele>
        <time>2021-07-31T13:08:27.000Z</time>
      </trkpt>
      <trkpt lat="45.30249" lon="5.59028">
        <ele>192.3</ele>
        <time>2021-07-31T13:08:29.000Z</time>
      </trkpt>
      <trkpt lat="45.30244" lon="5.5901">
        <ele>192.5</ele>
        <time>2021-07-31T13:08:31.000Z</time>
      </trkpt>
      <trkpt lat="45.30238" lon="5.58994">
        <ele>192.8</ele>
        <time>2021-07-31T13:08:33.000Z</time>
      </trkpt>
      <trkpt lat="45.30231" lon="5.58977">
        <ele>193</ele>
        <time>2021-07-31T13:08:35.000Z</time>
      </trkpt>
      <trkpt lat="45.30223" lon="5.58961">
        <ele>193.2</ele>
        <time>2021-07-31T13:08:37.000Z</time>
      </trkpt>
      <trkpt lat="45.30218" lon="5.58945">
        <ele>193.3</ele>
        <time>2021-07-31T13:08:39.000Z</time>
      </trkpt>
      <trkpt lat="45.30212" lon="5.58928">
        <ele>193.5</ele>
        <time>2021-07-31T13:08:41.000Z</time>
      </trkpt>
      <trkpt lat="45.30204" lon="5.58913">
        <ele>193.2</ele>
        <time>2021-07-31T13:08:43.000Z</time>
      </trkpt>
      <trkpt lat="45.30197" lon="5.58898">
        <ele>192.6</ele>
        <time>2021-07-31T13:08:45.000Z</time>
      </trkpt>
      <trkpt lat="45.30189" lon="5.58882">
        <ele>191.8</ele>
        <time>2021-07-31T13:08:47.000Z</time>
      </trkpt>
      <trkpt lat="45.30181" lon="5.58865">
        <ele>190.9</ele>
        <time>2021-07-31T13:08:49.000Z</time>
      </trkpt>
      <trkpt lat="45.30172" lon="5.58849">
        <ele>189.9</ele>
        <time>2021-07-31T13:08:51.000Z</time>
      </trkpt>
      <trkpt lat="45.30164" lon="5.58829">
        <ele>188.9</ele>
        <time>2021-07-31T13:08:53.000Z</time>
      </trkpt>
      <trkpt lat="45.30157" lon="5.58811">
        <ele>188.4</ele>
        <time>2021-07-31T13:08:55.000Z</time>
      </trkpt>
      <trkpt lat="45.30149" lon="5.58795">
        <ele>187.9</ele>
        <time>2021-07-31T13:08:57.000Z</time>
      </trkpt>
      <trkpt lat="45.3014" lon="5.5878">
        <ele>187.6</ele>
        <time>2021-07-31T13:08:59.000Z</time>
      </trkpt>
      <trkpt lat="45.30132" lon="5.58767">
        <ele>187.3</ele>
        <time>2021-07-31T13:09:01.000Z</time>
      </trkpt>
      <trkpt lat="45.30124" lon="5.58751">
        <ele>187.1</ele>
        <time>2021-07-31T13:09:03.000Z</time>
      </trkpt>
      <trkpt lat="45.30116" lon="5.58737">
        <ele>187.5</ele>
        <time>2021-07-31T13:09:05.000Z</time>
      </trkpt>
      <trkpt lat="45.30107" lon="5.58722">
        <ele>188</ele>
        <time>2021-07-31T13:09:07.000Z</time>
      </trkpt>
      <trkpt lat="45.30098" lon="5.58708">
        <ele>188.6</ele>
        <time>2021-07-31T13:09:09.000Z</time>
      </trkpt>
      <trkpt lat="45.30089" lon="5.58693">
        <ele>189.2</ele>
        <time>2021-07-31T13:09:11.000Z</time>
      </trkpt>
      <trkpt lat="45.3008" lon="5.58678">
        <ele>189.8</ele>
        <time>2021-07-31T13:09:13.000Z</time>
      </trkpt>
      <trkpt lat="45.3007" lon="5.58664">
        <ele>190</ele>
        <time>2021-07-31T13:09:15.000Z</time>
      </trkpt>
      <trkpt lat="45.30059" lon="5.58652">
        <ele>190.1</ele>
        <time>2021-07-31T13:09:17.000Z</time>
      </trkpt>
      <trkpt lat="45.30047" lon="5.58637">
        <ele>190.2</ele>
        <time>2021-07-31T13:09:19.000Z</time>
      </trkpt>
      <trkpt lat="45.30037" lon="5.58623">
        <ele>190.3</ele>
        <time>2021-07-31T13:09:21.000Z</time>
      </trkpt>
      <trkpt lat="45.30027" lon="5.58608">
        <ele>190.5</ele>
        <time>2021-07-31T13:09:23.000Z</time>
      </trkpt>
      <trkpt lat="45.30018" lon="5.58591">
        <ele>190.7</ele>
        <time>2021-07-31T13:09:25.000Z</time>
      </trkpt>
      <trkpt lat="45.30008" lon="5.58577">
        <ele>190.9</ele>
        <time>2021-07-31T13:09:27.000Z</time>
      </trkpt>
      <trkpt lat="45.29997" lon="5.58562">
        <ele>191</ele>
        <time>2021-07-31T13:09:29.000Z</time>
      </trkpt>
      <trkpt lat="45.29988" lon="5.58546">
        <ele>191.1</ele>
        <time>2021-07-31T13:09:31.000Z</time>
      </trkpt>
      <trkpt lat="45.29978" lon="5.58532">
        <ele>191</ele>
        <time>2021-07-31T13:09:33.000Z</time>
      </trkpt>
      <trkpt lat="45.29968" lon="5.58518">
        <ele>190.9</ele>
        <time>2021-07-31T13:09:35.000Z</time>
      </trkpt>
      <trkpt lat="45.29958" lon="5.58504">
        <ele>190.6</ele>
        <time>2021-07-31T13:09:37.000Z</time>
      </trkpt>
      <trkpt lat="45.29948" lon="5.5849">
        <ele>190.4</ele>
        <time>2021-07-31T13:09:39.000Z</time>
      </trkpt>
      <trkpt lat="45.29938" lon="5.58475">
        <ele>190.3</ele>
        <time>2021-07-31T13:09:41.000Z</time>
      </trkpt>
      <trkpt lat="45.29929" lon="5.5846">
        <ele>190.2</ele>
        <time>2021-07-31T13:09:43.000Z</time>
      </trkpt>
      <trkpt lat="45.29918" lon="5.58445">
        <ele>190</ele>
        <time>2021-07-31T13:09:45.000Z</time>
      </trkpt>
      <trkpt lat="45.29909" lon="5.58432">
        <ele>189.9</ele>
        <time>2021-07-31T13:09:47.000Z</time>
      </trkpt>
      <trkpt lat="45.29898" lon="5.58418">
        <ele>189.8</ele>
        <time>2021-07-31T13:09:49.000Z</time>
      </trkpt>
      <trkpt lat="45.29889" lon="5.58402">
        <ele>189.7</ele>
        <time>2021-07-31T13:09:51.000Z</time>
      </trkpt>
      <trkpt lat="45.2988" lon="5.58386">
        <ele>189.6</ele>
        <time>2021-07-31T13:09:53.000Z</time>
      </trkpt>
      <trkpt lat="45.29872" lon="5.58372">
        <ele>189.5</ele>
        <time>2021-07-31T13:09:55.000Z</time>
      </trkpt>
      <trkpt lat="45.29862" lon="5.58359">
        <ele>189.3</ele>
        <time>2021-07-31T13:09:57.000Z</time>
      </trkpt>
      <trkpt lat="45.29852" lon="5.58348">
        <ele>189.2</ele>
        <time>2021-07-31T13:09:59.000Z</time>
      </trkpt>
      <trkpt lat="45.29844" lon="5.58333">
        <ele>189.1</ele>
        <time>2021-07-31T13:10:01.000Z</time>
      </trkpt>
      <trkpt lat="45.29836" lon="5.58321">
        <ele>189</ele>
        <time>2021-07-31T13:10:03.000Z</time>
      </trkpt>
      <trkpt lat="45.29826" lon="5.58306">
        <ele>189.2</ele>
        <time>2021-07-31T13:10:05.000Z</time>
      </trkpt>
      <trkpt lat="45.29819" lon="5.58298">
        <ele>189.5</ele>
        <time>2021-07-31T13:10:06.000Z</time>
      </trkpt>
      <trkpt lat="45.29806" lon="5.58281">
        <ele>189.8</ele>
        <time>2021-07-31T13:10:08.000Z</time>
      </trkpt>
      <trkpt lat="45.29797" lon="5.5827">
        <ele>190</ele>
        <time>2021-07-31T13:10:10.000Z</time>
      </trkpt>
      <trkpt lat="45.29789" lon="5.58257">
        <ele>190.1</ele>
        <time>2021-07-31T13:10:12.000Z</time>
      </trkpt>
      <trkpt lat="45.29779" lon="5.58241">
        <ele>190.1</ele>
        <time>2021-07-31T13:10:14.000Z</time>
      </trkpt>
      <trkpt lat="45.29769" lon="5.58227">
        <ele>189.7</ele>
        <time>2021-07-31T13:10:16.000Z</time>
      </trkpt>
      <trkpt lat="45.29758" lon="5.58211">
        <ele>189.2</ele>
        <time>2021-07-31T13:10:18.000Z</time>
      </trkpt>
      <trkpt lat="45.29744" lon="5.58196">
        <ele>188.3</ele>
        <time>2021-07-31T13:10:20.000Z</time>
      </trkpt>
      <trkpt lat="45.29733" lon="5.58181">
        <ele>187.6</ele>
        <time>2021-07-31T13:10:22.000Z</time>
      </trkpt>
      <trkpt lat="45.29727" lon="5.58163">
        <ele>187</ele>
        <time>2021-07-31T13:10:24.000Z</time>
      </trkpt>
      <trkpt lat="45.29718" lon="5.58146">
        <ele>186.9</ele>
        <time>2021-07-31T13:10:26.000Z</time>
      </trkpt>
      <trkpt lat="45.29711" lon="5.58129">
        <ele>186.8</ele>
        <time>2021-07-31T13:10:28.000Z</time>
      </trkpt>
      <trkpt lat="45.29705" lon="5.58111">
        <ele>186.6</ele>
        <time>2021-07-31T13:10:30.000Z</time>
      </trkpt>
      <trkpt lat="45.29696" lon="5.58096">
        <ele>186.5</ele>
        <time>2021-07-31T13:10:32.000Z</time>
      </trkpt>
      <trkpt lat="45.2969" lon="5.58079">
        <ele>186.3</ele>
        <time>2021-07-31T13:10:34.000Z</time>
      </trkpt>
      <trkpt lat="45.29685" lon="5.58061">
        <ele>186.5</ele>
        <time>2021-07-31T13:10:36.000Z</time>
      </trkpt>
      <trkpt lat="45.29682" lon="5.58042">
        <ele>186.7</ele>
        <time>2021-07-31T13:10:38.000Z</time>
      </trkpt>
      <trkpt lat="45.29677" lon="5.58024">
        <ele>186.9</ele>
        <time>2021-07-31T13:10:40.000Z</time>
      </trkpt>
      <trkpt lat="45.29671" lon="5.58007">
        <ele>187</ele>
        <time>2021-07-31T13:10:42.000Z</time>
      </trkpt>
      <trkpt lat="45.29665" lon="5.57989">
        <ele>186.7</ele>
        <time>2021-07-31T13:10:44.000Z</time>
      </trkpt>
      <trkpt lat="45.2966" lon="5.57971">
        <ele>186.4</ele>
        <time>2021-07-31T13:10:46.000Z</time>
      </trkpt>
      <trkpt lat="45.29657" lon="5.57953">
        <ele>186</ele>
        <time>2021-07-31T13:10:48.000Z</time>
      </trkpt>
      <trkpt lat="45.29653" lon="5.57934">
        <ele>185.6</ele>
        <time>2021-07-31T13:10:50.000Z</time>
      </trkpt>
      <trkpt lat="45.29648" lon="5.57916">
        <ele>185.2</ele>
        <time>2021-07-31T13:10:52.000Z</time>
      </trkpt>
      <trkpt lat="45.29644" lon="5.57896">
        <ele>185.6</ele>
        <time>2021-07-31T13:10:54.000Z</time>
      </trkpt>
      <trkpt lat="45.29641" lon="5.57877">
        <ele>185.9</ele>
        <time>2021-07-31T13:10:56.000Z</time>
      </trkpt>
      <trkpt lat="45.2964" lon="5.57858">
        <ele>186.2</ele>
        <time>2021-07-31T13:10:58.000Z</time>
      </trkpt>
      <trkpt lat="45.29641" lon="5.57838">
        <ele>186.6</ele>
        <time>2021-07-31T13:11:00.000Z</time>
      </trkpt>
      <trkpt lat="45.29639" lon="5.57818">
        <ele>186.7</ele>
        <time>2021-07-31T13:11:02.000Z</time>
      </trkpt>
      <trkpt lat="45.29638" lon="5.57799">
        <ele>186.7</ele>
        <time>2021-07-31T13:11:04.000Z</time>
      </trkpt>
      <trkpt lat="45.29639" lon="5.57778">
        <ele>186.7</ele>
        <time>2021-07-31T13:11:06.000Z</time>
      </trkpt>
      <trkpt lat="45.29638" lon="5.57757">
        <ele>186.7</ele>
        <time>2021-07-31T13:11:08.000Z</time>
      </trkpt>
      <trkpt lat="45.29638" lon="5.57738">
        <ele>187</ele>
        <time>2021-07-31T13:11:10.000Z</time>
      </trkpt>
      <trkpt lat="45.29639" lon="5.57718">
        <ele>187.6</ele>
        <time>2021-07-31T13:11:12.000Z</time>
      </trkpt>
      <trkpt lat="45.29642" lon="5.57697">
        <ele>188.2</ele>
        <time>2021-07-31T13:11:14.000Z</time>
      </trkpt>
      <trkpt lat="45.29645" lon="5.57675">
        <ele>188.8</ele>
        <time>2021-07-31T13:11:16.000Z</time>
      </trkpt>
      <trkpt lat="45.29647" lon="5.57655">
        <ele>189.1</ele>
        <time>2021-07-31T13:11:18.000Z</time>
      </trkpt>
      <trkpt lat="45.2965" lon="5.57635">
        <ele>189.2</ele>
        <time>2021-07-31T13:11:20.000Z</time>
      </trkpt>
      <trkpt lat="45.29653" lon="5.57615">
        <ele>189.3</ele>
        <time>2021-07-31T13:11:22.000Z</time>
      </trkpt>
      <trkpt lat="45.29658" lon="5.57596">
        <ele>189.3</ele>
        <time>2021-07-31T13:11:24.000Z</time>
      </trkpt>
      <trkpt lat="45.29662" lon="5.57575">
        <ele>189.5</ele>
        <time>2021-07-31T13:11:26.000Z</time>
      </trkpt>
      <trkpt lat="45.29668" lon="5.57555">
        <ele>190.1</ele>
        <time>2021-07-31T13:11:28.000Z</time>
      </trkpt>
      <trkpt lat="45.29674" lon="5.57537">
        <ele>190.9</ele>
        <time>2021-07-31T13:11:30.000Z</time>
      </trkpt>
      <trkpt lat="45.2968" lon="5.57517">
        <ele>191.9</ele>
        <time>2021-07-31T13:11:32.000Z</time>
      </trkpt>
      <trkpt lat="45.29685" lon="5.57496">
        <ele>192.6</ele>
        <time>2021-07-31T13:11:34.000Z</time>
      </trkpt>
      <trkpt lat="45.29689" lon="5.57478">
        <ele>192.6</ele>
        <time>2021-07-31T13:11:36.000Z</time>
      </trkpt>
      <trkpt lat="45.29694" lon="5.57459">
        <ele>192.5</ele>
        <time>2021-07-31T13:11:38.000Z</time>
      </trkpt>
      <trkpt lat="45.297" lon="5.5744">
        <ele>192.3</ele>
        <time>2021-07-31T13:11:40.000Z</time>
      </trkpt>
      <trkpt lat="45.29705" lon="5.5742">
        <ele>192</ele>
        <time>2021-07-31T13:11:42.000Z</time>
      </trkpt>
      <trkpt lat="45.2971" lon="5.57401">
        <ele>191.5</ele>
        <time>2021-07-31T13:11:44.000Z</time>
      </trkpt>
      <trkpt lat="45.29715" lon="5.57381">
        <ele>190.9</ele>
        <time>2021-07-31T13:11:46.000Z</time>
      </trkpt>
      <trkpt lat="45.2972" lon="5.57363">
        <ele>190.3</ele>
        <time>2021-07-31T13:11:48.000Z</time>
      </trkpt>
      <trkpt lat="45.29726" lon="5.57344">
        <ele>189.6</ele>
        <time>2021-07-31T13:11:50.000Z</time>
      </trkpt>
      <trkpt lat="45.29731" lon="5.57327">
        <ele>189.2</ele>
        <time>2021-07-31T13:11:52.000Z</time>
      </trkpt>
      <trkpt lat="45.29736" lon="5.57306">
        <ele>189.1</ele>
        <time>2021-07-31T13:11:54.000Z</time>
      </trkpt>
      <trkpt lat="45.29742" lon="5.57285">
        <ele>189</ele>
        <time>2021-07-31T13:11:56.000Z</time>
      </trkpt>
      <trkpt lat="45.29748" lon="5.57266">
        <ele>189</ele>
        <time>2021-07-31T13:11:58.000Z</time>
      </trkpt>
      <trkpt lat="45.29753" lon="5.57244">
        <ele>188.9</ele>
        <time>2021-07-31T13:12:00.000Z</time>
      </trkpt>
      <trkpt lat="45.29756" lon="5.57224">
        <ele>188.6</ele>
        <time>2021-07-31T13:12:02.000Z</time>
      </trkpt>
      <trkpt lat="45.2976" lon="5.57208">
        <ele>188.4</ele>
        <time>2021-07-31T13:12:04.000Z</time>
      </trkpt>
      <trkpt lat="45.29765" lon="5.5719">
        <ele>188.1</ele>
        <time>2021-07-31T13:12:06.000Z</time>
      </trkpt>
      <trkpt lat="45.29771" lon="5.5717">
        <ele>187.8</ele>
        <time>2021-07-31T13:12:08.000Z</time>
      </trkpt>
      <trkpt lat="45.29776" lon="5.5715">
        <ele>187.8</ele>
        <time>2021-07-31T13:12:10.000Z</time>
      </trkpt>
      <trkpt lat="45.29782" lon="5.57131">
        <ele>187.7</ele>
        <time>2021-07-31T13:12:12.000Z</time>
      </trkpt>
      <trkpt lat="45.29787" lon="5.57114">
        <ele>187.6</ele>
        <time>2021-07-31T13:12:14.000Z</time>
      </trkpt>
      <trkpt lat="45.29793" lon="5.57096">
        <ele>187.5</ele>
        <time>2021-07-31T13:12:16.000Z</time>
      </trkpt>
      <trkpt lat="45.29798" lon="5.57077">
        <ele>187.3</ele>
        <time>2021-07-31T13:12:18.000Z</time>
      </trkpt>
      <trkpt lat="45.29804" lon="5.57057">
        <ele>187.3</ele>
        <time>2021-07-31T13:12:20.000Z</time>
      </trkpt>
      <trkpt lat="45.29811" lon="5.57038">
        <ele>187.2</ele>
        <time>2021-07-31T13:12:22.000Z</time>
      </trkpt>
      <trkpt lat="45.29816" lon="5.57019">
        <ele>187.2</ele>
        <time>2021-07-31T13:12:24.000Z</time>
      </trkpt>
      <trkpt lat="45.2982" lon="5.56998">
        <ele>187.3</ele>
        <time>2021-07-31T13:12:26.000Z</time>
      </trkpt>
      <trkpt lat="45.29825" lon="5.56976">
        <ele>187.2</ele>
        <time>2021-07-31T13:12:28.000Z</time>
      </trkpt>
      <trkpt lat="45.29829" lon="5.56955">
        <ele>187.1</ele>
        <time>2021-07-31T13:12:30.000Z</time>
      </trkpt>
      <trkpt lat="45.29834" lon="5.56935">
        <ele>187</ele>
        <time>2021-07-31T13:12:32.000Z</time>
      </trkpt>
      <trkpt lat="45.29839" lon="5.56916">
        <ele>187</ele>
        <time>2021-07-31T13:12:34.000Z</time>
      </trkpt>
      <trkpt lat="45.29844" lon="5.56897">
        <ele>187.5</ele>
        <time>2021-07-31T13:12:36.000Z</time>
      </trkpt>
      <trkpt lat="45.2985" lon="5.56878">
        <ele>187.8</ele>
        <time>2021-07-31T13:12:38.000Z</time>
      </trkpt>
      <trkpt lat="45.29856" lon="5.5686">
        <ele>188.2</ele>
        <time>2021-07-31T13:12:40.000Z</time>
      </trkpt>
      <trkpt lat="45.29861" lon="5.5684">
        <ele>188.6</ele>
        <time>2021-07-31T13:12:42.000Z</time>
      </trkpt>
      <trkpt lat="45.29866" lon="5.5682">
        <ele>188.8</ele>
        <time>2021-07-31T13:12:44.000Z</time>
      </trkpt>
      <trkpt lat="45.2987" lon="5.568">
        <ele>189.1</ele>
        <time>2021-07-31T13:12:46.000Z</time>
      </trkpt>
      <trkpt lat="45.29874" lon="5.56781">
        <ele>189.4</ele>
        <time>2021-07-31T13:12:48.000Z</time>
      </trkpt>
      <trkpt lat="45.29877" lon="5.56762">
        <ele>189.8</ele>
        <time>2021-07-31T13:12:50.000Z</time>
      </trkpt>
      <trkpt lat="45.29882" lon="5.56744">
        <ele>190.4</ele>
        <time>2021-07-31T13:12:52.000Z</time>
      </trkpt>
      <trkpt lat="45.29884" lon="5.56725">
        <ele>191</ele>
        <time>2021-07-31T13:12:54.000Z</time>
      </trkpt>
      <trkpt lat="45.29887" lon="5.56705">
        <ele>191.7</ele>
        <time>2021-07-31T13:12:56.000Z</time>
      </trkpt>
      <trkpt lat="45.29891" lon="5.56683">
        <ele>192.6</ele>
        <time>2021-07-31T13:12:58.000Z</time>
      </trkpt>
      <trkpt lat="45.29893" lon="5.56663">
        <ele>193.1</ele>
        <time>2021-07-31T13:13:00.000Z</time>
      </trkpt>
      <trkpt lat="45.29893" lon="5.56642">
        <ele>192.7</ele>
        <time>2021-07-31T13:13:02.000Z</time>
      </trkpt>
      <trkpt lat="45.29893" lon="5.5662">
        <ele>192.3</ele>
        <time>2021-07-31T13:13:04.000Z</time>
      </trkpt>
      <trkpt lat="45.29892" lon="5.56598">
        <ele>191.9</ele>
        <time>2021-07-31T13:13:06.000Z</time>
      </trkpt>
      <trkpt lat="45.2989" lon="5.56577">
        <ele>191.6</ele>
        <time>2021-07-31T13:13:08.000Z</time>
      </trkpt>
      <trkpt lat="45.29889" lon="5.56557">
        <ele>191.2</ele>
        <time>2021-07-31T13:13:10.000Z</time>
      </trkpt>
      <trkpt lat="45.29888" lon="5.56536">
        <ele>190.9</ele>
        <time>2021-07-31T13:13:12.000Z</time>
      </trkpt>
      <trkpt lat="45.29886" lon="5.56514">
        <ele>190.6</ele>
        <time>2021-07-31T13:13:14.000Z</time>
      </trkpt>
      <trkpt lat="45.29882" lon="5.56495">
        <ele>190.2</ele>
        <time>2021-07-31T13:13:16.000Z</time>
      </trkpt>
      <trkpt lat="45.29876" lon="5.56474">
        <ele>189.5</ele>
        <time>2021-07-31T13:13:18.000Z</time>
      </trkpt>
      <trkpt lat="45.2987" lon="5.56454">
        <ele>188.8</ele>
        <time>2021-07-31T13:13:20.000Z</time>
      </trkpt>
      <trkpt lat="45.29864" lon="5.56435">
        <ele>188.1</ele>
        <time>2021-07-31T13:13:22.000Z</time>
      </trkpt>
      <trkpt lat="45.2986" lon="5.56415">
        <ele>187.3</ele>
        <time>2021-07-31T13:13:24.000Z</time>
      </trkpt>
      <trkpt lat="45.29856" lon="5.56396">
        <ele>187</ele>
        <time>2021-07-31T13:13:26.000Z</time>
      </trkpt>
      <trkpt lat="45.29852" lon="5.56377">
        <ele>186.7</ele>
        <time>2021-07-31T13:13:28.000Z</time>
      </trkpt>
      <trkpt lat="45.29845" lon="5.56359">
        <ele>186.4</ele>
        <time>2021-07-31T13:13:30.000Z</time>
      </trkpt>
      <trkpt lat="45.29838" lon="5.56341">
        <ele>186.1</ele>
        <time>2021-07-31T13:13:32.000Z</time>
      </trkpt>
      <trkpt lat="45.2983" lon="5.56323">
        <ele>186.1</ele>
        <time>2021-07-31T13:13:34.000Z</time>
      </trkpt>
      <trkpt lat="45.29822" lon="5.56307">
        <ele>186.3</ele>
        <time>2021-07-31T13:13:36.000Z</time>
      </trkpt>
      <trkpt lat="45.29813" lon="5.5629">
        <ele>186.5</ele>
        <time>2021-07-31T13:13:38.000Z</time>
      </trkpt>
      <trkpt lat="45.29803" lon="5.56275">
        <ele>186.7</ele>
        <time>2021-07-31T13:13:40.000Z</time>
      </trkpt>
      <trkpt lat="45.29794" lon="5.56259">
        <ele>186.9</ele>
        <time>2021-07-31T13:13:42.000Z</time>
      </trkpt>
      <trkpt lat="45.29783" lon="5.56244">
        <ele>187.2</ele>
        <time>2021-07-31T13:13:44.000Z</time>
      </trkpt>
      <trkpt lat="45.29772" lon="5.56231">
        <ele>187.4</ele>
        <time>2021-07-31T13:13:46.000Z</time>
      </trkpt>
      <trkpt lat="45.2976" lon="5.56217">
        <ele>187.4</ele>
        <time>2021-07-31T13:13:48.000Z</time>
      </trkpt>
      <trkpt lat="45.29751" lon="5.56205">
        <ele>187.4</ele>
        <time>2021-07-31T13:13:50.000Z</time>
      </trkpt>
      <trkpt lat="45.2974" lon="5.56193">
        <ele>187.7</ele>
        <time>2021-07-31T13:13:52.000Z</time>
      </trkpt>
      <trkpt lat="45.29729" lon="5.56178">
        <ele>188</ele>
        <time>2021-07-31T13:13:54.000Z</time>
      </trkpt>
      <trkpt lat="45.29719" lon="5.56165">
        <ele>188.5</ele>
        <time>2021-07-31T13:13:56.000Z</time>
      </trkpt>
      <trkpt lat="45.29709" lon="5.56151">
        <ele>189</ele>
        <time>2021-07-31T13:13:58.000Z</time>
      </trkpt>
      <trkpt lat="45.29697" lon="5.56137">
        <ele>189.4</ele>
        <time>2021-07-31T13:14:00.000Z</time>
      </trkpt>
      <trkpt lat="45.29687" lon="5.56124">
        <ele>189.8</ele>
        <time>2021-07-31T13:14:02.000Z</time>
      </trkpt>
      <trkpt lat="45.29676" lon="5.56111">
        <ele>190</ele>
        <time>2021-07-31T13:14:04.000Z</time>
      </trkpt>
      <trkpt lat="45.29666" lon="5.56098">
        <ele>190.2</ele>
        <time>2021-07-31T13:14:06.000Z</time>
      </trkpt>
      <trkpt lat="45.29655" lon="5.56085">
        <ele>189.9</ele>
        <time>2021-07-31T13:14:08.000Z</time>
      </trkpt>
      <trkpt lat="45.29643" lon="5.56072">
        <ele>189.7</ele>
        <time>2021-07-31T13:14:10.000Z</time>
      </trkpt>
      <trkpt lat="45.29633" lon="5.56059">
        <ele>189.5</ele>
        <time>2021-07-31T13:14:12.000Z</time>
      </trkpt>
      <trkpt lat="45.29622" lon="5.56045">
        <ele>189.2</ele>
        <time>2021-07-31T13:14:14.000Z</time>
      </trkpt>
      <trkpt lat="45.29612" lon="5.56032">
        <ele>188.7</ele>
        <time>2021-07-31T13:14:16.000Z</time>
      </trkpt>
      <trkpt lat="45.29601" lon="5.5602">
        <ele>188.2</ele>
        <time>2021-07-31T13:14:18.000Z</time>
      </trkpt>
      <trkpt lat="45.29589" lon="5.56007">
        <ele>187.4</ele>
        <time>2021-07-31T13:14:20.000Z</time>
      </trkpt>
      <trkpt lat="45.29577" lon="5.55996">
        <ele>187.1</ele>
        <time>2021-07-31T13:14:22.000Z</time>
      </trkpt>
      <trkpt lat="45.29566" lon="5.55983">
        <ele>187.1</ele>
        <time>2021-07-31T13:14:24.000Z</time>
      </trkpt>
      <trkpt lat="45.29556" lon="5.55969">
        <ele>187</ele>
        <time>2021-07-31T13:14:26.000Z</time>
      </trkpt>
      <trkpt lat="45.29544" lon="5.55955">
        <ele>186.9</ele>
        <time>2021-07-31T13:14:28.000Z</time>
      </trkpt>
      <trkpt lat="45.29533" lon="5.55941">
        <ele>186.6</ele>
        <time>2021-07-31T13:14:30.000Z</time>
      </trkpt>
      <trkpt lat="45.29521" lon="5.55926">
        <ele>186.3</ele>
        <time>2021-07-31T13:14:32.000Z</time>
      </trkpt>
      <trkpt lat="45.29511" lon="5.55912">
        <ele>185.9</ele>
        <time>2021-07-31T13:14:34.000Z</time>
      </trkpt>
      <trkpt lat="45.29501" lon="5.55897">
        <ele>185.5</ele>
        <time>2021-07-31T13:14:36.000Z</time>
      </trkpt>
      <trkpt lat="45.29492" lon="5.55882">
        <ele>185.1</ele>
        <time>2021-07-31T13:14:38.000Z</time>
      </trkpt>
      <trkpt lat="45.29483" lon="5.55865">
        <ele>184.8</ele>
        <time>2021-07-31T13:14:40.000Z</time>
      </trkpt>
      <trkpt lat="45.29477" lon="5.55848">
        <ele>184.5</ele>
        <time>2021-07-31T13:14:42.000Z</time>
      </trkpt>
      <trkpt lat="45.29468" lon="5.55831">
        <ele>184.4</ele>
        <time>2021-07-31T13:14:44.000Z</time>
      </trkpt>
      <trkpt lat="45.29459" lon="5.55814">
        <ele>184.6</ele>
        <time>2021-07-31T13:14:46.000Z</time>
      </trkpt>
      <trkpt lat="45.2945" lon="5.55797">
        <ele>184.8</ele>
        <time>2021-07-31T13:14:48.000Z</time>
      </trkpt>
      <trkpt lat="45.29442" lon="5.55778">
        <ele>184.9</ele>
        <time>2021-07-31T13:14:50.000Z</time>
      </trkpt>
      <trkpt lat="45.29436" lon="5.5576">
        <ele>185</ele>
        <time>2021-07-31T13:14:52.000Z</time>
      </trkpt>
      <trkpt lat="45.2943" lon="5.5574">
        <ele>185</ele>
        <time>2021-07-31T13:14:54.000Z</time>
      </trkpt>
      <trkpt lat="45.29422" lon="5.55722">
        <ele>185</ele>
        <time>2021-07-31T13:14:56.000Z</time>
      </trkpt>
      <trkpt lat="45.29413" lon="5.55704">
        <ele>185.2</ele>
        <time>2021-07-31T13:14:58.000Z</time>
      </trkpt>
      <trkpt lat="45.29407" lon="5.55685">
        <ele>185.5</ele>
        <time>2021-07-31T13:15:00.000Z</time>
      </trkpt>
      <trkpt lat="45.29403" lon="5.55666">
        <ele>185.7</ele>
        <time>2021-07-31T13:15:02.000Z</time>
      </trkpt>
      <trkpt lat="45.29399" lon="5.5565">
        <ele>186</ele>
        <time>2021-07-31T13:15:04.000Z</time>
      </trkpt>
      <trkpt lat="45.29397" lon="5.5563">
        <ele>186.2</ele>
        <time>2021-07-31T13:15:06.000Z</time>
      </trkpt>
      <trkpt lat="45.29393" lon="5.55609">
        <ele>186.5</ele>
        <time>2021-07-31T13:15:08.000Z</time>
      </trkpt>
      <trkpt lat="45.29389" lon="5.5559">
        <ele>186.6</ele>
        <time>2021-07-31T13:15:10.000Z</time>
      </trkpt>
      <trkpt lat="45.29384" lon="5.5557">
        <ele>186.8</ele>
        <time>2021-07-31T13:15:12.000Z</time>
      </trkpt>
      <trkpt lat="45.29379" lon="5.55549">
        <ele>186.9</ele>
        <time>2021-07-31T13:15:14.000Z</time>
      </trkpt>
      <trkpt lat="45.29377" lon="5.55529">
        <ele>187</ele>
        <time>2021-07-31T13:15:16.000Z</time>
      </trkpt>
      <trkpt lat="45.29377" lon="5.55508">
        <ele>187</ele>
        <time>2021-07-31T13:15:18.000Z</time>
      </trkpt>
      <trkpt lat="45.29374" lon="5.55487">
        <ele>187</ele>
        <time>2021-07-31T13:15:20.000Z</time>
      </trkpt>
      <trkpt lat="45.29373" lon="5.55467">
        <ele>187.1</ele>
        <time>2021-07-31T13:15:22.000Z</time>
      </trkpt>
      <trkpt lat="45.29372" lon="5.55445">
        <ele>187.1</ele>
        <time>2021-07-31T13:15:24.000Z</time>
      </trkpt>
      <trkpt lat="45.29371" lon="5.55425">
        <ele>187.1</ele>
        <time>2021-07-31T13:15:26.000Z</time>
      </trkpt>
      <trkpt lat="45.29372" lon="5.55405">
        <ele>187.1</ele>
        <time>2021-07-31T13:15:28.000Z</time>
      </trkpt>
      <trkpt lat="45.29373" lon="5.55386">
        <ele>187</ele>
        <time>2021-07-31T13:15:30.000Z</time>
      </trkpt>
      <trkpt lat="45.29374" lon="5.55365">
        <ele>187</ele>
        <time>2021-07-31T13:15:32.000Z</time>
      </trkpt>
      <trkpt lat="45.29375" lon="5.55345">
        <ele>187</ele>
        <time>2021-07-31T13:15:34.000Z</time>
      </trkpt>
      <trkpt lat="45.29376" lon="5.55326">
        <ele>186.9</ele>
        <time>2021-07-31T13:15:36.000Z</time>
      </trkpt>
      <trkpt lat="45.29378" lon="5.55306">
        <ele>186.6</ele>
        <time>2021-07-31T13:15:38.000Z</time>
      </trkpt>
      <trkpt lat="45.2938" lon="5.55283">
        <ele>186.3</ele>
        <time>2021-07-31T13:15:40.000Z</time>
      </trkpt>
      <trkpt lat="45.29382" lon="5.55261">
        <ele>186</ele>
        <time>2021-07-31T13:15:42.000Z</time>
      </trkpt>
      <trkpt lat="45.29382" lon="5.55242">
        <ele>185.8</ele>
        <time>2021-07-31T13:15:44.000Z</time>
      </trkpt>
      <trkpt lat="45.29381" lon="5.55222">
        <ele>185.9</ele>
        <time>2021-07-31T13:15:46.000Z</time>
      </trkpt>
      <trkpt lat="45.29381" lon="5.55201">
        <ele>185.9</ele>
        <time>2021-07-31T13:15:48.000Z</time>
      </trkpt>
      <trkpt lat="45.2938" lon="5.5518">
        <ele>185.9</ele>
        <time>2021-07-31T13:15:50.000Z</time>
      </trkpt>
      <trkpt lat="45.29381" lon="5.55158">
        <ele>185.8</ele>
        <time>2021-07-31T13:15:52.000Z</time>
      </trkpt>
      <trkpt lat="45.29384" lon="5.55138">
        <ele>185.6</ele>
        <time>2021-07-31T13:15:54.000Z</time>
      </trkpt>
      <trkpt lat="45.29388" lon="5.55119">
        <ele>185.5</ele>
        <time>2021-07-31T13:15:56.000Z</time>
      </trkpt>
      <trkpt lat="45.29391" lon="5.551">
        <ele>185.4</ele>
        <time>2021-07-31T13:15:58.000Z</time>
      </trkpt>
      <trkpt lat="45.29393" lon="5.5508">
        <ele>185.4</ele>
        <time>2021-07-31T13:16:00.000Z</time>
      </trkpt>
      <trkpt lat="45.29394" lon="5.55061">
        <ele>185.8</ele>
        <time>2021-07-31T13:16:02.000Z</time>
      </trkpt>
      <trkpt lat="45.29394" lon="5.5504">
        <ele>186.2</ele>
        <time>2021-07-31T13:16:04.000Z</time>
      </trkpt>
      <trkpt lat="45.29394" lon="5.5502">
        <ele>186.7</ele>
        <time>2021-07-31T13:16:06.000Z</time>
      </trkpt>
      <trkpt lat="45.29393" lon="5.55">
        <ele>187.2</ele>
        <time>2021-07-31T13:16:08.000Z</time>
      </trkpt>
      <trkpt lat="45.29391" lon="5.54981">
        <ele>187.3</ele>
        <time>2021-07-31T13:16:10.000Z</time>
      </trkpt>
      <trkpt lat="45.2939" lon="5.54961">
        <ele>187.3</ele>
        <time>2021-07-31T13:16:12.000Z</time>
      </trkpt>
      <trkpt lat="45.29389" lon="5.5494">
        <ele>187.3</ele>
        <time>2021-07-31T13:16:14.000Z</time>
      </trkpt>
      <trkpt lat="45.29387" lon="5.5492">
        <ele>187.4</ele>
        <time>2021-07-31T13:16:16.000Z</time>
      </trkpt>
      <trkpt lat="45.29386" lon="5.54901">
        <ele>186.9</ele>
        <time>2021-07-31T13:16:18.000Z</time>
      </trkpt>
      <trkpt lat="45.29384" lon="5.5488">
        <ele>186.1</ele>
        <time>2021-07-31T13:16:20.000Z</time>
      </trkpt>
      <trkpt lat="45.29382" lon="5.5486">
        <ele>185.5</ele>
        <time>2021-07-31T13:16:22.000Z</time>
      </trkpt>
      <trkpt lat="45.2938" lon="5.5484">
        <ele>184.8</ele>
        <time>2021-07-31T13:16:24.000Z</time>
      </trkpt>
      <trkpt lat="45.29377" lon="5.5482">
        <ele>184.7</ele>
        <time>2021-07-31T13:16:26.000Z</time>
      </trkpt>
      <trkpt lat="45.29374" lon="5.54801">
        <ele>184.9</ele>
        <time>2021-07-31T13:16:28.000Z</time>
      </trkpt>
      <trkpt lat="45.29372" lon="5.5478">
        <ele>185.2</ele>
        <time>2021-07-31T13:16:30.000Z</time>
      </trkpt>
      <trkpt lat="45.2937" lon="5.5476">
        <ele>185.4</ele>
        <time>2021-07-31T13:16:32.000Z</time>
      </trkpt>
      <trkpt lat="45.29368" lon="5.5474">
        <ele>185.5</ele>
        <time>2021-07-31T13:16:34.000Z</time>
      </trkpt>
      <trkpt lat="45.29366" lon="5.54718">
        <ele>185.2</ele>
        <time>2021-07-31T13:16:36.000Z</time>
      </trkpt>
      <trkpt lat="45.29365" lon="5.54697">
        <ele>185</ele>
        <time>2021-07-31T13:16:38.000Z</time>
      </trkpt>
      <trkpt lat="45.29364" lon="5.54677">
        <ele>184.8</ele>
        <time>2021-07-31T13:16:40.000Z</time>
      </trkpt>
      <trkpt lat="45.29363" lon="5.54659">
        <ele>184.7</ele>
        <time>2021-07-31T13:16:42.000Z</time>
      </trkpt>
      <trkpt lat="45.2936" lon="5.5464">
        <ele>184.8</ele>
        <time>2021-07-31T13:16:44.000Z</time>
      </trkpt>
      <trkpt lat="45.29359" lon="5.5462">
        <ele>184.9</ele>
        <time>2021-07-31T13:16:46.000Z</time>
      </trkpt>
      <trkpt lat="45.29356" lon="5.546">
        <ele>184.9</ele>
        <time>2021-07-31T13:16:48.000Z</time>
      </trkpt>
      <trkpt lat="45.29354" lon="5.5458">
        <ele>185</ele>
        <time>2021-07-31T13:16:50.000Z</time>
      </trkpt>
      <trkpt lat="45.29353" lon="5.54559">
        <ele>185</ele>
        <time>2021-07-31T13:16:52.000Z</time>
      </trkpt>
      <trkpt lat="45.29352" lon="5.54538">
        <ele>185</ele>
        <time>2021-07-31T13:16:54.000Z</time>
      </trkpt>
      <trkpt lat="45.29349" lon="5.54518">
        <ele>185</ele>
        <time>2021-07-31T13:16:56.000Z</time>
      </trkpt>
      <trkpt lat="45.29345" lon="5.54498">
        <ele>185</ele>
        <time>2021-07-31T13:16:58.000Z</time>
      </trkpt>
      <trkpt lat="45.29342" lon="5.54477">
        <ele>185</ele>
        <time>2021-07-31T13:17:00.000Z</time>
      </trkpt>
      <trkpt lat="45.29339" lon="5.54457">
        <ele>185</ele>
        <time>2021-07-31T13:17:02.000Z</time>
      </trkpt>
      <trkpt lat="45.29336" lon="5.54436">
        <ele>185</ele>
        <time>2021-07-31T13:17:04.000Z</time>
      </trkpt>
      <trkpt lat="45.29334" lon="5.54414">
        <ele>185</ele>
        <time>2021-07-31T13:17:06.000Z</time>
      </trkpt>
      <trkpt lat="45.29331" lon="5.54395">
        <ele>185.4</ele>
        <time>2021-07-31T13:17:08.000Z</time>
      </trkpt>
      <trkpt lat="45.29327" lon="5.54373">
        <ele>185.7</ele>
        <time>2021-07-31T13:17:10.000Z</time>
      </trkpt>
      <trkpt lat="45.29323" lon="5.54355">
        <ele>186</ele>
        <time>2021-07-31T13:17:12.000Z</time>
      </trkpt>
      <trkpt lat="45.2932" lon="5.54334">
        <ele>186.2</ele>
        <time>2021-07-31T13:17:14.000Z</time>
      </trkpt>
      <trkpt lat="45.29317" lon="5.54314">
        <ele>186.4</ele>
        <time>2021-07-31T13:17:16.000Z</time>
      </trkpt>
      <trkpt lat="45.29315" lon="5.54293">
        <ele>186.6</ele>
        <time>2021-07-31T13:17:18.000Z</time>
      </trkpt>
      <trkpt lat="45.29313" lon="5.54271">
        <ele>186.8</ele>
        <time>2021-07-31T13:17:20.000Z</time>
      </trkpt>
      <trkpt lat="45.2931" lon="5.54251">
        <ele>187</ele>
        <time>2021-07-31T13:17:22.000Z</time>
      </trkpt>
      <trkpt lat="45.29307" lon="5.5423">
        <ele>187</ele>
        <time>2021-07-31T13:17:24.000Z</time>
      </trkpt>
      <trkpt lat="45.29303" lon="5.5421">
        <ele>187</ele>
        <time>2021-07-31T13:17:26.000Z</time>
      </trkpt>
      <trkpt lat="45.29299" lon="5.5419">
        <ele>187.2</ele>
        <time>2021-07-31T13:17:28.000Z</time>
      </trkpt>
      <trkpt lat="45.29297" lon="5.54169">
        <ele>187.3</ele>
        <time>2021-07-31T13:17:30.000Z</time>
      </trkpt>
      <trkpt lat="45.29293" lon="5.5415">
        <ele>187.6</ele>
        <time>2021-07-31T13:17:32.000Z</time>
      </trkpt>
      <trkpt lat="45.29291" lon="5.54129">
        <ele>187.7</ele>
        <time>2021-07-31T13:17:34.000Z</time>
      </trkpt>
      <trkpt lat="45.29287" lon="5.54108">
        <ele>187.8</ele>
        <time>2021-07-31T13:17:36.000Z</time>
      </trkpt>
      <trkpt lat="45.29283" lon="5.54086">
        <ele>187.8</ele>
        <time>2021-07-31T13:17:38.000Z</time>
      </trkpt>
      <trkpt lat="45.2928" lon="5.54066">
        <ele>188.2</ele>
        <time>2021-07-31T13:17:40.000Z</time>
      </trkpt>
      <trkpt lat="45.29277" lon="5.54045">
        <ele>188.6</ele>
        <time>2021-07-31T13:17:42.000Z</time>
      </trkpt>
      <trkpt lat="45.29274" lon="5.54025">
        <ele>188.9</ele>
        <time>2021-07-31T13:17:44.000Z</time>
      </trkpt>
      <trkpt lat="45.29272" lon="5.54004">
        <ele>189.2</ele>
        <time>2021-07-31T13:17:46.000Z</time>
      </trkpt>
      <trkpt lat="45.29268" lon="5.53984">
        <ele>189.2</ele>
        <time>2021-07-31T13:17:48.000Z</time>
      </trkpt>
      <trkpt lat="45.29264" lon="5.53963">
        <ele>189.2</ele>
        <time>2021-07-31T13:17:50.000Z</time>
      </trkpt>
      <trkpt lat="45.29259" lon="5.53942">
        <ele>189.2</ele>
        <time>2021-07-31T13:17:52.000Z</time>
      </trkpt>
      <trkpt lat="45.29256" lon="5.53922">
        <ele>189.2</ele>
        <time>2021-07-31T13:17:54.000Z</time>
      </trkpt>
      <trkpt lat="45.29252" lon="5.53901">
        <ele>188.7</ele>
        <time>2021-07-31T13:17:56.000Z</time>
      </trkpt>
      <trkpt lat="45.29248" lon="5.53882">
        <ele>188.1</ele>
        <time>2021-07-31T13:17:58.000Z</time>
      </trkpt>
      <trkpt lat="45.29245" lon="5.53861">
        <ele>187.6</ele>
        <time>2021-07-31T13:18:00.000Z</time>
      </trkpt>
      <trkpt lat="45.29242" lon="5.53842">
        <ele>187.2</ele>
        <time>2021-07-31T13:18:02.000Z</time>
      </trkpt>
      <trkpt lat="45.2924" lon="5.53826">
        <ele>187</ele>
        <time>2021-07-31T13:18:04.000Z</time>
      </trkpt>
      <trkpt lat="45.29235" lon="5.53804">
        <ele>187</ele>
        <time>2021-07-31T13:18:06.000Z</time>
      </trkpt>
      <trkpt lat="45.29232" lon="5.53782">
        <ele>187</ele>
        <time>2021-07-31T13:18:08.000Z</time>
      </trkpt>
      <trkpt lat="45.29226" lon="5.53762">
        <ele>187</ele>
        <time>2021-07-31T13:18:10.000Z</time>
      </trkpt>
      <trkpt lat="45.29222" lon="5.53742">
        <ele>186.9</ele>
        <time>2021-07-31T13:18:12.000Z</time>
      </trkpt>
      <trkpt lat="45.29221" lon="5.53727">
        <ele>186.7</ele>
        <time>2021-07-31T13:18:14.000Z</time>
      </trkpt>
      <trkpt lat="45.29217" lon="5.53708">
        <ele>186.5</ele>
        <time>2021-07-31T13:18:16.000Z</time>
      </trkpt>
      <trkpt lat="45.29213" lon="5.53685">
        <ele>186.2</ele>
        <time>2021-07-31T13:18:18.000Z</time>
      </trkpt>
      <trkpt lat="45.29208" lon="5.53664">
        <ele>186</ele>
        <time>2021-07-31T13:18:20.000Z</time>
      </trkpt>
      <trkpt lat="45.29206" lon="5.53642">
        <ele>185.8</ele>
        <time>2021-07-31T13:18:22.000Z</time>
      </trkpt>
      <trkpt lat="45.29204" lon="5.53619">
        <ele>185.7</ele>
        <time>2021-07-31T13:18:24.000Z</time>
      </trkpt>
      <trkpt lat="45.29201" lon="5.536">
        <ele>185.5</ele>
        <time>2021-07-31T13:18:26.000Z</time>
      </trkpt>
      <trkpt lat="45.29197" lon="5.53579">
        <ele>185.3</ele>
        <time>2021-07-31T13:18:28.000Z</time>
      </trkpt>
      <trkpt lat="45.29191" lon="5.53558">
        <ele>185.1</ele>
        <time>2021-07-31T13:18:30.000Z</time>
      </trkpt>
      <trkpt lat="45.29185" lon="5.53538">
        <ele>185</ele>
        <time>2021-07-31T13:18:32.000Z</time>
      </trkpt>
      <trkpt lat="45.29181" lon="5.53516">
        <ele>184.9</ele>
        <time>2021-07-31T13:18:34.000Z</time>
      </trkpt>
      <trkpt lat="45.29178" lon="5.53496">
        <ele>184.9</ele>
        <time>2021-07-31T13:18:36.000Z</time>
      </trkpt>
      <trkpt lat="45.29174" lon="5.53478">
        <ele>185.1</ele>
        <time>2021-07-31T13:18:38.000Z</time>
      </trkpt>
      <trkpt lat="45.29171" lon="5.53462">
        <ele>185.4</ele>
        <time>2021-07-31T13:18:40.000Z</time>
      </trkpt>
      <trkpt lat="45.29167" lon="5.5344">
        <ele>185.7</ele>
        <time>2021-07-31T13:18:42.000Z</time>
      </trkpt>
      <trkpt lat="45.29162" lon="5.53417">
        <ele>186.1</ele>
        <time>2021-07-31T13:18:44.000Z</time>
      </trkpt>
      <trkpt lat="45.29157" lon="5.53396">
        <ele>186.2</ele>
        <time>2021-07-31T13:18:46.000Z</time>
      </trkpt>
      <trkpt lat="45.29152" lon="5.53374">
        <ele>186.3</ele>
        <time>2021-07-31T13:18:48.000Z</time>
      </trkpt>
      <trkpt lat="45.29146" lon="5.53353">
        <ele>186.3</ele>
        <time>2021-07-31T13:18:50.000Z</time>
      </trkpt>
      <trkpt lat="45.2914" lon="5.53331">
        <ele>186.3</ele>
        <time>2021-07-31T13:18:52.000Z</time>
      </trkpt>
      <trkpt lat="45.29135" lon="5.5331">
        <ele>186</ele>
        <time>2021-07-31T13:18:54.000Z</time>
      </trkpt>
      <trkpt lat="45.29131" lon="5.5329">
        <ele>185.7</ele>
        <time>2021-07-31T13:18:56.000Z</time>
      </trkpt>
      <trkpt lat="45.29126" lon="5.53271">
        <ele>185.3</ele>
        <time>2021-07-31T13:18:58.000Z</time>
      </trkpt>
      <trkpt lat="45.2912" lon="5.53253">
        <ele>185</ele>
        <time>2021-07-31T13:19:00.000Z</time>
      </trkpt>
      <trkpt lat="45.29112" lon="5.53235">
        <ele>185</ele>
        <time>2021-07-31T13:19:02.000Z</time>
      </trkpt>
      <trkpt lat="45.29106" lon="5.53216">
        <ele>185</ele>
        <time>2021-07-31T13:19:04.000Z</time>
      </trkpt>
      <trkpt lat="45.29099" lon="5.53197">
        <ele>185</ele>
        <time>2021-07-31T13:19:06.000Z</time>
      </trkpt>
      <trkpt lat="45.2909" lon="5.53177">
        <ele>185</ele>
        <time>2021-07-31T13:19:08.000Z</time>
      </trkpt>
      <trkpt lat="45.29082" lon="5.53159">
        <ele>185.1</ele>
        <time>2021-07-31T13:19:10.000Z</time>
      </trkpt>
      <trkpt lat="45.29075" lon="5.53141">
        <ele>185.6</ele>
        <time>2021-07-31T13:19:12.000Z</time>
      </trkpt>
      <trkpt lat="45.29067" lon="5.53123">
        <ele>186.1</ele>
        <time>2021-07-31T13:19:14.000Z</time>
      </trkpt>
      <trkpt lat="45.2906" lon="5.53107">
        <ele>186.4</ele>
        <time>2021-07-31T13:19:16.000Z</time>
      </trkpt>
      <trkpt lat="45.29052" lon="5.5309">
        <ele>186.7</ele>
        <time>2021-07-31T13:19:18.000Z</time>
      </trkpt>
      <trkpt lat="45.29044" lon="5.53073">
        <ele>186.9</ele>
        <time>2021-07-31T13:19:20.000Z</time>
      </trkpt>
      <trkpt lat="45.29035" lon="5.53057">
        <ele>186.9</ele>
        <time>2021-07-31T13:19:22.000Z</time>
      </trkpt>
      <trkpt lat="45.29025" lon="5.53041">
        <ele>186.8</ele>
        <time>2021-07-31T13:19:24.000Z</time>
      </trkpt>
      <trkpt lat="45.29014" lon="5.53024">
        <ele>186.6</ele>
        <time>2021-07-31T13:19:26.000Z</time>
      </trkpt>
      <trkpt lat="45.29004" lon="5.53006">
        <ele>186.2</ele>
        <time>2021-07-31T13:19:28.000Z</time>
      </trkpt>
      <trkpt lat="45.28994" lon="5.52988">
        <ele>186</ele>
        <time>2021-07-31T13:19:30.000Z</time>
      </trkpt>
      <trkpt lat="45.28985" lon="5.52972">
        <ele>186.1</ele>
        <time>2021-07-31T13:19:32.000Z</time>
      </trkpt>
      <trkpt lat="45.28976" lon="5.52955">
        <ele>186.2</ele>
        <time>2021-07-31T13:19:34.000Z</time>
      </trkpt>
      <trkpt lat="45.28969" lon="5.52942">
        <ele>186.3</ele>
        <time>2021-07-31T13:19:36.000Z</time>
      </trkpt>
      <trkpt lat="45.28959" lon="5.52929">
        <ele>186.4</ele>
        <time>2021-07-31T13:19:38.000Z</time>
      </trkpt>
      <trkpt lat="45.28949" lon="5.52912">
        <ele>186.6</ele>
        <time>2021-07-31T13:19:40.000Z</time>
      </trkpt>
      <trkpt lat="45.28938" lon="5.52896">
        <ele>186.7</ele>
        <time>2021-07-31T13:19:42.000Z</time>
      </trkpt>
      <trkpt lat="45.28926" lon="5.52882">
        <ele>186.9</ele>
        <time>2021-07-31T13:19:44.000Z</time>
      </trkpt>
      <trkpt lat="45.28914" lon="5.52869">
        <ele>187</ele>
        <time>2021-07-31T13:19:46.000Z</time>
      </trkpt>
      <trkpt lat="45.28902" lon="5.52861">
        <ele>186.8</ele>
        <time>2021-07-31T13:19:48.000Z</time>
      </trkpt>
      <trkpt lat="45.2889" lon="5.52853">
        <ele>186.7</ele>
        <time>2021-07-31T13:19:50.000Z</time>
      </trkpt>
      <trkpt lat="45.28878" lon="5.52848">
        <ele>186.7</ele>
        <time>2021-07-31T13:19:52.000Z</time>
      </trkpt>
      <trkpt lat="45.28865" lon="5.52841">
        <ele>186.8</ele>
        <time>2021-07-31T13:19:54.000Z</time>
      </trkpt>
      <trkpt lat="45.28852" lon="5.52834">
        <ele>187</ele>
        <time>2021-07-31T13:19:56.000Z</time>
      </trkpt>
      <trkpt lat="45.28838" lon="5.52828">
        <ele>187</ele>
        <time>2021-07-31T13:19:58.000Z</time>
      </trkpt>
      <trkpt lat="45.28825" lon="5.52824">
        <ele>187.1</ele>
        <time>2021-07-31T13:20:00.000Z</time>
      </trkpt>
      <trkpt lat="45.28811" lon="5.52816">
        <ele>187.2</ele>
        <time>2021-07-31T13:20:02.000Z</time>
      </trkpt>
      <trkpt lat="45.28797" lon="5.52808">
        <ele>187.3</ele>
        <time>2021-07-31T13:20:04.000Z</time>
      </trkpt>
      <trkpt lat="45.28783" lon="5.52799">
        <ele>187.3</ele>
        <time>2021-07-31T13:20:06.000Z</time>
      </trkpt>
      <trkpt lat="45.28771" lon="5.52789">
        <ele>187.3</ele>
        <time>2021-07-31T13:20:08.000Z</time>
      </trkpt>
      <trkpt lat="45.28761" lon="5.52778">
        <ele>187.3</ele>
        <time>2021-07-31T13:20:10.000Z</time>
      </trkpt>
      <trkpt lat="45.28752" lon="5.52768">
        <ele>187.2</ele>
        <time>2021-07-31T13:20:12.000Z</time>
      </trkpt>
      <trkpt lat="45.28742" lon="5.52757">
        <ele>186.8</ele>
        <time>2021-07-31T13:20:14.000Z</time>
      </trkpt>
      <trkpt lat="45.2873" lon="5.52747">
        <ele>186.3</ele>
        <time>2021-07-31T13:20:16.000Z</time>
      </trkpt>
      <trkpt lat="45.28721" lon="5.52737">
        <ele>186</ele>
        <time>2021-07-31T13:20:18.000Z</time>
      </trkpt>
      <trkpt lat="45.28711" lon="5.52727">
        <ele>185.7</ele>
        <time>2021-07-31T13:20:20.000Z</time>
      </trkpt>
      <trkpt lat="45.28701" lon="5.52717">
        <ele>185.5</ele>
        <time>2021-07-31T13:20:22.000Z</time>
      </trkpt>
      <trkpt lat="45.28692" lon="5.52706">
        <ele>185.3</ele>
        <time>2021-07-31T13:20:24.000Z</time>
      </trkpt>
      <trkpt lat="45.2868" lon="5.52696">
        <ele>185</ele>
        <time>2021-07-31T13:20:26.000Z</time>
      </trkpt>
      <trkpt lat="45.28671" lon="5.52686">
        <ele>184.9</ele>
        <time>2021-07-31T13:20:28.000Z</time>
      </trkpt>
      <trkpt lat="45.28661" lon="5.52678">
        <ele>185</ele>
        <time>2021-07-31T13:20:30.000Z</time>
      </trkpt>
      <trkpt lat="45.28653" lon="5.52671">
        <ele>185.3</ele>
        <time>2021-07-31T13:20:32.000Z</time>
      </trkpt>
      <trkpt lat="45.28647" lon="5.5266">
        <ele>185.5</ele>
        <time>2021-07-31T13:20:34.000Z</time>
      </trkpt>
      <trkpt lat="45.28642" lon="5.52647">
        <ele>185.8</ele>
        <time>2021-07-31T13:20:37.000Z</time>
      </trkpt>
      <trkpt lat="45.28645" lon="5.52632">
        <ele>185.9</ele>
        <time>2021-07-31T13:20:40.000Z</time>
      </trkpt>
      <trkpt lat="45.2865" lon="5.52619">
        <ele>186</ele>
        <time>2021-07-31T13:20:42.000Z</time>
      </trkpt>
      <trkpt lat="45.28655" lon="5.52604">
        <ele>186</ele>
        <time>2021-07-31T13:20:44.000Z</time>
      </trkpt>
      <trkpt lat="45.28661" lon="5.52589">
        <ele>186.1</ele>
        <time>2021-07-31T13:20:46.000Z</time>
      </trkpt>
      <trkpt lat="45.28668" lon="5.52571">
        <ele>186.5</ele>
        <time>2021-07-31T13:20:48.000Z</time>
      </trkpt>
      <trkpt lat="45.28675" lon="5.52551">
        <ele>187.2</ele>
        <time>2021-07-31T13:20:50.000Z</time>
      </trkpt>
      <trkpt lat="45.28683" lon="5.5253">
        <ele>187.7</ele>
        <time>2021-07-31T13:20:52.000Z</time>
      </trkpt>
      <trkpt lat="45.28691" lon="5.52509">
        <ele>188</ele>
        <time>2021-07-31T13:20:54.000Z</time>
      </trkpt>
      <trkpt lat="45.28699" lon="5.52486">
        <ele>187.5</ele>
        <time>2021-07-31T13:20:56.000Z</time>
      </trkpt>
      <trkpt lat="45.28703" lon="5.52475">
        <ele>187</ele>
        <time>2021-07-31T13:20:57.000Z</time>
      </trkpt>
      <trkpt lat="45.28707" lon="5.52463">
        <ele>186.6</ele>
        <time>2021-07-31T13:20:58.000Z</time>
      </trkpt>
      <trkpt lat="45.28711" lon="5.52452">
        <ele>186.3</ele>
        <time>2021-07-31T13:20:59.000Z</time>
      </trkpt>
      <trkpt lat="45.28717" lon="5.52434">
        <ele>185.8</ele>
        <time>2021-07-31T13:21:01.000Z</time>
      </trkpt>
      <trkpt lat="45.28723" lon="5.52416">
        <ele>185.3</ele>
        <time>2021-07-31T13:21:03.000Z</time>
      </trkpt>
      <trkpt lat="45.28731" lon="5.52398">
        <ele>185.2</ele>
        <time>2021-07-31T13:21:05.000Z</time>
      </trkpt>
      <trkpt lat="45.28739" lon="5.52382">
        <ele>185.1</ele>
        <time>2021-07-31T13:21:07.000Z</time>
      </trkpt>
      <trkpt lat="45.28745" lon="5.52364">
        <ele>185.1</ele>
        <time>2021-07-31T13:21:09.000Z</time>
      </trkpt>
      <trkpt lat="45.28752" lon="5.52346">
        <ele>185</ele>
        <time>2021-07-31T13:21:11.000Z</time>
      </trkpt>
      <trkpt lat="45.28759" lon="5.52329">
        <ele>184.8</ele>
        <time>2021-07-31T13:21:13.000Z</time>
      </trkpt>
      <trkpt lat="45.28767" lon="5.52313">
        <ele>184.5</ele>
        <time>2021-07-31T13:21:15.000Z</time>
      </trkpt>
      <trkpt lat="45.28776" lon="5.52297">
        <ele>184.2</ele>
        <time>2021-07-31T13:21:17.000Z</time>
      </trkpt>
      <trkpt lat="45.28785" lon="5.52282">
        <ele>183.9</ele>
        <time>2021-07-31T13:21:19.000Z</time>
      </trkpt>
      <trkpt lat="45.28795" lon="5.52268">
        <ele>183.7</ele>
        <time>2021-07-31T13:21:21.000Z</time>
      </trkpt>
      <trkpt lat="45.28806" lon="5.52255">
        <ele>183.4</ele>
        <time>2021-07-31T13:21:23.000Z</time>
      </trkpt>
      <trkpt lat="45.28816" lon="5.52242">
        <ele>183.3</ele>
        <time>2021-07-31T13:21:25.000Z</time>
      </trkpt>
      <trkpt lat="45.28826" lon="5.5223">
        <ele>183.3</ele>
        <time>2021-07-31T13:21:27.000Z</time>
      </trkpt>
      <trkpt lat="45.28836" lon="5.52216">
        <ele>183.4</ele>
        <time>2021-07-31T13:21:29.000Z</time>
      </trkpt>
      <trkpt lat="45.28844" lon="5.52203">
        <ele>183.7</ele>
        <time>2021-07-31T13:21:31.000Z</time>
      </trkpt>
      <trkpt lat="45.28853" lon="5.52192">
        <ele>183.8</ele>
        <time>2021-07-31T13:21:33.000Z</time>
      </trkpt>
      <trkpt lat="45.2886" lon="5.52176">
        <ele>184</ele>
        <time>2021-07-31T13:21:35.000Z</time>
      </trkpt>
      <trkpt lat="45.28864" lon="5.52158">
        <ele>184</ele>
        <time>2021-07-31T13:21:37.000Z</time>
      </trkpt>
      <trkpt lat="45.28864" lon="5.52138">
        <ele>183.9</ele>
        <time>2021-07-31T13:21:39.000Z</time>
      </trkpt>
      <trkpt lat="45.28865" lon="5.52119">
        <ele>183.8</ele>
        <time>2021-07-31T13:21:41.000Z</time>
      </trkpt>
      <trkpt lat="45.28867" lon="5.52099">
        <ele>183.7</ele>
        <time>2021-07-31T13:21:43.000Z</time>
      </trkpt>
      <trkpt lat="45.28872" lon="5.52081">
        <ele>183.6</ele>
        <time>2021-07-31T13:21:45.000Z</time>
      </trkpt>
      <trkpt lat="45.28876" lon="5.52063">
        <ele>183.6</ele>
        <time>2021-07-31T13:21:47.000Z</time>
      </trkpt>
      <trkpt lat="45.28883" lon="5.52045">
        <ele>183.7</ele>
        <time>2021-07-31T13:21:49.000Z</time>
      </trkpt>
      <trkpt lat="45.2889" lon="5.52027">
        <ele>183.8</ele>
        <time>2021-07-31T13:21:51.000Z</time>
      </trkpt>
      <trkpt lat="45.28896" lon="5.5201">
        <ele>183.9</ele>
        <time>2021-07-31T13:21:53.000Z</time>
      </trkpt>
      <trkpt lat="45.28903" lon="5.51993">
        <ele>184.1</ele>
        <time>2021-07-31T13:21:55.000Z</time>
      </trkpt>
      <trkpt lat="45.2891" lon="5.51975">
        <ele>184.3</ele>
        <time>2021-07-31T13:21:57.000Z</time>
      </trkpt>
      <trkpt lat="45.28918" lon="5.51958">
        <ele>184.5</ele>
        <time>2021-07-31T13:21:59.000Z</time>
      </trkpt>
      <trkpt lat="45.28926" lon="5.5194">
        <ele>184.8</ele>
        <time>2021-07-31T13:22:01.000Z</time>
      </trkpt>
      <trkpt lat="45.28934" lon="5.51922">
        <ele>185.1</ele>
        <time>2021-07-31T13:22:03.000Z</time>
      </trkpt>
      <trkpt lat="45.28942" lon="5.51905">
        <ele>185.4</ele>
        <time>2021-07-31T13:22:05.000Z</time>
      </trkpt>
      <trkpt lat="45.28949" lon="5.51887">
        <ele>185.6</ele>
        <time>2021-07-31T13:22:07.000Z</time>
      </trkpt>
      <trkpt lat="45.28956" lon="5.51868">
        <ele>185.8</ele>
        <time>2021-07-31T13:22:09.000Z</time>
      </trkpt>
      <trkpt lat="45.28964" lon="5.5185">
        <ele>185.9</ele>
        <time>2021-07-31T13:22:11.000Z</time>
      </trkpt>
      <trkpt lat="45.28972" lon="5.51832">
        <ele>186</ele>
        <time>2021-07-31T13:22:13.000Z</time>
      </trkpt>
      <trkpt lat="45.2898" lon="5.51814">
        <ele>185.8</ele>
        <time>2021-07-31T13:22:15.000Z</time>
      </trkpt>
      <trkpt lat="45.28987" lon="5.51797">
        <ele>185.5</ele>
        <time>2021-07-31T13:22:17.000Z</time>
      </trkpt>
      <trkpt lat="45.28995" lon="5.51779">
        <ele>185.3</ele>
        <time>2021-07-31T13:22:19.000Z</time>
      </trkpt>
      <trkpt lat="45.29002" lon="5.51762">
        <ele>185.1</ele>
        <time>2021-07-31T13:22:21.000Z</time>
      </trkpt>
      <trkpt lat="45.2901" lon="5.51744">
        <ele>185</ele>
        <time>2021-07-31T13:22:23.000Z</time>
      </trkpt>
      <trkpt lat="45.29017" lon="5.51726">
        <ele>185</ele>
        <time>2021-07-31T13:22:25.000Z</time>
      </trkpt>
      <trkpt lat="45.29024" lon="5.51708">
        <ele>185</ele>
        <time>2021-07-31T13:22:27.000Z</time>
      </trkpt>
      <trkpt lat="45.29032" lon="5.5169">
        <ele>185</ele>
        <time>2021-07-31T13:22:29.000Z</time>
      </trkpt>
      <trkpt lat="45.2904" lon="5.51674">
        <ele>185</ele>
        <time>2021-07-31T13:22:31.000Z</time>
      </trkpt>
      <trkpt lat="45.29047" lon="5.51657">
        <ele>185</ele>
        <time>2021-07-31T13:22:33.000Z</time>
      </trkpt>
      <trkpt lat="45.29054" lon="5.5164">
        <ele>185</ele>
        <time>2021-07-31T13:22:35.000Z</time>
      </trkpt>
      <trkpt lat="45.29062" lon="5.51623">
        <ele>185</ele>
        <time>2021-07-31T13:22:37.000Z</time>
      </trkpt>
      <trkpt lat="45.2907" lon="5.51604">
        <ele>185</ele>
        <time>2021-07-31T13:22:39.000Z</time>
      </trkpt>
      <trkpt lat="45.29077" lon="5.51587">
        <ele>185</ele>
        <time>2021-07-31T13:22:41.000Z</time>
      </trkpt>
      <trkpt lat="45.29084" lon="5.5157">
        <ele>185.2</ele>
        <time>2021-07-31T13:22:43.000Z</time>
      </trkpt>
      <trkpt lat="45.29091" lon="5.51553">
        <ele>185.5</ele>
        <time>2021-07-31T13:22:45.000Z</time>
      </trkpt>
      <trkpt lat="45.29099" lon="5.51535">
        <ele>185.8</ele>
        <time>2021-07-31T13:22:47.000Z</time>
      </trkpt>
      <trkpt lat="45.29106" lon="5.51516">
        <ele>186.1</ele>
        <time>2021-07-31T13:22:49.000Z</time>
      </trkpt>
      <trkpt lat="45.29114" lon="5.515">
        <ele>186.3</ele>
        <time>2021-07-31T13:22:51.000Z</time>
      </trkpt>
      <trkpt lat="45.29121" lon="5.51483">
        <ele>186.1</ele>
        <time>2021-07-31T13:22:53.000Z</time>
      </trkpt>
      <trkpt lat="45.29129" lon="5.51465">
        <ele>185.9</ele>
        <time>2021-07-31T13:22:55.000Z</time>
      </trkpt>
      <trkpt lat="45.29136" lon="5.51448">
        <ele>185.6</ele>
        <time>2021-07-31T13:22:57.000Z</time>
      </trkpt>
      <trkpt lat="45.29143" lon="5.5143">
        <ele>185.3</ele>
        <time>2021-07-31T13:22:59.000Z</time>
      </trkpt>
      <trkpt lat="45.2915" lon="5.51413">
        <ele>185</ele>
        <time>2021-07-31T13:23:01.000Z</time>
      </trkpt>
      <trkpt lat="45.29157" lon="5.51396">
        <ele>184.8</ele>
        <time>2021-07-31T13:23:03.000Z</time>
      </trkpt>
      <trkpt lat="45.29164" lon="5.5138">
        <ele>184.6</ele>
        <time>2021-07-31T13:23:05.000Z</time>
      </trkpt>
      <trkpt lat="45.29172" lon="5.51364">
        <ele>184.4</ele>
        <time>2021-07-31T13:23:07.000Z</time>
      </trkpt>
      <trkpt lat="45.2918" lon="5.51346">
        <ele>184.3</ele>
        <time>2021-07-31T13:23:09.000Z</time>
      </trkpt>
      <trkpt lat="45.29187" lon="5.51329">
        <ele>184.2</ele>
        <time>2021-07-31T13:23:11.000Z</time>
      </trkpt>
      <trkpt lat="45.29195" lon="5.51312">
        <ele>184.3</ele>
        <time>2021-07-31T13:23:13.000Z</time>
      </trkpt>
      <trkpt lat="45.29202" lon="5.51294">
        <ele>184.2</ele>
        <time>2021-07-31T13:23:15.000Z</time>
      </trkpt>
      <trkpt lat="45.2921" lon="5.51277">
        <ele>184.2</ele>
        <time>2021-07-31T13:23:17.000Z</time>
      </trkpt>
      <trkpt lat="45.29218" lon="5.5126">
        <ele>184.1</ele>
        <time>2021-07-31T13:23:19.000Z</time>
      </trkpt>
      <trkpt lat="45.29225" lon="5.51242">
        <ele>184.1</ele>
        <time>2021-07-31T13:23:21.000Z</time>
      </trkpt>
      <trkpt lat="45.29232" lon="5.51225">
        <ele>184.3</ele>
        <time>2021-07-31T13:23:23.000Z</time>
      </trkpt>
      <trkpt lat="45.29239" lon="5.51208">
        <ele>184.5</ele>
        <time>2021-07-31T13:23:25.000Z</time>
      </trkpt>
      <trkpt lat="45.29246" lon="5.51191">
        <ele>184.7</ele>
        <time>2021-07-31T13:23:27.000Z</time>
      </trkpt>
      <trkpt lat="45.29254" lon="5.51173">
        <ele>184.9</ele>
        <time>2021-07-31T13:23:29.000Z</time>
      </trkpt>
      <trkpt lat="45.2926" lon="5.51156">
        <ele>185.1</ele>
        <time>2021-07-31T13:23:31.000Z</time>
      </trkpt>
      <trkpt lat="45.29268" lon="5.51139">
        <ele>185.4</ele>
        <time>2021-07-31T13:23:33.000Z</time>
      </trkpt>
      <trkpt lat="45.29276" lon="5.51121">
        <ele>185.9</ele>
        <time>2021-07-31T13:23:35.000Z</time>
      </trkpt>
      <trkpt lat="45.29283" lon="5.51104">
        <ele>186.5</ele>
        <time>2021-07-31T13:23:37.000Z</time>
      </trkpt>
      <trkpt lat="45.2929" lon="5.51086">
        <ele>187.3</ele>
        <time>2021-07-31T13:23:39.000Z</time>
      </trkpt>
      <trkpt lat="45.29298" lon="5.51067">
        <ele>187.6</ele>
        <time>2021-07-31T13:23:41.000Z</time>
      </trkpt>
      <trkpt lat="45.29306" lon="5.51048">
        <ele>187.6</ele>
        <time>2021-07-31T13:23:43.000Z</time>
      </trkpt>
      <trkpt lat="45.29315" lon="5.51028">
        <ele>187.7</ele>
        <time>2021-07-31T13:23:45.000Z</time>
      </trkpt>
      <trkpt lat="45.29322" lon="5.51011">
        <ele>187.7</ele>
        <time>2021-07-31T13:23:47.000Z</time>
      </trkpt>
      <trkpt lat="45.2933" lon="5.50993">
        <ele>187.8</ele>
        <time>2021-07-31T13:23:49.000Z</time>
      </trkpt>
      <trkpt lat="45.29338" lon="5.50975">
        <ele>187.6</ele>
        <time>2021-07-31T13:23:51.000Z</time>
      </trkpt>
      <trkpt lat="45.29345" lon="5.50957">
        <ele>187.3</ele>
        <time>2021-07-31T13:23:53.000Z</time>
      </trkpt>
      <trkpt lat="45.29353" lon="5.50939">
        <ele>187</ele>
        <time>2021-07-31T13:23:55.000Z</time>
      </trkpt>
      <trkpt lat="45.2936" lon="5.50922">
        <ele>186.7</ele>
        <time>2021-07-31T13:23:57.000Z</time>
      </trkpt>
      <trkpt lat="45.29368" lon="5.50904">
        <ele>186.5</ele>
        <time>2021-07-31T13:23:59.000Z</time>
      </trkpt>
      <trkpt lat="45.29375" lon="5.50886">
        <ele>186.3</ele>
        <time>2021-07-31T13:24:01.000Z</time>
      </trkpt>
      <trkpt lat="45.29382" lon="5.50869">
        <ele>186.3</ele>
        <time>2021-07-31T13:24:03.000Z</time>
      </trkpt>
      <trkpt lat="45.29389" lon="5.50852">
        <ele>186.3</ele>
        <time>2021-07-31T13:24:05.000Z</time>
      </trkpt>
      <trkpt lat="45.29396" lon="5.50835">
        <ele>186.5</ele>
        <time>2021-07-31T13:24:07.000Z</time>
      </trkpt>
      <trkpt lat="45.29403" lon="5.50819">
        <ele>186.5</ele>
        <time>2021-07-31T13:24:09.000Z</time>
      </trkpt>
      <trkpt lat="45.29413" lon="5.50806">
        <ele>186.6</ele>
        <time>2021-07-31T13:24:11.000Z</time>
      </trkpt>
      <trkpt lat="45.29426" lon="5.50799">
        <ele>186.5</ele>
        <time>2021-07-31T13:24:13.000Z</time>
      </trkpt>
      <trkpt lat="45.2944" lon="5.50796">
        <ele>186.2</ele>
        <time>2021-07-31T13:24:15.000Z</time>
      </trkpt>
      <trkpt lat="45.29451" lon="5.50785">
        <ele>186.1</ele>
        <time>2021-07-31T13:24:17.000Z</time>
      </trkpt>
      <trkpt lat="45.29454" lon="5.50766">
        <ele>186</ele>
        <time>2021-07-31T13:24:19.000Z</time>
      </trkpt>
      <trkpt lat="45.29451" lon="5.50748">
        <ele>186</ele>
        <time>2021-07-31T13:24:21.000Z</time>
      </trkpt>
      <trkpt lat="45.29453" lon="5.50731">
        <ele>186.2</ele>
        <time>2021-07-31T13:24:23.000Z</time>
      </trkpt>
      <trkpt lat="45.29459" lon="5.50715">
        <ele>186.4</ele>
        <time>2021-07-31T13:24:25.000Z</time>
      </trkpt>
      <trkpt lat="45.29466" lon="5.50699">
        <ele>186.6</ele>
        <time>2021-07-31T13:24:27.000Z</time>
      </trkpt>
      <trkpt lat="45.29474" lon="5.50683">
        <ele>186.8</ele>
        <time>2021-07-31T13:24:29.000Z</time>
      </trkpt>
      <trkpt lat="45.2948" lon="5.50668">
        <ele>187</ele>
        <time>2021-07-31T13:24:31.000Z</time>
      </trkpt>
      <trkpt lat="45.29488" lon="5.50653">
        <ele>187.2</ele>
        <time>2021-07-31T13:24:33.000Z</time>
      </trkpt>
      <trkpt lat="45.29495" lon="5.50637">
        <ele>187.4</ele>
        <time>2021-07-31T13:24:35.000Z</time>
      </trkpt>
      <trkpt lat="45.29502" lon="5.50621">
        <ele>187.5</ele>
        <time>2021-07-31T13:24:37.000Z</time>
      </trkpt>
      <trkpt lat="45.29509" lon="5.50606">
        <ele>187.5</ele>
        <time>2021-07-31T13:24:39.000Z</time>
      </trkpt>
      <trkpt lat="45.29515" lon="5.50589">
        <ele>187.6</ele>
        <time>2021-07-31T13:24:41.000Z</time>
      </trkpt>
      <trkpt lat="45.29522" lon="5.50572">
        <ele>187.3</ele>
        <time>2021-07-31T13:24:43.000Z</time>
      </trkpt>
      <trkpt lat="45.29528" lon="5.50557">
        <ele>187</ele>
        <time>2021-07-31T13:24:45.000Z</time>
      </trkpt>
      <trkpt lat="45.29534" lon="5.50541">
        <ele>186.8</ele>
        <time>2021-07-31T13:24:47.000Z</time>
      </trkpt>
      <trkpt lat="45.29541" lon="5.50525">
        <ele>186.6</ele>
        <time>2021-07-31T13:24:49.000Z</time>
      </trkpt>
      <trkpt lat="45.29547" lon="5.50512">
        <ele>186.6</ele>
        <time>2021-07-31T13:24:51.000Z</time>
      </trkpt>
      <trkpt lat="45.29554" lon="5.50497">
        <ele>186.7</ele>
        <time>2021-07-31T13:24:53.000Z</time>
      </trkpt>
      <trkpt lat="45.29561" lon="5.50483">
        <ele>187.1</ele>
        <time>2021-07-31T13:24:55.000Z</time>
      </trkpt>
      <trkpt lat="45.29567" lon="5.50467">
        <ele>187.5</ele>
        <time>2021-07-31T13:24:57.000Z</time>
      </trkpt>
      <trkpt lat="45.29573" lon="5.50452">
        <ele>188</ele>
        <time>2021-07-31T13:24:59.000Z</time>
      </trkpt>
      <trkpt lat="45.29579" lon="5.50437">
        <ele>188.4</ele>
        <time>2021-07-31T13:25:01.000Z</time>
      </trkpt>
      <trkpt lat="45.29585" lon="5.50422">
        <ele>188.8</ele>
        <time>2021-07-31T13:25:03.000Z</time>
      </trkpt>
      <trkpt lat="45.29592" lon="5.50406">
        <ele>188.8</ele>
        <time>2021-07-31T13:25:05.000Z</time>
      </trkpt>
      <trkpt lat="45.29597" lon="5.5039">
        <ele>188.7</ele>
        <time>2021-07-31T13:25:07.000Z</time>
      </trkpt>
      <trkpt lat="45.29604" lon="5.50376">
        <ele>188.5</ele>
        <time>2021-07-31T13:25:09.000Z</time>
      </trkpt>
      <trkpt lat="45.29611" lon="5.50361">
        <ele>188.3</ele>
        <time>2021-07-31T13:25:11.000Z</time>
      </trkpt>
      <trkpt lat="45.29617" lon="5.50345">
        <ele>188.2</ele>
        <time>2021-07-31T13:25:13.000Z</time>
      </trkpt>
      <trkpt lat="45.29625" lon="5.50332">
        <ele>188</ele>
        <time>2021-07-31T13:25:15.000Z</time>
      </trkpt>
      <trkpt lat="45.29632" lon="5.50316">
        <ele>188</ele>
        <time>2021-07-31T13:25:17.000Z</time>
      </trkpt>
      <trkpt lat="45.29639" lon="5.50299">
        <ele>188</ele>
        <time>2021-07-31T13:25:19.000Z</time>
      </trkpt>
      <trkpt lat="45.29645" lon="5.50281">
        <ele>188</ele>
        <time>2021-07-31T13:25:21.000Z</time>
      </trkpt>
      <trkpt lat="45.29652" lon="5.50266">
        <ele>188</ele>
        <time>2021-07-31T13:25:23.000Z</time>
      </trkpt>
      <trkpt lat="45.2966" lon="5.50251">
        <ele>188.1</ele>
        <time>2021-07-31T13:25:25.000Z</time>
      </trkpt>
      <trkpt lat="45.29667" lon="5.50236">
        <ele>188.3</ele>
        <time>2021-07-31T13:25:27.000Z</time>
      </trkpt>
      <trkpt lat="45.29674" lon="5.50221">
        <ele>188.7</ele>
        <time>2021-07-31T13:25:29.000Z</time>
      </trkpt>
      <trkpt lat="45.2968" lon="5.50205">
        <ele>188.9</ele>
        <time>2021-07-31T13:25:31.000Z</time>
      </trkpt>
      <trkpt lat="45.29686" lon="5.50192">
        <ele>189.1</ele>
        <time>2021-07-31T13:25:33.000Z</time>
      </trkpt>
      <trkpt lat="45.29691" lon="5.50178">
        <ele>189.2</ele>
        <time>2021-07-31T13:25:35.000Z</time>
      </trkpt>
      <trkpt lat="45.29694" lon="5.50161">
        <ele>189.3</ele>
        <time>2021-07-31T13:25:38.000Z</time>
      </trkpt>
      <trkpt lat="45.29694" lon="5.50142">
        <ele>189.3</ele>
        <time>2021-07-31T13:25:41.000Z</time>
      </trkpt>
      <trkpt lat="45.297" lon="5.50127">
        <ele>189.2</ele>
        <time>2021-07-31T13:25:44.000Z</time>
      </trkpt>
      <trkpt lat="45.29705" lon="5.50115">
        <ele>189.1</ele>
        <time>2021-07-31T13:25:46.000Z</time>
      </trkpt>
      <trkpt lat="45.2971" lon="5.50103">
        <ele>188.9</ele>
        <time>2021-07-31T13:25:48.000Z</time>
      </trkpt>
      <trkpt lat="45.29716" lon="5.5009">
        <ele>188.8</ele>
        <time>2021-07-31T13:25:50.000Z</time>
      </trkpt>
      <trkpt lat="45.29722" lon="5.50076">
        <ele>188.8</ele>
        <time>2021-07-31T13:25:52.000Z</time>
      </trkpt>
      <trkpt lat="45.29728" lon="5.50062">
        <ele>189</ele>
        <time>2021-07-31T13:25:54.000Z</time>
      </trkpt>
      <trkpt lat="45.29734" lon="5.50049">
        <ele>189.1</ele>
        <time>2021-07-31T13:25:56.000Z</time>
      </trkpt>
      <trkpt lat="45.29739" lon="5.50036">
        <ele>189.3</ele>
        <time>2021-07-31T13:25:58.000Z</time>
      </trkpt>
      <trkpt lat="45.29744" lon="5.50025">
        <ele>189.5</ele>
        <time>2021-07-31T13:26:00.000Z</time>
      </trkpt>
      <trkpt lat="45.29749" lon="5.50012">
        <ele>189.7</ele>
        <time>2021-07-31T13:26:02.000Z</time>
      </trkpt>
      <trkpt lat="45.29754" lon="5.49998">
        <ele>190.1</ele>
        <time>2021-07-31T13:26:04.000Z</time>
      </trkpt>
      <trkpt lat="45.29761" lon="5.49985">
        <ele>190.7</ele>
        <time>2021-07-31T13:26:06.000Z</time>
      </trkpt>
      <trkpt lat="45.29767" lon="5.49974">
        <ele>191.1</ele>
        <time>2021-07-31T13:26:08.000Z</time>
      </trkpt>
      <trkpt lat="45.29773" lon="5.49962">
        <ele>191.6</ele>
        <time>2021-07-31T13:26:10.000Z</time>
      </trkpt>
      <trkpt lat="45.29779" lon="5.49948">
        <ele>192</ele>
        <time>2021-07-31T13:26:12.000Z</time>
      </trkpt>
      <trkpt lat="45.29784" lon="5.49934">
        <ele>192.5</ele>
        <time>2021-07-31T13:26:14.000Z</time>
      </trkpt>
      <trkpt lat="45.2979" lon="5.4992">
        <ele>192.9</ele>
        <time>2021-07-31T13:26:16.000Z</time>
      </trkpt>
      <trkpt lat="45.29796" lon="5.49909">
        <ele>193</ele>
        <time>2021-07-31T13:26:18.000Z</time>
      </trkpt>
      <trkpt lat="45.29802" lon="5.49896">
        <ele>193</ele>
        <time>2021-07-31T13:26:20.000Z</time>
      </trkpt>
      <trkpt lat="45.29807" lon="5.49883">
        <ele>193</ele>
        <time>2021-07-31T13:26:22.000Z</time>
      </trkpt>
      <trkpt lat="45.29813" lon="5.49868">
        <ele>193</ele>
        <time>2021-07-31T13:26:24.000Z</time>
      </trkpt>
      <trkpt lat="45.2982" lon="5.49854">
        <ele>193</ele>
        <time>2021-07-31T13:26:26.000Z</time>
      </trkpt>
      <trkpt lat="45.29827" lon="5.49838">
        <ele>193</ele>
        <time>2021-07-31T13:26:28.000Z</time>
      </trkpt>
      <trkpt lat="45.29834" lon="5.49824">
        <ele>193</ele>
        <time>2021-07-31T13:26:30.000Z</time>
      </trkpt>
      <trkpt lat="45.2984" lon="5.49808">
        <ele>193.1</ele>
        <time>2021-07-31T13:26:32.000Z</time>
      </trkpt>
      <trkpt lat="45.29846" lon="5.49793">
        <ele>193.2</ele>
        <time>2021-07-31T13:26:34.000Z</time>
      </trkpt>
      <trkpt lat="45.29852" lon="5.49779">
        <ele>193.3</ele>
        <time>2021-07-31T13:26:36.000Z</time>
      </trkpt>
      <trkpt lat="45.29858" lon="5.49764">
        <ele>193.3</ele>
        <time>2021-07-31T13:26:38.000Z</time>
      </trkpt>
      <trkpt lat="45.29864" lon="5.49749">
        <ele>193.4</ele>
        <time>2021-07-31T13:26:40.000Z</time>
      </trkpt>
      <trkpt lat="45.2987" lon="5.49734">
        <ele>193.7</ele>
        <time>2021-07-31T13:26:42.000Z</time>
      </trkpt>
      <trkpt lat="45.29876" lon="5.49718">
        <ele>193.9</ele>
        <time>2021-07-31T13:26:44.000Z</time>
      </trkpt>
      <trkpt lat="45.29882" lon="5.49704">
        <ele>194.1</ele>
        <time>2021-07-31T13:26:46.000Z</time>
      </trkpt>
      <trkpt lat="45.29887" lon="5.49689">
        <ele>194.2</ele>
        <time>2021-07-31T13:26:48.000Z</time>
      </trkpt>
      <trkpt lat="45.29894" lon="5.49674">
        <ele>194.2</ele>
        <time>2021-07-31T13:26:50.000Z</time>
      </trkpt>
      <trkpt lat="45.299" lon="5.49658">
        <ele>194.3</ele>
        <time>2021-07-31T13:26:52.000Z</time>
      </trkpt>
      <trkpt lat="45.29906" lon="5.49642">
        <ele>194.4</ele>
        <time>2021-07-31T13:26:54.000Z</time>
      </trkpt>
      <trkpt lat="45.29912" lon="5.49627">
        <ele>194.5</ele>
        <time>2021-07-31T13:26:56.000Z</time>
      </trkpt>
      <trkpt lat="45.29918" lon="5.49609">
        <ele>194.7</ele>
        <time>2021-07-31T13:26:58.000Z</time>
      </trkpt>
      <trkpt lat="45.29924" lon="5.49591">
        <ele>195</ele>
        <time>2021-07-31T13:27:00.000Z</time>
      </trkpt>
      <trkpt lat="45.2993" lon="5.49574">
        <ele>195.5</ele>
        <time>2021-07-31T13:27:02.000Z</time>
      </trkpt>
      <trkpt lat="45.29936" lon="5.49556">
        <ele>196.1</ele>
        <time>2021-07-31T13:27:04.000Z</time>
      </trkpt>
      <trkpt lat="45.29941" lon="5.49539">
        <ele>196.6</ele>
        <time>2021-07-31T13:27:06.000Z</time>
      </trkpt>
      <trkpt lat="45.29945" lon="5.49522">
        <ele>197</ele>
        <time>2021-07-31T13:27:08.000Z</time>
      </trkpt>
      <trkpt lat="45.29949" lon="5.49504">
        <ele>197.5</ele>
        <time>2021-07-31T13:27:10.000Z</time>
      </trkpt>
      <trkpt lat="45.29954" lon="5.49486">
        <ele>197.5</ele>
        <time>2021-07-31T13:27:12.000Z</time>
      </trkpt>
      <trkpt lat="45.2996" lon="5.4947">
        <ele>197.3</ele>
        <time>2021-07-31T13:27:14.000Z</time>
      </trkpt>
      <trkpt lat="45.29963" lon="5.49453">
        <ele>197.1</ele>
        <time>2021-07-31T13:27:16.000Z</time>
      </trkpt>
      <trkpt lat="45.29967" lon="5.49436">
        <ele>196.9</ele>
        <time>2021-07-31T13:27:18.000Z</time>
      </trkpt>
      <trkpt lat="45.29971" lon="5.4942">
        <ele>196.7</ele>
        <time>2021-07-31T13:27:20.000Z</time>
      </trkpt>
      <trkpt lat="45.29975" lon="5.49403">
        <ele>196.7</ele>
        <time>2021-07-31T13:27:22.000Z</time>
      </trkpt>
      <trkpt lat="45.29979" lon="5.49387">
        <ele>196.8</ele>
        <time>2021-07-31T13:27:24.000Z</time>
      </trkpt>
      <trkpt lat="45.29982" lon="5.4937">
        <ele>196.9</ele>
        <time>2021-07-31T13:27:26.000Z</time>
      </trkpt>
      <trkpt lat="45.29985" lon="5.49354">
        <ele>197</ele>
        <time>2021-07-31T13:27:28.000Z</time>
      </trkpt>
      <trkpt lat="45.29989" lon="5.49339">
        <ele>197.1</ele>
        <time>2021-07-31T13:27:30.000Z</time>
      </trkpt>
      <trkpt lat="45.29992" lon="5.49323">
        <ele>197.7</ele>
        <time>2021-07-31T13:27:32.000Z</time>
      </trkpt>
      <trkpt lat="45.29996" lon="5.49305">
        <ele>198.7</ele>
        <time>2021-07-31T13:27:34.000Z</time>
      </trkpt>
      <trkpt lat="45.3" lon="5.49288">
        <ele>199.7</ele>
        <time>2021-07-31T13:27:36.000Z</time>
      </trkpt>
      <trkpt lat="45.30004" lon="5.49272">
        <ele>200.6</ele>
        <time>2021-07-31T13:27:38.000Z</time>
      </trkpt>
      <trkpt lat="45.30008" lon="5.49254">
        <ele>201.5</ele>
        <time>2021-07-31T13:27:40.000Z</time>
      </trkpt>
      <trkpt lat="45.30013" lon="5.49238">
        <ele>201.6</ele>
        <time>2021-07-31T13:27:42.000Z</time>
      </trkpt>
      <trkpt lat="45.30018" lon="5.4922">
        <ele>201.4</ele>
        <time>2021-07-31T13:27:44.000Z</time>
      </trkpt>
      <trkpt lat="45.30023" lon="5.49202">
        <ele>201.3</ele>
        <time>2021-07-31T13:27:46.000Z</time>
      </trkpt>
      <trkpt lat="45.30027" lon="5.49181">
        <ele>201.3</ele>
        <time>2021-07-31T13:27:48.000Z</time>
      </trkpt>
      <trkpt lat="45.30035" lon="5.49165">
        <ele>201.2</ele>
        <time>2021-07-31T13:27:50.000Z</time>
      </trkpt>
      <trkpt lat="45.30045" lon="5.49159">
        <ele>201</ele>
        <time>2021-07-31T13:27:52.000Z</time>
      </trkpt>
      <trkpt lat="45.30055" lon="5.4916">
        <ele>200.8</ele>
        <time>2021-07-31T13:27:54.000Z</time>
      </trkpt>
      <trkpt lat="45.30064" lon="5.49165">
        <ele>200.5</ele>
        <time>2021-07-31T13:27:56.000Z</time>
      </trkpt>
      <trkpt lat="45.30071" lon="5.49172">
        <ele>200.2</ele>
        <time>2021-07-31T13:27:58.000Z</time>
      </trkpt>
      <trkpt lat="45.30083" lon="5.4918">
        <ele>199.8</ele>
        <time>2021-07-31T13:28:01.000Z</time>
      </trkpt>
      <trkpt lat="45.30095" lon="5.49185">
        <ele>199.8</ele>
        <time>2021-07-31T13:28:04.000Z</time>
      </trkpt>
      <trkpt lat="45.30107" lon="5.49175">
        <ele>199.9</ele>
        <time>2021-07-31T13:28:07.000Z</time>
      </trkpt>
      <trkpt lat="45.30112" lon="5.4916">
        <ele>200.2</ele>
        <time>2021-07-31T13:28:09.000Z</time>
      </trkpt>
      <trkpt lat="45.30117" lon="5.49146">
        <ele>200.8</ele>
        <time>2021-07-31T13:28:11.000Z</time>
      </trkpt>
      <trkpt lat="45.30123" lon="5.49132">
        <ele>201.4</ele>
        <time>2021-07-31T13:28:13.000Z</time>
      </trkpt>
      <trkpt lat="45.30127" lon="5.49116">
        <ele>202.2</ele>
        <time>2021-07-31T13:28:15.000Z</time>
      </trkpt>
      <trkpt lat="45.30131" lon="5.49102">
        <ele>202.9</ele>
        <time>2021-07-31T13:28:17.000Z</time>
      </trkpt>
      <trkpt lat="45.30137" lon="5.49091">
        <ele>203.6</ele>
        <time>2021-07-31T13:28:19.000Z</time>
      </trkpt>
      <trkpt lat="45.30144" lon="5.49075">
        <ele>204.5</ele>
        <time>2021-07-31T13:28:22.000Z</time>
      </trkpt>
      <trkpt lat="45.30148" lon="5.49058">
        <ele>205.2</ele>
        <time>2021-07-31T13:28:25.000Z</time>
      </trkpt>
      <trkpt lat="45.30144" lon="5.49043">
        <ele>205.5</ele>
        <time>2021-07-31T13:28:28.000Z</time>
      </trkpt>
      <trkpt lat="45.30135" lon="5.49031">
        <ele>205.5</ele>
        <time>2021-07-31T13:28:30.000Z</time>
      </trkpt>
      <trkpt lat="45.30123" lon="5.49026">
        <ele>205.2</ele>
        <time>2021-07-31T13:28:32.000Z</time>
      </trkpt>
      <trkpt lat="45.3011" lon="5.49022">
        <ele>204.7</ele>
        <time>2021-07-31T13:28:34.000Z</time>
      </trkpt>
      <trkpt lat="45.30098" lon="5.49013">
        <ele>204.4</ele>
        <time>2021-07-31T13:28:36.000Z</time>
      </trkpt>
      <trkpt lat="45.30091" lon="5.48996">
        <ele>204.7</ele>
        <time>2021-07-31T13:28:38.000Z</time>
      </trkpt>
      <trkpt lat="45.30091" lon="5.4898">
        <ele>206.1</ele>
        <time>2021-07-31T13:28:40.000Z</time>
      </trkpt>
      <trkpt lat="45.30092" lon="5.48964">
        <ele>207.5</ele>
        <time>2021-07-31T13:28:42.000Z</time>
      </trkpt>
      <trkpt lat="45.30093" lon="5.4895">
        <ele>208.8</ele>
        <time>2021-07-31T13:28:44.000Z</time>
      </trkpt>
      <trkpt lat="45.30092" lon="5.48935">
        <ele>210.1</ele>
        <time>2021-07-31T13:28:46.000Z</time>
      </trkpt>
      <trkpt lat="45.30091" lon="5.4892">
        <ele>211.2</ele>
        <time>2021-07-31T13:28:48.000Z</time>
      </trkpt>
      <trkpt lat="45.30093" lon="5.48906">
        <ele>212.3</ele>
        <time>2021-07-31T13:28:50.000Z</time>
      </trkpt>
      <trkpt lat="45.30094" lon="5.48892">
        <ele>213.3</ele>
        <time>2021-07-31T13:28:52.000Z</time>
      </trkpt>
      <trkpt lat="45.30093" lon="5.48876">
        <ele>214.2</ele>
        <time>2021-07-31T13:28:54.000Z</time>
      </trkpt>
      <trkpt lat="45.30092" lon="5.48861">
        <ele>215.1</ele>
        <time>2021-07-31T13:28:56.000Z</time>
      </trkpt>
      <trkpt lat="45.30093" lon="5.48842">
        <ele>216.2</ele>
        <time>2021-07-31T13:28:59.000Z</time>
      </trkpt>
      <trkpt lat="45.30092" lon="5.48829">
        <ele>216.9</ele>
        <time>2021-07-31T13:29:01.000Z</time>
      </trkpt>
      <trkpt lat="45.30086" lon="5.48813">
        <ele>217.4</ele>
        <time>2021-07-31T13:29:04.000Z</time>
      </trkpt>
      <trkpt lat="45.30078" lon="5.48805">
        <ele>217.2</ele>
        <time>2021-07-31T13:29:06.000Z</time>
      </trkpt>
      <trkpt lat="45.30073" lon="5.48795">
        <ele>217.3</ele>
        <time>2021-07-31T13:29:08.000Z</time>
      </trkpt>
      <trkpt lat="45.30067" lon="5.48783">
        <ele>217.3</ele>
        <time>2021-07-31T13:29:10.000Z</time>
      </trkpt>
      <trkpt lat="45.30061" lon="5.48771">
        <ele>217.2</ele>
        <time>2021-07-31T13:29:12.000Z</time>
      </trkpt>
      <trkpt lat="45.30054" lon="5.48759">
        <ele>217.1</ele>
        <time>2021-07-31T13:29:14.000Z</time>
      </trkpt>
      <trkpt lat="45.30049" lon="5.48746">
        <ele>217.1</ele>
        <time>2021-07-31T13:29:16.000Z</time>
      </trkpt>
      <trkpt lat="45.30044" lon="5.48733">
        <ele>217.1</ele>
        <time>2021-07-31T13:29:18.000Z</time>
      </trkpt>
      <trkpt lat="45.30038" lon="5.48721">
        <ele>216.9</ele>
        <time>2021-07-31T13:29:20.000Z</time>
      </trkpt>
      <trkpt lat="45.30032" lon="5.48711">
        <ele>216.7</ele>
        <time>2021-07-31T13:29:22.000Z</time>
      </trkpt>
      <trkpt lat="45.30027" lon="5.487">
        <ele>216.4</ele>
        <time>2021-07-31T13:29:24.000Z</time>
      </trkpt>
      <trkpt lat="45.30021" lon="5.48689">
        <ele>216</ele>
        <time>2021-07-31T13:29:26.000Z</time>
      </trkpt>
      <trkpt lat="45.30012" lon="5.48675">
        <ele>215.5</ele>
        <time>2021-07-31T13:29:29.000Z</time>
      </trkpt>
      <trkpt lat="45.30005" lon="5.48662">
        <ele>215.2</ele>
        <time>2021-07-31T13:29:32.000Z</time>
      </trkpt>
      <trkpt lat="45.3" lon="5.48651">
        <ele>215.6</ele>
        <time>2021-07-31T13:29:34.000Z</time>
      </trkpt>
      <trkpt lat="45.29994" lon="5.48636">
        <ele>216.6</ele>
        <time>2021-07-31T13:29:37.000Z</time>
      </trkpt>
      <trkpt lat="45.29988" lon="5.48621">
        <ele>217.6</ele>
        <time>2021-07-31T13:29:40.000Z</time>
      </trkpt>
      <trkpt lat="45.29982" lon="5.48605">
        <ele>218.6</ele>
        <time>2021-07-31T13:29:43.000Z</time>
      </trkpt>
      <trkpt lat="45.29975" lon="5.4859">
        <ele>219.3</ele>
        <time>2021-07-31T13:29:46.000Z</time>
      </trkpt>
      <trkpt lat="45.29969" lon="5.48579">
        <ele>219.8</ele>
        <time>2021-07-31T13:29:49.000Z</time>
      </trkpt>
      <trkpt lat="45.29961" lon="5.48569">
        <ele>220.3</ele>
        <time>2021-07-31T13:29:52.000Z</time>
      </trkpt>
      <trkpt lat="45.29953" lon="5.48561">
        <ele>220.6</ele>
        <time>2021-07-31T13:29:55.000Z</time>
      </trkpt>
      <trkpt lat="45.29945" lon="5.48553">
        <ele>220.8</ele>
        <time>2021-07-31T13:29:58.000Z</time>
      </trkpt>
      <trkpt lat="45.29936" lon="5.48545">
        <ele>220.9</ele>
        <time>2021-07-31T13:30:01.000Z</time>
      </trkpt>
      <trkpt lat="45.29926" lon="5.48539">
        <ele>220.6</ele>
        <time>2021-07-31T13:30:04.000Z</time>
      </trkpt>
      <trkpt lat="45.29915" lon="5.48534">
        <ele>220.3</ele>
        <time>2021-07-31T13:30:07.000Z</time>
      </trkpt>
      <trkpt lat="45.29905" lon="5.48529">
        <ele>220.7</ele>
        <time>2021-07-31T13:30:10.000Z</time>
      </trkpt>
      <trkpt lat="45.29894" lon="5.48526">
        <ele>220.9</ele>
        <time>2021-07-31T13:30:13.000Z</time>
      </trkpt>
      <trkpt lat="45.29885" lon="5.48522">
        <ele>221.1</ele>
        <time>2021-07-31T13:30:16.000Z</time>
      </trkpt>
      <trkpt lat="45.29875" lon="5.48518">
        <ele>221.1</ele>
        <time>2021-07-31T13:30:19.000Z</time>
      </trkpt>
      <trkpt lat="45.29865" lon="5.48514">
        <ele>221.4</ele>
        <time>2021-07-31T13:30:22.000Z</time>
      </trkpt>
      <trkpt lat="45.29855" lon="5.48508">
        <ele>221.7</ele>
        <time>2021-07-31T13:30:25.000Z</time>
      </trkpt>
      <trkpt lat="45.29844" lon="5.48503">
        <ele>222</ele>
        <time>2021-07-31T13:30:28.000Z</time>
      </trkpt>
      <trkpt lat="45.29833" lon="5.48498">
        <ele>222.3</ele>
        <time>2021-07-31T13:30:31.000Z</time>
      </trkpt>
      <trkpt lat="45.29822" lon="5.48493">
        <ele>222.8</ele>
        <time>2021-07-31T13:30:34.000Z</time>
      </trkpt>
      <trkpt lat="45.29812" lon="5.48489">
        <ele>223.2</ele>
        <time>2021-07-31T13:30:37.000Z</time>
      </trkpt>
      <trkpt lat="45.29801" lon="5.48485">
        <ele>223.6</ele>
        <time>2021-07-31T13:30:40.000Z</time>
      </trkpt>
      <trkpt lat="45.29794" lon="5.48475">
        <ele>224.8</ele>
        <time>2021-07-31T13:30:44.000Z</time>
      </trkpt>
      <trkpt lat="45.29789" lon="5.48463">
        <ele>226.1</ele>
        <time>2021-07-31T13:30:47.000Z</time>
      </trkpt>
      <trkpt lat="45.29789" lon="5.48449">
        <ele>228</ele>
        <time>2021-07-31T13:30:51.000Z</time>
      </trkpt>
      <trkpt lat="45.29789" lon="5.48435">
        <ele>229.7</ele>
        <time>2021-07-31T13:30:55.000Z</time>
      </trkpt>
      <trkpt lat="45.2979" lon="5.4842">
        <ele>231.7</ele>
        <time>2021-07-31T13:30:59.000Z</time>
      </trkpt>
      <trkpt lat="45.29786" lon="5.48409">
        <ele>232.8</ele>
        <time>2021-07-31T13:31:02.000Z</time>
      </trkpt>
      <trkpt lat="45.29779" lon="5.48399">
        <ele>233.8</ele>
        <time>2021-07-31T13:31:05.000Z</time>
      </trkpt>
      <trkpt lat="45.29775" lon="5.48385">
        <ele>235.2</ele>
        <time>2021-07-31T13:31:09.000Z</time>
      </trkpt>
      <trkpt lat="45.29777" lon="5.48368">
        <ele>236.9</ele>
        <time>2021-07-31T13:31:13.000Z</time>
      </trkpt>
      <trkpt lat="45.2978" lon="5.48355">
        <ele>238.2</ele>
        <time>2021-07-31T13:31:16.000Z</time>
      </trkpt>
      <trkpt lat="45.29788" lon="5.48346">
        <ele>239.6</ele>
        <time>2021-07-31T13:31:19.000Z</time>
      </trkpt>
      <trkpt lat="45.29794" lon="5.48335">
        <ele>241</ele>
        <time>2021-07-31T13:31:23.000Z</time>
      </trkpt>
      <trkpt lat="45.29799" lon="5.48322">
        <ele>242.1</ele>
        <time>2021-07-31T13:31:27.000Z</time>
      </trkpt>
      <trkpt lat="45.29807" lon="5.48312">
        <ele>243.1</ele>
        <time>2021-07-31T13:31:30.000Z</time>
      </trkpt>
      <trkpt lat="45.29817" lon="5.48307">
        <ele>243.9</ele>
        <time>2021-07-31T13:31:34.000Z</time>
      </trkpt>
      <trkpt lat="45.29826" lon="5.48302">
        <ele>244.6</ele>
        <time>2021-07-31T13:31:37.000Z</time>
      </trkpt>
      <trkpt lat="45.29835" lon="5.48295">
        <ele>245.5</ele>
        <time>2021-07-31T13:31:40.000Z</time>
      </trkpt>
      <trkpt lat="45.29843" lon="5.48286">
        <ele>247.1</ele>
        <time>2021-07-31T13:31:44.000Z</time>
      </trkpt>
      <trkpt lat="45.29851" lon="5.48276">
        <ele>248.9</ele>
        <time>2021-07-31T13:31:48.000Z</time>
      </trkpt>
      <trkpt lat="45.2986" lon="5.48269">
        <ele>250.6</ele>
        <time>2021-07-31T13:31:52.000Z</time>
      </trkpt>
      <trkpt lat="45.29869" lon="5.48259">
        <ele>252.7</ele>
        <time>2021-07-31T13:31:57.000Z</time>
      </trkpt>
      <trkpt lat="45.29877" lon="5.48249">
        <ele>255</ele>
        <time>2021-07-31T13:32:02.000Z</time>
      </trkpt>
      <trkpt lat="45.29885" lon="5.48238">
        <ele>257.4</ele>
        <time>2021-07-31T13:32:07.000Z</time>
      </trkpt>
      <trkpt lat="45.29893" lon="5.48232">
        <ele>259.4</ele>
        <time>2021-07-31T13:32:11.000Z</time>
      </trkpt>
      <trkpt lat="45.29901" lon="5.48223">
        <ele>261.8</ele>
        <time>2021-07-31T13:32:16.000Z</time>
      </trkpt>
      <trkpt lat="45.2991" lon="5.48215">
        <ele>264.3</ele>
        <time>2021-07-31T13:32:21.000Z</time>
      </trkpt>
      <trkpt lat="45.29918" lon="5.48208">
        <ele>266.4</ele>
        <time>2021-07-31T13:32:25.000Z</time>
      </trkpt>
      <trkpt lat="45.29925" lon="5.48197">
        <ele>269.8</ele>
        <time>2021-07-31T13:32:30.000Z</time>
      </trkpt>
      <trkpt lat="45.29934" lon="5.48191">
        <ele>273.1</ele>
        <time>2021-07-31T13:32:35.000Z</time>
      </trkpt>
      <trkpt lat="45.29942" lon="5.48181">
        <ele>276.5</ele>
        <time>2021-07-31T13:32:40.000Z</time>
      </trkpt>
      <trkpt lat="45.2995" lon="5.48175">
        <ele>279.8</ele>
        <time>2021-07-31T13:32:46.000Z</time>
      </trkpt>
      <trkpt lat="45.29954" lon="5.4816">
        <ele>282.1</ele>
        <time>2021-07-31T13:32:51.000Z</time>
      </trkpt>
      <trkpt lat="45.29956" lon="5.48147">
        <ele>283.2</ele>
        <time>2021-07-31T13:32:55.000Z</time>
      </trkpt>
      <trkpt lat="45.29959" lon="5.48132">
        <ele>284.8</ele>
        <time>2021-07-31T13:32:59.000Z</time>
      </trkpt>
      <trkpt lat="45.29964" lon="5.4812">
        <ele>286.8</ele>
        <time>2021-07-31T13:33:03.000Z</time>
      </trkpt>
      <trkpt lat="45.2997" lon="5.48107">
        <ele>289.3</ele>
        <time>2021-07-31T13:33:08.000Z</time>
      </trkpt>
      <trkpt lat="45.29978" lon="5.48099">
        <ele>292</ele>
        <time>2021-07-31T13:33:12.000Z</time>
      </trkpt>
      <trkpt lat="45.29985" lon="5.48089">
        <ele>294.8</ele>
        <time>2021-07-31T13:33:17.000Z</time>
      </trkpt>
      <trkpt lat="45.29993" lon="5.48079">
        <ele>298.9</ele>
        <time>2021-07-31T13:33:23.000Z</time>
      </trkpt>
      <trkpt lat="45.29995" lon="5.48065">
        <ele>302</ele>
        <time>2021-07-31T13:33:28.000Z</time>
      </trkpt>
      <trkpt lat="45.29988" lon="5.48053">
        <ele>302.3</ele>
        <time>2021-07-31T13:33:33.000Z</time>
      </trkpt>
      <trkpt lat="45.29981" lon="5.48042">
        <ele>302.4</ele>
        <time>2021-07-31T13:33:37.000Z</time>
      </trkpt>
      <trkpt lat="45.29976" lon="5.48032">
        <ele>302.6</ele>
        <time>2021-07-31T13:33:41.000Z</time>
      </trkpt>
      <trkpt lat="45.29966" lon="5.48023">
        <ele>301.8</ele>
        <time>2021-07-31T13:33:45.000Z</time>
      </trkpt>
      <trkpt lat="45.29958" lon="5.48016">
        <ele>300.7</ele>
        <time>2021-07-31T13:33:49.000Z</time>
      </trkpt>
      <trkpt lat="45.2995" lon="5.48012">
        <ele>299</ele>
        <time>2021-07-31T13:33:53.000Z</time>
      </trkpt>
      <trkpt lat="45.29943" lon="5.48002">
        <ele>299.2</ele>
        <time>2021-07-31T13:33:58.000Z</time>
      </trkpt>
      <trkpt lat="45.29934" lon="5.47995">
        <ele>298.9</ele>
        <time>2021-07-31T13:34:04.000Z</time>
      </trkpt>
      <trkpt lat="45.29929" lon="5.47984">
        <ele>301.4</ele>
        <time>2021-07-31T13:34:09.000Z</time>
      </trkpt>
      <trkpt lat="45.2992" lon="5.47976">
        <ele>302.4</ele>
        <time>2021-07-31T13:34:14.000Z</time>
      </trkpt>
      <trkpt lat="45.29915" lon="5.47965">
        <ele>305.2</ele>
        <time>2021-07-31T13:34:19.000Z</time>
      </trkpt>
      <trkpt lat="45.29906" lon="5.47957">
        <ele>306.1</ele>
        <time>2021-07-31T13:34:24.000Z</time>
      </trkpt>
      <trkpt lat="45.29901" lon="5.47946">
        <ele>308.7</ele>
        <time>2021-07-31T13:34:28.000Z</time>
      </trkpt>
      <trkpt lat="45.29891" lon="5.47943">
        <ele>307</ele>
        <time>2021-07-31T13:34:33.000Z</time>
      </trkpt>
      <trkpt lat="45.29883" lon="5.47934">
        <ele>307.3</ele>
        <time>2021-07-31T13:34:38.000Z</time>
      </trkpt>
      <trkpt lat="45.29873" lon="5.47928">
        <ele>305.8</ele>
        <time>2021-07-31T13:34:43.000Z</time>
      </trkpt>
      <trkpt lat="45.29867" lon="5.47918">
        <ele>305.8</ele>
        <time>2021-07-31T13:34:48.000Z</time>
      </trkpt>
      <trkpt lat="45.29859" lon="5.47909">
        <ele>305.8</ele>
        <time>2021-07-31T13:34:53.000Z</time>
      </trkpt>
      <trkpt lat="45.29854" lon="5.47896">
        <ele>308.2</ele>
        <time>2021-07-31T13:34:58.000Z</time>
      </trkpt>
      <trkpt lat="45.2985" lon="5.47884">
        <ele>310.7</ele>
        <time>2021-07-31T13:35:02.000Z</time>
      </trkpt>
      <trkpt lat="45.29845" lon="5.47871">
        <ele>312.3</ele>
        <time>2021-07-31T13:35:07.000Z</time>
      </trkpt>
      <trkpt lat="45.2984" lon="5.47859">
        <ele>313.8</ele>
        <time>2021-07-31T13:35:11.000Z</time>
      </trkpt>
      <trkpt lat="45.29835" lon="5.47847">
        <ele>315.1</ele>
        <time>2021-07-31T13:35:16.000Z</time>
      </trkpt>
      <trkpt lat="45.29831" lon="5.47832">
        <ele>318.5</ele>
        <time>2021-07-31T13:35:21.000Z</time>
      </trkpt>
      <trkpt lat="45.29824" lon="5.47824">
        <ele>319.3</ele>
        <time>2021-07-31T13:35:26.000Z</time>
      </trkpt>
      <trkpt lat="45.29815" lon="5.47815">
        <ele>319.4</ele>
        <time>2021-07-31T13:35:32.000Z</time>
      </trkpt>
      <trkpt lat="45.29809" lon="5.47806">
        <ele>320.4</ele>
        <time>2021-07-31T13:35:36.000Z</time>
      </trkpt>
      <trkpt lat="45.29803" lon="5.47796">
        <ele>321.8</ele>
        <time>2021-07-31T13:35:40.000Z</time>
      </trkpt>
      <trkpt lat="45.29797" lon="5.47786">
        <ele>322.9</ele>
        <time>2021-07-31T13:35:44.000Z</time>
      </trkpt>
      <trkpt lat="45.29789" lon="5.47776">
        <ele>322.5</ele>
        <time>2021-07-31T13:35:49.000Z</time>
      </trkpt>
      <trkpt lat="45.2978" lon="5.47769">
        <ele>320.8</ele>
        <time>2021-07-31T13:35:54.000Z</time>
      </trkpt>
      <trkpt lat="45.29769" lon="5.47764">
        <ele>317.2</ele>
        <time>2021-07-31T13:35:59.000Z</time>
      </trkpt>
      <trkpt lat="45.2976" lon="5.47755">
        <ele>315.5</ele>
        <time>2021-07-31T13:36:04.000Z</time>
      </trkpt>
      <trkpt lat="45.29761" lon="5.47742">
        <ele>318.9</ele>
        <time>2021-07-31T13:36:08.000Z</time>
      </trkpt>
      <trkpt lat="45.2977" lon="5.47736">
        <ele>324.8</ele>
        <time>2021-07-31T13:36:12.000Z</time>
      </trkpt>
      <trkpt lat="45.2978" lon="5.4774">
        <ele>328.7</ele>
        <time>2021-07-31T13:36:16.000Z</time>
      </trkpt>
      <trkpt lat="45.29789" lon="5.47746">
        <ele>331.5</ele>
        <time>2021-07-31T13:36:20.000Z</time>
      </trkpt>
      <trkpt lat="45.29798" lon="5.47753">
        <ele>333.6</ele>
        <time>2021-07-31T13:36:24.000Z</time>
      </trkpt>
      <trkpt lat="45.29808" lon="5.47759">
        <ele>335.9</ele>
        <time>2021-07-31T13:36:29.000Z</time>
      </trkpt>
      <trkpt lat="45.29817" lon="5.47765">
        <ele>337.9</ele>
        <time>2021-07-31T13:36:35.000Z</time>
      </trkpt>
      <trkpt lat="45.29826" lon="5.47769">
        <ele>340.7</ele>
        <time>2021-07-31T13:36:40.000Z</time>
      </trkpt>
      <trkpt lat="45.29836" lon="5.47772">
        <ele>344.1</ele>
        <time>2021-07-31T13:36:46.000Z</time>
      </trkpt>
      <trkpt lat="45.29845" lon="5.47778">
        <ele>345.5</ele>
        <time>2021-07-31T13:36:51.000Z</time>
      </trkpt>
      <trkpt lat="45.29855" lon="5.47784">
        <ele>347.6</ele>
        <time>2021-07-31T13:36:56.000Z</time>
      </trkpt>
      <trkpt lat="45.29861" lon="5.47794">
        <ele>347.1</ele>
        <time>2021-07-31T13:37:00.000Z</time>
      </trkpt>
      <trkpt lat="45.2987" lon="5.47799">
        <ele>349.5</ele>
        <time>2021-07-31T13:37:06.000Z</time>
      </trkpt>
      <trkpt lat="45.29879" lon="5.47806">
        <ele>351.6</ele>
        <time>2021-07-31T13:37:10.000Z</time>
      </trkpt>
      <trkpt lat="45.29888" lon="5.47814">
        <ele>353.6</ele>
        <time>2021-07-31T13:37:14.000Z</time>
      </trkpt>
      <trkpt lat="45.29898" lon="5.47819">
        <ele>356.5</ele>
        <time>2021-07-31T13:37:18.000Z</time>
      </trkpt>
      <trkpt lat="45.29904" lon="5.47831">
        <ele>356.4</ele>
        <time>2021-07-31T13:37:24.000Z</time>
      </trkpt>
      <trkpt lat="45.29913" lon="5.47839">
        <ele>357.6</ele>
        <time>2021-07-31T13:37:29.000Z</time>
      </trkpt>
      <trkpt lat="45.29922" lon="5.47846">
        <ele>357.3</ele>
        <time>2021-07-31T13:37:34.000Z</time>
      </trkpt>
      <trkpt lat="45.2993" lon="5.47852">
        <ele>355.3</ele>
        <time>2021-07-31T13:37:38.000Z</time>
      </trkpt>
      <trkpt lat="45.29938" lon="5.47859">
        <ele>352.9</ele>
        <time>2021-07-31T13:37:42.000Z</time>
      </trkpt>
      <trkpt lat="45.29946" lon="5.47866">
        <ele>351.9</ele>
        <time>2021-07-31T13:37:46.000Z</time>
      </trkpt>
      <trkpt lat="45.29954" lon="5.47871">
        <ele>350.7</ele>
        <time>2021-07-31T13:37:50.000Z</time>
      </trkpt>
      <trkpt lat="45.29962" lon="5.4788">
        <ele>348.9</ele>
        <time>2021-07-31T13:37:54.000Z</time>
      </trkpt>
      <trkpt lat="45.29972" lon="5.47888">
        <ele>347.3</ele>
        <time>2021-07-31T13:37:59.000Z</time>
      </trkpt>
      <trkpt lat="45.2998" lon="5.47894">
        <ele>347.1</ele>
        <time>2021-07-31T13:38:03.000Z</time>
      </trkpt>
      <trkpt lat="45.29988" lon="5.47899">
        <ele>347.1</ele>
        <time>2021-07-31T13:38:07.000Z</time>
      </trkpt>
      <trkpt lat="45.29998" lon="5.47907">
        <ele>346.6</ele>
        <time>2021-07-31T13:38:12.000Z</time>
      </trkpt>
      <trkpt lat="45.30007" lon="5.47913">
        <ele>345.4</ele>
        <time>2021-07-31T13:38:16.000Z</time>
      </trkpt>
      <trkpt lat="45.30015" lon="5.4792">
        <ele>343.8</ele>
        <time>2021-07-31T13:38:21.000Z</time>
      </trkpt>
      <trkpt lat="45.30024" lon="5.47928">
        <ele>341.9</ele>
        <time>2021-07-31T13:38:26.000Z</time>
      </trkpt>
      <trkpt lat="45.30033" lon="5.47938">
        <ele>339.5</ele>
        <time>2021-07-31T13:38:31.000Z</time>
      </trkpt>
      <trkpt lat="45.30042" lon="5.47946">
        <ele>338.1</ele>
        <time>2021-07-31T13:38:36.000Z</time>
      </trkpt>
      <trkpt lat="45.3005" lon="5.47951">
        <ele>337.6</ele>
        <time>2021-07-31T13:38:40.000Z</time>
      </trkpt>
      <trkpt lat="45.30059" lon="5.47961">
        <ele>336.5</ele>
        <time>2021-07-31T13:38:45.000Z</time>
      </trkpt>
      <trkpt lat="45.30069" lon="5.47967">
        <ele>335.9</ele>
        <time>2021-07-31T13:38:50.000Z</time>
      </trkpt>
      <trkpt lat="45.30079" lon="5.47969">
        <ele>337</ele>
        <time>2021-07-31T13:38:55.000Z</time>
      </trkpt>
      <trkpt lat="45.30087" lon="5.4796">
        <ele>340.3</ele>
        <time>2021-07-31T13:39:00.000Z</time>
      </trkpt>
      <trkpt lat="45.30093" lon="5.47949">
        <ele>344.1</ele>
        <time>2021-07-31T13:39:05.000Z</time>
      </trkpt>
      <trkpt lat="45.30099" lon="5.47938">
        <ele>347.6</ele>
        <time>2021-07-31T13:39:10.000Z</time>
      </trkpt>
      <trkpt lat="45.30107" lon="5.47927">
        <ele>351.6</ele>
        <time>2021-07-31T13:39:15.000Z</time>
      </trkpt>
      <trkpt lat="45.30113" lon="5.47916">
        <ele>355.1</ele>
        <time>2021-07-31T13:39:20.000Z</time>
      </trkpt>
      <trkpt lat="45.30122" lon="5.4791">
        <ele>358.6</ele>
        <time>2021-07-31T13:39:25.000Z</time>
      </trkpt>
      <trkpt lat="45.30133" lon="5.4791">
        <ele>361.5</ele>
        <time>2021-07-31T13:39:30.000Z</time>
      </trkpt>
      <trkpt lat="45.30142" lon="5.47914">
        <ele>363</ele>
        <time>2021-07-31T13:39:35.000Z</time>
      </trkpt>
      <trkpt lat="45.30151" lon="5.47919">
        <ele>364.6</ele>
        <time>2021-07-31T13:39:40.000Z</time>
      </trkpt>
      <trkpt lat="45.30157" lon="5.47928">
        <ele>364.8</ele>
        <time>2021-07-31T13:39:44.000Z</time>
      </trkpt>
      <trkpt lat="45.30164" lon="5.4794">
        <ele>364.5</ele>
        <time>2021-07-31T13:39:48.000Z</time>
      </trkpt>
      <trkpt lat="45.30168" lon="5.47951">
        <ele>363.4</ele>
        <time>2021-07-31T13:39:52.000Z</time>
      </trkpt>
      <trkpt lat="45.30173" lon="5.47962">
        <ele>361.4</ele>
        <time>2021-07-31T13:39:57.000Z</time>
      </trkpt>
      <trkpt lat="45.30178" lon="5.47975">
        <ele>359.5</ele>
        <time>2021-07-31T13:40:02.000Z</time>
      </trkpt>
      <trkpt lat="45.30184" lon="5.47987">
        <ele>357.1</ele>
        <time>2021-07-31T13:40:08.000Z</time>
      </trkpt>
      <trkpt lat="45.30189" lon="5.47999">
        <ele>355</ele>
        <time>2021-07-31T13:40:13.000Z</time>
      </trkpt>
      <trkpt lat="45.30194" lon="5.48011">
        <ele>352.6</ele>
        <time>2021-07-31T13:40:18.000Z</time>
      </trkpt>
      <trkpt lat="45.302" lon="5.48022">
        <ele>350.1</ele>
        <time>2021-07-31T13:40:22.000Z</time>
      </trkpt>
      <trkpt lat="45.30208" lon="5.48032">
        <ele>348</ele>
        <time>2021-07-31T13:40:27.000Z</time>
      </trkpt>
      <trkpt lat="45.30216" lon="5.48038">
        <ele>346.2</ele>
        <time>2021-07-31T13:40:31.000Z</time>
      </trkpt>
      <trkpt lat="45.30224" lon="5.48046">
        <ele>344</ele>
        <time>2021-07-31T13:40:36.000Z</time>
      </trkpt>
      <trkpt lat="45.3023" lon="5.48059">
        <ele>340.6</ele>
        <time>2021-07-31T13:40:41.000Z</time>
      </trkpt>
      <trkpt lat="45.30235" lon="5.48071">
        <ele>337.5</ele>
        <time>2021-07-31T13:40:45.000Z</time>
      </trkpt>
      <trkpt lat="45.30238" lon="5.48084">
        <ele>333.8</ele>
        <time>2021-07-31T13:40:49.000Z</time>
      </trkpt>
      <trkpt lat="45.30245" lon="5.48096">
        <ele>330.6</ele>
        <time>2021-07-31T13:40:53.000Z</time>
      </trkpt>
      <trkpt lat="45.30254" lon="5.48101">
        <ele>327.9</ele>
        <time>2021-07-31T13:40:57.000Z</time>
      </trkpt>
      <trkpt lat="45.30264" lon="5.48101">
        <ele>326.7</ele>
        <time>2021-07-31T13:41:01.000Z</time>
      </trkpt>
      <trkpt lat="45.30272" lon="5.48095">
        <ele>327.4</ele>
        <time>2021-07-31T13:41:05.000Z</time>
      </trkpt>
      <trkpt lat="45.30279" lon="5.48086">
        <ele>328</ele>
        <time>2021-07-31T13:41:09.000Z</time>
      </trkpt>
      <trkpt lat="45.30286" lon="5.48077">
        <ele>328.9</ele>
        <time>2021-07-31T13:41:13.000Z</time>
      </trkpt>
      <trkpt lat="45.30292" lon="5.48068">
        <ele>330</ele>
        <time>2021-07-31T13:41:17.000Z</time>
      </trkpt>
      <trkpt lat="45.303" lon="5.48057">
        <ele>331.3</ele>
        <time>2021-07-31T13:41:22.000Z</time>
      </trkpt>
      <trkpt lat="45.30308" lon="5.48047">
        <ele>332.2</ele>
        <time>2021-07-31T13:41:27.000Z</time>
      </trkpt>
      <trkpt lat="45.30315" lon="5.48039">
        <ele>332.6</ele>
        <time>2021-07-31T13:41:31.000Z</time>
      </trkpt>
      <trkpt lat="45.30322" lon="5.4803">
        <ele>333</ele>
        <time>2021-07-31T13:41:35.000Z</time>
      </trkpt>
      <trkpt lat="45.30329" lon="5.48021">
        <ele>333.6</ele>
        <time>2021-07-31T13:41:39.000Z</time>
      </trkpt>
      <trkpt lat="45.30337" lon="5.48012">
        <ele>334.3</ele>
        <time>2021-07-31T13:41:44.000Z</time>
      </trkpt>
      <trkpt lat="45.30346" lon="5.48002">
        <ele>335.7</ele>
        <time>2021-07-31T13:41:49.000Z</time>
      </trkpt>
      <trkpt lat="45.30353" lon="5.47994">
        <ele>337.7</ele>
        <time>2021-07-31T13:41:53.000Z</time>
      </trkpt>
      <trkpt lat="45.3036" lon="5.47985">
        <ele>340.3</ele>
        <time>2021-07-31T13:41:57.000Z</time>
      </trkpt>
      <trkpt lat="45.30367" lon="5.47975">
        <ele>342.8</ele>
        <time>2021-07-31T13:42:01.000Z</time>
      </trkpt>
      <trkpt lat="45.30375" lon="5.47965">
        <ele>345.7</ele>
        <time>2021-07-31T13:42:06.000Z</time>
      </trkpt>
      <trkpt lat="45.30383" lon="5.47955">
        <ele>348.5</ele>
        <time>2021-07-31T13:42:11.000Z</time>
      </trkpt>
      <trkpt lat="45.3039" lon="5.47947">
        <ele>350.3</ele>
        <time>2021-07-31T13:42:15.000Z</time>
      </trkpt>
      <trkpt lat="45.30398" lon="5.47938">
        <ele>352.5</ele>
        <time>2021-07-31T13:42:19.000Z</time>
      </trkpt>
      <trkpt lat="45.30405" lon="5.47928">
        <ele>354.6</ele>
        <time>2021-07-31T13:42:23.000Z</time>
      </trkpt>
      <trkpt lat="45.30413" lon="5.4792">
        <ele>356.6</ele>
        <time>2021-07-31T13:42:27.000Z</time>
      </trkpt>
      <trkpt lat="45.3042" lon="5.47912">
        <ele>358.6</ele>
        <time>2021-07-31T13:42:31.000Z</time>
      </trkpt>
      <trkpt lat="45.30429" lon="5.47904">
        <ele>360.5</ele>
        <time>2021-07-31T13:42:36.000Z</time>
      </trkpt>
      <trkpt lat="45.3044" lon="5.47898">
        <ele>361.7</ele>
        <time>2021-07-31T13:42:41.000Z</time>
      </trkpt>
      <trkpt lat="45.30449" lon="5.47893">
        <ele>361.9</ele>
        <time>2021-07-31T13:42:46.000Z</time>
      </trkpt>
      <trkpt lat="45.30457" lon="5.47886">
        <ele>363.9</ele>
        <time>2021-07-31T13:42:51.000Z</time>
      </trkpt>
      <trkpt lat="45.30465" lon="5.47878">
        <ele>365.9</ele>
        <time>2021-07-31T13:42:56.000Z</time>
      </trkpt>
      <trkpt lat="45.30475" lon="5.47873">
        <ele>366.6</ele>
        <time>2021-07-31T13:43:01.000Z</time>
      </trkpt>
      <trkpt lat="45.30484" lon="5.47868">
        <ele>367.4</ele>
        <time>2021-07-31T13:43:06.000Z</time>
      </trkpt>
      <trkpt lat="45.30492" lon="5.4786">
        <ele>369.4</ele>
        <time>2021-07-31T13:43:11.000Z</time>
      </trkpt>
      <trkpt lat="45.305" lon="5.47853">
        <ele>370.7</ele>
        <time>2021-07-31T13:43:15.000Z</time>
      </trkpt>
      <trkpt lat="45.30509" lon="5.47848">
        <ele>372</ele>
        <time>2021-07-31T13:43:19.000Z</time>
      </trkpt>
      <trkpt lat="45.30517" lon="5.47841">
        <ele>374.1</ele>
        <time>2021-07-31T13:43:23.000Z</time>
      </trkpt>
      <trkpt lat="45.30525" lon="5.47831">
        <ele>376.3</ele>
        <time>2021-07-31T13:43:27.000Z</time>
      </trkpt>
      <trkpt lat="45.30534" lon="5.47823">
        <ele>378</ele>
        <time>2021-07-31T13:43:31.000Z</time>
      </trkpt>
      <trkpt lat="45.30541" lon="5.47817">
        <ele>379.3</ele>
        <time>2021-07-31T13:43:35.000Z</time>
      </trkpt>
      <trkpt lat="45.30551" lon="5.47812">
        <ele>380.1</ele>
        <time>2021-07-31T13:43:40.000Z</time>
      </trkpt>
      <trkpt lat="45.30561" lon="5.47816">
        <ele>378.1</ele>
        <time>2021-07-31T13:43:45.000Z</time>
      </trkpt>
      <trkpt lat="45.30571" lon="5.47822">
        <ele>375.1</ele>
        <time>2021-07-31T13:43:49.000Z</time>
      </trkpt>
      <trkpt lat="45.30582" lon="5.47825">
        <ele>372.9</ele>
        <time>2021-07-31T13:43:53.000Z</time>
      </trkpt>
      <trkpt lat="45.30591" lon="5.47827">
        <ele>372.5</ele>
        <time>2021-07-31T13:43:57.000Z</time>
      </trkpt>
      <trkpt lat="45.30601" lon="5.47822">
        <ele>374.4</ele>
        <time>2021-07-31T13:44:01.000Z</time>
      </trkpt>
      <trkpt lat="45.3061" lon="5.47815">
        <ele>376.4</ele>
        <time>2021-07-31T13:44:05.000Z</time>
      </trkpt>
      <trkpt lat="45.3062" lon="5.47807">
        <ele>378.7</ele>
        <time>2021-07-31T13:44:10.000Z</time>
      </trkpt>
      <trkpt lat="45.30629" lon="5.478">
        <ele>379.9</ele>
        <time>2021-07-31T13:44:15.000Z</time>
      </trkpt>
      <trkpt lat="45.30637" lon="5.47794">
        <ele>381</ele>
        <time>2021-07-31T13:44:19.000Z</time>
      </trkpt>
      <trkpt lat="45.30646" lon="5.47787">
        <ele>381.7</ele>
        <time>2021-07-31T13:44:23.000Z</time>
      </trkpt>
      <trkpt lat="45.30654" lon="5.47781">
        <ele>382.1</ele>
        <time>2021-07-31T13:44:27.000Z</time>
      </trkpt>
      <trkpt lat="45.30663" lon="5.47775">
        <ele>382.1</ele>
        <time>2021-07-31T13:44:32.000Z</time>
      </trkpt>
      <trkpt lat="45.30671" lon="5.47767">
        <ele>384.1</ele>
        <time>2021-07-31T13:44:36.000Z</time>
      </trkpt>
      <trkpt lat="45.30678" lon="5.47759">
        <ele>387.3</ele>
        <time>2021-07-31T13:44:40.000Z</time>
      </trkpt>
      <trkpt lat="45.30685" lon="5.47749">
        <ele>390.5</ele>
        <time>2021-07-31T13:44:44.000Z</time>
      </trkpt>
      <trkpt lat="45.30692" lon="5.47738">
        <ele>394.1</ele>
        <time>2021-07-31T13:44:49.000Z</time>
      </trkpt>
      <trkpt lat="45.30699" lon="5.47729">
        <ele>397</ele>
        <time>2021-07-31T13:44:53.000Z</time>
      </trkpt>
      <trkpt lat="45.30702" lon="5.47714">
        <ele>399.6</ele>
        <time>2021-07-31T13:44:57.000Z</time>
      </trkpt>
      <trkpt lat="45.30707" lon="5.47701">
        <ele>402.4</ele>
        <time>2021-07-31T13:45:02.000Z</time>
      </trkpt>
      <trkpt lat="45.30713" lon="5.47686">
        <ele>405.3</ele>
        <time>2021-07-31T13:45:06.000Z</time>
      </trkpt>
      <trkpt lat="45.30719" lon="5.4767">
        <ele>408.1</ele>
        <time>2021-07-31T13:45:10.000Z</time>
      </trkpt>
      <trkpt lat="45.30725" lon="5.47659">
        <ele>410.5</ele>
        <time>2021-07-31T13:45:14.000Z</time>
      </trkpt>
      <trkpt lat="45.30731" lon="5.47646">
        <ele>413</ele>
        <time>2021-07-31T13:45:18.000Z</time>
      </trkpt>
      <trkpt lat="45.30736" lon="5.47635">
        <ele>415.2</ele>
        <time>2021-07-31T13:45:22.000Z</time>
      </trkpt>
      <trkpt lat="45.30744" lon="5.47624">
        <ele>418</ele>
        <time>2021-07-31T13:45:27.000Z</time>
      </trkpt>
      <trkpt lat="45.30752" lon="5.47616">
        <ele>420.9</ele>
        <time>2021-07-31T13:45:31.000Z</time>
      </trkpt>
      <trkpt lat="45.30759" lon="5.47606">
        <ele>426.1</ele>
        <time>2021-07-31T13:45:36.000Z</time>
      </trkpt>
      <trkpt lat="45.30762" lon="5.47591">
        <ele>429.4</ele>
        <time>2021-07-31T13:45:41.000Z</time>
      </trkpt>
      <trkpt lat="45.30758" lon="5.47577">
        <ele>428.9</ele>
        <time>2021-07-31T13:45:45.000Z</time>
      </trkpt>
      <trkpt lat="45.30749" lon="5.47573">
        <ele>424.8</ele>
        <time>2021-07-31T13:45:49.000Z</time>
      </trkpt>
      <trkpt lat="45.3074" lon="5.4758">
        <ele>422.7</ele>
        <time>2021-07-31T13:45:52.000Z</time>
      </trkpt>
      <trkpt lat="45.30732" lon="5.47588">
        <ele>420.1</ele>
        <time>2021-07-31T13:45:57.000Z</time>
      </trkpt>
      <trkpt lat="45.30725" lon="5.47598">
        <ele>417.6</ele>
        <time>2021-07-31T13:46:02.000Z</time>
      </trkpt>
      <trkpt lat="45.30718" lon="5.47609">
        <ele>414.9</ele>
        <time>2021-07-31T13:46:06.000Z</time>
      </trkpt>
      <trkpt lat="45.3071" lon="5.47618">
        <ele>412.4</ele>
        <time>2021-07-31T13:46:10.000Z</time>
      </trkpt>
      <trkpt lat="45.30703" lon="5.47628">
        <ele>410</ele>
        <time>2021-07-31T13:46:16.000Z</time>
      </trkpt>
      <trkpt lat="45.30698" lon="5.4764">
        <ele>407.6</ele>
        <time>2021-07-31T13:46:21.000Z</time>
      </trkpt>
      <trkpt lat="45.30689" lon="5.47651">
        <ele>404.8</ele>
        <time>2021-07-31T13:46:26.000Z</time>
      </trkpt>
      <trkpt lat="45.3068" lon="5.47659">
        <ele>402.4</ele>
        <time>2021-07-31T13:46:29.000Z</time>
      </trkpt>
      <trkpt lat="45.3067" lon="5.47665">
        <ele>399.7</ele>
        <time>2021-07-31T13:46:33.000Z</time>
      </trkpt>
      <trkpt lat="45.3066" lon="5.47669">
        <ele>400.3</ele>
        <time>2021-07-31T13:46:40.000Z</time>
      </trkpt>
      <trkpt lat="45.30652" lon="5.47677">
        <ele>400.8</ele>
        <time>2021-07-31T13:46:44.000Z</time>
      </trkpt>
      <trkpt lat="45.30642" lon="5.47681">
        <ele>402.3</ele>
        <time>2021-07-31T13:46:49.000Z</time>
      </trkpt>
      <trkpt lat="45.30632" lon="5.4768">
        <ele>404.7</ele>
        <time>2021-07-31T13:46:53.000Z</time>
      </trkpt>
      <trkpt lat="45.30624" lon="5.47669">
        <ele>408.7</ele>
        <time>2021-07-31T13:46:58.000Z</time>
      </trkpt>
      <trkpt lat="45.30619" lon="5.47658">
        <ele>411.6</ele>
        <time>2021-07-31T13:47:03.000Z</time>
      </trkpt>
      <trkpt lat="45.30613" lon="5.47649">
        <ele>414.5</ele>
        <time>2021-07-31T13:47:07.000Z</time>
      </trkpt>
      <trkpt lat="45.30604" lon="5.47644">
        <ele>417.4</ele>
        <time>2021-07-31T13:47:12.000Z</time>
      </trkpt>
      <trkpt lat="45.30595" lon="5.47638">
        <ele>420.5</ele>
        <time>2021-07-31T13:47:16.000Z</time>
      </trkpt>
      <trkpt lat="45.30586" lon="5.47639">
        <ele>422.9</ele>
        <time>2021-07-31T13:47:21.000Z</time>
      </trkpt>
      <trkpt lat="45.30576" lon="5.4764">
        <ele>423.7</ele>
        <time>2021-07-31T13:47:25.000Z</time>
      </trkpt>
      <trkpt lat="45.30566" lon="5.47642">
        <ele>424.1</ele>
        <time>2021-07-31T13:47:30.000Z</time>
      </trkpt>
      <trkpt lat="45.30558" lon="5.47649">
        <ele>423</ele>
        <time>2021-07-31T13:47:33.000Z</time>
      </trkpt>
      <trkpt lat="45.30549" lon="5.47662">
        <ele>420.9</ele>
        <time>2021-07-31T13:47:37.000Z</time>
      </trkpt>
      <trkpt lat="45.30543" lon="5.47673">
        <ele>418.4</ele>
        <time>2021-07-31T13:47:40.000Z</time>
      </trkpt>
      <trkpt lat="45.30534" lon="5.47684">
        <ele>416.1</ele>
        <time>2021-07-31T13:47:44.000Z</time>
      </trkpt>
      <trkpt lat="45.30524" lon="5.47692">
        <ele>414.5</ele>
        <time>2021-07-31T13:47:48.000Z</time>
      </trkpt>
      <trkpt lat="45.30515" lon="5.47698">
        <ele>413.5</ele>
        <time>2021-07-31T13:47:52.000Z</time>
      </trkpt>
      <trkpt lat="45.30505" lon="5.47702">
        <ele>412.7</ele>
        <time>2021-07-31T13:47:56.000Z</time>
      </trkpt>
      <trkpt lat="45.30495" lon="5.47702">
        <ele>413.3</ele>
        <time>2021-07-31T13:48:00.000Z</time>
      </trkpt>
      <trkpt lat="45.30485" lon="5.47702">
        <ele>415</ele>
        <time>2021-07-31T13:48:04.000Z</time>
      </trkpt>
      <trkpt lat="45.30475" lon="5.47699">
        <ele>417.5</ele>
        <time>2021-07-31T13:48:08.000Z</time>
      </trkpt>
      <trkpt lat="45.30465" lon="5.47696">
        <ele>419.7</ele>
        <time>2021-07-31T13:48:12.000Z</time>
      </trkpt>
      <trkpt lat="45.30455" lon="5.47694">
        <ele>421.6</ele>
        <time>2021-07-31T13:48:16.000Z</time>
      </trkpt>
      <trkpt lat="45.30445" lon="5.47692">
        <ele>423.8</ele>
        <time>2021-07-31T13:48:20.000Z</time>
      </trkpt>
      <trkpt lat="45.30435" lon="5.47692">
        <ele>425.5</ele>
        <time>2021-07-31T13:48:24.000Z</time>
      </trkpt>
      <trkpt lat="45.30425" lon="5.4769">
        <ele>427.3</ele>
        <time>2021-07-31T13:48:28.000Z</time>
      </trkpt>
      <trkpt lat="45.30414" lon="5.47687">
        <ele>429.7</ele>
        <time>2021-07-31T13:48:32.000Z</time>
      </trkpt>
      <trkpt lat="45.30404" lon="5.47684">
        <ele>431.3</ele>
        <time>2021-07-31T13:48:37.000Z</time>
      </trkpt>
      <trkpt lat="45.30395" lon="5.47678">
        <ele>433.2</ele>
        <time>2021-07-31T13:48:41.000Z</time>
      </trkpt>
      <trkpt lat="45.30391" lon="5.47667">
        <ele>436.5</ele>
        <time>2021-07-31T13:48:46.000Z</time>
      </trkpt>
      <trkpt lat="45.30384" lon="5.47658">
        <ele>439.5</ele>
        <time>2021-07-31T13:48:52.000Z</time>
      </trkpt>
      <trkpt lat="45.30375" lon="5.47652">
        <ele>442.2</ele>
        <time>2021-07-31T13:48:57.000Z</time>
      </trkpt>
      <trkpt lat="45.30367" lon="5.47644">
        <ele>445.2</ele>
        <time>2021-07-31T13:49:02.000Z</time>
      </trkpt>
      <trkpt lat="45.30358" lon="5.47637">
        <ele>448</ele>
        <time>2021-07-31T13:49:06.000Z</time>
      </trkpt>
      <trkpt lat="45.30349" lon="5.47637">
        <ele>449.1</ele>
        <time>2021-07-31T13:49:10.000Z</time>
      </trkpt>
      <trkpt lat="45.30339" lon="5.47634">
        <ele>451.4</ele>
        <time>2021-07-31T13:49:14.000Z</time>
      </trkpt>
      <trkpt lat="45.3033" lon="5.47631">
        <ele>452.6</ele>
        <time>2021-07-31T13:49:18.000Z</time>
      </trkpt>
      <trkpt lat="45.30321" lon="5.47626">
        <ele>454.3</ele>
        <time>2021-07-31T13:49:22.000Z</time>
      </trkpt>
      <trkpt lat="45.3031" lon="5.47626">
        <ele>454.8</ele>
        <time>2021-07-31T13:49:27.000Z</time>
      </trkpt>
      <trkpt lat="45.30299" lon="5.47623">
        <ele>455.7</ele>
        <time>2021-07-31T13:49:31.000Z</time>
      </trkpt>
      <trkpt lat="45.30289" lon="5.4762">
        <ele>457.1</ele>
        <time>2021-07-31T13:49:36.000Z</time>
      </trkpt>
      <trkpt lat="45.30279" lon="5.47617">
        <ele>457.6</ele>
        <time>2021-07-31T13:49:40.000Z</time>
      </trkpt>
      <trkpt lat="45.3027" lon="5.4761">
        <ele>460.2</ele>
        <time>2021-07-31T13:49:45.000Z</time>
      </trkpt>
      <trkpt lat="45.3026" lon="5.4761">
        <ele>460.4</ele>
        <time>2021-07-31T13:49:51.000Z</time>
      </trkpt>
      <trkpt lat="45.30252" lon="5.47601">
        <ele>463.1</ele>
        <time>2021-07-31T13:49:57.000Z</time>
      </trkpt>
      <trkpt lat="45.30242" lon="5.47593">
        <ele>465.2</ele>
        <time>2021-07-31T13:50:02.000Z</time>
      </trkpt>
      <trkpt lat="45.30234" lon="5.47583">
        <ele>467.6</ele>
        <time>2021-07-31T13:50:06.000Z</time>
      </trkpt>
      <trkpt lat="45.30225" lon="5.47575">
        <ele>468.6</ele>
        <time>2021-07-31T13:50:11.000Z</time>
      </trkpt>
      <trkpt lat="45.30219" lon="5.47563">
        <ele>470.6</ele>
        <time>2021-07-31T13:50:17.000Z</time>
      </trkpt>
      <trkpt lat="45.30214" lon="5.47552">
        <ele>472.8</ele>
        <time>2021-07-31T13:50:21.000Z</time>
      </trkpt>
      <trkpt lat="45.30209" lon="5.4754">
        <ele>474.6</ele>
        <time>2021-07-31T13:50:25.000Z</time>
      </trkpt>
      <trkpt lat="45.30204" lon="5.47529">
        <ele>476.7</ele>
        <time>2021-07-31T13:50:29.000Z</time>
      </trkpt>
      <trkpt lat="45.30198" lon="5.47517">
        <ele>478.7</ele>
        <time>2021-07-31T13:50:34.000Z</time>
      </trkpt>
      <trkpt lat="45.30193" lon="5.47506">
        <ele>480.6</ele>
        <time>2021-07-31T13:50:41.000Z</time>
      </trkpt>
      <trkpt lat="45.30185" lon="5.47495">
        <ele>481.6</ele>
        <time>2021-07-31T13:50:45.000Z</time>
      </trkpt>
      <trkpt lat="45.30176" lon="5.47489">
        <ele>481.5</ele>
        <time>2021-07-31T13:50:49.000Z</time>
      </trkpt>
      <trkpt lat="45.30168" lon="5.47485">
        <ele>481</ele>
        <time>2021-07-31T13:50:53.000Z</time>
      </trkpt>
      <trkpt lat="45.30157" lon="5.47481">
        <ele>479.8</ele>
        <time>2021-07-31T13:50:58.000Z</time>
      </trkpt>
      <trkpt lat="45.30147" lon="5.47479">
        <ele>478.3</ele>
        <time>2021-07-31T13:51:02.000Z</time>
      </trkpt>
      <trkpt lat="45.30137" lon="5.4748">
        <ele>476.6</ele>
        <time>2021-07-31T13:51:06.000Z</time>
      </trkpt>
      <trkpt lat="45.30128" lon="5.47482">
        <ele>474.4</ele>
        <time>2021-07-31T13:51:11.000Z</time>
      </trkpt>
      <trkpt lat="45.30117" lon="5.47487">
        <ele>471.3</ele>
        <time>2021-07-31T13:51:16.000Z</time>
      </trkpt>
      <trkpt lat="45.30107" lon="5.47491">
        <ele>468.7</ele>
        <time>2021-07-31T13:51:21.000Z</time>
      </trkpt>
      <trkpt lat="45.30097" lon="5.47496">
        <ele>465.9</ele>
        <time>2021-07-31T13:51:25.000Z</time>
      </trkpt>
      <trkpt lat="45.30087" lon="5.475">
        <ele>462.6</ele>
        <time>2021-07-31T13:51:29.000Z</time>
      </trkpt>
      <trkpt lat="45.30076" lon="5.47502">
        <ele>461.4</ele>
        <time>2021-07-31T13:51:33.000Z</time>
      </trkpt>
      <trkpt lat="45.30065" lon="5.47499">
        <ele>462.3</ele>
        <time>2021-07-31T13:51:37.000Z</time>
      </trkpt>
      <trkpt lat="45.30056" lon="5.47493">
        <ele>463.5</ele>
        <time>2021-07-31T13:51:41.000Z</time>
      </trkpt>
      <trkpt lat="45.30047" lon="5.47486">
        <ele>465.3</ele>
        <time>2021-07-31T13:51:45.000Z</time>
      </trkpt>
      <trkpt lat="45.3004" lon="5.47478">
        <ele>467</ele>
        <time>2021-07-31T13:51:49.000Z</time>
      </trkpt>
      <trkpt lat="45.30033" lon="5.47468">
        <ele>469.3</ele>
        <time>2021-07-31T13:51:53.000Z</time>
      </trkpt>
      <trkpt lat="45.30026" lon="5.47458">
        <ele>471.6</ele>
        <time>2021-07-31T13:51:57.000Z</time>
      </trkpt>
      <trkpt lat="45.3002" lon="5.47447">
        <ele>473.8</ele>
        <time>2021-07-31T13:52:01.000Z</time>
      </trkpt>
      <trkpt lat="45.30016" lon="5.47433">
        <ele>476.7</ele>
        <time>2021-07-31T13:52:05.000Z</time>
      </trkpt>
      <trkpt lat="45.30015" lon="5.4742">
        <ele>479.8</ele>
        <time>2021-07-31T13:52:09.000Z</time>
      </trkpt>
      <trkpt lat="45.30016" lon="5.47407">
        <ele>481.3</ele>
        <time>2021-07-31T13:52:13.000Z</time>
      </trkpt>
      <trkpt lat="45.30018" lon="5.47392">
        <ele>482.7</ele>
        <time>2021-07-31T13:52:18.000Z</time>
      </trkpt>
      <trkpt lat="45.30018" lon="5.47377">
        <ele>484.1</ele>
        <time>2021-07-31T13:52:23.000Z</time>
      </trkpt>
      <trkpt lat="45.30021" lon="5.47362">
        <ele>485.7</ele>
        <time>2021-07-31T13:52:28.000Z</time>
      </trkpt>
      <trkpt lat="45.30022" lon="5.47349">
        <ele>487.3</ele>
        <time>2021-07-31T13:52:32.000Z</time>
      </trkpt>
      <trkpt lat="45.30024" lon="5.47335">
        <ele>488.9</ele>
        <time>2021-07-31T13:52:36.000Z</time>
      </trkpt>
      <trkpt lat="45.30025" lon="5.47321">
        <ele>490.8</ele>
        <time>2021-07-31T13:52:40.000Z</time>
      </trkpt>
      <trkpt lat="45.30026" lon="5.47307">
        <ele>492.8</ele>
        <time>2021-07-31T13:52:44.000Z</time>
      </trkpt>
      <trkpt lat="45.30027" lon="5.47294">
        <ele>494.4</ele>
        <time>2021-07-31T13:52:48.000Z</time>
      </trkpt>
      <trkpt lat="45.30027" lon="5.47279">
        <ele>496.2</ele>
        <time>2021-07-31T13:52:52.000Z</time>
      </trkpt>
      <trkpt lat="45.30026" lon="5.47265">
        <ele>497.7</ele>
        <time>2021-07-31T13:52:56.000Z</time>
      </trkpt>
      <trkpt lat="45.30025" lon="5.47252">
        <ele>499.2</ele>
        <time>2021-07-31T13:53:00.000Z</time>
      </trkpt>
      <trkpt lat="45.30024" lon="5.47236">
        <ele>501</ele>
        <time>2021-07-31T13:53:05.000Z</time>
      </trkpt>
      <trkpt lat="45.30022" lon="5.47222">
        <ele>502.6</ele>
        <time>2021-07-31T13:53:09.000Z</time>
      </trkpt>
      <trkpt lat="45.30021" lon="5.47208">
        <ele>504.4</ele>
        <time>2021-07-31T13:53:12.000Z</time>
      </trkpt>
      <trkpt lat="45.30021" lon="5.47193">
        <ele>506.2</ele>
        <time>2021-07-31T13:53:16.000Z</time>
      </trkpt>
      <trkpt lat="45.30023" lon="5.47178">
        <ele>509.1</ele>
        <time>2021-07-31T13:53:20.000Z</time>
      </trkpt>
      <trkpt lat="45.30026" lon="5.47164">
        <ele>511.7</ele>
        <time>2021-07-31T13:53:24.000Z</time>
      </trkpt>
      <trkpt lat="45.30032" lon="5.47146">
        <ele>514.5</ele>
        <time>2021-07-31T13:53:30.000Z</time>
      </trkpt>
      <trkpt lat="45.30037" lon="5.47133">
        <ele>516.8</ele>
        <time>2021-07-31T13:53:35.000Z</time>
      </trkpt>
      <trkpt lat="45.3004" lon="5.4712">
        <ele>518.7</ele>
        <time>2021-07-31T13:53:40.000Z</time>
      </trkpt>
      <trkpt lat="45.30044" lon="5.47108">
        <ele>520.5</ele>
        <time>2021-07-31T13:53:45.000Z</time>
      </trkpt>
      <trkpt lat="45.30048" lon="5.47094">
        <ele>523.3</ele>
        <time>2021-07-31T13:53:50.000Z</time>
      </trkpt>
      <trkpt lat="45.30051" lon="5.47081">
        <ele>525.2</ele>
        <time>2021-07-31T13:53:54.000Z</time>
      </trkpt>
      <trkpt lat="45.30055" lon="5.47066">
        <ele>526.9</ele>
        <time>2021-07-31T13:53:58.000Z</time>
      </trkpt>
      <trkpt lat="45.30058" lon="5.47054">
        <ele>528.3</ele>
        <time>2021-07-31T13:54:02.000Z</time>
      </trkpt>
      <trkpt lat="45.30062" lon="5.47042">
        <ele>530.4</ele>
        <time>2021-07-31T13:54:06.000Z</time>
      </trkpt>
      <trkpt lat="45.30065" lon="5.47029">
        <ele>532</ele>
        <time>2021-07-31T13:54:10.000Z</time>
      </trkpt>
      <trkpt lat="45.30066" lon="5.47016">
        <ele>532.9</ele>
        <time>2021-07-31T13:54:14.000Z</time>
      </trkpt>
      <trkpt lat="45.30068" lon="5.47">
        <ele>534.5</ele>
        <time>2021-07-31T13:54:20.000Z</time>
      </trkpt>
      <trkpt lat="45.30071" lon="5.46987">
        <ele>535.1</ele>
        <time>2021-07-31T13:54:25.000Z</time>
      </trkpt>
      <trkpt lat="45.30076" lon="5.46975">
        <ele>537.7</ele>
        <time>2021-07-31T13:54:31.000Z</time>
      </trkpt>
      <trkpt lat="45.3008" lon="5.46959">
        <ele>539.1</ele>
        <time>2021-07-31T13:54:36.000Z</time>
      </trkpt>
      <trkpt lat="45.30083" lon="5.46945">
        <ele>540</ele>
        <time>2021-07-31T13:54:41.000Z</time>
      </trkpt>
      <trkpt lat="45.3008" lon="5.46933">
        <ele>538.5</ele>
        <time>2021-07-31T13:54:45.000Z</time>
      </trkpt>
      <trkpt lat="45.30085" lon="5.4692">
        <ele>540.8</ele>
        <time>2021-07-31T13:54:49.000Z</time>
      </trkpt>
      <trkpt lat="45.30092" lon="5.46908">
        <ele>543.2</ele>
        <time>2021-07-31T13:54:53.000Z</time>
      </trkpt>
      <trkpt lat="45.30097" lon="5.46896">
        <ele>545.1</ele>
        <time>2021-07-31T13:54:57.000Z</time>
      </trkpt>
      <trkpt lat="45.30103" lon="5.46883">
        <ele>546.8</ele>
        <time>2021-07-31T13:55:01.000Z</time>
      </trkpt>
      <trkpt lat="45.30109" lon="5.46872">
        <ele>549.1</ele>
        <time>2021-07-31T13:55:05.000Z</time>
      </trkpt>
      <trkpt lat="45.30114" lon="5.46861">
        <ele>551.2</ele>
        <time>2021-07-31T13:55:09.000Z</time>
      </trkpt>
      <trkpt lat="45.30121" lon="5.4685">
        <ele>554.5</ele>
        <time>2021-07-31T13:55:14.000Z</time>
      </trkpt>
      <trkpt lat="45.30124" lon="5.46837">
        <ele>555.4</ele>
        <time>2021-07-31T13:55:18.000Z</time>
      </trkpt>
      <trkpt lat="45.30125" lon="5.46823">
        <ele>555.9</ele>
        <time>2021-07-31T13:55:21.000Z</time>
      </trkpt>
      <trkpt lat="45.30128" lon="5.4681">
        <ele>558.1</ele>
        <time>2021-07-31T13:55:26.000Z</time>
      </trkpt>
      <trkpt lat="45.30124" lon="5.46795">
        <ele>556.2</ele>
        <time>2021-07-31T13:55:31.000Z</time>
      </trkpt>
      <trkpt lat="45.30117" lon="5.46782">
        <ele>553.2</ele>
        <time>2021-07-31T13:55:35.000Z</time>
      </trkpt>
      <trkpt lat="45.30113" lon="5.46769">
        <ele>551.9</ele>
        <time>2021-07-31T13:55:40.000Z</time>
      </trkpt>
      <trkpt lat="45.3011" lon="5.46756">
        <ele>550.8</ele>
        <time>2021-07-31T13:55:45.000Z</time>
      </trkpt>
      <trkpt lat="45.30108" lon="5.46741">
        <ele>550.1</ele>
        <time>2021-07-31T13:55:51.000Z</time>
      </trkpt>
      <trkpt lat="45.30108" lon="5.46728">
        <ele>549.9</ele>
        <time>2021-07-31T13:55:56.000Z</time>
      </trkpt>
      <trkpt lat="45.30109" lon="5.46713">
        <ele>550.2</ele>
        <time>2021-07-31T13:56:01.000Z</time>
      </trkpt>
      <trkpt lat="45.3011" lon="5.46701">
        <ele>550.8</ele>
        <time>2021-07-31T13:56:05.000Z</time>
      </trkpt>
      <trkpt lat="45.30112" lon="5.46687">
        <ele>551.4</ele>
        <time>2021-07-31T13:56:09.000Z</time>
      </trkpt>
      <trkpt lat="45.30113" lon="5.46672">
        <ele>552.1</ele>
        <time>2021-07-31T13:56:14.000Z</time>
      </trkpt>
      <trkpt lat="45.30117" lon="5.46658">
        <ele>552.6</ele>
        <time>2021-07-31T13:56:19.000Z</time>
      </trkpt>
      <trkpt lat="45.30121" lon="5.46643">
        <ele>552.3</ele>
        <time>2021-07-31T13:56:24.000Z</time>
      </trkpt>
      <trkpt lat="45.30125" lon="5.4663">
        <ele>552.7</ele>
        <time>2021-07-31T13:56:28.000Z</time>
      </trkpt>
      <trkpt lat="45.30129" lon="5.46618">
        <ele>553.1</ele>
        <time>2021-07-31T13:56:32.000Z</time>
      </trkpt>
      <trkpt lat="45.30135" lon="5.46605">
        <ele>554.3</ele>
        <time>2021-07-31T13:56:37.000Z</time>
      </trkpt>
      <trkpt lat="45.30142" lon="5.46595">
        <ele>557</ele>
        <time>2021-07-31T13:56:42.000Z</time>
      </trkpt>
      <trkpt lat="45.30146" lon="5.46583">
        <ele>558</ele>
        <time>2021-07-31T13:56:46.000Z</time>
      </trkpt>
      <trkpt lat="45.30152" lon="5.46573">
        <ele>560.8</ele>
        <time>2021-07-31T13:56:50.000Z</time>
      </trkpt>
      <trkpt lat="45.3016" lon="5.46565">
        <ele>564.8</ele>
        <time>2021-07-31T13:56:54.000Z</time>
      </trkpt>
      <trkpt lat="45.3017" lon="5.4656">
        <ele>570.1</ele>
        <time>2021-07-31T13:56:58.000Z</time>
      </trkpt>
      <trkpt lat="45.30177" lon="5.4655">
        <ele>573.8</ele>
        <time>2021-07-31T13:57:02.000Z</time>
      </trkpt>
      <trkpt lat="45.30184" lon="5.46539">
        <ele>577</ele>
        <time>2021-07-31T13:57:06.000Z</time>
      </trkpt>
      <trkpt lat="45.30189" lon="5.46526">
        <ele>579.3</ele>
        <time>2021-07-31T13:57:10.000Z</time>
      </trkpt>
      <trkpt lat="45.30191" lon="5.46513">
        <ele>580.2</ele>
        <time>2021-07-31T13:57:14.000Z</time>
      </trkpt>
      <trkpt lat="45.30189" lon="5.46497">
        <ele>579.4</ele>
        <time>2021-07-31T13:57:19.000Z</time>
      </trkpt>
      <trkpt lat="45.30184" lon="5.46485">
        <ele>577.8</ele>
        <time>2021-07-31T13:57:23.000Z</time>
      </trkpt>
      <trkpt lat="45.30182" lon="5.46471">
        <ele>578.3</ele>
        <time>2021-07-31T13:57:27.000Z</time>
      </trkpt>
      <trkpt lat="45.30178" lon="5.46458">
        <ele>577.3</ele>
        <time>2021-07-31T13:57:30.000Z</time>
      </trkpt>
      <trkpt lat="45.30175" lon="5.46445">
        <ele>577.5</ele>
        <time>2021-07-31T13:57:33.000Z</time>
      </trkpt>
      <trkpt lat="45.30173" lon="5.46432">
        <ele>577.6</ele>
        <time>2021-07-31T13:57:36.000Z</time>
      </trkpt>
      <trkpt lat="45.3017" lon="5.46418">
        <ele>577.6</ele>
        <time>2021-07-31T13:57:41.000Z</time>
      </trkpt>
      <trkpt lat="45.30167" lon="5.46405">
        <ele>575.7</ele>
        <time>2021-07-31T13:57:45.000Z</time>
      </trkpt>
      <trkpt lat="45.30166" lon="5.46389">
        <ele>574.4</ele>
        <time>2021-07-31T13:57:50.000Z</time>
      </trkpt>
      <trkpt lat="45.30164" lon="5.46375">
        <ele>573.1</ele>
        <time>2021-07-31T13:57:54.000Z</time>
      </trkpt>
      <trkpt lat="45.30165" lon="5.46361">
        <ele>573</ele>
        <time>2021-07-31T13:57:58.000Z</time>
      </trkpt>
      <trkpt lat="45.30168" lon="5.46347">
        <ele>574.2</ele>
        <time>2021-07-31T13:58:02.000Z</time>
      </trkpt>
      <trkpt lat="45.30171" lon="5.46334">
        <ele>575.8</ele>
        <time>2021-07-31T13:58:06.000Z</time>
      </trkpt>
      <trkpt lat="45.30175" lon="5.4632">
        <ele>577.3</ele>
        <time>2021-07-31T13:58:10.000Z</time>
      </trkpt>
      <trkpt lat="45.30179" lon="5.46308">
        <ele>579</ele>
        <time>2021-07-31T13:58:14.000Z</time>
      </trkpt>
      <trkpt lat="45.30185" lon="5.46296">
        <ele>581.5</ele>
        <time>2021-07-31T13:58:18.000Z</time>
      </trkpt>
      <trkpt lat="45.3019" lon="5.46284">
        <ele>584.2</ele>
        <time>2021-07-31T13:58:22.000Z</time>
      </trkpt>
      <trkpt lat="45.30196" lon="5.46272">
        <ele>586.7</ele>
        <time>2021-07-31T13:58:26.000Z</time>
      </trkpt>
      <trkpt lat="45.30201" lon="5.46259">
        <ele>588.5</ele>
        <time>2021-07-31T13:58:30.000Z</time>
      </trkpt>
      <trkpt lat="45.30202" lon="5.46245">
        <ele>588.5</ele>
        <time>2021-07-31T13:58:34.000Z</time>
      </trkpt>
      <trkpt lat="45.30199" lon="5.46231">
        <ele>586.7</ele>
        <time>2021-07-31T13:58:38.000Z</time>
      </trkpt>
      <trkpt lat="45.30196" lon="5.46219">
        <ele>584.3</ele>
        <time>2021-07-31T13:58:42.000Z</time>
      </trkpt>
      <trkpt lat="45.30189" lon="5.46206">
        <ele>580.1</ele>
        <time>2021-07-31T13:58:47.000Z</time>
      </trkpt>
      <trkpt lat="45.30187" lon="5.46194">
        <ele>578.3</ele>
        <time>2021-07-31T13:58:51.000Z</time>
      </trkpt>
      <trkpt lat="45.30186" lon="5.46181">
        <ele>577.8</ele>
        <time>2021-07-31T13:58:55.000Z</time>
      </trkpt>
      <trkpt lat="45.30188" lon="5.46165">
        <ele>578.4</ele>
        <time>2021-07-31T13:59:00.000Z</time>
      </trkpt>
      <trkpt lat="45.30186" lon="5.4615">
        <ele>577.4</ele>
        <time>2021-07-31T13:59:04.000Z</time>
      </trkpt>
      <trkpt lat="45.30185" lon="5.46135">
        <ele>576.6</ele>
        <time>2021-07-31T13:59:08.000Z</time>
      </trkpt>
      <trkpt lat="45.30186" lon="5.46121">
        <ele>576.9</ele>
        <time>2021-07-31T13:59:12.000Z</time>
      </trkpt>
      <trkpt lat="45.30187" lon="5.46106">
        <ele>577</ele>
        <time>2021-07-31T13:59:16.000Z</time>
      </trkpt>
      <trkpt lat="45.30187" lon="5.46091">
        <ele>576.4</ele>
        <time>2021-07-31T13:59:20.000Z</time>
      </trkpt>
      <trkpt lat="45.30187" lon="5.46077">
        <ele>576</ele>
        <time>2021-07-31T13:59:24.000Z</time>
      </trkpt>
      <trkpt lat="45.30188" lon="5.46064">
        <ele>576</ele>
        <time>2021-07-31T13:59:28.000Z</time>
      </trkpt>
      <trkpt lat="45.30188" lon="5.46049">
        <ele>575.3</ele>
        <time>2021-07-31T13:59:32.000Z</time>
      </trkpt>
      <trkpt lat="45.30188" lon="5.46035">
        <ele>574.9</ele>
        <time>2021-07-31T13:59:36.000Z</time>
      </trkpt>
      <trkpt lat="45.30189" lon="5.46022">
        <ele>574.7</ele>
        <time>2021-07-31T13:59:40.000Z</time>
      </trkpt>
      <trkpt lat="45.3019" lon="5.46008">
        <ele>574.3</ele>
        <time>2021-07-31T13:59:44.000Z</time>
      </trkpt>
      <trkpt lat="45.30191" lon="5.45993">
        <ele>573.9</ele>
        <time>2021-07-31T13:59:48.000Z</time>
      </trkpt>
      <trkpt lat="45.30194" lon="5.45981">
        <ele>574.5</ele>
        <time>2021-07-31T13:59:52.000Z</time>
      </trkpt>
      <trkpt lat="45.30195" lon="5.45966">
        <ele>574</ele>
        <time>2021-07-31T13:59:56.000Z</time>
      </trkpt>
      <trkpt lat="45.30192" lon="5.45953">
        <ele>572.6</ele>
        <time>2021-07-31T14:00:00.000Z</time>
      </trkpt>
      <trkpt lat="45.30187" lon="5.45941">
        <ele>570.4</ele>
        <time>2021-07-31T14:00:04.000Z</time>
      </trkpt>
      <trkpt lat="45.30183" lon="5.45929">
        <ele>568.7</ele>
        <time>2021-07-31T14:00:08.000Z</time>
      </trkpt>
      <trkpt lat="45.30179" lon="5.45916">
        <ele>567.4</ele>
        <time>2021-07-31T14:00:12.000Z</time>
      </trkpt>
      <trkpt lat="45.30176" lon="5.45902">
        <ele>566.8</ele>
        <time>2021-07-31T14:00:16.000Z</time>
      </trkpt>
      <trkpt lat="45.30175" lon="5.45889">
        <ele>566.5</ele>
        <time>2021-07-31T14:00:20.000Z</time>
      </trkpt>
      <trkpt lat="45.30173" lon="5.45874">
        <ele>566.3</ele>
        <time>2021-07-31T14:00:24.000Z</time>
      </trkpt>
      <trkpt lat="45.30174" lon="5.45858">
        <ele>566.6</ele>
        <time>2021-07-31T14:00:28.000Z</time>
      </trkpt>
      <trkpt lat="45.30183" lon="5.45864">
        <ele>569.1</ele>
        <time>2021-07-31T14:00:35.000Z</time>
      </trkpt>
      <trkpt lat="45.30189" lon="5.45876">
        <ele>570.3</ele>
        <time>2021-07-31T14:00:39.000Z</time>
      </trkpt>
      <trkpt lat="45.30196" lon="5.45885">
        <ele>572.1</ele>
        <time>2021-07-31T14:00:44.000Z</time>
      </trkpt>
      <trkpt lat="45.30205" lon="5.45891">
        <ele>574.4</ele>
        <time>2021-07-31T14:00:49.000Z</time>
      </trkpt>
      <trkpt lat="45.30214" lon="5.45896">
        <ele>576.7</ele>
        <time>2021-07-31T14:00:54.000Z</time>
      </trkpt>
      <trkpt lat="45.30221" lon="5.45905">
        <ele>578.7</ele>
        <time>2021-07-31T14:01:00.000Z</time>
      </trkpt>
      <trkpt lat="45.30226" lon="5.45918">
        <ele>579.9</ele>
        <time>2021-07-31T14:01:06.000Z</time>
      </trkpt>
      <trkpt lat="45.3023" lon="5.45931">
        <ele>582</ele>
        <time>2021-07-31T14:01:12.000Z</time>
      </trkpt>
      <trkpt lat="45.30236" lon="5.45943">
        <ele>584.4</ele>
        <time>2021-07-31T14:01:18.000Z</time>
      </trkpt>
      <trkpt lat="45.30243" lon="5.45952">
        <ele>587.5</ele>
        <time>2021-07-31T14:01:24.000Z</time>
      </trkpt>
      <trkpt lat="45.30252" lon="5.45956">
        <ele>590.9</ele>
        <time>2021-07-31T14:01:30.000Z</time>
      </trkpt>
      <trkpt lat="45.30262" lon="5.45958">
        <ele>596</ele>
        <time>2021-07-31T14:01:36.000Z</time>
      </trkpt>
      <trkpt lat="45.30271" lon="5.4596">
        <ele>601.2</ele>
        <time>2021-07-31T14:01:43.000Z</time>
      </trkpt>
      <trkpt lat="45.3028" lon="5.45966">
        <ele>606.2</ele>
        <time>2021-07-31T14:01:50.000Z</time>
      </trkpt>
      <trkpt lat="45.30287" lon="5.45975">
        <ele>611.3</ele>
        <time>2021-07-31T14:01:56.000Z</time>
      </trkpt>
      <trkpt lat="45.30292" lon="5.45986">
        <ele>615</ele>
        <time>2021-07-31T14:02:02.000Z</time>
      </trkpt>
      <trkpt lat="45.30291" lon="5.45999">
        <ele>615.8</ele>
        <time>2021-07-31T14:02:08.000Z</time>
      </trkpt>
      <trkpt lat="45.30288" lon="5.46014">
        <ele>617.1</ele>
        <time>2021-07-31T14:02:14.000Z</time>
      </trkpt>
      <trkpt lat="45.30287" lon="5.46029">
        <ele>619.1</ele>
        <time>2021-07-31T14:02:20.000Z</time>
      </trkpt>
      <trkpt lat="45.30285" lon="5.46042">
        <ele>620.7</ele>
        <time>2021-07-31T14:02:25.000Z</time>
      </trkpt>
      <trkpt lat="45.30285" lon="5.46055">
        <ele>623</ele>
        <time>2021-07-31T14:02:29.000Z</time>
      </trkpt>
      <trkpt lat="45.30284" lon="5.46069">
        <ele>624.8</ele>
        <time>2021-07-31T14:02:34.000Z</time>
      </trkpt>
      <trkpt lat="45.30282" lon="5.46083">
        <ele>625.9</ele>
        <time>2021-07-31T14:02:39.000Z</time>
      </trkpt>
      <trkpt lat="45.30283" lon="5.46096">
        <ele>628.2</ele>
        <time>2021-07-31T14:02:44.000Z</time>
      </trkpt>
      <trkpt lat="45.30286" lon="5.46108">
        <ele>631.2</ele>
        <time>2021-07-31T14:02:48.000Z</time>
      </trkpt>
      <trkpt lat="45.30288" lon="5.46121">
        <ele>633.6</ele>
        <time>2021-07-31T14:02:53.000Z</time>
      </trkpt>
      <trkpt lat="45.30291" lon="5.46135">
        <ele>637.3</ele>
        <time>2021-07-31T14:02:59.000Z</time>
      </trkpt>
      <trkpt lat="45.30293" lon="5.46148">
        <ele>639.8</ele>
        <time>2021-07-31T14:03:05.000Z</time>
      </trkpt>
      <trkpt lat="45.30297" lon="5.46162">
        <ele>643.7</ele>
        <time>2021-07-31T14:03:11.000Z</time>
      </trkpt>
      <trkpt lat="45.30302" lon="5.46174">
        <ele>647.5</ele>
        <time>2021-07-31T14:03:18.000Z</time>
      </trkpt>
      <trkpt lat="45.30305" lon="5.46187">
        <ele>649.7</ele>
        <time>2021-07-31T14:03:24.000Z</time>
      </trkpt>
      <trkpt lat="45.30308" lon="5.46202">
        <ele>652.7</ele>
        <time>2021-07-31T14:03:29.000Z</time>
      </trkpt>
      <trkpt lat="45.30309" lon="5.46216">
        <ele>653.6</ele>
        <time>2021-07-31T14:03:36.000Z</time>
      </trkpt>
      <trkpt lat="45.30308" lon="5.46231">
        <ele>653</ele>
        <time>2021-07-31T14:03:42.000Z</time>
      </trkpt>
      <trkpt lat="45.30307" lon="5.46245">
        <ele>652.9</ele>
        <time>2021-07-31T14:03:47.000Z</time>
      </trkpt>
      <trkpt lat="45.30306" lon="5.4626">
        <ele>652.7</ele>
        <time>2021-07-31T14:03:52.000Z</time>
      </trkpt>
      <trkpt lat="45.30306" lon="5.46275">
        <ele>653.5</ele>
        <time>2021-07-31T14:03:58.000Z</time>
      </trkpt>
      <trkpt lat="45.30306" lon="5.46289">
        <ele>653.5</ele>
        <time>2021-07-31T14:04:04.000Z</time>
      </trkpt>
      <trkpt lat="45.30305" lon="5.46303">
        <ele>653.9</ele>
        <time>2021-07-31T14:04:10.000Z</time>
      </trkpt>
      <trkpt lat="45.30307" lon="5.46317">
        <ele>655</ele>
        <time>2021-07-31T14:04:15.000Z</time>
      </trkpt>
      <trkpt lat="45.30306" lon="5.46331">
        <ele>654.8</ele>
        <time>2021-07-31T14:04:21.000Z</time>
      </trkpt>
      <trkpt lat="45.30306" lon="5.46345">
        <ele>653.8</ele>
        <time>2021-07-31T14:04:27.000Z</time>
      </trkpt>
      <trkpt lat="45.30307" lon="5.4636">
        <ele>653.7</ele>
        <time>2021-07-31T14:04:33.000Z</time>
      </trkpt>
      <trkpt lat="45.30309" lon="5.46373">
        <ele>653.2</ele>
        <time>2021-07-31T14:04:38.000Z</time>
      </trkpt>
      <trkpt lat="45.3031" lon="5.46387">
        <ele>652.9</ele>
        <time>2021-07-31T14:04:44.000Z</time>
      </trkpt>
      <trkpt lat="45.30311" lon="5.46401">
        <ele>652.1</ele>
        <time>2021-07-31T14:04:52.000Z</time>
      </trkpt>
      <trkpt lat="45.30316" lon="5.46415">
        <ele>653.4</ele>
        <time>2021-07-31T14:04:57.000Z</time>
      </trkpt>
      <trkpt lat="45.30319" lon="5.46427">
        <ele>654.2</ele>
        <time>2021-07-31T14:05:03.000Z</time>
      </trkpt>
      <trkpt lat="45.30326" lon="5.46437">
        <ele>656.8</ele>
        <time>2021-07-31T14:05:08.000Z</time>
      </trkpt>
      <trkpt lat="45.30327" lon="5.46452">
        <ele>656.4</ele>
        <time>2021-07-31T14:05:14.000Z</time>
      </trkpt>
      <trkpt lat="45.3033" lon="5.46464">
        <ele>656.8</ele>
        <time>2021-07-31T14:05:21.000Z</time>
      </trkpt>
      <trkpt lat="45.30334" lon="5.46476">
        <ele>657.8</ele>
        <time>2021-07-31T14:05:27.000Z</time>
      </trkpt>
      <trkpt lat="45.30342" lon="5.46484">
        <ele>656.8</ele>
        <time>2021-07-31T14:05:32.000Z</time>
      </trkpt>
      <trkpt lat="45.30349" lon="5.46474">
        <ele>657.3</ele>
        <time>2021-07-31T14:05:38.000Z</time>
      </trkpt>
      <trkpt lat="45.30347" lon="5.4646">
        <ele>658.6</ele>
        <time>2021-07-31T14:05:43.000Z</time>
      </trkpt>
      <trkpt lat="45.30345" lon="5.46447">
        <ele>659.7</ele>
        <time>2021-07-31T14:05:48.000Z</time>
      </trkpt>
      <trkpt lat="45.30346" lon="5.46433">
        <ele>660.7</ele>
        <time>2021-07-31T14:05:53.000Z</time>
      </trkpt>
      <trkpt lat="45.30347" lon="5.4642">
        <ele>661.9</ele>
        <time>2021-07-31T14:05:57.000Z</time>
      </trkpt>
      <trkpt lat="45.30345" lon="5.46405">
        <ele>663.4</ele>
        <time>2021-07-31T14:06:02.000Z</time>
      </trkpt>
      <trkpt lat="45.30343" lon="5.4639">
        <ele>664.9</ele>
        <time>2021-07-31T14:06:07.000Z</time>
      </trkpt>
      <trkpt lat="45.30344" lon="5.46377">
        <ele>666.3</ele>
        <time>2021-07-31T14:06:12.000Z</time>
      </trkpt>
      <trkpt lat="45.30346" lon="5.46363">
        <ele>667.7</ele>
        <time>2021-07-31T14:06:17.000Z</time>
      </trkpt>
      <trkpt lat="45.30348" lon="5.4635">
        <ele>669.2</ele>
        <time>2021-07-31T14:06:22.000Z</time>
      </trkpt>
      <trkpt lat="45.3035" lon="5.46337">
        <ele>670.8</ele>
        <time>2021-07-31T14:06:27.000Z</time>
      </trkpt>
      <trkpt lat="45.30353" lon="5.46324">
        <ele>672</ele>
        <time>2021-07-31T14:06:32.000Z</time>
      </trkpt>
      <trkpt lat="45.30357" lon="5.46312">
        <ele>673.2</ele>
        <time>2021-07-31T14:06:37.000Z</time>
      </trkpt>
      <trkpt lat="45.30359" lon="5.46299">
        <ele>674.5</ele>
        <time>2021-07-31T14:06:42.000Z</time>
      </trkpt>
      <trkpt lat="45.3036" lon="5.46284">
        <ele>675.7</ele>
        <time>2021-07-31T14:06:47.000Z</time>
      </trkpt>
      <trkpt lat="45.30365" lon="5.46271">
        <ele>677.9</ele>
        <time>2021-07-31T14:06:52.000Z</time>
      </trkpt>
      <trkpt lat="45.30366" lon="5.46258">
        <ele>679.4</ele>
        <time>2021-07-31T14:06:57.000Z</time>
      </trkpt>
      <trkpt lat="45.30369" lon="5.46245">
        <ele>681.3</ele>
        <time>2021-07-31T14:07:03.000Z</time>
      </trkpt>
      <trkpt lat="45.30372" lon="5.4623">
        <ele>682.6</ele>
        <time>2021-07-31T14:07:09.000Z</time>
      </trkpt>
      <trkpt lat="45.30375" lon="5.46218">
        <ele>684.5</ele>
        <time>2021-07-31T14:07:14.000Z</time>
      </trkpt>
      <trkpt lat="45.30378" lon="5.46204">
        <ele>686.1</ele>
        <time>2021-07-31T14:07:20.000Z</time>
      </trkpt>
      <trkpt lat="45.3038" lon="5.4619">
        <ele>687.5</ele>
        <time>2021-07-31T14:07:28.000Z</time>
      </trkpt>
      <trkpt lat="45.30381" lon="5.46176">
        <ele>688.8</ele>
        <time>2021-07-31T14:07:33.000Z</time>
      </trkpt>
      <trkpt lat="45.3038" lon="5.46163">
        <ele>688.2</ele>
        <time>2021-07-31T14:07:39.000Z</time>
      </trkpt>
      <trkpt lat="45.30379" lon="5.46149">
        <ele>687</ele>
        <time>2021-07-31T14:07:44.000Z</time>
      </trkpt>
      <trkpt lat="45.30381" lon="5.46134">
        <ele>686.6</ele>
        <time>2021-07-31T14:07:50.000Z</time>
      </trkpt>
      <trkpt lat="45.30382" lon="5.4612">
        <ele>686.3</ele>
        <time>2021-07-31T14:07:55.000Z</time>
      </trkpt>
      <trkpt lat="45.30387" lon="5.46107">
        <ele>687.2</ele>
        <time>2021-07-31T14:08:00.000Z</time>
      </trkpt>
      <trkpt lat="45.30393" lon="5.46095">
        <ele>689.5</ele>
        <time>2021-07-31T14:08:05.000Z</time>
      </trkpt>
      <trkpt lat="45.304" lon="5.46085">
        <ele>692.2</ele>
        <time>2021-07-31T14:08:10.000Z</time>
      </trkpt>
      <trkpt lat="45.30407" lon="5.46074">
        <ele>694.6</ele>
        <time>2021-07-31T14:08:16.000Z</time>
      </trkpt>
      <trkpt lat="45.30414" lon="5.46066">
        <ele>696.5</ele>
        <time>2021-07-31T14:08:21.000Z</time>
      </trkpt>
      <trkpt lat="45.30422" lon="5.46056">
        <ele>697.3</ele>
        <time>2021-07-31T14:08:27.000Z</time>
      </trkpt>
      <trkpt lat="45.30429" lon="5.46046">
        <ele>697.2</ele>
        <time>2021-07-31T14:08:32.000Z</time>
      </trkpt>
      <trkpt lat="45.30435" lon="5.46037">
        <ele>697.3</ele>
        <time>2021-07-31T14:08:36.000Z</time>
      </trkpt>
      <trkpt lat="45.30441" lon="5.46027">
        <ele>697.4</ele>
        <time>2021-07-31T14:08:40.000Z</time>
      </trkpt>
      <trkpt lat="45.30448" lon="5.46014">
        <ele>697.2</ele>
        <time>2021-07-31T14:08:45.000Z</time>
      </trkpt>
      <trkpt lat="45.30453" lon="5.46002">
        <ele>697.1</ele>
        <time>2021-07-31T14:08:50.000Z</time>
      </trkpt>
      <trkpt lat="45.30459" lon="5.45992">
        <ele>697.8</ele>
        <time>2021-07-31T14:08:54.000Z</time>
      </trkpt>
      <trkpt lat="45.30466" lon="5.45981">
        <ele>698.9</ele>
        <time>2021-07-31T14:08:59.000Z</time>
      </trkpt>
      <trkpt lat="45.30471" lon="5.4597">
        <ele>699.6</ele>
        <time>2021-07-31T14:09:03.000Z</time>
      </trkpt>
      <trkpt lat="45.30477" lon="5.4596">
        <ele>700.6</ele>
        <time>2021-07-31T14:09:07.000Z</time>
      </trkpt>
      <trkpt lat="45.30482" lon="5.45949">
        <ele>701.3</ele>
        <time>2021-07-31T14:09:11.000Z</time>
      </trkpt>
      <trkpt lat="45.30488" lon="5.45936">
        <ele>702.2</ele>
        <time>2021-07-31T14:09:16.000Z</time>
      </trkpt>
      <trkpt lat="45.30492" lon="5.45924">
        <ele>702.6</ele>
        <time>2021-07-31T14:09:22.000Z</time>
      </trkpt>
      <trkpt lat="45.30487" lon="5.4591">
        <ele>700.4</ele>
        <time>2021-07-31T14:09:29.000Z</time>
      </trkpt>
      <trkpt lat="45.30487" lon="5.45895">
        <ele>699.6</ele>
        <time>2021-07-31T14:09:33.000Z</time>
      </trkpt>
      <trkpt lat="45.30485" lon="5.45881">
        <ele>698.8</ele>
        <time>2021-07-31T14:09:38.000Z</time>
      </trkpt>
      <trkpt lat="45.30487" lon="5.45865">
        <ele>698.7</ele>
        <time>2021-07-31T14:09:44.000Z</time>
      </trkpt>
      <trkpt lat="45.30487" lon="5.45851">
        <ele>698.2</ele>
        <time>2021-07-31T14:09:49.000Z</time>
      </trkpt>
      <trkpt lat="45.30484" lon="5.45836">
        <ele>697.3</ele>
        <time>2021-07-31T14:09:54.000Z</time>
      </trkpt>
      <trkpt lat="45.30482" lon="5.45822">
        <ele>696.1</ele>
        <time>2021-07-31T14:09:59.000Z</time>
      </trkpt>
      <trkpt lat="45.3048" lon="5.45807">
        <ele>694.8</ele>
        <time>2021-07-31T14:10:04.000Z</time>
      </trkpt>
      <trkpt lat="45.30478" lon="5.45793">
        <ele>693.7</ele>
        <time>2021-07-31T14:10:08.000Z</time>
      </trkpt>
      <trkpt lat="45.30474" lon="5.45778">
        <ele>692.3</ele>
        <time>2021-07-31T14:10:13.000Z</time>
      </trkpt>
      <trkpt lat="45.30471" lon="5.45766">
        <ele>691.5</ele>
        <time>2021-07-31T14:10:18.000Z</time>
      </trkpt>
      <trkpt lat="45.3047" lon="5.45751">
        <ele>690.7</ele>
        <time>2021-07-31T14:10:23.000Z</time>
      </trkpt>
      <trkpt lat="45.30467" lon="5.45737">
        <ele>689.6</ele>
        <time>2021-07-31T14:10:27.000Z</time>
      </trkpt>
      <trkpt lat="45.30467" lon="5.45723">
        <ele>688.7</ele>
        <time>2021-07-31T14:10:31.000Z</time>
      </trkpt>
      <trkpt lat="45.30469" lon="5.4571">
        <ele>688.2</ele>
        <time>2021-07-31T14:10:34.000Z</time>
      </trkpt>
      <trkpt lat="45.30476" lon="5.45698">
        <ele>688.3</ele>
        <time>2021-07-31T14:10:38.000Z</time>
      </trkpt>
      <trkpt lat="45.30484" lon="5.45687">
        <ele>688.5</ele>
        <time>2021-07-31T14:10:42.000Z</time>
      </trkpt>
      <trkpt lat="45.30491" lon="5.45679">
        <ele>688.8</ele>
        <time>2021-07-31T14:10:45.000Z</time>
      </trkpt>
      <trkpt lat="45.30501" lon="5.45672">
        <ele>689.4</ele>
        <time>2021-07-31T14:10:49.000Z</time>
      </trkpt>
      <trkpt lat="45.30513" lon="5.45669">
        <ele>689.4</ele>
        <time>2021-07-31T14:10:53.000Z</time>
      </trkpt>
      <trkpt lat="45.30523" lon="5.45662">
        <ele>689.2</ele>
        <time>2021-07-31T14:10:57.000Z</time>
      </trkpt>
      <trkpt lat="45.30531" lon="5.45653">
        <ele>688.8</ele>
        <time>2021-07-31T14:11:00.000Z</time>
      </trkpt>
      <trkpt lat="45.30539" lon="5.45642">
        <ele>688.2</ele>
        <time>2021-07-31T14:11:04.000Z</time>
      </trkpt>
      <trkpt lat="45.30545" lon="5.45629">
        <ele>687.6</ele>
        <time>2021-07-31T14:11:08.000Z</time>
      </trkpt>
      <trkpt lat="45.30552" lon="5.4562">
        <ele>687.1</ele>
        <time>2021-07-31T14:11:13.000Z</time>
      </trkpt>
      <trkpt lat="45.30561" lon="5.4561">
        <ele>686.5</ele>
        <time>2021-07-31T14:11:18.000Z</time>
      </trkpt>
      <trkpt lat="45.30566" lon="5.456">
        <ele>685.9</ele>
        <time>2021-07-31T14:11:22.000Z</time>
      </trkpt>
      <trkpt lat="45.30573" lon="5.45591">
        <ele>685.4</ele>
        <time>2021-07-31T14:11:26.000Z</time>
      </trkpt>
      <trkpt lat="45.30581" lon="5.45581">
        <ele>684.8</ele>
        <time>2021-07-31T14:11:32.000Z</time>
      </trkpt>
      <trkpt lat="45.30586" lon="5.4557">
        <ele>683.7</ele>
        <time>2021-07-31T14:11:37.000Z</time>
      </trkpt>
      <trkpt lat="45.30592" lon="5.45559">
        <ele>682.5</ele>
        <time>2021-07-31T14:11:43.000Z</time>
      </trkpt>
      <trkpt lat="45.30599" lon="5.45548">
        <ele>681.2</ele>
        <time>2021-07-31T14:11:48.000Z</time>
      </trkpt>
      <trkpt lat="45.30605" lon="5.45537">
        <ele>680</ele>
        <time>2021-07-31T14:11:53.000Z</time>
      </trkpt>
      <trkpt lat="45.30605" lon="5.45537">
        <ele>680.1</ele>
        <time>2021-07-31T14:11:59.000Z</time>
      </trkpt>
      <trkpt lat="45.30605" lon="5.45537">
        <ele>680</ele>
        <time>2021-07-31T14:14:33.000Z</time>
      </trkpt>
      <trkpt lat="45.30605" lon="5.45536">
        <ele>679.9</ele>
        <time>2021-07-31T14:14:36.000Z</time>
      </trkpt>
      <trkpt lat="45.30605" lon="5.45536">
        <ele>680</ele>
        <time>2021-07-31T14:14:37.000Z</time>
      </trkpt>
      <trkpt lat="45.30604" lon="5.45538">
        <ele>680.2</ele>
        <time>2021-07-31T14:14:47.000Z</time>
      </trkpt>
      <trkpt lat="45.30604" lon="5.45537">
        <ele>680.1</ele>
        <time>2021-07-31T14:14:55.000Z</time>
      </trkpt>
      <trkpt lat="45.30603" lon="5.45522">
        <ele>678.9</ele>
        <time>2021-07-31T14:15:00.000Z</time>
      </trkpt>
      <trkpt lat="45.30605" lon="5.45508">
        <ele>677.8</ele>
        <time>2021-07-31T14:15:05.000Z</time>
      </trkpt>
      <trkpt lat="45.30608" lon="5.45494">
        <ele>676.4</ele>
        <time>2021-07-31T14:15:09.000Z</time>
      </trkpt>
      <trkpt lat="45.30611" lon="5.4548">
        <ele>674.8</ele>
        <time>2021-07-31T14:15:12.000Z</time>
      </trkpt>
      <trkpt lat="45.30613" lon="5.45467">
        <ele>673.3</ele>
        <time>2021-07-31T14:15:15.000Z</time>
      </trkpt>
      <trkpt lat="45.30616" lon="5.45453">
        <ele>671.5</ele>
        <time>2021-07-31T14:15:18.000Z</time>
      </trkpt>
      <trkpt lat="45.30619" lon="5.45438">
        <ele>669.8</ele>
        <time>2021-07-31T14:15:21.000Z</time>
      </trkpt>
      <trkpt lat="45.30622" lon="5.45426">
        <ele>668.2</ele>
        <time>2021-07-31T14:15:24.000Z</time>
      </trkpt>
      <trkpt lat="45.30625" lon="5.4541">
        <ele>666.6</ele>
        <time>2021-07-31T14:15:28.000Z</time>
      </trkpt>
      <trkpt lat="45.30627" lon="5.45396">
        <ele>665.7</ele>
        <time>2021-07-31T14:15:32.000Z</time>
      </trkpt>
      <trkpt lat="45.30628" lon="5.45379">
        <ele>664.9</ele>
        <time>2021-07-31T14:15:37.000Z</time>
      </trkpt>
      <trkpt lat="45.30624" lon="5.45367">
        <ele>664.7</ele>
        <time>2021-07-31T14:15:40.000Z</time>
      </trkpt>
      <trkpt lat="45.30617" lon="5.45358">
        <ele>665.2</ele>
        <time>2021-07-31T14:15:43.000Z</time>
      </trkpt>
      <trkpt lat="45.30609" lon="5.4535">
        <ele>665.8</ele>
        <time>2021-07-31T14:15:46.000Z</time>
      </trkpt>
      <trkpt lat="45.30601" lon="5.45344">
        <ele>666.7</ele>
        <time>2021-07-31T14:15:49.000Z</time>
      </trkpt>
      <trkpt lat="45.30592" lon="5.45337">
        <ele>667.8</ele>
        <time>2021-07-31T14:15:52.000Z</time>
      </trkpt>
      <trkpt lat="45.30584" lon="5.4533">
        <ele>668.6</ele>
        <time>2021-07-31T14:15:55.000Z</time>
      </trkpt>
      <trkpt lat="45.30575" lon="5.45324">
        <ele>669.5</ele>
        <time>2021-07-31T14:15:58.000Z</time>
      </trkpt>
      <trkpt lat="45.30566" lon="5.45316">
        <ele>670.2</ele>
        <time>2021-07-31T14:16:01.000Z</time>
      </trkpt>
      <trkpt lat="45.30558" lon="5.45309">
        <ele>670.9</ele>
        <time>2021-07-31T14:16:04.000Z</time>
      </trkpt>
      <trkpt lat="45.30548" lon="5.45302">
        <ele>671.5</ele>
        <time>2021-07-31T14:16:07.000Z</time>
      </trkpt>
      <trkpt lat="45.30537" lon="5.45294">
        <ele>672.1</ele>
        <time>2021-07-31T14:16:10.000Z</time>
      </trkpt>
      <trkpt lat="45.30527" lon="5.45287">
        <ele>672.6</ele>
        <time>2021-07-31T14:16:13.000Z</time>
      </trkpt>
      <trkpt lat="45.30517" lon="5.45281">
        <ele>673.1</ele>
        <time>2021-07-31T14:16:16.000Z</time>
      </trkpt>
      <trkpt lat="45.30507" lon="5.45274">
        <ele>673.3</ele>
        <time>2021-07-31T14:16:19.000Z</time>
      </trkpt>
      <trkpt lat="45.30498" lon="5.45268">
        <ele>673.4</ele>
        <time>2021-07-31T14:16:22.000Z</time>
      </trkpt>
      <trkpt lat="45.30489" lon="5.45261">
        <ele>673.5</ele>
        <time>2021-07-31T14:16:25.000Z</time>
      </trkpt>
      <trkpt lat="45.3048" lon="5.45252">
        <ele>673.3</ele>
        <time>2021-07-31T14:16:29.000Z</time>
      </trkpt>
      <trkpt lat="45.30472" lon="5.4524">
        <ele>674.1</ele>
        <time>2021-07-31T14:16:33.000Z</time>
      </trkpt>
      <trkpt lat="45.30467" lon="5.45228">
        <ele>674.5</ele>
        <time>2021-07-31T14:16:36.000Z</time>
      </trkpt>
      <trkpt lat="45.30465" lon="5.45213">
        <ele>674.6</ele>
        <time>2021-07-31T14:16:40.000Z</time>
      </trkpt>
      <trkpt lat="45.30466" lon="5.452">
        <ele>673.9</ele>
        <time>2021-07-31T14:16:43.000Z</time>
      </trkpt>
      <trkpt lat="45.3047" lon="5.45187">
        <ele>672.9</ele>
        <time>2021-07-31T14:16:46.000Z</time>
      </trkpt>
      <trkpt lat="45.30474" lon="5.45174">
        <ele>671.8</ele>
        <time>2021-07-31T14:16:49.000Z</time>
      </trkpt>
      <trkpt lat="45.30478" lon="5.45161">
        <ele>671.3</ele>
        <time>2021-07-31T14:16:53.000Z</time>
      </trkpt>
      <trkpt lat="45.30481" lon="5.45149">
        <ele>671.4</ele>
        <time>2021-07-31T14:16:58.000Z</time>
      </trkpt>
      <trkpt lat="45.30484" lon="5.45136">
        <ele>671.5</ele>
        <time>2021-07-31T14:17:03.000Z</time>
      </trkpt>
      <trkpt lat="45.30486" lon="5.45123">
        <ele>671.9</ele>
        <time>2021-07-31T14:17:08.000Z</time>
      </trkpt>
      <trkpt lat="45.30484" lon="5.4511">
        <ele>673</ele>
        <time>2021-07-31T14:17:12.000Z</time>
      </trkpt>
      <trkpt lat="45.30483" lon="5.45096">
        <ele>673.9</ele>
        <time>2021-07-31T14:17:18.000Z</time>
      </trkpt>
      <trkpt lat="45.30481" lon="5.45083">
        <ele>675</ele>
        <time>2021-07-31T14:17:24.000Z</time>
      </trkpt>
      <trkpt lat="45.30476" lon="5.45068">
        <ele>674.2</ele>
        <time>2021-07-31T14:17:28.000Z</time>
      </trkpt>
      <trkpt lat="45.30471" lon="5.4505">
        <ele>673.3</ele>
        <time>2021-07-31T14:17:31.000Z</time>
      </trkpt>
      <trkpt lat="45.30463" lon="5.45035">
        <ele>673.4</ele>
        <time>2021-07-31T14:17:34.000Z</time>
      </trkpt>
      <trkpt lat="45.30455" lon="5.4502">
        <ele>673.5</ele>
        <time>2021-07-31T14:17:37.000Z</time>
      </trkpt>
      <trkpt lat="45.30448" lon="5.45006">
        <ele>673.6</ele>
        <time>2021-07-31T14:17:40.000Z</time>
      </trkpt>
      <trkpt lat="45.30441" lon="5.44994">
        <ele>674.5</ele>
        <time>2021-07-31T14:17:43.000Z</time>
      </trkpt>
      <trkpt lat="45.30434" lon="5.44981">
        <ele>675.7</ele>
        <time>2021-07-31T14:17:46.000Z</time>
      </trkpt>
      <trkpt lat="45.30428" lon="5.44968">
        <ele>676.7</ele>
        <time>2021-07-31T14:17:49.000Z</time>
      </trkpt>
      <trkpt lat="45.30423" lon="5.44955">
        <ele>677.3</ele>
        <time>2021-07-31T14:17:52.000Z</time>
      </trkpt>
      <trkpt lat="45.30417" lon="5.44944">
        <ele>678.2</ele>
        <time>2021-07-31T14:17:55.000Z</time>
      </trkpt>
      <trkpt lat="45.30411" lon="5.44932">
        <ele>678.8</ele>
        <time>2021-07-31T14:17:59.000Z</time>
      </trkpt>
      <trkpt lat="45.30406" lon="5.44919">
        <ele>679.1</ele>
        <time>2021-07-31T14:18:04.000Z</time>
      </trkpt>
      <trkpt lat="45.304" lon="5.44907">
        <ele>681.2</ele>
        <time>2021-07-31T14:18:10.000Z</time>
      </trkpt>
      <trkpt lat="45.30394" lon="5.44896">
        <ele>683.8</ele>
        <time>2021-07-31T14:18:17.000Z</time>
      </trkpt>
      <trkpt lat="45.30388" lon="5.44885">
        <ele>686.3</ele>
        <time>2021-07-31T14:18:22.000Z</time>
      </trkpt>
      <trkpt lat="45.30387" lon="5.44872">
        <ele>688</ele>
        <time>2021-07-31T14:18:26.000Z</time>
      </trkpt>
      <trkpt lat="45.30393" lon="5.44856">
        <ele>688.9</ele>
        <time>2021-07-31T14:18:30.000Z</time>
      </trkpt>
      <trkpt lat="45.30401" lon="5.44842">
        <ele>689.2</ele>
        <time>2021-07-31T14:18:32.000Z</time>
      </trkpt>
      <trkpt lat="45.30411" lon="5.4483">
        <ele>689.6</ele>
        <time>2021-07-31T14:18:34.000Z</time>
      </trkpt>
      <trkpt lat="45.30423" lon="5.44817">
        <ele>690.8</ele>
        <time>2021-07-31T14:18:36.000Z</time>
      </trkpt>
      <trkpt lat="45.30434" lon="5.44806">
        <ele>691.9</ele>
        <time>2021-07-31T14:18:38.000Z</time>
      </trkpt>
      <trkpt lat="45.30443" lon="5.44795">
        <ele>693</ele>
        <time>2021-07-31T14:18:40.000Z</time>
      </trkpt>
      <trkpt lat="45.3045" lon="5.44786">
        <ele>694</ele>
        <time>2021-07-31T14:18:42.000Z</time>
      </trkpt>
      <trkpt lat="45.30458" lon="5.44779">
        <ele>694.4</ele>
        <time>2021-07-31T14:18:45.000Z</time>
      </trkpt>
      <trkpt lat="45.30465" lon="5.4477">
        <ele>695.3</ele>
        <time>2021-07-31T14:18:50.000Z</time>
      </trkpt>
      <trkpt lat="45.30473" lon="5.4476">
        <ele>696.5</ele>
        <time>2021-07-31T14:18:56.000Z</time>
      </trkpt>
      <trkpt lat="45.30483" lon="5.44754">
        <ele>696.2</ele>
        <time>2021-07-31T14:19:01.000Z</time>
      </trkpt>
      <trkpt lat="45.30493" lon="5.44747">
        <ele>695.7</ele>
        <time>2021-07-31T14:19:06.000Z</time>
      </trkpt>
      <trkpt lat="45.30497" lon="5.44735">
        <ele>694.3</ele>
        <time>2021-07-31T14:19:11.000Z</time>
      </trkpt>
      <trkpt lat="45.30488" lon="5.44731">
        <ele>695.1</ele>
        <time>2021-07-31T14:19:17.000Z</time>
      </trkpt>
      <trkpt lat="45.3048" lon="5.4474">
        <ele>696.7</ele>
        <time>2021-07-31T14:19:23.000Z</time>
      </trkpt>
      <trkpt lat="45.30471" lon="5.44742">
        <ele>698</ele>
        <time>2021-07-31T14:19:28.000Z</time>
      </trkpt>
      <trkpt lat="45.30462" lon="5.44743">
        <ele>699.1</ele>
        <time>2021-07-31T14:19:33.000Z</time>
      </trkpt>
      <trkpt lat="45.30452" lon="5.44742">
        <ele>700.3</ele>
        <time>2021-07-31T14:19:39.000Z</time>
      </trkpt>
      <trkpt lat="45.30443" lon="5.44737">
        <ele>701.1</ele>
        <time>2021-07-31T14:19:46.000Z</time>
      </trkpt>
      <trkpt lat="45.30434" lon="5.44734">
        <ele>702</ele>
        <time>2021-07-31T14:19:55.000Z</time>
      </trkpt>
      <trkpt lat="45.30426" lon="5.44726">
        <ele>702.6</ele>
        <time>2021-07-31T14:20:03.000Z</time>
      </trkpt>
      <trkpt lat="45.30418" lon="5.44719">
        <ele>703.3</ele>
        <time>2021-07-31T14:20:10.000Z</time>
      </trkpt>
      <trkpt lat="45.30409" lon="5.44713">
        <ele>704.8</ele>
        <time>2021-07-31T14:20:19.000Z</time>
      </trkpt>
      <trkpt lat="45.304" lon="5.44708">
        <ele>706.6</ele>
        <time>2021-07-31T14:20:26.000Z</time>
      </trkpt>
      <trkpt lat="45.3039" lon="5.44707">
        <ele>708.6</ele>
        <time>2021-07-31T14:20:33.000Z</time>
      </trkpt>
      <trkpt lat="45.30381" lon="5.44707">
        <ele>710.7</ele>
        <time>2021-07-31T14:20:41.000Z</time>
      </trkpt>
      <trkpt lat="45.30371" lon="5.44707">
        <ele>712.8</ele>
        <time>2021-07-31T14:20:49.000Z</time>
      </trkpt>
      <trkpt lat="45.30362" lon="5.44707">
        <ele>714.9</ele>
        <time>2021-07-31T14:20:57.000Z</time>
      </trkpt>
      <trkpt lat="45.30352" lon="5.44709">
        <ele>717</ele>
        <time>2021-07-31T14:21:06.000Z</time>
      </trkpt>
      <trkpt lat="45.30343" lon="5.44708">
        <ele>719.1</ele>
        <time>2021-07-31T14:21:14.000Z</time>
      </trkpt>
      <trkpt lat="45.30333" lon="5.44705">
        <ele>721.3</ele>
        <time>2021-07-31T14:21:22.000Z</time>
      </trkpt>
      <trkpt lat="45.30325" lon="5.44698">
        <ele>722.8</ele>
        <time>2021-07-31T14:21:33.000Z</time>
      </trkpt>
      <trkpt lat="45.30317" lon="5.4469">
        <ele>724.2</ele>
        <time>2021-07-31T14:21:47.000Z</time>
      </trkpt>
      <trkpt lat="45.30312" lon="5.44679">
        <ele>725.6</ele>
        <time>2021-07-31T14:21:59.000Z</time>
      </trkpt>
      <trkpt lat="45.30308" lon="5.44675">
        <ele>726.5</ele>
        <time>2021-07-31T14:22:09.000Z</time>
      </trkpt>
      <trkpt lat="45.30308" lon="5.44675">
        <ele>726.5</ele>
        <time>2021-07-31T14:22:10.000Z</time>
      </trkpt>
      <trkpt lat="45.30307" lon="5.44676">
        <ele>726.6</ele>
        <time>2021-07-31T14:22:18.000Z</time>
      </trkpt>
      <trkpt lat="45.30306" lon="5.44676">
        <ele>726.7</ele>
        <time>2021-07-31T14:22:19.000Z</time>
      </trkpt>
      <trkpt lat="45.30296" lon="5.44672">
        <ele>728.5</ele>
        <time>2021-07-31T14:22:27.000Z</time>
      </trkpt>
      <trkpt lat="45.30287" lon="5.44669">
        <ele>730.2</ele>
        <time>2021-07-31T14:22:34.000Z</time>
      </trkpt>
      <trkpt lat="45.30277" lon="5.44666">
        <ele>731.7</ele>
        <time>2021-07-31T14:22:41.000Z</time>
      </trkpt>
      <trkpt lat="45.30267" lon="5.44661">
        <ele>733.1</ele>
        <time>2021-07-31T14:22:48.000Z</time>
      </trkpt>
      <trkpt lat="45.30259" lon="5.44654">
        <ele>734.2</ele>
        <time>2021-07-31T14:22:54.000Z</time>
      </trkpt>
      <trkpt lat="45.30249" lon="5.44648">
        <ele>735.7</ele>
        <time>2021-07-31T14:22:59.000Z</time>
      </trkpt>
      <trkpt lat="45.30241" lon="5.44642">
        <ele>736.8</ele>
        <time>2021-07-31T14:23:04.000Z</time>
      </trkpt>
      <trkpt lat="45.30233" lon="5.44636">
        <ele>738</ele>
        <time>2021-07-31T14:23:08.000Z</time>
      </trkpt>
      <trkpt lat="45.30223" lon="5.44628">
        <ele>739.6</ele>
        <time>2021-07-31T14:23:14.000Z</time>
      </trkpt>
      <trkpt lat="45.3022" lon="5.44614">
        <ele>740</ele>
        <time>2021-07-31T14:23:17.000Z</time>
      </trkpt>
      <trkpt lat="45.30222" lon="5.44597">
        <ele>739.7</ele>
        <time>2021-07-31T14:23:20.000Z</time>
      </trkpt>
      <trkpt lat="45.30222" lon="5.44581">
        <ele>739.7</ele>
        <time>2021-07-31T14:23:22.000Z</time>
      </trkpt>
      <trkpt lat="45.30222" lon="5.44564">
        <ele>739.5</ele>
        <time>2021-07-31T14:23:24.000Z</time>
      </trkpt>
      <trkpt lat="45.30224" lon="5.44542">
        <ele>738.8</ele>
        <time>2021-07-31T14:23:26.000Z</time>
      </trkpt>
      <trkpt lat="45.30223" lon="5.44523">
        <ele>738.7</ele>
        <time>2021-07-31T14:23:28.000Z</time>
      </trkpt>
      <trkpt lat="45.30222" lon="5.44509">
        <ele>738.8</ele>
        <time>2021-07-31T14:23:30.000Z</time>
      </trkpt>
      <trkpt lat="45.30225" lon="5.44493">
        <ele>738.3</ele>
        <time>2021-07-31T14:23:34.000Z</time>
      </trkpt>
      <trkpt lat="45.30226" lon="5.44478">
        <ele>738.1</ele>
        <time>2021-07-31T14:23:38.000Z</time>
      </trkpt>
      <trkpt lat="45.30224" lon="5.44465">
        <ele>738.4</ele>
        <time>2021-07-31T14:23:43.000Z</time>
      </trkpt>
      <trkpt lat="45.30224" lon="5.4445">
        <ele>738.5</ele>
        <time>2021-07-31T14:23:48.000Z</time>
      </trkpt>
      <trkpt lat="45.3022" lon="5.44436">
        <ele>739</ele>
        <time>2021-07-31T14:23:53.000Z</time>
      </trkpt>
      <trkpt lat="45.30216" lon="5.44421">
        <ele>739.5</ele>
        <time>2021-07-31T14:23:58.000Z</time>
      </trkpt>
      <trkpt lat="45.30212" lon="5.44409">
        <ele>740.2</ele>
        <time>2021-07-31T14:24:05.000Z</time>
      </trkpt>
      <trkpt lat="45.30211" lon="5.44394">
        <ele>740.8</ele>
        <time>2021-07-31T14:24:11.000Z</time>
      </trkpt>
      <trkpt lat="45.30205" lon="5.44381">
        <ele>741.7</ele>
        <time>2021-07-31T14:24:17.000Z</time>
      </trkpt>
      <trkpt lat="45.30201" lon="5.44368">
        <ele>742.4</ele>
        <time>2021-07-31T14:24:22.000Z</time>
      </trkpt>
      <trkpt lat="45.30199" lon="5.44352">
        <ele>742.9</ele>
        <time>2021-07-31T14:24:27.000Z</time>
      </trkpt>
      <trkpt lat="45.30196" lon="5.44338">
        <ele>743.5</ele>
        <time>2021-07-31T14:24:31.000Z</time>
      </trkpt>
      <trkpt lat="45.30193" lon="5.44325">
        <ele>744.2</ele>
        <time>2021-07-31T14:24:36.000Z</time>
      </trkpt>
      <trkpt lat="45.3019" lon="5.44311">
        <ele>745.2</ele>
        <time>2021-07-31T14:24:41.000Z</time>
      </trkpt>
      <trkpt lat="45.30186" lon="5.44299">
        <ele>746.2</ele>
        <time>2021-07-31T14:24:45.000Z</time>
      </trkpt>
      <trkpt lat="45.30182" lon="5.44285">
        <ele>747.4</ele>
        <time>2021-07-31T14:24:49.000Z</time>
      </trkpt>
      <trkpt lat="45.3018" lon="5.4427">
        <ele>748.7</ele>
        <time>2021-07-31T14:24:53.000Z</time>
      </trkpt>
      <trkpt lat="45.3018" lon="5.44255">
        <ele>749.6</ele>
        <time>2021-07-31T14:24:57.000Z</time>
      </trkpt>
      <trkpt lat="45.30179" lon="5.4424">
        <ele>750.6</ele>
        <time>2021-07-31T14:25:01.000Z</time>
      </trkpt>
      <trkpt lat="45.30177" lon="5.44224">
        <ele>752.2</ele>
        <time>2021-07-31T14:25:05.000Z</time>
      </trkpt>
      <trkpt lat="45.30175" lon="5.44208">
        <ele>753.6</ele>
        <time>2021-07-31T14:25:09.000Z</time>
      </trkpt>
      <trkpt lat="45.30173" lon="5.44195">
        <ele>754.8</ele>
        <time>2021-07-31T14:25:12.000Z</time>
      </trkpt>
      <trkpt lat="45.3017" lon="5.4418">
        <ele>756.4</ele>
        <time>2021-07-31T14:25:16.000Z</time>
      </trkpt>
      <trkpt lat="45.30167" lon="5.44164">
        <ele>757.9</ele>
        <time>2021-07-31T14:25:20.000Z</time>
      </trkpt>
      <trkpt lat="45.30163" lon="5.4415">
        <ele>757.9</ele>
        <time>2021-07-31T14:25:24.000Z</time>
      </trkpt>
      <trkpt lat="45.30159" lon="5.44135">
        <ele>757.8</ele>
        <time>2021-07-31T14:25:28.000Z</time>
      </trkpt>
      <trkpt lat="45.30155" lon="5.44123">
        <ele>757.8</ele>
        <time>2021-07-31T14:25:31.000Z</time>
      </trkpt>
      <trkpt lat="45.3015" lon="5.44112">
        <ele>757.9</ele>
        <time>2021-07-31T14:25:34.000Z</time>
      </trkpt>
      <trkpt lat="45.30146" lon="5.44098">
        <ele>758</ele>
        <time>2021-07-31T14:25:37.000Z</time>
      </trkpt>
      <trkpt lat="45.30141" lon="5.44085">
        <ele>758.2</ele>
        <time>2021-07-31T14:25:40.000Z</time>
      </trkpt>
      <trkpt lat="45.30142" lon="5.44069">
        <ele>757.1</ele>
        <time>2021-07-31T14:25:43.000Z</time>
      </trkpt>
      <trkpt lat="45.30143" lon="5.44053">
        <ele>755.9</ele>
        <time>2021-07-31T14:25:46.000Z</time>
      </trkpt>
      <trkpt lat="45.3014" lon="5.44039">
        <ele>755.2</ele>
        <time>2021-07-31T14:25:48.000Z</time>
      </trkpt>
      <trkpt lat="45.30138" lon="5.44023">
        <ele>754.3</ele>
        <time>2021-07-31T14:25:50.000Z</time>
      </trkpt>
      <trkpt lat="45.30135" lon="5.44009">
        <ele>753.6</ele>
        <time>2021-07-31T14:25:52.000Z</time>
      </trkpt>
      <trkpt lat="45.30132" lon="5.43996">
        <ele>753.5</ele>
        <time>2021-07-31T14:25:54.000Z</time>
      </trkpt>
      <trkpt lat="45.30127" lon="5.43979">
        <ele>753.3</ele>
        <time>2021-07-31T14:25:57.000Z</time>
      </trkpt>
      <trkpt lat="45.30121" lon="5.43967">
        <ele>753.3</ele>
        <time>2021-07-31T14:25:59.000Z</time>
      </trkpt>
      <trkpt lat="45.30116" lon="5.43955">
        <ele>753.3</ele>
        <time>2021-07-31T14:26:01.000Z</time>
      </trkpt>
      <trkpt lat="45.3011" lon="5.43942">
        <ele>753.1</ele>
        <time>2021-07-31T14:26:03.000Z</time>
      </trkpt>
      <trkpt lat="45.30104" lon="5.43928">
        <ele>752.9</ele>
        <time>2021-07-31T14:26:05.000Z</time>
      </trkpt>
      <trkpt lat="45.30098" lon="5.43913">
        <ele>752.3</ele>
        <time>2021-07-31T14:26:07.000Z</time>
      </trkpt>
      <trkpt lat="45.3009" lon="5.439">
        <ele>751.6</ele>
        <time>2021-07-31T14:26:09.000Z</time>
      </trkpt>
      <trkpt lat="45.30082" lon="5.43888">
        <ele>751</ele>
        <time>2021-07-31T14:26:11.000Z</time>
      </trkpt>
      <trkpt lat="45.30075" lon="5.43873">
        <ele>750.2</ele>
        <time>2021-07-31T14:26:13.000Z</time>
      </trkpt>
      <trkpt lat="45.30067" lon="5.4386">
        <ele>749.9</ele>
        <time>2021-07-31T14:26:15.000Z</time>
      </trkpt>
      <trkpt lat="45.3006" lon="5.43849">
        <ele>749.9</ele>
        <time>2021-07-31T14:26:17.000Z</time>
      </trkpt>
      <trkpt lat="45.30051" lon="5.43837">
        <ele>750.2</ele>
        <time>2021-07-31T14:26:19.000Z</time>
      </trkpt>
      <trkpt lat="45.30043" lon="5.43824">
        <ele>750.3</ele>
        <time>2021-07-31T14:26:21.000Z</time>
      </trkpt>
      <trkpt lat="45.30036" lon="5.43807">
        <ele>749.9</ele>
        <time>2021-07-31T14:26:23.000Z</time>
      </trkpt>
      <trkpt lat="45.30031" lon="5.4379">
        <ele>749.1</ele>
        <time>2021-07-31T14:26:25.000Z</time>
      </trkpt>
      <trkpt lat="45.30026" lon="5.43772">
        <ele>748.1</ele>
        <time>2021-07-31T14:26:27.000Z</time>
      </trkpt>
      <trkpt lat="45.30024" lon="5.43752">
        <ele>746.4</ele>
        <time>2021-07-31T14:26:29.000Z</time>
      </trkpt>
      <trkpt lat="45.30022" lon="5.43734">
        <ele>746.7</ele>
        <time>2021-07-31T14:26:31.000Z</time>
      </trkpt>
      <trkpt lat="45.3002" lon="5.43717">
        <ele>747.2</ele>
        <time>2021-07-31T14:26:33.000Z</time>
      </trkpt>
      <trkpt lat="45.30019" lon="5.437">
        <ele>747.5</ele>
        <time>2021-07-31T14:26:35.000Z</time>
      </trkpt>
      <trkpt lat="45.30019" lon="5.43684">
        <ele>747.7</ele>
        <time>2021-07-31T14:26:37.000Z</time>
      </trkpt>
      <trkpt lat="45.30019" lon="5.43667">
        <ele>747.9</ele>
        <time>2021-07-31T14:26:39.000Z</time>
      </trkpt>
      <trkpt lat="45.30019" lon="5.4365">
        <ele>749</ele>
        <time>2021-07-31T14:26:41.000Z</time>
      </trkpt>
      <trkpt lat="45.30019" lon="5.43634">
        <ele>750.1</ele>
        <time>2021-07-31T14:26:43.000Z</time>
      </trkpt>
      <trkpt lat="45.30019" lon="5.43621">
        <ele>751.1</ele>
        <time>2021-07-31T14:26:45.000Z</time>
      </trkpt>
      <trkpt lat="45.30018" lon="5.43608">
        <ele>752</ele>
        <time>2021-07-31T14:26:47.000Z</time>
      </trkpt>
      <trkpt lat="45.30018" lon="5.43594">
        <ele>752.9</ele>
        <time>2021-07-31T14:26:49.000Z</time>
      </trkpt>
      <trkpt lat="45.30017" lon="5.43581">
        <ele>753.6</ele>
        <time>2021-07-31T14:26:51.000Z</time>
      </trkpt>
      <trkpt lat="45.30017" lon="5.43563">
        <ele>754</ele>
        <time>2021-07-31T14:26:54.000Z</time>
      </trkpt>
      <trkpt lat="45.30017" lon="5.43547">
        <ele>754.3</ele>
        <time>2021-07-31T14:26:57.000Z</time>
      </trkpt>
      <trkpt lat="45.30016" lon="5.43534">
        <ele>754.6</ele>
        <time>2021-07-31T14:27:00.000Z</time>
      </trkpt>
      <trkpt lat="45.30015" lon="5.4352">
        <ele>754.9</ele>
        <time>2021-07-31T14:27:05.000Z</time>
      </trkpt>
      <trkpt lat="45.30014" lon="5.43506">
        <ele>755.2</ele>
        <time>2021-07-31T14:27:09.000Z</time>
      </trkpt>
      <trkpt lat="45.30016" lon="5.43493">
        <ele>755.4</ele>
        <time>2021-07-31T14:27:13.000Z</time>
      </trkpt>
      <trkpt lat="45.30017" lon="5.43476">
        <ele>755.6</ele>
        <time>2021-07-31T14:27:17.000Z</time>
      </trkpt>
      <trkpt lat="45.30016" lon="5.43463">
        <ele>756</ele>
        <time>2021-07-31T14:27:21.000Z</time>
      </trkpt>
      <trkpt lat="45.30016" lon="5.43449">
        <ele>756.2</ele>
        <time>2021-07-31T14:27:24.000Z</time>
      </trkpt>
      <trkpt lat="45.30017" lon="5.43435">
        <ele>756.4</ele>
        <time>2021-07-31T14:27:27.000Z</time>
      </trkpt>
      <trkpt lat="45.30017" lon="5.4342">
        <ele>756.7</ele>
        <time>2021-07-31T14:27:30.000Z</time>
      </trkpt>
      <trkpt lat="45.3002" lon="5.43404">
        <ele>756.1</ele>
        <time>2021-07-31T14:27:33.000Z</time>
      </trkpt>
      <trkpt lat="45.30022" lon="5.43384">
        <ele>755.2</ele>
        <time>2021-07-31T14:27:36.000Z</time>
      </trkpt>
      <trkpt lat="45.30023" lon="5.43369">
        <ele>754.4</ele>
        <time>2021-07-31T14:27:38.000Z</time>
      </trkpt>
      <trkpt lat="45.30024" lon="5.43355">
        <ele>753.8</ele>
        <time>2021-07-31T14:27:40.000Z</time>
      </trkpt>
      <trkpt lat="45.30026" lon="5.43341">
        <ele>753</ele>
        <time>2021-07-31T14:27:42.000Z</time>
      </trkpt>
      <trkpt lat="45.30029" lon="5.43325">
        <ele>751</ele>
        <time>2021-07-31T14:27:44.000Z</time>
      </trkpt>
      <trkpt lat="45.30031" lon="5.43308">
        <ele>748.3</ele>
        <time>2021-07-31T14:27:46.000Z</time>
      </trkpt>
      <trkpt lat="45.30033" lon="5.43289">
        <ele>745.5</ele>
        <time>2021-07-31T14:27:48.000Z</time>
      </trkpt>
      <trkpt lat="45.30032" lon="5.43273">
        <ele>743.4</ele>
        <time>2021-07-31T14:27:50.000Z</time>
      </trkpt>
      <trkpt lat="45.30028" lon="5.43254">
        <ele>741.7</ele>
        <time>2021-07-31T14:27:52.000Z</time>
      </trkpt>
      <trkpt lat="45.30027" lon="5.43238">
        <ele>742.5</ele>
        <time>2021-07-31T14:27:54.000Z</time>
      </trkpt>
      <trkpt lat="45.30026" lon="5.43224">
        <ele>743.7</ele>
        <time>2021-07-31T14:27:56.000Z</time>
      </trkpt>
      <trkpt lat="45.30027" lon="5.4321">
        <ele>744.6</ele>
        <time>2021-07-31T14:28:01.000Z</time>
      </trkpt>
      <trkpt lat="45.30026" lon="5.43197">
        <ele>745.9</ele>
        <time>2021-07-31T14:28:04.000Z</time>
      </trkpt>
      <trkpt lat="45.30027" lon="5.43183">
        <ele>746.9</ele>
        <time>2021-07-31T14:28:08.000Z</time>
      </trkpt>
      <trkpt lat="45.3003" lon="5.43167">
        <ele>747.6</ele>
        <time>2021-07-31T14:28:12.000Z</time>
      </trkpt>
      <trkpt lat="45.30033" lon="5.43154">
        <ele>747.7</ele>
        <time>2021-07-31T14:28:15.000Z</time>
      </trkpt>
      <trkpt lat="45.30035" lon="5.43138">
        <ele>747.7</ele>
        <time>2021-07-31T14:28:18.000Z</time>
      </trkpt>
      <trkpt lat="45.30038" lon="5.43125">
        <ele>747.6</ele>
        <time>2021-07-31T14:28:21.000Z</time>
      </trkpt>
      <trkpt lat="45.30035" lon="5.43113">
        <ele>748.4</ele>
        <time>2021-07-31T14:28:25.000Z</time>
      </trkpt>
      <trkpt lat="45.30034" lon="5.43096">
        <ele>749</ele>
        <time>2021-07-31T14:28:29.000Z</time>
      </trkpt>
      <trkpt lat="45.30031" lon="5.43084">
        <ele>749.8</ele>
        <time>2021-07-31T14:28:33.000Z</time>
      </trkpt>
      <trkpt lat="45.30036" lon="5.43071">
        <ele>749.1</ele>
        <time>2021-07-31T14:28:38.000Z</time>
      </trkpt>
      <trkpt lat="45.30041" lon="5.43058">
        <ele>748.3</ele>
        <time>2021-07-31T14:28:41.000Z</time>
      </trkpt>
      <trkpt lat="45.30045" lon="5.4304">
        <ele>747.9</ele>
        <time>2021-07-31T14:28:44.000Z</time>
      </trkpt>
      <trkpt lat="45.30049" lon="5.43022">
        <ele>747.5</ele>
        <time>2021-07-31T14:28:47.000Z</time>
      </trkpt>
      <trkpt lat="45.30052" lon="5.43006">
        <ele>747.1</ele>
        <time>2021-07-31T14:28:50.000Z</time>
      </trkpt>
      <trkpt lat="45.30054" lon="5.42988">
        <ele>747.4</ele>
        <time>2021-07-31T14:28:53.000Z</time>
      </trkpt>
      <trkpt lat="45.30057" lon="5.42971">
        <ele>747.4</ele>
        <time>2021-07-31T14:28:56.000Z</time>
      </trkpt>
      <trkpt lat="45.30063" lon="5.42955">
        <ele>747.3</ele>
        <time>2021-07-31T14:28:59.000Z</time>
      </trkpt>
      <trkpt lat="45.30069" lon="5.42941">
        <ele>747.3</ele>
        <time>2021-07-31T14:29:01.000Z</time>
      </trkpt>
      <trkpt lat="45.30074" lon="5.42925">
        <ele>747.5</ele>
        <time>2021-07-31T14:29:04.000Z</time>
      </trkpt>
      <trkpt lat="45.30079" lon="5.42909">
        <ele>748.2</ele>
        <time>2021-07-31T14:29:07.000Z</time>
      </trkpt>
      <trkpt lat="45.30086" lon="5.42894">
        <ele>749.4</ele>
        <time>2021-07-31T14:29:10.000Z</time>
      </trkpt>
      <trkpt lat="45.30092" lon="5.42879">
        <ele>750.7</ele>
        <time>2021-07-31T14:29:13.000Z</time>
      </trkpt>
      <trkpt lat="45.30096" lon="5.42865">
        <ele>752.2</ele>
        <time>2021-07-31T14:29:16.000Z</time>
      </trkpt>
      <trkpt lat="45.30102" lon="5.42849">
        <ele>753.8</ele>
        <time>2021-07-31T14:29:19.000Z</time>
      </trkpt>
      <trkpt lat="45.30108" lon="5.42836">
        <ele>755.1</ele>
        <time>2021-07-31T14:29:22.000Z</time>
      </trkpt>
      <trkpt lat="45.30113" lon="5.42822">
        <ele>755.9</ele>
        <time>2021-07-31T14:29:25.000Z</time>
      </trkpt>
      <trkpt lat="45.30118" lon="5.42806">
        <ele>756.6</ele>
        <time>2021-07-31T14:29:28.000Z</time>
      </trkpt>
      <trkpt lat="45.30121" lon="5.42794">
        <ele>757.3</ele>
        <time>2021-07-31T14:29:31.000Z</time>
      </trkpt>
      <trkpt lat="45.30127" lon="5.42784">
        <ele>757.6</ele>
        <time>2021-07-31T14:29:35.000Z</time>
      </trkpt>
      <trkpt lat="45.30134" lon="5.42772">
        <ele>758.2</ele>
        <time>2021-07-31T14:29:39.000Z</time>
      </trkpt>
      <trkpt lat="45.3014" lon="5.42759">
        <ele>758.9</ele>
        <time>2021-07-31T14:29:43.000Z</time>
      </trkpt>
      <trkpt lat="45.30144" lon="5.42746">
        <ele>759.3</ele>
        <time>2021-07-31T14:29:47.000Z</time>
      </trkpt>
      <trkpt lat="45.30148" lon="5.42734">
        <ele>759.2</ele>
        <time>2021-07-31T14:29:52.000Z</time>
      </trkpt>
      <trkpt lat="45.30152" lon="5.42722">
        <ele>759.2</ele>
        <time>2021-07-31T14:29:57.000Z</time>
      </trkpt>
      <trkpt lat="45.30158" lon="5.42711">
        <ele>759.1</ele>
        <time>2021-07-31T14:30:02.000Z</time>
      </trkpt>
      <trkpt lat="45.30164" lon="5.42698">
        <ele>759</ele>
        <time>2021-07-31T14:30:06.000Z</time>
      </trkpt>
      <trkpt lat="45.30169" lon="5.42685">
        <ele>758.9</ele>
        <time>2021-07-31T14:30:10.000Z</time>
      </trkpt>
      <trkpt lat="45.30177" lon="5.42677">
        <ele>758.6</ele>
        <time>2021-07-31T14:30:14.000Z</time>
      </trkpt>
      <trkpt lat="45.30186" lon="5.42667">
        <ele>758.3</ele>
        <time>2021-07-31T14:30:18.000Z</time>
      </trkpt>
      <trkpt lat="45.3019" lon="5.42654">
        <ele>757.1</ele>
        <time>2021-07-31T14:30:21.000Z</time>
      </trkpt>
      <trkpt lat="45.30194" lon="5.4264">
        <ele>755.7</ele>
        <time>2021-07-31T14:30:24.000Z</time>
      </trkpt>
      <trkpt lat="45.30199" lon="5.42623">
        <ele>754.2</ele>
        <time>2021-07-31T14:30:27.000Z</time>
      </trkpt>
      <trkpt lat="45.30206" lon="5.42608">
        <ele>753</ele>
        <time>2021-07-31T14:30:30.000Z</time>
      </trkpt>
      <trkpt lat="45.3021" lon="5.42594">
        <ele>751.7</ele>
        <time>2021-07-31T14:30:33.000Z</time>
      </trkpt>
      <trkpt lat="45.30213" lon="5.4258">
        <ele>750.5</ele>
        <time>2021-07-31T14:30:36.000Z</time>
      </trkpt>
      <trkpt lat="45.3021" lon="5.42564">
        <ele>748.6</ele>
        <time>2021-07-31T14:30:40.000Z</time>
      </trkpt>
      <trkpt lat="45.30201" lon="5.42559">
        <ele>748.3</ele>
        <time>2021-07-31T14:30:44.000Z</time>
      </trkpt>
      <trkpt lat="45.30191" lon="5.42551">
        <ele>747.9</ele>
        <time>2021-07-31T14:30:47.000Z</time>
      </trkpt>
      <trkpt lat="45.30181" lon="5.42542">
        <ele>747.6</ele>
        <time>2021-07-31T14:30:50.000Z</time>
      </trkpt>
      <trkpt lat="45.3017" lon="5.42532">
        <ele>747.7</ele>
        <time>2021-07-31T14:30:53.000Z</time>
      </trkpt>
      <trkpt lat="45.30161" lon="5.42525">
        <ele>747.6</ele>
        <time>2021-07-31T14:30:55.000Z</time>
      </trkpt>
      <trkpt lat="45.30151" lon="5.42516">
        <ele>747.1</ele>
        <time>2021-07-31T14:30:57.000Z</time>
      </trkpt>
      <trkpt lat="45.3014" lon="5.42508">
        <ele>746.5</ele>
        <time>2021-07-31T14:30:59.000Z</time>
      </trkpt>
      <trkpt lat="45.30129" lon="5.42499">
        <ele>745.8</ele>
        <time>2021-07-31T14:31:01.000Z</time>
      </trkpt>
      <trkpt lat="45.30118" lon="5.42489">
        <ele>744.1</ele>
        <time>2021-07-31T14:31:03.000Z</time>
      </trkpt>
      <trkpt lat="45.30107" lon="5.4248">
        <ele>742.6</ele>
        <time>2021-07-31T14:31:05.000Z</time>
      </trkpt>
      <trkpt lat="45.30097" lon="5.42472">
        <ele>741.2</ele>
        <time>2021-07-31T14:31:07.000Z</time>
      </trkpt>
      <trkpt lat="45.30088" lon="5.42463">
        <ele>739.9</ele>
        <time>2021-07-31T14:31:09.000Z</time>
      </trkpt>
      <trkpt lat="45.30078" lon="5.42455">
        <ele>738.8</ele>
        <time>2021-07-31T14:31:11.000Z</time>
      </trkpt>
      <trkpt lat="45.30069" lon="5.42445">
        <ele>738.2</ele>
        <time>2021-07-31T14:31:13.000Z</time>
      </trkpt>
      <trkpt lat="45.3006" lon="5.42431">
        <ele>737.5</ele>
        <time>2021-07-31T14:31:15.000Z</time>
      </trkpt>
      <trkpt lat="45.30053" lon="5.42415">
        <ele>736.6</ele>
        <time>2021-07-31T14:31:17.000Z</time>
      </trkpt>
      <trkpt lat="45.30049" lon="5.42396">
        <ele>736</ele>
        <time>2021-07-31T14:31:19.000Z</time>
      </trkpt>
      <trkpt lat="45.30045" lon="5.42378">
        <ele>735.3</ele>
        <time>2021-07-31T14:31:21.000Z</time>
      </trkpt>
      <trkpt lat="45.30038" lon="5.4236">
        <ele>735.3</ele>
        <time>2021-07-31T14:31:23.000Z</time>
      </trkpt>
      <trkpt lat="45.30031" lon="5.42345">
        <ele>735.5</ele>
        <time>2021-07-31T14:31:25.000Z</time>
      </trkpt>
      <trkpt lat="45.30025" lon="5.42329">
        <ele>735.4</ele>
        <time>2021-07-31T14:31:27.000Z</time>
      </trkpt>
      <trkpt lat="45.30019" lon="5.42314">
        <ele>735.1</ele>
        <time>2021-07-31T14:31:29.000Z</time>
      </trkpt>
      <trkpt lat="45.3001" lon="5.42301">
        <ele>735.4</ele>
        <time>2021-07-31T14:31:31.000Z</time>
      </trkpt>
      <trkpt lat="45.30001" lon="5.42294">
        <ele>736.5</ele>
        <time>2021-07-31T14:31:33.000Z</time>
      </trkpt>
      <trkpt lat="45.29992" lon="5.42288">
        <ele>736.9</ele>
        <time>2021-07-31T14:31:35.000Z</time>
      </trkpt>
      <trkpt lat="45.29982" lon="5.42281">
        <ele>737.2</ele>
        <time>2021-07-31T14:31:37.000Z</time>
      </trkpt>
      <trkpt lat="45.29979" lon="5.42266">
        <ele>736.5</ele>
        <time>2021-07-31T14:31:39.000Z</time>
      </trkpt>
      <trkpt lat="45.2998" lon="5.42247">
        <ele>734.8</ele>
        <time>2021-07-31T14:31:41.000Z</time>
      </trkpt>
      <trkpt lat="45.29979" lon="5.42233">
        <ele>732.7</ele>
        <time>2021-07-31T14:31:43.000Z</time>
      </trkpt>
      <trkpt lat="45.29975" lon="5.42217">
        <ele>731.1</ele>
        <time>2021-07-31T14:31:46.000Z</time>
      </trkpt>
      <trkpt lat="45.29972" lon="5.42202">
        <ele>729.3</ele>
        <time>2021-07-31T14:31:48.000Z</time>
      </trkpt>
      <trkpt lat="45.29969" lon="5.42184">
        <ele>727.1</ele>
        <time>2021-07-31T14:31:50.000Z</time>
      </trkpt>
      <trkpt lat="45.29969" lon="5.42169">
        <ele>724.9</ele>
        <time>2021-07-31T14:31:52.000Z</time>
      </trkpt>
      <trkpt lat="45.29967" lon="5.42149">
        <ele>722.3</ele>
        <time>2021-07-31T14:31:54.000Z</time>
      </trkpt>
      <trkpt lat="45.29964" lon="5.42132">
        <ele>720.4</ele>
        <time>2021-07-31T14:31:56.000Z</time>
      </trkpt>
      <trkpt lat="45.29958" lon="5.42112">
        <ele>718.5</ele>
        <time>2021-07-31T14:31:58.000Z</time>
      </trkpt>
      <trkpt lat="45.29955" lon="5.4209">
        <ele>715.9</ele>
        <time>2021-07-31T14:32:00.000Z</time>
      </trkpt>
      <trkpt lat="45.29952" lon="5.42068">
        <ele>714.5</ele>
        <time>2021-07-31T14:32:02.000Z</time>
      </trkpt>
      <trkpt lat="45.29949" lon="5.42046">
        <ele>713.4</ele>
        <time>2021-07-31T14:32:04.000Z</time>
      </trkpt>
      <trkpt lat="45.29943" lon="5.42028">
        <ele>713.1</ele>
        <time>2021-07-31T14:32:06.000Z</time>
      </trkpt>
      <trkpt lat="45.29937" lon="5.4201">
        <ele>712.9</ele>
        <time>2021-07-31T14:32:08.000Z</time>
      </trkpt>
      <trkpt lat="45.29932" lon="5.41993">
        <ele>712.6</ele>
        <time>2021-07-31T14:32:10.000Z</time>
      </trkpt>
      <trkpt lat="45.29927" lon="5.41977">
        <ele>712.1</ele>
        <time>2021-07-31T14:32:12.000Z</time>
      </trkpt>
      <trkpt lat="45.29923" lon="5.4196">
        <ele>711.5</ele>
        <time>2021-07-31T14:32:14.000Z</time>
      </trkpt>
      <trkpt lat="45.29921" lon="5.41943">
        <ele>710.4</ele>
        <time>2021-07-31T14:32:16.000Z</time>
      </trkpt>
      <trkpt lat="45.29916" lon="5.41926">
        <ele>709.8</ele>
        <time>2021-07-31T14:32:18.000Z</time>
      </trkpt>
      <trkpt lat="45.29908" lon="5.41913">
        <ele>708.9</ele>
        <time>2021-07-31T14:32:20.000Z</time>
      </trkpt>
      <trkpt lat="45.29898" lon="5.41903">
        <ele>708</ele>
        <time>2021-07-31T14:32:22.000Z</time>
      </trkpt>
      <trkpt lat="45.29888" lon="5.41894">
        <ele>707.4</ele>
        <time>2021-07-31T14:32:24.000Z</time>
      </trkpt>
      <trkpt lat="45.29877" lon="5.41881">
        <ele>706.7</ele>
        <time>2021-07-31T14:32:26.000Z</time>
      </trkpt>
      <trkpt lat="45.29871" lon="5.41865">
        <ele>705</ele>
        <time>2021-07-31T14:32:28.000Z</time>
      </trkpt>
      <trkpt lat="45.29867" lon="5.41848">
        <ele>703.2</ele>
        <time>2021-07-31T14:32:30.000Z</time>
      </trkpt>
      <trkpt lat="45.29863" lon="5.41829">
        <ele>701.1</ele>
        <time>2021-07-31T14:32:32.000Z</time>
      </trkpt>
      <trkpt lat="45.29857" lon="5.4181">
        <ele>699.8</ele>
        <time>2021-07-31T14:32:34.000Z</time>
      </trkpt>
      <trkpt lat="45.29852" lon="5.41789">
        <ele>698.2</ele>
        <time>2021-07-31T14:32:36.000Z</time>
      </trkpt>
      <trkpt lat="45.29849" lon="5.41768">
        <ele>696.5</ele>
        <time>2021-07-31T14:32:38.000Z</time>
      </trkpt>
      <trkpt lat="45.29848" lon="5.41744">
        <ele>694.5</ele>
        <time>2021-07-31T14:32:40.000Z</time>
      </trkpt>
      <trkpt lat="45.29847" lon="5.41718">
        <ele>693</ele>
        <time>2021-07-31T14:32:42.000Z</time>
      </trkpt>
      <trkpt lat="45.29847" lon="5.41705">
        <ele>692.4</ele>
        <time>2021-07-31T14:32:43.000Z</time>
      </trkpt>
      <trkpt lat="45.29845" lon="5.41692">
        <ele>691.9</ele>
        <time>2021-07-31T14:32:44.000Z</time>
      </trkpt>
      <trkpt lat="45.29844" lon="5.41668">
        <ele>690.8</ele>
        <time>2021-07-31T14:32:46.000Z</time>
      </trkpt>
      <trkpt lat="45.29843" lon="5.41646">
        <ele>688.2</ele>
        <time>2021-07-31T14:32:48.000Z</time>
      </trkpt>
      <trkpt lat="45.29842" lon="5.41622">
        <ele>685.1</ele>
        <time>2021-07-31T14:32:50.000Z</time>
      </trkpt>
      <trkpt lat="45.29841" lon="5.41609">
        <ele>683.8</ele>
        <time>2021-07-31T14:32:51.000Z</time>
      </trkpt>
      <trkpt lat="45.29838" lon="5.41596">
        <ele>682.7</ele>
        <time>2021-07-31T14:32:52.000Z</time>
      </trkpt>
      <trkpt lat="45.29836" lon="5.41583">
        <ele>681.3</ele>
        <time>2021-07-31T14:32:53.000Z</time>
      </trkpt>
      <trkpt lat="45.29834" lon="5.4157">
        <ele>680.1</ele>
        <time>2021-07-31T14:32:54.000Z</time>
      </trkpt>
      <trkpt lat="45.29834" lon="5.41548">
        <ele>677.5</ele>
        <time>2021-07-31T14:32:56.000Z</time>
      </trkpt>
      <trkpt lat="45.29834" lon="5.41524">
        <ele>674.7</ele>
        <time>2021-07-31T14:32:58.000Z</time>
      </trkpt>
      <trkpt lat="45.29835" lon="5.41501">
        <ele>671.6</ele>
        <time>2021-07-31T14:33:00.000Z</time>
      </trkpt>
      <trkpt lat="45.29833" lon="5.41477">
        <ele>669.5</ele>
        <time>2021-07-31T14:33:02.000Z</time>
      </trkpt>
      <trkpt lat="45.2983" lon="5.41454">
        <ele>667.5</ele>
        <time>2021-07-31T14:33:04.000Z</time>
      </trkpt>
      <trkpt lat="45.29824" lon="5.41433">
        <ele>666.3</ele>
        <time>2021-07-31T14:33:06.000Z</time>
      </trkpt>
      <trkpt lat="45.29823" lon="5.41412">
        <ele>664</ele>
        <time>2021-07-31T14:33:08.000Z</time>
      </trkpt>
      <trkpt lat="45.29822" lon="5.41387">
        <ele>659.9</ele>
        <time>2021-07-31T14:33:10.000Z</time>
      </trkpt>
      <trkpt lat="45.29823" lon="5.41374">
        <ele>657.7</ele>
        <time>2021-07-31T14:33:11.000Z</time>
      </trkpt>
      <trkpt lat="45.2982" lon="5.41348">
        <ele>653.8</ele>
        <time>2021-07-31T14:33:13.000Z</time>
      </trkpt>
      <trkpt lat="45.29819" lon="5.41335">
        <ele>652.1</ele>
        <time>2021-07-31T14:33:14.000Z</time>
      </trkpt>
      <trkpt lat="45.29816" lon="5.41323">
        <ele>650.9</ele>
        <time>2021-07-31T14:33:15.000Z</time>
      </trkpt>
      <trkpt lat="45.29812" lon="5.41301">
        <ele>649.1</ele>
        <time>2021-07-31T14:33:17.000Z</time>
      </trkpt>
      <trkpt lat="45.29807" lon="5.4128">
        <ele>647.8</ele>
        <time>2021-07-31T14:33:19.000Z</time>
      </trkpt>
      <trkpt lat="45.29806" lon="5.41258">
        <ele>645.2</ele>
        <time>2021-07-31T14:33:21.000Z</time>
      </trkpt>
      <trkpt lat="45.29806" lon="5.41238">
        <ele>642.8</ele>
        <time>2021-07-31T14:33:23.000Z</time>
      </trkpt>
      <trkpt lat="45.29805" lon="5.41216">
        <ele>641.2</ele>
        <time>2021-07-31T14:33:25.000Z</time>
      </trkpt>
      <trkpt lat="45.29804" lon="5.41197">
        <ele>639.5</ele>
        <time>2021-07-31T14:33:27.000Z</time>
      </trkpt>
      <trkpt lat="45.29804" lon="5.41177">
        <ele>637.5</ele>
        <time>2021-07-31T14:33:29.000Z</time>
      </trkpt>
      <trkpt lat="45.29803" lon="5.41157">
        <ele>635.4</ele>
        <time>2021-07-31T14:33:31.000Z</time>
      </trkpt>
      <trkpt lat="45.29803" lon="5.41133">
        <ele>632.2</ele>
        <time>2021-07-31T14:33:33.000Z</time>
      </trkpt>
      <trkpt lat="45.29799" lon="5.41108">
        <ele>630.1</ele>
        <time>2021-07-31T14:33:35.000Z</time>
      </trkpt>
      <trkpt lat="45.29793" lon="5.41086">
        <ele>628.9</ele>
        <time>2021-07-31T14:33:37.000Z</time>
      </trkpt>
      <trkpt lat="45.2979" lon="5.41072">
        <ele>627.8</ele>
        <time>2021-07-31T14:33:38.000Z</time>
      </trkpt>
      <trkpt lat="45.29787" lon="5.41056">
        <ele>626.6</ele>
        <time>2021-07-31T14:33:39.000Z</time>
      </trkpt>
      <trkpt lat="45.29784" lon="5.41039">
        <ele>625.2</ele>
        <time>2021-07-31T14:33:40.000Z</time>
      </trkpt>
      <trkpt lat="45.2978" lon="5.41023">
        <ele>624.1</ele>
        <time>2021-07-31T14:33:41.000Z</time>
      </trkpt>
      <trkpt lat="45.29777" lon="5.4101">
        <ele>623.4</ele>
        <time>2021-07-31T14:33:42.000Z</time>
      </trkpt>
      <trkpt lat="45.29772" lon="5.40999">
        <ele>623.7</ele>
        <time>2021-07-31T14:33:43.000Z</time>
      </trkpt>
      <trkpt lat="45.29766" lon="5.40975">
        <ele>623.9</ele>
        <time>2021-07-31T14:33:45.000Z</time>
      </trkpt>
      <trkpt lat="45.29765" lon="5.40951">
        <ele>621.8</ele>
        <time>2021-07-31T14:33:47.000Z</time>
      </trkpt>
      <trkpt lat="45.29759" lon="5.40932">
        <ele>621.7</ele>
        <time>2021-07-31T14:33:49.000Z</time>
      </trkpt>
      <trkpt lat="45.2975" lon="5.40911">
        <ele>621.9</ele>
        <time>2021-07-31T14:33:51.000Z</time>
      </trkpt>
      <trkpt lat="45.29746" lon="5.40887">
        <ele>619.3</ele>
        <time>2021-07-31T14:33:53.000Z</time>
      </trkpt>
      <trkpt lat="45.29743" lon="5.40874">
        <ele>617.9</ele>
        <time>2021-07-31T14:33:54.000Z</time>
      </trkpt>
      <trkpt lat="45.29742" lon="5.40855">
        <ele>615.2</ele>
        <time>2021-07-31T14:33:56.000Z</time>
      </trkpt>
      <trkpt lat="45.29746" lon="5.40839">
        <ele>612.3</ele>
        <time>2021-07-31T14:33:59.000Z</time>
      </trkpt>
      <trkpt lat="45.29753" lon="5.40827">
        <ele>609.4</ele>
        <time>2021-07-31T14:34:01.000Z</time>
      </trkpt>
      <trkpt lat="45.29759" lon="5.40816">
        <ele>606.3</ele>
        <time>2021-07-31T14:34:03.000Z</time>
      </trkpt>
      <trkpt lat="45.29765" lon="5.40805">
        <ele>603.6</ele>
        <time>2021-07-31T14:34:05.000Z</time>
      </trkpt>
      <trkpt lat="45.29767" lon="5.40787">
        <ele>600.7</ele>
        <time>2021-07-31T14:34:08.000Z</time>
      </trkpt>
      <trkpt lat="45.29769" lon="5.40773">
        <ele>598.5</ele>
        <time>2021-07-31T14:34:10.000Z</time>
      </trkpt>
      <trkpt lat="45.2977" lon="5.40753">
        <ele>596.1</ele>
        <time>2021-07-31T14:34:13.000Z</time>
      </trkpt>
      <trkpt lat="45.29771" lon="5.40748">
        <ele>595.3</ele>
        <time>2021-07-31T14:34:16.000Z</time>
      </trkpt>
      <trkpt lat="45.29771" lon="5.40748">
        <ele>595.3</ele>
        <time>2021-07-31T14:34:17.000Z</time>
      </trkpt>
      <trkpt lat="45.29774" lon="5.40733">
        <ele>593.2</ele>
        <time>2021-07-31T14:34:23.000Z</time>
      </trkpt>
      <trkpt lat="45.29778" lon="5.40718">
        <ele>590.6</ele>
        <time>2021-07-31T14:34:26.000Z</time>
      </trkpt>
      <trkpt lat="45.29781" lon="5.40704">
        <ele>588.5</ele>
        <time>2021-07-31T14:34:29.000Z</time>
      </trkpt>
      <trkpt lat="45.29785" lon="5.40691">
        <ele>586.5</ele>
        <time>2021-07-31T14:34:32.000Z</time>
      </trkpt>
      <trkpt lat="45.29787" lon="5.40676">
        <ele>584.9</ele>
        <time>2021-07-31T14:34:35.000Z</time>
      </trkpt>
      <trkpt lat="45.29787" lon="5.4066">
        <ele>583.3</ele>
        <time>2021-07-31T14:34:38.000Z</time>
      </trkpt>
      <trkpt lat="45.29784" lon="5.40645">
        <ele>582.6</ele>
        <time>2021-07-31T14:34:41.000Z</time>
      </trkpt>
      <trkpt lat="45.29786" lon="5.40627">
        <ele>580.4</ele>
        <time>2021-07-31T14:34:43.000Z</time>
      </trkpt>
      <trkpt lat="45.29788" lon="5.40612">
        <ele>578.6</ele>
        <time>2021-07-31T14:34:45.000Z</time>
      </trkpt>
      <trkpt lat="45.29788" lon="5.40596">
        <ele>576.9</ele>
        <time>2021-07-31T14:34:47.000Z</time>
      </trkpt>
      <trkpt lat="45.29789" lon="5.40579">
        <ele>575</ele>
        <time>2021-07-31T14:34:49.000Z</time>
      </trkpt>
      <trkpt lat="45.29787" lon="5.40561">
        <ele>572.8</ele>
        <time>2021-07-31T14:34:51.000Z</time>
      </trkpt>
      <trkpt lat="45.29786" lon="5.40548">
        <ele>571.4</ele>
        <time>2021-07-31T14:34:53.000Z</time>
      </trkpt>
      <trkpt lat="45.29787" lon="5.40534">
        <ele>569</ele>
        <time>2021-07-31T14:34:56.000Z</time>
      </trkpt>
      <trkpt lat="45.29788" lon="5.40517">
        <ele>566.3</ele>
        <time>2021-07-31T14:34:59.000Z</time>
      </trkpt>
      <trkpt lat="45.29787" lon="5.40501">
        <ele>564.1</ele>
        <time>2021-07-31T14:35:02.000Z</time>
      </trkpt>
      <trkpt lat="45.29786" lon="5.40483">
        <ele>562.8</ele>
        <time>2021-07-31T14:35:05.000Z</time>
      </trkpt>
      <trkpt lat="45.29783" lon="5.40469">
        <ele>561.7</ele>
        <time>2021-07-31T14:35:07.000Z</time>
      </trkpt>
      <trkpt lat="45.29782" lon="5.40452">
        <ele>560</ele>
        <time>2021-07-31T14:35:09.000Z</time>
      </trkpt>
      <trkpt lat="45.2978" lon="5.40435">
        <ele>558.2</ele>
        <time>2021-07-31T14:35:11.000Z</time>
      </trkpt>
      <trkpt lat="45.29773" lon="5.40415">
        <ele>555.9</ele>
        <time>2021-07-31T14:35:13.000Z</time>
      </trkpt>
      <trkpt lat="45.2977" lon="5.40393">
        <ele>555.3</ele>
        <time>2021-07-31T14:35:15.000Z</time>
      </trkpt>
      <trkpt lat="45.29769" lon="5.40369">
        <ele>554.6</ele>
        <time>2021-07-31T14:35:17.000Z</time>
      </trkpt>
      <trkpt lat="45.29767" lon="5.40347">
        <ele>553.8</ele>
        <time>2021-07-31T14:35:19.000Z</time>
      </trkpt>
      <trkpt lat="45.29763" lon="5.40329">
        <ele>552.7</ele>
        <time>2021-07-31T14:35:21.000Z</time>
      </trkpt>
      <trkpt lat="45.29763" lon="5.4031">
        <ele>552.9</ele>
        <time>2021-07-31T14:35:23.000Z</time>
      </trkpt>
      <trkpt lat="45.29763" lon="5.40294">
        <ele>553.3</ele>
        <time>2021-07-31T14:35:25.000Z</time>
      </trkpt>
      <trkpt lat="45.29764" lon="5.40278">
        <ele>553.7</ele>
        <time>2021-07-31T14:35:27.000Z</time>
      </trkpt>
      <trkpt lat="45.29763" lon="5.4026">
        <ele>553.6</ele>
        <time>2021-07-31T14:35:30.000Z</time>
      </trkpt>
      <trkpt lat="45.29763" lon="5.40247">
        <ele>553.6</ele>
        <time>2021-07-31T14:35:32.000Z</time>
      </trkpt>
      <trkpt lat="45.29763" lon="5.40234">
        <ele>553.2</ele>
        <time>2021-07-31T14:35:34.000Z</time>
      </trkpt>
      <trkpt lat="45.29763" lon="5.40217">
        <ele>552.7</ele>
        <time>2021-07-31T14:35:37.000Z</time>
      </trkpt>
      <trkpt lat="45.29761" lon="5.40204">
        <ele>551.8</ele>
        <time>2021-07-31T14:35:40.000Z</time>
      </trkpt>
      <trkpt lat="45.29761" lon="5.40187">
        <ele>551.6</ele>
        <time>2021-07-31T14:35:47.000Z</time>
      </trkpt>
      <trkpt lat="45.2976" lon="5.4017">
        <ele>550.5</ele>
        <time>2021-07-31T14:35:50.000Z</time>
      </trkpt>
      <trkpt lat="45.29754" lon="5.40156">
        <ele>547.9</ele>
        <time>2021-07-31T14:35:53.000Z</time>
      </trkpt>
      <trkpt lat="45.29749" lon="5.40145">
        <ele>545.7</ele>
        <time>2021-07-31T14:35:58.000Z</time>
      </trkpt>
      <trkpt lat="45.29739" lon="5.40141">
        <ele>544.5</ele>
        <time>2021-07-31T14:36:01.000Z</time>
      </trkpt>
      <trkpt lat="45.29729" lon="5.40149">
        <ele>544</ele>
        <time>2021-07-31T14:36:04.000Z</time>
      </trkpt>
      <trkpt lat="45.29718" lon="5.4016">
        <ele>543.7</ele>
        <time>2021-07-31T14:36:07.000Z</time>
      </trkpt>
      <trkpt lat="45.29706" lon="5.40168">
        <ele>542.9</ele>
        <time>2021-07-31T14:36:10.000Z</time>
      </trkpt>
      <trkpt lat="45.29699" lon="5.40175">
        <ele>542.9</ele>
        <time>2021-07-31T14:36:12.000Z</time>
      </trkpt>
      <trkpt lat="45.2969" lon="5.40181">
        <ele>543</ele>
        <time>2021-07-31T14:36:14.000Z</time>
      </trkpt>
      <trkpt lat="45.2968" lon="5.40188">
        <ele>543.5</ele>
        <time>2021-07-31T14:36:16.000Z</time>
      </trkpt>
      <trkpt lat="45.29672" lon="5.40194">
        <ele>544.2</ele>
        <time>2021-07-31T14:36:18.000Z</time>
      </trkpt>
      <trkpt lat="45.29663" lon="5.402">
        <ele>545.3</ele>
        <time>2021-07-31T14:36:20.000Z</time>
      </trkpt>
      <trkpt lat="45.29653" lon="5.40206">
        <ele>546.3</ele>
        <time>2021-07-31T14:36:22.000Z</time>
      </trkpt>
      <trkpt lat="45.29645" lon="5.40212">
        <ele>547.3</ele>
        <time>2021-07-31T14:36:24.000Z</time>
      </trkpt>
      <trkpt lat="45.29632" lon="5.4022">
        <ele>549.1</ele>
        <time>2021-07-31T14:36:27.000Z</time>
      </trkpt>
      <trkpt lat="45.29622" lon="5.40225">
        <ele>549.8</ele>
        <time>2021-07-31T14:36:29.000Z</time>
      </trkpt>
      <trkpt lat="45.29614" lon="5.40231">
        <ele>551.1</ele>
        <time>2021-07-31T14:36:31.000Z</time>
      </trkpt>
      <trkpt lat="45.29604" lon="5.40237">
        <ele>552.2</ele>
        <time>2021-07-31T14:36:33.000Z</time>
      </trkpt>
      <trkpt lat="45.29595" lon="5.4024">
        <ele>552.9</ele>
        <time>2021-07-31T14:36:35.000Z</time>
      </trkpt>
      <trkpt lat="45.29586" lon="5.40247">
        <ele>554.2</ele>
        <time>2021-07-31T14:36:37.000Z</time>
      </trkpt>
      <trkpt lat="45.29577" lon="5.40251">
        <ele>554</ele>
        <time>2021-07-31T14:36:39.000Z</time>
      </trkpt>
      <trkpt lat="45.29567" lon="5.40255">
        <ele>553.7</ele>
        <time>2021-07-31T14:36:41.000Z</time>
      </trkpt>
      <trkpt lat="45.29555" lon="5.40262">
        <ele>553.4</ele>
        <time>2021-07-31T14:36:44.000Z</time>
      </trkpt>
      <trkpt lat="45.29545" lon="5.40272">
        <ele>554.1</ele>
        <time>2021-07-31T14:36:47.000Z</time>
      </trkpt>
      <trkpt lat="45.29534" lon="5.40282">
        <ele>555.1</ele>
        <time>2021-07-31T14:36:50.000Z</time>
      </trkpt>
      <trkpt lat="45.29523" lon="5.40288">
        <ele>555.2</ele>
        <time>2021-07-31T14:36:53.000Z</time>
      </trkpt>
      <trkpt lat="45.2951" lon="5.4029">
        <ele>554.1</ele>
        <time>2021-07-31T14:36:56.000Z</time>
      </trkpt>
      <trkpt lat="45.29503" lon="5.40281">
        <ele>550.7</ele>
        <time>2021-07-31T14:36:58.000Z</time>
      </trkpt>
      <trkpt lat="45.29499" lon="5.40269">
        <ele>546.7</ele>
        <time>2021-07-31T14:37:00.000Z</time>
      </trkpt>
      <trkpt lat="45.29495" lon="5.40257">
        <ele>543.5</ele>
        <time>2021-07-31T14:37:02.000Z</time>
      </trkpt>
      <trkpt lat="45.29484" lon="5.40248">
        <ele>541.5</ele>
        <time>2021-07-31T14:37:05.000Z</time>
      </trkpt>
      <trkpt lat="45.29471" lon="5.40256">
        <ele>542.3</ele>
        <time>2021-07-31T14:37:08.000Z</time>
      </trkpt>
      <trkpt lat="45.29461" lon="5.40262">
        <ele>543</ele>
        <time>2021-07-31T14:37:11.000Z</time>
      </trkpt>
      <trkpt lat="45.29452" lon="5.40267">
        <ele>543.2</ele>
        <time>2021-07-31T14:37:13.000Z</time>
      </trkpt>
      <trkpt lat="45.29444" lon="5.40272">
        <ele>543.3</ele>
        <time>2021-07-31T14:37:15.000Z</time>
      </trkpt>
      <trkpt lat="45.29432" lon="5.40278">
        <ele>542.8</ele>
        <time>2021-07-31T14:37:18.000Z</time>
      </trkpt>
      <trkpt lat="45.29421" lon="5.40284">
        <ele>542.1</ele>
        <time>2021-07-31T14:37:21.000Z</time>
      </trkpt>
      <trkpt lat="45.29413" lon="5.40289">
        <ele>542.4</ele>
        <time>2021-07-31T14:37:24.000Z</time>
      </trkpt>
      <trkpt lat="45.29401" lon="5.40292">
        <ele>543.9</ele>
        <time>2021-07-31T14:37:28.000Z</time>
      </trkpt>
      <trkpt lat="45.29391" lon="5.40293">
        <ele>545.3</ele>
        <time>2021-07-31T14:37:31.000Z</time>
      </trkpt>
      <trkpt lat="45.29379" lon="5.40295">
        <ele>546.6</ele>
        <time>2021-07-31T14:37:34.000Z</time>
      </trkpt>
      <trkpt lat="45.29368" lon="5.40301">
        <ele>547.4</ele>
        <time>2021-07-31T14:37:37.000Z</time>
      </trkpt>
      <trkpt lat="45.29356" lon="5.40305">
        <ele>548.3</ele>
        <time>2021-07-31T14:37:40.000Z</time>
      </trkpt>
      <trkpt lat="45.29346" lon="5.40308">
        <ele>549</ele>
        <time>2021-07-31T14:37:43.000Z</time>
      </trkpt>
      <trkpt lat="45.29336" lon="5.40308">
        <ele>549.8</ele>
        <time>2021-07-31T14:37:46.000Z</time>
      </trkpt>
      <trkpt lat="45.29326" lon="5.40307">
        <ele>550.6</ele>
        <time>2021-07-31T14:37:49.000Z</time>
      </trkpt>
      <trkpt lat="45.29314" lon="5.40309">
        <ele>551.3</ele>
        <time>2021-07-31T14:37:52.000Z</time>
      </trkpt>
      <trkpt lat="45.29304" lon="5.40312">
        <ele>551.6</ele>
        <time>2021-07-31T14:37:55.000Z</time>
      </trkpt>
      <trkpt lat="45.29292" lon="5.40315">
        <ele>552</ele>
        <time>2021-07-31T14:37:58.000Z</time>
      </trkpt>
      <trkpt lat="45.2928" lon="5.40314">
        <ele>552.8</ele>
        <time>2021-07-31T14:38:01.000Z</time>
      </trkpt>
      <trkpt lat="45.2927" lon="5.40312">
        <ele>553.8</ele>
        <time>2021-07-31T14:38:04.000Z</time>
      </trkpt>
      <trkpt lat="45.29259" lon="5.40311">
        <ele>555.1</ele>
        <time>2021-07-31T14:38:07.000Z</time>
      </trkpt>
      <trkpt lat="45.29248" lon="5.40308">
        <ele>556.3</ele>
        <time>2021-07-31T14:38:10.000Z</time>
      </trkpt>
      <trkpt lat="45.29238" lon="5.40305">
        <ele>557.1</ele>
        <time>2021-07-31T14:38:13.000Z</time>
      </trkpt>
      <trkpt lat="45.29227" lon="5.403">
        <ele>558.3</ele>
        <time>2021-07-31T14:38:16.000Z</time>
      </trkpt>
      <trkpt lat="45.29217" lon="5.40294">
        <ele>559.6</ele>
        <time>2021-07-31T14:38:19.000Z</time>
      </trkpt>
      <trkpt lat="45.29207" lon="5.40288">
        <ele>561</ele>
        <time>2021-07-31T14:38:22.000Z</time>
      </trkpt>
      <trkpt lat="45.29197" lon="5.40282">
        <ele>562.5</ele>
        <time>2021-07-31T14:38:25.000Z</time>
      </trkpt>
      <trkpt lat="45.29186" lon="5.40277">
        <ele>563.7</ele>
        <time>2021-07-31T14:38:28.000Z</time>
      </trkpt>
      <trkpt lat="45.29175" lon="5.40275">
        <ele>564.4</ele>
        <time>2021-07-31T14:38:31.000Z</time>
      </trkpt>
      <trkpt lat="45.29164" lon="5.40273">
        <ele>564.4</ele>
        <time>2021-07-31T14:38:34.000Z</time>
      </trkpt>
      <trkpt lat="45.29154" lon="5.40272">
        <ele>564.1</ele>
        <time>2021-07-31T14:38:37.000Z</time>
      </trkpt>
      <trkpt lat="45.29144" lon="5.40269">
        <ele>564.2</ele>
        <time>2021-07-31T14:38:40.000Z</time>
      </trkpt>
      <trkpt lat="45.29134" lon="5.40264">
        <ele>564.4</ele>
        <time>2021-07-31T14:38:43.000Z</time>
      </trkpt>
      <trkpt lat="45.29124" lon="5.4026">
        <ele>564.3</ele>
        <time>2021-07-31T14:38:46.000Z</time>
      </trkpt>
      <trkpt lat="45.29114" lon="5.40254">
        <ele>564.2</ele>
        <time>2021-07-31T14:38:49.000Z</time>
      </trkpt>
      <trkpt lat="45.29104" lon="5.40249">
        <ele>564.1</ele>
        <time>2021-07-31T14:38:52.000Z</time>
      </trkpt>
      <trkpt lat="45.29093" lon="5.40245">
        <ele>564.5</ele>
        <time>2021-07-31T14:38:55.000Z</time>
      </trkpt>
      <trkpt lat="45.29083" lon="5.4024">
        <ele>565.5</ele>
        <time>2021-07-31T14:38:58.000Z</time>
      </trkpt>
      <trkpt lat="45.29073" lon="5.40236">
        <ele>566.5</ele>
        <time>2021-07-31T14:39:01.000Z</time>
      </trkpt>
      <trkpt lat="45.29062" lon="5.40233">
        <ele>567</ele>
        <time>2021-07-31T14:39:04.000Z</time>
      </trkpt>
      <trkpt lat="45.29052" lon="5.4023">
        <ele>567.9</ele>
        <time>2021-07-31T14:39:07.000Z</time>
      </trkpt>
      <trkpt lat="45.29041" lon="5.40228">
        <ele>567.9</ele>
        <time>2021-07-31T14:39:10.000Z</time>
      </trkpt>
      <trkpt lat="45.29029" lon="5.40225">
        <ele>568.3</ele>
        <time>2021-07-31T14:39:13.000Z</time>
      </trkpt>
      <trkpt lat="45.29019" lon="5.40223">
        <ele>568.6</ele>
        <time>2021-07-31T14:39:16.000Z</time>
      </trkpt>
      <trkpt lat="45.29008" lon="5.40223">
        <ele>568.2</ele>
        <time>2021-07-31T14:39:19.000Z</time>
      </trkpt>
      <trkpt lat="45.28998" lon="5.40223">
        <ele>567.9</ele>
        <time>2021-07-31T14:39:22.000Z</time>
      </trkpt>
      <trkpt lat="45.28988" lon="5.40223">
        <ele>568</ele>
        <time>2021-07-31T14:39:25.000Z</time>
      </trkpt>
      <trkpt lat="45.28978" lon="5.40221">
        <ele>568.7</ele>
        <time>2021-07-31T14:39:28.000Z</time>
      </trkpt>
      <trkpt lat="45.28968" lon="5.40217">
        <ele>569.7</ele>
        <time>2021-07-31T14:39:31.000Z</time>
      </trkpt>
      <trkpt lat="45.28959" lon="5.40211">
        <ele>570.9</ele>
        <time>2021-07-31T14:39:34.000Z</time>
      </trkpt>
      <trkpt lat="45.2895" lon="5.40202">
        <ele>572.8</ele>
        <time>2021-07-31T14:39:37.000Z</time>
      </trkpt>
      <trkpt lat="45.28943" lon="5.40189">
        <ele>575.3</ele>
        <time>2021-07-31T14:39:40.000Z</time>
      </trkpt>
      <trkpt lat="45.28935" lon="5.40178">
        <ele>577.3</ele>
        <time>2021-07-31T14:39:43.000Z</time>
      </trkpt>
      <trkpt lat="45.28926" lon="5.40168">
        <ele>578.7</ele>
        <time>2021-07-31T14:39:46.000Z</time>
      </trkpt>
      <trkpt lat="45.28918" lon="5.40159">
        <ele>580</ele>
        <time>2021-07-31T14:39:49.000Z</time>
      </trkpt>
      <trkpt lat="45.28909" lon="5.40152">
        <ele>580.4</ele>
        <time>2021-07-31T14:39:52.000Z</time>
      </trkpt>
      <trkpt lat="45.28899" lon="5.40147">
        <ele>580.4</ele>
        <time>2021-07-31T14:39:55.000Z</time>
      </trkpt>
      <trkpt lat="45.2889" lon="5.40141">
        <ele>580.3</ele>
        <time>2021-07-31T14:39:58.000Z</time>
      </trkpt>
      <trkpt lat="45.2888" lon="5.40133">
        <ele>580.6</ele>
        <time>2021-07-31T14:40:01.000Z</time>
      </trkpt>
      <trkpt lat="45.28871" lon="5.40124">
        <ele>581.6</ele>
        <time>2021-07-31T14:40:04.000Z</time>
      </trkpt>
      <trkpt lat="45.28863" lon="5.40115">
        <ele>582.4</ele>
        <time>2021-07-31T14:40:07.000Z</time>
      </trkpt>
      <trkpt lat="45.28854" lon="5.40106">
        <ele>583.2</ele>
        <time>2021-07-31T14:40:10.000Z</time>
      </trkpt>
      <trkpt lat="45.28846" lon="5.40097">
        <ele>584</ele>
        <time>2021-07-31T14:40:13.000Z</time>
      </trkpt>
      <trkpt lat="45.28839" lon="5.40086">
        <ele>585.3</ele>
        <time>2021-07-31T14:40:16.000Z</time>
      </trkpt>
      <trkpt lat="45.28832" lon="5.40075">
        <ele>586.9</ele>
        <time>2021-07-31T14:40:19.000Z</time>
      </trkpt>
      <trkpt lat="45.28825" lon="5.40064">
        <ele>588.8</ele>
        <time>2021-07-31T14:40:22.000Z</time>
      </trkpt>
      <trkpt lat="45.28817" lon="5.40054">
        <ele>590</ele>
        <time>2021-07-31T14:40:25.000Z</time>
      </trkpt>
      <trkpt lat="45.28809" lon="5.40043">
        <ele>591.1</ele>
        <time>2021-07-31T14:40:28.000Z</time>
      </trkpt>
      <trkpt lat="45.28802" lon="5.40032">
        <ele>592.7</ele>
        <time>2021-07-31T14:40:31.000Z</time>
      </trkpt>
      <trkpt lat="45.28797" lon="5.40019">
        <ele>594.9</ele>
        <time>2021-07-31T14:40:34.000Z</time>
      </trkpt>
      <trkpt lat="45.28792" lon="5.40006">
        <ele>596.7</ele>
        <time>2021-07-31T14:40:37.000Z</time>
      </trkpt>
      <trkpt lat="45.28785" lon="5.39993">
        <ele>597.6</ele>
        <time>2021-07-31T14:40:40.000Z</time>
      </trkpt>
      <trkpt lat="45.28777" lon="5.39982">
        <ele>597.2</ele>
        <time>2021-07-31T14:40:43.000Z</time>
      </trkpt>
      <trkpt lat="45.28769" lon="5.39971">
        <ele>596.8</ele>
        <time>2021-07-31T14:40:46.000Z</time>
      </trkpt>
      <trkpt lat="45.28761" lon="5.39959">
        <ele>596.8</ele>
        <time>2021-07-31T14:40:49.000Z</time>
      </trkpt>
      <trkpt lat="45.28757" lon="5.39945">
        <ele>597.6</ele>
        <time>2021-07-31T14:40:52.000Z</time>
      </trkpt>
      <trkpt lat="45.28754" lon="5.39931">
        <ele>599.1</ele>
        <time>2021-07-31T14:40:55.000Z</time>
      </trkpt>
      <trkpt lat="45.28752" lon="5.39917">
        <ele>600.5</ele>
        <time>2021-07-31T14:40:58.000Z</time>
      </trkpt>
      <trkpt lat="45.28747" lon="5.39904">
        <ele>600.2</ele>
        <time>2021-07-31T14:41:01.000Z</time>
      </trkpt>
      <trkpt lat="45.28742" lon="5.3989">
        <ele>599.8</ele>
        <time>2021-07-31T14:41:04.000Z</time>
      </trkpt>
      <trkpt lat="45.28736" lon="5.39878">
        <ele>598.9</ele>
        <time>2021-07-31T14:41:07.000Z</time>
      </trkpt>
      <trkpt lat="45.2873" lon="5.39865">
        <ele>598.5</ele>
        <time>2021-07-31T14:41:10.000Z</time>
      </trkpt>
      <trkpt lat="45.28723" lon="5.39853">
        <ele>597.9</ele>
        <time>2021-07-31T14:41:13.000Z</time>
      </trkpt>
      <trkpt lat="45.28718" lon="5.3984">
        <ele>597.8</ele>
        <time>2021-07-31T14:41:16.000Z</time>
      </trkpt>
      <trkpt lat="45.28711" lon="5.39829">
        <ele>597.4</ele>
        <time>2021-07-31T14:41:19.000Z</time>
      </trkpt>
      <trkpt lat="45.28704" lon="5.3982">
        <ele>596.6</ele>
        <time>2021-07-31T14:41:22.000Z</time>
      </trkpt>
      <trkpt lat="45.28693" lon="5.39814">
        <ele>595.1</ele>
        <time>2021-07-31T14:41:25.000Z</time>
      </trkpt>
      <trkpt lat="45.28683" lon="5.39809">
        <ele>593.4</ele>
        <time>2021-07-31T14:41:28.000Z</time>
      </trkpt>
      <trkpt lat="45.28672" lon="5.39803">
        <ele>591.9</ele>
        <time>2021-07-31T14:41:31.000Z</time>
      </trkpt>
      <trkpt lat="45.28662" lon="5.39796">
        <ele>590.8</ele>
        <time>2021-07-31T14:41:34.000Z</time>
      </trkpt>
      <trkpt lat="45.28654" lon="5.39787">
        <ele>590.9</ele>
        <time>2021-07-31T14:41:37.000Z</time>
      </trkpt>
      <trkpt lat="45.28647" lon="5.39777">
        <ele>591.2</ele>
        <time>2021-07-31T14:41:40.000Z</time>
      </trkpt>
      <trkpt lat="45.28639" lon="5.39767">
        <ele>591.3</ele>
        <time>2021-07-31T14:41:43.000Z</time>
      </trkpt>
      <trkpt lat="45.28632" lon="5.39756">
        <ele>591.9</ele>
        <time>2021-07-31T14:41:46.000Z</time>
      </trkpt>
      <trkpt lat="45.28626" lon="5.39744">
        <ele>592.3</ele>
        <time>2021-07-31T14:41:49.000Z</time>
      </trkpt>
      <trkpt lat="45.28622" lon="5.39732">
        <ele>592.9</ele>
        <time>2021-07-31T14:41:52.000Z</time>
      </trkpt>
      <trkpt lat="45.28616" lon="5.39717">
        <ele>593.4</ele>
        <time>2021-07-31T14:41:56.000Z</time>
      </trkpt>
      <trkpt lat="45.28608" lon="5.39707">
        <ele>593.4</ele>
        <time>2021-07-31T14:42:00.000Z</time>
      </trkpt>
      <trkpt lat="45.28601" lon="5.39695">
        <ele>593.4</ele>
        <time>2021-07-31T14:42:04.000Z</time>
      </trkpt>
      <trkpt lat="45.28593" lon="5.39685">
        <ele>593.4</ele>
        <time>2021-07-31T14:42:08.000Z</time>
      </trkpt>
      <trkpt lat="45.28586" lon="5.39677">
        <ele>593.2</ele>
        <time>2021-07-31T14:42:12.000Z</time>
      </trkpt>
      <trkpt lat="45.28579" lon="5.39669">
        <ele>593.5</ele>
        <time>2021-07-31T14:42:16.000Z</time>
      </trkpt>
      <trkpt lat="45.28573" lon="5.39659">
        <ele>593.6</ele>
        <time>2021-07-31T14:42:20.000Z</time>
      </trkpt>
      <trkpt lat="45.28566" lon="5.39648">
        <ele>593.7</ele>
        <time>2021-07-31T14:42:24.000Z</time>
      </trkpt>
      <trkpt lat="45.2856" lon="5.39638">
        <ele>594</ele>
        <time>2021-07-31T14:42:28.000Z</time>
      </trkpt>
      <trkpt lat="45.28555" lon="5.39624">
        <ele>594.7</ele>
        <time>2021-07-31T14:42:33.000Z</time>
      </trkpt>
      <trkpt lat="45.28552" lon="5.39611">
        <ele>595.5</ele>
        <time>2021-07-31T14:42:37.000Z</time>
      </trkpt>
      <trkpt lat="45.28551" lon="5.39598">
        <ele>596.5</ele>
        <time>2021-07-31T14:42:41.000Z</time>
      </trkpt>
      <trkpt lat="45.28551" lon="5.39583">
        <ele>597.8</ele>
        <time>2021-07-31T14:42:45.000Z</time>
      </trkpt>
      <trkpt lat="45.28552" lon="5.39568">
        <ele>598.3</ele>
        <time>2021-07-31T14:42:49.000Z</time>
      </trkpt>
      <trkpt lat="45.28553" lon="5.39554">
        <ele>599</ele>
        <time>2021-07-31T14:42:53.000Z</time>
      </trkpt>
      <trkpt lat="45.28556" lon="5.3954">
        <ele>599.8</ele>
        <time>2021-07-31T14:42:57.000Z</time>
      </trkpt>
      <trkpt lat="45.28561" lon="5.39528">
        <ele>600.9</ele>
        <time>2021-07-31T14:43:01.000Z</time>
      </trkpt>
      <trkpt lat="45.2857" lon="5.39524">
        <ele>602.1</ele>
        <time>2021-07-31T14:43:05.000Z</time>
      </trkpt>
      <trkpt lat="45.28581" lon="5.39528">
        <ele>603.1</ele>
        <time>2021-07-31T14:43:10.000Z</time>
      </trkpt>
      <trkpt lat="45.28588" lon="5.39538">
        <ele>603.3</ele>
        <time>2021-07-31T14:43:14.000Z</time>
      </trkpt>
      <trkpt lat="45.28595" lon="5.39549">
        <ele>603.5</ele>
        <time>2021-07-31T14:43:18.000Z</time>
      </trkpt>
      <trkpt lat="45.28603" lon="5.39559">
        <ele>603.9</ele>
        <time>2021-07-31T14:43:22.000Z</time>
      </trkpt>
      <trkpt lat="45.28613" lon="5.39568">
        <ele>604.5</ele>
        <time>2021-07-31T14:43:26.000Z</time>
      </trkpt>
      <trkpt lat="45.28624" lon="5.39576">
        <ele>605.3</ele>
        <time>2021-07-31T14:43:30.000Z</time>
      </trkpt>
      <trkpt lat="45.28632" lon="5.39581">
        <ele>606.1</ele>
        <time>2021-07-31T14:43:33.000Z</time>
      </trkpt>
      <trkpt lat="45.28643" lon="5.39588">
        <ele>606.9</ele>
        <time>2021-07-31T14:43:37.000Z</time>
      </trkpt>
      <trkpt lat="45.28653" lon="5.39596">
        <ele>607.5</ele>
        <time>2021-07-31T14:43:41.000Z</time>
      </trkpt>
      <trkpt lat="45.28661" lon="5.39602">
        <ele>608.2</ele>
        <time>2021-07-31T14:43:44.000Z</time>
      </trkpt>
      <trkpt lat="45.2867" lon="5.39607">
        <ele>609.2</ele>
        <time>2021-07-31T14:43:47.000Z</time>
      </trkpt>
      <trkpt lat="45.28679" lon="5.39611">
        <ele>610.6</ele>
        <time>2021-07-31T14:43:50.000Z</time>
      </trkpt>
      <trkpt lat="45.28688" lon="5.39613">
        <ele>612.1</ele>
        <time>2021-07-31T14:43:53.000Z</time>
      </trkpt>
      <trkpt lat="45.287" lon="5.39618">
        <ele>614</ele>
        <time>2021-07-31T14:43:57.000Z</time>
      </trkpt>
      <trkpt lat="45.28709" lon="5.39621">
        <ele>615.5</ele>
        <time>2021-07-31T14:44:00.000Z</time>
      </trkpt>
      <trkpt lat="45.28718" lon="5.39625">
        <ele>617.1</ele>
        <time>2021-07-31T14:44:03.000Z</time>
      </trkpt>
      <trkpt lat="45.28729" lon="5.39629">
        <ele>618.9</ele>
        <time>2021-07-31T14:44:07.000Z</time>
      </trkpt>
      <trkpt lat="45.28737" lon="5.39636">
        <ele>620.3</ele>
        <time>2021-07-31T14:44:10.000Z</time>
      </trkpt>
      <trkpt lat="45.28745" lon="5.39643">
        <ele>621.6</ele>
        <time>2021-07-31T14:44:13.000Z</time>
      </trkpt>
      <trkpt lat="45.28752" lon="5.39653">
        <ele>622.8</ele>
        <time>2021-07-31T14:44:16.000Z</time>
      </trkpt>
      <trkpt lat="45.28758" lon="5.39663">
        <ele>624</ele>
        <time>2021-07-31T14:44:19.000Z</time>
      </trkpt>
      <trkpt lat="45.28764" lon="5.39674">
        <ele>624.8</ele>
        <time>2021-07-31T14:44:22.000Z</time>
      </trkpt>
      <trkpt lat="45.28768" lon="5.39685">
        <ele>625.1</ele>
        <time>2021-07-31T14:44:25.000Z</time>
      </trkpt>
      <trkpt lat="45.28775" lon="5.39695">
        <ele>625.9</ele>
        <time>2021-07-31T14:44:28.000Z</time>
      </trkpt>
      <trkpt lat="45.28785" lon="5.397">
        <ele>628.1</ele>
        <time>2021-07-31T14:44:32.000Z</time>
      </trkpt>
      <trkpt lat="45.28795" lon="5.39703">
        <ele>630.2</ele>
        <time>2021-07-31T14:44:36.000Z</time>
      </trkpt>
      <trkpt lat="45.28804" lon="5.39703">
        <ele>632.3</ele>
        <time>2021-07-31T14:44:41.000Z</time>
      </trkpt>
      <trkpt lat="45.2881" lon="5.39694">
        <ele>634.7</ele>
        <time>2021-07-31T14:44:45.000Z</time>
      </trkpt>
      <trkpt lat="45.28815" lon="5.39681">
        <ele>636.4</ele>
        <time>2021-07-31T14:44:49.000Z</time>
      </trkpt>
      <trkpt lat="45.28818" lon="5.39667">
        <ele>638.5</ele>
        <time>2021-07-31T14:44:54.000Z</time>
      </trkpt>
      <trkpt lat="45.2882" lon="5.39652">
        <ele>639.3</ele>
        <time>2021-07-31T14:44:59.000Z</time>
      </trkpt>
      <trkpt lat="45.28821" lon="5.39638">
        <ele>640.1</ele>
        <time>2021-07-31T14:45:04.000Z</time>
      </trkpt>
      <trkpt lat="45.28821" lon="5.39624">
        <ele>640.4</ele>
        <time>2021-07-31T14:45:08.000Z</time>
      </trkpt>
      <trkpt lat="45.28822" lon="5.39611">
        <ele>641.1</ele>
        <time>2021-07-31T14:45:12.000Z</time>
      </trkpt>
      <trkpt lat="45.28823" lon="5.39598">
        <ele>641.9</ele>
        <time>2021-07-31T14:45:16.000Z</time>
      </trkpt>
      <trkpt lat="45.28827" lon="5.39587">
        <ele>643.3</ele>
        <time>2021-07-31T14:45:20.000Z</time>
      </trkpt>
      <trkpt lat="45.28831" lon="5.39572">
        <ele>645</ele>
        <time>2021-07-31T14:45:25.000Z</time>
      </trkpt>
      <trkpt lat="45.28837" lon="5.3956">
        <ele>646.3</ele>
        <time>2021-07-31T14:45:31.000Z</time>
      </trkpt>
      <trkpt lat="45.28843" lon="5.39548">
        <ele>647.5</ele>
        <time>2021-07-31T14:45:37.000Z</time>
      </trkpt>
      <trkpt lat="45.28847" lon="5.39535">
        <ele>648.4</ele>
        <time>2021-07-31T14:45:43.000Z</time>
      </trkpt>
      <trkpt lat="45.28852" lon="5.39522">
        <ele>649.5</ele>
        <time>2021-07-31T14:45:49.000Z</time>
      </trkpt>
      <trkpt lat="45.28857" lon="5.3951">
        <ele>650.5</ele>
        <time>2021-07-31T14:45:54.000Z</time>
      </trkpt>
      <trkpt lat="45.28861" lon="5.39497">
        <ele>651.4</ele>
        <time>2021-07-31T14:45:59.000Z</time>
      </trkpt>
      <trkpt lat="45.28865" lon="5.39485">
        <ele>651.9</ele>
        <time>2021-07-31T14:46:04.000Z</time>
      </trkpt>
      <trkpt lat="45.28868" lon="5.39471">
        <ele>652.4</ele>
        <time>2021-07-31T14:46:10.000Z</time>
      </trkpt>
      <trkpt lat="45.2887" lon="5.39456">
        <ele>652.8</ele>
        <time>2021-07-31T14:46:16.000Z</time>
      </trkpt>
      <trkpt lat="45.28873" lon="5.39443">
        <ele>653.4</ele>
        <time>2021-07-31T14:46:21.000Z</time>
      </trkpt>
      <trkpt lat="45.28875" lon="5.39429">
        <ele>653.8</ele>
        <time>2021-07-31T14:46:26.000Z</time>
      </trkpt>
      <trkpt lat="45.28876" lon="5.39415">
        <ele>654.2</ele>
        <time>2021-07-31T14:46:31.000Z</time>
      </trkpt>
      <trkpt lat="45.28877" lon="5.39402">
        <ele>654.1</ele>
        <time>2021-07-31T14:46:36.000Z</time>
      </trkpt>
      <trkpt lat="45.28879" lon="5.39388">
        <ele>654.2</ele>
        <time>2021-07-31T14:46:43.000Z</time>
      </trkpt>
      <trkpt lat="45.28883" lon="5.39374">
        <ele>654.5</ele>
        <time>2021-07-31T14:46:49.000Z</time>
      </trkpt>
      <trkpt lat="45.28887" lon="5.39362">
        <ele>654.7</ele>
        <time>2021-07-31T14:46:55.000Z</time>
      </trkpt>
      <trkpt lat="45.2889" lon="5.3935">
        <ele>654.8</ele>
        <time>2021-07-31T14:47:00.000Z</time>
      </trkpt>
      <trkpt lat="45.28893" lon="5.39337">
        <ele>654.8</ele>
        <time>2021-07-31T14:47:06.000Z</time>
      </trkpt>
      <trkpt lat="45.28897" lon="5.39325">
        <ele>655.1</ele>
        <time>2021-07-31T14:47:12.000Z</time>
      </trkpt>
      <trkpt lat="45.28902" lon="5.39311">
        <ele>655.6</ele>
        <time>2021-07-31T14:47:19.000Z</time>
      </trkpt>
      <trkpt lat="45.28907" lon="5.39299">
        <ele>656</ele>
        <time>2021-07-31T14:47:25.000Z</time>
      </trkpt>
      <trkpt lat="45.28912" lon="5.39288">
        <ele>656.5</ele>
        <time>2021-07-31T14:47:30.000Z</time>
      </trkpt>
      <trkpt lat="45.28917" lon="5.39275">
        <ele>657</ele>
        <time>2021-07-31T14:47:35.000Z</time>
      </trkpt>
      <trkpt lat="45.28922" lon="5.39263">
        <ele>656.3</ele>
        <time>2021-07-31T14:47:40.000Z</time>
      </trkpt>
      <trkpt lat="45.28926" lon="5.3925">
        <ele>655.5</ele>
        <time>2021-07-31T14:47:45.000Z</time>
      </trkpt>
      <trkpt lat="45.2893" lon="5.39237">
        <ele>654.9</ele>
        <time>2021-07-31T14:47:50.000Z</time>
      </trkpt>
      <trkpt lat="45.28936" lon="5.39225">
        <ele>654</ele>
        <time>2021-07-31T14:47:55.000Z</time>
      </trkpt>
      <trkpt lat="45.2894" lon="5.39212">
        <ele>653.3</ele>
        <time>2021-07-31T14:48:00.000Z</time>
      </trkpt>
      <trkpt lat="45.28941" lon="5.39199">
        <ele>652.8</ele>
        <time>2021-07-31T14:48:05.000Z</time>
      </trkpt>
      <trkpt lat="45.28945" lon="5.39185">
        <ele>652</ele>
        <time>2021-07-31T14:48:10.000Z</time>
      </trkpt>
      <trkpt lat="45.28949" lon="5.39171">
        <ele>651.2</ele>
        <time>2021-07-31T14:48:15.000Z</time>
      </trkpt>
      <trkpt lat="45.28953" lon="5.39157">
        <ele>650.1</ele>
        <time>2021-07-31T14:48:20.000Z</time>
      </trkpt>
      <trkpt lat="45.28953" lon="5.39142">
        <ele>650.1</ele>
        <time>2021-07-31T14:48:25.000Z</time>
      </trkpt>
      <trkpt lat="45.2895" lon="5.39127">
        <ele>650.6</ele>
        <time>2021-07-31T14:48:30.000Z</time>
      </trkpt>
      <trkpt lat="45.28947" lon="5.39115">
        <ele>651.2</ele>
        <time>2021-07-31T14:48:35.000Z</time>
      </trkpt>
      <trkpt lat="45.28942" lon="5.39101">
        <ele>652.3</ele>
        <time>2021-07-31T14:48:40.000Z</time>
      </trkpt>
      <trkpt lat="45.28937" lon="5.39088">
        <ele>653.3</ele>
        <time>2021-07-31T14:48:45.000Z</time>
      </trkpt>
      <trkpt lat="45.28934" lon="5.39075">
        <ele>654.1</ele>
        <time>2021-07-31T14:48:50.000Z</time>
      </trkpt>
      <trkpt lat="45.2893" lon="5.39061">
        <ele>655</ele>
        <time>2021-07-31T14:48:55.000Z</time>
      </trkpt>
      <trkpt lat="45.2893" lon="5.39046">
        <ele>655.1</ele>
        <time>2021-07-31T14:49:00.000Z</time>
      </trkpt>
      <trkpt lat="45.2893" lon="5.39032">
        <ele>655.1</ele>
        <time>2021-07-31T14:49:04.000Z</time>
      </trkpt>
      <trkpt lat="45.2893" lon="5.39017">
        <ele>655.2</ele>
        <time>2021-07-31T14:49:08.000Z</time>
      </trkpt>
      <trkpt lat="45.2893" lon="5.39004">
        <ele>655.2</ele>
        <time>2021-07-31T14:49:12.000Z</time>
      </trkpt>
      <trkpt lat="45.2893" lon="5.38988">
        <ele>655.4</ele>
        <time>2021-07-31T14:49:17.000Z</time>
      </trkpt>
      <trkpt lat="45.28929" lon="5.38974">
        <ele>655.6</ele>
        <time>2021-07-31T14:49:21.000Z</time>
      </trkpt>
      <trkpt lat="45.28928" lon="5.38961">
        <ele>656.1</ele>
        <time>2021-07-31T14:49:25.000Z</time>
      </trkpt>
      <trkpt lat="45.28926" lon="5.38947">
        <ele>656.7</ele>
        <time>2021-07-31T14:49:29.000Z</time>
      </trkpt>
      <trkpt lat="45.28924" lon="5.38934">
        <ele>657.1</ele>
        <time>2021-07-31T14:49:34.000Z</time>
      </trkpt>
      <trkpt lat="45.28924" lon="5.38918">
        <ele>657.4</ele>
        <time>2021-07-31T14:49:39.000Z</time>
      </trkpt>
      <trkpt lat="45.28924" lon="5.38904">
        <ele>658.4</ele>
        <time>2021-07-31T14:49:44.000Z</time>
      </trkpt>
      <trkpt lat="45.28923" lon="5.3889">
        <ele>659.5</ele>
        <time>2021-07-31T14:49:49.000Z</time>
      </trkpt>
      <trkpt lat="45.28923" lon="5.38876">
        <ele>660.6</ele>
        <time>2021-07-31T14:49:54.000Z</time>
      </trkpt>
      <trkpt lat="45.28924" lon="5.38863">
        <ele>661.4</ele>
        <time>2021-07-31T14:49:59.000Z</time>
      </trkpt>
      <trkpt lat="45.28922" lon="5.38848">
        <ele>662.8</ele>
        <time>2021-07-31T14:50:05.000Z</time>
      </trkpt>
      <trkpt lat="45.28921" lon="5.38834">
        <ele>664.1</ele>
        <time>2021-07-31T14:50:11.000Z</time>
      </trkpt>
      <trkpt lat="45.2892" lon="5.3882">
        <ele>664.5</ele>
        <time>2021-07-31T14:50:16.000Z</time>
      </trkpt>
      <trkpt lat="45.28918" lon="5.38807">
        <ele>665.4</ele>
        <time>2021-07-31T14:50:21.000Z</time>
      </trkpt>
      <trkpt lat="45.28916" lon="5.38795">
        <ele>666.1</ele>
        <time>2021-07-31T14:50:27.000Z</time>
      </trkpt>
      <trkpt lat="45.28914" lon="5.38781">
        <ele>666.7</ele>
        <time>2021-07-31T14:50:33.000Z</time>
      </trkpt>
      <trkpt lat="45.28913" lon="5.38767">
        <ele>667.4</ele>
        <time>2021-07-31T14:50:39.000Z</time>
      </trkpt>
      <trkpt lat="45.2891" lon="5.38753">
        <ele>668.4</ele>
        <time>2021-07-31T14:50:46.000Z</time>
      </trkpt>
      <trkpt lat="45.28906" lon="5.3874">
        <ele>669.9</ele>
        <time>2021-07-31T14:50:52.000Z</time>
      </trkpt>
      <trkpt lat="45.28899" lon="5.3873">
        <ele>671.8</ele>
        <time>2021-07-31T14:50:57.000Z</time>
      </trkpt>
      <trkpt lat="45.28895" lon="5.38718">
        <ele>673.4</ele>
        <time>2021-07-31T14:51:03.000Z</time>
      </trkpt>
      <trkpt lat="45.28893" lon="5.38706">
        <ele>674.3</ele>
        <time>2021-07-31T14:51:08.000Z</time>
      </trkpt>
      <trkpt lat="45.2889" lon="5.38692">
        <ele>675.7</ele>
        <time>2021-07-31T14:51:13.000Z</time>
      </trkpt>
      <trkpt lat="45.28885" lon="5.38678">
        <ele>677.2</ele>
        <time>2021-07-31T14:51:18.000Z</time>
      </trkpt>
      <trkpt lat="45.28882" lon="5.38664">
        <ele>678.5</ele>
        <time>2021-07-31T14:51:23.000Z</time>
      </trkpt>
      <trkpt lat="45.28877" lon="5.3865">
        <ele>680</ele>
        <time>2021-07-31T14:51:28.000Z</time>
      </trkpt>
      <trkpt lat="45.28875" lon="5.38638">
        <ele>680.9</ele>
        <time>2021-07-31T14:51:32.000Z</time>
      </trkpt>
      <trkpt lat="45.28872" lon="5.38624">
        <ele>682</ele>
        <time>2021-07-31T14:51:37.000Z</time>
      </trkpt>
      <trkpt lat="45.28869" lon="5.3861">
        <ele>683.1</ele>
        <time>2021-07-31T14:51:42.000Z</time>
      </trkpt>
      <trkpt lat="45.28865" lon="5.38597">
        <ele>684.1</ele>
        <time>2021-07-31T14:51:47.000Z</time>
      </trkpt>
      <trkpt lat="45.28859" lon="5.38584">
        <ele>685.7</ele>
        <time>2021-07-31T14:51:53.000Z</time>
      </trkpt>
      <trkpt lat="45.28855" lon="5.38572">
        <ele>686.9</ele>
        <time>2021-07-31T14:51:58.000Z</time>
      </trkpt>
      <trkpt lat="45.28851" lon="5.38559">
        <ele>687.8</ele>
        <time>2021-07-31T14:52:03.000Z</time>
      </trkpt>
      <trkpt lat="45.28848" lon="5.38547">
        <ele>688.3</ele>
        <time>2021-07-31T14:52:06.000Z</time>
      </trkpt>
      <trkpt lat="45.28847" lon="5.38533">
        <ele>688.8</ele>
        <time>2021-07-31T14:52:09.000Z</time>
      </trkpt>
      <trkpt lat="45.28845" lon="5.38516">
        <ele>689.2</ele>
        <time>2021-07-31T14:52:13.000Z</time>
      </trkpt>
      <trkpt lat="45.28844" lon="5.38503">
        <ele>689.4</ele>
        <time>2021-07-31T14:52:16.000Z</time>
      </trkpt>
      <trkpt lat="45.28842" lon="5.38487">
        <ele>690.5</ele>
        <time>2021-07-31T14:52:20.000Z</time>
      </trkpt>
      <trkpt lat="45.2884" lon="5.38473">
        <ele>691.5</ele>
        <time>2021-07-31T14:52:24.000Z</time>
      </trkpt>
      <trkpt lat="45.28838" lon="5.3846">
        <ele>692.3</ele>
        <time>2021-07-31T14:52:28.000Z</time>
      </trkpt>
      <trkpt lat="45.28836" lon="5.38446">
        <ele>693.4</ele>
        <time>2021-07-31T14:52:32.000Z</time>
      </trkpt>
      <trkpt lat="45.28835" lon="5.38431">
        <ele>694.1</ele>
        <time>2021-07-31T14:52:36.000Z</time>
      </trkpt>
      <trkpt lat="45.28833" lon="5.38417">
        <ele>695</ele>
        <time>2021-07-31T14:52:40.000Z</time>
      </trkpt>
      <trkpt lat="45.28829" lon="5.38403">
        <ele>696.4</ele>
        <time>2021-07-31T14:52:44.000Z</time>
      </trkpt>
      <trkpt lat="45.28825" lon="5.38388">
        <ele>697.8</ele>
        <time>2021-07-31T14:52:48.000Z</time>
      </trkpt>
      <trkpt lat="45.28821" lon="5.38376">
        <ele>699.1</ele>
        <time>2021-07-31T14:52:52.000Z</time>
      </trkpt>
      <trkpt lat="45.28818" lon="5.38361">
        <ele>700.4</ele>
        <time>2021-07-31T14:52:57.000Z</time>
      </trkpt>
      <trkpt lat="45.28815" lon="5.38347">
        <ele>701.6</ele>
        <time>2021-07-31T14:53:03.000Z</time>
      </trkpt>
      <trkpt lat="45.2881" lon="5.38336">
        <ele>702.7</ele>
        <time>2021-07-31T14:53:08.000Z</time>
      </trkpt>
      <trkpt lat="45.28804" lon="5.38323">
        <ele>704.1</ele>
        <time>2021-07-31T14:53:13.000Z</time>
      </trkpt>
      <trkpt lat="45.28799" lon="5.38311">
        <ele>705.5</ele>
        <time>2021-07-31T14:53:18.000Z</time>
      </trkpt>
      <trkpt lat="45.28796" lon="5.38298">
        <ele>706.9</ele>
        <time>2021-07-31T14:53:23.000Z</time>
      </trkpt>
      <trkpt lat="45.28791" lon="5.38285">
        <ele>708.1</ele>
        <time>2021-07-31T14:53:28.000Z</time>
      </trkpt>
      <trkpt lat="45.28786" lon="5.38271">
        <ele>709.5</ele>
        <time>2021-07-31T14:53:33.000Z</time>
      </trkpt>
      <trkpt lat="45.28782" lon="5.38257">
        <ele>710.8</ele>
        <time>2021-07-31T14:53:38.000Z</time>
      </trkpt>
      <trkpt lat="45.28779" lon="5.38244">
        <ele>711.9</ele>
        <time>2021-07-31T14:53:43.000Z</time>
      </trkpt>
      <trkpt lat="45.28776" lon="5.38231">
        <ele>713</ele>
        <time>2021-07-31T14:53:48.000Z</time>
      </trkpt>
      <trkpt lat="45.28773" lon="5.38218">
        <ele>714.2</ele>
        <time>2021-07-31T14:53:53.000Z</time>
      </trkpt>
      <trkpt lat="45.28771" lon="5.38204">
        <ele>715.5</ele>
        <time>2021-07-31T14:53:58.000Z</time>
      </trkpt>
      <trkpt lat="45.28769" lon="5.38189">
        <ele>716.8</ele>
        <time>2021-07-31T14:54:03.000Z</time>
      </trkpt>
      <trkpt lat="45.28769" lon="5.38175">
        <ele>718.1</ele>
        <time>2021-07-31T14:54:07.000Z</time>
      </trkpt>
      <trkpt lat="45.28771" lon="5.38162">
        <ele>718.7</ele>
        <time>2021-07-31T14:54:11.000Z</time>
      </trkpt>
      <trkpt lat="45.28773" lon="5.38148">
        <ele>718.6</ele>
        <time>2021-07-31T14:54:15.000Z</time>
      </trkpt>
      <trkpt lat="45.28776" lon="5.38136">
        <ele>718.3</ele>
        <time>2021-07-31T14:54:19.000Z</time>
      </trkpt>
      <trkpt lat="45.28781" lon="5.38121">
        <ele>718</ele>
        <time>2021-07-31T14:54:23.000Z</time>
      </trkpt>
      <trkpt lat="45.28785" lon="5.38106">
        <ele>717.5</ele>
        <time>2021-07-31T14:54:28.000Z</time>
      </trkpt>
      <trkpt lat="45.2879" lon="5.38093">
        <ele>716.9</ele>
        <time>2021-07-31T14:54:32.000Z</time>
      </trkpt>
      <trkpt lat="45.28794" lon="5.3808">
        <ele>716.2</ele>
        <time>2021-07-31T14:54:36.000Z</time>
      </trkpt>
      <trkpt lat="45.28798" lon="5.38066">
        <ele>715.3</ele>
        <time>2021-07-31T14:54:40.000Z</time>
      </trkpt>
      <trkpt lat="45.28801" lon="5.38053">
        <ele>714.5</ele>
        <time>2021-07-31T14:54:43.000Z</time>
      </trkpt>
      <trkpt lat="45.28805" lon="5.38038">
        <ele>713.5</ele>
        <time>2021-07-31T14:54:47.000Z</time>
      </trkpt>
      <trkpt lat="45.28808" lon="5.38026">
        <ele>712.8</ele>
        <time>2021-07-31T14:54:50.000Z</time>
      </trkpt>
      <trkpt lat="45.28811" lon="5.38014">
        <ele>712</ele>
        <time>2021-07-31T14:54:53.000Z</time>
      </trkpt>
      <trkpt lat="45.28813" lon="5.38">
        <ele>711.2</ele>
        <time>2021-07-31T14:54:56.000Z</time>
      </trkpt>
      <trkpt lat="45.28815" lon="5.37988">
        <ele>712.1</ele>
        <time>2021-07-31T14:54:59.000Z</time>
      </trkpt>
      <trkpt lat="45.28819" lon="5.37976">
        <ele>712.7</ele>
        <time>2021-07-31T14:55:02.000Z</time>
      </trkpt>
      <trkpt lat="45.28821" lon="5.37962">
        <ele>713.8</ele>
        <time>2021-07-31T14:55:05.000Z</time>
      </trkpt>
      <trkpt lat="45.28822" lon="5.37946">
        <ele>715.1</ele>
        <time>2021-07-31T14:55:09.000Z</time>
      </trkpt>
      <trkpt lat="45.28824" lon="5.37932">
        <ele>716.2</ele>
        <time>2021-07-31T14:55:13.000Z</time>
      </trkpt>
      <trkpt lat="45.28826" lon="5.37919">
        <ele>717.3</ele>
        <time>2021-07-31T14:55:17.000Z</time>
      </trkpt>
      <trkpt lat="45.28833" lon="5.3791">
        <ele>717.8</ele>
        <time>2021-07-31T14:55:23.000Z</time>
      </trkpt>
      <trkpt lat="45.28843" lon="5.37904">
        <ele>717.4</ele>
        <time>2021-07-31T14:55:29.000Z</time>
      </trkpt>
      <trkpt lat="45.2885" lon="5.37892">
        <ele>718</ele>
        <time>2021-07-31T14:55:35.000Z</time>
      </trkpt>
      <trkpt lat="45.28856" lon="5.3788">
        <ele>718.7</ele>
        <time>2021-07-31T14:55:39.000Z</time>
      </trkpt>
      <trkpt lat="45.28862" lon="5.37868">
        <ele>719.6</ele>
        <time>2021-07-31T14:55:43.000Z</time>
      </trkpt>
      <trkpt lat="45.28867" lon="5.37856">
        <ele>720.5</ele>
        <time>2021-07-31T14:55:47.000Z</time>
      </trkpt>
      <trkpt lat="45.28873" lon="5.37844">
        <ele>721.4</ele>
        <time>2021-07-31T14:55:52.000Z</time>
      </trkpt>
      <trkpt lat="45.28878" lon="5.37832">
        <ele>722.1</ele>
        <time>2021-07-31T14:55:56.000Z</time>
      </trkpt>
      <trkpt lat="45.28882" lon="5.37818">
        <ele>720.9</ele>
        <time>2021-07-31T14:56:01.000Z</time>
      </trkpt>
      <trkpt lat="45.28884" lon="5.37803">
        <ele>719.7</ele>
        <time>2021-07-31T14:56:06.000Z</time>
      </trkpt>
      <trkpt lat="45.28886" lon="5.3779">
        <ele>718.5</ele>
        <time>2021-07-31T14:56:11.000Z</time>
      </trkpt>
      <trkpt lat="45.28891" lon="5.37776">
        <ele>716.7</ele>
        <time>2021-07-31T14:56:16.000Z</time>
      </trkpt>
      <trkpt lat="45.28893" lon="5.37763">
        <ele>715.1</ele>
        <time>2021-07-31T14:56:21.000Z</time>
      </trkpt>
      <trkpt lat="45.28896" lon="5.3775">
        <ele>713.3</ele>
        <time>2021-07-31T14:56:25.000Z</time>
      </trkpt>
      <trkpt lat="45.28899" lon="5.37736">
        <ele>714.4</ele>
        <time>2021-07-31T14:56:29.000Z</time>
      </trkpt>
      <trkpt lat="45.28902" lon="5.37722">
        <ele>715.6</ele>
        <time>2021-07-31T14:56:33.000Z</time>
      </trkpt>
      <trkpt lat="45.289" lon="5.37708">
        <ele>717.8</ele>
        <time>2021-07-31T14:56:38.000Z</time>
      </trkpt>
      <trkpt lat="45.28899" lon="5.37693">
        <ele>719.8</ele>
        <time>2021-07-31T14:56:42.000Z</time>
      </trkpt>
      <trkpt lat="45.28902" lon="5.37679">
        <ele>721</ele>
        <time>2021-07-31T14:56:46.000Z</time>
      </trkpt>
      <trkpt lat="45.28906" lon="5.37665">
        <ele>722.6</ele>
        <time>2021-07-31T14:56:50.000Z</time>
      </trkpt>
      <trkpt lat="45.28909" lon="5.37652">
        <ele>725.2</ele>
        <time>2021-07-31T14:56:53.000Z</time>
      </trkpt>
      <trkpt lat="45.28914" lon="5.37639">
        <ele>727.2</ele>
        <time>2021-07-31T14:56:57.000Z</time>
      </trkpt>
      <trkpt lat="45.28921" lon="5.37629">
        <ele>728.8</ele>
        <time>2021-07-31T14:57:01.000Z</time>
      </trkpt>
      <trkpt lat="45.28928" lon="5.37621">
        <ele>729.9</ele>
        <time>2021-07-31T14:57:05.000Z</time>
      </trkpt>
      <trkpt lat="45.28938" lon="5.37612">
        <ele>731.2</ele>
        <time>2021-07-31T14:57:09.000Z</time>
      </trkpt>
      <trkpt lat="45.28947" lon="5.37609">
        <ele>731.1</ele>
        <time>2021-07-31T14:57:14.000Z</time>
      </trkpt>
      <trkpt lat="45.28956" lon="5.37604">
        <ele>731.7</ele>
        <time>2021-07-31T14:57:17.000Z</time>
      </trkpt>
      <trkpt lat="45.28965" lon="5.37596">
        <ele>732.8</ele>
        <time>2021-07-31T14:57:21.000Z</time>
      </trkpt>
      <trkpt lat="45.28976" lon="5.37591">
        <ele>733.4</ele>
        <time>2021-07-31T14:57:25.000Z</time>
      </trkpt>
      <trkpt lat="45.28987" lon="5.37588">
        <ele>733.7</ele>
        <time>2021-07-31T14:57:29.000Z</time>
      </trkpt>
      <trkpt lat="45.28996" lon="5.37585">
        <ele>733.9</ele>
        <time>2021-07-31T14:57:32.000Z</time>
      </trkpt>
      <trkpt lat="45.29006" lon="5.37582">
        <ele>733.4</ele>
        <time>2021-07-31T14:57:35.000Z</time>
      </trkpt>
      <trkpt lat="45.29016" lon="5.37579">
        <ele>732.3</ele>
        <time>2021-07-31T14:57:39.000Z</time>
      </trkpt>
      <trkpt lat="45.29025" lon="5.37575">
        <ele>731.6</ele>
        <time>2021-07-31T14:57:42.000Z</time>
      </trkpt>
      <trkpt lat="45.29033" lon="5.37569">
        <ele>731.1</ele>
        <time>2021-07-31T14:57:45.000Z</time>
      </trkpt>
      <trkpt lat="45.29041" lon="5.37562">
        <ele>731</ele>
        <time>2021-07-31T14:57:48.000Z</time>
      </trkpt>
      <trkpt lat="45.2905" lon="5.37553">
        <ele>731.6</ele>
        <time>2021-07-31T14:57:52.000Z</time>
      </trkpt>
      <trkpt lat="45.29058" lon="5.37545">
        <ele>732</ele>
        <time>2021-07-31T14:57:55.000Z</time>
      </trkpt>
      <trkpt lat="45.29065" lon="5.37534">
        <ele>733.1</ele>
        <time>2021-07-31T14:57:59.000Z</time>
      </trkpt>
      <trkpt lat="45.2907" lon="5.37521">
        <ele>734.9</ele>
        <time>2021-07-31T14:58:03.000Z</time>
      </trkpt>
      <trkpt lat="45.29075" lon="5.37507">
        <ele>737.2</ele>
        <time>2021-07-31T14:58:07.000Z</time>
      </trkpt>
      <trkpt lat="45.29065" lon="5.37501">
        <ele>738.9</ele>
        <time>2021-07-31T14:58:11.000Z</time>
      </trkpt>
      <trkpt lat="45.29056" lon="5.37503">
        <ele>738.9</ele>
        <time>2021-07-31T14:58:15.000Z</time>
      </trkpt>
      <trkpt lat="45.29045" lon="5.37503">
        <ele>739.5</ele>
        <time>2021-07-31T14:58:20.000Z</time>
      </trkpt>
      <trkpt lat="45.29035" lon="5.37504">
        <ele>739.8</ele>
        <time>2021-07-31T14:58:24.000Z</time>
      </trkpt>
      <trkpt lat="45.29024" lon="5.37506">
        <ele>740</ele>
        <time>2021-07-31T14:58:29.000Z</time>
      </trkpt>
      <trkpt lat="45.29013" lon="5.37509">
        <ele>740.5</ele>
        <time>2021-07-31T14:58:34.000Z</time>
      </trkpt>
      <trkpt lat="45.29003" lon="5.37512">
        <ele>740.7</ele>
        <time>2021-07-31T14:58:39.000Z</time>
      </trkpt>
      <trkpt lat="45.28993" lon="5.37512">
        <ele>741.3</ele>
        <time>2021-07-31T14:58:43.000Z</time>
      </trkpt>
      <trkpt lat="45.28983" lon="5.37511">
        <ele>741.9</ele>
        <time>2021-07-31T14:58:47.000Z</time>
      </trkpt>
      <trkpt lat="45.28973" lon="5.37513">
        <ele>742.3</ele>
        <time>2021-07-31T14:58:51.000Z</time>
      </trkpt>
      <trkpt lat="45.28964" lon="5.37511">
        <ele>742.9</ele>
        <time>2021-07-31T14:58:55.000Z</time>
      </trkpt>
      <trkpt lat="45.28953" lon="5.3751">
        <ele>743.6</ele>
        <time>2021-07-31T14:59:00.000Z</time>
      </trkpt>
      <trkpt lat="45.28943" lon="5.3751">
        <ele>744.1</ele>
        <time>2021-07-31T14:59:04.000Z</time>
      </trkpt>
      <trkpt lat="45.28934" lon="5.37507">
        <ele>744.7</ele>
        <time>2021-07-31T14:59:07.000Z</time>
      </trkpt>
      <trkpt lat="45.28924" lon="5.37504">
        <ele>745.5</ele>
        <time>2021-07-31T14:59:11.000Z</time>
      </trkpt>
      <trkpt lat="45.28914" lon="5.37503">
        <ele>745.9</ele>
        <time>2021-07-31T14:59:14.000Z</time>
      </trkpt>
      <trkpt lat="45.28903" lon="5.37501">
        <ele>746.3</ele>
        <time>2021-07-31T14:59:17.000Z</time>
      </trkpt>
      <trkpt lat="45.28892" lon="5.375">
        <ele>746.4</ele>
        <time>2021-07-31T14:59:20.000Z</time>
      </trkpt>
      <trkpt lat="45.28882" lon="5.37498">
        <ele>746.4</ele>
        <time>2021-07-31T14:59:23.000Z</time>
      </trkpt>
      <trkpt lat="45.28873" lon="5.37496">
        <ele>746.4</ele>
        <time>2021-07-31T14:59:26.000Z</time>
      </trkpt>
      <trkpt lat="45.28863" lon="5.37491">
        <ele>745.8</ele>
        <time>2021-07-31T14:59:29.000Z</time>
      </trkpt>
      <trkpt lat="45.28852" lon="5.37483">
        <ele>744.6</ele>
        <time>2021-07-31T14:59:32.000Z</time>
      </trkpt>
      <trkpt lat="45.28843" lon="5.37474">
        <ele>743.6</ele>
        <time>2021-07-31T14:59:35.000Z</time>
      </trkpt>
      <trkpt lat="45.28832" lon="5.37464">
        <ele>742.3</ele>
        <time>2021-07-31T14:59:38.000Z</time>
      </trkpt>
      <trkpt lat="45.28821" lon="5.37457">
        <ele>741.3</ele>
        <time>2021-07-31T14:59:41.000Z</time>
      </trkpt>
      <trkpt lat="45.28809" lon="5.37448">
        <ele>740.5</ele>
        <time>2021-07-31T14:59:44.000Z</time>
      </trkpt>
      <trkpt lat="45.288" lon="5.37437">
        <ele>739.2</ele>
        <time>2021-07-31T14:59:47.000Z</time>
      </trkpt>
      <trkpt lat="45.28791" lon="5.37424">
        <ele>737.9</ele>
        <time>2021-07-31T14:59:50.000Z</time>
      </trkpt>
      <trkpt lat="45.28781" lon="5.37415">
        <ele>736.8</ele>
        <time>2021-07-31T14:59:53.000Z</time>
      </trkpt>
      <trkpt lat="45.28771" lon="5.37406">
        <ele>734.7</ele>
        <time>2021-07-31T14:59:56.000Z</time>
      </trkpt>
      <trkpt lat="45.28763" lon="5.374">
        <ele>733.9</ele>
        <time>2021-07-31T14:59:58.000Z</time>
      </trkpt>
      <trkpt lat="45.28754" lon="5.37393">
        <ele>732.7</ele>
        <time>2021-07-31T15:00:00.000Z</time>
      </trkpt>
      <trkpt lat="45.28745" lon="5.37385">
        <ele>731.8</ele>
        <time>2021-07-31T15:00:02.000Z</time>
      </trkpt>
      <trkpt lat="45.28735" lon="5.37374">
        <ele>730.7</ele>
        <time>2021-07-31T15:00:04.000Z</time>
      </trkpt>
      <trkpt lat="45.28725" lon="5.37365">
        <ele>730.3</ele>
        <time>2021-07-31T15:00:06.000Z</time>
      </trkpt>
      <trkpt lat="45.28713" lon="5.37357">
        <ele>730.6</ele>
        <time>2021-07-31T15:00:08.000Z</time>
      </trkpt>
      <trkpt lat="45.28701" lon="5.37349">
        <ele>731.1</ele>
        <time>2021-07-31T15:00:10.000Z</time>
      </trkpt>
      <trkpt lat="45.2869" lon="5.37339">
        <ele>731.9</ele>
        <time>2021-07-31T15:00:12.000Z</time>
      </trkpt>
      <trkpt lat="45.28681" lon="5.37329">
        <ele>732.1</ele>
        <time>2021-07-31T15:00:14.000Z</time>
      </trkpt>
      <trkpt lat="45.28671" lon="5.37319">
        <ele>732.9</ele>
        <time>2021-07-31T15:00:17.000Z</time>
      </trkpt>
      <trkpt lat="45.28665" lon="5.37309">
        <ele>732.3</ele>
        <time>2021-07-31T15:00:20.000Z</time>
      </trkpt>
      <trkpt lat="45.28658" lon="5.37296">
        <ele>731</ele>
        <time>2021-07-31T15:00:24.000Z</time>
      </trkpt>
      <trkpt lat="45.28651" lon="5.37284">
        <ele>730.3</ele>
        <time>2021-07-31T15:00:28.000Z</time>
      </trkpt>
      <trkpt lat="45.28643" lon="5.37271">
        <ele>729.8</ele>
        <time>2021-07-31T15:00:32.000Z</time>
      </trkpt>
      <trkpt lat="45.28638" lon="5.37259">
        <ele>729.3</ele>
        <time>2021-07-31T15:00:36.000Z</time>
      </trkpt>
      <trkpt lat="45.28633" lon="5.37246">
        <ele>729</ele>
        <time>2021-07-31T15:00:40.000Z</time>
      </trkpt>
      <trkpt lat="45.28628" lon="5.37235">
        <ele>728.4</ele>
        <time>2021-07-31T15:00:44.000Z</time>
      </trkpt>
      <trkpt lat="45.28625" lon="5.37223">
        <ele>727.5</ele>
        <time>2021-07-31T15:00:49.000Z</time>
      </trkpt>
      <trkpt lat="45.28623" lon="5.37207">
        <ele>726.1</ele>
        <time>2021-07-31T15:00:54.000Z</time>
      </trkpt>
      <trkpt lat="45.28619" lon="5.37195">
        <ele>725.1</ele>
        <time>2021-07-31T15:00:57.000Z</time>
      </trkpt>
      <trkpt lat="45.28615" lon="5.37178">
        <ele>723.9</ele>
        <time>2021-07-31T15:01:00.000Z</time>
      </trkpt>
      <trkpt lat="45.2861" lon="5.37162">
        <ele>722.4</ele>
        <time>2021-07-31T15:01:03.000Z</time>
      </trkpt>
      <trkpt lat="45.28604" lon="5.37147">
        <ele>719.9</ele>
        <time>2021-07-31T15:01:06.000Z</time>
      </trkpt>
      <trkpt lat="45.28598" lon="5.3713">
        <ele>717.3</ele>
        <time>2021-07-31T15:01:09.000Z</time>
      </trkpt>
      <trkpt lat="45.28591" lon="5.37115">
        <ele>714.7</ele>
        <time>2021-07-31T15:01:12.000Z</time>
      </trkpt>
      <trkpt lat="45.28585" lon="5.37103">
        <ele>712.6</ele>
        <time>2021-07-31T15:01:14.000Z</time>
      </trkpt>
      <trkpt lat="45.28581" lon="5.37091">
        <ele>710.4</ele>
        <time>2021-07-31T15:01:16.000Z</time>
      </trkpt>
      <trkpt lat="45.28574" lon="5.37078">
        <ele>708.6</ele>
        <time>2021-07-31T15:01:18.000Z</time>
      </trkpt>
      <trkpt lat="45.28566" lon="5.37065">
        <ele>707.2</ele>
        <time>2021-07-31T15:01:20.000Z</time>
      </trkpt>
      <trkpt lat="45.2856" lon="5.3705">
        <ele>705.5</ele>
        <time>2021-07-31T15:01:22.000Z</time>
      </trkpt>
      <trkpt lat="45.28555" lon="5.37036">
        <ele>703.5</ele>
        <time>2021-07-31T15:01:24.000Z</time>
      </trkpt>
      <trkpt lat="45.2855" lon="5.37022">
        <ele>701.6</ele>
        <time>2021-07-31T15:01:26.000Z</time>
      </trkpt>
      <trkpt lat="45.28545" lon="5.37008">
        <ele>699.5</ele>
        <time>2021-07-31T15:01:28.000Z</time>
      </trkpt>
      <trkpt lat="45.2854" lon="5.36992">
        <ele>697.3</ele>
        <time>2021-07-31T15:01:30.000Z</time>
      </trkpt>
      <trkpt lat="45.28535" lon="5.36977">
        <ele>695.9</ele>
        <time>2021-07-31T15:01:32.000Z</time>
      </trkpt>
      <trkpt lat="45.28531" lon="5.36963">
        <ele>694.5</ele>
        <time>2021-07-31T15:01:34.000Z</time>
      </trkpt>
      <trkpt lat="45.28529" lon="5.3695">
        <ele>692.9</ele>
        <time>2021-07-31T15:01:36.000Z</time>
      </trkpt>
      <trkpt lat="45.28529" lon="5.36936">
        <ele>691.1</ele>
        <time>2021-07-31T15:01:38.000Z</time>
      </trkpt>
      <trkpt lat="45.28531" lon="5.36923">
        <ele>688.7</ele>
        <time>2021-07-31T15:01:40.000Z</time>
      </trkpt>
      <trkpt lat="45.28535" lon="5.3691">
        <ele>686.7</ele>
        <time>2021-07-31T15:01:42.000Z</time>
      </trkpt>
      <trkpt lat="45.28538" lon="5.36895">
        <ele>685.7</ele>
        <time>2021-07-31T15:01:44.000Z</time>
      </trkpt>
      <trkpt lat="45.2854" lon="5.36879">
        <ele>684.8</ele>
        <time>2021-07-31T15:01:46.000Z</time>
      </trkpt>
      <trkpt lat="45.28541" lon="5.36865">
        <ele>683.9</ele>
        <time>2021-07-31T15:01:48.000Z</time>
      </trkpt>
      <trkpt lat="45.28542" lon="5.36848">
        <ele>683.4</ele>
        <time>2021-07-31T15:01:51.000Z</time>
      </trkpt>
      <trkpt lat="45.28542" lon="5.36834">
        <ele>682.9</ele>
        <time>2021-07-31T15:01:53.000Z</time>
      </trkpt>
      <trkpt lat="45.28542" lon="5.36818">
        <ele>682.6</ele>
        <time>2021-07-31T15:01:56.000Z</time>
      </trkpt>
      <trkpt lat="45.28546" lon="5.36805">
        <ele>681.5</ele>
        <time>2021-07-31T15:01:58.000Z</time>
      </trkpt>
      <trkpt lat="45.28553" lon="5.36791">
        <ele>679.9</ele>
        <time>2021-07-31T15:02:00.000Z</time>
      </trkpt>
      <trkpt lat="45.28562" lon="5.36781">
        <ele>678</ele>
        <time>2021-07-31T15:02:02.000Z</time>
      </trkpt>
      <trkpt lat="45.28571" lon="5.3677">
        <ele>676.2</ele>
        <time>2021-07-31T15:02:04.000Z</time>
      </trkpt>
      <trkpt lat="45.28579" lon="5.36757">
        <ele>674.6</ele>
        <time>2021-07-31T15:02:06.000Z</time>
      </trkpt>
      <trkpt lat="45.28587" lon="5.36745">
        <ele>673.6</ele>
        <time>2021-07-31T15:02:08.000Z</time>
      </trkpt>
      <trkpt lat="45.28595" lon="5.36731">
        <ele>673.1</ele>
        <time>2021-07-31T15:02:10.000Z</time>
      </trkpt>
      <trkpt lat="45.286" lon="5.36719">
        <ele>673</ele>
        <time>2021-07-31T15:02:12.000Z</time>
      </trkpt>
      <trkpt lat="45.28604" lon="5.36707">
        <ele>673.5</ele>
        <time>2021-07-31T15:02:14.000Z</time>
      </trkpt>
      <trkpt lat="45.28606" lon="5.36693">
        <ele>674.5</ele>
        <time>2021-07-31T15:02:16.000Z</time>
      </trkpt>
      <trkpt lat="45.2861" lon="5.3668">
        <ele>675</ele>
        <time>2021-07-31T15:02:18.000Z</time>
      </trkpt>
      <trkpt lat="45.28609" lon="5.36662">
        <ele>677.4</ele>
        <time>2021-07-31T15:02:21.000Z</time>
      </trkpt>
      <trkpt lat="45.28608" lon="5.36647">
        <ele>679.3</ele>
        <time>2021-07-31T15:02:24.000Z</time>
      </trkpt>
      <trkpt lat="45.28607" lon="5.36633">
        <ele>681.3</ele>
        <time>2021-07-31T15:02:28.000Z</time>
      </trkpt>
      <trkpt lat="45.28607" lon="5.36618">
        <ele>683</ele>
        <time>2021-07-31T15:02:33.000Z</time>
      </trkpt>
      <trkpt lat="45.28609" lon="5.36604">
        <ele>684.3</ele>
        <time>2021-07-31T15:02:39.000Z</time>
      </trkpt>
      <trkpt lat="45.28613" lon="5.36591">
        <ele>685.5</ele>
        <time>2021-07-31T15:02:43.000Z</time>
      </trkpt>
      <trkpt lat="45.28614" lon="5.36578">
        <ele>686.2</ele>
        <time>2021-07-31T15:02:46.000Z</time>
      </trkpt>
      <trkpt lat="45.28614" lon="5.36564">
        <ele>685.9</ele>
        <time>2021-07-31T15:02:49.000Z</time>
      </trkpt>
      <trkpt lat="45.28612" lon="5.36548">
        <ele>685.8</ele>
        <time>2021-07-31T15:02:53.000Z</time>
      </trkpt>
      <trkpt lat="45.28612" lon="5.36531">
        <ele>685.5</ele>
        <time>2021-07-31T15:02:56.000Z</time>
      </trkpt>
      <trkpt lat="45.28613" lon="5.36512">
        <ele>685.1</ele>
        <time>2021-07-31T15:02:59.000Z</time>
      </trkpt>
      <trkpt lat="45.28612" lon="5.36493">
        <ele>684</ele>
        <time>2021-07-31T15:03:02.000Z</time>
      </trkpt>
      <trkpt lat="45.2861" lon="5.36477">
        <ele>682.2</ele>
        <time>2021-07-31T15:03:04.000Z</time>
      </trkpt>
      <trkpt lat="45.28608" lon="5.36464">
        <ele>680.7</ele>
        <time>2021-07-31T15:03:06.000Z</time>
      </trkpt>
      <trkpt lat="45.28607" lon="5.3645">
        <ele>679</ele>
        <time>2021-07-31T15:03:08.000Z</time>
      </trkpt>
      <trkpt lat="45.28606" lon="5.36432">
        <ele>676.8</ele>
        <time>2021-07-31T15:03:11.000Z</time>
      </trkpt>
      <trkpt lat="45.286" lon="5.36416">
        <ele>675.5</ele>
        <time>2021-07-31T15:03:14.000Z</time>
      </trkpt>
      <trkpt lat="45.28596" lon="5.36401">
        <ele>674.3</ele>
        <time>2021-07-31T15:03:17.000Z</time>
      </trkpt>
      <trkpt lat="45.28596" lon="5.36387">
        <ele>672.8</ele>
        <time>2021-07-31T15:03:19.000Z</time>
      </trkpt>
      <trkpt lat="45.28597" lon="5.36368">
        <ele>670.7</ele>
        <time>2021-07-31T15:03:21.000Z</time>
      </trkpt>
      <trkpt lat="45.28597" lon="5.36347">
        <ele>668.5</ele>
        <time>2021-07-31T15:03:23.000Z</time>
      </trkpt>
      <trkpt lat="45.28595" lon="5.36327">
        <ele>666.9</ele>
        <time>2021-07-31T15:03:25.000Z</time>
      </trkpt>
      <trkpt lat="45.28587" lon="5.36307">
        <ele>665.9</ele>
        <time>2021-07-31T15:03:27.000Z</time>
      </trkpt>
      <trkpt lat="45.28578" lon="5.36288">
        <ele>665</ele>
        <time>2021-07-31T15:03:29.000Z</time>
      </trkpt>
      <trkpt lat="45.28568" lon="5.3627">
        <ele>664.2</ele>
        <time>2021-07-31T15:03:31.000Z</time>
      </trkpt>
      <trkpt lat="45.28558" lon="5.3625">
        <ele>663.5</ele>
        <time>2021-07-31T15:03:33.000Z</time>
      </trkpt>
      <trkpt lat="45.28547" lon="5.3623">
        <ele>661.7</ele>
        <time>2021-07-31T15:03:35.000Z</time>
      </trkpt>
      <trkpt lat="45.28542" lon="5.3622">
        <ele>660.7</ele>
        <time>2021-07-31T15:03:36.000Z</time>
      </trkpt>
      <trkpt lat="45.28537" lon="5.36208">
        <ele>659.7</ele>
        <time>2021-07-31T15:03:37.000Z</time>
      </trkpt>
      <trkpt lat="45.28534" lon="5.36195">
        <ele>658.6</ele>
        <time>2021-07-31T15:03:38.000Z</time>
      </trkpt>
      <trkpt lat="45.28531" lon="5.36182">
        <ele>657.2</ele>
        <time>2021-07-31T15:03:39.000Z</time>
      </trkpt>
      <trkpt lat="45.28529" lon="5.36169">
        <ele>655.7</ele>
        <time>2021-07-31T15:03:40.000Z</time>
      </trkpt>
      <trkpt lat="45.28527" lon="5.36155">
        <ele>654.2</ele>
        <time>2021-07-31T15:03:41.000Z</time>
      </trkpt>
      <trkpt lat="45.28525" lon="5.3614">
        <ele>652.7</ele>
        <time>2021-07-31T15:03:42.000Z</time>
      </trkpt>
      <trkpt lat="45.28524" lon="5.36125">
        <ele>651.1</ele>
        <time>2021-07-31T15:03:43.000Z</time>
      </trkpt>
      <trkpt lat="45.28523" lon="5.36109">
        <ele>649.4</ele>
        <time>2021-07-31T15:03:44.000Z</time>
      </trkpt>
      <trkpt lat="45.28522" lon="5.36092">
        <ele>647.9</ele>
        <time>2021-07-31T15:03:45.000Z</time>
      </trkpt>
      <trkpt lat="45.2852" lon="5.36077">
        <ele>647.2</ele>
        <time>2021-07-31T15:03:46.000Z</time>
      </trkpt>
      <trkpt lat="45.28517" lon="5.36063">
        <ele>648</ele>
        <time>2021-07-31T15:03:47.000Z</time>
      </trkpt>
      <trkpt lat="45.28512" lon="5.36041">
        <ele>649.2</ele>
        <time>2021-07-31T15:03:49.000Z</time>
      </trkpt>
      <trkpt lat="45.28508" lon="5.36026">
        <ele>650.2</ele>
        <time>2021-07-31T15:03:51.000Z</time>
      </trkpt>
      <trkpt lat="45.28505" lon="5.36012">
        <ele>651.1</ele>
        <time>2021-07-31T15:03:55.000Z</time>
      </trkpt>
      <trkpt lat="45.285" lon="5.35998">
        <ele>652.2</ele>
        <time>2021-07-31T15:03:58.000Z</time>
      </trkpt>
      <trkpt lat="45.28496" lon="5.35985">
        <ele>654</ele>
        <time>2021-07-31T15:04:01.000Z</time>
      </trkpt>
      <trkpt lat="45.28492" lon="5.3597">
        <ele>656</ele>
        <time>2021-07-31T15:04:05.000Z</time>
      </trkpt>
      <trkpt lat="45.2849" lon="5.35955">
        <ele>657.9</ele>
        <time>2021-07-31T15:04:10.000Z</time>
      </trkpt>
      <trkpt lat="45.28491" lon="5.35942">
        <ele>659.2</ele>
        <time>2021-07-31T15:04:14.000Z</time>
      </trkpt>
      <trkpt lat="45.28492" lon="5.35926">
        <ele>660.6</ele>
        <time>2021-07-31T15:04:19.000Z</time>
      </trkpt>
      <trkpt lat="45.28495" lon="5.35914">
        <ele>661.4</ele>
        <time>2021-07-31T15:04:23.000Z</time>
      </trkpt>
      <trkpt lat="45.28499" lon="5.359">
        <ele>663.9</ele>
        <time>2021-07-31T15:04:28.000Z</time>
      </trkpt>
      <trkpt lat="45.285" lon="5.35887">
        <ele>666.4</ele>
        <time>2021-07-31T15:04:32.000Z</time>
      </trkpt>
      <trkpt lat="45.28499" lon="5.35872">
        <ele>669.9</ele>
        <time>2021-07-31T15:04:36.000Z</time>
      </trkpt>
      <trkpt lat="45.28493" lon="5.35859">
        <ele>673.3</ele>
        <time>2021-07-31T15:04:41.000Z</time>
      </trkpt>
      <trkpt lat="45.28489" lon="5.35847">
        <ele>676</ele>
        <time>2021-07-31T15:04:46.000Z</time>
      </trkpt>
      <trkpt lat="45.28484" lon="5.35833">
        <ele>679</ele>
        <time>2021-07-31T15:04:51.000Z</time>
      </trkpt>
      <trkpt lat="45.2848" lon="5.35816">
        <ele>681.3</ele>
        <time>2021-07-31T15:04:55.000Z</time>
      </trkpt>
      <trkpt lat="45.2848" lon="5.35796">
        <ele>683.8</ele>
        <time>2021-07-31T15:04:58.000Z</time>
      </trkpt>
      <trkpt lat="45.28476" lon="5.35779">
        <ele>686.1</ele>
        <time>2021-07-31T15:05:00.000Z</time>
      </trkpt>
      <trkpt lat="45.28469" lon="5.35768">
        <ele>687.4</ele>
        <time>2021-07-31T15:05:02.000Z</time>
      </trkpt>
      <trkpt lat="45.28457" lon="5.35759">
        <ele>688.6</ele>
        <time>2021-07-31T15:05:04.000Z</time>
      </trkpt>
      <trkpt lat="45.28445" lon="5.35745">
        <ele>688.8</ele>
        <time>2021-07-31T15:05:06.000Z</time>
      </trkpt>
      <trkpt lat="45.28443" lon="5.35726">
        <ele>686.8</ele>
        <time>2021-07-31T15:05:08.000Z</time>
      </trkpt>
      <trkpt lat="45.28452" lon="5.35713">
        <ele>685.9</ele>
        <time>2021-07-31T15:05:10.000Z</time>
      </trkpt>
      <trkpt lat="45.28463" lon="5.35702">
        <ele>685.4</ele>
        <time>2021-07-31T15:05:12.000Z</time>
      </trkpt>
      <trkpt lat="45.28469" lon="5.35686">
        <ele>684.3</ele>
        <time>2021-07-31T15:05:14.000Z</time>
      </trkpt>
      <trkpt lat="45.28474" lon="5.35669">
        <ele>683.4</ele>
        <time>2021-07-31T15:05:16.000Z</time>
      </trkpt>
      <trkpt lat="45.28481" lon="5.35651">
        <ele>681.3</ele>
        <time>2021-07-31T15:05:18.000Z</time>
      </trkpt>
      <trkpt lat="45.28486" lon="5.35626">
        <ele>678.4</ele>
        <time>2021-07-31T15:05:20.000Z</time>
      </trkpt>
      <trkpt lat="45.28488" lon="5.35614">
        <ele>676.6</ele>
        <time>2021-07-31T15:05:21.000Z</time>
      </trkpt>
      <trkpt lat="45.28493" lon="5.35593">
        <ele>674</ele>
        <time>2021-07-31T15:05:23.000Z</time>
      </trkpt>
      <trkpt lat="45.28494" lon="5.3557">
        <ele>670.3</ele>
        <time>2021-07-31T15:05:25.000Z</time>
      </trkpt>
      <trkpt lat="45.28494" lon="5.35556">
        <ele>667.9</ele>
        <time>2021-07-31T15:05:26.000Z</time>
      </trkpt>
      <trkpt lat="45.28495" lon="5.35541">
        <ele>665.5</ele>
        <time>2021-07-31T15:05:27.000Z</time>
      </trkpt>
      <trkpt lat="45.28495" lon="5.35526">
        <ele>663.2</ele>
        <time>2021-07-31T15:05:28.000Z</time>
      </trkpt>
      <trkpt lat="45.28495" lon="5.35513">
        <ele>660.7</ele>
        <time>2021-07-31T15:05:29.000Z</time>
      </trkpt>
      <trkpt lat="45.28491" lon="5.35488">
        <ele>656.5</ele>
        <time>2021-07-31T15:05:31.000Z</time>
      </trkpt>
      <trkpt lat="45.28487" lon="5.35475">
        <ele>654.4</ele>
        <time>2021-07-31T15:05:32.000Z</time>
      </trkpt>
      <trkpt lat="45.28485" lon="5.35456">
        <ele>651.2</ele>
        <time>2021-07-31T15:05:34.000Z</time>
      </trkpt>
      <trkpt lat="45.2848" lon="5.35437">
        <ele>648.1</ele>
        <time>2021-07-31T15:05:36.000Z</time>
      </trkpt>
      <trkpt lat="45.28473" lon="5.35418">
        <ele>645</ele>
        <time>2021-07-31T15:05:38.000Z</time>
      </trkpt>
      <trkpt lat="45.28468" lon="5.35402">
        <ele>643.2</ele>
        <time>2021-07-31T15:05:40.000Z</time>
      </trkpt>
      <trkpt lat="45.28461" lon="5.35386">
        <ele>641</ele>
        <time>2021-07-31T15:05:42.000Z</time>
      </trkpt>
      <trkpt lat="45.28455" lon="5.35366">
        <ele>638.6</ele>
        <time>2021-07-31T15:05:44.000Z</time>
      </trkpt>
      <trkpt lat="45.28448" lon="5.35346">
        <ele>636.1</ele>
        <time>2021-07-31T15:05:46.000Z</time>
      </trkpt>
      <trkpt lat="45.28439" lon="5.35324">
        <ele>633.4</ele>
        <time>2021-07-31T15:05:48.000Z</time>
      </trkpt>
      <trkpt lat="45.2843" lon="5.35303">
        <ele>630.6</ele>
        <time>2021-07-31T15:05:50.000Z</time>
      </trkpt>
      <trkpt lat="45.28424" lon="5.35292">
        <ele>629.2</ele>
        <time>2021-07-31T15:05:51.000Z</time>
      </trkpt>
      <trkpt lat="45.28415" lon="5.35273">
        <ele>626.9</ele>
        <time>2021-07-31T15:05:53.000Z</time>
      </trkpt>
      <trkpt lat="45.28412" lon="5.35255">
        <ele>624.7</ele>
        <time>2021-07-31T15:05:56.000Z</time>
      </trkpt>
      <trkpt lat="45.28412" lon="5.35239">
        <ele>623.1</ele>
        <time>2021-07-31T15:06:00.000Z</time>
      </trkpt>
      <trkpt lat="45.28411" lon="5.35226">
        <ele>622</ele>
        <time>2021-07-31T15:06:04.000Z</time>
      </trkpt>
      <trkpt lat="45.28411" lon="5.35223">
        <ele>621.7</ele>
        <time>2021-07-31T15:06:23.000Z</time>
      </trkpt>
      <trkpt lat="45.28412" lon="5.35224">
        <ele>621.7</ele>
        <time>2021-07-31T15:08:35.000Z</time>
      </trkpt>
      <trkpt lat="45.28412" lon="5.35224">
        <ele>621.8</ele>
        <time>2021-07-31T15:08:38.000Z</time>
      </trkpt>
      <trkpt lat="45.28412" lon="5.35224">
        <ele>621.8</ele>
        <time>2021-07-31T15:08:40.000Z</time>
      </trkpt>
      <trkpt lat="45.28412" lon="5.35224">
        <ele>621.8</ele>
        <time>2021-07-31T15:08:42.000Z</time>
      </trkpt>
      <trkpt lat="45.28412" lon="5.35225">
        <ele>621.8</ele>
        <time>2021-07-31T15:09:34.000Z</time>
      </trkpt>
      <trkpt lat="45.28413" lon="5.35225">
        <ele>621.8</ele>
        <time>2021-07-31T15:09:35.000Z</time>
      </trkpt>
      <trkpt lat="45.28413" lon="5.35225">
        <ele>621.8</ele>
        <time>2021-07-31T15:09:37.000Z</time>
      </trkpt>
      <trkpt lat="45.28413" lon="5.35225">
        <ele>621.9</ele>
        <time>2021-07-31T15:09:39.000Z</time>
      </trkpt>
      <trkpt lat="45.28413" lon="5.35225">
        <ele>621.9</ele>
        <time>2021-07-31T15:09:40.000Z</time>
      </trkpt>
      <trkpt lat="45.28412" lon="5.35226">
        <ele>621.9</ele>
        <time>2021-07-31T15:09:42.000Z</time>
      </trkpt>
      <trkpt lat="45.28413" lon="5.35226">
        <ele>621.9</ele>
        <time>2021-07-31T15:09:48.000Z</time>
      </trkpt>
      <trkpt lat="45.28412" lon="5.35226">
        <ele>621.9</ele>
        <time>2021-07-31T15:09:50.000Z</time>
      </trkpt>
      <trkpt lat="45.28412" lon="5.35226">
        <ele>621.9</ele>
        <time>2021-07-31T15:09:54.000Z</time>
      </trkpt>
      <trkpt lat="45.28412" lon="5.35227">
        <ele>622</ele>
        <time>2021-07-31T15:09:57.000Z</time>
      </trkpt>
      <trkpt lat="45.28412" lon="5.35227">
        <ele>622</ele>
        <time>2021-07-31T15:11:47.000Z</time>
      </trkpt>
      <trkpt lat="45.28404" lon="5.35215">
        <ele>621.5</ele>
        <time>2021-07-31T15:11:59.000Z</time>
      </trkpt>
      <trkpt lat="45.28402" lon="5.35202">
        <ele>620.6</ele>
        <time>2021-07-31T15:12:02.000Z</time>
      </trkpt>
      <trkpt lat="45.28399" lon="5.35188">
        <ele>619.9</ele>
        <time>2021-07-31T15:12:05.000Z</time>
      </trkpt>
      <trkpt lat="45.28396" lon="5.35175">
        <ele>619.3</ele>
        <time>2021-07-31T15:12:08.000Z</time>
      </trkpt>
      <trkpt lat="45.28392" lon="5.35162">
        <ele>619.2</ele>
        <time>2021-07-31T15:12:11.000Z</time>
      </trkpt>
      <trkpt lat="45.28386" lon="5.35149">
        <ele>620.2</ele>
        <time>2021-07-31T15:12:14.000Z</time>
      </trkpt>
      <trkpt lat="45.28378" lon="5.35141">
        <ele>621.6</ele>
        <time>2021-07-31T15:12:17.000Z</time>
      </trkpt>
      <trkpt lat="45.28366" lon="5.35141">
        <ele>623.2</ele>
        <time>2021-07-31T15:12:20.000Z</time>
      </trkpt>
      <trkpt lat="45.28355" lon="5.35144">
        <ele>624.9</ele>
        <time>2021-07-31T15:12:23.000Z</time>
      </trkpt>
      <trkpt lat="45.28343" lon="5.35144">
        <ele>626.7</ele>
        <time>2021-07-31T15:12:26.000Z</time>
      </trkpt>
      <trkpt lat="45.28332" lon="5.35137">
        <ele>628.5</ele>
        <time>2021-07-31T15:12:29.000Z</time>
      </trkpt>
      <trkpt lat="45.28324" lon="5.35125">
        <ele>629.4</ele>
        <time>2021-07-31T15:12:32.000Z</time>
      </trkpt>
      <trkpt lat="45.28318" lon="5.35112">
        <ele>630.3</ele>
        <time>2021-07-31T15:12:35.000Z</time>
      </trkpt>
      <trkpt lat="45.28314" lon="5.35099">
        <ele>631.3</ele>
        <time>2021-07-31T15:12:38.000Z</time>
      </trkpt>
      <trkpt lat="45.28309" lon="5.35087">
        <ele>632.3</ele>
        <time>2021-07-31T15:12:41.000Z</time>
      </trkpt>
      <trkpt lat="45.28304" lon="5.35073">
        <ele>633</ele>
        <time>2021-07-31T15:12:44.000Z</time>
      </trkpt>
      <trkpt lat="45.28299" lon="5.35062">
        <ele>633.8</ele>
        <time>2021-07-31T15:12:47.000Z</time>
      </trkpt>
      <trkpt lat="45.28293" lon="5.35051">
        <ele>634.6</ele>
        <time>2021-07-31T15:12:50.000Z</time>
      </trkpt>
      <trkpt lat="45.28288" lon="5.3504">
        <ele>635.4</ele>
        <time>2021-07-31T15:12:53.000Z</time>
      </trkpt>
      <trkpt lat="45.2828" lon="5.3503">
        <ele>636.5</ele>
        <time>2021-07-31T15:12:56.000Z</time>
      </trkpt>
      <trkpt lat="45.28271" lon="5.35023">
        <ele>637.6</ele>
        <time>2021-07-31T15:12:59.000Z</time>
      </trkpt>
      <trkpt lat="45.2826" lon="5.35017">
        <ele>639</ele>
        <time>2021-07-31T15:13:02.000Z</time>
      </trkpt>
      <trkpt lat="45.2825" lon="5.35012">
        <ele>640.3</ele>
        <time>2021-07-31T15:13:05.000Z</time>
      </trkpt>
      <trkpt lat="45.2824" lon="5.35008">
        <ele>640.9</ele>
        <time>2021-07-31T15:13:08.000Z</time>
      </trkpt>
      <trkpt lat="45.2823" lon="5.35003">
        <ele>641.7</ele>
        <time>2021-07-31T15:13:11.000Z</time>
      </trkpt>
      <trkpt lat="45.2822" lon="5.34999">
        <ele>642.6</ele>
        <time>2021-07-31T15:13:14.000Z</time>
      </trkpt>
      <trkpt lat="45.28211" lon="5.34994">
        <ele>643.8</ele>
        <time>2021-07-31T15:13:17.000Z</time>
      </trkpt>
      <trkpt lat="45.28201" lon="5.34988">
        <ele>645.4</ele>
        <time>2021-07-31T15:13:20.000Z</time>
      </trkpt>
      <trkpt lat="45.28191" lon="5.34983">
        <ele>646.7</ele>
        <time>2021-07-31T15:13:23.000Z</time>
      </trkpt>
      <trkpt lat="45.28182" lon="5.34976">
        <ele>648.8</ele>
        <time>2021-07-31T15:13:26.000Z</time>
      </trkpt>
      <trkpt lat="45.28173" lon="5.34968">
        <ele>651.1</ele>
        <time>2021-07-31T15:13:29.000Z</time>
      </trkpt>
      <trkpt lat="45.28164" lon="5.34959">
        <ele>653.4</ele>
        <time>2021-07-31T15:13:32.000Z</time>
      </trkpt>
      <trkpt lat="45.28156" lon="5.3495">
        <ele>654.5</ele>
        <time>2021-07-31T15:13:35.000Z</time>
      </trkpt>
      <trkpt lat="45.28147" lon="5.34942">
        <ele>656</ele>
        <time>2021-07-31T15:13:38.000Z</time>
      </trkpt>
      <trkpt lat="45.28139" lon="5.34933">
        <ele>657.6</ele>
        <time>2021-07-31T15:13:41.000Z</time>
      </trkpt>
      <trkpt lat="45.28129" lon="5.34926">
        <ele>658.6</ele>
        <time>2021-07-31T15:13:44.000Z</time>
      </trkpt>
      <trkpt lat="45.28119" lon="5.34919">
        <ele>659.7</ele>
        <time>2021-07-31T15:13:47.000Z</time>
      </trkpt>
      <trkpt lat="45.28109" lon="5.34914">
        <ele>660.1</ele>
        <time>2021-07-31T15:13:50.000Z</time>
      </trkpt>
      <trkpt lat="45.28099" lon="5.34909">
        <ele>660</ele>
        <time>2021-07-31T15:13:53.000Z</time>
      </trkpt>
      <trkpt lat="45.28091" lon="5.34902">
        <ele>660</ele>
        <time>2021-07-31T15:13:56.000Z</time>
      </trkpt>
      <trkpt lat="45.28084" lon="5.34892">
        <ele>660.2</ele>
        <time>2021-07-31T15:13:59.000Z</time>
      </trkpt>
      <trkpt lat="45.28083" lon="5.34879">
        <ele>660.7</ele>
        <time>2021-07-31T15:14:02.000Z</time>
      </trkpt>
      <trkpt lat="45.28086" lon="5.34865">
        <ele>661.6</ele>
        <time>2021-07-31T15:14:05.000Z</time>
      </trkpt>
      <trkpt lat="45.28091" lon="5.34853">
        <ele>662.2</ele>
        <time>2021-07-31T15:14:08.000Z</time>
      </trkpt>
      <trkpt lat="45.28096" lon="5.34841">
        <ele>662.8</ele>
        <time>2021-07-31T15:14:11.000Z</time>
      </trkpt>
      <trkpt lat="45.28101" lon="5.34828">
        <ele>663.1</ele>
        <time>2021-07-31T15:14:14.000Z</time>
      </trkpt>
      <trkpt lat="45.28107" lon="5.34817">
        <ele>663</ele>
        <time>2021-07-31T15:14:17.000Z</time>
      </trkpt>
      <trkpt lat="45.28114" lon="5.34806">
        <ele>663.1</ele>
        <time>2021-07-31T15:14:20.000Z</time>
      </trkpt>
      <trkpt lat="45.28121" lon="5.34797">
        <ele>663.4</ele>
        <time>2021-07-31T15:14:23.000Z</time>
      </trkpt>
      <trkpt lat="45.2813" lon="5.3479">
        <ele>663.7</ele>
        <time>2021-07-31T15:14:26.000Z</time>
      </trkpt>
      <trkpt lat="45.28138" lon="5.34781">
        <ele>664.3</ele>
        <time>2021-07-31T15:14:29.000Z</time>
      </trkpt>
      <trkpt lat="45.28146" lon="5.34771">
        <ele>664.9</ele>
        <time>2021-07-31T15:14:32.000Z</time>
      </trkpt>
      <trkpt lat="45.28151" lon="5.34759">
        <ele>665.5</ele>
        <time>2021-07-31T15:14:35.000Z</time>
      </trkpt>
      <trkpt lat="45.28153" lon="5.34745">
        <ele>666.3</ele>
        <time>2021-07-31T15:14:38.000Z</time>
      </trkpt>
      <trkpt lat="45.28152" lon="5.3473">
        <ele>667.3</ele>
        <time>2021-07-31T15:14:41.000Z</time>
      </trkpt>
      <trkpt lat="45.28149" lon="5.34716">
        <ele>668.2</ele>
        <time>2021-07-31T15:14:44.000Z</time>
      </trkpt>
      <trkpt lat="45.28147" lon="5.34701">
        <ele>669.3</ele>
        <time>2021-07-31T15:14:47.000Z</time>
      </trkpt>
      <trkpt lat="45.28146" lon="5.34687">
        <ele>670.2</ele>
        <time>2021-07-31T15:14:50.000Z</time>
      </trkpt>
      <trkpt lat="45.28146" lon="5.34673">
        <ele>671.4</ele>
        <time>2021-07-31T15:14:53.000Z</time>
      </trkpt>
      <trkpt lat="45.28148" lon="5.34659">
        <ele>672.1</ele>
        <time>2021-07-31T15:14:56.000Z</time>
      </trkpt>
      <trkpt lat="45.28153" lon="5.34646">
        <ele>672.7</ele>
        <time>2021-07-31T15:14:59.000Z</time>
      </trkpt>
      <trkpt lat="45.28158" lon="5.34634">
        <ele>673.7</ele>
        <time>2021-07-31T15:15:02.000Z</time>
      </trkpt>
      <trkpt lat="45.28164" lon="5.34621">
        <ele>674.7</ele>
        <time>2021-07-31T15:15:05.000Z</time>
      </trkpt>
      <trkpt lat="45.2817" lon="5.34608">
        <ele>675.1</ele>
        <time>2021-07-31T15:15:08.000Z</time>
      </trkpt>
      <trkpt lat="45.28174" lon="5.34596">
        <ele>675</ele>
        <time>2021-07-31T15:15:11.000Z</time>
      </trkpt>
      <trkpt lat="45.28178" lon="5.34583">
        <ele>675.1</ele>
        <time>2021-07-31T15:15:14.000Z</time>
      </trkpt>
      <trkpt lat="45.28182" lon="5.34569">
        <ele>675.5</ele>
        <time>2021-07-31T15:15:17.000Z</time>
      </trkpt>
      <trkpt lat="45.28184" lon="5.34554">
        <ele>676</ele>
        <time>2021-07-31T15:15:20.000Z</time>
      </trkpt>
      <trkpt lat="45.28187" lon="5.34541">
        <ele>676.6</ele>
        <time>2021-07-31T15:15:23.000Z</time>
      </trkpt>
      <trkpt lat="45.2819" lon="5.34526">
        <ele>677.3</ele>
        <time>2021-07-31T15:15:26.000Z</time>
      </trkpt>
      <trkpt lat="45.28193" lon="5.34512">
        <ele>678</ele>
        <time>2021-07-31T15:15:29.000Z</time>
      </trkpt>
      <trkpt lat="45.28194" lon="5.34498">
        <ele>678.9</ele>
        <time>2021-07-31T15:15:32.000Z</time>
      </trkpt>
      <trkpt lat="45.28195" lon="5.34482">
        <ele>680.4</ele>
        <time>2021-07-31T15:15:35.000Z</time>
      </trkpt>
      <trkpt lat="45.28197" lon="5.34467">
        <ele>682</ele>
        <time>2021-07-31T15:15:38.000Z</time>
      </trkpt>
      <trkpt lat="45.28201" lon="5.34451">
        <ele>683.8</ele>
        <time>2021-07-31T15:15:41.000Z</time>
      </trkpt>
      <trkpt lat="45.28205" lon="5.34435">
        <ele>685.6</ele>
        <time>2021-07-31T15:15:44.000Z</time>
      </trkpt>
      <trkpt lat="45.28208" lon="5.34418">
        <ele>687.8</ele>
        <time>2021-07-31T15:15:47.000Z</time>
      </trkpt>
      <trkpt lat="45.2821" lon="5.34402">
        <ele>688.5</ele>
        <time>2021-07-31T15:15:50.000Z</time>
      </trkpt>
      <trkpt lat="45.28213" lon="5.34385">
        <ele>689.1</ele>
        <time>2021-07-31T15:15:53.000Z</time>
      </trkpt>
      <trkpt lat="45.28217" lon="5.34369">
        <ele>690.2</ele>
        <time>2021-07-31T15:15:56.000Z</time>
      </trkpt>
      <trkpt lat="45.28225" lon="5.34354">
        <ele>691.7</ele>
        <time>2021-07-31T15:15:59.000Z</time>
      </trkpt>
      <trkpt lat="45.28232" lon="5.3434">
        <ele>693.6</ele>
        <time>2021-07-31T15:16:02.000Z</time>
      </trkpt>
      <trkpt lat="45.28241" lon="5.34327">
        <ele>694.7</ele>
        <time>2021-07-31T15:16:05.000Z</time>
      </trkpt>
      <trkpt lat="45.28249" lon="5.34313">
        <ele>694.6</ele>
        <time>2021-07-31T15:16:08.000Z</time>
      </trkpt>
      <trkpt lat="45.28257" lon="5.34299">
        <ele>692.4</ele>
        <time>2021-07-31T15:16:11.000Z</time>
      </trkpt>
      <trkpt lat="45.28262" lon="5.34284">
        <ele>690.4</ele>
        <time>2021-07-31T15:16:14.000Z</time>
      </trkpt>
      <trkpt lat="45.28267" lon="5.34269">
        <ele>688.7</ele>
        <time>2021-07-31T15:16:17.000Z</time>
      </trkpt>
      <trkpt lat="45.28272" lon="5.34255">
        <ele>687.3</ele>
        <time>2021-07-31T15:16:20.000Z</time>
      </trkpt>
      <trkpt lat="45.28277" lon="5.34241">
        <ele>686.2</ele>
        <time>2021-07-31T15:16:23.000Z</time>
      </trkpt>
      <trkpt lat="45.28283" lon="5.34226">
        <ele>685.1</ele>
        <time>2021-07-31T15:16:26.000Z</time>
      </trkpt>
      <trkpt lat="45.28289" lon="5.3421">
        <ele>684.1</ele>
        <time>2021-07-31T15:16:29.000Z</time>
      </trkpt>
      <trkpt lat="45.28294" lon="5.34194">
        <ele>683.3</ele>
        <time>2021-07-31T15:16:32.000Z</time>
      </trkpt>
      <trkpt lat="45.28299" lon="5.3418">
        <ele>682.6</ele>
        <time>2021-07-31T15:16:35.000Z</time>
      </trkpt>
      <trkpt lat="45.28304" lon="5.34164">
        <ele>681.7</ele>
        <time>2021-07-31T15:16:38.000Z</time>
      </trkpt>
      <trkpt lat="45.28309" lon="5.34149">
        <ele>680.2</ele>
        <time>2021-07-31T15:16:41.000Z</time>
      </trkpt>
      <trkpt lat="45.28313" lon="5.34134">
        <ele>678.7</ele>
        <time>2021-07-31T15:16:44.000Z</time>
      </trkpt>
      <trkpt lat="45.28318" lon="5.34119">
        <ele>677</ele>
        <time>2021-07-31T15:16:47.000Z</time>
      </trkpt>
      <trkpt lat="45.28321" lon="5.34103">
        <ele>675.3</ele>
        <time>2021-07-31T15:16:50.000Z</time>
      </trkpt>
      <trkpt lat="45.28324" lon="5.34088">
        <ele>673.6</ele>
        <time>2021-07-31T15:16:53.000Z</time>
      </trkpt>
      <trkpt lat="45.28326" lon="5.34071">
        <ele>672.1</ele>
        <time>2021-07-31T15:16:56.000Z</time>
      </trkpt>
      <trkpt lat="45.28326" lon="5.34054">
        <ele>670.7</ele>
        <time>2021-07-31T15:16:59.000Z</time>
      </trkpt>
      <trkpt lat="45.28327" lon="5.34037">
        <ele>669.4</ele>
        <time>2021-07-31T15:17:02.000Z</time>
      </trkpt>
      <trkpt lat="45.28328" lon="5.3402">
        <ele>667.9</ele>
        <time>2021-07-31T15:17:05.000Z</time>
      </trkpt>
      <trkpt lat="45.28328" lon="5.34002">
        <ele>666.4</ele>
        <time>2021-07-31T15:17:08.000Z</time>
      </trkpt>
      <trkpt lat="45.28328" lon="5.33984">
        <ele>666.4</ele>
        <time>2021-07-31T15:17:11.000Z</time>
      </trkpt>
      <trkpt lat="45.28327" lon="5.33967">
        <ele>666.5</ele>
        <time>2021-07-31T15:17:14.000Z</time>
      </trkpt>
      <trkpt lat="45.28325" lon="5.33952">
        <ele>666.7</ele>
        <time>2021-07-31T15:17:17.000Z</time>
      </trkpt>
      <trkpt lat="45.28323" lon="5.33938">
        <ele>666.9</ele>
        <time>2021-07-31T15:17:20.000Z</time>
      </trkpt>
      <trkpt lat="45.28321" lon="5.33922">
        <ele>667.2</ele>
        <time>2021-07-31T15:17:24.000Z</time>
      </trkpt>
      <trkpt lat="45.28319" lon="5.33906">
        <ele>668.2</ele>
        <time>2021-07-31T15:17:28.000Z</time>
      </trkpt>
      <trkpt lat="45.28316" lon="5.33891">
        <ele>669.4</ele>
        <time>2021-07-31T15:17:32.000Z</time>
      </trkpt>
      <trkpt lat="45.28313" lon="5.33876">
        <ele>670.6</ele>
        <time>2021-07-31T15:17:36.000Z</time>
      </trkpt>
      <trkpt lat="45.28311" lon="5.33859">
        <ele>671.7</ele>
        <time>2021-07-31T15:17:40.000Z</time>
      </trkpt>
      <trkpt lat="45.28308" lon="5.33844">
        <ele>672.9</ele>
        <time>2021-07-31T15:17:44.000Z</time>
      </trkpt>
      <trkpt lat="45.28305" lon="5.33829">
        <ele>674.1</ele>
        <time>2021-07-31T15:17:48.000Z</time>
      </trkpt>
      <trkpt lat="45.28302" lon="5.33814">
        <ele>675.5</ele>
        <time>2021-07-31T15:17:52.000Z</time>
      </trkpt>
      <trkpt lat="45.28299" lon="5.33798">
        <ele>676.8</ele>
        <time>2021-07-31T15:17:56.000Z</time>
      </trkpt>
      <trkpt lat="45.28295" lon="5.33782">
        <ele>678.4</ele>
        <time>2021-07-31T15:18:00.000Z</time>
      </trkpt>
      <trkpt lat="45.28293" lon="5.33767">
        <ele>679.8</ele>
        <time>2021-07-31T15:18:04.000Z</time>
      </trkpt>
      <trkpt lat="45.2829" lon="5.33751">
        <ele>681.1</ele>
        <time>2021-07-31T15:18:08.000Z</time>
      </trkpt>
      <trkpt lat="45.28288" lon="5.33736">
        <ele>682.5</ele>
        <time>2021-07-31T15:18:12.000Z</time>
      </trkpt>
      <trkpt lat="45.28285" lon="5.33721">
        <ele>683.9</ele>
        <time>2021-07-31T15:18:16.000Z</time>
      </trkpt>
      <trkpt lat="45.28283" lon="5.33706">
        <ele>685.3</ele>
        <time>2021-07-31T15:18:20.000Z</time>
      </trkpt>
      <trkpt lat="45.28282" lon="5.3369">
        <ele>686.7</ele>
        <time>2021-07-31T15:18:24.000Z</time>
      </trkpt>
      <trkpt lat="45.28284" lon="5.33675">
        <ele>687.7</ele>
        <time>2021-07-31T15:18:28.000Z</time>
      </trkpt>
      <trkpt lat="45.28288" lon="5.3366">
        <ele>688.3</ele>
        <time>2021-07-31T15:18:32.000Z</time>
      </trkpt>
      <trkpt lat="45.28292" lon="5.33646">
        <ele>689.3</ele>
        <time>2021-07-31T15:18:36.000Z</time>
      </trkpt>
      <trkpt lat="45.28295" lon="5.33634">
        <ele>690.2</ele>
        <time>2021-07-31T15:18:39.000Z</time>
      </trkpt>
      <trkpt lat="45.28299" lon="5.33619">
        <ele>691.6</ele>
        <time>2021-07-31T15:18:43.000Z</time>
      </trkpt>
      <trkpt lat="45.283" lon="5.33602">
        <ele>693.5</ele>
        <time>2021-07-31T15:18:47.000Z</time>
      </trkpt>
      <trkpt lat="45.28301" lon="5.33587">
        <ele>695.4</ele>
        <time>2021-07-31T15:18:51.000Z</time>
      </trkpt>
      <trkpt lat="45.283" lon="5.33571">
        <ele>697.9</ele>
        <time>2021-07-31T15:18:55.000Z</time>
      </trkpt>
      <trkpt lat="45.28297" lon="5.33555">
        <ele>700.5</ele>
        <time>2021-07-31T15:18:59.000Z</time>
      </trkpt>
      <trkpt lat="45.28292" lon="5.33542">
        <ele>702.7</ele>
        <time>2021-07-31T15:19:03.000Z</time>
      </trkpt>
      <trkpt lat="45.28285" lon="5.33531">
        <ele>704.7</ele>
        <time>2021-07-31T15:19:07.000Z</time>
      </trkpt>
      <trkpt lat="45.28276" lon="5.33522">
        <ele>706</ele>
        <time>2021-07-31T15:19:11.000Z</time>
      </trkpt>
      <trkpt lat="45.28268" lon="5.33514">
        <ele>707.4</ele>
        <time>2021-07-31T15:19:14.000Z</time>
      </trkpt>
      <trkpt lat="45.28261" lon="5.33506">
        <ele>708.4</ele>
        <time>2021-07-31T15:19:17.000Z</time>
      </trkpt>
      <trkpt lat="45.28252" lon="5.33496">
        <ele>709.9</ele>
        <time>2021-07-31T15:19:22.000Z</time>
      </trkpt>
      <trkpt lat="45.28243" lon="5.33487">
        <ele>711.1</ele>
        <time>2021-07-31T15:19:26.000Z</time>
      </trkpt>
      <trkpt lat="45.28234" lon="5.33477">
        <ele>712.7</ele>
        <time>2021-07-31T15:19:31.000Z</time>
      </trkpt>
      <trkpt lat="45.28226" lon="5.33468">
        <ele>714.1</ele>
        <time>2021-07-31T15:19:35.000Z</time>
      </trkpt>
      <trkpt lat="45.28219" lon="5.33459">
        <ele>715.6</ele>
        <time>2021-07-31T15:19:38.000Z</time>
      </trkpt>
      <trkpt lat="45.28212" lon="5.33451">
        <ele>716.8</ele>
        <time>2021-07-31T15:19:41.000Z</time>
      </trkpt>
      <trkpt lat="45.28202" lon="5.33444">
        <ele>717.7</ele>
        <time>2021-07-31T15:19:45.000Z</time>
      </trkpt>
      <trkpt lat="45.28193" lon="5.33441">
        <ele>718</ele>
        <time>2021-07-31T15:19:48.000Z</time>
      </trkpt>
      <trkpt lat="45.28182" lon="5.33435">
        <ele>718.9</ele>
        <time>2021-07-31T15:19:52.000Z</time>
      </trkpt>
      <trkpt lat="45.28173" lon="5.33425">
        <ele>720.7</ele>
        <time>2021-07-31T15:19:56.000Z</time>
      </trkpt>
      <trkpt lat="45.28166" lon="5.33416">
        <ele>722</ele>
        <time>2021-07-31T15:19:59.000Z</time>
      </trkpt>
      <trkpt lat="45.28158" lon="5.33408">
        <ele>721.7</ele>
        <time>2021-07-31T15:20:02.000Z</time>
      </trkpt>
      <trkpt lat="45.28148" lon="5.33396">
        <ele>721.8</ele>
        <time>2021-07-31T15:20:06.000Z</time>
      </trkpt>
      <trkpt lat="45.28141" lon="5.3339">
        <ele>721.8</ele>
        <time>2021-07-31T15:20:09.000Z</time>
      </trkpt>
      <trkpt lat="45.28132" lon="5.33381">
        <ele>722.1</ele>
        <time>2021-07-31T15:20:13.000Z</time>
      </trkpt>
      <trkpt lat="45.28121" lon="5.33376">
        <ele>721.9</ele>
        <time>2021-07-31T15:20:17.000Z</time>
      </trkpt>
      <trkpt lat="45.28111" lon="5.33373">
        <ele>721.9</ele>
        <time>2021-07-31T15:20:20.000Z</time>
      </trkpt>
      <trkpt lat="45.28101" lon="5.33368">
        <ele>722.1</ele>
        <time>2021-07-31T15:20:24.000Z</time>
      </trkpt>
      <trkpt lat="45.28092" lon="5.33361">
        <ele>722.7</ele>
        <time>2021-07-31T15:20:28.000Z</time>
      </trkpt>
      <trkpt lat="45.28083" lon="5.33356">
        <ele>723.2</ele>
        <time>2021-07-31T15:20:31.000Z</time>
      </trkpt>
      <trkpt lat="45.28074" lon="5.33353">
        <ele>722.5</ele>
        <time>2021-07-31T15:20:34.000Z</time>
      </trkpt>
      <trkpt lat="45.28065" lon="5.33349">
        <ele>722.1</ele>
        <time>2021-07-31T15:20:37.000Z</time>
      </trkpt>
      <trkpt lat="45.28053" lon="5.33343">
        <ele>722</ele>
        <time>2021-07-31T15:20:41.000Z</time>
      </trkpt>
      <trkpt lat="45.28045" lon="5.33339">
        <ele>721.8</ele>
        <time>2021-07-31T15:20:44.000Z</time>
      </trkpt>
      <trkpt lat="45.28034" lon="5.33332">
        <ele>721.7</ele>
        <time>2021-07-31T15:20:48.000Z</time>
      </trkpt>
      <trkpt lat="45.28024" lon="5.33325">
        <ele>720.5</ele>
        <time>2021-07-31T15:20:52.000Z</time>
      </trkpt>
      <trkpt lat="45.28016" lon="5.33317">
        <ele>719.6</ele>
        <time>2021-07-31T15:20:55.000Z</time>
      </trkpt>
      <trkpt lat="45.28008" lon="5.33304">
        <ele>718.8</ele>
        <time>2021-07-31T15:20:59.000Z</time>
      </trkpt>
      <trkpt lat="45.28003" lon="5.33292">
        <ele>718.3</ele>
        <time>2021-07-31T15:21:02.000Z</time>
      </trkpt>
      <trkpt lat="45.27999" lon="5.33278">
        <ele>718</ele>
        <time>2021-07-31T15:21:05.000Z</time>
      </trkpt>
      <trkpt lat="45.27996" lon="5.33263">
        <ele>717.9</ele>
        <time>2021-07-31T15:21:08.000Z</time>
      </trkpt>
      <trkpt lat="45.27993" lon="5.33249">
        <ele>717.9</ele>
        <time>2021-07-31T15:21:11.000Z</time>
      </trkpt>
      <trkpt lat="45.27988" lon="5.33233">
        <ele>717</ele>
        <time>2021-07-31T15:21:15.000Z</time>
      </trkpt>
      <trkpt lat="45.27984" lon="5.33218">
        <ele>716.4</ele>
        <time>2021-07-31T15:21:18.000Z</time>
      </trkpt>
      <trkpt lat="45.2798" lon="5.33203">
        <ele>715.7</ele>
        <time>2021-07-31T15:21:21.000Z</time>
      </trkpt>
      <trkpt lat="45.27975" lon="5.33191">
        <ele>715.3</ele>
        <time>2021-07-31T15:21:24.000Z</time>
      </trkpt>
      <trkpt lat="45.27969" lon="5.33178">
        <ele>714.8</ele>
        <time>2021-07-31T15:21:27.000Z</time>
      </trkpt>
      <trkpt lat="45.27966" lon="5.33165">
        <ele>714.4</ele>
        <time>2021-07-31T15:21:29.000Z</time>
      </trkpt>
      <trkpt lat="45.27961" lon="5.3315">
        <ele>713.8</ele>
        <time>2021-07-31T15:21:32.000Z</time>
      </trkpt>
      <trkpt lat="45.27955" lon="5.33136">
        <ele>713.5</ele>
        <time>2021-07-31T15:21:34.000Z</time>
      </trkpt>
      <trkpt lat="45.27951" lon="5.33122">
        <ele>713.1</ele>
        <time>2021-07-31T15:21:36.000Z</time>
      </trkpt>
      <trkpt lat="45.27946" lon="5.33111">
        <ele>713</ele>
        <time>2021-07-31T15:21:38.000Z</time>
      </trkpt>
      <trkpt lat="45.27941" lon="5.33094">
        <ele>712.8</ele>
        <time>2021-07-31T15:21:41.000Z</time>
      </trkpt>
      <trkpt lat="45.27938" lon="5.33078">
        <ele>713</ele>
        <time>2021-07-31T15:21:44.000Z</time>
      </trkpt>
      <trkpt lat="45.27937" lon="5.33061">
        <ele>713.6</ele>
        <time>2021-07-31T15:21:48.000Z</time>
      </trkpt>
      <trkpt lat="45.27934" lon="5.33048">
        <ele>714.3</ele>
        <time>2021-07-31T15:21:51.000Z</time>
      </trkpt>
      <trkpt lat="45.27929" lon="5.33031">
        <ele>715.4</ele>
        <time>2021-07-31T15:21:54.000Z</time>
      </trkpt>
      <trkpt lat="45.27925" lon="5.33019">
        <ele>716.3</ele>
        <time>2021-07-31T15:21:56.000Z</time>
      </trkpt>
      <trkpt lat="45.27921" lon="5.33006">
        <ele>717.3</ele>
        <time>2021-07-31T15:21:58.000Z</time>
      </trkpt>
      <trkpt lat="45.27916" lon="5.32992">
        <ele>717.5</ele>
        <time>2021-07-31T15:22:01.000Z</time>
      </trkpt>
      <trkpt lat="45.27912" lon="5.32978">
        <ele>716.8</ele>
        <time>2021-07-31T15:22:04.000Z</time>
      </trkpt>
      <trkpt lat="45.27906" lon="5.32962">
        <ele>716</ele>
        <time>2021-07-31T15:22:07.000Z</time>
      </trkpt>
      <trkpt lat="45.27902" lon="5.32946">
        <ele>715.1</ele>
        <time>2021-07-31T15:22:09.000Z</time>
      </trkpt>
      <trkpt lat="45.27899" lon="5.3293">
        <ele>714.3</ele>
        <time>2021-07-31T15:22:11.000Z</time>
      </trkpt>
      <trkpt lat="45.27896" lon="5.32916">
        <ele>713.7</ele>
        <time>2021-07-31T15:22:13.000Z</time>
      </trkpt>
      <trkpt lat="45.27891" lon="5.32899">
        <ele>713.1</ele>
        <time>2021-07-31T15:22:16.000Z</time>
      </trkpt>
      <trkpt lat="45.27886" lon="5.32881">
        <ele>712.3</ele>
        <time>2021-07-31T15:22:19.000Z</time>
      </trkpt>
      <trkpt lat="45.27882" lon="5.32869">
        <ele>711.9</ele>
        <time>2021-07-31T15:22:21.000Z</time>
      </trkpt>
      <trkpt lat="45.27875" lon="5.3285">
        <ele>711.3</ele>
        <time>2021-07-31T15:22:24.000Z</time>
      </trkpt>
      <trkpt lat="45.27871" lon="5.32834">
        <ele>710.7</ele>
        <time>2021-07-31T15:22:26.000Z</time>
      </trkpt>
      <trkpt lat="45.27866" lon="5.32819">
        <ele>710.8</ele>
        <time>2021-07-31T15:22:28.000Z</time>
      </trkpt>
      <trkpt lat="45.27863" lon="5.32803">
        <ele>711</ele>
        <time>2021-07-31T15:22:30.000Z</time>
      </trkpt>
      <trkpt lat="45.27858" lon="5.32789">
        <ele>711.1</ele>
        <time>2021-07-31T15:22:32.000Z</time>
      </trkpt>
      <trkpt lat="45.27857" lon="5.32772">
        <ele>711</ele>
        <time>2021-07-31T15:22:34.000Z</time>
      </trkpt>
      <trkpt lat="45.27858" lon="5.32756">
        <ele>711</ele>
        <time>2021-07-31T15:22:37.000Z</time>
      </trkpt>
      <trkpt lat="45.2786" lon="5.32741">
        <ele>711</ele>
        <time>2021-07-31T15:22:40.000Z</time>
      </trkpt>
      <trkpt lat="45.27856" lon="5.32722">
        <ele>711</ele>
        <time>2021-07-31T15:22:43.000Z</time>
      </trkpt>
      <trkpt lat="45.27855" lon="5.32707">
        <ele>711</ele>
        <time>2021-07-31T15:22:45.000Z</time>
      </trkpt>
      <trkpt lat="45.27857" lon="5.32689">
        <ele>711</ele>
        <time>2021-07-31T15:22:47.000Z</time>
      </trkpt>
      <trkpt lat="45.27859" lon="5.32673">
        <ele>711</ele>
        <time>2021-07-31T15:22:49.000Z</time>
      </trkpt>
      <trkpt lat="45.27862" lon="5.32658">
        <ele>710.6</ele>
        <time>2021-07-31T15:22:51.000Z</time>
      </trkpt>
      <trkpt lat="45.27863" lon="5.32642">
        <ele>709.9</ele>
        <time>2021-07-31T15:22:53.000Z</time>
      </trkpt>
      <trkpt lat="45.27864" lon="5.32629">
        <ele>709.4</ele>
        <time>2021-07-31T15:22:55.000Z</time>
      </trkpt>
      <trkpt lat="45.27867" lon="5.32626">
        <ele>709.3</ele>
        <time>2021-07-31T15:23:03.000Z</time>
      </trkpt>
      <trkpt lat="45.27867" lon="5.32625">
        <ele>709.3</ele>
        <time>2021-07-31T15:23:04.000Z</time>
      </trkpt>
      <trkpt lat="45.27866" lon="5.32626">
        <ele>709.3</ele>
        <time>2021-07-31T15:23:08.000Z</time>
      </trkpt>
      <trkpt lat="45.27867" lon="5.32625">
        <ele>709.3</ele>
        <time>2021-07-31T15:23:10.000Z</time>
      </trkpt>
      <trkpt lat="45.27869" lon="5.32609">
        <ele>708.7</ele>
        <time>2021-07-31T15:23:15.000Z</time>
      </trkpt>
      <trkpt lat="45.27871" lon="5.32591">
        <ele>708.1</ele>
        <time>2021-07-31T15:23:18.000Z</time>
      </trkpt>
      <trkpt lat="45.27872" lon="5.32578">
        <ele>707.7</ele>
        <time>2021-07-31T15:23:21.000Z</time>
      </trkpt>
      <trkpt lat="45.27876" lon="5.32563">
        <ele>707.6</ele>
        <time>2021-07-31T15:23:27.000Z</time>
      </trkpt>
      <trkpt lat="45.27878" lon="5.32548">
        <ele>707.3</ele>
        <time>2021-07-31T15:23:30.000Z</time>
      </trkpt>
      <trkpt lat="45.2788" lon="5.32531">
        <ele>707</ele>
        <time>2021-07-31T15:23:33.000Z</time>
      </trkpt>
      <trkpt lat="45.27881" lon="5.32512">
        <ele>706.5</ele>
        <time>2021-07-31T15:23:36.000Z</time>
      </trkpt>
      <trkpt lat="45.27882" lon="5.32497">
        <ele>706.2</ele>
        <time>2021-07-31T15:23:38.000Z</time>
      </trkpt>
      <trkpt lat="45.27885" lon="5.32479">
        <ele>705.5</ele>
        <time>2021-07-31T15:23:40.000Z</time>
      </trkpt>
      <trkpt lat="45.27889" lon="5.32465">
        <ele>705</ele>
        <time>2021-07-31T15:23:42.000Z</time>
      </trkpt>
      <trkpt lat="45.27895" lon="5.3245">
        <ele>704.5</ele>
        <time>2021-07-31T15:23:44.000Z</time>
      </trkpt>
      <trkpt lat="45.27898" lon="5.32434">
        <ele>703.7</ele>
        <time>2021-07-31T15:23:46.000Z</time>
      </trkpt>
      <trkpt lat="45.27897" lon="5.32419">
        <ele>702.9</ele>
        <time>2021-07-31T15:23:48.000Z</time>
      </trkpt>
      <trkpt lat="45.27893" lon="5.32406">
        <ele>702.4</ele>
        <time>2021-07-31T15:23:50.000Z</time>
      </trkpt>
      <trkpt lat="45.27886" lon="5.32393">
        <ele>701.8</ele>
        <time>2021-07-31T15:23:52.000Z</time>
      </trkpt>
      <trkpt lat="45.27875" lon="5.32377">
        <ele>701</ele>
        <time>2021-07-31T15:23:54.000Z</time>
      </trkpt>
      <trkpt lat="45.27867" lon="5.32366">
        <ele>700.5</ele>
        <time>2021-07-31T15:23:56.000Z</time>
      </trkpt>
      <trkpt lat="45.27857" lon="5.32358">
        <ele>699.8</ele>
        <time>2021-07-31T15:23:59.000Z</time>
      </trkpt>
      <trkpt lat="45.27848" lon="5.32351">
        <ele>699.3</ele>
        <time>2021-07-31T15:24:02.000Z</time>
      </trkpt>
      <trkpt lat="45.27838" lon="5.32346">
        <ele>698.7</ele>
        <time>2021-07-31T15:24:05.000Z</time>
      </trkpt>
      <trkpt lat="45.2783" lon="5.32341">
        <ele>698.3</ele>
        <time>2021-07-31T15:24:07.000Z</time>
      </trkpt>
      <trkpt lat="45.2782" lon="5.32332">
        <ele>698.1</ele>
        <time>2021-07-31T15:24:09.000Z</time>
      </trkpt>
      <trkpt lat="45.27814" lon="5.32318">
        <ele>697.8</ele>
        <time>2021-07-31T15:24:11.000Z</time>
      </trkpt>
      <trkpt lat="45.27809" lon="5.32304">
        <ele>697.5</ele>
        <time>2021-07-31T15:24:13.000Z</time>
      </trkpt>
      <trkpt lat="45.27804" lon="5.32293">
        <ele>697.2</ele>
        <time>2021-07-31T15:24:15.000Z</time>
      </trkpt>
      <trkpt lat="45.278" lon="5.3228">
        <ele>696.9</ele>
        <time>2021-07-31T15:24:17.000Z</time>
      </trkpt>
      <trkpt lat="45.27796" lon="5.32263">
        <ele>696.4</ele>
        <time>2021-07-31T15:24:19.000Z</time>
      </trkpt>
      <trkpt lat="45.27795" lon="5.32245">
        <ele>695.9</ele>
        <time>2021-07-31T15:24:21.000Z</time>
      </trkpt>
      <trkpt lat="45.27794" lon="5.3223">
        <ele>695.5</ele>
        <time>2021-07-31T15:24:23.000Z</time>
      </trkpt>
      <trkpt lat="45.27792" lon="5.3221">
        <ele>695</ele>
        <time>2021-07-31T15:24:25.000Z</time>
      </trkpt>
      <trkpt lat="45.27793" lon="5.32196">
        <ele>694.7</ele>
        <time>2021-07-31T15:24:27.000Z</time>
      </trkpt>
      <trkpt lat="45.27792" lon="5.32175">
        <ele>694.2</ele>
        <time>2021-07-31T15:24:29.000Z</time>
      </trkpt>
      <trkpt lat="45.27785" lon="5.32165">
        <ele>693.8</ele>
        <time>2021-07-31T15:24:31.000Z</time>
      </trkpt>
      <trkpt lat="45.27778" lon="5.32149">
        <ele>693.5</ele>
        <time>2021-07-31T15:24:33.000Z</time>
      </trkpt>
      <trkpt lat="45.27771" lon="5.32128">
        <ele>693</ele>
        <time>2021-07-31T15:24:36.000Z</time>
      </trkpt>
      <trkpt lat="45.27766" lon="5.32107">
        <ele>692.7</ele>
        <time>2021-07-31T15:24:38.000Z</time>
      </trkpt>
      <trkpt lat="45.27763" lon="5.3209">
        <ele>692.4</ele>
        <time>2021-07-31T15:24:40.000Z</time>
      </trkpt>
      <trkpt lat="45.27768" lon="5.32074">
        <ele>692.4</ele>
        <time>2021-07-31T15:24:42.000Z</time>
      </trkpt>
      <trkpt lat="45.27776" lon="5.32056">
        <ele>692.4</ele>
        <time>2021-07-31T15:24:44.000Z</time>
      </trkpt>
      <trkpt lat="45.27782" lon="5.32038">
        <ele>692.3</ele>
        <time>2021-07-31T15:24:46.000Z</time>
      </trkpt>
      <trkpt lat="45.27785" lon="5.32023">
        <ele>692.2</ele>
        <time>2021-07-31T15:24:48.000Z</time>
      </trkpt>
      <trkpt lat="45.27785" lon="5.32009">
        <ele>692.1</ele>
        <time>2021-07-31T15:24:52.000Z</time>
      </trkpt>
      <trkpt lat="45.2779" lon="5.31995">
        <ele>692</ele>
        <time>2021-07-31T15:24:55.000Z</time>
      </trkpt>
      <trkpt lat="45.27796" lon="5.31982">
        <ele>691.9</ele>
        <time>2021-07-31T15:24:59.000Z</time>
      </trkpt>
      <trkpt lat="45.27799" lon="5.31969">
        <ele>691.8</ele>
        <time>2021-07-31T15:25:07.000Z</time>
      </trkpt>
      <trkpt lat="45.27801" lon="5.31955">
        <ele>691.8</ele>
        <time>2021-07-31T15:25:15.000Z</time>
      </trkpt>
      <trkpt lat="45.27801" lon="5.31941">
        <ele>691.7</ele>
        <time>2021-07-31T15:25:21.000Z</time>
      </trkpt>
      <trkpt lat="45.27806" lon="5.31929">
        <ele>691.7</ele>
        <time>2021-07-31T15:25:27.000Z</time>
      </trkpt>
      <trkpt lat="45.27807" lon="5.31916">
        <ele>691.7</ele>
        <time>2021-07-31T15:25:36.000Z</time>
      </trkpt>
      <trkpt lat="45.2781" lon="5.31903">
        <ele>691.5</ele>
        <time>2021-07-31T15:25:47.000Z</time>
      </trkpt>
      <trkpt lat="45.27812" lon="5.3189">
        <ele>691.4</ele>
        <time>2021-07-31T15:25:56.000Z</time>
      </trkpt>
      <trkpt lat="45.27814" lon="5.31874">
        <ele>691.3</ele>
        <time>2021-07-31T15:26:00.000Z</time>
      </trkpt>
      <trkpt lat="45.27816" lon="5.31858">
        <ele>691.1</ele>
        <time>2021-07-31T15:26:03.000Z</time>
      </trkpt>
      <trkpt lat="45.27818" lon="5.31842">
        <ele>690.9</ele>
        <time>2021-07-31T15:26:06.000Z</time>
      </trkpt>
      <trkpt lat="45.27821" lon="5.31825">
        <ele>690.4</ele>
        <time>2021-07-31T15:26:09.000Z</time>
      </trkpt>
      <trkpt lat="45.27821" lon="5.31811">
        <ele>689.6</ele>
        <time>2021-07-31T15:26:11.000Z</time>
      </trkpt>
      <trkpt lat="45.2782" lon="5.31798">
        <ele>688.7</ele>
        <time>2021-07-31T15:26:13.000Z</time>
      </trkpt>
      <trkpt lat="45.2782" lon="5.31784">
        <ele>688</ele>
        <time>2021-07-31T15:26:15.000Z</time>
      </trkpt>
      <trkpt lat="45.27818" lon="5.31762">
        <ele>686.7</ele>
        <time>2021-07-31T15:26:18.000Z</time>
      </trkpt>
      <trkpt lat="45.27817" lon="5.31745">
        <ele>685.8</ele>
        <time>2021-07-31T15:26:20.000Z</time>
      </trkpt>
      <trkpt lat="45.27821" lon="5.31725">
        <ele>685.2</ele>
        <time>2021-07-31T15:26:22.000Z</time>
      </trkpt>
      <trkpt lat="45.27825" lon="5.31709">
        <ele>684.6</ele>
        <time>2021-07-31T15:26:24.000Z</time>
      </trkpt>
      <trkpt lat="45.27829" lon="5.31692">
        <ele>684</ele>
        <time>2021-07-31T15:26:26.000Z</time>
      </trkpt>
      <trkpt lat="45.27831" lon="5.31673">
        <ele>683.3</ele>
        <time>2021-07-31T15:26:29.000Z</time>
      </trkpt>
      <trkpt lat="45.27835" lon="5.3166">
        <ele>682.9</ele>
        <time>2021-07-31T15:26:31.000Z</time>
      </trkpt>
      <trkpt lat="45.27841" lon="5.3165">
        <ele>682.8</ele>
        <time>2021-07-31T15:26:33.000Z</time>
      </trkpt>
      <trkpt lat="45.27844" lon="5.31637">
        <ele>682.5</ele>
        <time>2021-07-31T15:26:35.000Z</time>
      </trkpt>
      <trkpt lat="45.27851" lon="5.31622">
        <ele>682.3</ele>
        <time>2021-07-31T15:26:37.000Z</time>
      </trkpt>
      <trkpt lat="45.27858" lon="5.31604">
        <ele>682.1</ele>
        <time>2021-07-31T15:26:39.000Z</time>
      </trkpt>
      <trkpt lat="45.27863" lon="5.31587">
        <ele>681.8</ele>
        <time>2021-07-31T15:26:41.000Z</time>
      </trkpt>
      <trkpt lat="45.27869" lon="5.31571">
        <ele>681.7</ele>
        <time>2021-07-31T15:26:43.000Z</time>
      </trkpt>
      <trkpt lat="45.27871" lon="5.31554">
        <ele>681.4</ele>
        <time>2021-07-31T15:26:45.000Z</time>
      </trkpt>
      <trkpt lat="45.2787" lon="5.31537">
        <ele>681.1</ele>
        <time>2021-07-31T15:26:47.000Z</time>
      </trkpt>
      <trkpt lat="45.27871" lon="5.31519">
        <ele>680.8</ele>
        <time>2021-07-31T15:26:49.000Z</time>
      </trkpt>
      <trkpt lat="45.27868" lon="5.31501">
        <ele>680.6</ele>
        <time>2021-07-31T15:26:51.000Z</time>
      </trkpt>
      <trkpt lat="45.27864" lon="5.31483">
        <ele>679.9</ele>
        <time>2021-07-31T15:26:53.000Z</time>
      </trkpt>
      <trkpt lat="45.2786" lon="5.31464">
        <ele>679.2</ele>
        <time>2021-07-31T15:26:55.000Z</time>
      </trkpt>
      <trkpt lat="45.27859" lon="5.31442">
        <ele>678.4</ele>
        <time>2021-07-31T15:26:57.000Z</time>
      </trkpt>
      <trkpt lat="45.27859" lon="5.31422">
        <ele>677.6</ele>
        <time>2021-07-31T15:26:59.000Z</time>
      </trkpt>
      <trkpt lat="45.27858" lon="5.31406">
        <ele>677.2</ele>
        <time>2021-07-31T15:27:01.000Z</time>
      </trkpt>
      <trkpt lat="45.27857" lon="5.31388">
        <ele>677</ele>
        <time>2021-07-31T15:27:03.000Z</time>
      </trkpt>
      <trkpt lat="45.27856" lon="5.31369">
        <ele>676.7</ele>
        <time>2021-07-31T15:27:05.000Z</time>
      </trkpt>
      <trkpt lat="45.27853" lon="5.31349">
        <ele>676.5</ele>
        <time>2021-07-31T15:27:07.000Z</time>
      </trkpt>
      <trkpt lat="45.27848" lon="5.3133">
        <ele>676.5</ele>
        <time>2021-07-31T15:27:09.000Z</time>
      </trkpt>
      <trkpt lat="45.27839" lon="5.31313">
        <ele>677</ele>
        <time>2021-07-31T15:27:11.000Z</time>
      </trkpt>
      <trkpt lat="45.27829" lon="5.31296">
        <ele>677.4</ele>
        <time>2021-07-31T15:27:13.000Z</time>
      </trkpt>
      <trkpt lat="45.27817" lon="5.31279">
        <ele>677.5</ele>
        <time>2021-07-31T15:27:15.000Z</time>
      </trkpt>
      <trkpt lat="45.2781" lon="5.31269">
        <ele>677.4</ele>
        <time>2021-07-31T15:27:16.000Z</time>
      </trkpt>
      <trkpt lat="45.27802" lon="5.31254">
        <ele>677.2</ele>
        <time>2021-07-31T15:27:18.000Z</time>
      </trkpt>
      <trkpt lat="45.27797" lon="5.31236">
        <ele>677</ele>
        <time>2021-07-31T15:27:20.000Z</time>
      </trkpt>
      <trkpt lat="45.27798" lon="5.31218">
        <ele>676.8</ele>
        <time>2021-07-31T15:27:22.000Z</time>
      </trkpt>
      <trkpt lat="45.278" lon="5.31202">
        <ele>676.7</ele>
        <time>2021-07-31T15:27:24.000Z</time>
      </trkpt>
      <trkpt lat="45.27802" lon="5.31186">
        <ele>676.7</ele>
        <time>2021-07-31T15:27:26.000Z</time>
      </trkpt>
      <trkpt lat="45.27804" lon="5.31172">
        <ele>676.6</ele>
        <time>2021-07-31T15:27:28.000Z</time>
      </trkpt>
      <trkpt lat="45.27807" lon="5.31155">
        <ele>676.7</ele>
        <time>2021-07-31T15:27:30.000Z</time>
      </trkpt>
      <trkpt lat="45.27809" lon="5.3114">
        <ele>676.8</ele>
        <time>2021-07-31T15:27:32.000Z</time>
      </trkpt>
      <trkpt lat="45.27811" lon="5.31124">
        <ele>676.8</ele>
        <time>2021-07-31T15:27:34.000Z</time>
      </trkpt>
      <trkpt lat="45.27808" lon="5.31104">
        <ele>676.7</ele>
        <time>2021-07-31T15:27:36.000Z</time>
      </trkpt>
      <trkpt lat="45.27807" lon="5.31086">
        <ele>676.7</ele>
        <time>2021-07-31T15:27:38.000Z</time>
      </trkpt>
      <trkpt lat="45.27803" lon="5.31064">
        <ele>675.7</ele>
        <time>2021-07-31T15:27:40.000Z</time>
      </trkpt>
      <trkpt lat="45.27796" lon="5.31046">
        <ele>674.9</ele>
        <time>2021-07-31T15:27:42.000Z</time>
      </trkpt>
      <trkpt lat="45.27791" lon="5.31029">
        <ele>674.2</ele>
        <time>2021-07-31T15:27:44.000Z</time>
      </trkpt>
      <trkpt lat="45.27786" lon="5.31014">
        <ele>673.7</ele>
        <time>2021-07-31T15:27:46.000Z</time>
      </trkpt>
      <trkpt lat="45.2778" lon="5.30999">
        <ele>673.2</ele>
        <time>2021-07-31T15:27:48.000Z</time>
      </trkpt>
      <trkpt lat="45.27775" lon="5.30981">
        <ele>672.8</ele>
        <time>2021-07-31T15:27:50.000Z</time>
      </trkpt>
      <trkpt lat="45.27772" lon="5.30961">
        <ele>672.2</ele>
        <time>2021-07-31T15:27:52.000Z</time>
      </trkpt>
      <trkpt lat="45.27768" lon="5.30942">
        <ele>671.6</ele>
        <time>2021-07-31T15:27:54.000Z</time>
      </trkpt>
      <trkpt lat="45.27769" lon="5.30923">
        <ele>671</ele>
        <time>2021-07-31T15:27:56.000Z</time>
      </trkpt>
      <trkpt lat="45.27771" lon="5.30908">
        <ele>670.5</ele>
        <time>2021-07-31T15:27:58.000Z</time>
      </trkpt>
      <trkpt lat="45.27772" lon="5.3089">
        <ele>669.9</ele>
        <time>2021-07-31T15:28:00.000Z</time>
      </trkpt>
      <trkpt lat="45.27771" lon="5.30867">
        <ele>669.2</ele>
        <time>2021-07-31T15:28:02.000Z</time>
      </trkpt>
      <trkpt lat="45.27776" lon="5.30846">
        <ele>668.6</ele>
        <time>2021-07-31T15:28:04.000Z</time>
      </trkpt>
      <trkpt lat="45.27781" lon="5.30826">
        <ele>668.2</ele>
        <time>2021-07-31T15:28:06.000Z</time>
      </trkpt>
      <trkpt lat="45.27781" lon="5.30804">
        <ele>667.7</ele>
        <time>2021-07-31T15:28:08.000Z</time>
      </trkpt>
      <trkpt lat="45.2778" lon="5.30781">
        <ele>667.1</ele>
        <time>2021-07-31T15:28:10.000Z</time>
      </trkpt>
      <trkpt lat="45.27778" lon="5.30758">
        <ele>666.5</ele>
        <time>2021-07-31T15:28:12.000Z</time>
      </trkpt>
      <trkpt lat="45.27779" lon="5.30739">
        <ele>666.5</ele>
        <time>2021-07-31T15:28:14.000Z</time>
      </trkpt>
      <trkpt lat="45.27782" lon="5.30719">
        <ele>666.8</ele>
        <time>2021-07-31T15:28:16.000Z</time>
      </trkpt>
      <trkpt lat="45.27781" lon="5.30697">
        <ele>667</ele>
        <time>2021-07-31T15:28:18.000Z</time>
      </trkpt>
      <trkpt lat="45.27784" lon="5.30674">
        <ele>667.3</ele>
        <time>2021-07-31T15:28:20.000Z</time>
      </trkpt>
      <trkpt lat="45.27786" lon="5.30655">
        <ele>666.9</ele>
        <time>2021-07-31T15:28:22.000Z</time>
      </trkpt>
      <trkpt lat="45.27789" lon="5.30633">
        <ele>665.9</ele>
        <time>2021-07-31T15:28:24.000Z</time>
      </trkpt>
      <trkpt lat="45.27789" lon="5.30613">
        <ele>664.9</ele>
        <time>2021-07-31T15:28:26.000Z</time>
      </trkpt>
      <trkpt lat="45.27789" lon="5.30591">
        <ele>663.9</ele>
        <time>2021-07-31T15:28:28.000Z</time>
      </trkpt>
      <trkpt lat="45.27789" lon="5.30568">
        <ele>663.5</ele>
        <time>2021-07-31T15:28:30.000Z</time>
      </trkpt>
      <trkpt lat="45.27791" lon="5.30548">
        <ele>663.3</ele>
        <time>2021-07-31T15:28:32.000Z</time>
      </trkpt>
      <trkpt lat="45.27798" lon="5.30529">
        <ele>662.9</ele>
        <time>2021-07-31T15:28:34.000Z</time>
      </trkpt>
      <trkpt lat="45.27809" lon="5.30513">
        <ele>662.3</ele>
        <time>2021-07-31T15:28:36.000Z</time>
      </trkpt>
      <trkpt lat="45.27823" lon="5.30498">
        <ele>661.5</ele>
        <time>2021-07-31T15:28:38.000Z</time>
      </trkpt>
      <trkpt lat="45.27837" lon="5.30489">
        <ele>661</ele>
        <time>2021-07-31T15:28:40.000Z</time>
      </trkpt>
      <trkpt lat="45.27849" lon="5.30478">
        <ele>660.5</ele>
        <time>2021-07-31T15:28:42.000Z</time>
      </trkpt>
      <trkpt lat="45.2786" lon="5.30469">
        <ele>660</ele>
        <time>2021-07-31T15:28:44.000Z</time>
      </trkpt>
      <trkpt lat="45.27873" lon="5.30459">
        <ele>659.4</ele>
        <time>2021-07-31T15:28:46.000Z</time>
      </trkpt>
      <trkpt lat="45.27886" lon="5.30449">
        <ele>658.7</ele>
        <time>2021-07-31T15:28:48.000Z</time>
      </trkpt>
      <trkpt lat="45.27897" lon="5.30438">
        <ele>658.1</ele>
        <time>2021-07-31T15:28:50.000Z</time>
      </trkpt>
      <trkpt lat="45.27911" lon="5.30424">
        <ele>657.3</ele>
        <time>2021-07-31T15:28:52.000Z</time>
      </trkpt>
      <trkpt lat="45.27923" lon="5.30408">
        <ele>656.2</ele>
        <time>2021-07-31T15:28:54.000Z</time>
      </trkpt>
      <trkpt lat="45.2793" lon="5.30394">
        <ele>655.1</ele>
        <time>2021-07-31T15:28:56.000Z</time>
      </trkpt>
      <trkpt lat="45.2794" lon="5.30375">
        <ele>653.6</ele>
        <time>2021-07-31T15:28:58.000Z</time>
      </trkpt>
      <trkpt lat="45.27943" lon="5.30362">
        <ele>652.9</ele>
        <time>2021-07-31T15:28:59.000Z</time>
      </trkpt>
      <trkpt lat="45.27948" lon="5.30342">
        <ele>651.8</ele>
        <time>2021-07-31T15:29:01.000Z</time>
      </trkpt>
      <trkpt lat="45.27953" lon="5.30321">
        <ele>650.4</ele>
        <time>2021-07-31T15:29:03.000Z</time>
      </trkpt>
      <trkpt lat="45.27956" lon="5.30304">
        <ele>649.2</ele>
        <time>2021-07-31T15:29:05.000Z</time>
      </trkpt>
      <trkpt lat="45.27959" lon="5.30286">
        <ele>648.1</ele>
        <time>2021-07-31T15:29:07.000Z</time>
      </trkpt>
      <trkpt lat="45.27965" lon="5.30267">
        <ele>647</ele>
        <time>2021-07-31T15:29:09.000Z</time>
      </trkpt>
      <trkpt lat="45.27975" lon="5.30252">
        <ele>646</ele>
        <time>2021-07-31T15:29:11.000Z</time>
      </trkpt>
      <trkpt lat="45.27984" lon="5.30239">
        <ele>643.9</ele>
        <time>2021-07-31T15:29:13.000Z</time>
      </trkpt>
      <trkpt lat="45.27991" lon="5.30228">
        <ele>642.2</ele>
        <time>2021-07-31T15:29:15.000Z</time>
      </trkpt>
      <trkpt lat="45.27999" lon="5.30219">
        <ele>640.6</ele>
        <time>2021-07-31T15:29:17.000Z</time>
      </trkpt>
      <trkpt lat="45.28002" lon="5.30204">
        <ele>638.3</ele>
        <time>2021-07-31T15:29:19.000Z</time>
      </trkpt>
      <trkpt lat="45.28004" lon="5.30191">
        <ele>636.1</ele>
        <time>2021-07-31T15:29:21.000Z</time>
      </trkpt>
      <trkpt lat="45.28009" lon="5.30179">
        <ele>634.1</ele>
        <time>2021-07-31T15:29:23.000Z</time>
      </trkpt>
      <trkpt lat="45.28014" lon="5.30166">
        <ele>632</ele>
        <time>2021-07-31T15:29:25.000Z</time>
      </trkpt>
      <trkpt lat="45.28021" lon="5.30152">
        <ele>630.3</ele>
        <time>2021-07-31T15:29:27.000Z</time>
      </trkpt>
      <trkpt lat="45.2803" lon="5.30135">
        <ele>628</ele>
        <time>2021-07-31T15:29:29.000Z</time>
      </trkpt>
      <trkpt lat="45.28039" lon="5.30118">
        <ele>626</ele>
        <time>2021-07-31T15:29:31.000Z</time>
      </trkpt>
      <trkpt lat="45.28046" lon="5.30102">
        <ele>624.1</ele>
        <time>2021-07-31T15:29:33.000Z</time>
      </trkpt>
      <trkpt lat="45.2805" lon="5.3009">
        <ele>622.8</ele>
        <time>2021-07-31T15:29:35.000Z</time>
      </trkpt>
      <trkpt lat="45.28054" lon="5.30073">
        <ele>621.2</ele>
        <time>2021-07-31T15:29:38.000Z</time>
      </trkpt>
      <trkpt lat="45.28053" lon="5.30058">
        <ele>619.9</ele>
        <time>2021-07-31T15:29:43.000Z</time>
      </trkpt>
      <trkpt lat="45.2806" lon="5.30048">
        <ele>618.8</ele>
        <time>2021-07-31T15:29:46.000Z</time>
      </trkpt>
      <trkpt lat="45.28065" lon="5.30036">
        <ele>617.8</ele>
        <time>2021-07-31T15:29:50.000Z</time>
      </trkpt>
      <trkpt lat="45.2807" lon="5.30021">
        <ele>616.6</ele>
        <time>2021-07-31T15:29:54.000Z</time>
      </trkpt>
      <trkpt lat="45.28077" lon="5.30009">
        <ele>615.7</ele>
        <time>2021-07-31T15:29:59.000Z</time>
      </trkpt>
      <trkpt lat="45.28085" lon="5.29994">
        <ele>614.3</ele>
        <time>2021-07-31T15:30:03.000Z</time>
      </trkpt>
      <trkpt lat="45.28091" lon="5.29984">
        <ele>613.3</ele>
        <time>2021-07-31T15:30:05.000Z</time>
      </trkpt>
      <trkpt lat="45.28099" lon="5.29975">
        <ele>612.4</ele>
        <time>2021-07-31T15:30:08.000Z</time>
      </trkpt>
      <trkpt lat="45.28102" lon="5.29961">
        <ele>611.2</ele>
        <time>2021-07-31T15:30:12.000Z</time>
      </trkpt>
      <trkpt lat="45.28107" lon="5.29946">
        <ele>609.9</ele>
        <time>2021-07-31T15:30:15.000Z</time>
      </trkpt>
      <trkpt lat="45.28113" lon="5.29934">
        <ele>609</ele>
        <time>2021-07-31T15:30:17.000Z</time>
      </trkpt>
      <trkpt lat="45.28121" lon="5.29921">
        <ele>608.2</ele>
        <time>2021-07-31T15:30:19.000Z</time>
      </trkpt>
      <trkpt lat="45.28128" lon="5.29913">
        <ele>608</ele>
        <time>2021-07-31T15:30:21.000Z</time>
      </trkpt>
      <trkpt lat="45.2814" lon="5.29906">
        <ele>608.1</ele>
        <time>2021-07-31T15:30:24.000Z</time>
      </trkpt>
      <trkpt lat="45.28151" lon="5.29901">
        <ele>608.2</ele>
        <time>2021-07-31T15:30:26.000Z</time>
      </trkpt>
      <trkpt lat="45.2816" lon="5.29892">
        <ele>608</ele>
        <time>2021-07-31T15:30:28.000Z</time>
      </trkpt>
      <trkpt lat="45.2817" lon="5.29886">
        <ele>608.1</ele>
        <time>2021-07-31T15:30:30.000Z</time>
      </trkpt>
      <trkpt lat="45.2818" lon="5.29881">
        <ele>608.5</ele>
        <time>2021-07-31T15:30:32.000Z</time>
      </trkpt>
      <trkpt lat="45.28192" lon="5.29873">
        <ele>609</ele>
        <time>2021-07-31T15:30:35.000Z</time>
      </trkpt>
      <trkpt lat="45.28203" lon="5.29867">
        <ele>609.5</ele>
        <time>2021-07-31T15:30:37.000Z</time>
      </trkpt>
      <trkpt lat="45.28216" lon="5.29861">
        <ele>610.4</ele>
        <time>2021-07-31T15:30:40.000Z</time>
      </trkpt>
      <trkpt lat="45.28224" lon="5.29855">
        <ele>610.9</ele>
        <time>2021-07-31T15:30:42.000Z</time>
      </trkpt>
      <trkpt lat="45.28238" lon="5.29849">
        <ele>611.9</ele>
        <time>2021-07-31T15:30:45.000Z</time>
      </trkpt>
      <trkpt lat="45.28248" lon="5.29843">
        <ele>612.7</ele>
        <time>2021-07-31T15:30:47.000Z</time>
      </trkpt>
      <trkpt lat="45.28259" lon="5.29834">
        <ele>614.1</ele>
        <time>2021-07-31T15:30:50.000Z</time>
      </trkpt>
      <trkpt lat="45.2827" lon="5.29823">
        <ele>615.6</ele>
        <time>2021-07-31T15:30:53.000Z</time>
      </trkpt>
      <trkpt lat="45.28275" lon="5.2981">
        <ele>616.4</ele>
        <time>2021-07-31T15:30:55.000Z</time>
      </trkpt>
      <trkpt lat="45.28279" lon="5.29797">
        <ele>617.1</ele>
        <time>2021-07-31T15:30:57.000Z</time>
      </trkpt>
      <trkpt lat="45.28284" lon="5.29781">
        <ele>618.1</ele>
        <time>2021-07-31T15:31:00.000Z</time>
      </trkpt>
      <trkpt lat="45.28288" lon="5.29765">
        <ele>619.1</ele>
        <time>2021-07-31T15:31:03.000Z</time>
      </trkpt>
      <trkpt lat="45.28289" lon="5.29748">
        <ele>619.6</ele>
        <time>2021-07-31T15:31:06.000Z</time>
      </trkpt>
      <trkpt lat="45.28294" lon="5.29731">
        <ele>621</ele>
        <time>2021-07-31T15:31:10.000Z</time>
      </trkpt>
      <trkpt lat="45.28298" lon="5.29717">
        <ele>622.1</ele>
        <time>2021-07-31T15:31:15.000Z</time>
      </trkpt>
      <trkpt lat="45.28302" lon="5.29704">
        <ele>623.3</ele>
        <time>2021-07-31T15:31:18.000Z</time>
      </trkpt>
      <trkpt lat="45.28305" lon="5.2969">
        <ele>624.4</ele>
        <time>2021-07-31T15:31:21.000Z</time>
      </trkpt>
      <trkpt lat="45.28307" lon="5.29676">
        <ele>625.2</ele>
        <time>2021-07-31T15:31:24.000Z</time>
      </trkpt>
      <trkpt lat="45.28309" lon="5.29663">
        <ele>625.9</ele>
        <time>2021-07-31T15:31:27.000Z</time>
      </trkpt>
      <trkpt lat="45.28312" lon="5.2965">
        <ele>626.7</ele>
        <time>2021-07-31T15:31:30.000Z</time>
      </trkpt>
      <trkpt lat="45.28313" lon="5.29635">
        <ele>626.7</ele>
        <time>2021-07-31T15:31:33.000Z</time>
      </trkpt>
      <trkpt lat="45.28315" lon="5.29621">
        <ele>627.2</ele>
        <time>2021-07-31T15:31:37.000Z</time>
      </trkpt>
      <trkpt lat="45.28317" lon="5.29605">
        <ele>627.6</ele>
        <time>2021-07-31T15:31:41.000Z</time>
      </trkpt>
      <trkpt lat="45.28319" lon="5.2959">
        <ele>627.8</ele>
        <time>2021-07-31T15:31:45.000Z</time>
      </trkpt>
      <trkpt lat="45.28322" lon="5.29575">
        <ele>628.7</ele>
        <time>2021-07-31T15:31:49.000Z</time>
      </trkpt>
      <trkpt lat="45.28324" lon="5.2956">
        <ele>629.4</ele>
        <time>2021-07-31T15:31:53.000Z</time>
      </trkpt>
      <trkpt lat="45.28325" lon="5.29547">
        <ele>629.9</ele>
        <time>2021-07-31T15:31:56.000Z</time>
      </trkpt>
      <trkpt lat="45.2833" lon="5.29534">
        <ele>631</ele>
        <time>2021-07-31T15:32:00.000Z</time>
      </trkpt>
      <trkpt lat="45.2833" lon="5.2952">
        <ele>631.1</ele>
        <time>2021-07-31T15:32:03.000Z</time>
      </trkpt>
      <trkpt lat="45.2833" lon="5.29505">
        <ele>631.4</ele>
        <time>2021-07-31T15:32:06.000Z</time>
      </trkpt>
      <trkpt lat="45.28331" lon="5.29489">
        <ele>631.8</ele>
        <time>2021-07-31T15:32:10.000Z</time>
      </trkpt>
      <trkpt lat="45.28333" lon="5.29476">
        <ele>632.5</ele>
        <time>2021-07-31T15:32:14.000Z</time>
      </trkpt>
      <trkpt lat="45.28335" lon="5.29461">
        <ele>633.2</ele>
        <time>2021-07-31T15:32:17.000Z</time>
      </trkpt>
      <trkpt lat="45.28335" lon="5.29447">
        <ele>633.6</ele>
        <time>2021-07-31T15:32:21.000Z</time>
      </trkpt>
      <trkpt lat="45.28339" lon="5.29433">
        <ele>634.4</ele>
        <time>2021-07-31T15:32:24.000Z</time>
      </trkpt>
      <trkpt lat="45.28338" lon="5.29417">
        <ele>634.7</ele>
        <time>2021-07-31T15:32:28.000Z</time>
      </trkpt>
      <trkpt lat="45.2834" lon="5.29402">
        <ele>635.5</ele>
        <time>2021-07-31T15:32:32.000Z</time>
      </trkpt>
      <trkpt lat="45.28341" lon="5.29385">
        <ele>636.2</ele>
        <time>2021-07-31T15:32:36.000Z</time>
      </trkpt>
      <trkpt lat="45.28344" lon="5.29373">
        <ele>636.9</ele>
        <time>2021-07-31T15:32:40.000Z</time>
      </trkpt>
      <trkpt lat="45.28346" lon="5.2936">
        <ele>637.5</ele>
        <time>2021-07-31T15:32:44.000Z</time>
      </trkpt>
      <trkpt lat="45.28348" lon="5.29346">
        <ele>638.2</ele>
        <time>2021-07-31T15:32:48.000Z</time>
      </trkpt>
      <trkpt lat="45.28351" lon="5.29331">
        <ele>638.9</ele>
        <time>2021-07-31T15:32:52.000Z</time>
      </trkpt>
      <trkpt lat="45.28352" lon="5.29315">
        <ele>639.4</ele>
        <time>2021-07-31T15:32:56.000Z</time>
      </trkpt>
      <trkpt lat="45.28356" lon="5.29301">
        <ele>640</ele>
        <time>2021-07-31T15:33:00.000Z</time>
      </trkpt>
      <trkpt lat="45.28357" lon="5.29287">
        <ele>640.4</ele>
        <time>2021-07-31T15:33:04.000Z</time>
      </trkpt>
      <trkpt lat="45.28359" lon="5.29272">
        <ele>640.8</ele>
        <time>2021-07-31T15:33:08.000Z</time>
      </trkpt>
      <trkpt lat="45.2836" lon="5.29255">
        <ele>641.2</ele>
        <time>2021-07-31T15:33:12.000Z</time>
      </trkpt>
      <trkpt lat="45.28363" lon="5.29242">
        <ele>641.8</ele>
        <time>2021-07-31T15:33:15.000Z</time>
      </trkpt>
      <trkpt lat="45.28364" lon="5.29229">
        <ele>642.1</ele>
        <time>2021-07-31T15:33:18.000Z</time>
      </trkpt>
      <trkpt lat="45.28369" lon="5.29218">
        <ele>642.6</ele>
        <time>2021-07-31T15:33:21.000Z</time>
      </trkpt>
      <trkpt lat="45.2837" lon="5.29203">
        <ele>643.1</ele>
        <time>2021-07-31T15:33:25.000Z</time>
      </trkpt>
      <trkpt lat="45.28371" lon="5.29187">
        <ele>643.4</ele>
        <time>2021-07-31T15:33:29.000Z</time>
      </trkpt>
      <trkpt lat="45.28369" lon="5.29174">
        <ele>643.6</ele>
        <time>2021-07-31T15:33:33.000Z</time>
      </trkpt>
      <trkpt lat="45.28372" lon="5.29159">
        <ele>643.9</ele>
        <time>2021-07-31T15:33:36.000Z</time>
      </trkpt>
      <trkpt lat="45.28371" lon="5.29145">
        <ele>644</ele>
        <time>2021-07-31T15:33:39.000Z</time>
      </trkpt>
      <trkpt lat="45.28369" lon="5.29132">
        <ele>644</ele>
        <time>2021-07-31T15:33:43.000Z</time>
      </trkpt>
      <trkpt lat="45.28363" lon="5.29115">
        <ele>644</ele>
        <time>2021-07-31T15:33:48.000Z</time>
      </trkpt>
      <trkpt lat="45.28356" lon="5.29105">
        <ele>644</ele>
        <time>2021-07-31T15:33:52.000Z</time>
      </trkpt>
      <trkpt lat="45.28351" lon="5.29093">
        <ele>644.1</ele>
        <time>2021-07-31T15:33:56.000Z</time>
      </trkpt>
      <trkpt lat="45.28345" lon="5.29083">
        <ele>644.1</ele>
        <time>2021-07-31T15:33:59.000Z</time>
      </trkpt>
      <trkpt lat="45.28336" lon="5.29073">
        <ele>644.3</ele>
        <time>2021-07-31T15:34:03.000Z</time>
      </trkpt>
      <trkpt lat="45.28328" lon="5.29065">
        <ele>643.5</ele>
        <time>2021-07-31T15:34:06.000Z</time>
      </trkpt>
      <trkpt lat="45.2832" lon="5.29055">
        <ele>642.5</ele>
        <time>2021-07-31T15:34:09.000Z</time>
      </trkpt>
      <trkpt lat="45.28314" lon="5.2904">
        <ele>642.1</ele>
        <time>2021-07-31T15:34:13.000Z</time>
      </trkpt>
      <trkpt lat="45.28312" lon="5.29027">
        <ele>642.4</ele>
        <time>2021-07-31T15:34:16.000Z</time>
      </trkpt>
      <trkpt lat="45.2831" lon="5.29011">
        <ele>642.8</ele>
        <time>2021-07-31T15:34:20.000Z</time>
      </trkpt>
      <trkpt lat="45.28304" lon="5.28996">
        <ele>642.5</ele>
        <time>2021-07-31T15:34:24.000Z</time>
      </trkpt>
      <trkpt lat="45.28301" lon="5.28984">
        <ele>642.3</ele>
        <time>2021-07-31T15:34:27.000Z</time>
      </trkpt>
      <trkpt lat="45.28298" lon="5.2897">
        <ele>642.1</ele>
        <time>2021-07-31T15:34:31.000Z</time>
      </trkpt>
      <trkpt lat="45.28295" lon="5.28956">
        <ele>642.1</ele>
        <time>2021-07-31T15:34:35.000Z</time>
      </trkpt>
      <trkpt lat="45.28295" lon="5.28943">
        <ele>642.2</ele>
        <time>2021-07-31T15:34:38.000Z</time>
      </trkpt>
      <trkpt lat="45.28293" lon="5.2893">
        <ele>642.3</ele>
        <time>2021-07-31T15:34:42.000Z</time>
      </trkpt>
      <trkpt lat="45.28289" lon="5.28917">
        <ele>642.4</ele>
        <time>2021-07-31T15:34:45.000Z</time>
      </trkpt>
      <trkpt lat="45.28288" lon="5.28901">
        <ele>642.4</ele>
        <time>2021-07-31T15:34:49.000Z</time>
      </trkpt>
      <trkpt lat="45.28289" lon="5.28885">
        <ele>642.4</ele>
        <time>2021-07-31T15:34:53.000Z</time>
      </trkpt>
      <trkpt lat="45.28291" lon="5.28869">
        <ele>642.5</ele>
        <time>2021-07-31T15:34:57.000Z</time>
      </trkpt>
      <trkpt lat="45.28294" lon="5.28857">
        <ele>642.6</ele>
        <time>2021-07-31T15:35:00.000Z</time>
      </trkpt>
      <trkpt lat="45.283" lon="5.28843">
        <ele>642.8</ele>
        <time>2021-07-31T15:35:04.000Z</time>
      </trkpt>
      <trkpt lat="45.28307" lon="5.28829">
        <ele>643.1</ele>
        <time>2021-07-31T15:35:08.000Z</time>
      </trkpt>
      <trkpt lat="45.28311" lon="5.28814">
        <ele>643.4</ele>
        <time>2021-07-31T15:35:12.000Z</time>
      </trkpt>
      <trkpt lat="45.28319" lon="5.28802">
        <ele>643.8</ele>
        <time>2021-07-31T15:35:16.000Z</time>
      </trkpt>
      <trkpt lat="45.28326" lon="5.28789">
        <ele>644.3</ele>
        <time>2021-07-31T15:35:20.000Z</time>
      </trkpt>
      <trkpt lat="45.28331" lon="5.28777">
        <ele>644.6</ele>
        <time>2021-07-31T15:35:23.000Z</time>
      </trkpt>
      <trkpt lat="45.28338" lon="5.28765">
        <ele>644.8</ele>
        <time>2021-07-31T15:35:27.000Z</time>
      </trkpt>
      <trkpt lat="45.28345" lon="5.28755">
        <ele>644.8</ele>
        <time>2021-07-31T15:35:30.000Z</time>
      </trkpt>
      <trkpt lat="45.2835" lon="5.28744">
        <ele>644.8</ele>
        <time>2021-07-31T15:35:32.000Z</time>
      </trkpt>
      <trkpt lat="45.28357" lon="5.28731">
        <ele>644.8</ele>
        <time>2021-07-31T15:35:35.000Z</time>
      </trkpt>
      <trkpt lat="45.28365" lon="5.28716">
        <ele>644.9</ele>
        <time>2021-07-31T15:35:38.000Z</time>
      </trkpt>
      <trkpt lat="45.28371" lon="5.28703">
        <ele>645.1</ele>
        <time>2021-07-31T15:35:41.000Z</time>
      </trkpt>
      <trkpt lat="45.28378" lon="5.28689">
        <ele>645.2</ele>
        <time>2021-07-31T15:35:44.000Z</time>
      </trkpt>
      <trkpt lat="45.28386" lon="5.28675">
        <ele>645.5</ele>
        <time>2021-07-31T15:35:47.000Z</time>
      </trkpt>
      <trkpt lat="45.28397" lon="5.28663">
        <ele>645.6</ele>
        <time>2021-07-31T15:35:50.000Z</time>
      </trkpt>
      <trkpt lat="45.28405" lon="5.28655">
        <ele>645.6</ele>
        <time>2021-07-31T15:35:52.000Z</time>
      </trkpt>
      <trkpt lat="45.28415" lon="5.28648">
        <ele>645.5</ele>
        <time>2021-07-31T15:35:54.000Z</time>
      </trkpt>
      <trkpt lat="45.28423" lon="5.28639">
        <ele>645.2</ele>
        <time>2021-07-31T15:35:56.000Z</time>
      </trkpt>
      <trkpt lat="45.28432" lon="5.28629">
        <ele>644.8</ele>
        <time>2021-07-31T15:35:58.000Z</time>
      </trkpt>
      <trkpt lat="45.2844" lon="5.2862">
        <ele>644.5</ele>
        <time>2021-07-31T15:36:00.000Z</time>
      </trkpt>
      <trkpt lat="45.28449" lon="5.28612">
        <ele>644.2</ele>
        <time>2021-07-31T15:36:02.000Z</time>
      </trkpt>
      <trkpt lat="45.28458" lon="5.28603">
        <ele>643.9</ele>
        <time>2021-07-31T15:36:04.000Z</time>
      </trkpt>
      <trkpt lat="45.28467" lon="5.28593">
        <ele>643.6</ele>
        <time>2021-07-31T15:36:06.000Z</time>
      </trkpt>
      <trkpt lat="45.28477" lon="5.28584">
        <ele>643.3</ele>
        <time>2021-07-31T15:36:08.000Z</time>
      </trkpt>
      <trkpt lat="45.28487" lon="5.28574">
        <ele>642.9</ele>
        <time>2021-07-31T15:36:10.000Z</time>
      </trkpt>
      <trkpt lat="45.28496" lon="5.28565">
        <ele>642.6</ele>
        <time>2021-07-31T15:36:12.000Z</time>
      </trkpt>
      <trkpt lat="45.28507" lon="5.28557">
        <ele>642.1</ele>
        <time>2021-07-31T15:36:14.000Z</time>
      </trkpt>
      <trkpt lat="45.2852" lon="5.28552">
        <ele>641.5</ele>
        <time>2021-07-31T15:36:16.000Z</time>
      </trkpt>
      <trkpt lat="45.28532" lon="5.28547">
        <ele>640.8</ele>
        <time>2021-07-31T15:36:18.000Z</time>
      </trkpt>
      <trkpt lat="45.28544" lon="5.28547">
        <ele>640.3</ele>
        <time>2021-07-31T15:36:20.000Z</time>
      </trkpt>
      <trkpt lat="45.28558" lon="5.28548">
        <ele>639.7</ele>
        <time>2021-07-31T15:36:22.000Z</time>
      </trkpt>
      <trkpt lat="45.28572" lon="5.2855">
        <ele>639.2</ele>
        <time>2021-07-31T15:36:24.000Z</time>
      </trkpt>
      <trkpt lat="45.28587" lon="5.28553">
        <ele>638.7</ele>
        <time>2021-07-31T15:36:26.000Z</time>
      </trkpt>
      <trkpt lat="45.28601" lon="5.28555">
        <ele>638</ele>
        <time>2021-07-31T15:36:28.000Z</time>
      </trkpt>
      <trkpt lat="45.2861" lon="5.28556">
        <ele>637.5</ele>
        <time>2021-07-31T15:36:29.000Z</time>
      </trkpt>
      <trkpt lat="45.28624" lon="5.28559">
        <ele>636.8</ele>
        <time>2021-07-31T15:36:31.000Z</time>
      </trkpt>
      <trkpt lat="45.28637" lon="5.28563">
        <ele>636.2</ele>
        <time>2021-07-31T15:36:33.000Z</time>
      </trkpt>
      <trkpt lat="45.28654" lon="5.28565">
        <ele>635.3</ele>
        <time>2021-07-31T15:36:35.000Z</time>
      </trkpt>
      <trkpt lat="45.2867" lon="5.28568">
        <ele>634.5</ele>
        <time>2021-07-31T15:36:37.000Z</time>
      </trkpt>
      <trkpt lat="45.28687" lon="5.28569">
        <ele>633.7</ele>
        <time>2021-07-31T15:36:39.000Z</time>
      </trkpt>
      <trkpt lat="45.28703" lon="5.28572">
        <ele>633</ele>
        <time>2021-07-31T15:36:41.000Z</time>
      </trkpt>
      <trkpt lat="45.28717" lon="5.28575">
        <ele>632.4</ele>
        <time>2021-07-31T15:36:43.000Z</time>
      </trkpt>
      <trkpt lat="45.28731" lon="5.28573">
        <ele>631.7</ele>
        <time>2021-07-31T15:36:45.000Z</time>
      </trkpt>
      <trkpt lat="45.28744" lon="5.28561">
        <ele>631</ele>
        <time>2021-07-31T15:36:47.000Z</time>
      </trkpt>
      <trkpt lat="45.28755" lon="5.28549">
        <ele>630.8</ele>
        <time>2021-07-31T15:36:49.000Z</time>
      </trkpt>
      <trkpt lat="45.28765" lon="5.28538">
        <ele>631.2</ele>
        <time>2021-07-31T15:36:51.000Z</time>
      </trkpt>
      <trkpt lat="45.28772" lon="5.28531">
        <ele>631.5</ele>
        <time>2021-07-31T15:36:53.000Z</time>
      </trkpt>
      <trkpt lat="45.28772" lon="5.28516">
        <ele>631.4</ele>
        <time>2021-07-31T15:36:56.000Z</time>
      </trkpt>
      <trkpt lat="45.28772" lon="5.285">
        <ele>631.3</ele>
        <time>2021-07-31T15:36:58.000Z</time>
      </trkpt>
      <trkpt lat="45.28773" lon="5.28486">
        <ele>631.2</ele>
        <time>2021-07-31T15:37:00.000Z</time>
      </trkpt>
      <trkpt lat="45.28777" lon="5.28471">
        <ele>631.3</ele>
        <time>2021-07-31T15:37:02.000Z</time>
      </trkpt>
      <trkpt lat="45.28777" lon="5.28457">
        <ele>631.1</ele>
        <time>2021-07-31T15:37:04.000Z</time>
      </trkpt>
      <trkpt lat="45.28774" lon="5.28443">
        <ele>630.8</ele>
        <time>2021-07-31T15:37:06.000Z</time>
      </trkpt>
      <trkpt lat="45.28767" lon="5.28427">
        <ele>630.1</ele>
        <time>2021-07-31T15:37:09.000Z</time>
      </trkpt>
      <trkpt lat="45.28761" lon="5.28416">
        <ele>629.6</ele>
        <time>2021-07-31T15:37:12.000Z</time>
      </trkpt>
      <trkpt lat="45.28758" lon="5.28402">
        <ele>629.1</ele>
        <time>2021-07-31T15:37:16.000Z</time>
      </trkpt>
      <trkpt lat="45.28754" lon="5.28386">
        <ele>628.5</ele>
        <time>2021-07-31T15:37:20.000Z</time>
      </trkpt>
      <trkpt lat="45.2875" lon="5.28371">
        <ele>627.9</ele>
        <time>2021-07-31T15:37:23.000Z</time>
      </trkpt>
      <trkpt lat="45.28747" lon="5.28357">
        <ele>627.7</ele>
        <time>2021-07-31T15:37:27.000Z</time>
      </trkpt>
      <trkpt lat="45.28742" lon="5.28341">
        <ele>627.5</ele>
        <time>2021-07-31T15:37:30.000Z</time>
      </trkpt>
      <trkpt lat="45.28741" lon="5.28328">
        <ele>627.4</ele>
        <time>2021-07-31T15:37:32.000Z</time>
      </trkpt>
      <trkpt lat="45.28737" lon="5.28307">
        <ele>627.2</ele>
        <time>2021-07-31T15:37:34.000Z</time>
      </trkpt>
      <trkpt lat="45.28733" lon="5.2829">
        <ele>627</ele>
        <time>2021-07-31T15:37:36.000Z</time>
      </trkpt>
      <trkpt lat="45.28725" lon="5.28271">
        <ele>626.8</ele>
        <time>2021-07-31T15:37:38.000Z</time>
      </trkpt>
      <trkpt lat="45.28722" lon="5.28254">
        <ele>626.4</ele>
        <time>2021-07-31T15:37:40.000Z</time>
      </trkpt>
      <trkpt lat="45.28717" lon="5.28239">
        <ele>626.2</ele>
        <time>2021-07-31T15:37:42.000Z</time>
      </trkpt>
      <trkpt lat="45.28714" lon="5.28217">
        <ele>625.8</ele>
        <time>2021-07-31T15:37:44.000Z</time>
      </trkpt>
      <trkpt lat="45.28711" lon="5.28199">
        <ele>625.4</ele>
        <time>2021-07-31T15:37:46.000Z</time>
      </trkpt>
      <trkpt lat="45.28708" lon="5.28183">
        <ele>624.9</ele>
        <time>2021-07-31T15:37:48.000Z</time>
      </trkpt>
      <trkpt lat="45.28706" lon="5.28168">
        <ele>624.4</ele>
        <time>2021-07-31T15:37:50.000Z</time>
      </trkpt>
      <trkpt lat="45.28704" lon="5.28154">
        <ele>623.8</ele>
        <time>2021-07-31T15:37:52.000Z</time>
      </trkpt>
      <trkpt lat="45.287" lon="5.28138">
        <ele>622.8</ele>
        <time>2021-07-31T15:37:55.000Z</time>
      </trkpt>
      <trkpt lat="45.28696" lon="5.28124">
        <ele>622.1</ele>
        <time>2021-07-31T15:37:58.000Z</time>
      </trkpt>
      <trkpt lat="45.28692" lon="5.28108">
        <ele>621.1</ele>
        <time>2021-07-31T15:38:02.000Z</time>
      </trkpt>
      <trkpt lat="45.28689" lon="5.28095">
        <ele>620.3</ele>
        <time>2021-07-31T15:38:05.000Z</time>
      </trkpt>
      <trkpt lat="45.28686" lon="5.2808">
        <ele>619.5</ele>
        <time>2021-07-31T15:38:08.000Z</time>
      </trkpt>
      <trkpt lat="45.28682" lon="5.28063">
        <ele>618.8</ele>
        <time>2021-07-31T15:38:11.000Z</time>
      </trkpt>
      <trkpt lat="45.28678" lon="5.28048">
        <ele>618.3</ele>
        <time>2021-07-31T15:38:14.000Z</time>
      </trkpt>
      <trkpt lat="45.28675" lon="5.28032">
        <ele>617.8</ele>
        <time>2021-07-31T15:38:17.000Z</time>
      </trkpt>
      <trkpt lat="45.28672" lon="5.28013">
        <ele>617.4</ele>
        <time>2021-07-31T15:38:20.000Z</time>
      </trkpt>
      <trkpt lat="45.28671" lon="5.28">
        <ele>617.1</ele>
        <time>2021-07-31T15:38:23.000Z</time>
      </trkpt>
      <trkpt lat="45.28666" lon="5.27986">
        <ele>616.7</ele>
        <time>2021-07-31T15:38:25.000Z</time>
      </trkpt>
      <trkpt lat="45.28662" lon="5.27972">
        <ele>617.1</ele>
        <time>2021-07-31T15:38:27.000Z</time>
      </trkpt>
      <trkpt lat="45.28657" lon="5.27958">
        <ele>617.5</ele>
        <time>2021-07-31T15:38:29.000Z</time>
      </trkpt>
      <trkpt lat="45.28652" lon="5.27942">
        <ele>617.8</ele>
        <time>2021-07-31T15:38:32.000Z</time>
      </trkpt>
      <trkpt lat="45.28647" lon="5.27926">
        <ele>618.4</ele>
        <time>2021-07-31T15:38:35.000Z</time>
      </trkpt>
      <trkpt lat="45.28637" lon="5.27911">
        <ele>619.3</ele>
        <time>2021-07-31T15:38:38.000Z</time>
      </trkpt>
      <trkpt lat="45.28627" lon="5.27901">
        <ele>620.2</ele>
        <time>2021-07-31T15:38:41.000Z</time>
      </trkpt>
      <trkpt lat="45.28619" lon="5.27888">
        <ele>620.8</ele>
        <time>2021-07-31T15:38:44.000Z</time>
      </trkpt>
      <trkpt lat="45.28611" lon="5.27874">
        <ele>621.1</ele>
        <time>2021-07-31T15:38:47.000Z</time>
      </trkpt>
      <trkpt lat="45.28603" lon="5.2786">
        <ele>621.4</ele>
        <time>2021-07-31T15:38:49.000Z</time>
      </trkpt>
      <trkpt lat="45.28598" lon="5.27845">
        <ele>620.9</ele>
        <time>2021-07-31T15:38:51.000Z</time>
      </trkpt>
      <trkpt lat="45.28596" lon="5.27832">
        <ele>620.2</ele>
        <time>2021-07-31T15:38:53.000Z</time>
      </trkpt>
      <trkpt lat="45.28592" lon="5.27815">
        <ele>619.2</ele>
        <time>2021-07-31T15:38:56.000Z</time>
      </trkpt>
      <trkpt lat="45.28588" lon="5.27802">
        <ele>618.6</ele>
        <time>2021-07-31T15:38:58.000Z</time>
      </trkpt>
      <trkpt lat="45.28581" lon="5.27788">
        <ele>618</ele>
        <time>2021-07-31T15:39:00.000Z</time>
      </trkpt>
      <trkpt lat="45.28576" lon="5.27774">
        <ele>617.4</ele>
        <time>2021-07-31T15:39:01.000Z</time>
      </trkpt>
      <trkpt lat="45.28571" lon="5.27754">
        <ele>616.5</ele>
        <time>2021-07-31T15:39:03.000Z</time>
      </trkpt>
      <trkpt lat="45.28566" lon="5.27734">
        <ele>615.6</ele>
        <time>2021-07-31T15:39:05.000Z</time>
      </trkpt>
      <trkpt lat="45.28559" lon="5.27717">
        <ele>615</ele>
        <time>2021-07-31T15:39:07.000Z</time>
      </trkpt>
      <trkpt lat="45.28551" lon="5.27703">
        <ele>615.1</ele>
        <time>2021-07-31T15:39:09.000Z</time>
      </trkpt>
      <trkpt lat="45.28544" lon="5.2769">
        <ele>614.9</ele>
        <time>2021-07-31T15:39:11.000Z</time>
      </trkpt>
      <trkpt lat="45.28539" lon="5.27676">
        <ele>614.3</ele>
        <time>2021-07-31T15:39:13.000Z</time>
      </trkpt>
      <trkpt lat="45.28534" lon="5.27661">
        <ele>613.9</ele>
        <time>2021-07-31T15:39:15.000Z</time>
      </trkpt>
      <trkpt lat="45.28529" lon="5.27645">
        <ele>613.7</ele>
        <time>2021-07-31T15:39:17.000Z</time>
      </trkpt>
      <trkpt lat="45.28523" lon="5.27632">
        <ele>613.7</ele>
        <time>2021-07-31T15:39:19.000Z</time>
      </trkpt>
      <trkpt lat="45.28513" lon="5.27622">
        <ele>614.1</ele>
        <time>2021-07-31T15:39:21.000Z</time>
      </trkpt>
      <trkpt lat="45.28507" lon="5.27608">
        <ele>613.6</ele>
        <time>2021-07-31T15:39:23.000Z</time>
      </trkpt>
      <trkpt lat="45.28507" lon="5.27593">
        <ele>612.3</ele>
        <time>2021-07-31T15:39:25.000Z</time>
      </trkpt>
      <trkpt lat="45.28512" lon="5.2758">
        <ele>611</ele>
        <time>2021-07-31T15:39:27.000Z</time>
      </trkpt>
      <trkpt lat="45.2851" lon="5.27566">
        <ele>611</ele>
        <time>2021-07-31T15:39:29.000Z</time>
      </trkpt>
      <trkpt lat="45.28511" lon="5.27551">
        <ele>610.7</ele>
        <time>2021-07-31T15:39:31.000Z</time>
      </trkpt>
      <trkpt lat="45.28517" lon="5.27536">
        <ele>610</ele>
        <time>2021-07-31T15:39:33.000Z</time>
      </trkpt>
      <trkpt lat="45.28521" lon="5.27518">
        <ele>609.2</ele>
        <time>2021-07-31T15:39:35.000Z</time>
      </trkpt>
      <trkpt lat="45.28528" lon="5.27502">
        <ele>608.4</ele>
        <time>2021-07-31T15:39:37.000Z</time>
      </trkpt>
      <trkpt lat="45.28532" lon="5.27487">
        <ele>607.6</ele>
        <time>2021-07-31T15:39:39.000Z</time>
      </trkpt>
      <trkpt lat="45.28532" lon="5.27472">
        <ele>607.2</ele>
        <time>2021-07-31T15:39:41.000Z</time>
      </trkpt>
      <trkpt lat="45.28529" lon="5.27454">
        <ele>606.9</ele>
        <time>2021-07-31T15:39:43.000Z</time>
      </trkpt>
      <trkpt lat="45.28532" lon="5.27434">
        <ele>606</ele>
        <time>2021-07-31T15:39:45.000Z</time>
      </trkpt>
      <trkpt lat="45.28536" lon="5.27417">
        <ele>605.1</ele>
        <time>2021-07-31T15:39:47.000Z</time>
      </trkpt>
      <trkpt lat="45.28538" lon="5.274">
        <ele>603.4</ele>
        <time>2021-07-31T15:39:50.000Z</time>
      </trkpt>
      <trkpt lat="45.2853" lon="5.27386">
        <ele>602.8</ele>
        <time>2021-07-31T15:39:52.000Z</time>
      </trkpt>
      <trkpt lat="45.28525" lon="5.27371">
        <ele>601.8</ele>
        <time>2021-07-31T15:39:54.000Z</time>
      </trkpt>
      <trkpt lat="45.28514" lon="5.27359">
        <ele>601.1</ele>
        <time>2021-07-31T15:39:56.000Z</time>
      </trkpt>
      <trkpt lat="45.28507" lon="5.27345">
        <ele>600.1</ele>
        <time>2021-07-31T15:39:58.000Z</time>
      </trkpt>
      <trkpt lat="45.28499" lon="5.27332">
        <ele>598.9</ele>
        <time>2021-07-31T15:40:00.000Z</time>
      </trkpt>
      <trkpt lat="45.28498" lon="5.27318">
        <ele>597.6</ele>
        <time>2021-07-31T15:40:02.000Z</time>
      </trkpt>
      <trkpt lat="45.28494" lon="5.27305">
        <ele>596.5</ele>
        <time>2021-07-31T15:40:04.000Z</time>
      </trkpt>
      <trkpt lat="45.28487" lon="5.27293">
        <ele>595.5</ele>
        <time>2021-07-31T15:40:07.000Z</time>
      </trkpt>
      <trkpt lat="45.28481" lon="5.27283">
        <ele>594.8</ele>
        <time>2021-07-31T15:40:09.000Z</time>
      </trkpt>
      <trkpt lat="45.28483" lon="5.27269">
        <ele>593.3</ele>
        <time>2021-07-31T15:40:15.000Z</time>
      </trkpt>
      <trkpt lat="45.28494" lon="5.27269">
        <ele>592.9</ele>
        <time>2021-07-31T15:40:20.000Z</time>
      </trkpt>
      <trkpt lat="45.28503" lon="5.27261">
        <ele>592.3</ele>
        <time>2021-07-31T15:40:23.000Z</time>
      </trkpt>
      <trkpt lat="45.28511" lon="5.27255">
        <ele>592.8</ele>
        <time>2021-07-31T15:40:25.000Z</time>
      </trkpt>
      <trkpt lat="45.2852" lon="5.27256">
        <ele>593.9</ele>
        <time>2021-07-31T15:40:27.000Z</time>
      </trkpt>
      <trkpt lat="45.28526" lon="5.27267">
        <ele>595.2</ele>
        <time>2021-07-31T15:40:30.000Z</time>
      </trkpt>
      <trkpt lat="45.28531" lon="5.27283">
        <ele>596.2</ele>
        <time>2021-07-31T15:40:34.000Z</time>
      </trkpt>
      <trkpt lat="45.28542" lon="5.27293">
        <ele>597</ele>
        <time>2021-07-31T15:40:37.000Z</time>
      </trkpt>
      <trkpt lat="45.28551" lon="5.27296">
        <ele>597.4</ele>
        <time>2021-07-31T15:40:40.000Z</time>
      </trkpt>
      <trkpt lat="45.28563" lon="5.27298">
        <ele>597.8</ele>
        <time>2021-07-31T15:40:43.000Z</time>
      </trkpt>
      <trkpt lat="45.28575" lon="5.27303">
        <ele>598</ele>
        <time>2021-07-31T15:40:46.000Z</time>
      </trkpt>
      <trkpt lat="45.28585" lon="5.27309">
        <ele>598.3</ele>
        <time>2021-07-31T15:40:48.000Z</time>
      </trkpt>
      <trkpt lat="45.28592" lon="5.27319">
        <ele>599.4</ele>
        <time>2021-07-31T15:40:51.000Z</time>
      </trkpt>
      <trkpt lat="45.28602" lon="5.27327">
        <ele>601</ele>
        <time>2021-07-31T15:40:55.000Z</time>
      </trkpt>
      <trkpt lat="45.28614" lon="5.27334">
        <ele>603.8</ele>
        <time>2021-07-31T15:40:58.000Z</time>
      </trkpt>
      <trkpt lat="45.28623" lon="5.2734">
        <ele>606.1</ele>
        <time>2021-07-31T15:41:01.000Z</time>
      </trkpt>
      <trkpt lat="45.2863" lon="5.2733">
        <ele>608</ele>
        <time>2021-07-31T15:41:07.000Z</time>
      </trkpt>
      <trkpt lat="45.28639" lon="5.27322">
        <ele>610.6</ele>
        <time>2021-07-31T15:41:13.000Z</time>
      </trkpt>
      <trkpt lat="45.28646" lon="5.27316">
        <ele>612.9</ele>
        <time>2021-07-31T15:41:18.000Z</time>
      </trkpt>
      <trkpt lat="45.28654" lon="5.27307">
        <ele>615.2</ele>
        <time>2021-07-31T15:41:23.000Z</time>
      </trkpt>
      <trkpt lat="45.28661" lon="5.27298">
        <ele>617.3</ele>
        <time>2021-07-31T15:41:27.000Z</time>
      </trkpt>
      <trkpt lat="45.28669" lon="5.2729">
        <ele>619.3</ele>
        <time>2021-07-31T15:41:33.000Z</time>
      </trkpt>
      <trkpt lat="45.28669" lon="5.2729">
        <ele>619.3</ele>
        <time>2021-07-31T15:41:34.000Z</time>
      </trkpt>
      <trkpt lat="45.28668" lon="5.27291">
        <ele>619.2</ele>
        <time>2021-07-31T15:41:35.000Z</time>
      </trkpt>
      <trkpt lat="45.28668" lon="5.27293">
        <ele>619.1</ele>
        <time>2021-07-31T15:41:42.000Z</time>
      </trkpt>
      <trkpt lat="45.28668" lon="5.27293">
        <ele>619.2</ele>
        <time>2021-07-31T15:41:46.000Z</time>
      </trkpt>
      <trkpt lat="45.28676" lon="5.27285">
        <ele>620.4</ele>
        <time>2021-07-31T15:42:03.000Z</time>
      </trkpt>
      <trkpt lat="45.28682" lon="5.27275">
        <ele>621.5</ele>
        <time>2021-07-31T15:42:18.000Z</time>
      </trkpt>
      <trkpt lat="45.2868" lon="5.27263">
        <ele>621.8</ele>
        <time>2021-07-31T15:42:29.000Z</time>
      </trkpt>
      <trkpt lat="45.2868" lon="5.2725">
        <ele>622.3</ele>
        <time>2021-07-31T15:42:44.000Z</time>
      </trkpt>
      <trkpt lat="45.28676" lon="5.27243">
        <ele>621.9</ele>
        <time>2021-07-31T15:42:59.000Z</time>
      </trkpt>
      <trkpt lat="45.28676" lon="5.27243">
        <ele>622</ele>
        <time>2021-07-31T15:43:04.000Z</time>
      </trkpt>
      <trkpt lat="45.28676" lon="5.27245">
        <ele>622</ele>
        <time>2021-07-31T15:43:10.000Z</time>
      </trkpt>
      <trkpt lat="45.28676" lon="5.27244">
        <ele>621.9</ele>
        <time>2021-07-31T15:43:14.000Z</time>
      </trkpt>
      <trkpt lat="45.28671" lon="5.27231">
        <ele>621.6</ele>
        <time>2021-07-31T15:43:22.000Z</time>
      </trkpt>
      <trkpt lat="45.28664" lon="5.27222">
        <ele>620.8</ele>
        <time>2021-07-31T15:43:27.000Z</time>
      </trkpt>
      <trkpt lat="45.28659" lon="5.27209">
        <ele>620.1</ele>
        <time>2021-07-31T15:43:32.000Z</time>
      </trkpt>
      <trkpt lat="45.28653" lon="5.27198">
        <ele>619.3</ele>
        <time>2021-07-31T15:43:36.000Z</time>
      </trkpt>
      <trkpt lat="45.28645" lon="5.27193">
        <ele>618</ele>
        <time>2021-07-31T15:43:40.000Z</time>
      </trkpt>
      <trkpt lat="45.28636" lon="5.27186">
        <ele>616.7</ele>
        <time>2021-07-31T15:43:46.000Z</time>
      </trkpt>
      <trkpt lat="45.28628" lon="5.27176">
        <ele>616</ele>
        <time>2021-07-31T15:43:51.000Z</time>
      </trkpt>
      <trkpt lat="45.2862" lon="5.27165">
        <ele>615.3</ele>
        <time>2021-07-31T15:43:55.000Z</time>
      </trkpt>
      <trkpt lat="45.28613" lon="5.27155">
        <ele>614.2</ele>
        <time>2021-07-31T15:43:58.000Z</time>
      </trkpt>
      <trkpt lat="45.28607" lon="5.27145">
        <ele>613.2</ele>
        <time>2021-07-31T15:44:00.000Z</time>
      </trkpt>
      <trkpt lat="45.28602" lon="5.27132">
        <ele>612.4</ele>
        <time>2021-07-31T15:44:03.000Z</time>
      </trkpt>
      <trkpt lat="45.28602" lon="5.27119">
        <ele>612.2</ele>
        <time>2021-07-31T15:44:07.000Z</time>
      </trkpt>
      <trkpt lat="45.28606" lon="5.27108">
        <ele>612.7</ele>
        <time>2021-07-31T15:44:11.000Z</time>
      </trkpt>
      <trkpt lat="45.28613" lon="5.27099">
        <ele>613.8</ele>
        <time>2021-07-31T15:44:14.000Z</time>
      </trkpt>
      <trkpt lat="45.2862" lon="5.27089">
        <ele>614.7</ele>
        <time>2021-07-31T15:44:18.000Z</time>
      </trkpt>
      <trkpt lat="45.28626" lon="5.27079">
        <ele>615.7</ele>
        <time>2021-07-31T15:44:24.000Z</time>
      </trkpt>
      <trkpt lat="45.28633" lon="5.2707">
        <ele>616.8</ele>
        <time>2021-07-31T15:44:30.000Z</time>
      </trkpt>
      <trkpt lat="45.2864" lon="5.2706">
        <ele>618</ele>
        <time>2021-07-31T15:44:36.000Z</time>
      </trkpt>
      <trkpt lat="45.28648" lon="5.27051">
        <ele>619.4</ele>
        <time>2021-07-31T15:44:44.000Z</time>
      </trkpt>
      <trkpt lat="45.28657" lon="5.27051">
        <ele>620.8</ele>
        <time>2021-07-31T15:44:50.000Z</time>
      </trkpt>
      <trkpt lat="45.28667" lon="5.27047">
        <ele>622.5</ele>
        <time>2021-07-31T15:44:59.000Z</time>
      </trkpt>
      <trkpt lat="45.28674" lon="5.27037">
        <ele>622.9</ele>
        <time>2021-07-31T15:45:08.000Z</time>
      </trkpt>
      <trkpt lat="45.2868" lon="5.27028">
        <ele>623.3</ele>
        <time>2021-07-31T15:45:17.000Z</time>
      </trkpt>
      <trkpt lat="45.28684" lon="5.27016">
        <ele>623.5</ele>
        <time>2021-07-31T15:45:23.000Z</time>
      </trkpt>
      <trkpt lat="45.2869" lon="5.27005">
        <ele>623.8</ele>
        <time>2021-07-31T15:45:29.000Z</time>
      </trkpt>
      <trkpt lat="45.28696" lon="5.26995">
        <ele>624.1</ele>
        <time>2021-07-31T15:45:35.000Z</time>
      </trkpt>
      <trkpt lat="45.28701" lon="5.26982">
        <ele>624.2</ele>
        <time>2021-07-31T15:45:45.000Z</time>
      </trkpt>
      <trkpt lat="45.28706" lon="5.26971">
        <ele>624.3</ele>
        <time>2021-07-31T15:45:53.000Z</time>
      </trkpt>
      <trkpt lat="45.28712" lon="5.2696">
        <ele>624.3</ele>
        <time>2021-07-31T15:46:00.000Z</time>
      </trkpt>
      <trkpt lat="45.28717" lon="5.26949">
        <ele>624.3</ele>
        <time>2021-07-31T15:46:06.000Z</time>
      </trkpt>
      <trkpt lat="45.28724" lon="5.2694">
        <ele>624.3</ele>
        <time>2021-07-31T15:46:15.000Z</time>
      </trkpt>
      <trkpt lat="45.28732" lon="5.26931">
        <ele>624.2</ele>
        <time>2021-07-31T15:46:22.000Z</time>
      </trkpt>
      <trkpt lat="45.28741" lon="5.26922">
        <ele>624.1</ele>
        <time>2021-07-31T15:46:27.000Z</time>
      </trkpt>
      <trkpt lat="45.28749" lon="5.26916">
        <ele>624</ele>
        <time>2021-07-31T15:46:32.000Z</time>
      </trkpt>
      <trkpt lat="45.28757" lon="5.26909">
        <ele>623.8</ele>
        <time>2021-07-31T15:46:37.000Z</time>
      </trkpt>
      <trkpt lat="45.28765" lon="5.26905">
        <ele>623.7</ele>
        <time>2021-07-31T15:46:44.000Z</time>
      </trkpt>
      <trkpt lat="45.28775" lon="5.26899">
        <ele>623.4</ele>
        <time>2021-07-31T15:46:49.000Z</time>
      </trkpt>
      <trkpt lat="45.28785" lon="5.2689">
        <ele>623.1</ele>
        <time>2021-07-31T15:46:53.000Z</time>
      </trkpt>
      <trkpt lat="45.28792" lon="5.26879">
        <ele>622.6</ele>
        <time>2021-07-31T15:46:56.000Z</time>
      </trkpt>
      <trkpt lat="45.28799" lon="5.2687">
        <ele>622.2</ele>
        <time>2021-07-31T15:46:59.000Z</time>
      </trkpt>
      <trkpt lat="45.28802" lon="5.26855">
        <ele>621.6</ele>
        <time>2021-07-31T15:47:02.000Z</time>
      </trkpt>
      <trkpt lat="45.28795" lon="5.26841">
        <ele>621.2</ele>
        <time>2021-07-31T15:47:05.000Z</time>
      </trkpt>
      <trkpt lat="45.28789" lon="5.26831">
        <ele>621</ele>
        <time>2021-07-31T15:47:07.000Z</time>
      </trkpt>
      <trkpt lat="45.28783" lon="5.26821">
        <ele>621</ele>
        <time>2021-07-31T15:47:09.000Z</time>
      </trkpt>
      <trkpt lat="45.28779" lon="5.26809">
        <ele>621</ele>
        <time>2021-07-31T15:47:11.000Z</time>
      </trkpt>
      <trkpt lat="45.28773" lon="5.26796">
        <ele>621</ele>
        <time>2021-07-31T15:47:14.000Z</time>
      </trkpt>
      <trkpt lat="45.28766" lon="5.26787">
        <ele>621</ele>
        <time>2021-07-31T15:47:16.000Z</time>
      </trkpt>
      <trkpt lat="45.2876" lon="5.26774">
        <ele>621</ele>
        <time>2021-07-31T15:47:18.000Z</time>
      </trkpt>
      <trkpt lat="45.28755" lon="5.26763">
        <ele>621</ele>
        <time>2021-07-31T15:47:20.000Z</time>
      </trkpt>
      <trkpt lat="45.2875" lon="5.26752">
        <ele>621</ele>
        <time>2021-07-31T15:47:22.000Z</time>
      </trkpt>
      <trkpt lat="45.28741" lon="5.2674">
        <ele>620.7</ele>
        <time>2021-07-31T15:47:24.000Z</time>
      </trkpt>
      <trkpt lat="45.28732" lon="5.26727">
        <ele>620.4</ele>
        <time>2021-07-31T15:47:26.000Z</time>
      </trkpt>
      <trkpt lat="45.28727" lon="5.26716">
        <ele>620</ele>
        <time>2021-07-31T15:47:28.000Z</time>
      </trkpt>
      <trkpt lat="45.28721" lon="5.26702">
        <ele>619.6</ele>
        <time>2021-07-31T15:47:30.000Z</time>
      </trkpt>
      <trkpt lat="45.28714" lon="5.2669">
        <ele>619.3</ele>
        <time>2021-07-31T15:47:32.000Z</time>
      </trkpt>
      <trkpt lat="45.28705" lon="5.2668">
        <ele>619</ele>
        <time>2021-07-31T15:47:34.000Z</time>
      </trkpt>
      <trkpt lat="45.28699" lon="5.26669">
        <ele>618.7</ele>
        <time>2021-07-31T15:47:36.000Z</time>
      </trkpt>
      <trkpt lat="45.28693" lon="5.26657">
        <ele>618.6</ele>
        <time>2021-07-31T15:47:38.000Z</time>
      </trkpt>
      <trkpt lat="45.28687" lon="5.26647">
        <ele>618.7</ele>
        <time>2021-07-31T15:47:40.000Z</time>
      </trkpt>
      <trkpt lat="45.28678" lon="5.26633">
        <ele>618.8</ele>
        <time>2021-07-31T15:47:43.000Z</time>
      </trkpt>
      <trkpt lat="45.28673" lon="5.26621">
        <ele>618.9</ele>
        <time>2021-07-31T15:47:45.000Z</time>
      </trkpt>
      <trkpt lat="45.28666" lon="5.26608">
        <ele>619</ele>
        <time>2021-07-31T15:47:47.000Z</time>
      </trkpt>
      <trkpt lat="45.28661" lon="5.26597">
        <ele>619.2</ele>
        <time>2021-07-31T15:47:49.000Z</time>
      </trkpt>
      <trkpt lat="45.28653" lon="5.26586">
        <ele>619.5</ele>
        <time>2021-07-31T15:47:51.000Z</time>
      </trkpt>
      <trkpt lat="45.28643" lon="5.26575">
        <ele>620.3</ele>
        <time>2021-07-31T15:47:53.000Z</time>
      </trkpt>
      <trkpt lat="45.28637" lon="5.26563">
        <ele>621.1</ele>
        <time>2021-07-31T15:47:55.000Z</time>
      </trkpt>
      <trkpt lat="45.28635" lon="5.26548">
        <ele>621.9</ele>
        <time>2021-07-31T15:47:57.000Z</time>
      </trkpt>
      <trkpt lat="45.28636" lon="5.26532">
        <ele>622.7</ele>
        <time>2021-07-31T15:47:59.000Z</time>
      </trkpt>
      <trkpt lat="45.28637" lon="5.26517">
        <ele>623.5</ele>
        <time>2021-07-31T15:48:01.000Z</time>
      </trkpt>
      <trkpt lat="45.28637" lon="5.26504">
        <ele>624.2</ele>
        <time>2021-07-31T15:48:03.000Z</time>
      </trkpt>
      <trkpt lat="45.28637" lon="5.26491">
        <ele>624.5</ele>
        <time>2021-07-31T15:48:06.000Z</time>
      </trkpt>
      <trkpt lat="45.2864" lon="5.26475">
        <ele>624.9</ele>
        <time>2021-07-31T15:48:10.000Z</time>
      </trkpt>
      <trkpt lat="45.28643" lon="5.26459">
        <ele>625.4</ele>
        <time>2021-07-31T15:48:13.000Z</time>
      </trkpt>
      <trkpt lat="45.28643" lon="5.26445">
        <ele>625.8</ele>
        <time>2021-07-31T15:48:16.000Z</time>
      </trkpt>
      <trkpt lat="45.28648" lon="5.26433">
        <ele>626.2</ele>
        <time>2021-07-31T15:48:19.000Z</time>
      </trkpt>
      <trkpt lat="45.28654" lon="5.26419">
        <ele>626.6</ele>
        <time>2021-07-31T15:48:22.000Z</time>
      </trkpt>
      <trkpt lat="45.28656" lon="5.26406">
        <ele>626.5</ele>
        <time>2021-07-31T15:48:25.000Z</time>
      </trkpt>
      <trkpt lat="45.28648" lon="5.26394">
        <ele>626</ele>
        <time>2021-07-31T15:48:28.000Z</time>
      </trkpt>
      <trkpt lat="45.28641" lon="5.26384">
        <ele>625.6</ele>
        <time>2021-07-31T15:48:31.000Z</time>
      </trkpt>
      <trkpt lat="45.28628" lon="5.26374">
        <ele>625</ele>
        <time>2021-07-31T15:48:33.000Z</time>
      </trkpt>
      <trkpt lat="45.28617" lon="5.26365">
        <ele>624.6</ele>
        <time>2021-07-31T15:48:35.000Z</time>
      </trkpt>
      <trkpt lat="45.28606" lon="5.26356">
        <ele>624.1</ele>
        <time>2021-07-31T15:48:37.000Z</time>
      </trkpt>
      <trkpt lat="45.28593" lon="5.26347">
        <ele>623.5</ele>
        <time>2021-07-31T15:48:40.000Z</time>
      </trkpt>
      <trkpt lat="45.28585" lon="5.26336">
        <ele>623.1</ele>
        <time>2021-07-31T15:48:42.000Z</time>
      </trkpt>
      <trkpt lat="45.28578" lon="5.26327">
        <ele>622.8</ele>
        <time>2021-07-31T15:48:44.000Z</time>
      </trkpt>
      <trkpt lat="45.28567" lon="5.26315">
        <ele>622.5</ele>
        <time>2021-07-31T15:48:46.000Z</time>
      </trkpt>
      <trkpt lat="45.28556" lon="5.26304">
        <ele>622.2</ele>
        <time>2021-07-31T15:48:48.000Z</time>
      </trkpt>
      <trkpt lat="45.28548" lon="5.26295">
        <ele>621.9</ele>
        <time>2021-07-31T15:48:50.000Z</time>
      </trkpt>
      <trkpt lat="45.28538" lon="5.26285">
        <ele>621.5</ele>
        <time>2021-07-31T15:48:53.000Z</time>
      </trkpt>
      <trkpt lat="45.28527" lon="5.26276">
        <ele>621.2</ele>
        <time>2021-07-31T15:48:57.000Z</time>
      </trkpt>
      <trkpt lat="45.28514" lon="5.26268">
        <ele>620.8</ele>
        <time>2021-07-31T15:49:00.000Z</time>
      </trkpt>
      <trkpt lat="45.28504" lon="5.26261">
        <ele>620.4</ele>
        <time>2021-07-31T15:49:03.000Z</time>
      </trkpt>
      <trkpt lat="45.28497" lon="5.26252">
        <ele>620.1</ele>
        <time>2021-07-31T15:49:06.000Z</time>
      </trkpt>
      <trkpt lat="45.2849" lon="5.26242">
        <ele>620.2</ele>
        <time>2021-07-31T15:49:09.000Z</time>
      </trkpt>
      <trkpt lat="45.28481" lon="5.26232">
        <ele>620.4</ele>
        <time>2021-07-31T15:49:13.000Z</time>
      </trkpt>
      <trkpt lat="45.28474" lon="5.26223">
        <ele>620.5</ele>
        <time>2021-07-31T15:49:16.000Z</time>
      </trkpt>
      <trkpt lat="45.28463" lon="5.26212">
        <ele>620.7</ele>
        <time>2021-07-31T15:49:19.000Z</time>
      </trkpt>
      <trkpt lat="45.28453" lon="5.26205">
        <ele>620.8</ele>
        <time>2021-07-31T15:49:22.000Z</time>
      </trkpt>
      <trkpt lat="45.2844" lon="5.26202">
        <ele>621</ele>
        <time>2021-07-31T15:49:25.000Z</time>
      </trkpt>
      <trkpt lat="45.28429" lon="5.26189">
        <ele>621.1</ele>
        <time>2021-07-31T15:49:27.000Z</time>
      </trkpt>
      <trkpt lat="45.2842" lon="5.26174">
        <ele>621</ele>
        <time>2021-07-31T15:49:29.000Z</time>
      </trkpt>
      <trkpt lat="45.2841" lon="5.26163">
        <ele>621</ele>
        <time>2021-07-31T15:49:31.000Z</time>
      </trkpt>
      <trkpt lat="45.28398" lon="5.26154">
        <ele>620.9</ele>
        <time>2021-07-31T15:49:34.000Z</time>
      </trkpt>
      <trkpt lat="45.2839" lon="5.26145">
        <ele>620.8</ele>
        <time>2021-07-31T15:49:36.000Z</time>
      </trkpt>
      <trkpt lat="45.28382" lon="5.26137">
        <ele>620.7</ele>
        <time>2021-07-31T15:49:38.000Z</time>
      </trkpt>
      <trkpt lat="45.28374" lon="5.26127">
        <ele>620.5</ele>
        <time>2021-07-31T15:49:40.000Z</time>
      </trkpt>
      <trkpt lat="45.28365" lon="5.26121">
        <ele>620.5</ele>
        <time>2021-07-31T15:49:43.000Z</time>
      </trkpt>
      <trkpt lat="45.28355" lon="5.26114">
        <ele>620.5</ele>
        <time>2021-07-31T15:49:47.000Z</time>
      </trkpt>
      <trkpt lat="45.28344" lon="5.2611">
        <ele>620.5</ele>
        <time>2021-07-31T15:49:51.000Z</time>
      </trkpt>
      <trkpt lat="45.28334" lon="5.26106">
        <ele>620.5</ele>
        <time>2021-07-31T15:49:55.000Z</time>
      </trkpt>
      <trkpt lat="45.28325" lon="5.26104">
        <ele>620.7</ele>
        <time>2021-07-31T15:49:58.000Z</time>
      </trkpt>
      <trkpt lat="45.28315" lon="5.26099">
        <ele>620.9</ele>
        <time>2021-07-31T15:50:01.000Z</time>
      </trkpt>
      <trkpt lat="45.28304" lon="5.26093">
        <ele>621.1</ele>
        <time>2021-07-31T15:50:04.000Z</time>
      </trkpt>
      <trkpt lat="45.28292" lon="5.26087">
        <ele>621.5</ele>
        <time>2021-07-31T15:50:07.000Z</time>
      </trkpt>
      <trkpt lat="45.2828" lon="5.26083">
        <ele>621.9</ele>
        <time>2021-07-31T15:50:10.000Z</time>
      </trkpt>
      <trkpt lat="45.28271" lon="5.26074">
        <ele>622</ele>
        <time>2021-07-31T15:50:14.000Z</time>
      </trkpt>
      <trkpt lat="45.28261" lon="5.2607">
        <ele>622.3</ele>
        <time>2021-07-31T15:50:17.000Z</time>
      </trkpt>
      <trkpt lat="45.28253" lon="5.26065">
        <ele>622.4</ele>
        <time>2021-07-31T15:50:19.000Z</time>
      </trkpt>
      <trkpt lat="45.28242" lon="5.26059">
        <ele>622.4</ele>
        <time>2021-07-31T15:50:22.000Z</time>
      </trkpt>
      <trkpt lat="45.28233" lon="5.26056">
        <ele>622.3</ele>
        <time>2021-07-31T15:50:24.000Z</time>
      </trkpt>
      <trkpt lat="45.28219" lon="5.26051">
        <ele>622.1</ele>
        <time>2021-07-31T15:50:26.000Z</time>
      </trkpt>
      <trkpt lat="45.28205" lon="5.26048">
        <ele>621.9</ele>
        <time>2021-07-31T15:50:28.000Z</time>
      </trkpt>
      <trkpt lat="45.28192" lon="5.26042">
        <ele>621.7</ele>
        <time>2021-07-31T15:50:30.000Z</time>
      </trkpt>
      <trkpt lat="45.28183" lon="5.26038">
        <ele>621.5</ele>
        <time>2021-07-31T15:50:32.000Z</time>
      </trkpt>
      <trkpt lat="45.28174" lon="5.26033">
        <ele>621.2</ele>
        <time>2021-07-31T15:50:34.000Z</time>
      </trkpt>
      <trkpt lat="45.28164" lon="5.26027">
        <ele>621</ele>
        <time>2021-07-31T15:50:36.000Z</time>
      </trkpt>
      <trkpt lat="45.28155" lon="5.2602">
        <ele>621</ele>
        <time>2021-07-31T15:50:38.000Z</time>
      </trkpt>
      <trkpt lat="45.28145" lon="5.26016">
        <ele>621.2</ele>
        <time>2021-07-31T15:50:40.000Z</time>
      </trkpt>
      <trkpt lat="45.28134" lon="5.26013">
        <ele>621.4</ele>
        <time>2021-07-31T15:50:42.000Z</time>
      </trkpt>
      <trkpt lat="45.28123" lon="5.2601">
        <ele>621.7</ele>
        <time>2021-07-31T15:50:44.000Z</time>
      </trkpt>
      <trkpt lat="45.28113" lon="5.26006">
        <ele>621.9</ele>
        <time>2021-07-31T15:50:46.000Z</time>
      </trkpt>
      <trkpt lat="45.28105" lon="5.26001">
        <ele>622.2</ele>
        <time>2021-07-31T15:50:48.000Z</time>
      </trkpt>
      <trkpt lat="45.28093" lon="5.25993">
        <ele>622.8</ele>
        <time>2021-07-31T15:50:51.000Z</time>
      </trkpt>
      <trkpt lat="45.28083" lon="5.25988">
        <ele>623.1</ele>
        <time>2021-07-31T15:50:53.000Z</time>
      </trkpt>
      <trkpt lat="45.28072" lon="5.25985">
        <ele>622.8</ele>
        <time>2021-07-31T15:50:55.000Z</time>
      </trkpt>
      <trkpt lat="45.28064" lon="5.25981">
        <ele>622.6</ele>
        <time>2021-07-31T15:50:57.000Z</time>
      </trkpt>
      <trkpt lat="45.28054" lon="5.25977">
        <ele>622.3</ele>
        <time>2021-07-31T15:50:59.000Z</time>
      </trkpt>
      <trkpt lat="45.28046" lon="5.25974">
        <ele>622.1</ele>
        <time>2021-07-31T15:51:01.000Z</time>
      </trkpt>
      <trkpt lat="45.28034" lon="5.25969">
        <ele>621.8</ele>
        <time>2021-07-31T15:51:03.000Z</time>
      </trkpt>
      <trkpt lat="45.28025" lon="5.25966">
        <ele>621.6</ele>
        <time>2021-07-31T15:51:05.000Z</time>
      </trkpt>
      <trkpt lat="45.28016" lon="5.25959">
        <ele>621.5</ele>
        <time>2021-07-31T15:51:08.000Z</time>
      </trkpt>
      <trkpt lat="45.28018" lon="5.25946">
        <ele>621.8</ele>
        <time>2021-07-31T15:51:11.000Z</time>
      </trkpt>
      <trkpt lat="45.28025" lon="5.25934">
        <ele>622.3</ele>
        <time>2021-07-31T15:51:15.000Z</time>
      </trkpt>
      <trkpt lat="45.2803" lon="5.25919">
        <ele>622.7</ele>
        <time>2021-07-31T15:51:19.000Z</time>
      </trkpt>
      <trkpt lat="45.28038" lon="5.25905">
        <ele>623.3</ele>
        <time>2021-07-31T15:51:22.000Z</time>
      </trkpt>
      <trkpt lat="45.28046" lon="5.25893">
        <ele>623.8</ele>
        <time>2021-07-31T15:51:25.000Z</time>
      </trkpt>
      <trkpt lat="45.28055" lon="5.25882">
        <ele>624.2</ele>
        <time>2021-07-31T15:51:28.000Z</time>
      </trkpt>
      <trkpt lat="45.28065" lon="5.2587">
        <ele>624.5</ele>
        <time>2021-07-31T15:51:31.000Z</time>
      </trkpt>
      <trkpt lat="45.28074" lon="5.2586">
        <ele>624.7</ele>
        <time>2021-07-31T15:51:33.000Z</time>
      </trkpt>
      <trkpt lat="45.28084" lon="5.25851">
        <ele>624.7</ele>
        <time>2021-07-31T15:51:35.000Z</time>
      </trkpt>
      <trkpt lat="45.28092" lon="5.25842">
        <ele>624.4</ele>
        <time>2021-07-31T15:51:37.000Z</time>
      </trkpt>
      <trkpt lat="45.28102" lon="5.25827">
        <ele>623.9</ele>
        <time>2021-07-31T15:51:40.000Z</time>
      </trkpt>
      <trkpt lat="45.28108" lon="5.2581">
        <ele>623.4</ele>
        <time>2021-07-31T15:51:43.000Z</time>
      </trkpt>
      <trkpt lat="45.28114" lon="5.25795">
        <ele>623</ele>
        <time>2021-07-31T15:51:45.000Z</time>
      </trkpt>
      <trkpt lat="45.2812" lon="5.25782">
        <ele>622.7</ele>
        <time>2021-07-31T15:51:47.000Z</time>
      </trkpt>
      <trkpt lat="45.28126" lon="5.2577">
        <ele>622.4</ele>
        <time>2021-07-31T15:51:49.000Z</time>
      </trkpt>
      <trkpt lat="45.28131" lon="5.25756">
        <ele>622.3</ele>
        <time>2021-07-31T15:51:51.000Z</time>
      </trkpt>
      <trkpt lat="45.28137" lon="5.2574">
        <ele>622.4</ele>
        <time>2021-07-31T15:51:53.000Z</time>
      </trkpt>
      <trkpt lat="45.28139" lon="5.25725">
        <ele>622.7</ele>
        <time>2021-07-31T15:51:55.000Z</time>
      </trkpt>
      <trkpt lat="45.28148" lon="5.25716">
        <ele>622.7</ele>
        <time>2021-07-31T15:51:57.000Z</time>
      </trkpt>
      <trkpt lat="45.28157" lon="5.25706">
        <ele>622.8</ele>
        <time>2021-07-31T15:51:59.000Z</time>
      </trkpt>
      <trkpt lat="45.28167" lon="5.25693">
        <ele>623.1</ele>
        <time>2021-07-31T15:52:01.000Z</time>
      </trkpt>
      <trkpt lat="45.28176" lon="5.25685">
        <ele>623.1</ele>
        <time>2021-07-31T15:52:03.000Z</time>
      </trkpt>
      <trkpt lat="45.28188" lon="5.25678">
        <ele>623.1</ele>
        <time>2021-07-31T15:52:05.000Z</time>
      </trkpt>
      <trkpt lat="45.28198" lon="5.25668">
        <ele>623.2</ele>
        <time>2021-07-31T15:52:07.000Z</time>
      </trkpt>
      <trkpt lat="45.2821" lon="5.25661">
        <ele>622.8</ele>
        <time>2021-07-31T15:52:09.000Z</time>
      </trkpt>
      <trkpt lat="45.28223" lon="5.2565">
        <ele>622.4</ele>
        <time>2021-07-31T15:52:11.000Z</time>
      </trkpt>
      <trkpt lat="45.28234" lon="5.25642">
        <ele>622</ele>
        <time>2021-07-31T15:52:13.000Z</time>
      </trkpt>
      <trkpt lat="45.28244" lon="5.2563">
        <ele>621.7</ele>
        <time>2021-07-31T15:52:15.000Z</time>
      </trkpt>
      <trkpt lat="45.28253" lon="5.25619">
        <ele>621.4</ele>
        <time>2021-07-31T15:52:17.000Z</time>
      </trkpt>
      <trkpt lat="45.28262" lon="5.25606">
        <ele>621.3</ele>
        <time>2021-07-31T15:52:19.000Z</time>
      </trkpt>
      <trkpt lat="45.28271" lon="5.25594">
        <ele>621.2</ele>
        <time>2021-07-31T15:52:21.000Z</time>
      </trkpt>
      <trkpt lat="45.28279" lon="5.25581">
        <ele>620.9</ele>
        <time>2021-07-31T15:52:23.000Z</time>
      </trkpt>
      <trkpt lat="45.28288" lon="5.25568">
        <ele>620.3</ele>
        <time>2021-07-31T15:52:25.000Z</time>
      </trkpt>
      <trkpt lat="45.28295" lon="5.25553">
        <ele>619.6</ele>
        <time>2021-07-31T15:52:27.000Z</time>
      </trkpt>
      <trkpt lat="45.28302" lon="5.25537">
        <ele>618.8</ele>
        <time>2021-07-31T15:52:29.000Z</time>
      </trkpt>
      <trkpt lat="45.28309" lon="5.25521">
        <ele>617.9</ele>
        <time>2021-07-31T15:52:31.000Z</time>
      </trkpt>
      <trkpt lat="45.28317" lon="5.25507">
        <ele>616.9</ele>
        <time>2021-07-31T15:52:33.000Z</time>
      </trkpt>
      <trkpt lat="45.28326" lon="5.25495">
        <ele>616.1</ele>
        <time>2021-07-31T15:52:35.000Z</time>
      </trkpt>
      <trkpt lat="45.28336" lon="5.25481">
        <ele>615.1</ele>
        <time>2021-07-31T15:52:37.000Z</time>
      </trkpt>
      <trkpt lat="45.28347" lon="5.25467">
        <ele>614</ele>
        <time>2021-07-31T15:52:39.000Z</time>
      </trkpt>
      <trkpt lat="45.28358" lon="5.25455">
        <ele>613</ele>
        <time>2021-07-31T15:52:41.000Z</time>
      </trkpt>
      <trkpt lat="45.28366" lon="5.25444">
        <ele>612.3</ele>
        <time>2021-07-31T15:52:43.000Z</time>
      </trkpt>
      <trkpt lat="45.28373" lon="5.25433">
        <ele>611.6</ele>
        <time>2021-07-31T15:52:45.000Z</time>
      </trkpt>
      <trkpt lat="45.2838" lon="5.25419">
        <ele>610.9</ele>
        <time>2021-07-31T15:52:47.000Z</time>
      </trkpt>
      <trkpt lat="45.28382" lon="5.25405">
        <ele>610.8</ele>
        <time>2021-07-31T15:52:49.000Z</time>
      </trkpt>
      <trkpt lat="45.28382" lon="5.25389">
        <ele>610.9</ele>
        <time>2021-07-31T15:52:52.000Z</time>
      </trkpt>
      <trkpt lat="45.28385" lon="5.25373">
        <ele>611</ele>
        <time>2021-07-31T15:52:55.000Z</time>
      </trkpt>
      <trkpt lat="45.28387" lon="5.25356">
        <ele>611.1</ele>
        <time>2021-07-31T15:52:58.000Z</time>
      </trkpt>
      <trkpt lat="45.28387" lon="5.25338">
        <ele>611.3</ele>
        <time>2021-07-31T15:53:01.000Z</time>
      </trkpt>
      <trkpt lat="45.28389" lon="5.25323">
        <ele>611.7</ele>
        <time>2021-07-31T15:53:03.000Z</time>
      </trkpt>
      <trkpt lat="45.28394" lon="5.25309">
        <ele>612.3</ele>
        <time>2021-07-31T15:53:05.000Z</time>
      </trkpt>
      <trkpt lat="45.28399" lon="5.25294">
        <ele>612.9</ele>
        <time>2021-07-31T15:53:07.000Z</time>
      </trkpt>
      <trkpt lat="45.28405" lon="5.25279">
        <ele>613.6</ele>
        <time>2021-07-31T15:53:09.000Z</time>
      </trkpt>
      <trkpt lat="45.2841" lon="5.25264">
        <ele>614.3</ele>
        <time>2021-07-31T15:53:11.000Z</time>
      </trkpt>
      <trkpt lat="45.28415" lon="5.25249">
        <ele>615</ele>
        <time>2021-07-31T15:53:13.000Z</time>
      </trkpt>
      <trkpt lat="45.2842" lon="5.25235">
        <ele>615.6</ele>
        <time>2021-07-31T15:53:15.000Z</time>
      </trkpt>
      <trkpt lat="45.28424" lon="5.25223">
        <ele>616.1</ele>
        <time>2021-07-31T15:53:17.000Z</time>
      </trkpt>
      <trkpt lat="45.2843" lon="5.25207">
        <ele>616.7</ele>
        <time>2021-07-31T15:53:20.000Z</time>
      </trkpt>
      <trkpt lat="45.28434" lon="5.25192">
        <ele>617.3</ele>
        <time>2021-07-31T15:53:23.000Z</time>
      </trkpt>
      <trkpt lat="45.28438" lon="5.25176">
        <ele>617.9</ele>
        <time>2021-07-31T15:53:26.000Z</time>
      </trkpt>
      <trkpt lat="45.28442" lon="5.25161">
        <ele>618.3</ele>
        <time>2021-07-31T15:53:29.000Z</time>
      </trkpt>
      <trkpt lat="45.28447" lon="5.25147">
        <ele>618.2</ele>
        <time>2021-07-31T15:53:32.000Z</time>
      </trkpt>
      <trkpt lat="45.28453" lon="5.25133">
        <ele>618.1</ele>
        <time>2021-07-31T15:53:35.000Z</time>
      </trkpt>
      <trkpt lat="45.2846" lon="5.25125">
        <ele>618</ele>
        <time>2021-07-31T15:53:38.000Z</time>
      </trkpt>
      <trkpt lat="45.28468" lon="5.25117">
        <ele>617.7</ele>
        <time>2021-07-31T15:53:41.000Z</time>
      </trkpt>
      <trkpt lat="45.28475" lon="5.25108">
        <ele>617.4</ele>
        <time>2021-07-31T15:53:44.000Z</time>
      </trkpt>
      <trkpt lat="45.28482" lon="5.25097">
        <ele>617</ele>
        <time>2021-07-31T15:53:47.000Z</time>
      </trkpt>
      <trkpt lat="45.28489" lon="5.25084">
        <ele>616.4</ele>
        <time>2021-07-31T15:53:50.000Z</time>
      </trkpt>
      <trkpt lat="45.28495" lon="5.25071">
        <ele>615.8</ele>
        <time>2021-07-31T15:53:53.000Z</time>
      </trkpt>
      <trkpt lat="45.28494" lon="5.25057">
        <ele>615.5</ele>
        <time>2021-07-31T15:53:56.000Z</time>
      </trkpt>
      <trkpt lat="45.28484" lon="5.25047">
        <ele>615.5</ele>
        <time>2021-07-31T15:53:59.000Z</time>
      </trkpt>
      <trkpt lat="45.28475" lon="5.25042">
        <ele>615.6</ele>
        <time>2021-07-31T15:54:01.000Z</time>
      </trkpt>
      <trkpt lat="45.28466" lon="5.25035">
        <ele>615.5</ele>
        <time>2021-07-31T15:54:03.000Z</time>
      </trkpt>
      <trkpt lat="45.28455" lon="5.25025">
        <ele>615.5</ele>
        <time>2021-07-31T15:54:06.000Z</time>
      </trkpt>
      <trkpt lat="45.28445" lon="5.25014">
        <ele>615.2</ele>
        <time>2021-07-31T15:54:09.000Z</time>
      </trkpt>
      <trkpt lat="45.28437" lon="5.25007">
        <ele>615</ele>
        <time>2021-07-31T15:54:11.000Z</time>
      </trkpt>
      <trkpt lat="45.28429" lon="5.24999">
        <ele>614.8</ele>
        <time>2021-07-31T15:54:13.000Z</time>
      </trkpt>
      <trkpt lat="45.28416" lon="5.24992">
        <ele>614.8</ele>
        <time>2021-07-31T15:54:16.000Z</time>
      </trkpt>
      <trkpt lat="45.28405" lon="5.24991">
        <ele>614.9</ele>
        <time>2021-07-31T15:54:18.000Z</time>
      </trkpt>
      <trkpt lat="45.28394" lon="5.24991">
        <ele>615.1</ele>
        <time>2021-07-31T15:54:20.000Z</time>
      </trkpt>
      <trkpt lat="45.28383" lon="5.24995">
        <ele>615.3</ele>
        <time>2021-07-31T15:54:22.000Z</time>
      </trkpt>
      <trkpt lat="45.28372" lon="5.24997">
        <ele>615.5</ele>
        <time>2021-07-31T15:54:24.000Z</time>
      </trkpt>
      <trkpt lat="45.28361" lon="5.24999">
        <ele>615.6</ele>
        <time>2021-07-31T15:54:26.000Z</time>
      </trkpt>
      <trkpt lat="45.2835" lon="5.25001">
        <ele>615.8</ele>
        <time>2021-07-31T15:54:28.000Z</time>
      </trkpt>
      <trkpt lat="45.28338" lon="5.25005">
        <ele>616</ele>
        <time>2021-07-31T15:54:30.000Z</time>
      </trkpt>
      <trkpt lat="45.28326" lon="5.25003">
        <ele>615.9</ele>
        <time>2021-07-31T15:54:32.000Z</time>
      </trkpt>
      <trkpt lat="45.28313" lon="5.24995">
        <ele>615.7</ele>
        <time>2021-07-31T15:54:34.000Z</time>
      </trkpt>
      <trkpt lat="45.28302" lon="5.24982">
        <ele>615.3</ele>
        <time>2021-07-31T15:54:36.000Z</time>
      </trkpt>
      <trkpt lat="45.28291" lon="5.24968">
        <ele>614.9</ele>
        <time>2021-07-31T15:54:38.000Z</time>
      </trkpt>
      <trkpt lat="45.2828" lon="5.24954">
        <ele>614.4</ele>
        <time>2021-07-31T15:54:40.000Z</time>
      </trkpt>
      <trkpt lat="45.28269" lon="5.24937">
        <ele>613.9</ele>
        <time>2021-07-31T15:54:42.000Z</time>
      </trkpt>
      <trkpt lat="45.28258" lon="5.24918">
        <ele>613.2</ele>
        <time>2021-07-31T15:54:44.000Z</time>
      </trkpt>
      <trkpt lat="45.28251" lon="5.24896">
        <ele>612.5</ele>
        <time>2021-07-31T15:54:46.000Z</time>
      </trkpt>
      <trkpt lat="45.28245" lon="5.24873">
        <ele>611.9</ele>
        <time>2021-07-31T15:54:48.000Z</time>
      </trkpt>
      <trkpt lat="45.28237" lon="5.24853">
        <ele>611.4</ele>
        <time>2021-07-31T15:54:50.000Z</time>
      </trkpt>
      <trkpt lat="45.28226" lon="5.24837">
        <ele>611</ele>
        <time>2021-07-31T15:54:52.000Z</time>
      </trkpt>
      <trkpt lat="45.28216" lon="5.24822">
        <ele>611</ele>
        <time>2021-07-31T15:54:54.000Z</time>
      </trkpt>
      <trkpt lat="45.28209" lon="5.24809">
        <ele>611</ele>
        <time>2021-07-31T15:54:56.000Z</time>
      </trkpt>
      <trkpt lat="45.28204" lon="5.24795">
        <ele>611</ele>
        <time>2021-07-31T15:54:58.000Z</time>
      </trkpt>
      <trkpt lat="45.28199" lon="5.24782">
        <ele>611</ele>
        <time>2021-07-31T15:55:00.000Z</time>
      </trkpt>
      <trkpt lat="45.28195" lon="5.24767">
        <ele>611</ele>
        <time>2021-07-31T15:55:02.000Z</time>
      </trkpt>
      <trkpt lat="45.2819" lon="5.24752">
        <ele>611</ele>
        <time>2021-07-31T15:55:04.000Z</time>
      </trkpt>
      <trkpt lat="45.28185" lon="5.24737">
        <ele>611.2</ele>
        <time>2021-07-31T15:55:06.000Z</time>
      </trkpt>
      <trkpt lat="45.28179" lon="5.24723">
        <ele>611.3</ele>
        <time>2021-07-31T15:55:08.000Z</time>
      </trkpt>
      <trkpt lat="45.28175" lon="5.24709">
        <ele>611.5</ele>
        <time>2021-07-31T15:55:10.000Z</time>
      </trkpt>
      <trkpt lat="45.2817" lon="5.24696">
        <ele>611.7</ele>
        <time>2021-07-31T15:55:12.000Z</time>
      </trkpt>
      <trkpt lat="45.28165" lon="5.24681">
        <ele>611.9</ele>
        <time>2021-07-31T15:55:14.000Z</time>
      </trkpt>
      <trkpt lat="45.28159" lon="5.24667">
        <ele>612.1</ele>
        <time>2021-07-31T15:55:16.000Z</time>
      </trkpt>
      <trkpt lat="45.28151" lon="5.24652">
        <ele>611.9</ele>
        <time>2021-07-31T15:55:18.000Z</time>
      </trkpt>
      <trkpt lat="45.28141" lon="5.24637">
        <ele>611.6</ele>
        <time>2021-07-31T15:55:20.000Z</time>
      </trkpt>
      <trkpt lat="45.28129" lon="5.24622">
        <ele>611.2</ele>
        <time>2021-07-31T15:55:22.000Z</time>
      </trkpt>
      <trkpt lat="45.28115" lon="5.24606">
        <ele>610.5</ele>
        <time>2021-07-31T15:55:24.000Z</time>
      </trkpt>
      <trkpt lat="45.28102" lon="5.2459">
        <ele>609.7</ele>
        <time>2021-07-31T15:55:26.000Z</time>
      </trkpt>
      <trkpt lat="45.28093" lon="5.24572">
        <ele>609.3</ele>
        <time>2021-07-31T15:55:28.000Z</time>
      </trkpt>
      <trkpt lat="45.28086" lon="5.24553">
        <ele>609.4</ele>
        <time>2021-07-31T15:55:30.000Z</time>
      </trkpt>
      <trkpt lat="45.2808" lon="5.24535">
        <ele>609.7</ele>
        <time>2021-07-31T15:55:32.000Z</time>
      </trkpt>
      <trkpt lat="45.28074" lon="5.24518">
        <ele>609.9</ele>
        <time>2021-07-31T15:55:34.000Z</time>
      </trkpt>
      <trkpt lat="45.28068" lon="5.24503">
        <ele>610.2</ele>
        <time>2021-07-31T15:55:36.000Z</time>
      </trkpt>
      <trkpt lat="45.28061" lon="5.24489">
        <ele>609.9</ele>
        <time>2021-07-31T15:55:38.000Z</time>
      </trkpt>
      <trkpt lat="45.28055" lon="5.24474">
        <ele>609.6</ele>
        <time>2021-07-31T15:55:40.000Z</time>
      </trkpt>
      <trkpt lat="45.2805" lon="5.24459">
        <ele>609.3</ele>
        <time>2021-07-31T15:55:42.000Z</time>
      </trkpt>
      <trkpt lat="45.28043" lon="5.24442">
        <ele>609</ele>
        <time>2021-07-31T15:55:44.000Z</time>
      </trkpt>
      <trkpt lat="45.28035" lon="5.24425">
        <ele>608.9</ele>
        <time>2021-07-31T15:55:46.000Z</time>
      </trkpt>
      <trkpt lat="45.28025" lon="5.24409">
        <ele>608.8</ele>
        <time>2021-07-31T15:55:48.000Z</time>
      </trkpt>
      <trkpt lat="45.28016" lon="5.24394">
        <ele>608.6</ele>
        <time>2021-07-31T15:55:50.000Z</time>
      </trkpt>
      <trkpt lat="45.28008" lon="5.24377">
        <ele>608.2</ele>
        <time>2021-07-31T15:55:52.000Z</time>
      </trkpt>
      <trkpt lat="45.27999" lon="5.24358">
        <ele>607.9</ele>
        <time>2021-07-31T15:55:54.000Z</time>
      </trkpt>
      <trkpt lat="45.2799" lon="5.24336">
        <ele>607.2</ele>
        <time>2021-07-31T15:55:56.000Z</time>
      </trkpt>
      <trkpt lat="45.27982" lon="5.24315">
        <ele>606.4</ele>
        <time>2021-07-31T15:55:58.000Z</time>
      </trkpt>
      <trkpt lat="45.27973" lon="5.24294">
        <ele>605.7</ele>
        <time>2021-07-31T15:56:00.000Z</time>
      </trkpt>
      <trkpt lat="45.27963" lon="5.24276">
        <ele>605.3</ele>
        <time>2021-07-31T15:56:02.000Z</time>
      </trkpt>
      <trkpt lat="45.27952" lon="5.2426">
        <ele>605</ele>
        <time>2021-07-31T15:56:04.000Z</time>
      </trkpt>
      <trkpt lat="45.27944" lon="5.24241">
        <ele>605</ele>
        <time>2021-07-31T15:56:06.000Z</time>
      </trkpt>
      <trkpt lat="45.27943" lon="5.2422">
        <ele>605.1</ele>
        <time>2021-07-31T15:56:08.000Z</time>
      </trkpt>
      <trkpt lat="45.27945" lon="5.242">
        <ele>604.9</ele>
        <time>2021-07-31T15:56:10.000Z</time>
      </trkpt>
      <trkpt lat="45.2795" lon="5.24181">
        <ele>604.2</ele>
        <time>2021-07-31T15:56:12.000Z</time>
      </trkpt>
      <trkpt lat="45.27952" lon="5.24164">
        <ele>603.6</ele>
        <time>2021-07-31T15:56:14.000Z</time>
      </trkpt>
      <trkpt lat="45.27954" lon="5.24147">
        <ele>602.9</ele>
        <time>2021-07-31T15:56:16.000Z</time>
      </trkpt>
      <trkpt lat="45.27957" lon="5.24131">
        <ele>602.2</ele>
        <time>2021-07-31T15:56:18.000Z</time>
      </trkpt>
      <trkpt lat="45.27961" lon="5.24116">
        <ele>601.1</ele>
        <time>2021-07-31T15:56:20.000Z</time>
      </trkpt>
      <trkpt lat="45.27962" lon="5.24099">
        <ele>600.5</ele>
        <time>2021-07-31T15:56:22.000Z</time>
      </trkpt>
      <trkpt lat="45.27963" lon="5.24081">
        <ele>599.9</ele>
        <time>2021-07-31T15:56:24.000Z</time>
      </trkpt>
      <trkpt lat="45.27966" lon="5.24061">
        <ele>599</ele>
        <time>2021-07-31T15:56:26.000Z</time>
      </trkpt>
      <trkpt lat="45.27969" lon="5.24042">
        <ele>598</ele>
        <time>2021-07-31T15:56:28.000Z</time>
      </trkpt>
      <trkpt lat="45.27971" lon="5.24022">
        <ele>597.2</ele>
        <time>2021-07-31T15:56:30.000Z</time>
      </trkpt>
      <trkpt lat="45.27974" lon="5.24003">
        <ele>596.4</ele>
        <time>2021-07-31T15:56:32.000Z</time>
      </trkpt>
      <trkpt lat="45.27976" lon="5.23985">
        <ele>596.8</ele>
        <time>2021-07-31T15:56:34.000Z</time>
      </trkpt>
      <trkpt lat="45.27978" lon="5.23965">
        <ele>597.7</ele>
        <time>2021-07-31T15:56:36.000Z</time>
      </trkpt>
      <trkpt lat="45.27981" lon="5.23945">
        <ele>598.6</ele>
        <time>2021-07-31T15:56:38.000Z</time>
      </trkpt>
      <trkpt lat="45.27985" lon="5.23926">
        <ele>599.6</ele>
        <time>2021-07-31T15:56:40.000Z</time>
      </trkpt>
      <trkpt lat="45.27988" lon="5.23906">
        <ele>600</ele>
        <time>2021-07-31T15:56:42.000Z</time>
      </trkpt>
      <trkpt lat="45.27992" lon="5.23887">
        <ele>600.2</ele>
        <time>2021-07-31T15:56:44.000Z</time>
      </trkpt>
      <trkpt lat="45.27997" lon="5.23867">
        <ele>600.3</ele>
        <time>2021-07-31T15:56:46.000Z</time>
      </trkpt>
      <trkpt lat="45.28004" lon="5.23848">
        <ele>600.2</ele>
        <time>2021-07-31T15:56:48.000Z</time>
      </trkpt>
      <trkpt lat="45.28011" lon="5.23829">
        <ele>599.5</ele>
        <time>2021-07-31T15:56:50.000Z</time>
      </trkpt>
      <trkpt lat="45.2802" lon="5.2381">
        <ele>598.6</ele>
        <time>2021-07-31T15:56:52.000Z</time>
      </trkpt>
      <trkpt lat="45.2803" lon="5.23792">
        <ele>597.9</ele>
        <time>2021-07-31T15:56:54.000Z</time>
      </trkpt>
      <trkpt lat="45.28039" lon="5.23773">
        <ele>597.6</ele>
        <time>2021-07-31T15:56:56.000Z</time>
      </trkpt>
      <trkpt lat="45.28045" lon="5.23753">
        <ele>597.6</ele>
        <time>2021-07-31T15:56:58.000Z</time>
      </trkpt>
      <trkpt lat="45.28049" lon="5.23732">
        <ele>597.7</ele>
        <time>2021-07-31T15:57:00.000Z</time>
      </trkpt>
      <trkpt lat="45.28054" lon="5.23712">
        <ele>597.9</ele>
        <time>2021-07-31T15:57:02.000Z</time>
      </trkpt>
      <trkpt lat="45.28061" lon="5.23694">
        <ele>597.9</ele>
        <time>2021-07-31T15:57:04.000Z</time>
      </trkpt>
      <trkpt lat="45.28072" lon="5.23679">
        <ele>598</ele>
        <time>2021-07-31T15:57:06.000Z</time>
      </trkpt>
      <trkpt lat="45.28082" lon="5.23667">
        <ele>598</ele>
        <time>2021-07-31T15:57:08.000Z</time>
      </trkpt>
      <trkpt lat="45.28095" lon="5.23654">
        <ele>596.9</ele>
        <time>2021-07-31T15:57:10.000Z</time>
      </trkpt>
      <trkpt lat="45.28107" lon="5.23643">
        <ele>596</ele>
        <time>2021-07-31T15:57:12.000Z</time>
      </trkpt>
      <trkpt lat="45.28119" lon="5.23628">
        <ele>595.6</ele>
        <time>2021-07-31T15:57:14.000Z</time>
      </trkpt>
      <trkpt lat="45.2813" lon="5.23612">
        <ele>595.6</ele>
        <time>2021-07-31T15:57:16.000Z</time>
      </trkpt>
      <trkpt lat="45.28142" lon="5.23599">
        <ele>595.8</ele>
        <time>2021-07-31T15:57:18.000Z</time>
      </trkpt>
      <trkpt lat="45.28154" lon="5.23587">
        <ele>596.1</ele>
        <time>2021-07-31T15:57:20.000Z</time>
      </trkpt>
      <trkpt lat="45.28167" lon="5.23575">
        <ele>596.1</ele>
        <time>2021-07-31T15:57:22.000Z</time>
      </trkpt>
      <trkpt lat="45.28181" lon="5.23563">
        <ele>595.1</ele>
        <time>2021-07-31T15:57:24.000Z</time>
      </trkpt>
      <trkpt lat="45.28194" lon="5.2355">
        <ele>594.5</ele>
        <time>2021-07-31T15:57:26.000Z</time>
      </trkpt>
      <trkpt lat="45.28205" lon="5.23534">
        <ele>594.3</ele>
        <time>2021-07-31T15:57:28.000Z</time>
      </trkpt>
      <trkpt lat="45.28217" lon="5.23521">
        <ele>594.2</ele>
        <time>2021-07-31T15:57:30.000Z</time>
      </trkpt>
      <trkpt lat="45.28231" lon="5.23508">
        <ele>594.2</ele>
        <time>2021-07-31T15:57:32.000Z</time>
      </trkpt>
      <trkpt lat="45.28243" lon="5.23495">
        <ele>594.4</ele>
        <time>2021-07-31T15:57:34.000Z</time>
      </trkpt>
      <trkpt lat="45.28253" lon="5.23478">
        <ele>594.2</ele>
        <time>2021-07-31T15:57:36.000Z</time>
      </trkpt>
      <trkpt lat="45.28263" lon="5.2346">
        <ele>593.6</ele>
        <time>2021-07-31T15:57:38.000Z</time>
      </trkpt>
      <trkpt lat="45.28273" lon="5.23442">
        <ele>593.1</ele>
        <time>2021-07-31T15:57:40.000Z</time>
      </trkpt>
      <trkpt lat="45.28284" lon="5.23426">
        <ele>592.4</ele>
        <time>2021-07-31T15:57:42.000Z</time>
      </trkpt>
      <trkpt lat="45.28297" lon="5.23414">
        <ele>591.6</ele>
        <time>2021-07-31T15:57:44.000Z</time>
      </trkpt>
      <trkpt lat="45.28311" lon="5.23403">
        <ele>590.9</ele>
        <time>2021-07-31T15:57:46.000Z</time>
      </trkpt>
      <trkpt lat="45.28324" lon="5.23393">
        <ele>590.5</ele>
        <time>2021-07-31T15:57:48.000Z</time>
      </trkpt>
      <trkpt lat="45.28336" lon="5.23381">
        <ele>590.4</ele>
        <time>2021-07-31T15:57:50.000Z</time>
      </trkpt>
      <trkpt lat="45.28343" lon="5.23363">
        <ele>591</ele>
        <time>2021-07-31T15:57:52.000Z</time>
      </trkpt>
      <trkpt lat="45.28342" lon="5.2334">
        <ele>592.7</ele>
        <time>2021-07-31T15:57:54.000Z</time>
      </trkpt>
      <trkpt lat="45.28339" lon="5.23319">
        <ele>593.8</ele>
        <time>2021-07-31T15:57:56.000Z</time>
      </trkpt>
      <trkpt lat="45.28337" lon="5.23298">
        <ele>594.6</ele>
        <time>2021-07-31T15:57:58.000Z</time>
      </trkpt>
      <trkpt lat="45.28333" lon="5.23277">
        <ele>595.3</ele>
        <time>2021-07-31T15:58:00.000Z</time>
      </trkpt>
      <trkpt lat="45.2833" lon="5.23256">
        <ele>595.9</ele>
        <time>2021-07-31T15:58:02.000Z</time>
      </trkpt>
      <trkpt lat="45.28328" lon="5.23236">
        <ele>596</ele>
        <time>2021-07-31T15:58:04.000Z</time>
      </trkpt>
      <trkpt lat="45.28325" lon="5.23217">
        <ele>596.1</ele>
        <time>2021-07-31T15:58:06.000Z</time>
      </trkpt>
      <trkpt lat="45.28322" lon="5.23197">
        <ele>596.3</ele>
        <time>2021-07-31T15:58:08.000Z</time>
      </trkpt>
      <trkpt lat="45.2832" lon="5.23179">
        <ele>596.4</ele>
        <time>2021-07-31T15:58:10.000Z</time>
      </trkpt>
      <trkpt lat="45.28318" lon="5.23159">
        <ele>596.5</ele>
        <time>2021-07-31T15:58:12.000Z</time>
      </trkpt>
      <trkpt lat="45.28315" lon="5.23136">
        <ele>596.3</ele>
        <time>2021-07-31T15:58:14.000Z</time>
      </trkpt>
      <trkpt lat="45.28311" lon="5.23115">
        <ele>596.1</ele>
        <time>2021-07-31T15:58:16.000Z</time>
      </trkpt>
      <trkpt lat="45.28305" lon="5.23096">
        <ele>595.8</ele>
        <time>2021-07-31T15:58:18.000Z</time>
      </trkpt>
      <trkpt lat="45.28297" lon="5.23076">
        <ele>595.4</ele>
        <time>2021-07-31T15:58:20.000Z</time>
      </trkpt>
      <trkpt lat="45.28293" lon="5.23054">
        <ele>594.8</ele>
        <time>2021-07-31T15:58:22.000Z</time>
      </trkpt>
      <trkpt lat="45.28292" lon="5.23031">
        <ele>594.2</ele>
        <time>2021-07-31T15:58:24.000Z</time>
      </trkpt>
      <trkpt lat="45.28289" lon="5.2301">
        <ele>593.7</ele>
        <time>2021-07-31T15:58:26.000Z</time>
      </trkpt>
      <trkpt lat="45.28286" lon="5.22989">
        <ele>593.2</ele>
        <time>2021-07-31T15:58:28.000Z</time>
      </trkpt>
      <trkpt lat="45.28281" lon="5.2297">
        <ele>592.7</ele>
        <time>2021-07-31T15:58:30.000Z</time>
      </trkpt>
      <trkpt lat="45.28273" lon="5.22952">
        <ele>592.4</ele>
        <time>2021-07-31T15:58:32.000Z</time>
      </trkpt>
      <trkpt lat="45.28263" lon="5.22936">
        <ele>592.1</ele>
        <time>2021-07-31T15:58:34.000Z</time>
      </trkpt>
      <trkpt lat="45.28252" lon="5.22918">
        <ele>592</ele>
        <time>2021-07-31T15:58:36.000Z</time>
      </trkpt>
      <trkpt lat="45.28241" lon="5.22901">
        <ele>591.2</ele>
        <time>2021-07-31T15:58:38.000Z</time>
      </trkpt>
      <trkpt lat="45.28228" lon="5.22883">
        <ele>590.4</ele>
        <time>2021-07-31T15:58:40.000Z</time>
      </trkpt>
      <trkpt lat="45.28217" lon="5.22867">
        <ele>589.9</ele>
        <time>2021-07-31T15:58:42.000Z</time>
      </trkpt>
      <trkpt lat="45.28206" lon="5.22851">
        <ele>589.5</ele>
        <time>2021-07-31T15:58:44.000Z</time>
      </trkpt>
      <trkpt lat="45.28194" lon="5.22836">
        <ele>589.4</ele>
        <time>2021-07-31T15:58:46.000Z</time>
      </trkpt>
      <trkpt lat="45.28183" lon="5.22822">
        <ele>589.3</ele>
        <time>2021-07-31T15:58:48.000Z</time>
      </trkpt>
      <trkpt lat="45.28175" lon="5.2281">
        <ele>589.2</ele>
        <time>2021-07-31T15:58:50.000Z</time>
      </trkpt>
      <trkpt lat="45.28175" lon="5.22796">
        <ele>588.9</ele>
        <time>2021-07-31T15:58:52.000Z</time>
      </trkpt>
      <trkpt lat="45.28182" lon="5.22785">
        <ele>588.5</ele>
        <time>2021-07-31T15:58:54.000Z</time>
      </trkpt>
      <trkpt lat="45.28191" lon="5.22774">
        <ele>588</ele>
        <time>2021-07-31T15:58:56.000Z</time>
      </trkpt>
      <trkpt lat="45.282" lon="5.2276">
        <ele>587.4</ele>
        <time>2021-07-31T15:58:58.000Z</time>
      </trkpt>
      <trkpt lat="45.2821" lon="5.22745">
        <ele>586.9</ele>
        <time>2021-07-31T15:59:00.000Z</time>
      </trkpt>
      <trkpt lat="45.2822" lon="5.2273">
        <ele>586.5</ele>
        <time>2021-07-31T15:59:02.000Z</time>
      </trkpt>
      <trkpt lat="45.2823" lon="5.22714">
        <ele>586.3</ele>
        <time>2021-07-31T15:59:04.000Z</time>
      </trkpt>
      <trkpt lat="45.28241" lon="5.22699">
        <ele>586.1</ele>
        <time>2021-07-31T15:59:06.000Z</time>
      </trkpt>
      <trkpt lat="45.28251" lon="5.22684">
        <ele>586</ele>
        <time>2021-07-31T15:59:08.000Z</time>
      </trkpt>
      <trkpt lat="45.28258" lon="5.22665">
        <ele>585.9</ele>
        <time>2021-07-31T15:59:10.000Z</time>
      </trkpt>
      <trkpt lat="45.28262" lon="5.22645">
        <ele>586</ele>
        <time>2021-07-31T15:59:12.000Z</time>
      </trkpt>
      <trkpt lat="45.28264" lon="5.22624">
        <ele>586.1</ele>
        <time>2021-07-31T15:59:14.000Z</time>
      </trkpt>
      <trkpt lat="45.28266" lon="5.22604">
        <ele>586.1</ele>
        <time>2021-07-31T15:59:16.000Z</time>
      </trkpt>
      <trkpt lat="45.28268" lon="5.22584">
        <ele>586.1</ele>
        <time>2021-07-31T15:59:18.000Z</time>
      </trkpt>
      <trkpt lat="45.28271" lon="5.22566">
        <ele>585.7</ele>
        <time>2021-07-31T15:59:20.000Z</time>
      </trkpt>
      <trkpt lat="45.28272" lon="5.22546">
        <ele>585.4</ele>
        <time>2021-07-31T15:59:22.000Z</time>
      </trkpt>
      <trkpt lat="45.28274" lon="5.22526">
        <ele>585.1</ele>
        <time>2021-07-31T15:59:24.000Z</time>
      </trkpt>
      <trkpt lat="45.28277" lon="5.22506">
        <ele>584.7</ele>
        <time>2021-07-31T15:59:26.000Z</time>
      </trkpt>
      <trkpt lat="45.28279" lon="5.22486">
        <ele>584.7</ele>
        <time>2021-07-31T15:59:28.000Z</time>
      </trkpt>
      <trkpt lat="45.28281" lon="5.22466">
        <ele>584.8</ele>
        <time>2021-07-31T15:59:30.000Z</time>
      </trkpt>
      <trkpt lat="45.28283" lon="5.22446">
        <ele>584.9</ele>
        <time>2021-07-31T15:59:32.000Z</time>
      </trkpt>
      <trkpt lat="45.28285" lon="5.22426">
        <ele>585</ele>
        <time>2021-07-31T15:59:34.000Z</time>
      </trkpt>
      <trkpt lat="45.28287" lon="5.22404">
        <ele>584.6</ele>
        <time>2021-07-31T15:59:36.000Z</time>
      </trkpt>
      <trkpt lat="45.2829" lon="5.22382">
        <ele>584</ele>
        <time>2021-07-31T15:59:38.000Z</time>
      </trkpt>
      <trkpt lat="45.28292" lon="5.22359">
        <ele>583.3</ele>
        <time>2021-07-31T15:59:40.000Z</time>
      </trkpt>
      <trkpt lat="45.28294" lon="5.22336">
        <ele>582.5</ele>
        <time>2021-07-31T15:59:42.000Z</time>
      </trkpt>
      <trkpt lat="45.28297" lon="5.22313">
        <ele>582.2</ele>
        <time>2021-07-31T15:59:44.000Z</time>
      </trkpt>
      <trkpt lat="45.283" lon="5.22291">
        <ele>581.9</ele>
        <time>2021-07-31T15:59:46.000Z</time>
      </trkpt>
      <trkpt lat="45.28302" lon="5.22269">
        <ele>581.6</ele>
        <time>2021-07-31T15:59:48.000Z</time>
      </trkpt>
      <trkpt lat="45.28304" lon="5.22247">
        <ele>581.4</ele>
        <time>2021-07-31T15:59:50.000Z</time>
      </trkpt>
      <trkpt lat="45.28307" lon="5.22226">
        <ele>582</ele>
        <time>2021-07-31T15:59:52.000Z</time>
      </trkpt>
      <trkpt lat="45.28309" lon="5.22205">
        <ele>582.6</ele>
        <time>2021-07-31T15:59:54.000Z</time>
      </trkpt>
      <trkpt lat="45.28311" lon="5.22184">
        <ele>583.2</ele>
        <time>2021-07-31T15:59:56.000Z</time>
      </trkpt>
      <trkpt lat="45.28314" lon="5.22164">
        <ele>583.8</ele>
        <time>2021-07-31T15:59:58.000Z</time>
      </trkpt>
      <trkpt lat="45.28316" lon="5.22143">
        <ele>583.7</ele>
        <time>2021-07-31T16:00:00.000Z</time>
      </trkpt>
      <trkpt lat="45.28319" lon="5.22123">
        <ele>583.7</ele>
        <time>2021-07-31T16:00:02.000Z</time>
      </trkpt>
      <trkpt lat="45.28322" lon="5.22102">
        <ele>583.8</ele>
        <time>2021-07-31T16:00:04.000Z</time>
      </trkpt>
      <trkpt lat="45.28324" lon="5.22081">
        <ele>583.6</ele>
        <time>2021-07-31T16:00:06.000Z</time>
      </trkpt>
      <trkpt lat="45.28326" lon="5.2206">
        <ele>582.5</ele>
        <time>2021-07-31T16:00:08.000Z</time>
      </trkpt>
      <trkpt lat="45.28328" lon="5.22038">
        <ele>581.3</ele>
        <time>2021-07-31T16:00:10.000Z</time>
      </trkpt>
      <trkpt lat="45.2833" lon="5.22015">
        <ele>579.9</ele>
        <time>2021-07-31T16:00:12.000Z</time>
      </trkpt>
      <trkpt lat="45.28332" lon="5.21991">
        <ele>579.5</ele>
        <time>2021-07-31T16:00:14.000Z</time>
      </trkpt>
      <trkpt lat="45.28334" lon="5.21967">
        <ele>580.6</ele>
        <time>2021-07-31T16:00:16.000Z</time>
      </trkpt>
      <trkpt lat="45.28337" lon="5.21943">
        <ele>581.7</ele>
        <time>2021-07-31T16:00:18.000Z</time>
      </trkpt>
      <trkpt lat="45.28339" lon="5.2192">
        <ele>582.9</ele>
        <time>2021-07-31T16:00:20.000Z</time>
      </trkpt>
      <trkpt lat="45.28343" lon="5.21897">
        <ele>582.3</ele>
        <time>2021-07-31T16:00:22.000Z</time>
      </trkpt>
      <trkpt lat="45.28346" lon="5.21873">
        <ele>581.6</ele>
        <time>2021-07-31T16:00:24.000Z</time>
      </trkpt>
      <trkpt lat="45.2835" lon="5.21848">
        <ele>580.8</ele>
        <time>2021-07-31T16:00:26.000Z</time>
      </trkpt>
      <trkpt lat="45.28352" lon="5.21824">
        <ele>579.8</ele>
        <time>2021-07-31T16:00:28.000Z</time>
      </trkpt>
      <trkpt lat="45.28354" lon="5.218">
        <ele>578</ele>
        <time>2021-07-31T16:00:30.000Z</time>
      </trkpt>
      <trkpt lat="45.28357" lon="5.21776">
        <ele>576.2</ele>
        <time>2021-07-31T16:00:32.000Z</time>
      </trkpt>
      <trkpt lat="45.2836" lon="5.21752">
        <ele>574.4</ele>
        <time>2021-07-31T16:00:34.000Z</time>
      </trkpt>
      <trkpt lat="45.28362" lon="5.21729">
        <ele>573.2</ele>
        <time>2021-07-31T16:00:36.000Z</time>
      </trkpt>
      <trkpt lat="45.28365" lon="5.21708">
        <ele>572</ele>
        <time>2021-07-31T16:00:38.000Z</time>
      </trkpt>
      <trkpt lat="45.28368" lon="5.21687">
        <ele>570.8</ele>
        <time>2021-07-31T16:00:40.000Z</time>
      </trkpt>
      <trkpt lat="45.28369" lon="5.21667">
        <ele>569.8</ele>
        <time>2021-07-31T16:00:42.000Z</time>
      </trkpt>
      <trkpt lat="45.28367" lon="5.21647">
        <ele>570.5</ele>
        <time>2021-07-31T16:00:44.000Z</time>
      </trkpt>
      <trkpt lat="45.28364" lon="5.21628">
        <ele>571.2</ele>
        <time>2021-07-31T16:00:46.000Z</time>
      </trkpt>
      <trkpt lat="45.28362" lon="5.21609">
        <ele>571.9</ele>
        <time>2021-07-31T16:00:48.000Z</time>
      </trkpt>
      <trkpt lat="45.2836" lon="5.2159">
        <ele>572.4</ele>
        <time>2021-07-31T16:00:50.000Z</time>
      </trkpt>
      <trkpt lat="45.28359" lon="5.21571">
        <ele>572.9</ele>
        <time>2021-07-31T16:00:52.000Z</time>
      </trkpt>
      <trkpt lat="45.28357" lon="5.21552">
        <ele>573.3</ele>
        <time>2021-07-31T16:00:54.000Z</time>
      </trkpt>
      <trkpt lat="45.28356" lon="5.21533">
        <ele>573.6</ele>
        <time>2021-07-31T16:00:56.000Z</time>
      </trkpt>
      <trkpt lat="45.28353" lon="5.21513">
        <ele>573.9</ele>
        <time>2021-07-31T16:00:58.000Z</time>
      </trkpt>
      <trkpt lat="45.28351" lon="5.21493">
        <ele>573.9</ele>
        <time>2021-07-31T16:01:00.000Z</time>
      </trkpt>
      <trkpt lat="45.28349" lon="5.21473">
        <ele>573.4</ele>
        <time>2021-07-31T16:01:02.000Z</time>
      </trkpt>
      <trkpt lat="45.28347" lon="5.21454">
        <ele>573</ele>
        <time>2021-07-31T16:01:04.000Z</time>
      </trkpt>
      <trkpt lat="45.28346" lon="5.21436">
        <ele>572.6</ele>
        <time>2021-07-31T16:01:06.000Z</time>
      </trkpt>
      <trkpt lat="45.28344" lon="5.21416">
        <ele>572.2</ele>
        <time>2021-07-31T16:01:08.000Z</time>
      </trkpt>
      <trkpt lat="45.28342" lon="5.21396">
        <ele>571.7</ele>
        <time>2021-07-31T16:01:10.000Z</time>
      </trkpt>
      <trkpt lat="45.2834" lon="5.21376">
        <ele>571.1</ele>
        <time>2021-07-31T16:01:12.000Z</time>
      </trkpt>
      <trkpt lat="45.28338" lon="5.21356">
        <ele>570.6</ele>
        <time>2021-07-31T16:01:14.000Z</time>
      </trkpt>
      <trkpt lat="45.28336" lon="5.21335">
        <ele>570</ele>
        <time>2021-07-31T16:01:16.000Z</time>
      </trkpt>
      <trkpt lat="45.28334" lon="5.21313">
        <ele>569.5</ele>
        <time>2021-07-31T16:01:18.000Z</time>
      </trkpt>
      <trkpt lat="45.28334" lon="5.21292">
        <ele>569</ele>
        <time>2021-07-31T16:01:20.000Z</time>
      </trkpt>
      <trkpt lat="45.28331" lon="5.2127">
        <ele>568.5</ele>
        <time>2021-07-31T16:01:22.000Z</time>
      </trkpt>
      <trkpt lat="45.28333" lon="5.21251">
        <ele>568</ele>
        <time>2021-07-31T16:01:24.000Z</time>
      </trkpt>
      <trkpt lat="45.28343" lon="5.2124">
        <ele>567.6</ele>
        <time>2021-07-31T16:01:26.000Z</time>
      </trkpt>
      <trkpt lat="45.28354" lon="5.21235">
        <ele>567.3</ele>
        <time>2021-07-31T16:01:28.000Z</time>
      </trkpt>
      <trkpt lat="45.28367" lon="5.21233">
        <ele>567.1</ele>
        <time>2021-07-31T16:01:30.000Z</time>
      </trkpt>
      <trkpt lat="45.28379" lon="5.21231">
        <ele>566.8</ele>
        <time>2021-07-31T16:01:32.000Z</time>
      </trkpt>
      <trkpt lat="45.28393" lon="5.21229">
        <ele>566.6</ele>
        <time>2021-07-31T16:01:34.000Z</time>
      </trkpt>
      <trkpt lat="45.28406" lon="5.21225">
        <ele>566.2</ele>
        <time>2021-07-31T16:01:36.000Z</time>
      </trkpt>
      <trkpt lat="45.28419" lon="5.21221">
        <ele>565.9</ele>
        <time>2021-07-31T16:01:38.000Z</time>
      </trkpt>
      <trkpt lat="45.28433" lon="5.21218">
        <ele>565.6</ele>
        <time>2021-07-31T16:01:40.000Z</time>
      </trkpt>
      <trkpt lat="45.28447" lon="5.21216">
        <ele>565.3</ele>
        <time>2021-07-31T16:01:42.000Z</time>
      </trkpt>
      <trkpt lat="45.28461" lon="5.21211">
        <ele>564.8</ele>
        <time>2021-07-31T16:01:44.000Z</time>
      </trkpt>
      <trkpt lat="45.28475" lon="5.21206">
        <ele>564.3</ele>
        <time>2021-07-31T16:01:46.000Z</time>
      </trkpt>
      <trkpt lat="45.28488" lon="5.21203">
        <ele>563.8</ele>
        <time>2021-07-31T16:01:48.000Z</time>
      </trkpt>
      <trkpt lat="45.28501" lon="5.212">
        <ele>563.4</ele>
        <time>2021-07-31T16:01:50.000Z</time>
      </trkpt>
      <trkpt lat="45.28514" lon="5.21197">
        <ele>563.3</ele>
        <time>2021-07-31T16:01:52.000Z</time>
      </trkpt>
      <trkpt lat="45.28527" lon="5.21192">
        <ele>563.1</ele>
        <time>2021-07-31T16:01:54.000Z</time>
      </trkpt>
      <trkpt lat="45.28541" lon="5.21187">
        <ele>562.9</ele>
        <time>2021-07-31T16:01:56.000Z</time>
      </trkpt>
      <trkpt lat="45.28555" lon="5.21183">
        <ele>562.8</ele>
        <time>2021-07-31T16:01:58.000Z</time>
      </trkpt>
      <trkpt lat="45.28568" lon="5.21178">
        <ele>562.6</ele>
        <time>2021-07-31T16:02:00.000Z</time>
      </trkpt>
      <trkpt lat="45.28581" lon="5.21172">
        <ele>562.3</ele>
        <time>2021-07-31T16:02:02.000Z</time>
      </trkpt>
      <trkpt lat="45.28594" lon="5.21166">
        <ele>562.6</ele>
        <time>2021-07-31T16:02:04.000Z</time>
      </trkpt>
      <trkpt lat="45.28606" lon="5.21158">
        <ele>563</ele>
        <time>2021-07-31T16:02:06.000Z</time>
      </trkpt>
      <trkpt lat="45.2862" lon="5.21148">
        <ele>563.3</ele>
        <time>2021-07-31T16:02:08.000Z</time>
      </trkpt>
      <trkpt lat="45.28631" lon="5.21139">
        <ele>563.4</ele>
        <time>2021-07-31T16:02:10.000Z</time>
      </trkpt>
      <trkpt lat="45.28643" lon="5.21128">
        <ele>563.5</ele>
        <time>2021-07-31T16:02:12.000Z</time>
      </trkpt>
      <trkpt lat="45.28655" lon="5.21118">
        <ele>563.5</ele>
        <time>2021-07-31T16:02:14.000Z</time>
      </trkpt>
      <trkpt lat="45.28667" lon="5.21107">
        <ele>563.4</ele>
        <time>2021-07-31T16:02:16.000Z</time>
      </trkpt>
      <trkpt lat="45.28679" lon="5.21095">
        <ele>562.4</ele>
        <time>2021-07-31T16:02:18.000Z</time>
      </trkpt>
      <trkpt lat="45.28691" lon="5.21083">
        <ele>561.3</ele>
        <time>2021-07-31T16:02:20.000Z</time>
      </trkpt>
      <trkpt lat="45.28702" lon="5.2107">
        <ele>560.4</ele>
        <time>2021-07-31T16:02:22.000Z</time>
      </trkpt>
      <trkpt lat="45.28714" lon="5.21056">
        <ele>559.4</ele>
        <time>2021-07-31T16:02:24.000Z</time>
      </trkpt>
      <trkpt lat="45.28724" lon="5.21043">
        <ele>558.5</ele>
        <time>2021-07-31T16:02:26.000Z</time>
      </trkpt>
      <trkpt lat="45.28733" lon="5.2103">
        <ele>557.6</ele>
        <time>2021-07-31T16:02:28.000Z</time>
      </trkpt>
      <trkpt lat="45.28743" lon="5.21016">
        <ele>556.8</ele>
        <time>2021-07-31T16:02:30.000Z</time>
      </trkpt>
      <trkpt lat="45.28751" lon="5.21002">
        <ele>556</ele>
        <time>2021-07-31T16:02:32.000Z</time>
      </trkpt>
      <trkpt lat="45.28755" lon="5.20986">
        <ele>555.1</ele>
        <time>2021-07-31T16:02:34.000Z</time>
      </trkpt>
      <trkpt lat="45.28761" lon="5.20967">
        <ele>553.9</ele>
        <time>2021-07-31T16:02:36.000Z</time>
      </trkpt>
      <trkpt lat="45.28766" lon="5.20947">
        <ele>552.8</ele>
        <time>2021-07-31T16:02:38.000Z</time>
      </trkpt>
      <trkpt lat="45.28772" lon="5.20927">
        <ele>551.7</ele>
        <time>2021-07-31T16:02:40.000Z</time>
      </trkpt>
      <trkpt lat="45.28777" lon="5.20908">
        <ele>550.6</ele>
        <time>2021-07-31T16:02:42.000Z</time>
      </trkpt>
      <trkpt lat="45.28784" lon="5.20891">
        <ele>549.5</ele>
        <time>2021-07-31T16:02:44.000Z</time>
      </trkpt>
      <trkpt lat="45.28794" lon="5.20875">
        <ele>548.4</ele>
        <time>2021-07-31T16:02:46.000Z</time>
      </trkpt>
      <trkpt lat="45.28805" lon="5.2086">
        <ele>547.3</ele>
        <time>2021-07-31T16:02:48.000Z</time>
      </trkpt>
      <trkpt lat="45.28817" lon="5.20847">
        <ele>546.2</ele>
        <time>2021-07-31T16:02:50.000Z</time>
      </trkpt>
      <trkpt lat="45.28829" lon="5.20833">
        <ele>545.2</ele>
        <time>2021-07-31T16:02:52.000Z</time>
      </trkpt>
      <trkpt lat="45.28841" lon="5.2082">
        <ele>543.7</ele>
        <time>2021-07-31T16:02:54.000Z</time>
      </trkpt>
      <trkpt lat="45.28853" lon="5.20811">
        <ele>542.3</ele>
        <time>2021-07-31T16:02:56.000Z</time>
      </trkpt>
      <trkpt lat="45.28868" lon="5.20803">
        <ele>541.2</ele>
        <time>2021-07-31T16:02:58.000Z</time>
      </trkpt>
      <trkpt lat="45.28883" lon="5.20799">
        <ele>540.2</ele>
        <time>2021-07-31T16:03:00.000Z</time>
      </trkpt>
      <trkpt lat="45.28899" lon="5.20797">
        <ele>539.5</ele>
        <time>2021-07-31T16:03:02.000Z</time>
      </trkpt>
      <trkpt lat="45.28916" lon="5.20795">
        <ele>538.7</ele>
        <time>2021-07-31T16:03:04.000Z</time>
      </trkpt>
      <trkpt lat="45.28932" lon="5.20794">
        <ele>537.4</ele>
        <time>2021-07-31T16:03:06.000Z</time>
      </trkpt>
      <trkpt lat="45.28948" lon="5.20797">
        <ele>536.3</ele>
        <time>2021-07-31T16:03:08.000Z</time>
      </trkpt>
      <trkpt lat="45.28963" lon="5.20805">
        <ele>535.4</ele>
        <time>2021-07-31T16:03:10.000Z</time>
      </trkpt>
      <trkpt lat="45.28976" lon="5.20816">
        <ele>534.9</ele>
        <time>2021-07-31T16:03:12.000Z</time>
      </trkpt>
      <trkpt lat="45.28986" lon="5.20831">
        <ele>534.9</ele>
        <time>2021-07-31T16:03:14.000Z</time>
      </trkpt>
      <trkpt lat="45.28994" lon="5.20847">
        <ele>534.9</ele>
        <time>2021-07-31T16:03:16.000Z</time>
      </trkpt>
      <trkpt lat="45.29001" lon="5.20866">
        <ele>534.9</ele>
        <time>2021-07-31T16:03:18.000Z</time>
      </trkpt>
      <trkpt lat="45.29009" lon="5.20884">
        <ele>534.3</ele>
        <time>2021-07-31T16:03:20.000Z</time>
      </trkpt>
      <trkpt lat="45.29016" lon="5.209">
        <ele>533.7</ele>
        <time>2021-07-31T16:03:22.000Z</time>
      </trkpt>
      <trkpt lat="45.29023" lon="5.20915">
        <ele>533</ele>
        <time>2021-07-31T16:03:24.000Z</time>
      </trkpt>
      <trkpt lat="45.29032" lon="5.20928">
        <ele>531.5</ele>
        <time>2021-07-31T16:03:26.000Z</time>
      </trkpt>
      <trkpt lat="45.29043" lon="5.20938">
        <ele>529.7</ele>
        <time>2021-07-31T16:03:28.000Z</time>
      </trkpt>
      <trkpt lat="45.29055" lon="5.20943">
        <ele>527.7</ele>
        <time>2021-07-31T16:03:30.000Z</time>
      </trkpt>
      <trkpt lat="45.29069" lon="5.20944">
        <ele>525.3</ele>
        <time>2021-07-31T16:03:32.000Z</time>
      </trkpt>
      <trkpt lat="45.29083" lon="5.20939">
        <ele>523.1</ele>
        <time>2021-07-31T16:03:34.000Z</time>
      </trkpt>
      <trkpt lat="45.29095" lon="5.20934">
        <ele>522</ele>
        <time>2021-07-31T16:03:36.000Z</time>
      </trkpt>
      <trkpt lat="45.29107" lon="5.20926">
        <ele>521</ele>
        <time>2021-07-31T16:03:38.000Z</time>
      </trkpt>
      <trkpt lat="45.29118" lon="5.20913">
        <ele>520</ele>
        <time>2021-07-31T16:03:40.000Z</time>
      </trkpt>
      <trkpt lat="45.29125" lon="5.20898">
        <ele>519.1</ele>
        <time>2021-07-31T16:03:42.000Z</time>
      </trkpt>
      <trkpt lat="45.29128" lon="5.20881">
        <ele>518.3</ele>
        <time>2021-07-31T16:03:44.000Z</time>
      </trkpt>
      <trkpt lat="45.29129" lon="5.20862">
        <ele>517.8</ele>
        <time>2021-07-31T16:03:46.000Z</time>
      </trkpt>
      <trkpt lat="45.29128" lon="5.20844">
        <ele>517.4</ele>
        <time>2021-07-31T16:03:48.000Z</time>
      </trkpt>
      <trkpt lat="45.29124" lon="5.20827">
        <ele>517.4</ele>
        <time>2021-07-31T16:03:50.000Z</time>
      </trkpt>
      <trkpt lat="45.29117" lon="5.20809">
        <ele>517.4</ele>
        <time>2021-07-31T16:03:52.000Z</time>
      </trkpt>
      <trkpt lat="45.2911" lon="5.20792">
        <ele>517.4</ele>
        <time>2021-07-31T16:03:54.000Z</time>
      </trkpt>
      <trkpt lat="45.29103" lon="5.20774">
        <ele>517.3</ele>
        <time>2021-07-31T16:03:56.000Z</time>
      </trkpt>
      <trkpt lat="45.29095" lon="5.20757">
        <ele>517.3</ele>
        <time>2021-07-31T16:03:58.000Z</time>
      </trkpt>
      <trkpt lat="45.29089" lon="5.20739">
        <ele>517.7</ele>
        <time>2021-07-31T16:04:00.000Z</time>
      </trkpt>
      <trkpt lat="45.29084" lon="5.2072">
        <ele>518.3</ele>
        <time>2021-07-31T16:04:02.000Z</time>
      </trkpt>
      <trkpt lat="45.29082" lon="5.20699">
        <ele>518.7</ele>
        <time>2021-07-31T16:04:04.000Z</time>
      </trkpt>
      <trkpt lat="45.29083" lon="5.20678">
        <ele>518.9</ele>
        <time>2021-07-31T16:04:06.000Z</time>
      </trkpt>
      <trkpt lat="45.29086" lon="5.20658">
        <ele>518.9</ele>
        <time>2021-07-31T16:04:08.000Z</time>
      </trkpt>
      <trkpt lat="45.29091" lon="5.20639">
        <ele>518.7</ele>
        <time>2021-07-31T16:04:10.000Z</time>
      </trkpt>
      <trkpt lat="45.29099" lon="5.20622">
        <ele>518.3</ele>
        <time>2021-07-31T16:04:12.000Z</time>
      </trkpt>
      <trkpt lat="45.29109" lon="5.20605">
        <ele>518</ele>
        <time>2021-07-31T16:04:14.000Z</time>
      </trkpt>
      <trkpt lat="45.29119" lon="5.20589">
        <ele>517.7</ele>
        <time>2021-07-31T16:04:16.000Z</time>
      </trkpt>
      <trkpt lat="45.29131" lon="5.20574">
        <ele>517.2</ele>
        <time>2021-07-31T16:04:18.000Z</time>
      </trkpt>
      <trkpt lat="45.29143" lon="5.20559">
        <ele>516.6</ele>
        <time>2021-07-31T16:04:20.000Z</time>
      </trkpt>
      <trkpt lat="45.29155" lon="5.20544">
        <ele>516</ele>
        <time>2021-07-31T16:04:22.000Z</time>
      </trkpt>
      <trkpt lat="45.29168" lon="5.20529">
        <ele>515.3</ele>
        <time>2021-07-31T16:04:24.000Z</time>
      </trkpt>
      <trkpt lat="45.29179" lon="5.20513">
        <ele>514.7</ele>
        <time>2021-07-31T16:04:26.000Z</time>
      </trkpt>
      <trkpt lat="45.29191" lon="5.20498">
        <ele>514.2</ele>
        <time>2021-07-31T16:04:28.000Z</time>
      </trkpt>
      <trkpt lat="45.29202" lon="5.20485">
        <ele>513.9</ele>
        <time>2021-07-31T16:04:30.000Z</time>
      </trkpt>
      <trkpt lat="45.29216" lon="5.20472">
        <ele>513.6</ele>
        <time>2021-07-31T16:04:32.000Z</time>
      </trkpt>
      <trkpt lat="45.29229" lon="5.2046">
        <ele>513.2</ele>
        <time>2021-07-31T16:04:34.000Z</time>
      </trkpt>
      <trkpt lat="45.29243" lon="5.20448">
        <ele>512.9</ele>
        <time>2021-07-31T16:04:36.000Z</time>
      </trkpt>
      <trkpt lat="45.29257" lon="5.20437">
        <ele>512.3</ele>
        <time>2021-07-31T16:04:38.000Z</time>
      </trkpt>
      <trkpt lat="45.2927" lon="5.20425">
        <ele>511.7</ele>
        <time>2021-07-31T16:04:40.000Z</time>
      </trkpt>
      <trkpt lat="45.29283" lon="5.20412">
        <ele>511.1</ele>
        <time>2021-07-31T16:04:42.000Z</time>
      </trkpt>
      <trkpt lat="45.29296" lon="5.20399">
        <ele>510.5</ele>
        <time>2021-07-31T16:04:44.000Z</time>
      </trkpt>
      <trkpt lat="45.29308" lon="5.20385">
        <ele>510.2</ele>
        <time>2021-07-31T16:04:46.000Z</time>
      </trkpt>
      <trkpt lat="45.2932" lon="5.20373">
        <ele>510.1</ele>
        <time>2021-07-31T16:04:48.000Z</time>
      </trkpt>
      <trkpt lat="45.29332" lon="5.2036">
        <ele>510.1</ele>
        <time>2021-07-31T16:04:50.000Z</time>
      </trkpt>
      <trkpt lat="45.29344" lon="5.20347">
        <ele>510.5</ele>
        <time>2021-07-31T16:04:52.000Z</time>
      </trkpt>
      <trkpt lat="45.29356" lon="5.20334">
        <ele>510.7</ele>
        <time>2021-07-31T16:04:54.000Z</time>
      </trkpt>
      <trkpt lat="45.29367" lon="5.20322">
        <ele>510.5</ele>
        <time>2021-07-31T16:04:56.000Z</time>
      </trkpt>
      <trkpt lat="45.29378" lon="5.20309">
        <ele>510.2</ele>
        <time>2021-07-31T16:04:58.000Z</time>
      </trkpt>
      <trkpt lat="45.2939" lon="5.20298">
        <ele>509.9</ele>
        <time>2021-07-31T16:05:00.000Z</time>
      </trkpt>
      <trkpt lat="45.29402" lon="5.20287">
        <ele>509.6</ele>
        <time>2021-07-31T16:05:02.000Z</time>
      </trkpt>
      <trkpt lat="45.29414" lon="5.20274">
        <ele>509.3</ele>
        <time>2021-07-31T16:05:04.000Z</time>
      </trkpt>
      <trkpt lat="45.29425" lon="5.20262">
        <ele>508.8</ele>
        <time>2021-07-31T16:05:06.000Z</time>
      </trkpt>
      <trkpt lat="45.29437" lon="5.20251">
        <ele>508.3</ele>
        <time>2021-07-31T16:05:08.000Z</time>
      </trkpt>
      <trkpt lat="45.29448" lon="5.20239">
        <ele>508</ele>
        <time>2021-07-31T16:05:10.000Z</time>
      </trkpt>
      <trkpt lat="45.29458" lon="5.20226">
        <ele>507.8</ele>
        <time>2021-07-31T16:05:12.000Z</time>
      </trkpt>
      <trkpt lat="45.29465" lon="5.20211">
        <ele>507.7</ele>
        <time>2021-07-31T16:05:14.000Z</time>
      </trkpt>
      <trkpt lat="45.2947" lon="5.20195">
        <ele>507.7</ele>
        <time>2021-07-31T16:05:16.000Z</time>
      </trkpt>
      <trkpt lat="45.29475" lon="5.20177">
        <ele>507.8</ele>
        <time>2021-07-31T16:05:18.000Z</time>
      </trkpt>
      <trkpt lat="45.29481" lon="5.20159">
        <ele>507.7</ele>
        <time>2021-07-31T16:05:20.000Z</time>
      </trkpt>
      <trkpt lat="45.29487" lon="5.20142">
        <ele>507.7</ele>
        <time>2021-07-31T16:05:22.000Z</time>
      </trkpt>
      <trkpt lat="45.29492" lon="5.20125">
        <ele>507.7</ele>
        <time>2021-07-31T16:05:24.000Z</time>
      </trkpt>
      <trkpt lat="45.29495" lon="5.20107">
        <ele>507.8</ele>
        <time>2021-07-31T16:05:26.000Z</time>
      </trkpt>
      <trkpt lat="45.29497" lon="5.20089">
        <ele>508</ele>
        <time>2021-07-31T16:05:28.000Z</time>
      </trkpt>
      <trkpt lat="45.29496" lon="5.20071">
        <ele>508.3</ele>
        <time>2021-07-31T16:05:30.000Z</time>
      </trkpt>
      <trkpt lat="45.29494" lon="5.20051">
        <ele>508.8</ele>
        <time>2021-07-31T16:05:32.000Z</time>
      </trkpt>
      <trkpt lat="45.29488" lon="5.20033">
        <ele>509.3</ele>
        <time>2021-07-31T16:05:34.000Z</time>
      </trkpt>
      <trkpt lat="45.29479" lon="5.20016">
        <ele>509.7</ele>
        <time>2021-07-31T16:05:36.000Z</time>
      </trkpt>
      <trkpt lat="45.29469" lon="5.20001">
        <ele>510</ele>
        <time>2021-07-31T16:05:38.000Z</time>
      </trkpt>
      <trkpt lat="45.29457" lon="5.19987">
        <ele>509.9</ele>
        <time>2021-07-31T16:05:40.000Z</time>
      </trkpt>
      <trkpt lat="45.29447" lon="5.19973">
        <ele>510</ele>
        <time>2021-07-31T16:05:42.000Z</time>
      </trkpt>
      <trkpt lat="45.29436" lon="5.19959">
        <ele>510.2</ele>
        <time>2021-07-31T16:05:44.000Z</time>
      </trkpt>
      <trkpt lat="45.29425" lon="5.19945">
        <ele>510.5</ele>
        <time>2021-07-31T16:05:46.000Z</time>
      </trkpt>
      <trkpt lat="45.29415" lon="5.1993">
        <ele>510.8</ele>
        <time>2021-07-31T16:05:48.000Z</time>
      </trkpt>
      <trkpt lat="45.29403" lon="5.19915">
        <ele>510.6</ele>
        <time>2021-07-31T16:05:50.000Z</time>
      </trkpt>
      <trkpt lat="45.29391" lon="5.199">
        <ele>510.1</ele>
        <time>2021-07-31T16:05:52.000Z</time>
      </trkpt>
      <trkpt lat="45.29378" lon="5.19887">
        <ele>509.5</ele>
        <time>2021-07-31T16:05:54.000Z</time>
      </trkpt>
      <trkpt lat="45.29365" lon="5.19874">
        <ele>508.9</ele>
        <time>2021-07-31T16:05:56.000Z</time>
      </trkpt>
      <trkpt lat="45.29352" lon="5.1986">
        <ele>508.2</ele>
        <time>2021-07-31T16:05:58.000Z</time>
      </trkpt>
      <trkpt lat="45.2934" lon="5.19844">
        <ele>507.5</ele>
        <time>2021-07-31T16:06:00.000Z</time>
      </trkpt>
      <trkpt lat="45.2933" lon="5.19828">
        <ele>506.9</ele>
        <time>2021-07-31T16:06:02.000Z</time>
      </trkpt>
      <trkpt lat="45.29325" lon="5.19813">
        <ele>506.3</ele>
        <time>2021-07-31T16:06:04.000Z</time>
      </trkpt>
      <trkpt lat="45.2932" lon="5.198">
        <ele>505.9</ele>
        <time>2021-07-31T16:06:06.000Z</time>
      </trkpt>
      <trkpt lat="45.2931" lon="5.19793">
        <ele>505.8</ele>
        <time>2021-07-31T16:06:08.000Z</time>
      </trkpt>
      <trkpt lat="45.29298" lon="5.1979">
        <ele>505.8</ele>
        <time>2021-07-31T16:06:10.000Z</time>
      </trkpt>
      <trkpt lat="45.29286" lon="5.19783">
        <ele>505.7</ele>
        <time>2021-07-31T16:06:12.000Z</time>
      </trkpt>
      <trkpt lat="45.29275" lon="5.19778">
        <ele>505.7</ele>
        <time>2021-07-31T16:06:14.000Z</time>
      </trkpt>
      <trkpt lat="45.29263" lon="5.19771">
        <ele>505.6</ele>
        <time>2021-07-31T16:06:16.000Z</time>
      </trkpt>
      <trkpt lat="45.29258" lon="5.19755">
        <ele>505.1</ele>
        <time>2021-07-31T16:06:18.000Z</time>
      </trkpt>
      <trkpt lat="45.29263" lon="5.19739">
        <ele>504.8</ele>
        <time>2021-07-31T16:06:20.000Z</time>
      </trkpt>
      <trkpt lat="45.29266" lon="5.19727">
        <ele>504.7</ele>
        <time>2021-07-31T16:06:22.000Z</time>
      </trkpt>
      <trkpt lat="45.29273" lon="5.19709">
        <ele>504.4</ele>
        <time>2021-07-31T16:06:25.000Z</time>
      </trkpt>
      <trkpt lat="45.29276" lon="5.19695">
        <ele>504.3</ele>
        <time>2021-07-31T16:06:27.000Z</time>
      </trkpt>
      <trkpt lat="45.29279" lon="5.19682">
        <ele>504.1</ele>
        <time>2021-07-31T16:06:29.000Z</time>
      </trkpt>
      <trkpt lat="45.29283" lon="5.19668">
        <ele>503.8</ele>
        <time>2021-07-31T16:06:31.000Z</time>
      </trkpt>
      <trkpt lat="45.29287" lon="5.19654">
        <ele>504</ele>
        <time>2021-07-31T16:06:33.000Z</time>
      </trkpt>
      <trkpt lat="45.2929" lon="5.19639">
        <ele>504.2</ele>
        <time>2021-07-31T16:06:35.000Z</time>
      </trkpt>
      <trkpt lat="45.29292" lon="5.19623">
        <ele>504.5</ele>
        <time>2021-07-31T16:06:37.000Z</time>
      </trkpt>
      <trkpt lat="45.29292" lon="5.19606">
        <ele>505</ele>
        <time>2021-07-31T16:06:39.000Z</time>
      </trkpt>
      <trkpt lat="45.29291" lon="5.19591">
        <ele>505.3</ele>
        <time>2021-07-31T16:06:41.000Z</time>
      </trkpt>
      <trkpt lat="45.29289" lon="5.19575">
        <ele>505.9</ele>
        <time>2021-07-31T16:06:43.000Z</time>
      </trkpt>
      <trkpt lat="45.29288" lon="5.19559">
        <ele>506.4</ele>
        <time>2021-07-31T16:06:45.000Z</time>
      </trkpt>
      <trkpt lat="45.29286" lon="5.19543">
        <ele>507</ele>
        <time>2021-07-31T16:06:47.000Z</time>
      </trkpt>
      <trkpt lat="45.29282" lon="5.19528">
        <ele>507.5</ele>
        <time>2021-07-31T16:06:49.000Z</time>
      </trkpt>
      <trkpt lat="45.29279" lon="5.19512">
        <ele>508</ele>
        <time>2021-07-31T16:06:51.000Z</time>
      </trkpt>
      <trkpt lat="45.29277" lon="5.19494">
        <ele>508.6</ele>
        <time>2021-07-31T16:06:53.000Z</time>
      </trkpt>
      <trkpt lat="45.29278" lon="5.19477">
        <ele>509.4</ele>
        <time>2021-07-31T16:06:55.000Z</time>
      </trkpt>
      <trkpt lat="45.29279" lon="5.19463">
        <ele>510</ele>
        <time>2021-07-31T16:06:57.000Z</time>
      </trkpt>
      <trkpt lat="45.2928" lon="5.19449">
        <ele>510.6</ele>
        <time>2021-07-31T16:06:59.000Z</time>
      </trkpt>
      <trkpt lat="45.2928" lon="5.19432">
        <ele>511.2</ele>
        <time>2021-07-31T16:07:02.000Z</time>
      </trkpt>
      <trkpt lat="45.2928" lon="5.19417">
        <ele>511.9</ele>
        <time>2021-07-31T16:07:05.000Z</time>
      </trkpt>
      <trkpt lat="45.29279" lon="5.19403">
        <ele>511.6</ele>
        <time>2021-07-31T16:07:08.000Z</time>
      </trkpt>
      <trkpt lat="45.2928" lon="5.19389">
        <ele>511.2</ele>
        <time>2021-07-31T16:07:11.000Z</time>
      </trkpt>
      <trkpt lat="45.29281" lon="5.19376">
        <ele>510.8</ele>
        <time>2021-07-31T16:07:14.000Z</time>
      </trkpt>
      <trkpt lat="45.29281" lon="5.19358">
        <ele>510.3</ele>
        <time>2021-07-31T16:07:17.000Z</time>
      </trkpt>
      <trkpt lat="45.29281" lon="5.19345">
        <ele>509.9</ele>
        <time>2021-07-31T16:07:19.000Z</time>
      </trkpt>
      <trkpt lat="45.29282" lon="5.19331">
        <ele>509.6</ele>
        <time>2021-07-31T16:07:21.000Z</time>
      </trkpt>
      <trkpt lat="45.29283" lon="5.19314">
        <ele>509.2</ele>
        <time>2021-07-31T16:07:23.000Z</time>
      </trkpt>
      <trkpt lat="45.29284" lon="5.19297">
        <ele>508.8</ele>
        <time>2021-07-31T16:07:25.000Z</time>
      </trkpt>
      <trkpt lat="45.29285" lon="5.19279">
        <ele>508.4</ele>
        <time>2021-07-31T16:07:27.000Z</time>
      </trkpt>
      <trkpt lat="45.29286" lon="5.19262">
        <ele>508</ele>
        <time>2021-07-31T16:07:29.000Z</time>
      </trkpt>
      <trkpt lat="45.29285" lon="5.19245">
        <ele>507.7</ele>
        <time>2021-07-31T16:07:31.000Z</time>
      </trkpt>
      <trkpt lat="45.29283" lon="5.19226">
        <ele>507.8</ele>
        <time>2021-07-31T16:07:33.000Z</time>
      </trkpt>
      <trkpt lat="45.29282" lon="5.19206">
        <ele>507.8</ele>
        <time>2021-07-31T16:07:35.000Z</time>
      </trkpt>
      <trkpt lat="45.2928" lon="5.19189">
        <ele>507.9</ele>
        <time>2021-07-31T16:07:37.000Z</time>
      </trkpt>
      <trkpt lat="45.29276" lon="5.19173">
        <ele>508.1</ele>
        <time>2021-07-31T16:07:39.000Z</time>
      </trkpt>
      <trkpt lat="45.29273" lon="5.19157">
        <ele>508.3</ele>
        <time>2021-07-31T16:07:41.000Z</time>
      </trkpt>
      <trkpt lat="45.29269" lon="5.1914">
        <ele>508.6</ele>
        <time>2021-07-31T16:07:43.000Z</time>
      </trkpt>
      <trkpt lat="45.29265" lon="5.19125">
        <ele>508.9</ele>
        <time>2021-07-31T16:07:45.000Z</time>
      </trkpt>
      <trkpt lat="45.29261" lon="5.1911">
        <ele>509.2</ele>
        <time>2021-07-31T16:07:47.000Z</time>
      </trkpt>
      <trkpt lat="45.29255" lon="5.19094">
        <ele>509.6</ele>
        <time>2021-07-31T16:07:49.000Z</time>
      </trkpt>
      <trkpt lat="45.29251" lon="5.19075">
        <ele>509.7</ele>
        <time>2021-07-31T16:07:51.000Z</time>
      </trkpt>
      <trkpt lat="45.29248" lon="5.19056">
        <ele>509.4</ele>
        <time>2021-07-31T16:07:53.000Z</time>
      </trkpt>
      <trkpt lat="45.29245" lon="5.19037">
        <ele>509</ele>
        <time>2021-07-31T16:07:55.000Z</time>
      </trkpt>
      <trkpt lat="45.29245" lon="5.19018">
        <ele>508.6</ele>
        <time>2021-07-31T16:07:57.000Z</time>
      </trkpt>
      <trkpt lat="45.29245" lon="5.19">
        <ele>508.2</ele>
        <time>2021-07-31T16:07:59.000Z</time>
      </trkpt>
      <trkpt lat="45.29245" lon="5.18983">
        <ele>508</ele>
        <time>2021-07-31T16:08:01.000Z</time>
      </trkpt>
      <trkpt lat="45.29245" lon="5.18965">
        <ele>507.7</ele>
        <time>2021-07-31T16:08:03.000Z</time>
      </trkpt>
      <trkpt lat="45.29246" lon="5.18944">
        <ele>507.4</ele>
        <time>2021-07-31T16:08:05.000Z</time>
      </trkpt>
      <trkpt lat="45.29247" lon="5.18922">
        <ele>507.1</ele>
        <time>2021-07-31T16:08:07.000Z</time>
      </trkpt>
      <trkpt lat="45.29248" lon="5.189">
        <ele>507.3</ele>
        <time>2021-07-31T16:08:09.000Z</time>
      </trkpt>
      <trkpt lat="45.29248" lon="5.18877">
        <ele>507.5</ele>
        <time>2021-07-31T16:08:11.000Z</time>
      </trkpt>
      <trkpt lat="45.29249" lon="5.18857">
        <ele>507.7</ele>
        <time>2021-07-31T16:08:13.000Z</time>
      </trkpt>
      <trkpt lat="45.29248" lon="5.18837">
        <ele>508</ele>
        <time>2021-07-31T16:08:15.000Z</time>
      </trkpt>
      <trkpt lat="45.29247" lon="5.18819">
        <ele>507.9</ele>
        <time>2021-07-31T16:08:17.000Z</time>
      </trkpt>
      <trkpt lat="45.29246" lon="5.18802">
        <ele>507.7</ele>
        <time>2021-07-31T16:08:19.000Z</time>
      </trkpt>
      <trkpt lat="45.29246" lon="5.18785">
        <ele>507.5</ele>
        <time>2021-07-31T16:08:21.000Z</time>
      </trkpt>
      <trkpt lat="45.29245" lon="5.18769">
        <ele>507.3</ele>
        <time>2021-07-31T16:08:23.000Z</time>
      </trkpt>
      <trkpt lat="45.29242" lon="5.18754">
        <ele>507.2</ele>
        <time>2021-07-31T16:08:25.000Z</time>
      </trkpt>
      <trkpt lat="45.2924" lon="5.18736">
        <ele>506.9</ele>
        <time>2021-07-31T16:08:27.000Z</time>
      </trkpt>
      <trkpt lat="45.29238" lon="5.18717">
        <ele>506.6</ele>
        <time>2021-07-31T16:08:29.000Z</time>
      </trkpt>
      <trkpt lat="45.29236" lon="5.18701">
        <ele>506.4</ele>
        <time>2021-07-31T16:08:31.000Z</time>
      </trkpt>
      <trkpt lat="45.29233" lon="5.18685">
        <ele>506.1</ele>
        <time>2021-07-31T16:08:33.000Z</time>
      </trkpt>
      <trkpt lat="45.29231" lon="5.18668">
        <ele>505.9</ele>
        <time>2021-07-31T16:08:35.000Z</time>
      </trkpt>
      <trkpt lat="45.29229" lon="5.18651">
        <ele>505.8</ele>
        <time>2021-07-31T16:08:37.000Z</time>
      </trkpt>
      <trkpt lat="45.29228" lon="5.18635">
        <ele>505.7</ele>
        <time>2021-07-31T16:08:39.000Z</time>
      </trkpt>
      <trkpt lat="45.29226" lon="5.18618">
        <ele>505.6</ele>
        <time>2021-07-31T16:08:41.000Z</time>
      </trkpt>
      <trkpt lat="45.29224" lon="5.18601">
        <ele>505.4</ele>
        <time>2021-07-31T16:08:43.000Z</time>
      </trkpt>
      <trkpt lat="45.29224" lon="5.18582">
        <ele>505.3</ele>
        <time>2021-07-31T16:08:45.000Z</time>
      </trkpt>
      <trkpt lat="45.29225" lon="5.18564">
        <ele>505.3</ele>
        <time>2021-07-31T16:08:47.000Z</time>
      </trkpt>
      <trkpt lat="45.29226" lon="5.18545">
        <ele>505.4</ele>
        <time>2021-07-31T16:08:49.000Z</time>
      </trkpt>
      <trkpt lat="45.29226" lon="5.18527">
        <ele>505.5</ele>
        <time>2021-07-31T16:08:51.000Z</time>
      </trkpt>
      <trkpt lat="45.29228" lon="5.18508">
        <ele>505.5</ele>
        <time>2021-07-31T16:08:53.000Z</time>
      </trkpt>
      <trkpt lat="45.29233" lon="5.1849">
        <ele>505.6</ele>
        <time>2021-07-31T16:08:55.000Z</time>
      </trkpt>
      <trkpt lat="45.29242" lon="5.18476">
        <ele>505.5</ele>
        <time>2021-07-31T16:08:57.000Z</time>
      </trkpt>
      <trkpt lat="45.29254" lon="5.18464">
        <ele>505.2</ele>
        <time>2021-07-31T16:08:59.000Z</time>
      </trkpt>
      <trkpt lat="45.29266" lon="5.18454">
        <ele>504.6</ele>
        <time>2021-07-31T16:09:01.000Z</time>
      </trkpt>
      <trkpt lat="45.29277" lon="5.18446">
        <ele>503.9</ele>
        <time>2021-07-31T16:09:03.000Z</time>
      </trkpt>
      <trkpt lat="45.29288" lon="5.18438">
        <ele>503.2</ele>
        <time>2021-07-31T16:09:05.000Z</time>
      </trkpt>
      <trkpt lat="45.29299" lon="5.18429">
        <ele>502.5</ele>
        <time>2021-07-31T16:09:07.000Z</time>
      </trkpt>
      <trkpt lat="45.2931" lon="5.1842">
        <ele>501.7</ele>
        <time>2021-07-31T16:09:09.000Z</time>
      </trkpt>
      <trkpt lat="45.29318" lon="5.18407">
        <ele>501.3</ele>
        <time>2021-07-31T16:09:11.000Z</time>
      </trkpt>
      <trkpt lat="45.2932" lon="5.18391">
        <ele>501.5</ele>
        <time>2021-07-31T16:09:13.000Z</time>
      </trkpt>
      <trkpt lat="45.2932" lon="5.18375">
        <ele>501.9</ele>
        <time>2021-07-31T16:09:15.000Z</time>
      </trkpt>
      <trkpt lat="45.29319" lon="5.18361">
        <ele>502.3</ele>
        <time>2021-07-31T16:09:17.000Z</time>
      </trkpt>
      <trkpt lat="45.29316" lon="5.18348">
        <ele>502.7</ele>
        <time>2021-07-31T16:09:19.000Z</time>
      </trkpt>
      <trkpt lat="45.29314" lon="5.18333">
        <ele>503.1</ele>
        <time>2021-07-31T16:09:21.000Z</time>
      </trkpt>
      <trkpt lat="45.29314" lon="5.18315">
        <ele>502.9</ele>
        <time>2021-07-31T16:09:24.000Z</time>
      </trkpt>
      <trkpt lat="45.29309" lon="5.18299">
        <ele>502.9</ele>
        <time>2021-07-31T16:09:27.000Z</time>
      </trkpt>
      <trkpt lat="45.29306" lon="5.18282">
        <ele>502.8</ele>
        <time>2021-07-31T16:09:30.000Z</time>
      </trkpt>
      <trkpt lat="45.29305" lon="5.18269">
        <ele>502.6</ele>
        <time>2021-07-31T16:09:32.000Z</time>
      </trkpt>
      <trkpt lat="45.29309" lon="5.18255">
        <ele>502.3</ele>
        <time>2021-07-31T16:09:34.000Z</time>
      </trkpt>
      <trkpt lat="45.29316" lon="5.18243">
        <ele>501.8</ele>
        <time>2021-07-31T16:09:36.000Z</time>
      </trkpt>
      <trkpt lat="45.29324" lon="5.1823">
        <ele>501.4</ele>
        <time>2021-07-31T16:09:38.000Z</time>
      </trkpt>
      <trkpt lat="45.29329" lon="5.18217">
        <ele>501.1</ele>
        <time>2021-07-31T16:09:40.000Z</time>
      </trkpt>
      <trkpt lat="45.29337" lon="5.18204">
        <ele>500.9</ele>
        <time>2021-07-31T16:09:42.000Z</time>
      </trkpt>
      <trkpt lat="45.29345" lon="5.18192">
        <ele>500.6</ele>
        <time>2021-07-31T16:09:44.000Z</time>
      </trkpt>
      <trkpt lat="45.29356" lon="5.18185">
        <ele>500.3</ele>
        <time>2021-07-31T16:09:46.000Z</time>
      </trkpt>
      <trkpt lat="45.29366" lon="5.1818">
        <ele>500.1</ele>
        <time>2021-07-31T16:09:48.000Z</time>
      </trkpt>
      <trkpt lat="45.29376" lon="5.18172">
        <ele>499.9</ele>
        <time>2021-07-31T16:09:50.000Z</time>
      </trkpt>
      <trkpt lat="45.29387" lon="5.18164">
        <ele>499.7</ele>
        <time>2021-07-31T16:09:52.000Z</time>
      </trkpt>
      <trkpt lat="45.29398" lon="5.18158">
        <ele>499.5</ele>
        <time>2021-07-31T16:09:54.000Z</time>
      </trkpt>
      <trkpt lat="45.29409" lon="5.18155">
        <ele>499.3</ele>
        <time>2021-07-31T16:09:56.000Z</time>
      </trkpt>
      <trkpt lat="45.29421" lon="5.18151">
        <ele>499</ele>
        <time>2021-07-31T16:09:58.000Z</time>
      </trkpt>
      <trkpt lat="45.29431" lon="5.18144">
        <ele>498.5</ele>
        <time>2021-07-31T16:10:00.000Z</time>
      </trkpt>
      <trkpt lat="45.29441" lon="5.18133">
        <ele>498.2</ele>
        <time>2021-07-31T16:10:02.000Z</time>
      </trkpt>
      <trkpt lat="45.29452" lon="5.18121">
        <ele>497.9</ele>
        <time>2021-07-31T16:10:04.000Z</time>
      </trkpt>
      <trkpt lat="45.29463" lon="5.18113">
        <ele>497.6</ele>
        <time>2021-07-31T16:10:06.000Z</time>
      </trkpt>
      <trkpt lat="45.29476" lon="5.18109">
        <ele>497.1</ele>
        <time>2021-07-31T16:10:08.000Z</time>
      </trkpt>
      <trkpt lat="45.29488" lon="5.18105">
        <ele>496.8</ele>
        <time>2021-07-31T16:10:10.000Z</time>
      </trkpt>
      <trkpt lat="45.295" lon="5.18097">
        <ele>496.5</ele>
        <time>2021-07-31T16:10:12.000Z</time>
      </trkpt>
      <trkpt lat="45.29507" lon="5.18084">
        <ele>496.6</ele>
        <time>2021-07-31T16:10:14.000Z</time>
      </trkpt>
      <trkpt lat="45.29509" lon="5.18068">
        <ele>496.4</ele>
        <time>2021-07-31T16:10:16.000Z</time>
      </trkpt>
      <trkpt lat="45.29506" lon="5.18052">
        <ele>496.3</ele>
        <time>2021-07-31T16:10:18.000Z</time>
      </trkpt>
      <trkpt lat="45.29504" lon="5.18036">
        <ele>496.3</ele>
        <time>2021-07-31T16:10:20.000Z</time>
      </trkpt>
      <trkpt lat="45.29501" lon="5.1802">
        <ele>496.2</ele>
        <time>2021-07-31T16:10:22.000Z</time>
      </trkpt>
      <trkpt lat="45.29501" lon="5.18002">
        <ele>496</ele>
        <time>2021-07-31T16:10:24.000Z</time>
      </trkpt>
      <trkpt lat="45.29506" lon="5.17986">
        <ele>495.4</ele>
        <time>2021-07-31T16:10:26.000Z</time>
      </trkpt>
      <trkpt lat="45.29514" lon="5.17972">
        <ele>494.7</ele>
        <time>2021-07-31T16:10:28.000Z</time>
      </trkpt>
      <trkpt lat="45.29523" lon="5.17959">
        <ele>494</ele>
        <time>2021-07-31T16:10:30.000Z</time>
      </trkpt>
      <trkpt lat="45.29533" lon="5.17945">
        <ele>493.4</ele>
        <time>2021-07-31T16:10:32.000Z</time>
      </trkpt>
      <trkpt lat="45.29543" lon="5.17933">
        <ele>492.7</ele>
        <time>2021-07-31T16:10:34.000Z</time>
      </trkpt>
      <trkpt lat="45.29552" lon="5.1792">
        <ele>492.2</ele>
        <time>2021-07-31T16:10:36.000Z</time>
      </trkpt>
      <trkpt lat="45.29562" lon="5.17905">
        <ele>491.7</ele>
        <time>2021-07-31T16:10:38.000Z</time>
      </trkpt>
      <trkpt lat="45.29569" lon="5.1789">
        <ele>491.3</ele>
        <time>2021-07-31T16:10:40.000Z</time>
      </trkpt>
      <trkpt lat="45.29576" lon="5.17875">
        <ele>490.8</ele>
        <time>2021-07-31T16:10:42.000Z</time>
      </trkpt>
      <trkpt lat="45.29585" lon="5.17862">
        <ele>490.3</ele>
        <time>2021-07-31T16:10:44.000Z</time>
      </trkpt>
      <trkpt lat="45.29595" lon="5.17851">
        <ele>489.9</ele>
        <time>2021-07-31T16:10:46.000Z</time>
      </trkpt>
      <trkpt lat="45.29603" lon="5.17841">
        <ele>489.6</ele>
        <time>2021-07-31T16:10:48.000Z</time>
      </trkpt>
      <trkpt lat="45.29606" lon="5.17829">
        <ele>489.4</ele>
        <time>2021-07-31T16:10:50.000Z</time>
      </trkpt>
      <trkpt lat="45.29599" lon="5.17819">
        <ele>489.4</ele>
        <time>2021-07-31T16:10:52.000Z</time>
      </trkpt>
      <trkpt lat="45.2959" lon="5.17809">
        <ele>489.6</ele>
        <time>2021-07-31T16:10:55.000Z</time>
      </trkpt>
      <trkpt lat="45.29582" lon="5.17798">
        <ele>489.7</ele>
        <time>2021-07-31T16:10:58.000Z</time>
      </trkpt>
      <trkpt lat="45.29573" lon="5.17786">
        <ele>490</ele>
        <time>2021-07-31T16:11:01.000Z</time>
      </trkpt>
      <trkpt lat="45.29567" lon="5.17773">
        <ele>490.2</ele>
        <time>2021-07-31T16:11:04.000Z</time>
      </trkpt>
      <trkpt lat="45.29561" lon="5.17759">
        <ele>490.4</ele>
        <time>2021-07-31T16:11:07.000Z</time>
      </trkpt>
      <trkpt lat="45.29557" lon="5.17746">
        <ele>490.5</ele>
        <time>2021-07-31T16:11:10.000Z</time>
      </trkpt>
      <trkpt lat="45.29552" lon="5.17732">
        <ele>490.7</ele>
        <time>2021-07-31T16:11:13.000Z</time>
      </trkpt>
      <trkpt lat="45.29545" lon="5.17717">
        <ele>490.9</ele>
        <time>2021-07-31T16:11:16.000Z</time>
      </trkpt>
      <trkpt lat="45.29538" lon="5.17704">
        <ele>491.2</ele>
        <time>2021-07-31T16:11:19.000Z</time>
      </trkpt>
      <trkpt lat="45.29531" lon="5.17691">
        <ele>491.4</ele>
        <time>2021-07-31T16:11:22.000Z</time>
      </trkpt>
      <trkpt lat="45.29525" lon="5.17678">
        <ele>491.6</ele>
        <time>2021-07-31T16:11:25.000Z</time>
      </trkpt>
      <trkpt lat="45.29519" lon="5.17663">
        <ele>491.7</ele>
        <time>2021-07-31T16:11:28.000Z</time>
      </trkpt>
      <trkpt lat="45.29514" lon="5.17647">
        <ele>491.5</ele>
        <time>2021-07-31T16:11:31.000Z</time>
      </trkpt>
      <trkpt lat="45.29507" lon="5.17629">
        <ele>491.2</ele>
        <time>2021-07-31T16:11:34.000Z</time>
      </trkpt>
      <trkpt lat="45.29501" lon="5.17619">
        <ele>491.2</ele>
        <time>2021-07-31T16:11:36.000Z</time>
      </trkpt>
      <trkpt lat="45.29493" lon="5.17609">
        <ele>491.1</ele>
        <time>2021-07-31T16:11:38.000Z</time>
      </trkpt>
      <trkpt lat="45.29484" lon="5.17599">
        <ele>491.1</ele>
        <time>2021-07-31T16:11:40.000Z</time>
      </trkpt>
      <trkpt lat="45.29475" lon="5.17587">
        <ele>491</ele>
        <time>2021-07-31T16:11:42.000Z</time>
      </trkpt>
      <trkpt lat="45.29467" lon="5.17576">
        <ele>490.8</ele>
        <time>2021-07-31T16:11:44.000Z</time>
      </trkpt>
      <trkpt lat="45.29458" lon="5.17564">
        <ele>490.6</ele>
        <time>2021-07-31T16:11:46.000Z</time>
      </trkpt>
      <trkpt lat="45.29449" lon="5.17552">
        <ele>490.4</ele>
        <time>2021-07-31T16:11:48.000Z</time>
      </trkpt>
      <trkpt lat="45.29442" lon="5.17541">
        <ele>490.2</ele>
        <time>2021-07-31T16:11:50.000Z</time>
      </trkpt>
      <trkpt lat="45.29434" lon="5.17529">
        <ele>490.1</ele>
        <time>2021-07-31T16:11:52.000Z</time>
      </trkpt>
      <trkpt lat="45.29425" lon="5.17518">
        <ele>490.2</ele>
        <time>2021-07-31T16:11:54.000Z</time>
      </trkpt>
      <trkpt lat="45.29414" lon="5.17506">
        <ele>490.2</ele>
        <time>2021-07-31T16:11:56.000Z</time>
      </trkpt>
      <trkpt lat="45.29404" lon="5.17494">
        <ele>490.1</ele>
        <time>2021-07-31T16:11:58.000Z</time>
      </trkpt>
      <trkpt lat="45.29397" lon="5.1748">
        <ele>489.7</ele>
        <time>2021-07-31T16:12:00.000Z</time>
      </trkpt>
      <trkpt lat="45.29393" lon="5.17466">
        <ele>489.3</ele>
        <time>2021-07-31T16:12:02.000Z</time>
      </trkpt>
      <trkpt lat="45.29389" lon="5.17452">
        <ele>488.9</ele>
        <time>2021-07-31T16:12:04.000Z</time>
      </trkpt>
      <trkpt lat="45.29387" lon="5.17432">
        <ele>488.3</ele>
        <time>2021-07-31T16:12:07.000Z</time>
      </trkpt>
      <trkpt lat="45.29386" lon="5.17417">
        <ele>487.7</ele>
        <time>2021-07-31T16:12:09.000Z</time>
      </trkpt>
      <trkpt lat="45.29381" lon="5.17403">
        <ele>487.6</ele>
        <time>2021-07-31T16:12:11.000Z</time>
      </trkpt>
      <trkpt lat="45.29376" lon="5.17388">
        <ele>487.5</ele>
        <time>2021-07-31T16:12:13.000Z</time>
      </trkpt>
      <trkpt lat="45.29371" lon="5.1737">
        <ele>487.2</ele>
        <time>2021-07-31T16:12:15.000Z</time>
      </trkpt>
      <trkpt lat="45.29366" lon="5.17353">
        <ele>487</ele>
        <time>2021-07-31T16:12:17.000Z</time>
      </trkpt>
      <trkpt lat="45.29366" lon="5.17337">
        <ele>486.7</ele>
        <time>2021-07-31T16:12:19.000Z</time>
      </trkpt>
      <trkpt lat="45.29367" lon="5.17319">
        <ele>486.4</ele>
        <time>2021-07-31T16:12:21.000Z</time>
      </trkpt>
      <trkpt lat="45.29372" lon="5.17301">
        <ele>486</ele>
        <time>2021-07-31T16:12:23.000Z</time>
      </trkpt>
      <trkpt lat="45.29378" lon="5.17288">
        <ele>485.6</ele>
        <time>2021-07-31T16:12:25.000Z</time>
      </trkpt>
      <trkpt lat="45.29381" lon="5.17275">
        <ele>485.2</ele>
        <time>2021-07-31T16:12:27.000Z</time>
      </trkpt>
      <trkpt lat="45.29385" lon="5.17256">
        <ele>484.6</ele>
        <time>2021-07-31T16:12:29.000Z</time>
      </trkpt>
      <trkpt lat="45.29384" lon="5.17239">
        <ele>484.4</ele>
        <time>2021-07-31T16:12:31.000Z</time>
      </trkpt>
      <trkpt lat="45.29384" lon="5.17221">
        <ele>484.2</ele>
        <time>2021-07-31T16:12:33.000Z</time>
      </trkpt>
      <trkpt lat="45.29383" lon="5.17204">
        <ele>484</ele>
        <time>2021-07-31T16:12:35.000Z</time>
      </trkpt>
      <trkpt lat="45.29383" lon="5.17187">
        <ele>483.7</ele>
        <time>2021-07-31T16:12:37.000Z</time>
      </trkpt>
      <trkpt lat="45.29385" lon="5.17171">
        <ele>483.4</ele>
        <time>2021-07-31T16:12:39.000Z</time>
      </trkpt>
      <trkpt lat="45.29386" lon="5.17155">
        <ele>483.5</ele>
        <time>2021-07-31T16:12:41.000Z</time>
      </trkpt>
      <trkpt lat="45.29386" lon="5.17138">
        <ele>483.9</ele>
        <time>2021-07-31T16:12:43.000Z</time>
      </trkpt>
      <trkpt lat="45.29385" lon="5.17124">
        <ele>484.3</ele>
        <time>2021-07-31T16:12:45.000Z</time>
      </trkpt>
      <trkpt lat="45.29387" lon="5.17109">
        <ele>484.5</ele>
        <time>2021-07-31T16:12:47.000Z</time>
      </trkpt>
      <trkpt lat="45.29394" lon="5.17095">
        <ele>484.3</ele>
        <time>2021-07-31T16:12:49.000Z</time>
      </trkpt>
      <trkpt lat="45.29399" lon="5.17079">
        <ele>484.4</ele>
        <time>2021-07-31T16:12:51.000Z</time>
      </trkpt>
      <trkpt lat="45.294" lon="5.1706">
        <ele>484.9</ele>
        <time>2021-07-31T16:12:54.000Z</time>
      </trkpt>
      <trkpt lat="45.29404" lon="5.17046">
        <ele>485</ele>
        <time>2021-07-31T16:12:56.000Z</time>
      </trkpt>
      <trkpt lat="45.29407" lon="5.17033">
        <ele>485.3</ele>
        <time>2021-07-31T16:12:58.000Z</time>
      </trkpt>
      <trkpt lat="45.29412" lon="5.17021">
        <ele>485.5</ele>
        <time>2021-07-31T16:13:00.000Z</time>
      </trkpt>
      <trkpt lat="45.29416" lon="5.17007">
        <ele>485.8</ele>
        <time>2021-07-31T16:13:02.000Z</time>
      </trkpt>
      <trkpt lat="45.29419" lon="5.1699">
        <ele>485.8</ele>
        <time>2021-07-31T16:13:04.000Z</time>
      </trkpt>
      <trkpt lat="45.29421" lon="5.16978">
        <ele>485.6</ele>
        <time>2021-07-31T16:13:06.000Z</time>
      </trkpt>
      <trkpt lat="45.29423" lon="5.16959">
        <ele>485.5</ele>
        <time>2021-07-31T16:13:08.000Z</time>
      </trkpt>
      <trkpt lat="45.29424" lon="5.1694">
        <ele>485.6</ele>
        <time>2021-07-31T16:13:10.000Z</time>
      </trkpt>
      <trkpt lat="45.29422" lon="5.16921">
        <ele>485.8</ele>
        <time>2021-07-31T16:13:12.000Z</time>
      </trkpt>
      <trkpt lat="45.29421" lon="5.16902">
        <ele>485.8</ele>
        <time>2021-07-31T16:13:14.000Z</time>
      </trkpt>
      <trkpt lat="45.29425" lon="5.16882">
        <ele>485.6</ele>
        <time>2021-07-31T16:13:16.000Z</time>
      </trkpt>
      <trkpt lat="45.29431" lon="5.16865">
        <ele>485.1</ele>
        <time>2021-07-31T16:13:18.000Z</time>
      </trkpt>
      <trkpt lat="45.29433" lon="5.16853">
        <ele>484.9</ele>
        <time>2021-07-31T16:13:20.000Z</time>
      </trkpt>
      <trkpt lat="45.29431" lon="5.16837">
        <ele>485</ele>
        <time>2021-07-31T16:13:22.000Z</time>
      </trkpt>
      <trkpt lat="45.29432" lon="5.16822">
        <ele>484.5</ele>
        <time>2021-07-31T16:13:24.000Z</time>
      </trkpt>
      <trkpt lat="45.29435" lon="5.16809">
        <ele>483.9</ele>
        <time>2021-07-31T16:13:27.000Z</time>
      </trkpt>
      <trkpt lat="45.2944" lon="5.16796">
        <ele>483.1</ele>
        <time>2021-07-31T16:13:31.000Z</time>
      </trkpt>
      <trkpt lat="45.29447" lon="5.16786">
        <ele>482.3</ele>
        <time>2021-07-31T16:13:35.000Z</time>
      </trkpt>
      <trkpt lat="45.29452" lon="5.16774">
        <ele>481.6</ele>
        <time>2021-07-31T16:13:38.000Z</time>
      </trkpt>
      <trkpt lat="45.29456" lon="5.16763">
        <ele>481</ele>
        <time>2021-07-31T16:13:41.000Z</time>
      </trkpt>
      <trkpt lat="45.29462" lon="5.16752">
        <ele>480.3</ele>
        <time>2021-07-31T16:13:45.000Z</time>
      </trkpt>
      <trkpt lat="45.29466" lon="5.1674">
        <ele>480.1</ele>
        <time>2021-07-31T16:13:49.000Z</time>
      </trkpt>
      <trkpt lat="45.29477" lon="5.16731">
        <ele>479.5</ele>
        <time>2021-07-31T16:13:53.000Z</time>
      </trkpt>
      <trkpt lat="45.29488" lon="5.1672">
        <ele>479</ele>
        <time>2021-07-31T16:13:56.000Z</time>
      </trkpt>
      <trkpt lat="45.29497" lon="5.16714">
        <ele>478.6</ele>
        <time>2021-07-31T16:13:58.000Z</time>
      </trkpt>
      <trkpt lat="45.2951" lon="5.16702">
        <ele>477.3</ele>
        <time>2021-07-31T16:14:00.000Z</time>
      </trkpt>
      <trkpt lat="45.29519" lon="5.16692">
        <ele>476.3</ele>
        <time>2021-07-31T16:14:02.000Z</time>
      </trkpt>
      <trkpt lat="45.29523" lon="5.1668">
        <ele>475.9</ele>
        <time>2021-07-31T16:14:07.000Z</time>
      </trkpt>
      <trkpt lat="45.29524" lon="5.16667">
        <ele>475.8</ele>
        <time>2021-07-31T16:14:10.000Z</time>
      </trkpt>
      <trkpt lat="45.29527" lon="5.16646">
        <ele>475.7</ele>
        <time>2021-07-31T16:14:13.000Z</time>
      </trkpt>
      <trkpt lat="45.29531" lon="5.16634">
        <ele>475.4</ele>
        <time>2021-07-31T16:14:16.000Z</time>
      </trkpt>
      <trkpt lat="45.29535" lon="5.16621">
        <ele>475</ele>
        <time>2021-07-31T16:14:19.000Z</time>
      </trkpt>
      <trkpt lat="45.29539" lon="5.16607">
        <ele>474.6</ele>
        <time>2021-07-31T16:14:22.000Z</time>
      </trkpt>
      <trkpt lat="45.29545" lon="5.1659">
        <ele>474</ele>
        <time>2021-07-31T16:14:25.000Z</time>
      </trkpt>
      <trkpt lat="45.29547" lon="5.16573">
        <ele>473.4</ele>
        <time>2021-07-31T16:14:28.000Z</time>
      </trkpt>
      <trkpt lat="45.29551" lon="5.1656">
        <ele>472.5</ele>
        <time>2021-07-31T16:14:31.000Z</time>
      </trkpt>
      <trkpt lat="45.29558" lon="5.16546">
        <ele>471</ele>
        <time>2021-07-31T16:14:35.000Z</time>
      </trkpt>
      <trkpt lat="45.29567" lon="5.16535">
        <ele>469.2</ele>
        <time>2021-07-31T16:14:37.000Z</time>
      </trkpt>
      <trkpt lat="45.29568" lon="5.16519">
        <ele>468.5</ele>
        <time>2021-07-31T16:14:39.000Z</time>
      </trkpt>
      <trkpt lat="45.29567" lon="5.16505">
        <ele>468.3</ele>
        <time>2021-07-31T16:14:41.000Z</time>
      </trkpt>
      <trkpt lat="45.29564" lon="5.16492">
        <ele>468.7</ele>
        <time>2021-07-31T16:14:43.000Z</time>
      </trkpt>
      <trkpt lat="45.29565" lon="5.16479">
        <ele>468.7</ele>
        <time>2021-07-31T16:14:45.000Z</time>
      </trkpt>
      <trkpt lat="45.29563" lon="5.16464">
        <ele>469.1</ele>
        <time>2021-07-31T16:14:48.000Z</time>
      </trkpt>
      <trkpt lat="45.2956" lon="5.16448">
        <ele>469.6</ele>
        <time>2021-07-31T16:14:51.000Z</time>
      </trkpt>
      <trkpt lat="45.29555" lon="5.16433">
        <ele>470.4</ele>
        <time>2021-07-31T16:14:55.000Z</time>
      </trkpt>
      <trkpt lat="45.29553" lon="5.16416">
        <ele>470.6</ele>
        <time>2021-07-31T16:14:58.000Z</time>
      </trkpt>
      <trkpt lat="45.29549" lon="5.16403">
        <ele>471.1</ele>
        <time>2021-07-31T16:15:01.000Z</time>
      </trkpt>
      <trkpt lat="45.29544" lon="5.16391">
        <ele>471.7</ele>
        <time>2021-07-31T16:15:04.000Z</time>
      </trkpt>
      <trkpt lat="45.29542" lon="5.16375">
        <ele>472</ele>
        <time>2021-07-31T16:15:07.000Z</time>
      </trkpt>
      <trkpt lat="45.29539" lon="5.16359">
        <ele>472.4</ele>
        <time>2021-07-31T16:15:10.000Z</time>
      </trkpt>
      <trkpt lat="45.29536" lon="5.16344">
        <ele>472.8</ele>
        <time>2021-07-31T16:15:13.000Z</time>
      </trkpt>
      <trkpt lat="45.29534" lon="5.16332">
        <ele>473.1</ele>
        <time>2021-07-31T16:15:16.000Z</time>
      </trkpt>
      <trkpt lat="45.2953" lon="5.16317">
        <ele>473.7</ele>
        <time>2021-07-31T16:15:19.000Z</time>
      </trkpt>
      <trkpt lat="45.29525" lon="5.16301">
        <ele>474.4</ele>
        <time>2021-07-31T16:15:23.000Z</time>
      </trkpt>
      <trkpt lat="45.29519" lon="5.16287">
        <ele>475.1</ele>
        <time>2021-07-31T16:15:26.000Z</time>
      </trkpt>
      <trkpt lat="45.29514" lon="5.16275">
        <ele>475.7</ele>
        <time>2021-07-31T16:15:28.000Z</time>
      </trkpt>
      <trkpt lat="45.29502" lon="5.16257">
        <ele>476.8</ele>
        <time>2021-07-31T16:15:30.000Z</time>
      </trkpt>
      <trkpt lat="45.29491" lon="5.16239">
        <ele>477.2</ele>
        <time>2021-07-31T16:15:32.000Z</time>
      </trkpt>
      <trkpt lat="45.29485" lon="5.16224">
        <ele>477.3</ele>
        <time>2021-07-31T16:15:34.000Z</time>
      </trkpt>
      <trkpt lat="45.2948" lon="5.1621">
        <ele>477.4</ele>
        <time>2021-07-31T16:15:36.000Z</time>
      </trkpt>
      <trkpt lat="45.29477" lon="5.16195">
        <ele>477.3</ele>
        <time>2021-07-31T16:15:38.000Z</time>
      </trkpt>
      <trkpt lat="45.29478" lon="5.16179">
        <ele>477.2</ele>
        <time>2021-07-31T16:15:41.000Z</time>
      </trkpt>
      <trkpt lat="45.29483" lon="5.16165">
        <ele>476.7</ele>
        <time>2021-07-31T16:15:44.000Z</time>
      </trkpt>
      <trkpt lat="45.29487" lon="5.16145">
        <ele>475.8</ele>
        <time>2021-07-31T16:15:48.000Z</time>
      </trkpt>
      <trkpt lat="45.29489" lon="5.16128">
        <ele>475.1</ele>
        <time>2021-07-31T16:15:50.000Z</time>
      </trkpt>
      <trkpt lat="45.29489" lon="5.16114">
        <ele>474.6</ele>
        <time>2021-07-31T16:15:52.000Z</time>
      </trkpt>
      <trkpt lat="45.29493" lon="5.16094">
        <ele>473.7</ele>
        <time>2021-07-31T16:15:55.000Z</time>
      </trkpt>
      <trkpt lat="45.29496" lon="5.16076">
        <ele>473.2</ele>
        <time>2021-07-31T16:15:57.000Z</time>
      </trkpt>
      <trkpt lat="45.29494" lon="5.16059">
        <ele>473.5</ele>
        <time>2021-07-31T16:15:59.000Z</time>
      </trkpt>
      <trkpt lat="45.29492" lon="5.1604">
        <ele>473.7</ele>
        <time>2021-07-31T16:16:01.000Z</time>
      </trkpt>
      <trkpt lat="45.29492" lon="5.16019">
        <ele>473.9</ele>
        <time>2021-07-31T16:16:03.000Z</time>
      </trkpt>
      <trkpt lat="45.29493" lon="5.15999">
        <ele>474</ele>
        <time>2021-07-31T16:16:05.000Z</time>
      </trkpt>
      <trkpt lat="45.29493" lon="5.1598">
        <ele>474</ele>
        <time>2021-07-31T16:16:07.000Z</time>
      </trkpt>
      <trkpt lat="45.29496" lon="5.15958">
        <ele>474</ele>
        <time>2021-07-31T16:16:09.000Z</time>
      </trkpt>
      <trkpt lat="45.29502" lon="5.15938">
        <ele>473.8</ele>
        <time>2021-07-31T16:16:11.000Z</time>
      </trkpt>
      <trkpt lat="45.2951" lon="5.15923">
        <ele>473.3</ele>
        <time>2021-07-31T16:16:13.000Z</time>
      </trkpt>
      <trkpt lat="45.29513" lon="5.15909">
        <ele>473.1</ele>
        <time>2021-07-31T16:16:15.000Z</time>
      </trkpt>
      <trkpt lat="45.29516" lon="5.15893">
        <ele>473.1</ele>
        <time>2021-07-31T16:16:17.000Z</time>
      </trkpt>
      <trkpt lat="45.2952" lon="5.15876">
        <ele>473</ele>
        <time>2021-07-31T16:16:19.000Z</time>
      </trkpt>
      <trkpt lat="45.29526" lon="5.15859">
        <ele>473</ele>
        <time>2021-07-31T16:16:21.000Z</time>
      </trkpt>
      <trkpt lat="45.29537" lon="5.15841">
        <ele>473</ele>
        <time>2021-07-31T16:16:23.000Z</time>
      </trkpt>
      <trkpt lat="45.29542" lon="5.15825">
        <ele>473.2</ele>
        <time>2021-07-31T16:16:25.000Z</time>
      </trkpt>
      <trkpt lat="45.29545" lon="5.15813">
        <ele>473.4</ele>
        <time>2021-07-31T16:16:27.000Z</time>
      </trkpt>
      <trkpt lat="45.2955" lon="5.158">
        <ele>473.7</ele>
        <time>2021-07-31T16:16:29.000Z</time>
      </trkpt>
      <trkpt lat="45.29555" lon="5.15786">
        <ele>474</ele>
        <time>2021-07-31T16:16:31.000Z</time>
      </trkpt>
      <trkpt lat="45.29559" lon="5.15772">
        <ele>474.4</ele>
        <time>2021-07-31T16:16:33.000Z</time>
      </trkpt>
      <trkpt lat="45.29563" lon="5.15759">
        <ele>474.8</ele>
        <time>2021-07-31T16:16:35.000Z</time>
      </trkpt>
      <trkpt lat="45.29567" lon="5.15745">
        <ele>474.9</ele>
        <time>2021-07-31T16:16:37.000Z</time>
      </trkpt>
      <trkpt lat="45.29569" lon="5.15732">
        <ele>474.5</ele>
        <time>2021-07-31T16:16:39.000Z</time>
      </trkpt>
      <trkpt lat="45.29571" lon="5.15717">
        <ele>474.1</ele>
        <time>2021-07-31T16:16:41.000Z</time>
      </trkpt>
      <trkpt lat="45.29572" lon="5.15698">
        <ele>473.7</ele>
        <time>2021-07-31T16:16:43.000Z</time>
      </trkpt>
      <trkpt lat="45.29573" lon="5.15682">
        <ele>473.2</ele>
        <time>2021-07-31T16:16:45.000Z</time>
      </trkpt>
      <trkpt lat="45.29571" lon="5.15668">
        <ele>472.9</ele>
        <time>2021-07-31T16:16:47.000Z</time>
      </trkpt>
      <trkpt lat="45.29563" lon="5.15658">
        <ele>472.5</ele>
        <time>2021-07-31T16:16:49.000Z</time>
      </trkpt>
      <trkpt lat="45.29554" lon="5.15649">
        <ele>472.2</ele>
        <time>2021-07-31T16:16:51.000Z</time>
      </trkpt>
      <trkpt lat="45.29545" lon="5.15637">
        <ele>472</ele>
        <time>2021-07-31T16:16:53.000Z</time>
      </trkpt>
      <trkpt lat="45.29538" lon="5.15621">
        <ele>471.7</ele>
        <time>2021-07-31T16:16:55.000Z</time>
      </trkpt>
      <trkpt lat="45.29532" lon="5.15605">
        <ele>471.5</ele>
        <time>2021-07-31T16:16:57.000Z</time>
      </trkpt>
      <trkpt lat="45.29529" lon="5.15587">
        <ele>471.4</ele>
        <time>2021-07-31T16:16:59.000Z</time>
      </trkpt>
      <trkpt lat="45.29528" lon="5.15571">
        <ele>471.3</ele>
        <time>2021-07-31T16:17:01.000Z</time>
      </trkpt>
      <trkpt lat="45.29528" lon="5.15556">
        <ele>471.2</ele>
        <time>2021-07-31T16:17:03.000Z</time>
      </trkpt>
      <trkpt lat="45.29531" lon="5.15542">
        <ele>471.1</ele>
        <time>2021-07-31T16:17:05.000Z</time>
      </trkpt>
      <trkpt lat="45.29533" lon="5.15529">
        <ele>471.1</ele>
        <time>2021-07-31T16:17:07.000Z</time>
      </trkpt>
      <trkpt lat="45.29535" lon="5.15512">
        <ele>471</ele>
        <time>2021-07-31T16:17:10.000Z</time>
      </trkpt>
      <trkpt lat="45.29538" lon="5.15496">
        <ele>470.9</ele>
        <time>2021-07-31T16:17:13.000Z</time>
      </trkpt>
      <trkpt lat="45.29539" lon="5.1548">
        <ele>470.7</ele>
        <time>2021-07-31T16:17:16.000Z</time>
      </trkpt>
      <trkpt lat="45.2954" lon="5.15465">
        <ele>470.4</ele>
        <time>2021-07-31T16:17:19.000Z</time>
      </trkpt>
      <trkpt lat="45.29541" lon="5.1545">
        <ele>470.1</ele>
        <time>2021-07-31T16:17:22.000Z</time>
      </trkpt>
      <trkpt lat="45.29541" lon="5.15435">
        <ele>469.8</ele>
        <time>2021-07-31T16:17:25.000Z</time>
      </trkpt>
      <trkpt lat="45.29541" lon="5.15419">
        <ele>469.6</ele>
        <time>2021-07-31T16:17:28.000Z</time>
      </trkpt>
      <trkpt lat="45.29541" lon="5.15403">
        <ele>469.3</ele>
        <time>2021-07-31T16:17:31.000Z</time>
      </trkpt>
      <trkpt lat="45.29544" lon="5.15389">
        <ele>469.1</ele>
        <time>2021-07-31T16:17:34.000Z</time>
      </trkpt>
      <trkpt lat="45.29556" lon="5.15385">
        <ele>468.7</ele>
        <time>2021-07-31T16:17:37.000Z</time>
      </trkpt>
      <trkpt lat="45.29568" lon="5.15386">
        <ele>468.3</ele>
        <time>2021-07-31T16:17:40.000Z</time>
      </trkpt>
      <trkpt lat="45.2958" lon="5.15386">
        <ele>468</ele>
        <time>2021-07-31T16:17:43.000Z</time>
      </trkpt>
      <trkpt lat="45.29592" lon="5.15389">
        <ele>467.1</ele>
        <time>2021-07-31T16:17:46.000Z</time>
      </trkpt>
      <trkpt lat="45.29605" lon="5.15389">
        <ele>465.8</ele>
        <time>2021-07-31T16:17:49.000Z</time>
      </trkpt>
      <trkpt lat="45.29618" lon="5.15388">
        <ele>464.5</ele>
        <time>2021-07-31T16:17:52.000Z</time>
      </trkpt>
      <trkpt lat="45.29627" lon="5.15388">
        <ele>463.6</ele>
        <time>2021-07-31T16:17:54.000Z</time>
      </trkpt>
      <trkpt lat="45.29637" lon="5.15389">
        <ele>462.7</ele>
        <time>2021-07-31T16:17:56.000Z</time>
      </trkpt>
      <trkpt lat="45.29647" lon="5.15378">
        <ele>461.5</ele>
        <time>2021-07-31T16:17:59.000Z</time>
      </trkpt>
      <trkpt lat="45.29646" lon="5.15364">
        <ele>461.2</ele>
        <time>2021-07-31T16:18:01.000Z</time>
      </trkpt>
      <trkpt lat="45.29646" lon="5.15351">
        <ele>461</ele>
        <time>2021-07-31T16:18:03.000Z</time>
      </trkpt>
      <trkpt lat="45.29646" lon="5.15333">
        <ele>460.8</ele>
        <time>2021-07-31T16:18:06.000Z</time>
      </trkpt>
      <trkpt lat="45.29644" lon="5.15315">
        <ele>460.7</ele>
        <time>2021-07-31T16:18:09.000Z</time>
      </trkpt>
      <trkpt lat="45.29643" lon="5.15303">
        <ele>460.8</ele>
        <time>2021-07-31T16:18:11.000Z</time>
      </trkpt>
      <trkpt lat="45.29641" lon="5.15285">
        <ele>460.7</ele>
        <time>2021-07-31T16:18:14.000Z</time>
      </trkpt>
      <trkpt lat="45.2964" lon="5.15271">
        <ele>460.7</ele>
        <time>2021-07-31T16:18:16.000Z</time>
      </trkpt>
      <trkpt lat="45.29638" lon="5.15256">
        <ele>460.8</ele>
        <time>2021-07-31T16:18:18.000Z</time>
      </trkpt>
      <trkpt lat="45.29638" lon="5.15238">
        <ele>460.7</ele>
        <time>2021-07-31T16:18:21.000Z</time>
      </trkpt>
      <trkpt lat="45.29637" lon="5.15223">
        <ele>460.8</ele>
        <time>2021-07-31T16:18:23.000Z</time>
      </trkpt>
      <trkpt lat="45.29636" lon="5.15207">
        <ele>460.8</ele>
        <time>2021-07-31T16:18:25.000Z</time>
      </trkpt>
      <trkpt lat="45.29634" lon="5.1519">
        <ele>460.9</ele>
        <time>2021-07-31T16:18:27.000Z</time>
      </trkpt>
      <trkpt lat="45.29632" lon="5.15175">
        <ele>461</ele>
        <time>2021-07-31T16:18:29.000Z</time>
      </trkpt>
      <trkpt lat="45.29631" lon="5.15159">
        <ele>461</ele>
        <time>2021-07-31T16:18:31.000Z</time>
      </trkpt>
      <trkpt lat="45.29629" lon="5.15136">
        <ele>461</ele>
        <time>2021-07-31T16:18:33.000Z</time>
      </trkpt>
      <trkpt lat="45.29627" lon="5.15116">
        <ele>461</ele>
        <time>2021-07-31T16:18:35.000Z</time>
      </trkpt>
      <trkpt lat="45.29626" lon="5.15097">
        <ele>461</ele>
        <time>2021-07-31T16:18:37.000Z</time>
      </trkpt>
      <trkpt lat="45.29625" lon="5.15079">
        <ele>461</ele>
        <time>2021-07-31T16:18:39.000Z</time>
      </trkpt>
      <trkpt lat="45.29624" lon="5.15061">
        <ele>461.1</ele>
        <time>2021-07-31T16:18:41.000Z</time>
      </trkpt>
      <trkpt lat="45.29622" lon="5.15044">
        <ele>461.3</ele>
        <time>2021-07-31T16:18:43.000Z</time>
      </trkpt>
      <trkpt lat="45.2962" lon="5.15027">
        <ele>461.4</ele>
        <time>2021-07-31T16:18:45.000Z</time>
      </trkpt>
      <trkpt lat="45.29619" lon="5.1501">
        <ele>461.6</ele>
        <time>2021-07-31T16:18:47.000Z</time>
      </trkpt>
      <trkpt lat="45.29617" lon="5.14998">
        <ele>461.8</ele>
        <time>2021-07-31T16:18:49.000Z</time>
      </trkpt>
      <trkpt lat="45.29616" lon="5.14984">
        <ele>462</ele>
        <time>2021-07-31T16:18:51.000Z</time>
      </trkpt>
      <trkpt lat="45.29617" lon="5.14968">
        <ele>462.2</ele>
        <time>2021-07-31T16:18:53.000Z</time>
      </trkpt>
      <trkpt lat="45.29618" lon="5.14954">
        <ele>462.2</ele>
        <time>2021-07-31T16:18:55.000Z</time>
      </trkpt>
      <trkpt lat="45.29625" lon="5.14937">
        <ele>461.8</ele>
        <time>2021-07-31T16:18:58.000Z</time>
      </trkpt>
      <trkpt lat="45.29625" lon="5.14922">
        <ele>462</ele>
        <time>2021-07-31T16:19:00.000Z</time>
      </trkpt>
      <trkpt lat="45.29623" lon="5.14908">
        <ele>462.2</ele>
        <time>2021-07-31T16:19:02.000Z</time>
      </trkpt>
      <trkpt lat="45.29622" lon="5.14894">
        <ele>462.3</ele>
        <time>2021-07-31T16:19:04.000Z</time>
      </trkpt>
      <trkpt lat="45.29618" lon="5.1488">
        <ele>462.9</ele>
        <time>2021-07-31T16:19:06.000Z</time>
      </trkpt>
      <trkpt lat="45.29615" lon="5.14861">
        <ele>463.4</ele>
        <time>2021-07-31T16:19:08.000Z</time>
      </trkpt>
      <trkpt lat="45.2961" lon="5.14841">
        <ele>464.5</ele>
        <time>2021-07-31T16:19:10.000Z</time>
      </trkpt>
      <trkpt lat="45.29604" lon="5.14822">
        <ele>465.3</ele>
        <time>2021-07-31T16:19:12.000Z</time>
      </trkpt>
      <trkpt lat="45.296" lon="5.14806">
        <ele>465.7</ele>
        <time>2021-07-31T16:19:14.000Z</time>
      </trkpt>
      <trkpt lat="45.29596" lon="5.14788">
        <ele>466</ele>
        <time>2021-07-31T16:19:16.000Z</time>
      </trkpt>
      <trkpt lat="45.29596" lon="5.14769">
        <ele>465.7</ele>
        <time>2021-07-31T16:19:18.000Z</time>
      </trkpt>
      <trkpt lat="45.29595" lon="5.14753">
        <ele>465.6</ele>
        <time>2021-07-31T16:19:20.000Z</time>
      </trkpt>
      <trkpt lat="45.29595" lon="5.14738">
        <ele>464.6</ele>
        <time>2021-07-31T16:19:22.000Z</time>
      </trkpt>
      <trkpt lat="45.29594" lon="5.14717">
        <ele>463.3</ele>
        <time>2021-07-31T16:19:24.000Z</time>
      </trkpt>
      <trkpt lat="45.29592" lon="5.14697">
        <ele>462.2</ele>
        <time>2021-07-31T16:19:26.000Z</time>
      </trkpt>
      <trkpt lat="45.29586" lon="5.14679">
        <ele>461.6</ele>
        <time>2021-07-31T16:19:28.000Z</time>
      </trkpt>
      <trkpt lat="45.2958" lon="5.14661">
        <ele>460.4</ele>
        <time>2021-07-31T16:19:30.000Z</time>
      </trkpt>
      <trkpt lat="45.29577" lon="5.14648">
        <ele>459</ele>
        <time>2021-07-31T16:19:32.000Z</time>
      </trkpt>
      <trkpt lat="45.29579" lon="5.14634">
        <ele>457.2</ele>
        <time>2021-07-31T16:19:35.000Z</time>
      </trkpt>
      <trkpt lat="45.29579" lon="5.14619">
        <ele>455.5</ele>
        <time>2021-07-31T16:19:37.000Z</time>
      </trkpt>
      <trkpt lat="45.29578" lon="5.14606">
        <ele>454.1</ele>
        <time>2021-07-31T16:19:39.000Z</time>
      </trkpt>
      <trkpt lat="45.29575" lon="5.14588">
        <ele>452.3</ele>
        <time>2021-07-31T16:19:41.000Z</time>
      </trkpt>
      <trkpt lat="45.29575" lon="5.14569">
        <ele>451.6</ele>
        <time>2021-07-31T16:19:43.000Z</time>
      </trkpt>
      <trkpt lat="45.29575" lon="5.1455">
        <ele>451.2</ele>
        <time>2021-07-31T16:19:45.000Z</time>
      </trkpt>
      <trkpt lat="45.29574" lon="5.14531">
        <ele>450.8</ele>
        <time>2021-07-31T16:19:47.000Z</time>
      </trkpt>
      <trkpt lat="45.29573" lon="5.1451">
        <ele>450.4</ele>
        <time>2021-07-31T16:19:49.000Z</time>
      </trkpt>
      <trkpt lat="45.2957" lon="5.1449">
        <ele>451.1</ele>
        <time>2021-07-31T16:19:51.000Z</time>
      </trkpt>
      <trkpt lat="45.29569" lon="5.14472">
        <ele>452.1</ele>
        <time>2021-07-31T16:19:53.000Z</time>
      </trkpt>
      <trkpt lat="45.29568" lon="5.14455">
        <ele>453.1</ele>
        <time>2021-07-31T16:19:55.000Z</time>
      </trkpt>
      <trkpt lat="45.29563" lon="5.14444">
        <ele>454.2</ele>
        <time>2021-07-31T16:19:57.000Z</time>
      </trkpt>
      <trkpt lat="45.29563" lon="5.1443">
        <ele>454.8</ele>
        <time>2021-07-31T16:19:59.000Z</time>
      </trkpt>
      <trkpt lat="45.2956" lon="5.14417">
        <ele>455.8</ele>
        <time>2021-07-31T16:20:01.000Z</time>
      </trkpt>
      <trkpt lat="45.29554" lon="5.14405">
        <ele>456.5</ele>
        <time>2021-07-31T16:20:03.000Z</time>
      </trkpt>
      <trkpt lat="45.29551" lon="5.14392">
        <ele>456.9</ele>
        <time>2021-07-31T16:20:05.000Z</time>
      </trkpt>
      <trkpt lat="45.29549" lon="5.14374">
        <ele>457.2</ele>
        <time>2021-07-31T16:20:07.000Z</time>
      </trkpt>
      <trkpt lat="45.2955" lon="5.14358">
        <ele>457.1</ele>
        <time>2021-07-31T16:20:09.000Z</time>
      </trkpt>
      <trkpt lat="45.2955" lon="5.14342">
        <ele>457.2</ele>
        <time>2021-07-31T16:20:11.000Z</time>
      </trkpt>
      <trkpt lat="45.29547" lon="5.14328">
        <ele>457.5</ele>
        <time>2021-07-31T16:20:13.000Z</time>
      </trkpt>
      <trkpt lat="45.29542" lon="5.1431">
        <ele>458</ele>
        <time>2021-07-31T16:20:16.000Z</time>
      </trkpt>
      <trkpt lat="45.2954" lon="5.14297">
        <ele>458.2</ele>
        <time>2021-07-31T16:20:18.000Z</time>
      </trkpt>
      <trkpt lat="45.2954" lon="5.14281">
        <ele>458.1</ele>
        <time>2021-07-31T16:20:20.000Z</time>
      </trkpt>
      <trkpt lat="45.2954" lon="5.14268">
        <ele>458.2</ele>
        <time>2021-07-31T16:20:24.000Z</time>
      </trkpt>
      <trkpt lat="45.29541" lon="5.14268">
        <ele>458.1</ele>
        <time>2021-07-31T16:20:31.000Z</time>
      </trkpt>
      <trkpt lat="45.29541" lon="5.14267">
        <ele>458.1</ele>
        <time>2021-07-31T16:20:41.000Z</time>
      </trkpt>
      <trkpt lat="45.29543" lon="5.14254">
        <ele>457.8</ele>
        <time>2021-07-31T16:20:51.000Z</time>
      </trkpt>
      <trkpt lat="45.29546" lon="5.14238">
        <ele>457.5</ele>
        <time>2021-07-31T16:20:58.000Z</time>
      </trkpt>
      <trkpt lat="45.29551" lon="5.14223">
        <ele>456.8</ele>
        <time>2021-07-31T16:21:02.000Z</time>
      </trkpt>
      <trkpt lat="45.29556" lon="5.14208">
        <ele>456.3</ele>
        <time>2021-07-31T16:21:05.000Z</time>
      </trkpt>
      <trkpt lat="45.29561" lon="5.14192">
        <ele>455.8</ele>
        <time>2021-07-31T16:21:08.000Z</time>
      </trkpt>
      <trkpt lat="45.29563" lon="5.14172">
        <ele>455.5</ele>
        <time>2021-07-31T16:21:11.000Z</time>
      </trkpt>
      <trkpt lat="45.29565" lon="5.14157">
        <ele>455.2</ele>
        <time>2021-07-31T16:21:13.000Z</time>
      </trkpt>
      <trkpt lat="45.29569" lon="5.14146">
        <ele>454.8</ele>
        <time>2021-07-31T16:21:15.000Z</time>
      </trkpt>
      <trkpt lat="45.29572" lon="5.14126">
        <ele>454.5</ele>
        <time>2021-07-31T16:21:17.000Z</time>
      </trkpt>
      <trkpt lat="45.29569" lon="5.14111">
        <ele>454.4</ele>
        <time>2021-07-31T16:21:19.000Z</time>
      </trkpt>
      <trkpt lat="45.29564" lon="5.14099">
        <ele>454.4</ele>
        <time>2021-07-31T16:21:21.000Z</time>
      </trkpt>
      <trkpt lat="45.2956" lon="5.14087">
        <ele>454.3</ele>
        <time>2021-07-31T16:21:23.000Z</time>
      </trkpt>
      <trkpt lat="45.2956" lon="5.14071">
        <ele>453.7</ele>
        <time>2021-07-31T16:21:25.000Z</time>
      </trkpt>
      <trkpt lat="45.2956" lon="5.14056">
        <ele>453</ele>
        <time>2021-07-31T16:21:27.000Z</time>
      </trkpt>
      <trkpt lat="45.29564" lon="5.14043">
        <ele>452.3</ele>
        <time>2021-07-31T16:21:29.000Z</time>
      </trkpt>
      <trkpt lat="45.29569" lon="5.1403">
        <ele>451.6</ele>
        <time>2021-07-31T16:21:31.000Z</time>
      </trkpt>
      <trkpt lat="45.29577" lon="5.14018">
        <ele>450.9</ele>
        <time>2021-07-31T16:21:33.000Z</time>
      </trkpt>
      <trkpt lat="45.29587" lon="5.14002">
        <ele>450.5</ele>
        <time>2021-07-31T16:21:35.000Z</time>
      </trkpt>
      <trkpt lat="45.29599" lon="5.13987">
        <ele>450.7</ele>
        <time>2021-07-31T16:21:37.000Z</time>
      </trkpt>
      <trkpt lat="45.29609" lon="5.13974">
        <ele>450.9</ele>
        <time>2021-07-31T16:21:39.000Z</time>
      </trkpt>
      <trkpt lat="45.29616" lon="5.13965">
        <ele>451.3</ele>
        <time>2021-07-31T16:21:41.000Z</time>
      </trkpt>
      <trkpt lat="45.29626" lon="5.13958">
        <ele>452.3</ele>
        <time>2021-07-31T16:21:44.000Z</time>
      </trkpt>
      <trkpt lat="45.29638" lon="5.13955">
        <ele>453.9</ele>
        <time>2021-07-31T16:21:47.000Z</time>
      </trkpt>
      <trkpt lat="45.29651" lon="5.13953">
        <ele>455.7</ele>
        <time>2021-07-31T16:21:50.000Z</time>
      </trkpt>
      <trkpt lat="45.29661" lon="5.13939">
        <ele>456.7</ele>
        <time>2021-07-31T16:21:52.000Z</time>
      </trkpt>
      <trkpt lat="45.29672" lon="5.13927">
        <ele>457.9</ele>
        <time>2021-07-31T16:21:54.000Z</time>
      </trkpt>
      <trkpt lat="45.2968" lon="5.13916">
        <ele>458.6</ele>
        <time>2021-07-31T16:21:56.000Z</time>
      </trkpt>
      <trkpt lat="45.2969" lon="5.13924">
        <ele>460.1</ele>
        <time>2021-07-31T16:22:00.000Z</time>
      </trkpt>
      <trkpt lat="45.29694" lon="5.1394">
        <ele>461.1</ele>
        <time>2021-07-31T16:22:04.000Z</time>
      </trkpt>
      <trkpt lat="45.29699" lon="5.13954">
        <ele>462</ele>
        <time>2021-07-31T16:22:08.000Z</time>
      </trkpt>
      <trkpt lat="45.29703" lon="5.13965">
        <ele>462.7</ele>
        <time>2021-07-31T16:22:11.000Z</time>
      </trkpt>
      <trkpt lat="45.29707" lon="5.13981">
        <ele>463.5</ele>
        <time>2021-07-31T16:22:15.000Z</time>
      </trkpt>
      <trkpt lat="45.29712" lon="5.13992">
        <ele>464.3</ele>
        <time>2021-07-31T16:22:18.000Z</time>
      </trkpt>
      <trkpt lat="45.29717" lon="5.14004">
        <ele>465.1</ele>
        <time>2021-07-31T16:22:21.000Z</time>
      </trkpt>
      <trkpt lat="45.29725" lon="5.1401">
        <ele>466</ele>
        <time>2021-07-31T16:22:27.000Z</time>
      </trkpt>
      <trkpt lat="45.29727" lon="5.13997">
        <ele>466.1</ele>
        <time>2021-07-31T16:22:34.000Z</time>
      </trkpt>
      <trkpt lat="45.29731" lon="5.13984">
        <ele>466.4</ele>
        <time>2021-07-31T16:22:40.000Z</time>
      </trkpt>
      <trkpt lat="45.29735" lon="5.13972">
        <ele>466.8</ele>
        <time>2021-07-31T16:22:46.000Z</time>
      </trkpt>
      <trkpt lat="45.29739" lon="5.1396">
        <ele>467.1</ele>
        <time>2021-07-31T16:22:55.000Z</time>
      </trkpt>
      <trkpt lat="45.29743" lon="5.13947">
        <ele>467.4</ele>
        <time>2021-07-31T16:23:01.000Z</time>
      </trkpt>
      <trkpt lat="45.29749" lon="5.13936">
        <ele>468.1</ele>
        <time>2021-07-31T16:23:08.000Z</time>
      </trkpt>
      <trkpt lat="45.29755" lon="5.13926">
        <ele>468.5</ele>
        <time>2021-07-31T16:23:17.000Z</time>
      </trkpt>
      <trkpt lat="45.29763" lon="5.13918">
        <ele>469.1</ele>
        <time>2021-07-31T16:23:24.000Z</time>
      </trkpt>
      <trkpt lat="45.29771" lon="5.13922">
        <ele>469.9</ele>
        <time>2021-07-31T16:23:34.000Z</time>
      </trkpt>
      <trkpt lat="45.29782" lon="5.13924">
        <ele>470.8</ele>
        <time>2021-07-31T16:23:41.000Z</time>
      </trkpt>
      <trkpt lat="45.29792" lon="5.13923">
        <ele>471.6</ele>
        <time>2021-07-31T16:23:51.000Z</time>
      </trkpt>
      <trkpt lat="45.29802" lon="5.13922">
        <ele>472.5</ele>
        <time>2021-07-31T16:23:59.000Z</time>
      </trkpt>
      <trkpt lat="45.29813" lon="5.13922">
        <ele>473.4</ele>
        <time>2021-07-31T16:24:05.000Z</time>
      </trkpt>
      <trkpt lat="45.29824" lon="5.13923">
        <ele>474.4</ele>
        <time>2021-07-31T16:24:11.000Z</time>
      </trkpt>
      <trkpt lat="45.29834" lon="5.13925">
        <ele>475.2</ele>
        <time>2021-07-31T16:24:16.000Z</time>
      </trkpt>
      <trkpt lat="45.29844" lon="5.13925">
        <ele>474.9</ele>
        <time>2021-07-31T16:24:21.000Z</time>
      </trkpt>
      <trkpt lat="45.29854" lon="5.13924">
        <ele>474.6</ele>
        <time>2021-07-31T16:24:27.000Z</time>
      </trkpt>
      <trkpt lat="45.29863" lon="5.13919">
        <ele>474.3</ele>
        <time>2021-07-31T16:24:33.000Z</time>
      </trkpt>
      <trkpt lat="45.29872" lon="5.13919">
        <ele>474.1</ele>
        <time>2021-07-31T16:24:38.000Z</time>
      </trkpt>
      <trkpt lat="45.29882" lon="5.1392">
        <ele>473.8</ele>
        <time>2021-07-31T16:24:44.000Z</time>
      </trkpt>
      <trkpt lat="45.29893" lon="5.13921">
        <ele>473.6</ele>
        <time>2021-07-31T16:24:50.000Z</time>
      </trkpt>
      <trkpt lat="45.29902" lon="5.13924">
        <ele>473.3</ele>
        <time>2021-07-31T16:24:55.000Z</time>
      </trkpt>
      <trkpt lat="45.29912" lon="5.13927">
        <ele>473</ele>
        <time>2021-07-31T16:25:00.000Z</time>
      </trkpt>
      <trkpt lat="45.29923" lon="5.13932">
        <ele>472</ele>
        <time>2021-07-31T16:25:04.000Z</time>
      </trkpt>
      <trkpt lat="45.29931" lon="5.13935">
        <ele>470.6</ele>
        <time>2021-07-31T16:25:07.000Z</time>
      </trkpt>
      <trkpt lat="45.29942" lon="5.13936">
        <ele>469</ele>
        <time>2021-07-31T16:25:11.000Z</time>
      </trkpt>
      <trkpt lat="45.2995" lon="5.13927">
        <ele>468.1</ele>
        <time>2021-07-31T16:25:15.000Z</time>
      </trkpt>
      <trkpt lat="45.29955" lon="5.13913">
        <ele>468.1</ele>
        <time>2021-07-31T16:25:19.000Z</time>
      </trkpt>
      <trkpt lat="45.29958" lon="5.13899">
        <ele>468.7</ele>
        <time>2021-07-31T16:25:22.000Z</time>
      </trkpt>
      <trkpt lat="45.29959" lon="5.13884">
        <ele>469.4</ele>
        <time>2021-07-31T16:25:25.000Z</time>
      </trkpt>
      <trkpt lat="45.29965" lon="5.13872">
        <ele>469.5</ele>
        <time>2021-07-31T16:25:28.000Z</time>
      </trkpt>
      <trkpt lat="45.2997" lon="5.13858">
        <ele>469.8</ele>
        <time>2021-07-31T16:25:31.000Z</time>
      </trkpt>
      <trkpt lat="45.29976" lon="5.13847">
        <ele>470.1</ele>
        <time>2021-07-31T16:25:36.000Z</time>
      </trkpt>
      <trkpt lat="45.2998" lon="5.13835">
        <ele>470.6</ele>
        <time>2021-07-31T16:25:42.000Z</time>
      </trkpt>
      <trkpt lat="45.29982" lon="5.13822">
        <ele>470.8</ele>
        <time>2021-07-31T16:25:45.000Z</time>
      </trkpt>
      <trkpt lat="45.2999" lon="5.13806">
        <ele>470.5</ele>
        <time>2021-07-31T16:25:48.000Z</time>
      </trkpt>
      <trkpt lat="45.29995" lon="5.13794">
        <ele>470.4</ele>
        <time>2021-07-31T16:25:50.000Z</time>
      </trkpt>
      <trkpt lat="45.29998" lon="5.13781">
        <ele>470.4</ele>
        <time>2021-07-31T16:25:52.000Z</time>
      </trkpt>
      <trkpt lat="45.30002" lon="5.13765">
        <ele>470.4</ele>
        <time>2021-07-31T16:25:55.000Z</time>
      </trkpt>
      <trkpt lat="45.30005" lon="5.13752">
        <ele>470.5</ele>
        <time>2021-07-31T16:25:57.000Z</time>
      </trkpt>
      <trkpt lat="45.30008" lon="5.13738">
        <ele>470.6</ele>
        <time>2021-07-31T16:26:00.000Z</time>
      </trkpt>
      <trkpt lat="45.30011" lon="5.13726">
        <ele>470.7</ele>
        <time>2021-07-31T16:26:04.000Z</time>
      </trkpt>
      <trkpt lat="45.30012" lon="5.1371">
        <ele>471.1</ele>
        <time>2021-07-31T16:26:07.000Z</time>
      </trkpt>
      <trkpt lat="45.30014" lon="5.13695">
        <ele>471.5</ele>
        <time>2021-07-31T16:26:11.000Z</time>
      </trkpt>
      <trkpt lat="45.30007" lon="5.13681">
        <ele>472.3</ele>
        <time>2021-07-31T16:26:16.000Z</time>
      </trkpt>
      <trkpt lat="45.30001" lon="5.1367">
        <ele>472.9</ele>
        <time>2021-07-31T16:26:19.000Z</time>
      </trkpt>
      <trkpt lat="45.30001" lon="5.13652">
        <ele>473.5</ele>
        <time>2021-07-31T16:26:22.000Z</time>
      </trkpt>
      <trkpt lat="45.29999" lon="5.13636">
        <ele>474.1</ele>
        <time>2021-07-31T16:26:24.000Z</time>
      </trkpt>
      <trkpt lat="45.29995" lon="5.1362">
        <ele>474.7</ele>
        <time>2021-07-31T16:26:26.000Z</time>
      </trkpt>
      <trkpt lat="45.29991" lon="5.13602">
        <ele>475.3</ele>
        <time>2021-07-31T16:26:28.000Z</time>
      </trkpt>
      <trkpt lat="45.29986" lon="5.13587">
        <ele>475.8</ele>
        <time>2021-07-31T16:26:30.000Z</time>
      </trkpt>
      <trkpt lat="45.29983" lon="5.13571">
        <ele>475.7</ele>
        <time>2021-07-31T16:26:33.000Z</time>
      </trkpt>
      <trkpt lat="45.29988" lon="5.13551">
        <ele>475.7</ele>
        <time>2021-07-31T16:26:35.000Z</time>
      </trkpt>
      <trkpt lat="45.29991" lon="5.1353">
        <ele>475.7</ele>
        <time>2021-07-31T16:26:37.000Z</time>
      </trkpt>
      <trkpt lat="45.29992" lon="5.13515">
        <ele>475.7</ele>
        <time>2021-07-31T16:26:39.000Z</time>
      </trkpt>
      <trkpt lat="45.29992" lon="5.135">
        <ele>475.6</ele>
        <time>2021-07-31T16:26:41.000Z</time>
      </trkpt>
      <trkpt lat="45.2999" lon="5.13485">
        <ele>475</ele>
        <time>2021-07-31T16:26:44.000Z</time>
      </trkpt>
      <trkpt lat="45.29989" lon="5.13469">
        <ele>474.4</ele>
        <time>2021-07-31T16:26:47.000Z</time>
      </trkpt>
      <trkpt lat="45.29989" lon="5.13455">
        <ele>474</ele>
        <time>2021-07-31T16:26:49.000Z</time>
      </trkpt>
      <trkpt lat="45.29987" lon="5.13438">
        <ele>473.3</ele>
        <time>2021-07-31T16:26:52.000Z</time>
      </trkpt>
      <trkpt lat="45.29981" lon="5.13416">
        <ele>472.5</ele>
        <time>2021-07-31T16:26:55.000Z</time>
      </trkpt>
      <trkpt lat="45.2998" lon="5.13397">
        <ele>472.3</ele>
        <time>2021-07-31T16:26:57.000Z</time>
      </trkpt>
      <trkpt lat="45.29979" lon="5.13381">
        <ele>472.1</ele>
        <time>2021-07-31T16:26:59.000Z</time>
      </trkpt>
      <trkpt lat="45.29978" lon="5.13366">
        <ele>471.9</ele>
        <time>2021-07-31T16:27:01.000Z</time>
      </trkpt>
      <trkpt lat="45.29978" lon="5.13351">
        <ele>471.7</ele>
        <time>2021-07-31T16:27:03.000Z</time>
      </trkpt>
      <trkpt lat="45.29977" lon="5.13338">
        <ele>471.6</ele>
        <time>2021-07-31T16:27:05.000Z</time>
      </trkpt>
      <trkpt lat="45.29975" lon="5.13319">
        <ele>471.6</ele>
        <time>2021-07-31T16:27:08.000Z</time>
      </trkpt>
      <trkpt lat="45.29969" lon="5.13303">
        <ele>471.6</ele>
        <time>2021-07-31T16:27:11.000Z</time>
      </trkpt>
      <trkpt lat="45.2997" lon="5.13288">
        <ele>471.5</ele>
        <time>2021-07-31T16:27:15.000Z</time>
      </trkpt>
      <trkpt lat="45.29965" lon="5.13267">
        <ele>471.5</ele>
        <time>2021-07-31T16:27:18.000Z</time>
      </trkpt>
      <trkpt lat="45.29965" lon="5.1325">
        <ele>471.4</ele>
        <time>2021-07-31T16:27:20.000Z</time>
      </trkpt>
      <trkpt lat="45.29963" lon="5.13234">
        <ele>471.1</ele>
        <time>2021-07-31T16:27:22.000Z</time>
      </trkpt>
      <trkpt lat="45.2996" lon="5.13219">
        <ele>470.9</ele>
        <time>2021-07-31T16:27:24.000Z</time>
      </trkpt>
      <trkpt lat="45.29957" lon="5.13204">
        <ele>470.7</ele>
        <time>2021-07-31T16:27:26.000Z</time>
      </trkpt>
      <trkpt lat="45.2995" lon="5.13193">
        <ele>470.6</ele>
        <time>2021-07-31T16:27:28.000Z</time>
      </trkpt>
      <trkpt lat="45.29949" lon="5.13178">
        <ele>470.4</ele>
        <time>2021-07-31T16:27:31.000Z</time>
      </trkpt>
      <trkpt lat="45.29947" lon="5.13159">
        <ele>470.2</ele>
        <time>2021-07-31T16:27:34.000Z</time>
      </trkpt>
      <trkpt lat="45.29949" lon="5.13144">
        <ele>470</ele>
        <time>2021-07-31T16:27:37.000Z</time>
      </trkpt>
      <trkpt lat="45.29953" lon="5.13133">
        <ele>469.7</ele>
        <time>2021-07-31T16:27:40.000Z</time>
      </trkpt>
      <trkpt lat="45.29953" lon="5.13113">
        <ele>469.6</ele>
        <time>2021-07-31T16:27:43.000Z</time>
      </trkpt>
      <trkpt lat="45.29952" lon="5.13094">
        <ele>469.4</ele>
        <time>2021-07-31T16:27:45.000Z</time>
      </trkpt>
      <trkpt lat="45.29949" lon="5.13074">
        <ele>469.3</ele>
        <time>2021-07-31T16:27:47.000Z</time>
      </trkpt>
      <trkpt lat="45.29945" lon="5.13058">
        <ele>469.2</ele>
        <time>2021-07-31T16:27:49.000Z</time>
      </trkpt>
      <trkpt lat="45.29943" lon="5.13044">
        <ele>469.1</ele>
        <time>2021-07-31T16:27:51.000Z</time>
      </trkpt>
      <trkpt lat="45.29941" lon="5.13026">
        <ele>468.9</ele>
        <time>2021-07-31T16:27:54.000Z</time>
      </trkpt>
      <trkpt lat="45.29941" lon="5.13013">
        <ele>468.7</ele>
        <time>2021-07-31T16:27:56.000Z</time>
      </trkpt>
      <trkpt lat="45.29935" lon="5.12996">
        <ele>468.9</ele>
        <time>2021-07-31T16:27:59.000Z</time>
      </trkpt>
      <trkpt lat="45.29939" lon="5.12982">
        <ele>468.5</ele>
        <time>2021-07-31T16:28:02.000Z</time>
      </trkpt>
      <trkpt lat="45.29941" lon="5.12969">
        <ele>468.4</ele>
        <time>2021-07-31T16:28:04.000Z</time>
      </trkpt>
      <trkpt lat="45.29943" lon="5.12954">
        <ele>468.2</ele>
        <time>2021-07-31T16:28:06.000Z</time>
      </trkpt>
      <trkpt lat="45.29944" lon="5.12937">
        <ele>468.1</ele>
        <time>2021-07-31T16:28:09.000Z</time>
      </trkpt>
      <trkpt lat="45.29942" lon="5.12916">
        <ele>468.1</ele>
        <time>2021-07-31T16:28:12.000Z</time>
      </trkpt>
      <trkpt lat="45.29945" lon="5.129">
        <ele>468</ele>
        <time>2021-07-31T16:28:14.000Z</time>
      </trkpt>
      <trkpt lat="45.29948" lon="5.12884">
        <ele>468</ele>
        <time>2021-07-31T16:28:16.000Z</time>
      </trkpt>
      <trkpt lat="45.2995" lon="5.1287">
        <ele>468</ele>
        <time>2021-07-31T16:28:18.000Z</time>
      </trkpt>
      <trkpt lat="45.29954" lon="5.12855">
        <ele>468</ele>
        <time>2021-07-31T16:28:21.000Z</time>
      </trkpt>
      <trkpt lat="45.29955" lon="5.1284">
        <ele>468</ele>
        <time>2021-07-31T16:28:23.000Z</time>
      </trkpt>
      <trkpt lat="45.29963" lon="5.12826">
        <ele>468.1</ele>
        <time>2021-07-31T16:28:25.000Z</time>
      </trkpt>
      <trkpt lat="45.2997" lon="5.12813">
        <ele>468.2</ele>
        <time>2021-07-31T16:28:27.000Z</time>
      </trkpt>
      <trkpt lat="45.29974" lon="5.128">
        <ele>468.4</ele>
        <time>2021-07-31T16:28:29.000Z</time>
      </trkpt>
      <trkpt lat="45.29978" lon="5.12787">
        <ele>468.7</ele>
        <time>2021-07-31T16:28:31.000Z</time>
      </trkpt>
      <trkpt lat="45.2998" lon="5.12772">
        <ele>469</ele>
        <time>2021-07-31T16:28:33.000Z</time>
      </trkpt>
      <trkpt lat="45.29983" lon="5.12759">
        <ele>469.2</ele>
        <time>2021-07-31T16:28:35.000Z</time>
      </trkpt>
      <trkpt lat="45.29989" lon="5.12745">
        <ele>469.4</ele>
        <time>2021-07-31T16:28:37.000Z</time>
      </trkpt>
      <trkpt lat="45.29997" lon="5.12729">
        <ele>469.8</ele>
        <time>2021-07-31T16:28:40.000Z</time>
      </trkpt>
      <trkpt lat="45.30012" lon="5.12722">
        <ele>469.9</ele>
        <time>2021-07-31T16:28:43.000Z</time>
      </trkpt>
      <trkpt lat="45.30022" lon="5.12718">
        <ele>469.9</ele>
        <time>2021-07-31T16:28:45.000Z</time>
      </trkpt>
      <trkpt lat="45.30034" lon="5.12708">
        <ele>470.1</ele>
        <time>2021-07-31T16:28:48.000Z</time>
      </trkpt>
      <trkpt lat="45.30045" lon="5.12702">
        <ele>470.2</ele>
        <time>2021-07-31T16:28:51.000Z</time>
      </trkpt>
      <trkpt lat="45.30055" lon="5.12697">
        <ele>470.3</ele>
        <time>2021-07-31T16:28:53.000Z</time>
      </trkpt>
      <trkpt lat="45.30066" lon="5.12684">
        <ele>470.6</ele>
        <time>2021-07-31T16:28:55.000Z</time>
      </trkpt>
      <trkpt lat="45.30073" lon="5.1267">
        <ele>471</ele>
        <time>2021-07-31T16:28:57.000Z</time>
      </trkpt>
      <trkpt lat="45.30079" lon="5.12656">
        <ele>470.9</ele>
        <time>2021-07-31T16:28:59.000Z</time>
      </trkpt>
      <trkpt lat="45.30087" lon="5.12643">
        <ele>470.5</ele>
        <time>2021-07-31T16:29:01.000Z</time>
      </trkpt>
      <trkpt lat="45.30095" lon="5.12629">
        <ele>469.8</ele>
        <time>2021-07-31T16:29:03.000Z</time>
      </trkpt>
      <trkpt lat="45.30101" lon="5.12615">
        <ele>469.2</ele>
        <time>2021-07-31T16:29:05.000Z</time>
      </trkpt>
      <trkpt lat="45.30108" lon="5.12603">
        <ele>468.6</ele>
        <time>2021-07-31T16:29:07.000Z</time>
      </trkpt>
      <trkpt lat="45.30115" lon="5.12589">
        <ele>467.8</ele>
        <time>2021-07-31T16:29:09.000Z</time>
      </trkpt>
      <trkpt lat="45.30122" lon="5.12575">
        <ele>466.8</ele>
        <time>2021-07-31T16:29:11.000Z</time>
      </trkpt>
      <trkpt lat="45.30129" lon="5.12562">
        <ele>465.8</ele>
        <time>2021-07-31T16:29:13.000Z</time>
      </trkpt>
      <trkpt lat="45.30135" lon="5.12548">
        <ele>464.8</ele>
        <time>2021-07-31T16:29:15.000Z</time>
      </trkpt>
      <trkpt lat="45.30141" lon="5.12533">
        <ele>463.8</ele>
        <time>2021-07-31T16:29:17.000Z</time>
      </trkpt>
      <trkpt lat="45.30146" lon="5.12517">
        <ele>462.9</ele>
        <time>2021-07-31T16:29:19.000Z</time>
      </trkpt>
      <trkpt lat="45.30153" lon="5.125">
        <ele>461.8</ele>
        <time>2021-07-31T16:29:21.000Z</time>
      </trkpt>
      <trkpt lat="45.30158" lon="5.12483">
        <ele>461.3</ele>
        <time>2021-07-31T16:29:23.000Z</time>
      </trkpt>
      <trkpt lat="45.30164" lon="5.12468">
        <ele>460.7</ele>
        <time>2021-07-31T16:29:25.000Z</time>
      </trkpt>
      <trkpt lat="45.30169" lon="5.12453">
        <ele>460.3</ele>
        <time>2021-07-31T16:29:27.000Z</time>
      </trkpt>
      <trkpt lat="45.30173" lon="5.12438">
        <ele>459.9</ele>
        <time>2021-07-31T16:29:29.000Z</time>
      </trkpt>
      <trkpt lat="45.30177" lon="5.12425">
        <ele>459.6</ele>
        <time>2021-07-31T16:29:31.000Z</time>
      </trkpt>
      <trkpt lat="45.30182" lon="5.12411">
        <ele>459.4</ele>
        <time>2021-07-31T16:29:33.000Z</time>
      </trkpt>
      <trkpt lat="45.30189" lon="5.12399">
        <ele>459.3</ele>
        <time>2021-07-31T16:29:35.000Z</time>
      </trkpt>
      <trkpt lat="45.302" lon="5.12385">
        <ele>459.3</ele>
        <time>2021-07-31T16:29:37.000Z</time>
      </trkpt>
      <trkpt lat="45.3021" lon="5.12375">
        <ele>459.5</ele>
        <time>2021-07-31T16:29:39.000Z</time>
      </trkpt>
      <trkpt lat="45.3022" lon="5.12367">
        <ele>459.8</ele>
        <time>2021-07-31T16:29:41.000Z</time>
      </trkpt>
      <trkpt lat="45.30218" lon="5.12351">
        <ele>460.3</ele>
        <time>2021-07-31T16:29:44.000Z</time>
      </trkpt>
      <trkpt lat="45.30213" lon="5.12337">
        <ele>460.6</ele>
        <time>2021-07-31T16:29:46.000Z</time>
      </trkpt>
      <trkpt lat="45.30206" lon="5.12322">
        <ele>460.5</ele>
        <time>2021-07-31T16:29:48.000Z</time>
      </trkpt>
      <trkpt lat="45.302" lon="5.12308">
        <ele>460.4</ele>
        <time>2021-07-31T16:29:50.000Z</time>
      </trkpt>
      <trkpt lat="45.30193" lon="5.12292">
        <ele>460.3</ele>
        <time>2021-07-31T16:29:52.000Z</time>
      </trkpt>
      <trkpt lat="45.30187" lon="5.12276">
        <ele>460.2</ele>
        <time>2021-07-31T16:29:54.000Z</time>
      </trkpt>
      <trkpt lat="45.30185" lon="5.12259">
        <ele>460.4</ele>
        <time>2021-07-31T16:29:56.000Z</time>
      </trkpt>
      <trkpt lat="45.30185" lon="5.12243">
        <ele>460.5</ele>
        <time>2021-07-31T16:29:58.000Z</time>
      </trkpt>
      <trkpt lat="45.30184" lon="5.12229">
        <ele>460.6</ele>
        <time>2021-07-31T16:30:00.000Z</time>
      </trkpt>
      <trkpt lat="45.30185" lon="5.12213">
        <ele>460.7</ele>
        <time>2021-07-31T16:30:02.000Z</time>
      </trkpt>
      <trkpt lat="45.30185" lon="5.12199">
        <ele>460.8</ele>
        <time>2021-07-31T16:30:04.000Z</time>
      </trkpt>
      <trkpt lat="45.30184" lon="5.12185">
        <ele>460.9</ele>
        <time>2021-07-31T16:30:06.000Z</time>
      </trkpt>
      <trkpt lat="45.30185" lon="5.12172">
        <ele>461</ele>
        <time>2021-07-31T16:30:08.000Z</time>
      </trkpt>
      <trkpt lat="45.30185" lon="5.12158">
        <ele>461</ele>
        <time>2021-07-31T16:30:10.000Z</time>
      </trkpt>
      <trkpt lat="45.30186" lon="5.1214">
        <ele>461</ele>
        <time>2021-07-31T16:30:13.000Z</time>
      </trkpt>
      <trkpt lat="45.30185" lon="5.12126">
        <ele>461</ele>
        <time>2021-07-31T16:30:15.000Z</time>
      </trkpt>
      <trkpt lat="45.30186" lon="5.12111">
        <ele>461</ele>
        <time>2021-07-31T16:30:17.000Z</time>
      </trkpt>
      <trkpt lat="45.30186" lon="5.12096">
        <ele>461</ele>
        <time>2021-07-31T16:30:19.000Z</time>
      </trkpt>
      <trkpt lat="45.30188" lon="5.12083">
        <ele>461</ele>
        <time>2021-07-31T16:30:21.000Z</time>
      </trkpt>
      <trkpt lat="45.3019" lon="5.12069">
        <ele>461.2</ele>
        <time>2021-07-31T16:30:23.000Z</time>
      </trkpt>
      <trkpt lat="45.30191" lon="5.12054">
        <ele>461.5</ele>
        <time>2021-07-31T16:30:25.000Z</time>
      </trkpt>
      <trkpt lat="45.30193" lon="5.12039">
        <ele>461.7</ele>
        <time>2021-07-31T16:30:27.000Z</time>
      </trkpt>
      <trkpt lat="45.30195" lon="5.12023">
        <ele>462</ele>
        <time>2021-07-31T16:30:29.000Z</time>
      </trkpt>
      <trkpt lat="45.30197" lon="5.12008">
        <ele>462.2</ele>
        <time>2021-07-31T16:30:31.000Z</time>
      </trkpt>
      <trkpt lat="45.30197" lon="5.11992">
        <ele>462</ele>
        <time>2021-07-31T16:30:33.000Z</time>
      </trkpt>
      <trkpt lat="45.30197" lon="5.11976">
        <ele>461.2</ele>
        <time>2021-07-31T16:30:35.000Z</time>
      </trkpt>
      <trkpt lat="45.30194" lon="5.11959">
        <ele>460.3</ele>
        <time>2021-07-31T16:30:37.000Z</time>
      </trkpt>
      <trkpt lat="45.30191" lon="5.11943">
        <ele>459.5</ele>
        <time>2021-07-31T16:30:39.000Z</time>
      </trkpt>
      <trkpt lat="45.30188" lon="5.11922">
        <ele>458.5</ele>
        <time>2021-07-31T16:30:41.000Z</time>
      </trkpt>
      <trkpt lat="45.30186" lon="5.11901">
        <ele>457.6</ele>
        <time>2021-07-31T16:30:43.000Z</time>
      </trkpt>
      <trkpt lat="45.30185" lon="5.11879">
        <ele>456.8</ele>
        <time>2021-07-31T16:30:45.000Z</time>
      </trkpt>
      <trkpt lat="45.30185" lon="5.11857">
        <ele>455.9</ele>
        <time>2021-07-31T16:30:47.000Z</time>
      </trkpt>
      <trkpt lat="45.30185" lon="5.11835">
        <ele>455.1</ele>
        <time>2021-07-31T16:30:49.000Z</time>
      </trkpt>
      <trkpt lat="45.30186" lon="5.11812">
        <ele>454.3</ele>
        <time>2021-07-31T16:30:51.000Z</time>
      </trkpt>
      <trkpt lat="45.30187" lon="5.1179">
        <ele>453.7</ele>
        <time>2021-07-31T16:30:53.000Z</time>
      </trkpt>
      <trkpt lat="45.30188" lon="5.1177">
        <ele>453.1</ele>
        <time>2021-07-31T16:30:55.000Z</time>
      </trkpt>
      <trkpt lat="45.30188" lon="5.11752">
        <ele>452.5</ele>
        <time>2021-07-31T16:30:57.000Z</time>
      </trkpt>
      <trkpt lat="45.30188" lon="5.11734">
        <ele>452.2</ele>
        <time>2021-07-31T16:30:59.000Z</time>
      </trkpt>
      <trkpt lat="45.30189" lon="5.11717">
        <ele>452</ele>
        <time>2021-07-31T16:31:01.000Z</time>
      </trkpt>
      <trkpt lat="45.3019" lon="5.11696">
        <ele>451.6</ele>
        <time>2021-07-31T16:31:03.000Z</time>
      </trkpt>
      <trkpt lat="45.30191" lon="5.11676">
        <ele>451.3</ele>
        <time>2021-07-31T16:31:05.000Z</time>
      </trkpt>
      <trkpt lat="45.30192" lon="5.11655">
        <ele>450.8</ele>
        <time>2021-07-31T16:31:07.000Z</time>
      </trkpt>
      <trkpt lat="45.30194" lon="5.11634">
        <ele>450.3</ele>
        <time>2021-07-31T16:31:09.000Z</time>
      </trkpt>
      <trkpt lat="45.30196" lon="5.11613">
        <ele>449.8</ele>
        <time>2021-07-31T16:31:11.000Z</time>
      </trkpt>
      <trkpt lat="45.30199" lon="5.11591">
        <ele>449.4</ele>
        <time>2021-07-31T16:31:13.000Z</time>
      </trkpt>
      <trkpt lat="45.302" lon="5.11569">
        <ele>449</ele>
        <time>2021-07-31T16:31:15.000Z</time>
      </trkpt>
      <trkpt lat="45.30201" lon="5.11548">
        <ele>448.7</ele>
        <time>2021-07-31T16:31:17.000Z</time>
      </trkpt>
      <trkpt lat="45.30199" lon="5.11527">
        <ele>448.4</ele>
        <time>2021-07-31T16:31:19.000Z</time>
      </trkpt>
      <trkpt lat="45.30197" lon="5.11506">
        <ele>448.1</ele>
        <time>2021-07-31T16:31:21.000Z</time>
      </trkpt>
      <trkpt lat="45.30197" lon="5.11486">
        <ele>447.6</ele>
        <time>2021-07-31T16:31:23.000Z</time>
      </trkpt>
      <trkpt lat="45.30195" lon="5.11465">
        <ele>447</ele>
        <time>2021-07-31T16:31:25.000Z</time>
      </trkpt>
      <trkpt lat="45.30193" lon="5.11445">
        <ele>446.4</ele>
        <time>2021-07-31T16:31:27.000Z</time>
      </trkpt>
      <trkpt lat="45.3019" lon="5.11424">
        <ele>445.9</ele>
        <time>2021-07-31T16:31:29.000Z</time>
      </trkpt>
      <trkpt lat="45.30188" lon="5.11403">
        <ele>445.3</ele>
        <time>2021-07-31T16:31:31.000Z</time>
      </trkpt>
      <trkpt lat="45.30186" lon="5.11382">
        <ele>444.8</ele>
        <time>2021-07-31T16:31:33.000Z</time>
      </trkpt>
      <trkpt lat="45.30184" lon="5.11361">
        <ele>444.3</ele>
        <time>2021-07-31T16:31:35.000Z</time>
      </trkpt>
      <trkpt lat="45.30181" lon="5.11339">
        <ele>443.8</ele>
        <time>2021-07-31T16:31:37.000Z</time>
      </trkpt>
      <trkpt lat="45.30178" lon="5.11315">
        <ele>443.3</ele>
        <time>2021-07-31T16:31:39.000Z</time>
      </trkpt>
      <trkpt lat="45.30176" lon="5.11295">
        <ele>442.9</ele>
        <time>2021-07-31T16:31:41.000Z</time>
      </trkpt>
      <trkpt lat="45.30174" lon="5.11274">
        <ele>442.5</ele>
        <time>2021-07-31T16:31:43.000Z</time>
      </trkpt>
      <trkpt lat="45.30172" lon="5.11254">
        <ele>442</ele>
        <time>2021-07-31T16:31:45.000Z</time>
      </trkpt>
      <trkpt lat="45.30172" lon="5.11233">
        <ele>441.7</ele>
        <time>2021-07-31T16:31:47.000Z</time>
      </trkpt>
      <trkpt lat="45.30172" lon="5.11212">
        <ele>441.4</ele>
        <time>2021-07-31T16:31:49.000Z</time>
      </trkpt>
      <trkpt lat="45.30173" lon="5.1119">
        <ele>441</ele>
        <time>2021-07-31T16:31:51.000Z</time>
      </trkpt>
      <trkpt lat="45.30173" lon="5.11168">
        <ele>440.7</ele>
        <time>2021-07-31T16:31:53.000Z</time>
      </trkpt>
      <trkpt lat="45.30173" lon="5.11144">
        <ele>439.2</ele>
        <time>2021-07-31T16:31:55.000Z</time>
      </trkpt>
      <trkpt lat="45.30173" lon="5.11122">
        <ele>437.7</ele>
        <time>2021-07-31T16:31:57.000Z</time>
      </trkpt>
      <trkpt lat="45.30174" lon="5.11099">
        <ele>436.2</ele>
        <time>2021-07-31T16:31:59.000Z</time>
      </trkpt>
      <trkpt lat="45.30175" lon="5.11076">
        <ele>435.3</ele>
        <time>2021-07-31T16:32:01.000Z</time>
      </trkpt>
      <trkpt lat="45.30175" lon="5.11054">
        <ele>435.5</ele>
        <time>2021-07-31T16:32:03.000Z</time>
      </trkpt>
      <trkpt lat="45.30175" lon="5.11033">
        <ele>435.9</ele>
        <time>2021-07-31T16:32:05.000Z</time>
      </trkpt>
      <trkpt lat="45.30175" lon="5.11011">
        <ele>436.3</ele>
        <time>2021-07-31T16:32:07.000Z</time>
      </trkpt>
      <trkpt lat="45.30175" lon="5.1099">
        <ele>437.2</ele>
        <time>2021-07-31T16:32:09.000Z</time>
      </trkpt>
      <trkpt lat="45.30175" lon="5.1097">
        <ele>438.4</ele>
        <time>2021-07-31T16:32:11.000Z</time>
      </trkpt>
      <trkpt lat="45.30176" lon="5.10948">
        <ele>439.9</ele>
        <time>2021-07-31T16:32:13.000Z</time>
      </trkpt>
      <trkpt lat="45.30174" lon="5.10928">
        <ele>441.5</ele>
        <time>2021-07-31T16:32:15.000Z</time>
      </trkpt>
      <trkpt lat="45.30176" lon="5.1091">
        <ele>441.8</ele>
        <time>2021-07-31T16:32:17.000Z</time>
      </trkpt>
      <trkpt lat="45.30179" lon="5.10892">
        <ele>440.7</ele>
        <time>2021-07-31T16:32:19.000Z</time>
      </trkpt>
      <trkpt lat="45.30179" lon="5.10874">
        <ele>440.5</ele>
        <time>2021-07-31T16:32:21.000Z</time>
      </trkpt>
      <trkpt lat="45.30177" lon="5.10855">
        <ele>440.5</ele>
        <time>2021-07-31T16:32:23.000Z</time>
      </trkpt>
      <trkpt lat="45.30175" lon="5.10838">
        <ele>440.6</ele>
        <time>2021-07-31T16:32:25.000Z</time>
      </trkpt>
      <trkpt lat="45.30173" lon="5.10819">
        <ele>440.1</ele>
        <time>2021-07-31T16:32:27.000Z</time>
      </trkpt>
      <trkpt lat="45.30174" lon="5.10803">
        <ele>439.2</ele>
        <time>2021-07-31T16:32:29.000Z</time>
      </trkpt>
      <trkpt lat="45.30171" lon="5.10787">
        <ele>438.8</ele>
        <time>2021-07-31T16:32:31.000Z</time>
      </trkpt>
      <trkpt lat="45.3017" lon="5.10768">
        <ele>438.1</ele>
        <time>2021-07-31T16:32:33.000Z</time>
      </trkpt>
      <trkpt lat="45.30171" lon="5.10753">
        <ele>437.3</ele>
        <time>2021-07-31T16:32:35.000Z</time>
      </trkpt>
      <trkpt lat="45.30171" lon="5.10733">
        <ele>434.9</ele>
        <time>2021-07-31T16:32:37.000Z</time>
      </trkpt>
      <trkpt lat="45.3017" lon="5.10712">
        <ele>432.7</ele>
        <time>2021-07-31T16:32:39.000Z</time>
      </trkpt>
      <trkpt lat="45.30172" lon="5.10689">
        <ele>429.4</ele>
        <time>2021-07-31T16:32:41.000Z</time>
      </trkpt>
      <trkpt lat="45.30172" lon="5.10664">
        <ele>426.5</ele>
        <time>2021-07-31T16:32:43.000Z</time>
      </trkpt>
      <trkpt lat="45.30169" lon="5.10652">
        <ele>426.3</ele>
        <time>2021-07-31T16:32:44.000Z</time>
      </trkpt>
      <trkpt lat="45.30161" lon="5.1063">
        <ele>425.2</ele>
        <time>2021-07-31T16:32:46.000Z</time>
      </trkpt>
      <trkpt lat="45.30152" lon="5.10612">
        <ele>424.5</ele>
        <time>2021-07-31T16:32:48.000Z</time>
      </trkpt>
      <trkpt lat="45.30147" lon="5.10593">
        <ele>423.4</ele>
        <time>2021-07-31T16:32:50.000Z</time>
      </trkpt>
      <trkpt lat="45.30141" lon="5.10579">
        <ele>422.8</ele>
        <time>2021-07-31T16:32:52.000Z</time>
      </trkpt>
      <trkpt lat="45.30135" lon="5.10567">
        <ele>422.4</ele>
        <time>2021-07-31T16:32:54.000Z</time>
      </trkpt>
      <trkpt lat="45.30127" lon="5.10548">
        <ele>422</ele>
        <time>2021-07-31T16:32:57.000Z</time>
      </trkpt>
      <trkpt lat="45.3012" lon="5.10537">
        <ele>422</ele>
        <time>2021-07-31T16:32:59.000Z</time>
      </trkpt>
      <trkpt lat="45.30117" lon="5.10521">
        <ele>421.3</ele>
        <time>2021-07-31T16:33:02.000Z</time>
      </trkpt>
      <trkpt lat="45.30112" lon="5.10507">
        <ele>421.2</ele>
        <time>2021-07-31T16:33:05.000Z</time>
      </trkpt>
      <trkpt lat="45.30107" lon="5.10497">
        <ele>421.6</ele>
        <time>2021-07-31T16:33:07.000Z</time>
      </trkpt>
      <trkpt lat="45.30099" lon="5.10481">
        <ele>422.7</ele>
        <time>2021-07-31T16:33:10.000Z</time>
      </trkpt>
      <trkpt lat="45.30093" lon="5.10465">
        <ele>423.7</ele>
        <time>2021-07-31T16:33:13.000Z</time>
      </trkpt>
      <trkpt lat="45.30088" lon="5.1045">
        <ele>424.6</ele>
        <time>2021-07-31T16:33:16.000Z</time>
      </trkpt>
      <trkpt lat="45.30085" lon="5.10436">
        <ele>425.5</ele>
        <time>2021-07-31T16:33:18.000Z</time>
      </trkpt>
      <trkpt lat="45.30079" lon="5.10422">
        <ele>426.3</ele>
        <time>2021-07-31T16:33:20.000Z</time>
      </trkpt>
      <trkpt lat="45.30076" lon="5.1041">
        <ele>426.7</ele>
        <time>2021-07-31T16:33:22.000Z</time>
      </trkpt>
      <trkpt lat="45.30072" lon="5.10393">
        <ele>427.1</ele>
        <time>2021-07-31T16:33:25.000Z</time>
      </trkpt>
      <trkpt lat="45.30067" lon="5.10376">
        <ele>427.7</ele>
        <time>2021-07-31T16:33:28.000Z</time>
      </trkpt>
      <trkpt lat="45.30064" lon="5.10363">
        <ele>428</ele>
        <time>2021-07-31T16:33:30.000Z</time>
      </trkpt>
      <trkpt lat="45.30057" lon="5.10347">
        <ele>428.5</ele>
        <time>2021-07-31T16:33:33.000Z</time>
      </trkpt>
      <trkpt lat="45.3005" lon="5.10332">
        <ele>429</ele>
        <time>2021-07-31T16:33:36.000Z</time>
      </trkpt>
      <trkpt lat="45.3004" lon="5.10318">
        <ele>429.1</ele>
        <time>2021-07-31T16:33:39.000Z</time>
      </trkpt>
      <trkpt lat="45.30032" lon="5.10309">
        <ele>429.3</ele>
        <time>2021-07-31T16:33:41.000Z</time>
      </trkpt>
      <trkpt lat="45.30026" lon="5.10295">
        <ele>429.2</ele>
        <time>2021-07-31T16:33:44.000Z</time>
      </trkpt>
      <trkpt lat="45.30022" lon="5.10279">
        <ele>428.9</ele>
        <time>2021-07-31T16:33:47.000Z</time>
      </trkpt>
      <trkpt lat="45.30016" lon="5.10266">
        <ele>428.7</ele>
        <time>2021-07-31T16:33:49.000Z</time>
      </trkpt>
      <trkpt lat="45.3001" lon="5.10253">
        <ele>428.6</ele>
        <time>2021-07-31T16:33:51.000Z</time>
      </trkpt>
      <trkpt lat="45.30004" lon="5.1024">
        <ele>428.4</ele>
        <time>2021-07-31T16:33:53.000Z</time>
      </trkpt>
      <trkpt lat="45.29997" lon="5.10228">
        <ele>428.5</ele>
        <time>2021-07-31T16:33:55.000Z</time>
      </trkpt>
      <trkpt lat="45.2999" lon="5.10219">
        <ele>428.8</ele>
        <time>2021-07-31T16:33:57.000Z</time>
      </trkpt>
      <trkpt lat="45.29983" lon="5.10207">
        <ele>429.1</ele>
        <time>2021-07-31T16:33:59.000Z</time>
      </trkpt>
      <trkpt lat="45.2998" lon="5.10195">
        <ele>428.8</ele>
        <time>2021-07-31T16:34:01.000Z</time>
      </trkpt>
      <trkpt lat="45.29975" lon="5.1018">
        <ele>428.7</ele>
        <time>2021-07-31T16:34:03.000Z</time>
      </trkpt>
      <trkpt lat="45.29971" lon="5.10166">
        <ele>428.4</ele>
        <time>2021-07-31T16:34:05.000Z</time>
      </trkpt>
      <trkpt lat="45.29966" lon="5.10153">
        <ele>428.8</ele>
        <time>2021-07-31T16:34:07.000Z</time>
      </trkpt>
      <trkpt lat="45.29965" lon="5.10138">
        <ele>428.9</ele>
        <time>2021-07-31T16:34:09.000Z</time>
      </trkpt>
      <trkpt lat="45.29968" lon="5.10125">
        <ele>428.7</ele>
        <time>2021-07-31T16:34:11.000Z</time>
      </trkpt>
      <trkpt lat="45.2997" lon="5.10108">
        <ele>428.5</ele>
        <time>2021-07-31T16:34:13.000Z</time>
      </trkpt>
      <trkpt lat="45.29971" lon="5.10089">
        <ele>428.4</ele>
        <time>2021-07-31T16:34:15.000Z</time>
      </trkpt>
      <trkpt lat="45.29971" lon="5.10072">
        <ele>428.9</ele>
        <time>2021-07-31T16:34:17.000Z</time>
      </trkpt>
      <trkpt lat="45.29972" lon="5.10054">
        <ele>429.6</ele>
        <time>2021-07-31T16:34:19.000Z</time>
      </trkpt>
      <trkpt lat="45.29971" lon="5.10038">
        <ele>430.2</ele>
        <time>2021-07-31T16:34:21.000Z</time>
      </trkpt>
      <trkpt lat="45.29972" lon="5.10022">
        <ele>430.9</ele>
        <time>2021-07-31T16:34:23.000Z</time>
      </trkpt>
      <trkpt lat="45.29974" lon="5.10005">
        <ele>431.3</ele>
        <time>2021-07-31T16:34:25.000Z</time>
      </trkpt>
      <trkpt lat="45.29976" lon="5.09989">
        <ele>431.7</ele>
        <time>2021-07-31T16:34:27.000Z</time>
      </trkpt>
      <trkpt lat="45.29977" lon="5.09973">
        <ele>432</ele>
        <time>2021-07-31T16:34:29.000Z</time>
      </trkpt>
      <trkpt lat="45.29977" lon="5.09954">
        <ele>432.5</ele>
        <time>2021-07-31T16:34:31.000Z</time>
      </trkpt>
      <trkpt lat="45.2998" lon="5.09939">
        <ele>432.7</ele>
        <time>2021-07-31T16:34:33.000Z</time>
      </trkpt>
      <trkpt lat="45.29983" lon="5.09924">
        <ele>432.9</ele>
        <time>2021-07-31T16:34:35.000Z</time>
      </trkpt>
      <trkpt lat="45.29983" lon="5.09908">
        <ele>432.4</ele>
        <time>2021-07-31T16:34:37.000Z</time>
      </trkpt>
      <trkpt lat="45.29981" lon="5.09894">
        <ele>431.6</ele>
        <time>2021-07-31T16:34:39.000Z</time>
      </trkpt>
      <trkpt lat="45.29979" lon="5.09878">
        <ele>430.7</ele>
        <time>2021-07-31T16:34:42.000Z</time>
      </trkpt>
      <trkpt lat="45.29975" lon="5.09862">
        <ele>429.9</ele>
        <time>2021-07-31T16:34:45.000Z</time>
      </trkpt>
      <trkpt lat="45.29973" lon="5.09846">
        <ele>429</ele>
        <time>2021-07-31T16:34:48.000Z</time>
      </trkpt>
      <trkpt lat="45.29968" lon="5.09828">
        <ele>428.4</ele>
        <time>2021-07-31T16:34:51.000Z</time>
      </trkpt>
      <trkpt lat="45.29966" lon="5.09813">
        <ele>428.1</ele>
        <time>2021-07-31T16:34:53.000Z</time>
      </trkpt>
      <trkpt lat="45.29964" lon="5.098">
        <ele>427.8</ele>
        <time>2021-07-31T16:34:55.000Z</time>
      </trkpt>
      <trkpt lat="45.29962" lon="5.09786">
        <ele>427.5</ele>
        <time>2021-07-31T16:34:57.000Z</time>
      </trkpt>
      <trkpt lat="45.29957" lon="5.09771">
        <ele>427.4</ele>
        <time>2021-07-31T16:34:59.000Z</time>
      </trkpt>
      <trkpt lat="45.29955" lon="5.09757">
        <ele>427</ele>
        <time>2021-07-31T16:35:01.000Z</time>
      </trkpt>
      <trkpt lat="45.2995" lon="5.09744">
        <ele>427.1</ele>
        <time>2021-07-31T16:35:03.000Z</time>
      </trkpt>
      <trkpt lat="45.29947" lon="5.09729">
        <ele>427.2</ele>
        <time>2021-07-31T16:35:05.000Z</time>
      </trkpt>
      <trkpt lat="45.29944" lon="5.09717">
        <ele>427.5</ele>
        <time>2021-07-31T16:35:07.000Z</time>
      </trkpt>
      <trkpt lat="45.2994" lon="5.09699">
        <ele>427.8</ele>
        <time>2021-07-31T16:35:10.000Z</time>
      </trkpt>
      <trkpt lat="45.29937" lon="5.09687">
        <ele>428.1</ele>
        <time>2021-07-31T16:35:12.000Z</time>
      </trkpt>
      <trkpt lat="45.29935" lon="5.09674">
        <ele>428.4</ele>
        <time>2021-07-31T16:35:14.000Z</time>
      </trkpt>
      <trkpt lat="45.29933" lon="5.0966">
        <ele>428.5</ele>
        <time>2021-07-31T16:35:16.000Z</time>
      </trkpt>
      <trkpt lat="45.29932" lon="5.09646">
        <ele>428.3</ele>
        <time>2021-07-31T16:35:18.000Z</time>
      </trkpt>
      <trkpt lat="45.29928" lon="5.09633">
        <ele>428.3</ele>
        <time>2021-07-31T16:35:20.000Z</time>
      </trkpt>
      <trkpt lat="45.29925" lon="5.09621">
        <ele>428.6</ele>
        <time>2021-07-31T16:35:22.000Z</time>
      </trkpt>
      <trkpt lat="45.29922" lon="5.09606">
        <ele>428.6</ele>
        <time>2021-07-31T16:35:24.000Z</time>
      </trkpt>
      <trkpt lat="45.29918" lon="5.09586">
        <ele>428.8</ele>
        <time>2021-07-31T16:35:26.000Z</time>
      </trkpt>
      <trkpt lat="45.29913" lon="5.09567">
        <ele>427.5</ele>
        <time>2021-07-31T16:35:28.000Z</time>
      </trkpt>
      <trkpt lat="45.29906" lon="5.0955">
        <ele>426.4</ele>
        <time>2021-07-31T16:35:30.000Z</time>
      </trkpt>
      <trkpt lat="45.299" lon="5.09533">
        <ele>425.6</ele>
        <time>2021-07-31T16:35:32.000Z</time>
      </trkpt>
      <trkpt lat="45.29894" lon="5.09517">
        <ele>425</ele>
        <time>2021-07-31T16:35:34.000Z</time>
      </trkpt>
      <trkpt lat="45.29888" lon="5.09502">
        <ele>424.6</ele>
        <time>2021-07-31T16:35:36.000Z</time>
      </trkpt>
      <trkpt lat="45.2988" lon="5.09486">
        <ele>424.8</ele>
        <time>2021-07-31T16:35:38.000Z</time>
      </trkpt>
      <trkpt lat="45.29873" lon="5.09465">
        <ele>424.9</ele>
        <time>2021-07-31T16:35:41.000Z</time>
      </trkpt>
      <trkpt lat="45.29871" lon="5.0945">
        <ele>424.6</ele>
        <time>2021-07-31T16:35:43.000Z</time>
      </trkpt>
      <trkpt lat="45.29871" lon="5.09434">
        <ele>423.9</ele>
        <time>2021-07-31T16:35:45.000Z</time>
      </trkpt>
      <trkpt lat="45.29869" lon="5.0942">
        <ele>423.6</ele>
        <time>2021-07-31T16:35:47.000Z</time>
      </trkpt>
      <trkpt lat="45.29865" lon="5.09407">
        <ele>424.5</ele>
        <time>2021-07-31T16:35:49.000Z</time>
      </trkpt>
      <trkpt lat="45.29866" lon="5.09391">
        <ele>424.3</ele>
        <time>2021-07-31T16:35:52.000Z</time>
      </trkpt>
      <trkpt lat="45.29863" lon="5.09379">
        <ele>424.9</ele>
        <time>2021-07-31T16:35:54.000Z</time>
      </trkpt>
      <trkpt lat="45.29861" lon="5.09366">
        <ele>425.3</ele>
        <time>2021-07-31T16:35:56.000Z</time>
      </trkpt>
      <trkpt lat="45.29861" lon="5.09352">
        <ele>425.2</ele>
        <time>2021-07-31T16:35:58.000Z</time>
      </trkpt>
      <trkpt lat="45.29862" lon="5.09337">
        <ele>424.9</ele>
        <time>2021-07-31T16:36:00.000Z</time>
      </trkpt>
      <trkpt lat="45.29863" lon="5.09324">
        <ele>424.9</ele>
        <time>2021-07-31T16:36:02.000Z</time>
      </trkpt>
      <trkpt lat="45.29862" lon="5.0931">
        <ele>425.2</ele>
        <time>2021-07-31T16:36:04.000Z</time>
      </trkpt>
      <trkpt lat="45.29864" lon="5.09292">
        <ele>425.1</ele>
        <time>2021-07-31T16:36:07.000Z</time>
      </trkpt>
      <trkpt lat="45.29865" lon="5.09279">
        <ele>425.1</ele>
        <time>2021-07-31T16:36:09.000Z</time>
      </trkpt>
      <trkpt lat="45.29861" lon="5.09267">
        <ele>426.1</ele>
        <time>2021-07-31T16:36:11.000Z</time>
      </trkpt>
      <trkpt lat="45.29853" lon="5.09251">
        <ele>427.9</ele>
        <time>2021-07-31T16:36:14.000Z</time>
      </trkpt>
      <trkpt lat="45.29852" lon="5.09237">
        <ele>427.4</ele>
        <time>2021-07-31T16:36:16.000Z</time>
      </trkpt>
      <trkpt lat="45.29852" lon="5.0922">
        <ele>426.5</ele>
        <time>2021-07-31T16:36:20.000Z</time>
      </trkpt>
      <trkpt lat="45.29847" lon="5.09204">
        <ele>426.8</ele>
        <time>2021-07-31T16:36:23.000Z</time>
      </trkpt>
      <trkpt lat="45.29841" lon="5.09189">
        <ele>427.3</ele>
        <time>2021-07-31T16:36:26.000Z</time>
      </trkpt>
      <trkpt lat="45.29838" lon="5.09176">
        <ele>427.4</ele>
        <time>2021-07-31T16:36:28.000Z</time>
      </trkpt>
      <trkpt lat="45.29834" lon="5.09162">
        <ele>427.5</ele>
        <time>2021-07-31T16:36:30.000Z</time>
      </trkpt>
      <trkpt lat="45.29829" lon="5.09146">
        <ele>427.4</ele>
        <time>2021-07-31T16:36:33.000Z</time>
      </trkpt>
      <trkpt lat="45.29824" lon="5.09136">
        <ele>427.6</ele>
        <time>2021-07-31T16:36:35.000Z</time>
      </trkpt>
      <trkpt lat="45.29816" lon="5.09122">
        <ele>428.3</ele>
        <time>2021-07-31T16:36:38.000Z</time>
      </trkpt>
      <trkpt lat="45.29807" lon="5.09113">
        <ele>429.4</ele>
        <time>2021-07-31T16:36:41.000Z</time>
      </trkpt>
      <trkpt lat="45.298" lon="5.09102">
        <ele>430.3</ele>
        <time>2021-07-31T16:36:44.000Z</time>
      </trkpt>
      <trkpt lat="45.29794" lon="5.09092">
        <ele>431.2</ele>
        <time>2021-07-31T16:36:47.000Z</time>
      </trkpt>
      <trkpt lat="45.29788" lon="5.09081">
        <ele>432.3</ele>
        <time>2021-07-31T16:36:50.000Z</time>
      </trkpt>
      <trkpt lat="45.29782" lon="5.09067">
        <ele>433.5</ele>
        <time>2021-07-31T16:36:54.000Z</time>
      </trkpt>
      <trkpt lat="45.29775" lon="5.09054">
        <ele>434.9</ele>
        <time>2021-07-31T16:36:57.000Z</time>
      </trkpt>
      <trkpt lat="45.29766" lon="5.0904">
        <ele>436.5</ele>
        <time>2021-07-31T16:37:00.000Z</time>
      </trkpt>
      <trkpt lat="45.2976" lon="5.09031">
        <ele>437.6</ele>
        <time>2021-07-31T16:37:02.000Z</time>
      </trkpt>
      <trkpt lat="45.29751" lon="5.0902">
        <ele>439.1</ele>
        <time>2021-07-31T16:37:05.000Z</time>
      </trkpt>
      <trkpt lat="45.29747" lon="5.09007">
        <ele>439.1</ele>
        <time>2021-07-31T16:37:08.000Z</time>
      </trkpt>
      <trkpt lat="45.29747" lon="5.08991">
        <ele>438.7</ele>
        <time>2021-07-31T16:37:12.000Z</time>
      </trkpt>
      <trkpt lat="45.29747" lon="5.08974">
        <ele>438.2</ele>
        <time>2021-07-31T16:37:15.000Z</time>
      </trkpt>
      <trkpt lat="45.29746" lon="5.08955">
        <ele>437.6</ele>
        <time>2021-07-31T16:37:18.000Z</time>
      </trkpt>
      <trkpt lat="45.29743" lon="5.08937">
        <ele>437.1</ele>
        <time>2021-07-31T16:37:21.000Z</time>
      </trkpt>
      <trkpt lat="45.29741" lon="5.08924">
        <ele>436.8</ele>
        <time>2021-07-31T16:37:23.000Z</time>
      </trkpt>
      <trkpt lat="45.2974" lon="5.0891">
        <ele>436.2</ele>
        <time>2021-07-31T16:37:25.000Z</time>
      </trkpt>
      <trkpt lat="45.29737" lon="5.08896">
        <ele>435.9</ele>
        <time>2021-07-31T16:37:27.000Z</time>
      </trkpt>
      <trkpt lat="45.29733" lon="5.08884">
        <ele>435.7</ele>
        <time>2021-07-31T16:37:29.000Z</time>
      </trkpt>
      <trkpt lat="45.2973" lon="5.08871">
        <ele>435.4</ele>
        <time>2021-07-31T16:37:31.000Z</time>
      </trkpt>
      <trkpt lat="45.29725" lon="5.08852">
        <ele>435.1</ele>
        <time>2021-07-31T16:37:34.000Z</time>
      </trkpt>
      <trkpt lat="45.29721" lon="5.08838">
        <ele>435</ele>
        <time>2021-07-31T16:37:36.000Z</time>
      </trkpt>
      <trkpt lat="45.2972" lon="5.08823">
        <ele>434.7</ele>
        <time>2021-07-31T16:37:38.000Z</time>
      </trkpt>
      <trkpt lat="45.29718" lon="5.08808">
        <ele>434.7</ele>
        <time>2021-07-31T16:37:40.000Z</time>
      </trkpt>
      <trkpt lat="45.29717" lon="5.08793">
        <ele>434.5</ele>
        <time>2021-07-31T16:37:42.000Z</time>
      </trkpt>
      <trkpt lat="45.29716" lon="5.0878">
        <ele>434.3</ele>
        <time>2021-07-31T16:37:44.000Z</time>
      </trkpt>
      <trkpt lat="45.29714" lon="5.08767">
        <ele>434.3</ele>
        <time>2021-07-31T16:37:46.000Z</time>
      </trkpt>
      <trkpt lat="45.29713" lon="5.08752">
        <ele>434.1</ele>
        <time>2021-07-31T16:37:48.000Z</time>
      </trkpt>
      <trkpt lat="45.29712" lon="5.08737">
        <ele>433.5</ele>
        <time>2021-07-31T16:37:50.000Z</time>
      </trkpt>
      <trkpt lat="45.2971" lon="5.0872">
        <ele>432.8</ele>
        <time>2021-07-31T16:37:52.000Z</time>
      </trkpt>
      <trkpt lat="45.29709" lon="5.08704">
        <ele>431.9</ele>
        <time>2021-07-31T16:37:54.000Z</time>
      </trkpt>
      <trkpt lat="45.2971" lon="5.08687">
        <ele>431</ele>
        <time>2021-07-31T16:37:56.000Z</time>
      </trkpt>
      <trkpt lat="45.29708" lon="5.08671">
        <ele>430.3</ele>
        <time>2021-07-31T16:37:58.000Z</time>
      </trkpt>
      <trkpt lat="45.29707" lon="5.08654">
        <ele>429.7</ele>
        <time>2021-07-31T16:38:00.000Z</time>
      </trkpt>
      <trkpt lat="45.29704" lon="5.08636">
        <ele>429.3</ele>
        <time>2021-07-31T16:38:02.000Z</time>
      </trkpt>
      <trkpt lat="45.29703" lon="5.08618">
        <ele>428.9</ele>
        <time>2021-07-31T16:38:04.000Z</time>
      </trkpt>
      <trkpt lat="45.29701" lon="5.08599">
        <ele>428.4</ele>
        <time>2021-07-31T16:38:06.000Z</time>
      </trkpt>
      <trkpt lat="45.29699" lon="5.08581">
        <ele>428</ele>
        <time>2021-07-31T16:38:08.000Z</time>
      </trkpt>
      <trkpt lat="45.29696" lon="5.08561">
        <ele>427.7</ele>
        <time>2021-07-31T16:38:10.000Z</time>
      </trkpt>
      <trkpt lat="45.29694" lon="5.08543">
        <ele>427.4</ele>
        <time>2021-07-31T16:38:12.000Z</time>
      </trkpt>
      <trkpt lat="45.29693" lon="5.08526">
        <ele>427.1</ele>
        <time>2021-07-31T16:38:14.000Z</time>
      </trkpt>
      <trkpt lat="45.29691" lon="5.0851">
        <ele>426.9</ele>
        <time>2021-07-31T16:38:16.000Z</time>
      </trkpt>
      <trkpt lat="45.29689" lon="5.08497">
        <ele>426.9</ele>
        <time>2021-07-31T16:38:18.000Z</time>
      </trkpt>
      <trkpt lat="45.29689" lon="5.08482">
        <ele>427.1</ele>
        <time>2021-07-31T16:38:20.000Z</time>
      </trkpt>
      <trkpt lat="45.29688" lon="5.08467">
        <ele>427.3</ele>
        <time>2021-07-31T16:38:22.000Z</time>
      </trkpt>
      <trkpt lat="45.29688" lon="5.08452">
        <ele>427.6</ele>
        <time>2021-07-31T16:38:24.000Z</time>
      </trkpt>
      <trkpt lat="45.29687" lon="5.08435">
        <ele>427.8</ele>
        <time>2021-07-31T16:38:26.000Z</time>
      </trkpt>
      <trkpt lat="45.29687" lon="5.08421">
        <ele>428</ele>
        <time>2021-07-31T16:38:28.000Z</time>
      </trkpt>
      <trkpt lat="45.29686" lon="5.08407">
        <ele>428.4</ele>
        <time>2021-07-31T16:38:30.000Z</time>
      </trkpt>
      <trkpt lat="45.29686" lon="5.08393">
        <ele>428.7</ele>
        <time>2021-07-31T16:38:32.000Z</time>
      </trkpt>
      <trkpt lat="45.29687" lon="5.0838">
        <ele>429</ele>
        <time>2021-07-31T16:38:34.000Z</time>
      </trkpt>
      <trkpt lat="45.29688" lon="5.08366">
        <ele>429.2</ele>
        <time>2021-07-31T16:38:36.000Z</time>
      </trkpt>
      <trkpt lat="45.29687" lon="5.08352">
        <ele>429.6</ele>
        <time>2021-07-31T16:38:38.000Z</time>
      </trkpt>
      <trkpt lat="45.29686" lon="5.08339">
        <ele>430</ele>
        <time>2021-07-31T16:38:40.000Z</time>
      </trkpt>
      <trkpt lat="45.29686" lon="5.08326">
        <ele>430.1</ele>
        <time>2021-07-31T16:38:42.000Z</time>
      </trkpt>
      <trkpt lat="45.29687" lon="5.08306">
        <ele>430</ele>
        <time>2021-07-31T16:38:45.000Z</time>
      </trkpt>
      <trkpt lat="45.29687" lon="5.08293">
        <ele>430</ele>
        <time>2021-07-31T16:38:47.000Z</time>
      </trkpt>
      <trkpt lat="45.29686" lon="5.0828">
        <ele>430</ele>
        <time>2021-07-31T16:38:49.000Z</time>
      </trkpt>
      <trkpt lat="45.29686" lon="5.08259">
        <ele>429.9</ele>
        <time>2021-07-31T16:38:52.000Z</time>
      </trkpt>
      <trkpt lat="45.29686" lon="5.08244">
        <ele>429.6</ele>
        <time>2021-07-31T16:38:54.000Z</time>
      </trkpt>
      <trkpt lat="45.29685" lon="5.08229">
        <ele>429.1</ele>
        <time>2021-07-31T16:38:56.000Z</time>
      </trkpt>
      <trkpt lat="45.29685" lon="5.08211">
        <ele>428.4</ele>
        <time>2021-07-31T16:38:58.000Z</time>
      </trkpt>
      <trkpt lat="45.29684" lon="5.08195">
        <ele>427.7</ele>
        <time>2021-07-31T16:39:00.000Z</time>
      </trkpt>
      <trkpt lat="45.29683" lon="5.08178">
        <ele>427.1</ele>
        <time>2021-07-31T16:39:02.000Z</time>
      </trkpt>
      <trkpt lat="45.29681" lon="5.08164">
        <ele>426.7</ele>
        <time>2021-07-31T16:39:04.000Z</time>
      </trkpt>
      <trkpt lat="45.29678" lon="5.08149">
        <ele>426.3</ele>
        <time>2021-07-31T16:39:06.000Z</time>
      </trkpt>
      <trkpt lat="45.29676" lon="5.08136">
        <ele>426</ele>
        <time>2021-07-31T16:39:08.000Z</time>
      </trkpt>
      <trkpt lat="45.29674" lon="5.0812">
        <ele>425.6</ele>
        <time>2021-07-31T16:39:10.000Z</time>
      </trkpt>
      <trkpt lat="45.29673" lon="5.08104">
        <ele>425.1</ele>
        <time>2021-07-31T16:39:12.000Z</time>
      </trkpt>
      <trkpt lat="45.29672" lon="5.08089">
        <ele>424.6</ele>
        <time>2021-07-31T16:39:14.000Z</time>
      </trkpt>
      <trkpt lat="45.29671" lon="5.08072">
        <ele>423.8</ele>
        <time>2021-07-31T16:39:16.000Z</time>
      </trkpt>
      <trkpt lat="45.29667" lon="5.08055">
        <ele>423.2</ele>
        <time>2021-07-31T16:39:18.000Z</time>
      </trkpt>
      <trkpt lat="45.29664" lon="5.08039">
        <ele>422.6</ele>
        <time>2021-07-31T16:39:20.000Z</time>
      </trkpt>
      <trkpt lat="45.29662" lon="5.08025">
        <ele>421.8</ele>
        <time>2021-07-31T16:39:22.000Z</time>
      </trkpt>
      <trkpt lat="45.2966" lon="5.08008">
        <ele>421</ele>
        <time>2021-07-31T16:39:24.000Z</time>
      </trkpt>
      <trkpt lat="45.29657" lon="5.07993">
        <ele>420.7</ele>
        <time>2021-07-31T16:39:26.000Z</time>
      </trkpt>
      <trkpt lat="45.29655" lon="5.07974">
        <ele>420.7</ele>
        <time>2021-07-31T16:39:28.000Z</time>
      </trkpt>
      <trkpt lat="45.29652" lon="5.07957">
        <ele>420.8</ele>
        <time>2021-07-31T16:39:30.000Z</time>
      </trkpt>
      <trkpt lat="45.2965" lon="5.07943">
        <ele>420.8</ele>
        <time>2021-07-31T16:39:32.000Z</time>
      </trkpt>
      <trkpt lat="45.29649" lon="5.0793">
        <ele>420.8</ele>
        <time>2021-07-31T16:39:34.000Z</time>
      </trkpt>
      <trkpt lat="45.29646" lon="5.07913">
        <ele>420.9</ele>
        <time>2021-07-31T16:39:37.000Z</time>
      </trkpt>
      <trkpt lat="45.29647" lon="5.07899">
        <ele>420.7</ele>
        <time>2021-07-31T16:39:39.000Z</time>
      </trkpt>
      <trkpt lat="45.29648" lon="5.07879">
        <ele>420.5</ele>
        <time>2021-07-31T16:39:42.000Z</time>
      </trkpt>
      <trkpt lat="45.29647" lon="5.07863">
        <ele>420.4</ele>
        <time>2021-07-31T16:39:45.000Z</time>
      </trkpt>
      <trkpt lat="45.29644" lon="5.07845">
        <ele>420.6</ele>
        <time>2021-07-31T16:39:48.000Z</time>
      </trkpt>
      <trkpt lat="45.29645" lon="5.07828">
        <ele>420.6</ele>
        <time>2021-07-31T16:39:51.000Z</time>
      </trkpt>
      <trkpt lat="45.29644" lon="5.07812">
        <ele>421.2</ele>
        <time>2021-07-31T16:39:53.000Z</time>
      </trkpt>
      <trkpt lat="45.29644" lon="5.07795">
        <ele>421.7</ele>
        <time>2021-07-31T16:39:55.000Z</time>
      </trkpt>
      <trkpt lat="45.29646" lon="5.07777">
        <ele>422</ele>
        <time>2021-07-31T16:39:57.000Z</time>
      </trkpt>
      <trkpt lat="45.2965" lon="5.0776">
        <ele>421.9</ele>
        <time>2021-07-31T16:39:59.000Z</time>
      </trkpt>
      <trkpt lat="45.29653" lon="5.07744">
        <ele>421.6</ele>
        <time>2021-07-31T16:40:01.000Z</time>
      </trkpt>
      <trkpt lat="45.29656" lon="5.0773">
        <ele>420.8</ele>
        <time>2021-07-31T16:40:03.000Z</time>
      </trkpt>
      <trkpt lat="45.29661" lon="5.07715">
        <ele>419.9</ele>
        <time>2021-07-31T16:40:05.000Z</time>
      </trkpt>
      <trkpt lat="45.29666" lon="5.07703">
        <ele>419</ele>
        <time>2021-07-31T16:40:07.000Z</time>
      </trkpt>
      <trkpt lat="45.29669" lon="5.07686">
        <ele>418.2</ele>
        <time>2021-07-31T16:40:09.000Z</time>
      </trkpt>
      <trkpt lat="45.29668" lon="5.07665">
        <ele>417.6</ele>
        <time>2021-07-31T16:40:11.000Z</time>
      </trkpt>
      <trkpt lat="45.29667" lon="5.07644">
        <ele>416.3</ele>
        <time>2021-07-31T16:40:13.000Z</time>
      </trkpt>
      <trkpt lat="45.29663" lon="5.07624">
        <ele>415.5</ele>
        <time>2021-07-31T16:40:15.000Z</time>
      </trkpt>
      <trkpt lat="45.29661" lon="5.07602">
        <ele>414.2</ele>
        <time>2021-07-31T16:40:17.000Z</time>
      </trkpt>
      <trkpt lat="45.29662" lon="5.07582">
        <ele>412.9</ele>
        <time>2021-07-31T16:40:19.000Z</time>
      </trkpt>
      <trkpt lat="45.29663" lon="5.07563">
        <ele>413.4</ele>
        <time>2021-07-31T16:40:21.000Z</time>
      </trkpt>
      <trkpt lat="45.29663" lon="5.07543">
        <ele>414</ele>
        <time>2021-07-31T16:40:23.000Z</time>
      </trkpt>
      <trkpt lat="45.29665" lon="5.07528">
        <ele>414.3</ele>
        <time>2021-07-31T16:40:25.000Z</time>
      </trkpt>
      <trkpt lat="45.29665" lon="5.07512">
        <ele>414.8</ele>
        <time>2021-07-31T16:40:28.000Z</time>
      </trkpt>
      <trkpt lat="45.29669" lon="5.07496">
        <ele>414.6</ele>
        <time>2021-07-31T16:40:31.000Z</time>
      </trkpt>
      <trkpt lat="45.2967" lon="5.0748">
        <ele>415</ele>
        <time>2021-07-31T16:40:34.000Z</time>
      </trkpt>
      <trkpt lat="45.29671" lon="5.07465">
        <ele>415.2</ele>
        <time>2021-07-31T16:40:37.000Z</time>
      </trkpt>
      <trkpt lat="45.29672" lon="5.07448">
        <ele>415.5</ele>
        <time>2021-07-31T16:40:40.000Z</time>
      </trkpt>
      <trkpt lat="45.29674" lon="5.07433">
        <ele>415.6</ele>
        <time>2021-07-31T16:40:42.000Z</time>
      </trkpt>
      <trkpt lat="45.29676" lon="5.07417">
        <ele>415.8</ele>
        <time>2021-07-31T16:40:44.000Z</time>
      </trkpt>
      <trkpt lat="45.29677" lon="5.07403">
        <ele>415.3</ele>
        <time>2021-07-31T16:40:46.000Z</time>
      </trkpt>
      <trkpt lat="45.29679" lon="5.07389">
        <ele>414.5</ele>
        <time>2021-07-31T16:40:48.000Z</time>
      </trkpt>
      <trkpt lat="45.29673" lon="5.07377">
        <ele>415.1</ele>
        <time>2021-07-31T16:40:52.000Z</time>
      </trkpt>
      <trkpt lat="45.29664" lon="5.07365">
        <ele>416.3</ele>
        <time>2021-07-31T16:40:56.000Z</time>
      </trkpt>
      <trkpt lat="45.29655" lon="5.07357">
        <ele>417.6</ele>
        <time>2021-07-31T16:40:59.000Z</time>
      </trkpt>
      <trkpt lat="45.29647" lon="5.07349">
        <ele>419</ele>
        <time>2021-07-31T16:41:02.000Z</time>
      </trkpt>
      <trkpt lat="45.29641" lon="5.07336">
        <ele>419.9</ele>
        <time>2021-07-31T16:41:06.000Z</time>
      </trkpt>
      <trkpt lat="45.29638" lon="5.07323">
        <ele>420.6</ele>
        <time>2021-07-31T16:41:09.000Z</time>
      </trkpt>
      <trkpt lat="45.29631" lon="5.07309">
        <ele>421.7</ele>
        <time>2021-07-31T16:41:13.000Z</time>
      </trkpt>
      <trkpt lat="45.29625" lon="5.07298">
        <ele>422.8</ele>
        <time>2021-07-31T16:41:16.000Z</time>
      </trkpt>
      <trkpt lat="45.29618" lon="5.07287">
        <ele>423.9</ele>
        <time>2021-07-31T16:41:19.000Z</time>
      </trkpt>
      <trkpt lat="45.29612" lon="5.07276">
        <ele>424.8</ele>
        <time>2021-07-31T16:41:22.000Z</time>
      </trkpt>
      <trkpt lat="45.29607" lon="5.07262">
        <ele>425.4</ele>
        <time>2021-07-31T16:41:25.000Z</time>
      </trkpt>
      <trkpt lat="45.29601" lon="5.07247">
        <ele>426</ele>
        <time>2021-07-31T16:41:28.000Z</time>
      </trkpt>
      <trkpt lat="45.29595" lon="5.07239">
        <ele>426.7</ele>
        <time>2021-07-31T16:41:30.000Z</time>
      </trkpt>
      <trkpt lat="45.29585" lon="5.07231">
        <ele>427.7</ele>
        <time>2021-07-31T16:41:33.000Z</time>
      </trkpt>
      <trkpt lat="45.29577" lon="5.07222">
        <ele>427.5</ele>
        <time>2021-07-31T16:41:35.000Z</time>
      </trkpt>
      <trkpt lat="45.29569" lon="5.07209">
        <ele>427.3</ele>
        <time>2021-07-31T16:41:38.000Z</time>
      </trkpt>
      <trkpt lat="45.29563" lon="5.07197">
        <ele>427.1</ele>
        <time>2021-07-31T16:41:40.000Z</time>
      </trkpt>
      <trkpt lat="45.29556" lon="5.07183">
        <ele>426.9</ele>
        <time>2021-07-31T16:41:43.000Z</time>
      </trkpt>
      <trkpt lat="45.29552" lon="5.07169">
        <ele>426.7</ele>
        <time>2021-07-31T16:41:46.000Z</time>
      </trkpt>
      <trkpt lat="45.29549" lon="5.07154">
        <ele>425.8</ele>
        <time>2021-07-31T16:41:49.000Z</time>
      </trkpt>
      <trkpt lat="45.29546" lon="5.07137">
        <ele>424.7</ele>
        <time>2021-07-31T16:41:52.000Z</time>
      </trkpt>
      <trkpt lat="45.29547" lon="5.07124">
        <ele>423.5</ele>
        <time>2021-07-31T16:41:54.000Z</time>
      </trkpt>
      <trkpt lat="45.29548" lon="5.07108">
        <ele>422</ele>
        <time>2021-07-31T16:41:56.000Z</time>
      </trkpt>
      <trkpt lat="45.29552" lon="5.07089">
        <ele>419.9</ele>
        <time>2021-07-31T16:41:58.000Z</time>
      </trkpt>
      <trkpt lat="45.29555" lon="5.07068">
        <ele>419.2</ele>
        <time>2021-07-31T16:42:00.000Z</time>
      </trkpt>
      <trkpt lat="45.29558" lon="5.07048">
        <ele>419.1</ele>
        <time>2021-07-31T16:42:02.000Z</time>
      </trkpt>
      <trkpt lat="45.29558" lon="5.07027">
        <ele>419.3</ele>
        <time>2021-07-31T16:42:04.000Z</time>
      </trkpt>
      <trkpt lat="45.29558" lon="5.07008">
        <ele>419.6</ele>
        <time>2021-07-31T16:42:06.000Z</time>
      </trkpt>
      <trkpt lat="45.29558" lon="5.06994">
        <ele>419.8</ele>
        <time>2021-07-31T16:42:08.000Z</time>
      </trkpt>
      <trkpt lat="45.29561" lon="5.06978">
        <ele>419.4</ele>
        <time>2021-07-31T16:42:10.000Z</time>
      </trkpt>
      <trkpt lat="45.29565" lon="5.06962">
        <ele>419</ele>
        <time>2021-07-31T16:42:12.000Z</time>
      </trkpt>
      <trkpt lat="45.29569" lon="5.06949">
        <ele>418.6</ele>
        <time>2021-07-31T16:42:14.000Z</time>
      </trkpt>
      <trkpt lat="45.29572" lon="5.06936">
        <ele>418.3</ele>
        <time>2021-07-31T16:42:16.000Z</time>
      </trkpt>
      <trkpt lat="45.29574" lon="5.06924">
        <ele>418.2</ele>
        <time>2021-07-31T16:42:18.000Z</time>
      </trkpt>
      <trkpt lat="45.29574" lon="5.06904">
        <ele>417.4</ele>
        <time>2021-07-31T16:42:21.000Z</time>
      </trkpt>
      <trkpt lat="45.29575" lon="5.0689">
        <ele>416.2</ele>
        <time>2021-07-31T16:42:23.000Z</time>
      </trkpt>
      <trkpt lat="45.29576" lon="5.06872">
        <ele>414.8</ele>
        <time>2021-07-31T16:42:26.000Z</time>
      </trkpt>
      <trkpt lat="45.29575" lon="5.06858">
        <ele>414.1</ele>
        <time>2021-07-31T16:42:28.000Z</time>
      </trkpt>
      <trkpt lat="45.29573" lon="5.06843">
        <ele>413.4</ele>
        <time>2021-07-31T16:42:30.000Z</time>
      </trkpt>
      <trkpt lat="45.29571" lon="5.06828">
        <ele>412.6</ele>
        <time>2021-07-31T16:42:32.000Z</time>
      </trkpt>
      <trkpt lat="45.2957" lon="5.06809">
        <ele>411.7</ele>
        <time>2021-07-31T16:42:34.000Z</time>
      </trkpt>
      <trkpt lat="45.29567" lon="5.0679">
        <ele>411</ele>
        <time>2021-07-31T16:42:36.000Z</time>
      </trkpt>
      <trkpt lat="45.29568" lon="5.06768">
        <ele>409.6</ele>
        <time>2021-07-31T16:42:38.000Z</time>
      </trkpt>
      <trkpt lat="45.29569" lon="5.06748">
        <ele>408.1</ele>
        <time>2021-07-31T16:42:40.000Z</time>
      </trkpt>
      <trkpt lat="45.2957" lon="5.06731">
        <ele>408</ele>
        <time>2021-07-31T16:42:42.000Z</time>
      </trkpt>
      <trkpt lat="45.29573" lon="5.06718">
        <ele>407.7</ele>
        <time>2021-07-31T16:42:46.000Z</time>
      </trkpt>
      <trkpt lat="45.29571" lon="5.06704">
        <ele>408.1</ele>
        <time>2021-07-31T16:42:49.000Z</time>
      </trkpt>
      <trkpt lat="45.29572" lon="5.06688">
        <ele>407.9</ele>
        <time>2021-07-31T16:42:53.000Z</time>
      </trkpt>
      <trkpt lat="45.29577" lon="5.06677">
        <ele>407.2</ele>
        <time>2021-07-31T16:42:56.000Z</time>
      </trkpt>
      <trkpt lat="45.29577" lon="5.06657">
        <ele>407.9</ele>
        <time>2021-07-31T16:42:59.000Z</time>
      </trkpt>
      <trkpt lat="45.29579" lon="5.06643">
        <ele>408.1</ele>
        <time>2021-07-31T16:43:01.000Z</time>
      </trkpt>
      <trkpt lat="45.29582" lon="5.06628">
        <ele>408.5</ele>
        <time>2021-07-31T16:43:03.000Z</time>
      </trkpt>
      <trkpt lat="45.29585" lon="5.06612">
        <ele>409.1</ele>
        <time>2021-07-31T16:43:05.000Z</time>
      </trkpt>
      <trkpt lat="45.29588" lon="5.06598">
        <ele>409.3</ele>
        <time>2021-07-31T16:43:07.000Z</time>
      </trkpt>
      <trkpt lat="45.29591" lon="5.06585">
        <ele>409.7</ele>
        <time>2021-07-31T16:43:09.000Z</time>
      </trkpt>
      <trkpt lat="45.29592" lon="5.06572">
        <ele>409</ele>
        <time>2021-07-31T16:43:11.000Z</time>
      </trkpt>
      <trkpt lat="45.29592" lon="5.06555">
        <ele>408.1</ele>
        <time>2021-07-31T16:43:14.000Z</time>
      </trkpt>
      <trkpt lat="45.29593" lon="5.06539">
        <ele>407.2</ele>
        <time>2021-07-31T16:43:17.000Z</time>
      </trkpt>
      <trkpt lat="45.29593" lon="5.06526">
        <ele>406.5</ele>
        <time>2021-07-31T16:43:20.000Z</time>
      </trkpt>
      <trkpt lat="45.29597" lon="5.06507">
        <ele>404.8</ele>
        <time>2021-07-31T16:43:23.000Z</time>
      </trkpt>
      <trkpt lat="45.29597" lon="5.06488">
        <ele>403.2</ele>
        <time>2021-07-31T16:43:25.000Z</time>
      </trkpt>
      <trkpt lat="45.29595" lon="5.06465">
        <ele>401.7</ele>
        <time>2021-07-31T16:43:27.000Z</time>
      </trkpt>
      <trkpt lat="45.29594" lon="5.06443">
        <ele>399.9</ele>
        <time>2021-07-31T16:43:29.000Z</time>
      </trkpt>
      <trkpt lat="45.29595" lon="5.06421">
        <ele>397.5</ele>
        <time>2021-07-31T16:43:31.000Z</time>
      </trkpt>
      <trkpt lat="45.29596" lon="5.06408">
        <ele>397.6</ele>
        <time>2021-07-31T16:43:32.000Z</time>
      </trkpt>
      <trkpt lat="45.29598" lon="5.06394">
        <ele>397.9</ele>
        <time>2021-07-31T16:43:33.000Z</time>
      </trkpt>
      <trkpt lat="45.29602" lon="5.06372">
        <ele>398.5</ele>
        <time>2021-07-31T16:43:35.000Z</time>
      </trkpt>
      <trkpt lat="45.29601" lon="5.06353">
        <ele>399.9</ele>
        <time>2021-07-31T16:43:37.000Z</time>
      </trkpt>
      <trkpt lat="45.29599" lon="5.06336">
        <ele>401.5</ele>
        <time>2021-07-31T16:43:39.000Z</time>
      </trkpt>
      <trkpt lat="45.296" lon="5.0632">
        <ele>401.1</ele>
        <time>2021-07-31T16:43:41.000Z</time>
      </trkpt>
      <trkpt lat="45.29602" lon="5.06307">
        <ele>400.3</ele>
        <time>2021-07-31T16:43:43.000Z</time>
      </trkpt>
      <trkpt lat="45.29603" lon="5.06291">
        <ele>399.9</ele>
        <time>2021-07-31T16:43:46.000Z</time>
      </trkpt>
      <trkpt lat="45.29605" lon="5.06271">
        <ele>399.2</ele>
        <time>2021-07-31T16:43:49.000Z</time>
      </trkpt>
      <trkpt lat="45.29609" lon="5.06258">
        <ele>397.9</ele>
        <time>2021-07-31T16:43:51.000Z</time>
      </trkpt>
      <trkpt lat="45.29611" lon="5.06242">
        <ele>396.8</ele>
        <time>2021-07-31T16:43:53.000Z</time>
      </trkpt>
      <trkpt lat="45.29613" lon="5.06227">
        <ele>395.2</ele>
        <time>2021-07-31T16:43:55.000Z</time>
      </trkpt>
      <trkpt lat="45.29614" lon="5.06211">
        <ele>394</ele>
        <time>2021-07-31T16:43:57.000Z</time>
      </trkpt>
      <trkpt lat="45.29617" lon="5.06195">
        <ele>392.3</ele>
        <time>2021-07-31T16:43:59.000Z</time>
      </trkpt>
      <trkpt lat="45.29619" lon="5.06175">
        <ele>390.4</ele>
        <time>2021-07-31T16:44:01.000Z</time>
      </trkpt>
      <trkpt lat="45.29623" lon="5.06157">
        <ele>388.8</ele>
        <time>2021-07-31T16:44:03.000Z</time>
      </trkpt>
      <trkpt lat="45.29628" lon="5.0614">
        <ele>387.4</ele>
        <time>2021-07-31T16:44:05.000Z</time>
      </trkpt>
      <trkpt lat="45.29634" lon="5.06128">
        <ele>386</ele>
        <time>2021-07-31T16:44:07.000Z</time>
      </trkpt>
      <trkpt lat="45.29644" lon="5.06119">
        <ele>383.8</ele>
        <time>2021-07-31T16:44:09.000Z</time>
      </trkpt>
      <trkpt lat="45.29653" lon="5.06113">
        <ele>381.8</ele>
        <time>2021-07-31T16:44:11.000Z</time>
      </trkpt>
      <trkpt lat="45.29664" lon="5.06103">
        <ele>379.5</ele>
        <time>2021-07-31T16:44:14.000Z</time>
      </trkpt>
      <trkpt lat="45.29673" lon="5.06097">
        <ele>377.1</ele>
        <time>2021-07-31T16:44:16.000Z</time>
      </trkpt>
      <trkpt lat="45.29684" lon="5.06087">
        <ele>374.4</ele>
        <time>2021-07-31T16:44:19.000Z</time>
      </trkpt>
      <trkpt lat="45.29695" lon="5.06076">
        <ele>371.2</ele>
        <time>2021-07-31T16:44:22.000Z</time>
      </trkpt>
      <trkpt lat="45.29702" lon="5.06067">
        <ele>369.2</ele>
        <time>2021-07-31T16:44:24.000Z</time>
      </trkpt>
      <trkpt lat="45.29709" lon="5.06053">
        <ele>367.3</ele>
        <time>2021-07-31T16:44:27.000Z</time>
      </trkpt>
      <trkpt lat="45.29714" lon="5.06042">
        <ele>365.9</ele>
        <time>2021-07-31T16:44:29.000Z</time>
      </trkpt>
      <trkpt lat="45.29718" lon="5.06029">
        <ele>364.6</ele>
        <time>2021-07-31T16:44:32.000Z</time>
      </trkpt>
      <trkpt lat="45.29726" lon="5.06013">
        <ele>362.2</ele>
        <time>2021-07-31T16:44:35.000Z</time>
      </trkpt>
      <trkpt lat="45.29732" lon="5.05998">
        <ele>360.4</ele>
        <time>2021-07-31T16:44:37.000Z</time>
      </trkpt>
      <trkpt lat="45.29739" lon="5.0598">
        <ele>358.2</ele>
        <time>2021-07-31T16:44:39.000Z</time>
      </trkpt>
      <trkpt lat="45.29746" lon="5.05962">
        <ele>355.6</ele>
        <time>2021-07-31T16:44:41.000Z</time>
      </trkpt>
      <trkpt lat="45.29754" lon="5.05943">
        <ele>353.3</ele>
        <time>2021-07-31T16:44:43.000Z</time>
      </trkpt>
      <trkpt lat="45.29758" lon="5.05924">
        <ele>351.9</ele>
        <time>2021-07-31T16:44:45.000Z</time>
      </trkpt>
      <trkpt lat="45.29762" lon="5.05905">
        <ele>350.5</ele>
        <time>2021-07-31T16:44:47.000Z</time>
      </trkpt>
      <trkpt lat="45.29767" lon="5.05888">
        <ele>348.9</ele>
        <time>2021-07-31T16:44:49.000Z</time>
      </trkpt>
      <trkpt lat="45.29769" lon="5.05873">
        <ele>348.3</ele>
        <time>2021-07-31T16:44:51.000Z</time>
      </trkpt>
      <trkpt lat="45.29768" lon="5.05859">
        <ele>348.3</ele>
        <time>2021-07-31T16:44:53.000Z</time>
      </trkpt>
      <trkpt lat="45.2977" lon="5.05841">
        <ele>347.4</ele>
        <time>2021-07-31T16:44:55.000Z</time>
      </trkpt>
      <trkpt lat="45.29778" lon="5.0583">
        <ele>345.3</ele>
        <time>2021-07-31T16:44:57.000Z</time>
      </trkpt>
      <trkpt lat="45.29782" lon="5.05817">
        <ele>343.8</ele>
        <time>2021-07-31T16:44:59.000Z</time>
      </trkpt>
      <trkpt lat="45.29787" lon="5.05802">
        <ele>342.4</ele>
        <time>2021-07-31T16:45:01.000Z</time>
      </trkpt>
      <trkpt lat="45.2979" lon="5.05783">
        <ele>341</ele>
        <time>2021-07-31T16:45:04.000Z</time>
      </trkpt>
      <trkpt lat="45.29793" lon="5.05767">
        <ele>340</ele>
        <time>2021-07-31T16:45:06.000Z</time>
      </trkpt>
      <trkpt lat="45.29801" lon="5.05753">
        <ele>337.1</ele>
        <time>2021-07-31T16:45:08.000Z</time>
      </trkpt>
      <trkpt lat="45.29808" lon="5.05736">
        <ele>335</ele>
        <time>2021-07-31T16:45:10.000Z</time>
      </trkpt>
      <trkpt lat="45.29809" lon="5.0572">
        <ele>334.2</ele>
        <time>2021-07-31T16:45:12.000Z</time>
      </trkpt>
      <trkpt lat="45.29813" lon="5.05707">
        <ele>332.6</ele>
        <time>2021-07-31T16:45:14.000Z</time>
      </trkpt>
      <trkpt lat="45.29818" lon="5.05694">
        <ele>330.6</ele>
        <time>2021-07-31T16:45:16.000Z</time>
      </trkpt>
      <trkpt lat="45.29829" lon="5.05679">
        <ele>326.6</ele>
        <time>2021-07-31T16:45:18.000Z</time>
      </trkpt>
      <trkpt lat="45.2984" lon="5.05667">
        <ele>323.9</ele>
        <time>2021-07-31T16:45:20.000Z</time>
      </trkpt>
      <trkpt lat="45.29849" lon="5.05651">
        <ele>322.3</ele>
        <time>2021-07-31T16:45:22.000Z</time>
      </trkpt>
      <trkpt lat="45.29851" lon="5.05631">
        <ele>321.6</ele>
        <time>2021-07-31T16:45:24.000Z</time>
      </trkpt>
      <trkpt lat="45.29847" lon="5.05611">
        <ele>321.7</ele>
        <time>2021-07-31T16:45:26.000Z</time>
      </trkpt>
      <trkpt lat="45.29844" lon="5.05592">
        <ele>321.7</ele>
        <time>2021-07-31T16:45:28.000Z</time>
      </trkpt>
      <trkpt lat="45.29839" lon="5.05575">
        <ele>322.2</ele>
        <time>2021-07-31T16:45:30.000Z</time>
      </trkpt>
      <trkpt lat="45.29836" lon="5.0556">
        <ele>322.6</ele>
        <time>2021-07-31T16:45:32.000Z</time>
      </trkpt>
      <trkpt lat="45.29836" lon="5.05545">
        <ele>322.7</ele>
        <time>2021-07-31T16:45:34.000Z</time>
      </trkpt>
      <trkpt lat="45.29834" lon="5.05531">
        <ele>322.9</ele>
        <time>2021-07-31T16:45:36.000Z</time>
      </trkpt>
      <trkpt lat="45.2983" lon="5.05519">
        <ele>324</ele>
        <time>2021-07-31T16:45:38.000Z</time>
      </trkpt>
      <trkpt lat="45.29828" lon="5.05505">
        <ele>324.4</ele>
        <time>2021-07-31T16:45:40.000Z</time>
      </trkpt>
      <trkpt lat="45.29831" lon="5.05489">
        <ele>323</ele>
        <time>2021-07-31T16:45:42.000Z</time>
      </trkpt>
      <trkpt lat="45.29836" lon="5.05472">
        <ele>321.3</ele>
        <time>2021-07-31T16:45:44.000Z</time>
      </trkpt>
      <trkpt lat="45.29836" lon="5.05452">
        <ele>320.4</ele>
        <time>2021-07-31T16:45:46.000Z</time>
      </trkpt>
      <trkpt lat="45.29835" lon="5.05434">
        <ele>319.6</ele>
        <time>2021-07-31T16:45:48.000Z</time>
      </trkpt>
      <trkpt lat="45.29833" lon="5.05419">
        <ele>319.2</ele>
        <time>2021-07-31T16:45:50.000Z</time>
      </trkpt>
      <trkpt lat="45.29832" lon="5.05405">
        <ele>319.8</ele>
        <time>2021-07-31T16:45:52.000Z</time>
      </trkpt>
      <trkpt lat="45.29829" lon="5.05389">
        <ele>320.8</ele>
        <time>2021-07-31T16:45:55.000Z</time>
      </trkpt>
      <trkpt lat="45.29829" lon="5.05375">
        <ele>321.2</ele>
        <time>2021-07-31T16:45:58.000Z</time>
      </trkpt>
      <trkpt lat="45.29828" lon="5.05361">
        <ele>321.7</ele>
        <time>2021-07-31T16:46:01.000Z</time>
      </trkpt>
      <trkpt lat="45.29828" lon="5.05348">
        <ele>322.1</ele>
        <time>2021-07-31T16:46:04.000Z</time>
      </trkpt>
      <trkpt lat="45.29828" lon="5.05335">
        <ele>322.1</ele>
        <time>2021-07-31T16:46:06.000Z</time>
      </trkpt>
      <trkpt lat="45.29829" lon="5.05322">
        <ele>322.4</ele>
        <time>2021-07-31T16:46:08.000Z</time>
      </trkpt>
      <trkpt lat="45.29829" lon="5.05303">
        <ele>322.9</ele>
        <time>2021-07-31T16:46:11.000Z</time>
      </trkpt>
      <trkpt lat="45.29831" lon="5.05285">
        <ele>323.3</ele>
        <time>2021-07-31T16:46:14.000Z</time>
      </trkpt>
      <trkpt lat="45.29831" lon="5.05267">
        <ele>323.8</ele>
        <time>2021-07-31T16:46:17.000Z</time>
      </trkpt>
      <trkpt lat="45.2983" lon="5.05251">
        <ele>324.4</ele>
        <time>2021-07-31T16:46:20.000Z</time>
      </trkpt>
      <trkpt lat="45.2983" lon="5.05238">
        <ele>324.1</ele>
        <time>2021-07-31T16:46:22.000Z</time>
      </trkpt>
      <trkpt lat="45.29829" lon="5.05223">
        <ele>323.7</ele>
        <time>2021-07-31T16:46:24.000Z</time>
      </trkpt>
      <trkpt lat="45.29828" lon="5.0521">
        <ele>323.5</ele>
        <time>2021-07-31T16:46:26.000Z</time>
      </trkpt>
      <trkpt lat="45.29828" lon="5.05192">
        <ele>322.8</ele>
        <time>2021-07-31T16:46:29.000Z</time>
      </trkpt>
      <trkpt lat="45.29828" lon="5.05179">
        <ele>322.3</ele>
        <time>2021-07-31T16:46:31.000Z</time>
      </trkpt>
      <trkpt lat="45.29828" lon="5.05166">
        <ele>321.9</ele>
        <time>2021-07-31T16:46:33.000Z</time>
      </trkpt>
      <trkpt lat="45.29829" lon="5.05152">
        <ele>321.6</ele>
        <time>2021-07-31T16:46:35.000Z</time>
      </trkpt>
      <trkpt lat="45.29828" lon="5.05133">
        <ele>321.5</ele>
        <time>2021-07-31T16:46:38.000Z</time>
      </trkpt>
      <trkpt lat="45.29828" lon="5.05116">
        <ele>321.3</ele>
        <time>2021-07-31T16:46:40.000Z</time>
      </trkpt>
      <trkpt lat="45.29829" lon="5.051">
        <ele>320.9</ele>
        <time>2021-07-31T16:46:42.000Z</time>
      </trkpt>
      <trkpt lat="45.2983" lon="5.05083">
        <ele>320.6</ele>
        <time>2021-07-31T16:46:44.000Z</time>
      </trkpt>
      <trkpt lat="45.29829" lon="5.05069">
        <ele>319.9</ele>
        <time>2021-07-31T16:46:46.000Z</time>
      </trkpt>
      <trkpt lat="45.29828" lon="5.05054">
        <ele>319.2</ele>
        <time>2021-07-31T16:46:48.000Z</time>
      </trkpt>
      <trkpt lat="45.29828" lon="5.0504">
        <ele>318.4</ele>
        <time>2021-07-31T16:46:50.000Z</time>
      </trkpt>
      <trkpt lat="45.29827" lon="5.05021">
        <ele>317.7</ele>
        <time>2021-07-31T16:46:53.000Z</time>
      </trkpt>
      <trkpt lat="45.29825" lon="5.05005">
        <ele>317.1</ele>
        <time>2021-07-31T16:46:55.000Z</time>
      </trkpt>
      <trkpt lat="45.29823" lon="5.04991">
        <ele>317.3</ele>
        <time>2021-07-31T16:46:57.000Z</time>
      </trkpt>
      <trkpt lat="45.29821" lon="5.04976">
        <ele>317.5</ele>
        <time>2021-07-31T16:46:59.000Z</time>
      </trkpt>
      <trkpt lat="45.29819" lon="5.04959">
        <ele>318.1</ele>
        <time>2021-07-31T16:47:01.000Z</time>
      </trkpt>
      <trkpt lat="45.29818" lon="5.04942">
        <ele>318.2</ele>
        <time>2021-07-31T16:47:03.000Z</time>
      </trkpt>
      <trkpt lat="45.29816" lon="5.04925">
        <ele>318.4</ele>
        <time>2021-07-31T16:47:05.000Z</time>
      </trkpt>
      <trkpt lat="45.29815" lon="5.04908">
        <ele>318.5</ele>
        <time>2021-07-31T16:47:07.000Z</time>
      </trkpt>
      <trkpt lat="45.29813" lon="5.04892">
        <ele>318.7</ele>
        <time>2021-07-31T16:47:09.000Z</time>
      </trkpt>
      <trkpt lat="45.29811" lon="5.04877">
        <ele>318.8</ele>
        <time>2021-07-31T16:47:11.000Z</time>
      </trkpt>
      <trkpt lat="45.2981" lon="5.04863">
        <ele>318.9</ele>
        <time>2021-07-31T16:47:13.000Z</time>
      </trkpt>
      <trkpt lat="45.29808" lon="5.04847">
        <ele>319.2</ele>
        <time>2021-07-31T16:47:15.000Z</time>
      </trkpt>
      <trkpt lat="45.29804" lon="5.04831">
        <ele>319.5</ele>
        <time>2021-07-31T16:47:17.000Z</time>
      </trkpt>
      <trkpt lat="45.29801" lon="5.04816">
        <ele>320.1</ele>
        <time>2021-07-31T16:47:19.000Z</time>
      </trkpt>
      <trkpt lat="45.29797" lon="5.04802">
        <ele>320.6</ele>
        <time>2021-07-31T16:47:21.000Z</time>
      </trkpt>
      <trkpt lat="45.29792" lon="5.04786">
        <ele>321.4</ele>
        <time>2021-07-31T16:47:24.000Z</time>
      </trkpt>
      <trkpt lat="45.29786" lon="5.04771">
        <ele>322.5</ele>
        <time>2021-07-31T16:47:27.000Z</time>
      </trkpt>
      <trkpt lat="45.29782" lon="5.04757">
        <ele>323</ele>
        <time>2021-07-31T16:47:30.000Z</time>
      </trkpt>
      <trkpt lat="45.2978" lon="5.04738">
        <ele>323.3</ele>
        <time>2021-07-31T16:47:33.000Z</time>
      </trkpt>
      <trkpt lat="45.29778" lon="5.04726">
        <ele>323.6</ele>
        <time>2021-07-31T16:47:35.000Z</time>
      </trkpt>
      <trkpt lat="45.29776" lon="5.04712">
        <ele>323.9</ele>
        <time>2021-07-31T16:47:37.000Z</time>
      </trkpt>
      <trkpt lat="45.29775" lon="5.04699">
        <ele>324</ele>
        <time>2021-07-31T16:47:40.000Z</time>
      </trkpt>
      <trkpt lat="45.29769" lon="5.04682">
        <ele>324.8</ele>
        <time>2021-07-31T16:47:43.000Z</time>
      </trkpt>
      <trkpt lat="45.29767" lon="5.04666">
        <ele>324.9</ele>
        <time>2021-07-31T16:47:46.000Z</time>
      </trkpt>
      <trkpt lat="45.29767" lon="5.04652">
        <ele>324.7</ele>
        <time>2021-07-31T16:47:48.000Z</time>
      </trkpt>
      <trkpt lat="45.29768" lon="5.04634">
        <ele>324.3</ele>
        <time>2021-07-31T16:47:51.000Z</time>
      </trkpt>
      <trkpt lat="45.29769" lon="5.04621">
        <ele>323.9</ele>
        <time>2021-07-31T16:47:53.000Z</time>
      </trkpt>
      <trkpt lat="45.29771" lon="5.04603">
        <ele>323.3</ele>
        <time>2021-07-31T16:47:56.000Z</time>
      </trkpt>
      <trkpt lat="45.2977" lon="5.0459">
        <ele>323.2</ele>
        <time>2021-07-31T16:47:58.000Z</time>
      </trkpt>
      <trkpt lat="45.29765" lon="5.04572">
        <ele>323.5</ele>
        <time>2021-07-31T16:48:01.000Z</time>
      </trkpt>
      <trkpt lat="45.29761" lon="5.04555">
        <ele>323.6</ele>
        <time>2021-07-31T16:48:04.000Z</time>
      </trkpt>
      <trkpt lat="45.29758" lon="5.04539">
        <ele>323.6</ele>
        <time>2021-07-31T16:48:06.000Z</time>
      </trkpt>
      <trkpt lat="45.29754" lon="5.04526">
        <ele>324</ele>
        <time>2021-07-31T16:48:08.000Z</time>
      </trkpt>
      <trkpt lat="45.2975" lon="5.04515">
        <ele>324.5</ele>
        <time>2021-07-31T16:48:10.000Z</time>
      </trkpt>
      <trkpt lat="45.29745" lon="5.045">
        <ele>325.1</ele>
        <time>2021-07-31T16:48:13.000Z</time>
      </trkpt>
      <trkpt lat="45.2974" lon="5.04485">
        <ele>325.3</ele>
        <time>2021-07-31T16:48:16.000Z</time>
      </trkpt>
      <trkpt lat="45.29735" lon="5.04471">
        <ele>325.7</ele>
        <time>2021-07-31T16:48:19.000Z</time>
      </trkpt>
      <trkpt lat="45.2973" lon="5.04454">
        <ele>326.1</ele>
        <time>2021-07-31T16:48:22.000Z</time>
      </trkpt>
      <trkpt lat="45.29726" lon="5.04436">
        <ele>326.1</ele>
        <time>2021-07-31T16:48:25.000Z</time>
      </trkpt>
      <trkpt lat="45.29722" lon="5.04418">
        <ele>326.4</ele>
        <time>2021-07-31T16:48:28.000Z</time>
      </trkpt>
      <trkpt lat="45.29719" lon="5.04406">
        <ele>326.7</ele>
        <time>2021-07-31T16:48:30.000Z</time>
      </trkpt>
      <trkpt lat="45.29715" lon="5.04389">
        <ele>327.3</ele>
        <time>2021-07-31T16:48:33.000Z</time>
      </trkpt>
      <trkpt lat="45.29711" lon="5.04375">
        <ele>327.9</ele>
        <time>2021-07-31T16:48:36.000Z</time>
      </trkpt>
      <trkpt lat="45.29707" lon="5.04361">
        <ele>328.5</ele>
        <time>2021-07-31T16:48:38.000Z</time>
      </trkpt>
      <trkpt lat="45.29694" lon="5.04356">
        <ele>331</ele>
        <time>2021-07-31T16:48:41.000Z</time>
      </trkpt>
      <trkpt lat="45.29682" lon="5.04361">
        <ele>333.7</ele>
        <time>2021-07-31T16:48:44.000Z</time>
      </trkpt>
      <trkpt lat="45.29671" lon="5.04371">
        <ele>336.5</ele>
        <time>2021-07-31T16:48:47.000Z</time>
      </trkpt>
      <trkpt lat="45.29662" lon="5.04379">
        <ele>337.7</ele>
        <time>2021-07-31T16:48:49.000Z</time>
      </trkpt>
      <trkpt lat="45.29652" lon="5.04389">
        <ele>338.5</ele>
        <time>2021-07-31T16:48:51.000Z</time>
      </trkpt>
      <trkpt lat="45.29641" lon="5.04394">
        <ele>339.3</ele>
        <time>2021-07-31T16:48:53.000Z</time>
      </trkpt>
      <trkpt lat="45.29627" lon="5.04401">
        <ele>340.7</ele>
        <time>2021-07-31T16:48:56.000Z</time>
      </trkpt>
      <trkpt lat="45.29617" lon="5.0441">
        <ele>342.4</ele>
        <time>2021-07-31T16:48:58.000Z</time>
      </trkpt>
      <trkpt lat="45.29609" lon="5.0442">
        <ele>344.2</ele>
        <time>2021-07-31T16:49:00.000Z</time>
      </trkpt>
      <trkpt lat="45.29599" lon="5.04427">
        <ele>345.9</ele>
        <time>2021-07-31T16:49:02.000Z</time>
      </trkpt>
      <trkpt lat="45.29589" lon="5.04432">
        <ele>347.8</ele>
        <time>2021-07-31T16:49:04.000Z</time>
      </trkpt>
      <trkpt lat="45.29579" lon="5.0444">
        <ele>348.8</ele>
        <time>2021-07-31T16:49:06.000Z</time>
      </trkpt>
      <trkpt lat="45.29571" lon="5.04448">
        <ele>348.4</ele>
        <time>2021-07-31T16:49:08.000Z</time>
      </trkpt>
      <trkpt lat="45.29562" lon="5.04456">
        <ele>347.8</ele>
        <time>2021-07-31T16:49:10.000Z</time>
      </trkpt>
      <trkpt lat="45.29551" lon="5.04464">
        <ele>346.9</ele>
        <time>2021-07-31T16:49:13.000Z</time>
      </trkpt>
      <trkpt lat="45.29541" lon="5.04469">
        <ele>345.9</ele>
        <time>2021-07-31T16:49:15.000Z</time>
      </trkpt>
      <trkpt lat="45.29532" lon="5.04476">
        <ele>345.3</ele>
        <time>2021-07-31T16:49:17.000Z</time>
      </trkpt>
      <trkpt lat="45.29523" lon="5.04483">
        <ele>345.3</ele>
        <time>2021-07-31T16:49:19.000Z</time>
      </trkpt>
      <trkpt lat="45.29513" lon="5.04492">
        <ele>345.5</ele>
        <time>2021-07-31T16:49:21.000Z</time>
      </trkpt>
      <trkpt lat="45.29503" lon="5.04501">
        <ele>345.5</ele>
        <time>2021-07-31T16:49:23.000Z</time>
      </trkpt>
      <trkpt lat="45.29494" lon="5.0451">
        <ele>345.3</ele>
        <time>2021-07-31T16:49:25.000Z</time>
      </trkpt>
      <trkpt lat="45.29486" lon="5.04519">
        <ele>345.1</ele>
        <time>2021-07-31T16:49:27.000Z</time>
      </trkpt>
      <trkpt lat="45.2948" lon="5.0453">
        <ele>345.6</ele>
        <time>2021-07-31T16:49:29.000Z</time>
      </trkpt>
      <trkpt lat="45.29474" lon="5.04545">
        <ele>346.8</ele>
        <time>2021-07-31T16:49:32.000Z</time>
      </trkpt>
      <trkpt lat="45.29465" lon="5.04559">
        <ele>346.7</ele>
        <time>2021-07-31T16:49:35.000Z</time>
      </trkpt>
      <trkpt lat="45.29455" lon="5.0456">
        <ele>342.9</ele>
        <time>2021-07-31T16:49:37.000Z</time>
      </trkpt>
      <trkpt lat="45.29443" lon="5.04555">
        <ele>337</ele>
        <time>2021-07-31T16:49:39.000Z</time>
      </trkpt>
      <trkpt lat="45.29429" lon="5.04548">
        <ele>330.2</ele>
        <time>2021-07-31T16:49:41.000Z</time>
      </trkpt>
      <trkpt lat="45.29419" lon="5.04539">
        <ele>324.5</ele>
        <time>2021-07-31T16:49:43.000Z</time>
      </trkpt>
      <trkpt lat="45.29412" lon="5.04526">
        <ele>320.1</ele>
        <time>2021-07-31T16:49:45.000Z</time>
      </trkpt>
      <trkpt lat="45.29404" lon="5.04514">
        <ele>316</ele>
        <time>2021-07-31T16:49:47.000Z</time>
      </trkpt>
      <trkpt lat="45.29395" lon="5.04506">
        <ele>312.5</ele>
        <time>2021-07-31T16:49:49.000Z</time>
      </trkpt>
      <trkpt lat="45.29386" lon="5.04517">
        <ele>311.5</ele>
        <time>2021-07-31T16:49:52.000Z</time>
      </trkpt>
      <trkpt lat="45.2938" lon="5.04529">
        <ele>311.6</ele>
        <time>2021-07-31T16:49:54.000Z</time>
      </trkpt>
      <trkpt lat="45.29372" lon="5.04541">
        <ele>310.5</ele>
        <time>2021-07-31T16:49:57.000Z</time>
      </trkpt>
      <trkpt lat="45.29359" lon="5.04539">
        <ele>306</ele>
        <time>2021-07-31T16:50:00.000Z</time>
      </trkpt>
      <trkpt lat="45.2935" lon="5.04536">
        <ele>303.1</ele>
        <time>2021-07-31T16:50:02.000Z</time>
      </trkpt>
      <trkpt lat="45.2934" lon="5.04535">
        <ele>300.2</ele>
        <time>2021-07-31T16:50:04.000Z</time>
      </trkpt>
      <trkpt lat="45.29331" lon="5.04533">
        <ele>297.9</ele>
        <time>2021-07-31T16:50:06.000Z</time>
      </trkpt>
      <trkpt lat="45.29321" lon="5.04531">
        <ele>297.3</ele>
        <time>2021-07-31T16:50:08.000Z</time>
      </trkpt>
      <trkpt lat="45.29312" lon="5.04528">
        <ele>296.8</ele>
        <time>2021-07-31T16:50:10.000Z</time>
      </trkpt>
      <trkpt lat="45.293" lon="5.04524">
        <ele>296.2</ele>
        <time>2021-07-31T16:50:13.000Z</time>
      </trkpt>
      <trkpt lat="45.29295" lon="5.04511">
        <ele>295.5</ele>
        <time>2021-07-31T16:50:16.000Z</time>
      </trkpt>
      <trkpt lat="45.29297" lon="5.04494">
        <ele>295</ele>
        <time>2021-07-31T16:50:19.000Z</time>
      </trkpt>
      <trkpt lat="45.29298" lon="5.04477">
        <ele>294.8</ele>
        <time>2021-07-31T16:50:22.000Z</time>
      </trkpt>
      <trkpt lat="45.293" lon="5.04458">
        <ele>294.5</ele>
        <time>2021-07-31T16:50:25.000Z</time>
      </trkpt>
      <trkpt lat="45.29301" lon="5.04445">
        <ele>294.3</ele>
        <time>2021-07-31T16:50:27.000Z</time>
      </trkpt>
      <trkpt lat="45.29302" lon="5.04432">
        <ele>294</ele>
        <time>2021-07-31T16:50:29.000Z</time>
      </trkpt>
      <trkpt lat="45.29304" lon="5.04419">
        <ele>293.7</ele>
        <time>2021-07-31T16:50:31.000Z</time>
      </trkpt>
      <trkpt lat="45.29306" lon="5.04401">
        <ele>293.8</ele>
        <time>2021-07-31T16:50:34.000Z</time>
      </trkpt>
      <trkpt lat="45.29308" lon="5.04382">
        <ele>293.9</ele>
        <time>2021-07-31T16:50:37.000Z</time>
      </trkpt>
      <trkpt lat="45.29309" lon="5.04368">
        <ele>293.9</ele>
        <time>2021-07-31T16:50:39.000Z</time>
      </trkpt>
      <trkpt lat="45.2931" lon="5.04355">
        <ele>294</ele>
        <time>2021-07-31T16:50:41.000Z</time>
      </trkpt>
      <trkpt lat="45.29311" lon="5.04341">
        <ele>294</ele>
        <time>2021-07-31T16:50:43.000Z</time>
      </trkpt>
      <trkpt lat="45.29312" lon="5.04328">
        <ele>294.2</ele>
        <time>2021-07-31T16:50:45.000Z</time>
      </trkpt>
      <trkpt lat="45.29314" lon="5.04313">
        <ele>294.4</ele>
        <time>2021-07-31T16:50:47.000Z</time>
      </trkpt>
      <trkpt lat="45.29315" lon="5.043">
        <ele>294.7</ele>
        <time>2021-07-31T16:50:49.000Z</time>
      </trkpt>
      <trkpt lat="45.29316" lon="5.04286">
        <ele>295</ele>
        <time>2021-07-31T16:50:51.000Z</time>
      </trkpt>
      <trkpt lat="45.29316" lon="5.0427">
        <ele>295.3</ele>
        <time>2021-07-31T16:50:54.000Z</time>
      </trkpt>
      <trkpt lat="45.29316" lon="5.04253">
        <ele>295.8</ele>
        <time>2021-07-31T16:50:57.000Z</time>
      </trkpt>
      <trkpt lat="45.29316" lon="5.04238">
        <ele>295.6</ele>
        <time>2021-07-31T16:51:01.000Z</time>
      </trkpt>
      <trkpt lat="45.29306" lon="5.04227">
        <ele>295.9</ele>
        <time>2021-07-31T16:51:05.000Z</time>
      </trkpt>
      <trkpt lat="45.29295" lon="5.04226">
        <ele>296.5</ele>
        <time>2021-07-31T16:51:08.000Z</time>
      </trkpt>
      <trkpt lat="45.29284" lon="5.04225">
        <ele>297.1</ele>
        <time>2021-07-31T16:51:11.000Z</time>
      </trkpt>
      <trkpt lat="45.29279" lon="5.04213">
        <ele>297.3</ele>
        <time>2021-07-31T16:51:14.000Z</time>
      </trkpt>
      <trkpt lat="45.29277" lon="5.04196">
        <ele>297.2</ele>
        <time>2021-07-31T16:51:17.000Z</time>
      </trkpt>
      <trkpt lat="45.2927" lon="5.04183">
        <ele>297.6</ele>
        <time>2021-07-31T16:51:20.000Z</time>
      </trkpt>
      <trkpt lat="45.29258" lon="5.0418">
        <ele>298.4</ele>
        <time>2021-07-31T16:51:23.000Z</time>
      </trkpt>
      <trkpt lat="45.29246" lon="5.04178">
        <ele>299.2</ele>
        <time>2021-07-31T16:51:26.000Z</time>
      </trkpt>
      <trkpt lat="45.29235" lon="5.04175">
        <ele>299.9</ele>
        <time>2021-07-31T16:51:29.000Z</time>
      </trkpt>
      <trkpt lat="45.29224" lon="5.0417">
        <ele>300.6</ele>
        <time>2021-07-31T16:51:32.000Z</time>
      </trkpt>
      <trkpt lat="45.29213" lon="5.04167">
        <ele>301.2</ele>
        <time>2021-07-31T16:51:35.000Z</time>
      </trkpt>
      <trkpt lat="45.29203" lon="5.04163">
        <ele>301.7</ele>
        <time>2021-07-31T16:51:38.000Z</time>
      </trkpt>
      <trkpt lat="45.29197" lon="5.04149">
        <ele>301.4</ele>
        <time>2021-07-31T16:51:43.000Z</time>
      </trkpt>
      <trkpt lat="45.29192" lon="5.04135">
        <ele>301.2</ele>
        <time>2021-07-31T16:51:46.000Z</time>
      </trkpt>
      <trkpt lat="45.29187" lon="5.04122">
        <ele>301</ele>
        <time>2021-07-31T16:51:49.000Z</time>
      </trkpt>
      <trkpt lat="45.29184" lon="5.04108">
        <ele>300.7</ele>
        <time>2021-07-31T16:51:52.000Z</time>
      </trkpt>
      <trkpt lat="45.29181" lon="5.04093">
        <ele>300.3</ele>
        <time>2021-07-31T16:51:55.000Z</time>
      </trkpt>
      <trkpt lat="45.29181" lon="5.04077">
        <ele>299.9</ele>
        <time>2021-07-31T16:51:57.000Z</time>
      </trkpt>
      <trkpt lat="45.29181" lon="5.04063">
        <ele>299.8</ele>
        <time>2021-07-31T16:51:59.000Z</time>
      </trkpt>
      <trkpt lat="45.29181" lon="5.04048">
        <ele>299.6</ele>
        <time>2021-07-31T16:52:01.000Z</time>
      </trkpt>
      <trkpt lat="45.2918" lon="5.04034">
        <ele>299.5</ele>
        <time>2021-07-31T16:52:03.000Z</time>
      </trkpt>
      <trkpt lat="45.2918" lon="5.04021">
        <ele>299.4</ele>
        <time>2021-07-31T16:52:05.000Z</time>
      </trkpt>
      <trkpt lat="45.29179" lon="5.04002">
        <ele>299.3</ele>
        <time>2021-07-31T16:52:08.000Z</time>
      </trkpt>
      <trkpt lat="45.29177" lon="5.03989">
        <ele>299.4</ele>
        <time>2021-07-31T16:52:10.000Z</time>
      </trkpt>
      <trkpt lat="45.29176" lon="5.03975">
        <ele>299.5</ele>
        <time>2021-07-31T16:52:12.000Z</time>
      </trkpt>
      <trkpt lat="45.29174" lon="5.03962">
        <ele>299.6</ele>
        <time>2021-07-31T16:52:14.000Z</time>
      </trkpt>
      <trkpt lat="45.29174" lon="5.03947">
        <ele>299.6</ele>
        <time>2021-07-31T16:52:16.000Z</time>
      </trkpt>
      <trkpt lat="45.29174" lon="5.03933">
        <ele>299.6</ele>
        <time>2021-07-31T16:52:18.000Z</time>
      </trkpt>
      <trkpt lat="45.29174" lon="5.03919">
        <ele>299.6</ele>
        <time>2021-07-31T16:52:20.000Z</time>
      </trkpt>
      <trkpt lat="45.29177" lon="5.03905">
        <ele>299.8</ele>
        <time>2021-07-31T16:52:22.000Z</time>
      </trkpt>
      <trkpt lat="45.29178" lon="5.03891">
        <ele>300</ele>
        <time>2021-07-31T16:52:24.000Z</time>
      </trkpt>
      <trkpt lat="45.29181" lon="5.03878">
        <ele>300.2</ele>
        <time>2021-07-31T16:52:26.000Z</time>
      </trkpt>
      <trkpt lat="45.29183" lon="5.03861">
        <ele>300.4</ele>
        <time>2021-07-31T16:52:29.000Z</time>
      </trkpt>
      <trkpt lat="45.29187" lon="5.03845">
        <ele>300.6</ele>
        <time>2021-07-31T16:52:32.000Z</time>
      </trkpt>
      <trkpt lat="45.29191" lon="5.03828">
        <ele>300.5</ele>
        <time>2021-07-31T16:52:35.000Z</time>
      </trkpt>
      <trkpt lat="45.29195" lon="5.03812">
        <ele>300.3</ele>
        <time>2021-07-31T16:52:38.000Z</time>
      </trkpt>
      <trkpt lat="45.29198" lon="5.03794">
        <ele>300.1</ele>
        <time>2021-07-31T16:52:41.000Z</time>
      </trkpt>
      <trkpt lat="45.29199" lon="5.03776">
        <ele>300</ele>
        <time>2021-07-31T16:52:44.000Z</time>
      </trkpt>
      <trkpt lat="45.292" lon="5.03758">
        <ele>300</ele>
        <time>2021-07-31T16:52:47.000Z</time>
      </trkpt>
      <trkpt lat="45.29197" lon="5.03742">
        <ele>300.2</ele>
        <time>2021-07-31T16:52:50.000Z</time>
      </trkpt>
      <trkpt lat="45.29193" lon="5.03726">
        <ele>300.5</ele>
        <time>2021-07-31T16:52:53.000Z</time>
      </trkpt>
      <trkpt lat="45.29187" lon="5.0371">
        <ele>300.9</ele>
        <time>2021-07-31T16:52:56.000Z</time>
      </trkpt>
      <trkpt lat="45.29183" lon="5.03694">
        <ele>301.1</ele>
        <time>2021-07-31T16:52:59.000Z</time>
      </trkpt>
      <trkpt lat="45.2918" lon="5.03677">
        <ele>301.3</ele>
        <time>2021-07-31T16:53:02.000Z</time>
      </trkpt>
      <trkpt lat="45.29173" lon="5.03664">
        <ele>301.7</ele>
        <time>2021-07-31T16:53:05.000Z</time>
      </trkpt>
      <trkpt lat="45.29161" lon="5.03661">
        <ele>302.6</ele>
        <time>2021-07-31T16:53:08.000Z</time>
      </trkpt>
      <trkpt lat="45.29152" lon="5.03664">
        <ele>303.7</ele>
        <time>2021-07-31T16:53:11.000Z</time>
      </trkpt>
      <trkpt lat="45.29142" lon="5.03665">
        <ele>304.9</ele>
        <time>2021-07-31T16:53:14.000Z</time>
      </trkpt>
      <trkpt lat="45.2913" lon="5.03663">
        <ele>306.3</ele>
        <time>2021-07-31T16:53:18.000Z</time>
      </trkpt>
      <trkpt lat="45.2912" lon="5.03662">
        <ele>307.4</ele>
        <time>2021-07-31T16:53:22.000Z</time>
      </trkpt>
      <trkpt lat="45.29111" lon="5.0366">
        <ele>308.4</ele>
        <time>2021-07-31T16:53:26.000Z</time>
      </trkpt>
      <trkpt lat="45.29101" lon="5.03657">
        <ele>309.5</ele>
        <time>2021-07-31T16:53:30.000Z</time>
      </trkpt>
      <trkpt lat="45.2909" lon="5.03654">
        <ele>310.6</ele>
        <time>2021-07-31T16:53:34.000Z</time>
      </trkpt>
      <trkpt lat="45.2908" lon="5.03652">
        <ele>311.5</ele>
        <time>2021-07-31T16:53:38.000Z</time>
      </trkpt>
      <trkpt lat="45.29072" lon="5.03645">
        <ele>311.8</ele>
        <time>2021-07-31T16:53:42.000Z</time>
      </trkpt>
      <trkpt lat="45.29067" lon="5.03631">
        <ele>311.5</ele>
        <time>2021-07-31T16:53:46.000Z</time>
      </trkpt>
      <trkpt lat="45.29061" lon="5.03619">
        <ele>311.4</ele>
        <time>2021-07-31T16:53:50.000Z</time>
      </trkpt>
      <trkpt lat="45.29057" lon="5.03608">
        <ele>311.3</ele>
        <time>2021-07-31T16:53:54.000Z</time>
      </trkpt>
      <trkpt lat="45.2905" lon="5.03595">
        <ele>311.2</ele>
        <time>2021-07-31T16:53:59.000Z</time>
      </trkpt>
      <trkpt lat="45.29044" lon="5.03584">
        <ele>311.3</ele>
        <time>2021-07-31T16:54:04.000Z</time>
      </trkpt>
      <trkpt lat="45.29036" lon="5.03575">
        <ele>311.6</ele>
        <time>2021-07-31T16:54:09.000Z</time>
      </trkpt>
      <trkpt lat="45.29029" lon="5.03567">
        <ele>312</ele>
        <time>2021-07-31T16:54:15.000Z</time>
      </trkpt>
      <trkpt lat="45.29023" lon="5.03554">
        <ele>312</ele>
        <time>2021-07-31T16:54:21.000Z</time>
      </trkpt>
      <trkpt lat="45.29016" lon="5.03543">
        <ele>312.2</ele>
        <time>2021-07-31T16:54:26.000Z</time>
      </trkpt>
      <trkpt lat="45.29008" lon="5.03534">
        <ele>312.5</ele>
        <time>2021-07-31T16:54:32.000Z</time>
      </trkpt>
      <trkpt lat="45.29" lon="5.03523">
        <ele>312.7</ele>
        <time>2021-07-31T16:54:38.000Z</time>
      </trkpt>
      <trkpt lat="45.28994" lon="5.03508">
        <ele>313.3</ele>
        <time>2021-07-31T16:54:40.000Z</time>
      </trkpt>
      <trkpt lat="45.28986" lon="5.0349">
        <ele>313.7</ele>
        <time>2021-07-31T16:54:42.000Z</time>
      </trkpt>
      <trkpt lat="45.28978" lon="5.03473">
        <ele>314.2</ele>
        <time>2021-07-31T16:54:44.000Z</time>
      </trkpt>
      <trkpt lat="45.28972" lon="5.03455">
        <ele>314</ele>
        <time>2021-07-31T16:54:46.000Z</time>
      </trkpt>
      <trkpt lat="45.28974" lon="5.03439">
        <ele>312.9</ele>
        <time>2021-07-31T16:54:48.000Z</time>
      </trkpt>
      <trkpt lat="45.28976" lon="5.03424">
        <ele>311.9</ele>
        <time>2021-07-31T16:54:50.000Z</time>
      </trkpt>
      <trkpt lat="45.28975" lon="5.03411">
        <ele>311.3</ele>
        <time>2021-07-31T16:54:52.000Z</time>
      </trkpt>
      <trkpt lat="45.28972" lon="5.03399">
        <ele>311.1</ele>
        <time>2021-07-31T16:54:54.000Z</time>
      </trkpt>
      <trkpt lat="45.28967" lon="5.03385">
        <ele>310.9</ele>
        <time>2021-07-31T16:54:57.000Z</time>
      </trkpt>
      <trkpt lat="45.28959" lon="5.0337">
        <ele>310.9</ele>
        <time>2021-07-31T16:55:00.000Z</time>
      </trkpt>
      <trkpt lat="45.28953" lon="5.0336">
        <ele>310.9</ele>
        <time>2021-07-31T16:55:02.000Z</time>
      </trkpt>
      <trkpt lat="45.28947" lon="5.0335">
        <ele>311</ele>
        <time>2021-07-31T16:55:04.000Z</time>
      </trkpt>
      <trkpt lat="45.28939" lon="5.03336">
        <ele>311</ele>
        <time>2021-07-31T16:55:07.000Z</time>
      </trkpt>
      <trkpt lat="45.28937" lon="5.03324">
        <ele>310.4</ele>
        <time>2021-07-31T16:55:09.000Z</time>
      </trkpt>
      <trkpt lat="45.28934" lon="5.03311">
        <ele>309.7</ele>
        <time>2021-07-31T16:55:11.000Z</time>
      </trkpt>
      <trkpt lat="45.28933" lon="5.03292">
        <ele>308.7</ele>
        <time>2021-07-31T16:55:15.000Z</time>
      </trkpt>
      <trkpt lat="45.28933" lon="5.03275">
        <ele>307.5</ele>
        <time>2021-07-31T16:55:18.000Z</time>
      </trkpt>
      <trkpt lat="45.28928" lon="5.03261">
        <ele>306.9</ele>
        <time>2021-07-31T16:55:20.000Z</time>
      </trkpt>
      <trkpt lat="45.28926" lon="5.03245">
        <ele>306.5</ele>
        <time>2021-07-31T16:55:22.000Z</time>
      </trkpt>
      <trkpt lat="45.28925" lon="5.03231">
        <ele>306.7</ele>
        <time>2021-07-31T16:55:24.000Z</time>
      </trkpt>
      <trkpt lat="45.28927" lon="5.03214">
        <ele>307</ele>
        <time>2021-07-31T16:55:26.000Z</time>
      </trkpt>
      <trkpt lat="45.28927" lon="5.032">
        <ele>307.2</ele>
        <time>2021-07-31T16:55:28.000Z</time>
      </trkpt>
      <trkpt lat="45.28929" lon="5.03187">
        <ele>307.2</ele>
        <time>2021-07-31T16:55:30.000Z</time>
      </trkpt>
      <trkpt lat="45.2893" lon="5.03168">
        <ele>307.4</ele>
        <time>2021-07-31T16:55:33.000Z</time>
      </trkpt>
      <trkpt lat="45.28934" lon="5.03154">
        <ele>306.6</ele>
        <time>2021-07-31T16:55:35.000Z</time>
      </trkpt>
      <trkpt lat="45.2893" lon="5.0314">
        <ele>306.8</ele>
        <time>2021-07-31T16:55:37.000Z</time>
      </trkpt>
      <trkpt lat="45.28923" lon="5.03127">
        <ele>307.3</ele>
        <time>2021-07-31T16:55:39.000Z</time>
      </trkpt>
      <trkpt lat="45.28915" lon="5.03114">
        <ele>308.2</ele>
        <time>2021-07-31T16:55:42.000Z</time>
      </trkpt>
      <trkpt lat="45.28914" lon="5.031">
        <ele>308</ele>
        <time>2021-07-31T16:55:45.000Z</time>
      </trkpt>
      <trkpt lat="45.28916" lon="5.03083">
        <ele>307.1</ele>
        <time>2021-07-31T16:55:48.000Z</time>
      </trkpt>
      <trkpt lat="45.28915" lon="5.03064">
        <ele>307.3</ele>
        <time>2021-07-31T16:55:50.000Z</time>
      </trkpt>
      <trkpt lat="45.28911" lon="5.03047">
        <ele>308.2</ele>
        <time>2021-07-31T16:55:52.000Z</time>
      </trkpt>
      <trkpt lat="45.2891" lon="5.03031">
        <ele>308.3</ele>
        <time>2021-07-31T16:55:54.000Z</time>
      </trkpt>
      <trkpt lat="45.28911" lon="5.03015">
        <ele>308.1</ele>
        <time>2021-07-31T16:55:56.000Z</time>
      </trkpt>
      <trkpt lat="45.28911" lon="5.02998">
        <ele>307.8</ele>
        <time>2021-07-31T16:55:58.000Z</time>
      </trkpt>
      <trkpt lat="45.28909" lon="5.02981">
        <ele>307.6</ele>
        <time>2021-07-31T16:56:00.000Z</time>
      </trkpt>
      <trkpt lat="45.28904" lon="5.02964">
        <ele>307.8</ele>
        <time>2021-07-31T16:56:02.000Z</time>
      </trkpt>
      <trkpt lat="45.28898" lon="5.02948">
        <ele>308.2</ele>
        <time>2021-07-31T16:56:04.000Z</time>
      </trkpt>
      <trkpt lat="45.28893" lon="5.02935">
        <ele>308.7</ele>
        <time>2021-07-31T16:56:06.000Z</time>
      </trkpt>
      <trkpt lat="45.28884" lon="5.02918">
        <ele>309.6</ele>
        <time>2021-07-31T16:56:08.000Z</time>
      </trkpt>
      <trkpt lat="45.2888" lon="5.02901">
        <ele>309.4</ele>
        <time>2021-07-31T16:56:10.000Z</time>
      </trkpt>
      <trkpt lat="45.28877" lon="5.02887">
        <ele>309.5</ele>
        <time>2021-07-31T16:56:13.000Z</time>
      </trkpt>
      <trkpt lat="45.28872" lon="5.02875">
        <ele>309.7</ele>
        <time>2021-07-31T16:56:15.000Z</time>
      </trkpt>
      <trkpt lat="45.28869" lon="5.02858">
        <ele>309.5</ele>
        <time>2021-07-31T16:56:18.000Z</time>
      </trkpt>
      <trkpt lat="45.28866" lon="5.02841">
        <ele>309.3</ele>
        <time>2021-07-31T16:56:22.000Z</time>
      </trkpt>
      <trkpt lat="45.28863" lon="5.02828">
        <ele>309.3</ele>
        <time>2021-07-31T16:56:26.000Z</time>
      </trkpt>
      <trkpt lat="45.28867" lon="5.02814">
        <ele>308.7</ele>
        <time>2021-07-31T16:56:33.000Z</time>
      </trkpt>
      <trkpt lat="45.28867" lon="5.02799">
        <ele>308.6</ele>
        <time>2021-07-31T16:56:38.000Z</time>
      </trkpt>
      <trkpt lat="45.28861" lon="5.02785">
        <ele>309.4</ele>
        <time>2021-07-31T16:56:42.000Z</time>
      </trkpt>
      <trkpt lat="45.28857" lon="5.02773">
        <ele>310</ele>
        <time>2021-07-31T16:56:45.000Z</time>
      </trkpt>
      <trkpt lat="45.28852" lon="5.02759">
        <ele>310.6</ele>
        <time>2021-07-31T16:56:48.000Z</time>
      </trkpt>
      <trkpt lat="45.28849" lon="5.02741">
        <ele>310.9</ele>
        <time>2021-07-31T16:56:52.000Z</time>
      </trkpt>
      <trkpt lat="45.28847" lon="5.02726">
        <ele>311.1</ele>
        <time>2021-07-31T16:56:55.000Z</time>
      </trkpt>
      <trkpt lat="45.28843" lon="5.0271">
        <ele>311.6</ele>
        <time>2021-07-31T16:56:58.000Z</time>
      </trkpt>
      <trkpt lat="45.28841" lon="5.02696">
        <ele>311.9</ele>
        <time>2021-07-31T16:57:01.000Z</time>
      </trkpt>
      <trkpt lat="45.28839" lon="5.02678">
        <ele>312.2</ele>
        <time>2021-07-31T16:57:04.000Z</time>
      </trkpt>
      <trkpt lat="45.28838" lon="5.02664">
        <ele>312.1</ele>
        <time>2021-07-31T16:57:06.000Z</time>
      </trkpt>
      <trkpt lat="45.28838" lon="5.02647">
        <ele>311.2</ele>
        <time>2021-07-31T16:57:09.000Z</time>
      </trkpt>
      <trkpt lat="45.28837" lon="5.02633">
        <ele>310.8</ele>
        <time>2021-07-31T16:57:11.000Z</time>
      </trkpt>
      <trkpt lat="45.28835" lon="5.02616">
        <ele>310.3</ele>
        <time>2021-07-31T16:57:14.000Z</time>
      </trkpt>
      <trkpt lat="45.28837" lon="5.02602">
        <ele>309.4</ele>
        <time>2021-07-31T16:57:16.000Z</time>
      </trkpt>
      <trkpt lat="45.28837" lon="5.02585">
        <ele>308.6</ele>
        <time>2021-07-31T16:57:18.000Z</time>
      </trkpt>
      <trkpt lat="45.2884" lon="5.02568">
        <ele>308.3</ele>
        <time>2021-07-31T16:57:20.000Z</time>
      </trkpt>
      <trkpt lat="45.28844" lon="5.02553">
        <ele>308</ele>
        <time>2021-07-31T16:57:22.000Z</time>
      </trkpt>
      <trkpt lat="45.28847" lon="5.02539">
        <ele>307.9</ele>
        <time>2021-07-31T16:57:24.000Z</time>
      </trkpt>
      <trkpt lat="45.28843" lon="5.02526">
        <ele>308.5</ele>
        <time>2021-07-31T16:57:26.000Z</time>
      </trkpt>
      <trkpt lat="45.28841" lon="5.02512">
        <ele>308.9</ele>
        <time>2021-07-31T16:57:28.000Z</time>
      </trkpt>
      <trkpt lat="45.2884" lon="5.02496">
        <ele>309.3</ele>
        <time>2021-07-31T16:57:31.000Z</time>
      </trkpt>
      <trkpt lat="45.28836" lon="5.02483">
        <ele>310.4</ele>
        <time>2021-07-31T16:57:34.000Z</time>
      </trkpt>
      <trkpt lat="45.28832" lon="5.02471">
        <ele>311.4</ele>
        <time>2021-07-31T16:57:36.000Z</time>
      </trkpt>
      <trkpt lat="45.28829" lon="5.02454">
        <ele>312.5</ele>
        <time>2021-07-31T16:57:39.000Z</time>
      </trkpt>
      <trkpt lat="45.28829" lon="5.02438">
        <ele>313</ele>
        <time>2021-07-31T16:57:42.000Z</time>
      </trkpt>
      <trkpt lat="45.28829" lon="5.02418">
        <ele>313.9</ele>
        <time>2021-07-31T16:57:45.000Z</time>
      </trkpt>
      <trkpt lat="45.28827" lon="5.02404">
        <ele>314.2</ele>
        <time>2021-07-31T16:57:48.000Z</time>
      </trkpt>
      <trkpt lat="45.28823" lon="5.02386">
        <ele>315</ele>
        <time>2021-07-31T16:57:51.000Z</time>
      </trkpt>
      <trkpt lat="45.28821" lon="5.02369">
        <ele>315.5</ele>
        <time>2021-07-31T16:57:54.000Z</time>
      </trkpt>
      <trkpt lat="45.28821" lon="5.02356">
        <ele>315.5</ele>
        <time>2021-07-31T16:57:57.000Z</time>
      </trkpt>
      <trkpt lat="45.28825" lon="5.02342">
        <ele>314.9</ele>
        <time>2021-07-31T16:58:00.000Z</time>
      </trkpt>
      <trkpt lat="45.28832" lon="5.02333">
        <ele>313.3</ele>
        <time>2021-07-31T16:58:02.000Z</time>
      </trkpt>
      <trkpt lat="45.28835" lon="5.02316">
        <ele>313.2</ele>
        <time>2021-07-31T16:58:04.000Z</time>
      </trkpt>
      <trkpt lat="45.28834" lon="5.023">
        <ele>313.7</ele>
        <time>2021-07-31T16:58:07.000Z</time>
      </trkpt>
      <trkpt lat="45.28838" lon="5.02282">
        <ele>313.3</ele>
        <time>2021-07-31T16:58:10.000Z</time>
      </trkpt>
      <trkpt lat="45.2884" lon="5.02265">
        <ele>313.2</ele>
        <time>2021-07-31T16:58:13.000Z</time>
      </trkpt>
      <trkpt lat="45.28844" lon="5.0225">
        <ele>312.8</ele>
        <time>2021-07-31T16:58:16.000Z</time>
      </trkpt>
      <trkpt lat="45.28848" lon="5.02231">
        <ele>312.6</ele>
        <time>2021-07-31T16:58:19.000Z</time>
      </trkpt>
      <trkpt lat="45.28853" lon="5.02219">
        <ele>311.8</ele>
        <time>2021-07-31T16:58:21.000Z</time>
      </trkpt>
      <trkpt lat="45.28857" lon="5.02203">
        <ele>311.4</ele>
        <time>2021-07-31T16:58:24.000Z</time>
      </trkpt>
      <trkpt lat="45.28865" lon="5.02189">
        <ele>309.9</ele>
        <time>2021-07-31T16:58:26.000Z</time>
      </trkpt>
      <trkpt lat="45.28871" lon="5.02176">
        <ele>308.8</ele>
        <time>2021-07-31T16:58:28.000Z</time>
      </trkpt>
      <trkpt lat="45.28876" lon="5.0216">
        <ele>308</ele>
        <time>2021-07-31T16:58:31.000Z</time>
      </trkpt>
      <trkpt lat="45.28887" lon="5.02158">
        <ele>305.7</ele>
        <time>2021-07-31T16:58:35.000Z</time>
      </trkpt>
      <trkpt lat="45.28894" lon="5.0217">
        <ele>303.4</ele>
        <time>2021-07-31T16:58:38.000Z</time>
      </trkpt>
      <trkpt lat="45.28905" lon="5.02171">
        <ele>300.6</ele>
        <time>2021-07-31T16:58:43.000Z</time>
      </trkpt>
      <trkpt lat="45.28909" lon="5.02158">
        <ele>300.4</ele>
        <time>2021-07-31T16:58:46.000Z</time>
      </trkpt>
      <trkpt lat="45.28912" lon="5.02142">
        <ele>301.1</ele>
        <time>2021-07-31T16:58:49.000Z</time>
      </trkpt>
      <trkpt lat="45.28911" lon="5.02129">
        <ele>302.2</ele>
        <time>2021-07-31T16:58:51.000Z</time>
      </trkpt>
      <trkpt lat="45.28913" lon="5.02114">
        <ele>303.1</ele>
        <time>2021-07-31T16:58:54.000Z</time>
      </trkpt>
      <trkpt lat="45.28915" lon="5.02095">
        <ele>304.4</ele>
        <time>2021-07-31T16:58:57.000Z</time>
      </trkpt>
      <trkpt lat="45.28921" lon="5.02078">
        <ele>303.9</ele>
        <time>2021-07-31T16:58:59.000Z</time>
      </trkpt>
      <trkpt lat="45.28924" lon="5.02065">
        <ele>302.9</ele>
        <time>2021-07-31T16:59:01.000Z</time>
      </trkpt>
      <trkpt lat="45.28921" lon="5.02052">
        <ele>302.7</ele>
        <time>2021-07-31T16:59:03.000Z</time>
      </trkpt>
      <trkpt lat="45.28921" lon="5.02038">
        <ele>302.1</ele>
        <time>2021-07-31T16:59:05.000Z</time>
      </trkpt>
      <trkpt lat="45.2892" lon="5.02024">
        <ele>301.6</ele>
        <time>2021-07-31T16:59:08.000Z</time>
      </trkpt>
      <trkpt lat="45.2892" lon="5.0201">
        <ele>301</ele>
        <time>2021-07-31T16:59:10.000Z</time>
      </trkpt>
      <trkpt lat="45.28916" lon="5.01995">
        <ele>300.8</ele>
        <time>2021-07-31T16:59:12.000Z</time>
      </trkpt>
      <trkpt lat="45.28912" lon="5.01983">
        <ele>300.9</ele>
        <time>2021-07-31T16:59:14.000Z</time>
      </trkpt>
      <trkpt lat="45.28904" lon="5.01969">
        <ele>301.5</ele>
        <time>2021-07-31T16:59:16.000Z</time>
      </trkpt>
      <trkpt lat="45.28901" lon="5.01955">
        <ele>301.2</ele>
        <time>2021-07-31T16:59:18.000Z</time>
      </trkpt>
      <trkpt lat="45.28899" lon="5.01938">
        <ele>300.7</ele>
        <time>2021-07-31T16:59:21.000Z</time>
      </trkpt>
      <trkpt lat="45.28892" lon="5.0192">
        <ele>300.9</ele>
        <time>2021-07-31T16:59:24.000Z</time>
      </trkpt>
      <trkpt lat="45.2889" lon="5.01906">
        <ele>300.8</ele>
        <time>2021-07-31T16:59:27.000Z</time>
      </trkpt>
      <trkpt lat="45.2889" lon="5.01893">
        <ele>300.2</ele>
        <time>2021-07-31T16:59:30.000Z</time>
      </trkpt>
      <trkpt lat="45.28889" lon="5.01879">
        <ele>299.8</ele>
        <time>2021-07-31T16:59:33.000Z</time>
      </trkpt>
      <trkpt lat="45.28886" lon="5.01865">
        <ele>299.9</ele>
        <time>2021-07-31T16:59:37.000Z</time>
      </trkpt>
      <trkpt lat="45.28882" lon="5.0185">
        <ele>300</ele>
        <time>2021-07-31T16:59:40.000Z</time>
      </trkpt>
      <trkpt lat="45.28877" lon="5.01838">
        <ele>300.3</ele>
        <time>2021-07-31T16:59:42.000Z</time>
      </trkpt>
      <trkpt lat="45.28872" lon="5.01825">
        <ele>301</ele>
        <time>2021-07-31T16:59:44.000Z</time>
      </trkpt>
      <trkpt lat="45.2887" lon="5.01807">
        <ele>301.3</ele>
        <time>2021-07-31T16:59:46.000Z</time>
      </trkpt>
      <trkpt lat="45.28871" lon="5.0179">
        <ele>301.2</ele>
        <time>2021-07-31T16:59:48.000Z</time>
      </trkpt>
      <trkpt lat="45.28877" lon="5.0177">
        <ele>300.1</ele>
        <time>2021-07-31T16:59:50.000Z</time>
      </trkpt>
      <trkpt lat="45.28884" lon="5.01755">
        <ele>298.9</ele>
        <time>2021-07-31T16:59:52.000Z</time>
      </trkpt>
      <trkpt lat="45.28895" lon="5.01741">
        <ele>297.1</ele>
        <time>2021-07-31T16:59:54.000Z</time>
      </trkpt>
      <trkpt lat="45.28903" lon="5.01727">
        <ele>295.9</ele>
        <time>2021-07-31T16:59:56.000Z</time>
      </trkpt>
      <trkpt lat="45.28907" lon="5.01714">
        <ele>295.3</ele>
        <time>2021-07-31T16:59:58.000Z</time>
      </trkpt>
      <trkpt lat="45.28898" lon="5.01697">
        <ele>297.5</ele>
        <time>2021-07-31T17:00:01.000Z</time>
      </trkpt>
      <trkpt lat="45.28897" lon="5.01684">
        <ele>298.1</ele>
        <time>2021-07-31T17:00:03.000Z</time>
      </trkpt>
      <trkpt lat="45.28897" lon="5.01671">
        <ele>298.4</ele>
        <time>2021-07-31T17:00:06.000Z</time>
      </trkpt>
      <trkpt lat="45.28894" lon="5.01657">
        <ele>299.3</ele>
        <time>2021-07-31T17:00:09.000Z</time>
      </trkpt>
      <trkpt lat="45.28891" lon="5.01642">
        <ele>300.4</ele>
        <time>2021-07-31T17:00:12.000Z</time>
      </trkpt>
      <trkpt lat="45.28888" lon="5.01629">
        <ele>301.4</ele>
        <time>2021-07-31T17:00:15.000Z</time>
      </trkpt>
      <trkpt lat="45.28885" lon="5.01614">
        <ele>302.4</ele>
        <time>2021-07-31T17:00:20.000Z</time>
      </trkpt>
      <trkpt lat="45.28879" lon="5.01602">
        <ele>303.9</ele>
        <time>2021-07-31T17:00:24.000Z</time>
      </trkpt>
      <trkpt lat="45.28878" lon="5.01585">
        <ele>304.3</ele>
        <time>2021-07-31T17:00:29.000Z</time>
      </trkpt>
      <trkpt lat="45.28874" lon="5.01572">
        <ele>305.3</ele>
        <time>2021-07-31T17:00:34.000Z</time>
      </trkpt>
      <trkpt lat="45.28869" lon="5.0156">
        <ele>306.4</ele>
        <time>2021-07-31T17:00:38.000Z</time>
      </trkpt>
      <trkpt lat="45.28865" lon="5.01548">
        <ele>307.1</ele>
        <time>2021-07-31T17:00:41.000Z</time>
      </trkpt>
      <trkpt lat="45.28861" lon="5.01536">
        <ele>307.7</ele>
        <time>2021-07-31T17:00:43.000Z</time>
      </trkpt>
      <trkpt lat="45.28855" lon="5.01524">
        <ele>308.3</ele>
        <time>2021-07-31T17:00:46.000Z</time>
      </trkpt>
      <trkpt lat="45.28851" lon="5.01512">
        <ele>308.7</ele>
        <time>2021-07-31T17:00:49.000Z</time>
      </trkpt>
      <trkpt lat="45.28845" lon="5.01496">
        <ele>309</ele>
        <time>2021-07-31T17:00:52.000Z</time>
      </trkpt>
      <trkpt lat="45.28837" lon="5.01483">
        <ele>309.8</ele>
        <time>2021-07-31T17:00:56.000Z</time>
      </trkpt>
      <trkpt lat="45.2883" lon="5.01469">
        <ele>310.8</ele>
        <time>2021-07-31T17:00:59.000Z</time>
      </trkpt>
      <trkpt lat="45.28824" lon="5.01456">
        <ele>311.5</ele>
        <time>2021-07-31T17:01:01.000Z</time>
      </trkpt>
      <trkpt lat="45.28813" lon="5.01437">
        <ele>312.3</ele>
        <time>2021-07-31T17:01:03.000Z</time>
      </trkpt>
      <trkpt lat="45.28803" lon="5.01422">
        <ele>312.6</ele>
        <time>2021-07-31T17:01:05.000Z</time>
      </trkpt>
      <trkpt lat="45.28795" lon="5.01408">
        <ele>312</ele>
        <time>2021-07-31T17:01:07.000Z</time>
      </trkpt>
      <trkpt lat="45.28788" lon="5.01396">
        <ele>311.2</ele>
        <time>2021-07-31T17:01:09.000Z</time>
      </trkpt>
      <trkpt lat="45.28784" lon="5.01381">
        <ele>309.9</ele>
        <time>2021-07-31T17:01:11.000Z</time>
      </trkpt>
      <trkpt lat="45.28779" lon="5.01365">
        <ele>308.4</ele>
        <time>2021-07-31T17:01:13.000Z</time>
      </trkpt>
      <trkpt lat="45.28773" lon="5.01354">
        <ele>307.4</ele>
        <time>2021-07-31T17:01:15.000Z</time>
      </trkpt>
      <trkpt lat="45.28764" lon="5.01353">
        <ele>307.3</ele>
        <time>2021-07-31T17:01:18.000Z</time>
      </trkpt>
      <trkpt lat="45.28755" lon="5.01354">
        <ele>307.3</ele>
        <time>2021-07-31T17:01:21.000Z</time>
      </trkpt>
      <trkpt lat="45.28743" lon="5.01351">
        <ele>307.5</ele>
        <time>2021-07-31T17:01:24.000Z</time>
      </trkpt>
      <trkpt lat="45.28734" lon="5.01346">
        <ele>307.7</ele>
        <time>2021-07-31T17:01:26.000Z</time>
      </trkpt>
      <trkpt lat="45.28724" lon="5.01343">
        <ele>307.8</ele>
        <time>2021-07-31T17:01:28.000Z</time>
      </trkpt>
      <trkpt lat="45.28715" lon="5.01342">
        <ele>308.5</ele>
        <time>2021-07-31T17:01:30.000Z</time>
      </trkpt>
      <trkpt lat="45.28705" lon="5.01342">
        <ele>308.9</ele>
        <time>2021-07-31T17:01:33.000Z</time>
      </trkpt>
      <trkpt lat="45.28693" lon="5.0134">
        <ele>309.5</ele>
        <time>2021-07-31T17:01:36.000Z</time>
      </trkpt>
      <trkpt lat="45.28684" lon="5.01342">
        <ele>310.6</ele>
        <time>2021-07-31T17:01:38.000Z</time>
      </trkpt>
      <trkpt lat="45.28675" lon="5.01345">
        <ele>311.7</ele>
        <time>2021-07-31T17:01:40.000Z</time>
      </trkpt>
      <trkpt lat="45.28663" lon="5.01344">
        <ele>312.1</ele>
        <time>2021-07-31T17:01:43.000Z</time>
      </trkpt>
      <trkpt lat="45.2865" lon="5.01345">
        <ele>312.5</ele>
        <time>2021-07-31T17:01:45.000Z</time>
      </trkpt>
      <trkpt lat="45.28639" lon="5.01345">
        <ele>313.1</ele>
        <time>2021-07-31T17:01:47.000Z</time>
      </trkpt>
      <trkpt lat="45.28629" lon="5.0135">
        <ele>314.6</ele>
        <time>2021-07-31T17:01:49.000Z</time>
      </trkpt>
      <trkpt lat="45.2862" lon="5.01356">
        <ele>316.1</ele>
        <time>2021-07-31T17:01:51.000Z</time>
      </trkpt>
      <trkpt lat="45.2861" lon="5.01361">
        <ele>317.7</ele>
        <time>2021-07-31T17:01:53.000Z</time>
      </trkpt>
      <trkpt lat="45.28601" lon="5.01364">
        <ele>318.7</ele>
        <time>2021-07-31T17:01:55.000Z</time>
      </trkpt>
      <trkpt lat="45.28588" lon="5.01368">
        <ele>320.3</ele>
        <time>2021-07-31T17:01:58.000Z</time>
      </trkpt>
      <trkpt lat="45.28579" lon="5.01367">
        <ele>320.4</ele>
        <time>2021-07-31T17:02:00.000Z</time>
      </trkpt>
      <trkpt lat="45.28569" lon="5.01367">
        <ele>320.2</ele>
        <time>2021-07-31T17:02:02.000Z</time>
      </trkpt>
      <trkpt lat="45.28559" lon="5.01368">
        <ele>320</ele>
        <time>2021-07-31T17:02:04.000Z</time>
      </trkpt>
      <trkpt lat="45.2855" lon="5.01367">
        <ele>319.4</ele>
        <time>2021-07-31T17:02:06.000Z</time>
      </trkpt>
      <trkpt lat="45.28539" lon="5.01367">
        <ele>319.5</ele>
        <time>2021-07-31T17:02:09.000Z</time>
      </trkpt>
      <trkpt lat="45.28529" lon="5.01371">
        <ele>320.2</ele>
        <time>2021-07-31T17:02:13.000Z</time>
      </trkpt>
      <trkpt lat="45.2852" lon="5.01375">
        <ele>321</ele>
        <time>2021-07-31T17:02:18.000Z</time>
      </trkpt>
      <trkpt lat="45.28511" lon="5.0138">
        <ele>321.7</ele>
        <time>2021-07-31T17:02:22.000Z</time>
      </trkpt>
      <trkpt lat="45.28502" lon="5.01385">
        <ele>322.8</ele>
        <time>2021-07-31T17:02:26.000Z</time>
      </trkpt>
      <trkpt lat="45.28491" lon="5.0139">
        <ele>324.2</ele>
        <time>2021-07-31T17:02:30.000Z</time>
      </trkpt>
      <trkpt lat="45.28482" lon="5.01395">
        <ele>325.4</ele>
        <time>2021-07-31T17:02:34.000Z</time>
      </trkpt>
      <trkpt lat="45.28472" lon="5.01398">
        <ele>326</ele>
        <time>2021-07-31T17:02:38.000Z</time>
      </trkpt>
      <trkpt lat="45.28462" lon="5.01399">
        <ele>326.3</ele>
        <time>2021-07-31T17:02:42.000Z</time>
      </trkpt>
      <trkpt lat="45.28453" lon="5.01399">
        <ele>326.3</ele>
        <time>2021-07-31T17:02:46.000Z</time>
      </trkpt>
      <trkpt lat="45.28442" lon="5.01397">
        <ele>326</ele>
        <time>2021-07-31T17:02:49.000Z</time>
      </trkpt>
      <trkpt lat="45.28427" lon="5.01392">
        <ele>325.1</ele>
        <time>2021-07-31T17:02:52.000Z</time>
      </trkpt>
      <trkpt lat="45.28417" lon="5.01386">
        <ele>324.1</ele>
        <time>2021-07-31T17:02:54.000Z</time>
      </trkpt>
      <trkpt lat="45.28406" lon="5.01382">
        <ele>323.6</ele>
        <time>2021-07-31T17:02:56.000Z</time>
      </trkpt>
      <trkpt lat="45.28396" lon="5.01379">
        <ele>323.3</ele>
        <time>2021-07-31T17:02:58.000Z</time>
      </trkpt>
      <trkpt lat="45.28386" lon="5.01379">
        <ele>323.4</ele>
        <time>2021-07-31T17:03:00.000Z</time>
      </trkpt>
      <trkpt lat="45.28376" lon="5.01386">
        <ele>324.5</ele>
        <time>2021-07-31T17:03:03.000Z</time>
      </trkpt>
      <trkpt lat="45.28365" lon="5.0139">
        <ele>325.1</ele>
        <time>2021-07-31T17:03:07.000Z</time>
      </trkpt>
      <trkpt lat="45.28358" lon="5.01397">
        <ele>326.1</ele>
        <time>2021-07-31T17:03:10.000Z</time>
      </trkpt>
      <trkpt lat="45.28348" lon="5.01401">
        <ele>326.9</ele>
        <time>2021-07-31T17:03:13.000Z</time>
      </trkpt>
      <trkpt lat="45.2834" lon="5.0141">
        <ele>328</ele>
        <time>2021-07-31T17:03:16.000Z</time>
      </trkpt>
      <trkpt lat="45.28329" lon="5.01403">
        <ele>327</ele>
        <time>2021-07-31T17:03:20.000Z</time>
      </trkpt>
      <trkpt lat="45.28325" lon="5.01391">
        <ele>325.4</ele>
        <time>2021-07-31T17:03:23.000Z</time>
      </trkpt>
      <trkpt lat="45.28329" lon="5.01376">
        <ele>323.6</ele>
        <time>2021-07-31T17:03:27.000Z</time>
      </trkpt>
      <trkpt lat="45.28335" lon="5.01366">
        <ele>322.1</ele>
        <time>2021-07-31T17:03:30.000Z</time>
      </trkpt>
      <trkpt lat="45.28342" lon="5.01352">
        <ele>320.2</ele>
        <time>2021-07-31T17:03:33.000Z</time>
      </trkpt>
      <trkpt lat="45.28349" lon="5.01341">
        <ele>318.5</ele>
        <time>2021-07-31T17:03:36.000Z</time>
      </trkpt>
      <trkpt lat="45.28357" lon="5.01328">
        <ele>317.3</ele>
        <time>2021-07-31T17:03:39.000Z</time>
      </trkpt>
      <trkpt lat="45.28365" lon="5.01319">
        <ele>316.9</ele>
        <time>2021-07-31T17:03:41.000Z</time>
      </trkpt>
      <trkpt lat="45.28373" lon="5.01311">
        <ele>316.4</ele>
        <time>2021-07-31T17:03:43.000Z</time>
      </trkpt>
      <trkpt lat="45.2838" lon="5.01302">
        <ele>315.9</ele>
        <time>2021-07-31T17:03:45.000Z</time>
      </trkpt>
      <trkpt lat="45.2839" lon="5.01291">
        <ele>315.1</ele>
        <time>2021-07-31T17:03:48.000Z</time>
      </trkpt>
      <trkpt lat="45.28398" lon="5.01284">
        <ele>314.5</ele>
        <time>2021-07-31T17:03:50.000Z</time>
      </trkpt>
      <trkpt lat="45.28407" lon="5.01278">
        <ele>313.8</ele>
        <time>2021-07-31T17:03:52.000Z</time>
      </trkpt>
      <trkpt lat="45.28416" lon="5.01272">
        <ele>313</ele>
        <time>2021-07-31T17:03:54.000Z</time>
      </trkpt>
      <trkpt lat="45.28424" lon="5.01266">
        <ele>312.2</ele>
        <time>2021-07-31T17:03:56.000Z</time>
      </trkpt>
      <trkpt lat="45.28433" lon="5.0126">
        <ele>311.3</ele>
        <time>2021-07-31T17:03:58.000Z</time>
      </trkpt>
      <trkpt lat="45.28441" lon="5.01254">
        <ele>310.4</ele>
        <time>2021-07-31T17:04:00.000Z</time>
      </trkpt>
      <trkpt lat="45.28449" lon="5.01247">
        <ele>310</ele>
        <time>2021-07-31T17:04:02.000Z</time>
      </trkpt>
      <trkpt lat="45.28458" lon="5.01241">
        <ele>309.9</ele>
        <time>2021-07-31T17:04:04.000Z</time>
      </trkpt>
      <trkpt lat="45.28467" lon="5.01236">
        <ele>309.6</ele>
        <time>2021-07-31T17:04:06.000Z</time>
      </trkpt>
      <trkpt lat="45.28476" lon="5.01232">
        <ele>309.2</ele>
        <time>2021-07-31T17:04:08.000Z</time>
      </trkpt>
      <trkpt lat="45.28485" lon="5.01227">
        <ele>308.9</ele>
        <time>2021-07-31T17:04:10.000Z</time>
      </trkpt>
      <trkpt lat="45.28496" lon="5.01223">
        <ele>308.3</ele>
        <time>2021-07-31T17:04:12.000Z</time>
      </trkpt>
      <trkpt lat="45.28507" lon="5.01218">
        <ele>308.1</ele>
        <time>2021-07-31T17:04:14.000Z</time>
      </trkpt>
      <trkpt lat="45.28518" lon="5.01213">
        <ele>308</ele>
        <time>2021-07-31T17:04:16.000Z</time>
      </trkpt>
      <trkpt lat="45.28528" lon="5.01208">
        <ele>307.6</ele>
        <time>2021-07-31T17:04:18.000Z</time>
      </trkpt>
      <trkpt lat="45.28539" lon="5.01203">
        <ele>307.3</ele>
        <time>2021-07-31T17:04:20.000Z</time>
      </trkpt>
      <trkpt lat="45.28549" lon="5.01198">
        <ele>306.8</ele>
        <time>2021-07-31T17:04:22.000Z</time>
      </trkpt>
      <trkpt lat="45.28559" lon="5.01192">
        <ele>306.2</ele>
        <time>2021-07-31T17:04:24.000Z</time>
      </trkpt>
      <trkpt lat="45.28569" lon="5.01184">
        <ele>305.5</ele>
        <time>2021-07-31T17:04:26.000Z</time>
      </trkpt>
      <trkpt lat="45.28579" lon="5.01175">
        <ele>304.6</ele>
        <time>2021-07-31T17:04:28.000Z</time>
      </trkpt>
      <trkpt lat="45.28588" lon="5.01169">
        <ele>303.8</ele>
        <time>2021-07-31T17:04:30.000Z</time>
      </trkpt>
      <trkpt lat="45.28595" lon="5.01161">
        <ele>304.2</ele>
        <time>2021-07-31T17:04:32.000Z</time>
      </trkpt>
      <trkpt lat="45.28602" lon="5.01152">
        <ele>305</ele>
        <time>2021-07-31T17:04:34.000Z</time>
      </trkpt>
      <trkpt lat="45.2861" lon="5.01144">
        <ele>305.5</ele>
        <time>2021-07-31T17:04:36.000Z</time>
      </trkpt>
      <trkpt lat="45.28618" lon="5.01136">
        <ele>305.7</ele>
        <time>2021-07-31T17:04:38.000Z</time>
      </trkpt>
      <trkpt lat="45.28624" lon="5.01126">
        <ele>306.4</ele>
        <time>2021-07-31T17:04:40.000Z</time>
      </trkpt>
      <trkpt lat="45.28631" lon="5.01117">
        <ele>306.6</ele>
        <time>2021-07-31T17:04:42.000Z</time>
      </trkpt>
      <trkpt lat="45.28638" lon="5.01107">
        <ele>306.8</ele>
        <time>2021-07-31T17:04:44.000Z</time>
      </trkpt>
      <trkpt lat="45.28646" lon="5.01094">
        <ele>306.9</ele>
        <time>2021-07-31T17:04:47.000Z</time>
      </trkpt>
      <trkpt lat="45.28655" lon="5.01082">
        <ele>306.9</ele>
        <time>2021-07-31T17:04:50.000Z</time>
      </trkpt>
      <trkpt lat="45.28665" lon="5.01072">
        <ele>307.4</ele>
        <time>2021-07-31T17:04:54.000Z</time>
      </trkpt>
      <trkpt lat="45.28676" lon="5.01066">
        <ele>307.5</ele>
        <time>2021-07-31T17:04:58.000Z</time>
      </trkpt>
      <trkpt lat="45.28686" lon="5.0106">
        <ele>308</ele>
        <time>2021-07-31T17:05:02.000Z</time>
      </trkpt>
      <trkpt lat="45.28697" lon="5.01056">
        <ele>307.3</ele>
        <time>2021-07-31T17:05:06.000Z</time>
      </trkpt>
      <trkpt lat="45.28708" lon="5.01053">
        <ele>306.9</ele>
        <time>2021-07-31T17:05:09.000Z</time>
      </trkpt>
      <trkpt lat="45.28721" lon="5.01048">
        <ele>306.2</ele>
        <time>2021-07-31T17:05:12.000Z</time>
      </trkpt>
      <trkpt lat="45.2873" lon="5.01044">
        <ele>305.7</ele>
        <time>2021-07-31T17:05:14.000Z</time>
      </trkpt>
      <trkpt lat="45.28742" lon="5.01036">
        <ele>305</ele>
        <time>2021-07-31T17:05:17.000Z</time>
      </trkpt>
      <trkpt lat="45.28754" lon="5.01032">
        <ele>303.9</ele>
        <time>2021-07-31T17:05:19.000Z</time>
      </trkpt>
      <trkpt lat="45.28762" lon="5.01026">
        <ele>303.5</ele>
        <time>2021-07-31T17:05:21.000Z</time>
      </trkpt>
      <trkpt lat="45.2877" lon="5.01017">
        <ele>303.1</ele>
        <time>2021-07-31T17:05:23.000Z</time>
      </trkpt>
      <trkpt lat="45.28779" lon="5.0101">
        <ele>302.5</ele>
        <time>2021-07-31T17:05:25.000Z</time>
      </trkpt>
      <trkpt lat="45.28787" lon="5.01001">
        <ele>302.1</ele>
        <time>2021-07-31T17:05:27.000Z</time>
      </trkpt>
      <trkpt lat="45.28797" lon="5.00991">
        <ele>300.5</ele>
        <time>2021-07-31T17:05:30.000Z</time>
      </trkpt>
      <trkpt lat="45.28802" lon="5.00974">
        <ele>299.5</ele>
        <time>2021-07-31T17:05:33.000Z</time>
      </trkpt>
      <trkpt lat="45.28801" lon="5.00955">
        <ele>299.2</ele>
        <time>2021-07-31T17:05:35.000Z</time>
      </trkpt>
      <trkpt lat="45.28802" lon="5.00935">
        <ele>298.7</ele>
        <time>2021-07-31T17:05:37.000Z</time>
      </trkpt>
      <trkpt lat="45.288" lon="5.00915">
        <ele>298.3</ele>
        <time>2021-07-31T17:05:39.000Z</time>
      </trkpt>
      <trkpt lat="45.28793" lon="5.00894">
        <ele>296.4</ele>
        <time>2021-07-31T17:05:41.000Z</time>
      </trkpt>
      <trkpt lat="45.28788" lon="5.00882">
        <ele>295.5</ele>
        <time>2021-07-31T17:05:42.000Z</time>
      </trkpt>
      <trkpt lat="45.28785" lon="5.00871">
        <ele>294.5</ele>
        <time>2021-07-31T17:05:43.000Z</time>
      </trkpt>
      <trkpt lat="45.28778" lon="5.00847">
        <ele>292.3</ele>
        <time>2021-07-31T17:05:45.000Z</time>
      </trkpt>
      <trkpt lat="45.28775" lon="5.00835">
        <ele>291.4</ele>
        <time>2021-07-31T17:05:46.000Z</time>
      </trkpt>
      <trkpt lat="45.28772" lon="5.00822">
        <ele>290.7</ele>
        <time>2021-07-31T17:05:47.000Z</time>
      </trkpt>
      <trkpt lat="45.28767" lon="5.00799">
        <ele>289.7</ele>
        <time>2021-07-31T17:05:49.000Z</time>
      </trkpt>
      <trkpt lat="45.28764" lon="5.00787">
        <ele>289.1</ele>
        <time>2021-07-31T17:05:50.000Z</time>
      </trkpt>
      <trkpt lat="45.28762" lon="5.00763">
        <ele>287.7</ele>
        <time>2021-07-31T17:05:52.000Z</time>
      </trkpt>
      <trkpt lat="45.28761" lon="5.0074">
        <ele>286.8</ele>
        <time>2021-07-31T17:05:54.000Z</time>
      </trkpt>
      <trkpt lat="45.28763" lon="5.00717">
        <ele>286.1</ele>
        <time>2021-07-31T17:05:56.000Z</time>
      </trkpt>
      <trkpt lat="45.28764" lon="5.00692">
        <ele>285.4</ele>
        <time>2021-07-31T17:05:58.000Z</time>
      </trkpt>
      <trkpt lat="45.28765" lon="5.00679">
        <ele>285</ele>
        <time>2021-07-31T17:05:59.000Z</time>
      </trkpt>
      <trkpt lat="45.28767" lon="5.00665">
        <ele>284.6</ele>
        <time>2021-07-31T17:06:00.000Z</time>
      </trkpt>
      <trkpt lat="45.28769" lon="5.00651">
        <ele>284.4</ele>
        <time>2021-07-31T17:06:01.000Z</time>
      </trkpt>
      <trkpt lat="45.2877" lon="5.00637">
        <ele>284.3</ele>
        <time>2021-07-31T17:06:02.000Z</time>
      </trkpt>
      <trkpt lat="45.28772" lon="5.00623">
        <ele>284.1</ele>
        <time>2021-07-31T17:06:03.000Z</time>
      </trkpt>
      <trkpt lat="45.28774" lon="5.00609">
        <ele>283.9</ele>
        <time>2021-07-31T17:06:04.000Z</time>
      </trkpt>
      <trkpt lat="45.28776" lon="5.00596">
        <ele>283.8</ele>
        <time>2021-07-31T17:06:05.000Z</time>
      </trkpt>
      <trkpt lat="45.28779" lon="5.00583">
        <ele>283.6</ele>
        <time>2021-07-31T17:06:06.000Z</time>
      </trkpt>
      <trkpt lat="45.28782" lon="5.0057">
        <ele>283.4</ele>
        <time>2021-07-31T17:06:07.000Z</time>
      </trkpt>
      <trkpt lat="45.28784" lon="5.00557">
        <ele>283.3</ele>
        <time>2021-07-31T17:06:08.000Z</time>
      </trkpt>
      <trkpt lat="45.28787" lon="5.00545">
        <ele>283.1</ele>
        <time>2021-07-31T17:06:09.000Z</time>
      </trkpt>
      <trkpt lat="45.28792" lon="5.0052">
        <ele>282.8</ele>
        <time>2021-07-31T17:06:11.000Z</time>
      </trkpt>
      <trkpt lat="45.28795" lon="5.00508">
        <ele>282.7</ele>
        <time>2021-07-31T17:06:12.000Z</time>
      </trkpt>
      <trkpt lat="45.28797" lon="5.00495">
        <ele>282.6</ele>
        <time>2021-07-31T17:06:13.000Z</time>
      </trkpt>
      <trkpt lat="45.28801" lon="5.00472">
        <ele>282.5</ele>
        <time>2021-07-31T17:06:15.000Z</time>
      </trkpt>
      <trkpt lat="45.28805" lon="5.00449">
        <ele>282.4</ele>
        <time>2021-07-31T17:06:17.000Z</time>
      </trkpt>
      <trkpt lat="45.28809" lon="5.00428">
        <ele>282.3</ele>
        <time>2021-07-31T17:06:19.000Z</time>
      </trkpt>
      <trkpt lat="45.2881" lon="5.00407">
        <ele>282.6</ele>
        <time>2021-07-31T17:06:21.000Z</time>
      </trkpt>
      <trkpt lat="45.28809" lon="5.00387">
        <ele>283.1</ele>
        <time>2021-07-31T17:06:23.000Z</time>
      </trkpt>
      <trkpt lat="45.28808" lon="5.00368">
        <ele>283.5</ele>
        <time>2021-07-31T17:06:25.000Z</time>
      </trkpt>
      <trkpt lat="45.28807" lon="5.00349">
        <ele>284</ele>
        <time>2021-07-31T17:06:27.000Z</time>
      </trkpt>
      <trkpt lat="45.28805" lon="5.0033">
        <ele>284.5</ele>
        <time>2021-07-31T17:06:29.000Z</time>
      </trkpt>
      <trkpt lat="45.28804" lon="5.00311">
        <ele>285</ele>
        <time>2021-07-31T17:06:31.000Z</time>
      </trkpt>
      <trkpt lat="45.28806" lon="5.00294">
        <ele>285.4</ele>
        <time>2021-07-31T17:06:33.000Z</time>
      </trkpt>
      <trkpt lat="45.28813" lon="5.00278">
        <ele>285.7</ele>
        <time>2021-07-31T17:06:35.000Z</time>
      </trkpt>
      <trkpt lat="45.28822" lon="5.00264">
        <ele>285.8</ele>
        <time>2021-07-31T17:06:37.000Z</time>
      </trkpt>
      <trkpt lat="45.28832" lon="5.00252">
        <ele>286</ele>
        <time>2021-07-31T17:06:39.000Z</time>
      </trkpt>
      <trkpt lat="45.28841" lon="5.00241">
        <ele>285.7</ele>
        <time>2021-07-31T17:06:41.000Z</time>
      </trkpt>
      <trkpt lat="45.28851" lon="5.0023">
        <ele>285.2</ele>
        <time>2021-07-31T17:06:43.000Z</time>
      </trkpt>
      <trkpt lat="45.28858" lon="5.00218">
        <ele>284.9</ele>
        <time>2021-07-31T17:06:45.000Z</time>
      </trkpt>
      <trkpt lat="45.28863" lon="5.00206">
        <ele>284.7</ele>
        <time>2021-07-31T17:06:47.000Z</time>
      </trkpt>
      <trkpt lat="45.28868" lon="5.00194">
        <ele>284.5</ele>
        <time>2021-07-31T17:06:49.000Z</time>
      </trkpt>
      <trkpt lat="45.28873" lon="5.00178">
        <ele>284.5</ele>
        <time>2021-07-31T17:06:52.000Z</time>
      </trkpt>
      <trkpt lat="45.2888" lon="5.00166">
        <ele>283.9</ele>
        <time>2021-07-31T17:06:55.000Z</time>
      </trkpt>
      <trkpt lat="45.28888" lon="5.00158">
        <ele>283.7</ele>
        <time>2021-07-31T17:06:58.000Z</time>
      </trkpt>
      <trkpt lat="45.28897" lon="5.00156">
        <ele>282.6</ele>
        <time>2021-07-31T17:07:01.000Z</time>
      </trkpt>
      <trkpt lat="45.28909" lon="5.00154">
        <ele>281.1</ele>
        <time>2021-07-31T17:07:04.000Z</time>
      </trkpt>
      <trkpt lat="45.28922" lon="5.00149">
        <ele>279.9</ele>
        <time>2021-07-31T17:07:07.000Z</time>
      </trkpt>
      <trkpt lat="45.28931" lon="5.00144">
        <ele>279.5</ele>
        <time>2021-07-31T17:07:09.000Z</time>
      </trkpt>
      <trkpt lat="45.2894" lon="5.00136">
        <ele>279</ele>
        <time>2021-07-31T17:07:11.000Z</time>
      </trkpt>
      <trkpt lat="45.28949" lon="5.00125">
        <ele>278.6</ele>
        <time>2021-07-31T17:07:13.000Z</time>
      </trkpt>
      <trkpt lat="45.28958" lon="5.00114">
        <ele>278.1</ele>
        <time>2021-07-31T17:07:15.000Z</time>
      </trkpt>
      <trkpt lat="45.28965" lon="5.00099">
        <ele>277.7</ele>
        <time>2021-07-31T17:07:17.000Z</time>
      </trkpt>
      <trkpt lat="45.28971" lon="5.00085">
        <ele>277.4</ele>
        <time>2021-07-31T17:07:19.000Z</time>
      </trkpt>
      <trkpt lat="45.28977" lon="5.00071">
        <ele>277.2</ele>
        <time>2021-07-31T17:07:21.000Z</time>
      </trkpt>
      <trkpt lat="45.28982" lon="5.00058">
        <ele>276.8</ele>
        <time>2021-07-31T17:07:23.000Z</time>
      </trkpt>
      <trkpt lat="45.28988" lon="5.00045">
        <ele>276.4</ele>
        <time>2021-07-31T17:07:25.000Z</time>
      </trkpt>
      <trkpt lat="45.28993" lon="5.0003">
        <ele>276</ele>
        <time>2021-07-31T17:07:27.000Z</time>
      </trkpt>
      <trkpt lat="45.28999" lon="5.00015">
        <ele>275.6</ele>
        <time>2021-07-31T17:07:29.000Z</time>
      </trkpt>
      <trkpt lat="45.29004" lon="4.99999">
        <ele>275.5</ele>
        <time>2021-07-31T17:07:31.000Z</time>
      </trkpt>
      <trkpt lat="45.29009" lon="4.99983">
        <ele>275.5</ele>
        <time>2021-07-31T17:07:33.000Z</time>
      </trkpt>
      <trkpt lat="45.29015" lon="4.99967">
        <ele>275.4</ele>
        <time>2021-07-31T17:07:35.000Z</time>
      </trkpt>
      <trkpt lat="45.29021" lon="4.99952">
        <ele>275</ele>
        <time>2021-07-31T17:07:37.000Z</time>
      </trkpt>
      <trkpt lat="45.29026" lon="4.99936">
        <ele>274.7</ele>
        <time>2021-07-31T17:07:39.000Z</time>
      </trkpt>
      <trkpt lat="45.29032" lon="4.9992">
        <ele>274.2</ele>
        <time>2021-07-31T17:07:41.000Z</time>
      </trkpt>
      <trkpt lat="45.29039" lon="4.99902">
        <ele>273.4</ele>
        <time>2021-07-31T17:07:43.000Z</time>
      </trkpt>
      <trkpt lat="45.29048" lon="4.99885">
        <ele>272.5</ele>
        <time>2021-07-31T17:07:45.000Z</time>
      </trkpt>
      <trkpt lat="45.29056" lon="4.99867">
        <ele>271.6</ele>
        <time>2021-07-31T17:07:47.000Z</time>
      </trkpt>
      <trkpt lat="45.29065" lon="4.99853">
        <ele>270.5</ele>
        <time>2021-07-31T17:07:49.000Z</time>
      </trkpt>
      <trkpt lat="45.2907" lon="4.99839">
        <ele>270.2</ele>
        <time>2021-07-31T17:07:51.000Z</time>
      </trkpt>
      <trkpt lat="45.29073" lon="4.99825">
        <ele>269.9</ele>
        <time>2021-07-31T17:07:53.000Z</time>
      </trkpt>
      <trkpt lat="45.2908" lon="4.99808">
        <ele>268.9</ele>
        <time>2021-07-31T17:07:56.000Z</time>
      </trkpt>
      <trkpt lat="45.29089" lon="4.99796">
        <ele>267.6</ele>
        <time>2021-07-31T17:07:59.000Z</time>
      </trkpt>
      <trkpt lat="45.29095" lon="4.9978">
        <ele>267</ele>
        <time>2021-07-31T17:08:02.000Z</time>
      </trkpt>
      <trkpt lat="45.29095" lon="4.99763">
        <ele>267.2</ele>
        <time>2021-07-31T17:08:04.000Z</time>
      </trkpt>
      <trkpt lat="45.29096" lon="4.99746">
        <ele>267.2</ele>
        <time>2021-07-31T17:08:06.000Z</time>
      </trkpt>
      <trkpt lat="45.29097" lon="4.9973">
        <ele>266.5</ele>
        <time>2021-07-31T17:08:08.000Z</time>
      </trkpt>
      <trkpt lat="45.29097" lon="4.99714">
        <ele>266</ele>
        <time>2021-07-31T17:08:10.000Z</time>
      </trkpt>
      <trkpt lat="45.29097" lon="4.99698">
        <ele>265.4</ele>
        <time>2021-07-31T17:08:12.000Z</time>
      </trkpt>
      <trkpt lat="45.29097" lon="4.99681">
        <ele>264.8</ele>
        <time>2021-07-31T17:08:14.000Z</time>
      </trkpt>
      <trkpt lat="45.29097" lon="4.99663">
        <ele>264.3</ele>
        <time>2021-07-31T17:08:16.000Z</time>
      </trkpt>
      <trkpt lat="45.29096" lon="4.99646">
        <ele>264.1</ele>
        <time>2021-07-31T17:08:18.000Z</time>
      </trkpt>
      <trkpt lat="45.29094" lon="4.99631">
        <ele>264.1</ele>
        <time>2021-07-31T17:08:20.000Z</time>
      </trkpt>
      <trkpt lat="45.29092" lon="4.99612">
        <ele>264.1</ele>
        <time>2021-07-31T17:08:23.000Z</time>
      </trkpt>
      <trkpt lat="45.29088" lon="4.99598">
        <ele>264.5</ele>
        <time>2021-07-31T17:08:26.000Z</time>
      </trkpt>
      <trkpt lat="45.29083" lon="4.99585">
        <ele>265.1</ele>
        <time>2021-07-31T17:08:29.000Z</time>
      </trkpt>
      <trkpt lat="45.2908" lon="4.9957">
        <ele>265.8</ele>
        <time>2021-07-31T17:08:32.000Z</time>
      </trkpt>
      <trkpt lat="45.29075" lon="4.99554">
        <ele>266.9</ele>
        <time>2021-07-31T17:08:35.000Z</time>
      </trkpt>
      <trkpt lat="45.29069" lon="4.99536">
        <ele>268</ele>
        <time>2021-07-31T17:08:38.000Z</time>
      </trkpt>
      <trkpt lat="45.29063" lon="4.9952">
        <ele>269.1</ele>
        <time>2021-07-31T17:08:41.000Z</time>
      </trkpt>
      <trkpt lat="45.29061" lon="4.995">
        <ele>269.5</ele>
        <time>2021-07-31T17:08:44.000Z</time>
      </trkpt>
      <trkpt lat="45.29057" lon="4.99485">
        <ele>269.6</ele>
        <time>2021-07-31T17:08:46.000Z</time>
      </trkpt>
      <trkpt lat="45.29055" lon="4.99469">
        <ele>269.4</ele>
        <time>2021-07-31T17:08:48.000Z</time>
      </trkpt>
      <trkpt lat="45.29052" lon="4.99454">
        <ele>269.3</ele>
        <time>2021-07-31T17:08:50.000Z</time>
      </trkpt>
      <trkpt lat="45.29049" lon="4.99437">
        <ele>269.2</ele>
        <time>2021-07-31T17:08:52.000Z</time>
      </trkpt>
      <trkpt lat="45.29045" lon="4.99422">
        <ele>269.1</ele>
        <time>2021-07-31T17:08:54.000Z</time>
      </trkpt>
      <trkpt lat="45.2904" lon="4.99406">
        <ele>269.1</ele>
        <time>2021-07-31T17:08:56.000Z</time>
      </trkpt>
      <trkpt lat="45.29035" lon="4.9939">
        <ele>269.2</ele>
        <time>2021-07-31T17:08:58.000Z</time>
      </trkpt>
      <trkpt lat="45.29032" lon="4.99378">
        <ele>269.2</ele>
        <time>2021-07-31T17:09:00.000Z</time>
      </trkpt>
      <trkpt lat="45.29028" lon="4.99364">
        <ele>269.1</ele>
        <time>2021-07-31T17:09:02.000Z</time>
      </trkpt>
      <trkpt lat="45.29027" lon="4.99347">
        <ele>268.4</ele>
        <time>2021-07-31T17:09:04.000Z</time>
      </trkpt>
      <trkpt lat="45.29023" lon="4.99331">
        <ele>268.4</ele>
        <time>2021-07-31T17:09:06.000Z</time>
      </trkpt>
      <trkpt lat="45.2902" lon="4.99311">
        <ele>267.6</ele>
        <time>2021-07-31T17:09:08.000Z</time>
      </trkpt>
      <trkpt lat="45.2902" lon="4.99292">
        <ele>266.5</ele>
        <time>2021-07-31T17:09:10.000Z</time>
      </trkpt>
      <trkpt lat="45.29017" lon="4.99273">
        <ele>265.5</ele>
        <time>2021-07-31T17:09:12.000Z</time>
      </trkpt>
      <trkpt lat="45.29015" lon="4.99254">
        <ele>264.5</ele>
        <time>2021-07-31T17:09:14.000Z</time>
      </trkpt>
      <trkpt lat="45.29012" lon="4.99238">
        <ele>264.6</ele>
        <time>2021-07-31T17:09:16.000Z</time>
      </trkpt>
      <trkpt lat="45.29011" lon="4.9922">
        <ele>264.9</ele>
        <time>2021-07-31T17:09:18.000Z</time>
      </trkpt>
      <trkpt lat="45.29011" lon="4.99201">
        <ele>265.1</ele>
        <time>2021-07-31T17:09:20.000Z</time>
      </trkpt>
      <trkpt lat="45.2901" lon="4.99184">
        <ele>265.3</ele>
        <time>2021-07-31T17:09:22.000Z</time>
      </trkpt>
      <trkpt lat="45.29008" lon="4.99164">
        <ele>265.9</ele>
        <time>2021-07-31T17:09:24.000Z</time>
      </trkpt>
      <trkpt lat="45.29007" lon="4.99146">
        <ele>267.3</ele>
        <time>2021-07-31T17:09:26.000Z</time>
      </trkpt>
      <trkpt lat="45.29004" lon="4.99127">
        <ele>269.1</ele>
        <time>2021-07-31T17:09:28.000Z</time>
      </trkpt>
      <trkpt lat="45.29003" lon="4.99111">
        <ele>270.4</ele>
        <time>2021-07-31T17:09:30.000Z</time>
      </trkpt>
      <trkpt lat="45.29001" lon="4.99094">
        <ele>272</ele>
        <time>2021-07-31T17:09:32.000Z</time>
      </trkpt>
      <trkpt lat="45.29001" lon="4.99077">
        <ele>272.5</ele>
        <time>2021-07-31T17:09:34.000Z</time>
      </trkpt>
      <trkpt lat="45.29003" lon="4.9906">
        <ele>271.8</ele>
        <time>2021-07-31T17:09:36.000Z</time>
      </trkpt>
      <trkpt lat="45.29004" lon="4.99043">
        <ele>271.1</ele>
        <time>2021-07-31T17:09:38.000Z</time>
      </trkpt>
      <trkpt lat="45.29006" lon="4.99026">
        <ele>270.2</ele>
        <time>2021-07-31T17:09:40.000Z</time>
      </trkpt>
      <trkpt lat="45.29006" lon="4.9901">
        <ele>269.6</ele>
        <time>2021-07-31T17:09:42.000Z</time>
      </trkpt>
      <trkpt lat="45.29007" lon="4.98995">
        <ele>268.7</ele>
        <time>2021-07-31T17:09:44.000Z</time>
      </trkpt>
      <trkpt lat="45.29008" lon="4.98979">
        <ele>266.9</ele>
        <time>2021-07-31T17:09:46.000Z</time>
      </trkpt>
      <trkpt lat="45.29005" lon="4.98961">
        <ele>265.7</ele>
        <time>2021-07-31T17:09:48.000Z</time>
      </trkpt>
      <trkpt lat="45.29002" lon="4.98942">
        <ele>264.3</ele>
        <time>2021-07-31T17:09:50.000Z</time>
      </trkpt>
      <trkpt lat="45.29002" lon="4.98923">
        <ele>262.4</ele>
        <time>2021-07-31T17:09:52.000Z</time>
      </trkpt>
      <trkpt lat="45.29002" lon="4.98903">
        <ele>261</ele>
        <time>2021-07-31T17:09:54.000Z</time>
      </trkpt>
      <trkpt lat="45.29002" lon="4.98882">
        <ele>259.8</ele>
        <time>2021-07-31T17:09:56.000Z</time>
      </trkpt>
      <trkpt lat="45.29002" lon="4.98861">
        <ele>258.8</ele>
        <time>2021-07-31T17:09:58.000Z</time>
      </trkpt>
      <trkpt lat="45.29003" lon="4.98838">
        <ele>257.7</ele>
        <time>2021-07-31T17:10:00.000Z</time>
      </trkpt>
      <trkpt lat="45.29002" lon="4.98814">
        <ele>256.2</ele>
        <time>2021-07-31T17:10:02.000Z</time>
      </trkpt>
      <trkpt lat="45.29001" lon="4.98788">
        <ele>254.6</ele>
        <time>2021-07-31T17:10:04.000Z</time>
      </trkpt>
      <trkpt lat="45.29" lon="4.98775">
        <ele>253.7</ele>
        <time>2021-07-31T17:10:05.000Z</time>
      </trkpt>
      <trkpt lat="45.28999" lon="4.98761">
        <ele>252.9</ele>
        <time>2021-07-31T17:10:06.000Z</time>
      </trkpt>
      <trkpt lat="45.28997" lon="4.98747">
        <ele>252.4</ele>
        <time>2021-07-31T17:10:07.000Z</time>
      </trkpt>
      <trkpt lat="45.28992" lon="4.98722">
        <ele>251.5</ele>
        <time>2021-07-31T17:10:09.000Z</time>
      </trkpt>
      <trkpt lat="45.28989" lon="4.98708">
        <ele>251.3</ele>
        <time>2021-07-31T17:10:10.000Z</time>
      </trkpt>
      <trkpt lat="45.28985" lon="4.98695">
        <ele>251</ele>
        <time>2021-07-31T17:10:11.000Z</time>
      </trkpt>
      <trkpt lat="45.28982" lon="4.98681">
        <ele>250.8</ele>
        <time>2021-07-31T17:10:12.000Z</time>
      </trkpt>
      <trkpt lat="45.28978" lon="4.98666">
        <ele>250.5</ele>
        <time>2021-07-31T17:10:13.000Z</time>
      </trkpt>
      <trkpt lat="45.28975" lon="4.98652">
        <ele>249.7</ele>
        <time>2021-07-31T17:10:14.000Z</time>
      </trkpt>
      <trkpt lat="45.28971" lon="4.98637">
        <ele>249.2</ele>
        <time>2021-07-31T17:10:15.000Z</time>
      </trkpt>
      <trkpt lat="45.28966" lon="4.98622">
        <ele>248.7</ele>
        <time>2021-07-31T17:10:16.000Z</time>
      </trkpt>
      <trkpt lat="45.28961" lon="4.98607">
        <ele>248.5</ele>
        <time>2021-07-31T17:10:17.000Z</time>
      </trkpt>
      <trkpt lat="45.28954" lon="4.98593">
        <ele>248.6</ele>
        <time>2021-07-31T17:10:18.000Z</time>
      </trkpt>
      <trkpt lat="45.28947" lon="4.98581">
        <ele>249.2</ele>
        <time>2021-07-31T17:10:19.000Z</time>
      </trkpt>
      <trkpt lat="45.28939" lon="4.9857">
        <ele>249.5</ele>
        <time>2021-07-31T17:10:20.000Z</time>
      </trkpt>
      <trkpt lat="45.28931" lon="4.98559">
        <ele>250.1</ele>
        <time>2021-07-31T17:10:21.000Z</time>
      </trkpt>
      <trkpt lat="45.28923" lon="4.98546">
        <ele>250.2</ele>
        <time>2021-07-31T17:10:22.000Z</time>
      </trkpt>
      <trkpt lat="45.28916" lon="4.98533">
        <ele>250</ele>
        <time>2021-07-31T17:10:23.000Z</time>
      </trkpt>
      <trkpt lat="45.28908" lon="4.9852">
        <ele>249.2</ele>
        <time>2021-07-31T17:10:24.000Z</time>
      </trkpt>
      <trkpt lat="45.289" lon="4.98507">
        <ele>248.5</ele>
        <time>2021-07-31T17:10:25.000Z</time>
      </trkpt>
      <trkpt lat="45.28893" lon="4.98495">
        <ele>247.5</ele>
        <time>2021-07-31T17:10:26.000Z</time>
      </trkpt>
      <trkpt lat="45.28887" lon="4.98482">
        <ele>245.8</ele>
        <time>2021-07-31T17:10:27.000Z</time>
      </trkpt>
      <trkpt lat="45.28881" lon="4.98468">
        <ele>243.7</ele>
        <time>2021-07-31T17:10:28.000Z</time>
      </trkpt>
      <trkpt lat="45.28874" lon="4.98454">
        <ele>241.8</ele>
        <time>2021-07-31T17:10:29.000Z</time>
      </trkpt>
      <trkpt lat="45.28868" lon="4.9844">
        <ele>239.5</ele>
        <time>2021-07-31T17:10:30.000Z</time>
      </trkpt>
      <trkpt lat="45.28862" lon="4.98425">
        <ele>237.3</ele>
        <time>2021-07-31T17:10:31.000Z</time>
      </trkpt>
      <trkpt lat="45.28856" lon="4.98411">
        <ele>235.8</ele>
        <time>2021-07-31T17:10:32.000Z</time>
      </trkpt>
      <trkpt lat="45.2885" lon="4.98396">
        <ele>234.9</ele>
        <time>2021-07-31T17:10:33.000Z</time>
      </trkpt>
      <trkpt lat="45.28844" lon="4.98381">
        <ele>233.7</ele>
        <time>2021-07-31T17:10:34.000Z</time>
      </trkpt>
      <trkpt lat="45.28839" lon="4.98365">
        <ele>232.3</ele>
        <time>2021-07-31T17:10:35.000Z</time>
      </trkpt>
      <trkpt lat="45.28835" lon="4.9835">
        <ele>230.9</ele>
        <time>2021-07-31T17:10:36.000Z</time>
      </trkpt>
      <trkpt lat="45.28832" lon="4.98334">
        <ele>229.1</ele>
        <time>2021-07-31T17:10:37.000Z</time>
      </trkpt>
      <trkpt lat="45.2883" lon="4.98318">
        <ele>228.9</ele>
        <time>2021-07-31T17:10:38.000Z</time>
      </trkpt>
      <trkpt lat="45.28828" lon="4.98301">
        <ele>228.7</ele>
        <time>2021-07-31T17:10:39.000Z</time>
      </trkpt>
      <trkpt lat="45.28826" lon="4.98285">
        <ele>228.4</ele>
        <time>2021-07-31T17:10:40.000Z</time>
      </trkpt>
      <trkpt lat="45.28825" lon="4.98267">
        <ele>228</ele>
        <time>2021-07-31T17:10:41.000Z</time>
      </trkpt>
      <trkpt lat="45.28826" lon="4.98249">
        <ele>227.4</ele>
        <time>2021-07-31T17:10:42.000Z</time>
      </trkpt>
      <trkpt lat="45.28828" lon="4.98232">
        <ele>227.3</ele>
        <time>2021-07-31T17:10:43.000Z</time>
      </trkpt>
      <trkpt lat="45.2883" lon="4.98217">
        <ele>227.1</ele>
        <time>2021-07-31T17:10:44.000Z</time>
      </trkpt>
      <trkpt lat="45.28833" lon="4.98201">
        <ele>227</ele>
        <time>2021-07-31T17:10:45.000Z</time>
      </trkpt>
      <trkpt lat="45.28836" lon="4.98186">
        <ele>226.9</ele>
        <time>2021-07-31T17:10:46.000Z</time>
      </trkpt>
      <trkpt lat="45.28839" lon="4.98172">
        <ele>226.9</ele>
        <time>2021-07-31T17:10:47.000Z</time>
      </trkpt>
      <trkpt lat="45.28842" lon="4.98158">
        <ele>227.1</ele>
        <time>2021-07-31T17:10:48.000Z</time>
      </trkpt>
      <trkpt lat="45.28844" lon="4.98145">
        <ele>227.5</ele>
        <time>2021-07-31T17:10:49.000Z</time>
      </trkpt>
      <trkpt lat="45.28845" lon="4.98131">
        <ele>227.8</ele>
        <time>2021-07-31T17:10:50.000Z</time>
      </trkpt>
      <trkpt lat="45.28847" lon="4.98107">
        <ele>228.6</ele>
        <time>2021-07-31T17:10:52.000Z</time>
      </trkpt>
      <trkpt lat="45.28847" lon="4.98082">
        <ele>229.3</ele>
        <time>2021-07-31T17:10:54.000Z</time>
      </trkpt>
      <trkpt lat="45.28844" lon="4.98057">
        <ele>228.6</ele>
        <time>2021-07-31T17:10:56.000Z</time>
      </trkpt>
      <trkpt lat="45.28842" lon="4.98031">
        <ele>227.8</ele>
        <time>2021-07-31T17:10:58.000Z</time>
      </trkpt>
      <trkpt lat="45.28839" lon="4.98007">
        <ele>227.1</ele>
        <time>2021-07-31T17:11:00.000Z</time>
      </trkpt>
      <trkpt lat="45.28836" lon="4.97982">
        <ele>226.7</ele>
        <time>2021-07-31T17:11:02.000Z</time>
      </trkpt>
      <trkpt lat="45.28833" lon="4.97958">
        <ele>226.5</ele>
        <time>2021-07-31T17:11:04.000Z</time>
      </trkpt>
      <trkpt lat="45.28832" lon="4.97936">
        <ele>226.2</ele>
        <time>2021-07-31T17:11:06.000Z</time>
      </trkpt>
      <trkpt lat="45.28833" lon="4.97912">
        <ele>225.9</ele>
        <time>2021-07-31T17:11:08.000Z</time>
      </trkpt>
      <trkpt lat="45.28835" lon="4.97889">
        <ele>225.3</ele>
        <time>2021-07-31T17:11:10.000Z</time>
      </trkpt>
      <trkpt lat="45.28838" lon="4.97866">
        <ele>224.7</ele>
        <time>2021-07-31T17:11:12.000Z</time>
      </trkpt>
      <trkpt lat="45.28842" lon="4.97844">
        <ele>224.2</ele>
        <time>2021-07-31T17:11:14.000Z</time>
      </trkpt>
      <trkpt lat="45.28848" lon="4.97823">
        <ele>223.9</ele>
        <time>2021-07-31T17:11:16.000Z</time>
      </trkpt>
      <trkpt lat="45.28854" lon="4.97803">
        <ele>223.5</ele>
        <time>2021-07-31T17:11:18.000Z</time>
      </trkpt>
      <trkpt lat="45.28861" lon="4.97783">
        <ele>223.2</ele>
        <time>2021-07-31T17:11:20.000Z</time>
      </trkpt>
      <trkpt lat="45.28868" lon="4.97763">
        <ele>222.8</ele>
        <time>2021-07-31T17:11:22.000Z</time>
      </trkpt>
      <trkpt lat="45.28876" lon="4.97741">
        <ele>222.4</ele>
        <time>2021-07-31T17:11:24.000Z</time>
      </trkpt>
      <trkpt lat="45.28883" lon="4.97721">
        <ele>222.3</ele>
        <time>2021-07-31T17:11:26.000Z</time>
      </trkpt>
      <trkpt lat="45.2889" lon="4.97699">
        <ele>222.1</ele>
        <time>2021-07-31T17:11:28.000Z</time>
      </trkpt>
      <trkpt lat="45.28897" lon="4.97677">
        <ele>222</ele>
        <time>2021-07-31T17:11:30.000Z</time>
      </trkpt>
      <trkpt lat="45.28905" lon="4.97656">
        <ele>221.9</ele>
        <time>2021-07-31T17:11:32.000Z</time>
      </trkpt>
      <trkpt lat="45.28913" lon="4.97635">
        <ele>221.6</ele>
        <time>2021-07-31T17:11:34.000Z</time>
      </trkpt>
      <trkpt lat="45.28921" lon="4.97614">
        <ele>221.3</ele>
        <time>2021-07-31T17:11:36.000Z</time>
      </trkpt>
      <trkpt lat="45.28929" lon="4.97592">
        <ele>221</ele>
        <time>2021-07-31T17:11:38.000Z</time>
      </trkpt>
      <trkpt lat="45.28937" lon="4.97572">
        <ele>220.5</ele>
        <time>2021-07-31T17:11:40.000Z</time>
      </trkpt>
      <trkpt lat="45.28944" lon="4.97552">
        <ele>220</ele>
        <time>2021-07-31T17:11:42.000Z</time>
      </trkpt>
      <trkpt lat="45.28951" lon="4.97532">
        <ele>219.6</ele>
        <time>2021-07-31T17:11:44.000Z</time>
      </trkpt>
      <trkpt lat="45.28958" lon="4.97512">
        <ele>219.2</ele>
        <time>2021-07-31T17:11:46.000Z</time>
      </trkpt>
      <trkpt lat="45.28965" lon="4.97492">
        <ele>219.2</ele>
        <time>2021-07-31T17:11:48.000Z</time>
      </trkpt>
      <trkpt lat="45.28972" lon="4.97472">
        <ele>219.7</ele>
        <time>2021-07-31T17:11:50.000Z</time>
      </trkpt>
      <trkpt lat="45.28978" lon="4.97452">
        <ele>220.2</ele>
        <time>2021-07-31T17:11:52.000Z</time>
      </trkpt>
      <trkpt lat="45.28984" lon="4.97434">
        <ele>220.6</ele>
        <time>2021-07-31T17:11:54.000Z</time>
      </trkpt>
      <trkpt lat="45.28991" lon="4.97414">
        <ele>221</ele>
        <time>2021-07-31T17:11:56.000Z</time>
      </trkpt>
      <trkpt lat="45.28997" lon="4.97395">
        <ele>220.8</ele>
        <time>2021-07-31T17:11:58.000Z</time>
      </trkpt>
      <trkpt lat="45.29003" lon="4.97375">
        <ele>220.5</ele>
        <time>2021-07-31T17:12:00.000Z</time>
      </trkpt>
      <trkpt lat="45.2901" lon="4.97357">
        <ele>220.1</ele>
        <time>2021-07-31T17:12:02.000Z</time>
      </trkpt>
      <trkpt lat="45.29016" lon="4.97338">
        <ele>219.9</ele>
        <time>2021-07-31T17:12:04.000Z</time>
      </trkpt>
      <trkpt lat="45.29024" lon="4.97323">
        <ele>219.6</ele>
        <time>2021-07-31T17:12:06.000Z</time>
      </trkpt>
      <trkpt lat="45.29035" lon="4.97313">
        <ele>219.4</ele>
        <time>2021-07-31T17:12:08.000Z</time>
      </trkpt>
      <trkpt lat="45.29043" lon="4.973">
        <ele>219.3</ele>
        <time>2021-07-31T17:12:10.000Z</time>
      </trkpt>
      <trkpt lat="45.29048" lon="4.97282">
        <ele>219.2</ele>
        <time>2021-07-31T17:12:12.000Z</time>
      </trkpt>
      <trkpt lat="45.29047" lon="4.97264">
        <ele>219.1</ele>
        <time>2021-07-31T17:12:14.000Z</time>
      </trkpt>
      <trkpt lat="45.29045" lon="4.97245">
        <ele>219</ele>
        <time>2021-07-31T17:12:16.000Z</time>
      </trkpt>
      <trkpt lat="45.29041" lon="4.97226">
        <ele>219</ele>
        <time>2021-07-31T17:12:18.000Z</time>
      </trkpt>
      <trkpt lat="45.29036" lon="4.97208">
        <ele>219</ele>
        <time>2021-07-31T17:12:20.000Z</time>
      </trkpt>
      <trkpt lat="45.29033" lon="4.97189">
        <ele>219</ele>
        <time>2021-07-31T17:12:22.000Z</time>
      </trkpt>
      <trkpt lat="45.29028" lon="4.97169">
        <ele>219</ele>
        <time>2021-07-31T17:12:24.000Z</time>
      </trkpt>
      <trkpt lat="45.29025" lon="4.97149">
        <ele>218.7</ele>
        <time>2021-07-31T17:12:26.000Z</time>
      </trkpt>
      <trkpt lat="45.29022" lon="4.97129">
        <ele>218.4</ele>
        <time>2021-07-31T17:12:28.000Z</time>
      </trkpt>
      <trkpt lat="45.29019" lon="4.9711">
        <ele>218.2</ele>
        <time>2021-07-31T17:12:30.000Z</time>
      </trkpt>
      <trkpt lat="45.29017" lon="4.9709">
        <ele>217.9</ele>
        <time>2021-07-31T17:12:32.000Z</time>
      </trkpt>
      <trkpt lat="45.29015" lon="4.97071">
        <ele>217.7</ele>
        <time>2021-07-31T17:12:34.000Z</time>
      </trkpt>
      <trkpt lat="45.29012" lon="4.97052">
        <ele>217.5</ele>
        <time>2021-07-31T17:12:36.000Z</time>
      </trkpt>
      <trkpt lat="45.2901" lon="4.97032">
        <ele>217.3</ele>
        <time>2021-07-31T17:12:38.000Z</time>
      </trkpt>
      <trkpt lat="45.29008" lon="4.97013">
        <ele>217.1</ele>
        <time>2021-07-31T17:12:40.000Z</time>
      </trkpt>
      <trkpt lat="45.29005" lon="4.96994">
        <ele>216.9</ele>
        <time>2021-07-31T17:12:42.000Z</time>
      </trkpt>
      <trkpt lat="45.29003" lon="4.96976">
        <ele>216.7</ele>
        <time>2021-07-31T17:12:44.000Z</time>
      </trkpt>
      <trkpt lat="45.29002" lon="4.96958">
        <ele>216.5</ele>
        <time>2021-07-31T17:12:46.000Z</time>
      </trkpt>
      <trkpt lat="45.29" lon="4.96939">
        <ele>216.3</ele>
        <time>2021-07-31T17:12:48.000Z</time>
      </trkpt>
      <trkpt lat="45.28999" lon="4.9692">
        <ele>216.1</ele>
        <time>2021-07-31T17:12:50.000Z</time>
      </trkpt>
      <trkpt lat="45.28998" lon="4.96901">
        <ele>215.8</ele>
        <time>2021-07-31T17:12:52.000Z</time>
      </trkpt>
      <trkpt lat="45.28996" lon="4.96882">
        <ele>215.7</ele>
        <time>2021-07-31T17:12:54.000Z</time>
      </trkpt>
      <trkpt lat="45.28994" lon="4.96863">
        <ele>215.5</ele>
        <time>2021-07-31T17:12:56.000Z</time>
      </trkpt>
      <trkpt lat="45.28992" lon="4.96844">
        <ele>215.4</ele>
        <time>2021-07-31T17:12:58.000Z</time>
      </trkpt>
      <trkpt lat="45.2899" lon="4.96825">
        <ele>215.4</ele>
        <time>2021-07-31T17:13:00.000Z</time>
      </trkpt>
      <trkpt lat="45.28988" lon="4.96807">
        <ele>215.7</ele>
        <time>2021-07-31T17:13:02.000Z</time>
      </trkpt>
      <trkpt lat="45.28986" lon="4.96788">
        <ele>215.9</ele>
        <time>2021-07-31T17:13:04.000Z</time>
      </trkpt>
      <trkpt lat="45.28985" lon="4.96769">
        <ele>216</ele>
        <time>2021-07-31T17:13:06.000Z</time>
      </trkpt>
      <trkpt lat="45.28983" lon="4.96749">
        <ele>216.2</ele>
        <time>2021-07-31T17:13:08.000Z</time>
      </trkpt>
      <trkpt lat="45.28981" lon="4.96729">
        <ele>216.2</ele>
        <time>2021-07-31T17:13:10.000Z</time>
      </trkpt>
      <trkpt lat="45.28979" lon="4.9671">
        <ele>216.3</ele>
        <time>2021-07-31T17:13:12.000Z</time>
      </trkpt>
      <trkpt lat="45.28977" lon="4.96691">
        <ele>216.3</ele>
        <time>2021-07-31T17:13:14.000Z</time>
      </trkpt>
      <trkpt lat="45.28975" lon="4.96672">
        <ele>216.3</ele>
        <time>2021-07-31T17:13:16.000Z</time>
      </trkpt>
      <trkpt lat="45.28973" lon="4.96652">
        <ele>216.1</ele>
        <time>2021-07-31T17:13:18.000Z</time>
      </trkpt>
      <trkpt lat="45.28971" lon="4.96633">
        <ele>215.9</ele>
        <time>2021-07-31T17:13:20.000Z</time>
      </trkpt>
      <trkpt lat="45.28969" lon="4.96613">
        <ele>215.7</ele>
        <time>2021-07-31T17:13:22.000Z</time>
      </trkpt>
      <trkpt lat="45.28968" lon="4.96591">
        <ele>215.5</ele>
        <time>2021-07-31T17:13:24.000Z</time>
      </trkpt>
      <trkpt lat="45.28966" lon="4.9657">
        <ele>215.4</ele>
        <time>2021-07-31T17:13:26.000Z</time>
      </trkpt>
      <trkpt lat="45.28964" lon="4.96549">
        <ele>215.4</ele>
        <time>2021-07-31T17:13:28.000Z</time>
      </trkpt>
      <trkpt lat="45.28962" lon="4.96527">
        <ele>215.4</ele>
        <time>2021-07-31T17:13:30.000Z</time>
      </trkpt>
      <trkpt lat="45.28961" lon="4.96505">
        <ele>215.5</ele>
        <time>2021-07-31T17:13:32.000Z</time>
      </trkpt>
      <trkpt lat="45.2896" lon="4.96483">
        <ele>215.4</ele>
        <time>2021-07-31T17:13:34.000Z</time>
      </trkpt>
      <trkpt lat="45.28958" lon="4.96462">
        <ele>215.3</ele>
        <time>2021-07-31T17:13:36.000Z</time>
      </trkpt>
      <trkpt lat="45.28955" lon="4.96441">
        <ele>215.2</ele>
        <time>2021-07-31T17:13:38.000Z</time>
      </trkpt>
      <trkpt lat="45.28953" lon="4.96419">
        <ele>215</ele>
        <time>2021-07-31T17:13:40.000Z</time>
      </trkpt>
      <trkpt lat="45.28951" lon="4.96398">
        <ele>215</ele>
        <time>2021-07-31T17:13:42.000Z</time>
      </trkpt>
      <trkpt lat="45.28949" lon="4.96376">
        <ele>215</ele>
        <time>2021-07-31T17:13:44.000Z</time>
      </trkpt>
      <trkpt lat="45.28948" lon="4.96353">
        <ele>215</ele>
        <time>2021-07-31T17:13:46.000Z</time>
      </trkpt>
      <trkpt lat="45.28948" lon="4.96331">
        <ele>214.9</ele>
        <time>2021-07-31T17:13:48.000Z</time>
      </trkpt>
      <trkpt lat="45.28948" lon="4.96309">
        <ele>214.3</ele>
        <time>2021-07-31T17:13:50.000Z</time>
      </trkpt>
      <trkpt lat="45.2895" lon="4.96289">
        <ele>213.8</ele>
        <time>2021-07-31T17:13:52.000Z</time>
      </trkpt>
      <trkpt lat="45.28951" lon="4.96268">
        <ele>213.3</ele>
        <time>2021-07-31T17:13:54.000Z</time>
      </trkpt>
      <trkpt lat="45.28953" lon="4.96248">
        <ele>212.9</ele>
        <time>2021-07-31T17:13:56.000Z</time>
      </trkpt>
      <trkpt lat="45.28955" lon="4.96228">
        <ele>212.9</ele>
        <time>2021-07-31T17:13:58.000Z</time>
      </trkpt>
      <trkpt lat="45.28955" lon="4.96209">
        <ele>213</ele>
        <time>2021-07-31T17:14:00.000Z</time>
      </trkpt>
      <trkpt lat="45.28955" lon="4.9619">
        <ele>213</ele>
        <time>2021-07-31T17:14:02.000Z</time>
      </trkpt>
      <trkpt lat="45.28955" lon="4.96171">
        <ele>213</ele>
        <time>2021-07-31T17:14:04.000Z</time>
      </trkpt>
      <trkpt lat="45.28956" lon="4.96155">
        <ele>212.8</ele>
        <time>2021-07-31T17:14:06.000Z</time>
      </trkpt>
      <trkpt lat="45.28957" lon="4.96136">
        <ele>212.4</ele>
        <time>2021-07-31T17:14:08.000Z</time>
      </trkpt>
      <trkpt lat="45.28958" lon="4.96118">
        <ele>212.1</ele>
        <time>2021-07-31T17:14:10.000Z</time>
      </trkpt>
      <trkpt lat="45.28958" lon="4.961">
        <ele>211.8</ele>
        <time>2021-07-31T17:14:12.000Z</time>
      </trkpt>
      <trkpt lat="45.28958" lon="4.96081">
        <ele>211.5</ele>
        <time>2021-07-31T17:14:14.000Z</time>
      </trkpt>
      <trkpt lat="45.28956" lon="4.96063">
        <ele>211.8</ele>
        <time>2021-07-31T17:14:16.000Z</time>
      </trkpt>
      <trkpt lat="45.28956" lon="4.96045">
        <ele>212</ele>
        <time>2021-07-31T17:14:18.000Z</time>
      </trkpt>
      <trkpt lat="45.28956" lon="4.96028">
        <ele>212.2</ele>
        <time>2021-07-31T17:14:20.000Z</time>
      </trkpt>
      <trkpt lat="45.28956" lon="4.96011">
        <ele>212.4</ele>
        <time>2021-07-31T17:14:22.000Z</time>
      </trkpt>
      <trkpt lat="45.28956" lon="4.95993">
        <ele>212.6</ele>
        <time>2021-07-31T17:14:24.000Z</time>
      </trkpt>
      <trkpt lat="45.28956" lon="4.95975">
        <ele>212.7</ele>
        <time>2021-07-31T17:14:26.000Z</time>
      </trkpt>
      <trkpt lat="45.28956" lon="4.95957">
        <ele>212.8</ele>
        <time>2021-07-31T17:14:28.000Z</time>
      </trkpt>
      <trkpt lat="45.28956" lon="4.95938">
        <ele>212.9</ele>
        <time>2021-07-31T17:14:30.000Z</time>
      </trkpt>
      <trkpt lat="45.28957" lon="4.9592">
        <ele>213</ele>
        <time>2021-07-31T17:14:32.000Z</time>
      </trkpt>
      <trkpt lat="45.28957" lon="4.959">
        <ele>212.9</ele>
        <time>2021-07-31T17:14:34.000Z</time>
      </trkpt>
      <trkpt lat="45.28957" lon="4.95881">
        <ele>212.8</ele>
        <time>2021-07-31T17:14:36.000Z</time>
      </trkpt>
      <trkpt lat="45.28958" lon="4.95861">
        <ele>212.7</ele>
        <time>2021-07-31T17:14:38.000Z</time>
      </trkpt>
      <trkpt lat="45.28959" lon="4.95842">
        <ele>212.5</ele>
        <time>2021-07-31T17:14:40.000Z</time>
      </trkpt>
      <trkpt lat="45.28959" lon="4.95821">
        <ele>212.5</ele>
        <time>2021-07-31T17:14:42.000Z</time>
      </trkpt>
      <trkpt lat="45.28959" lon="4.95801">
        <ele>212.5</ele>
        <time>2021-07-31T17:14:44.000Z</time>
      </trkpt>
      <trkpt lat="45.28958" lon="4.95782">
        <ele>212.5</ele>
        <time>2021-07-31T17:14:46.000Z</time>
      </trkpt>
      <trkpt lat="45.28957" lon="4.95761">
        <ele>212.5</ele>
        <time>2021-07-31T17:14:48.000Z</time>
      </trkpt>
      <trkpt lat="45.28957" lon="4.95741">
        <ele>212.6</ele>
        <time>2021-07-31T17:14:50.000Z</time>
      </trkpt>
      <trkpt lat="45.28957" lon="4.9572">
        <ele>212.7</ele>
        <time>2021-07-31T17:14:52.000Z</time>
      </trkpt>
      <trkpt lat="45.28962" lon="4.957">
        <ele>212.7</ele>
        <time>2021-07-31T17:14:54.000Z</time>
      </trkpt>
      <trkpt lat="45.28971" lon="4.95686">
        <ele>212.5</ele>
        <time>2021-07-31T17:14:56.000Z</time>
      </trkpt>
      <trkpt lat="45.28982" lon="4.95671">
        <ele>212.4</ele>
        <time>2021-07-31T17:14:58.000Z</time>
      </trkpt>
      <trkpt lat="45.28991" lon="4.95657">
        <ele>212.2</ele>
        <time>2021-07-31T17:15:00.000Z</time>
      </trkpt>
      <trkpt lat="45.29002" lon="4.95643">
        <ele>212</ele>
        <time>2021-07-31T17:15:02.000Z</time>
      </trkpt>
      <trkpt lat="45.29012" lon="4.95629">
        <ele>212</ele>
        <time>2021-07-31T17:15:04.000Z</time>
      </trkpt>
      <trkpt lat="45.29023" lon="4.95616">
        <ele>212.1</ele>
        <time>2021-07-31T17:15:06.000Z</time>
      </trkpt>
      <trkpt lat="45.29033" lon="4.95602">
        <ele>212.2</ele>
        <time>2021-07-31T17:15:08.000Z</time>
      </trkpt>
      <trkpt lat="45.29041" lon="4.95585">
        <ele>212.5</ele>
        <time>2021-07-31T17:15:10.000Z</time>
      </trkpt>
      <trkpt lat="45.29047" lon="4.95566">
        <ele>212.6</ele>
        <time>2021-07-31T17:15:12.000Z</time>
      </trkpt>
      <trkpt lat="45.29052" lon="4.95547">
        <ele>212.6</ele>
        <time>2021-07-31T17:15:14.000Z</time>
      </trkpt>
      <trkpt lat="45.29054" lon="4.95528">
        <ele>212.7</ele>
        <time>2021-07-31T17:15:16.000Z</time>
      </trkpt>
      <trkpt lat="45.29055" lon="4.95508">
        <ele>212.7</ele>
        <time>2021-07-31T17:15:18.000Z</time>
      </trkpt>
      <trkpt lat="45.29056" lon="4.95486">
        <ele>212.6</ele>
        <time>2021-07-31T17:15:20.000Z</time>
      </trkpt>
      <trkpt lat="45.29058" lon="4.95465">
        <ele>212.5</ele>
        <time>2021-07-31T17:15:22.000Z</time>
      </trkpt>
      <trkpt lat="45.29059" lon="4.95444">
        <ele>212.4</ele>
        <time>2021-07-31T17:15:24.000Z</time>
      </trkpt>
      <trkpt lat="45.2906" lon="4.95423">
        <ele>212.3</ele>
        <time>2021-07-31T17:15:26.000Z</time>
      </trkpt>
      <trkpt lat="45.29062" lon="4.95403">
        <ele>212.1</ele>
        <time>2021-07-31T17:15:28.000Z</time>
      </trkpt>
      <trkpt lat="45.29063" lon="4.95382">
        <ele>211.9</ele>
        <time>2021-07-31T17:15:30.000Z</time>
      </trkpt>
      <trkpt lat="45.29064" lon="4.9536">
        <ele>211.7</ele>
        <time>2021-07-31T17:15:32.000Z</time>
      </trkpt>
      <trkpt lat="45.29065" lon="4.9534">
        <ele>211.5</ele>
        <time>2021-07-31T17:15:34.000Z</time>
      </trkpt>
      <trkpt lat="45.29067" lon="4.95321">
        <ele>211.3</ele>
        <time>2021-07-31T17:15:36.000Z</time>
      </trkpt>
      <trkpt lat="45.29069" lon="4.95301">
        <ele>211</ele>
        <time>2021-07-31T17:15:38.000Z</time>
      </trkpt>
      <trkpt lat="45.29071" lon="4.95281">
        <ele>210.8</ele>
        <time>2021-07-31T17:15:40.000Z</time>
      </trkpt>
      <trkpt lat="45.29073" lon="4.9526">
        <ele>210.5</ele>
        <time>2021-07-31T17:15:42.000Z</time>
      </trkpt>
      <trkpt lat="45.29078" lon="4.95242">
        <ele>210.2</ele>
        <time>2021-07-31T17:15:44.000Z</time>
      </trkpt>
      <trkpt lat="45.29084" lon="4.95223">
        <ele>210</ele>
        <time>2021-07-31T17:15:46.000Z</time>
      </trkpt>
      <trkpt lat="45.29089" lon="4.95205">
        <ele>210.1</ele>
        <time>2021-07-31T17:15:48.000Z</time>
      </trkpt>
      <trkpt lat="45.29096" lon="4.95188">
        <ele>210.2</ele>
        <time>2021-07-31T17:15:50.000Z</time>
      </trkpt>
      <trkpt lat="45.29103" lon="4.95172">
        <ele>210.2</ele>
        <time>2021-07-31T17:15:52.000Z</time>
      </trkpt>
      <trkpt lat="45.29113" lon="4.95158">
        <ele>210.3</ele>
        <time>2021-07-31T17:15:54.000Z</time>
      </trkpt>
      <trkpt lat="45.29123" lon="4.95144">
        <ele>210.5</ele>
        <time>2021-07-31T17:15:56.000Z</time>
      </trkpt>
      <trkpt lat="45.29135" lon="4.95132">
        <ele>210.7</ele>
        <time>2021-07-31T17:15:58.000Z</time>
      </trkpt>
      <trkpt lat="45.29147" lon="4.95119">
        <ele>211.1</ele>
        <time>2021-07-31T17:16:00.000Z</time>
      </trkpt>
      <trkpt lat="45.29159" lon="4.95108">
        <ele>211.5</ele>
        <time>2021-07-31T17:16:02.000Z</time>
      </trkpt>
      <trkpt lat="45.29171" lon="4.95098">
        <ele>211.7</ele>
        <time>2021-07-31T17:16:04.000Z</time>
      </trkpt>
      <trkpt lat="45.29182" lon="4.95086">
        <ele>211.6</ele>
        <time>2021-07-31T17:16:06.000Z</time>
      </trkpt>
      <trkpt lat="45.29194" lon="4.95074">
        <ele>211.2</ele>
        <time>2021-07-31T17:16:08.000Z</time>
      </trkpt>
      <trkpt lat="45.29206" lon="4.95063">
        <ele>210.8</ele>
        <time>2021-07-31T17:16:10.000Z</time>
      </trkpt>
      <trkpt lat="45.29219" lon="4.95051">
        <ele>210.5</ele>
        <time>2021-07-31T17:16:12.000Z</time>
      </trkpt>
      <trkpt lat="45.29229" lon="4.95039">
        <ele>210.2</ele>
        <time>2021-07-31T17:16:14.000Z</time>
      </trkpt>
      <trkpt lat="45.29239" lon="4.95027">
        <ele>210.1</ele>
        <time>2021-07-31T17:16:16.000Z</time>
      </trkpt>
      <trkpt lat="45.29251" lon="4.95015">
        <ele>210</ele>
        <time>2021-07-31T17:16:18.000Z</time>
      </trkpt>
      <trkpt lat="45.29262" lon="4.95003">
        <ele>209.7</ele>
        <time>2021-07-31T17:16:20.000Z</time>
      </trkpt>
      <trkpt lat="45.29273" lon="4.94993">
        <ele>209.3</ele>
        <time>2021-07-31T17:16:22.000Z</time>
      </trkpt>
      <trkpt lat="45.29284" lon="4.94981">
        <ele>208.9</ele>
        <time>2021-07-31T17:16:24.000Z</time>
      </trkpt>
      <trkpt lat="45.29295" lon="4.94968">
        <ele>208.6</ele>
        <time>2021-07-31T17:16:26.000Z</time>
      </trkpt>
      <trkpt lat="45.29306" lon="4.94954">
        <ele>208.3</ele>
        <time>2021-07-31T17:16:28.000Z</time>
      </trkpt>
      <trkpt lat="45.29316" lon="4.94941">
        <ele>208.1</ele>
        <time>2021-07-31T17:16:30.000Z</time>
      </trkpt>
      <trkpt lat="45.29326" lon="4.94924">
        <ele>208</ele>
        <time>2021-07-31T17:16:32.000Z</time>
      </trkpt>
      <trkpt lat="45.29338" lon="4.94911">
        <ele>208</ele>
        <time>2021-07-31T17:16:34.000Z</time>
      </trkpt>
      <trkpt lat="45.29349" lon="4.94898">
        <ele>208.2</ele>
        <time>2021-07-31T17:16:36.000Z</time>
      </trkpt>
      <trkpt lat="45.29358" lon="4.94882">
        <ele>208.2</ele>
        <time>2021-07-31T17:16:38.000Z</time>
      </trkpt>
      <trkpt lat="45.29369" lon="4.94869">
        <ele>208.3</ele>
        <time>2021-07-31T17:16:40.000Z</time>
      </trkpt>
      <trkpt lat="45.2938" lon="4.94854">
        <ele>208.4</ele>
        <time>2021-07-31T17:16:42.000Z</time>
      </trkpt>
      <trkpt lat="45.2939" lon="4.94839">
        <ele>208.4</ele>
        <time>2021-07-31T17:16:44.000Z</time>
      </trkpt>
      <trkpt lat="45.294" lon="4.94822">
        <ele>208.4</ele>
        <time>2021-07-31T17:16:46.000Z</time>
      </trkpt>
      <trkpt lat="45.2941" lon="4.94807">
        <ele>208.3</ele>
        <time>2021-07-31T17:16:48.000Z</time>
      </trkpt>
      <trkpt lat="45.2942" lon="4.94792">
        <ele>208</ele>
        <time>2021-07-31T17:16:50.000Z</time>
      </trkpt>
      <trkpt lat="45.2943" lon="4.94776">
        <ele>207.7</ele>
        <time>2021-07-31T17:16:52.000Z</time>
      </trkpt>
      <trkpt lat="45.29441" lon="4.94761">
        <ele>207.5</ele>
        <time>2021-07-31T17:16:54.000Z</time>
      </trkpt>
      <trkpt lat="45.29451" lon="4.94746">
        <ele>207.4</ele>
        <time>2021-07-31T17:16:56.000Z</time>
      </trkpt>
      <trkpt lat="45.29461" lon="4.94731">
        <ele>207.4</ele>
        <time>2021-07-31T17:16:58.000Z</time>
      </trkpt>
      <trkpt lat="45.2947" lon="4.94715">
        <ele>207.4</ele>
        <time>2021-07-31T17:17:00.000Z</time>
      </trkpt>
      <trkpt lat="45.29478" lon="4.947">
        <ele>207.3</ele>
        <time>2021-07-31T17:17:02.000Z</time>
      </trkpt>
      <trkpt lat="45.29488" lon="4.94685">
        <ele>207.2</ele>
        <time>2021-07-31T17:17:04.000Z</time>
      </trkpt>
      <trkpt lat="45.29498" lon="4.94669">
        <ele>207</ele>
        <time>2021-07-31T17:17:06.000Z</time>
      </trkpt>
      <trkpt lat="45.29509" lon="4.94654">
        <ele>206.9</ele>
        <time>2021-07-31T17:17:08.000Z</time>
      </trkpt>
      <trkpt lat="45.29518" lon="4.94637">
        <ele>206.8</ele>
        <time>2021-07-31T17:17:10.000Z</time>
      </trkpt>
      <trkpt lat="45.29528" lon="4.94621">
        <ele>206.7</ele>
        <time>2021-07-31T17:17:12.000Z</time>
      </trkpt>
      <trkpt lat="45.29538" lon="4.94606">
        <ele>206.5</ele>
        <time>2021-07-31T17:17:14.000Z</time>
      </trkpt>
      <trkpt lat="45.29548" lon="4.94593">
        <ele>206.4</ele>
        <time>2021-07-31T17:17:16.000Z</time>
      </trkpt>
      <trkpt lat="45.29557" lon="4.94578">
        <ele>206.3</ele>
        <time>2021-07-31T17:17:18.000Z</time>
      </trkpt>
      <trkpt lat="45.29566" lon="4.94565">
        <ele>206.2</ele>
        <time>2021-07-31T17:17:20.000Z</time>
      </trkpt>
      <trkpt lat="45.29574" lon="4.9455">
        <ele>206.1</ele>
        <time>2021-07-31T17:17:22.000Z</time>
      </trkpt>
      <trkpt lat="45.29581" lon="4.94534">
        <ele>206</ele>
        <time>2021-07-31T17:17:24.000Z</time>
      </trkpt>
      <trkpt lat="45.29589" lon="4.94518">
        <ele>206</ele>
        <time>2021-07-31T17:17:26.000Z</time>
      </trkpt>
      <trkpt lat="45.29596" lon="4.94502">
        <ele>206</ele>
        <time>2021-07-31T17:17:28.000Z</time>
      </trkpt>
      <trkpt lat="45.29603" lon="4.94486">
        <ele>206.2</ele>
        <time>2021-07-31T17:17:30.000Z</time>
      </trkpt>
      <trkpt lat="45.29611" lon="4.94472">
        <ele>206.3</ele>
        <time>2021-07-31T17:17:32.000Z</time>
      </trkpt>
      <trkpt lat="45.29618" lon="4.94455">
        <ele>206.5</ele>
        <time>2021-07-31T17:17:34.000Z</time>
      </trkpt>
      <trkpt lat="45.29624" lon="4.9444">
        <ele>206.7</ele>
        <time>2021-07-31T17:17:36.000Z</time>
      </trkpt>
      <trkpt lat="45.29631" lon="4.94423">
        <ele>206.9</ele>
        <time>2021-07-31T17:17:38.000Z</time>
      </trkpt>
      <trkpt lat="45.29638" lon="4.94406">
        <ele>206.8</ele>
        <time>2021-07-31T17:17:40.000Z</time>
      </trkpt>
      <trkpt lat="45.29645" lon="4.94389">
        <ele>206.6</ele>
        <time>2021-07-31T17:17:42.000Z</time>
      </trkpt>
      <trkpt lat="45.29652" lon="4.94372">
        <ele>206.4</ele>
        <time>2021-07-31T17:17:44.000Z</time>
      </trkpt>
      <trkpt lat="45.29658" lon="4.94354">
        <ele>206.2</ele>
        <time>2021-07-31T17:17:46.000Z</time>
      </trkpt>
      <trkpt lat="45.29665" lon="4.94336">
        <ele>206</ele>
        <time>2021-07-31T17:17:48.000Z</time>
      </trkpt>
      <trkpt lat="45.29672" lon="4.9432">
        <ele>206</ele>
        <time>2021-07-31T17:17:50.000Z</time>
      </trkpt>
      <trkpt lat="45.29679" lon="4.94304">
        <ele>206</ele>
        <time>2021-07-31T17:17:52.000Z</time>
      </trkpt>
      <trkpt lat="45.29686" lon="4.94288">
        <ele>206</ele>
        <time>2021-07-31T17:17:54.000Z</time>
      </trkpt>
      <trkpt lat="45.29694" lon="4.9427">
        <ele>206</ele>
        <time>2021-07-31T17:17:56.000Z</time>
      </trkpt>
      <trkpt lat="45.29703" lon="4.94255">
        <ele>206</ele>
        <time>2021-07-31T17:17:58.000Z</time>
      </trkpt>
      <trkpt lat="45.29714" lon="4.94243">
        <ele>206</ele>
        <time>2021-07-31T17:18:00.000Z</time>
      </trkpt>
      <trkpt lat="45.29726" lon="4.9423">
        <ele>206</ele>
        <time>2021-07-31T17:18:02.000Z</time>
      </trkpt>
      <trkpt lat="45.29737" lon="4.9422">
        <ele>206</ele>
        <time>2021-07-31T17:18:04.000Z</time>
      </trkpt>
      <trkpt lat="45.29746" lon="4.94209">
        <ele>206</ele>
        <time>2021-07-31T17:18:06.000Z</time>
      </trkpt>
      <trkpt lat="45.29757" lon="4.94199">
        <ele>206</ele>
        <time>2021-07-31T17:18:08.000Z</time>
      </trkpt>
      <trkpt lat="45.29767" lon="4.94189">
        <ele>206</ele>
        <time>2021-07-31T17:18:10.000Z</time>
      </trkpt>
      <trkpt lat="45.29778" lon="4.94179">
        <ele>206</ele>
        <time>2021-07-31T17:18:12.000Z</time>
      </trkpt>
      <trkpt lat="45.29789" lon="4.9417">
        <ele>206</ele>
        <time>2021-07-31T17:18:14.000Z</time>
      </trkpt>
      <trkpt lat="45.298" lon="4.94161">
        <ele>206.2</ele>
        <time>2021-07-31T17:18:16.000Z</time>
      </trkpt>
      <trkpt lat="45.29811" lon="4.94152">
        <ele>206.5</ele>
        <time>2021-07-31T17:18:18.000Z</time>
      </trkpt>
      <trkpt lat="45.29821" lon="4.94142">
        <ele>207</ele>
        <time>2021-07-31T17:18:20.000Z</time>
      </trkpt>
      <trkpt lat="45.29832" lon="4.94133">
        <ele>207.7</ele>
        <time>2021-07-31T17:18:22.000Z</time>
      </trkpt>
      <trkpt lat="45.29843" lon="4.94124">
        <ele>208.1</ele>
        <time>2021-07-31T17:18:24.000Z</time>
      </trkpt>
      <trkpt lat="45.29852" lon="4.94116">
        <ele>208.4</ele>
        <time>2021-07-31T17:18:26.000Z</time>
      </trkpt>
      <trkpt lat="45.29863" lon="4.94107">
        <ele>208.6</ele>
        <time>2021-07-31T17:18:28.000Z</time>
      </trkpt>
      <trkpt lat="45.29873" lon="4.94097">
        <ele>208.7</ele>
        <time>2021-07-31T17:18:30.000Z</time>
      </trkpt>
      <trkpt lat="45.29883" lon="4.94088">
        <ele>208.7</ele>
        <time>2021-07-31T17:18:32.000Z</time>
      </trkpt>
      <trkpt lat="45.29894" lon="4.94079">
        <ele>208.4</ele>
        <time>2021-07-31T17:18:34.000Z</time>
      </trkpt>
      <trkpt lat="45.29905" lon="4.9407">
        <ele>207.9</ele>
        <time>2021-07-31T17:18:36.000Z</time>
      </trkpt>
      <trkpt lat="45.29915" lon="4.94061">
        <ele>207.5</ele>
        <time>2021-07-31T17:18:38.000Z</time>
      </trkpt>
      <trkpt lat="45.29924" lon="4.94049">
        <ele>207.1</ele>
        <time>2021-07-31T17:18:40.000Z</time>
      </trkpt>
      <trkpt lat="45.29935" lon="4.94038">
        <ele>206.8</ele>
        <time>2021-07-31T17:18:42.000Z</time>
      </trkpt>
      <trkpt lat="45.29944" lon="4.94026">
        <ele>206.5</ele>
        <time>2021-07-31T17:18:44.000Z</time>
      </trkpt>
      <trkpt lat="45.29954" lon="4.94015">
        <ele>206.3</ele>
        <time>2021-07-31T17:18:46.000Z</time>
      </trkpt>
      <trkpt lat="45.29961" lon="4.94006">
        <ele>206.1</ele>
        <time>2021-07-31T17:18:48.000Z</time>
      </trkpt>
      <trkpt lat="45.29969" lon="4.93995">
        <ele>206</ele>
        <time>2021-07-31T17:18:50.000Z</time>
      </trkpt>
      <trkpt lat="45.29978" lon="4.93984">
        <ele>205.9</ele>
        <time>2021-07-31T17:18:52.000Z</time>
      </trkpt>
      <trkpt lat="45.29987" lon="4.93974">
        <ele>205.9</ele>
        <time>2021-07-31T17:18:54.000Z</time>
      </trkpt>
      <trkpt lat="45.29995" lon="4.93961">
        <ele>206</ele>
        <time>2021-07-31T17:18:56.000Z</time>
      </trkpt>
      <trkpt lat="45.30004" lon="4.93949">
        <ele>205.9</ele>
        <time>2021-07-31T17:18:58.000Z</time>
      </trkpt>
      <trkpt lat="45.30013" lon="4.93937">
        <ele>205.7</ele>
        <time>2021-07-31T17:19:00.000Z</time>
      </trkpt>
      <trkpt lat="45.30021" lon="4.93926">
        <ele>205.5</ele>
        <time>2021-07-31T17:19:02.000Z</time>
      </trkpt>
      <trkpt lat="45.30031" lon="4.93914">
        <ele>205.2</ele>
        <time>2021-07-31T17:19:04.000Z</time>
      </trkpt>
      <trkpt lat="45.30041" lon="4.93903">
        <ele>204.9</ele>
        <time>2021-07-31T17:19:06.000Z</time>
      </trkpt>
      <trkpt lat="45.30051" lon="4.93893">
        <ele>204.7</ele>
        <time>2021-07-31T17:19:08.000Z</time>
      </trkpt>
      <trkpt lat="45.30061" lon="4.93885">
        <ele>204.6</ele>
        <time>2021-07-31T17:19:10.000Z</time>
      </trkpt>
      <trkpt lat="45.30071" lon="4.93873">
        <ele>204.6</ele>
        <time>2021-07-31T17:19:12.000Z</time>
      </trkpt>
      <trkpt lat="45.30081" lon="4.93863">
        <ele>204.7</ele>
        <time>2021-07-31T17:19:14.000Z</time>
      </trkpt>
      <trkpt lat="45.30091" lon="4.93851">
        <ele>204.9</ele>
        <time>2021-07-31T17:19:16.000Z</time>
      </trkpt>
      <trkpt lat="45.30101" lon="4.93839">
        <ele>205.2</ele>
        <time>2021-07-31T17:19:18.000Z</time>
      </trkpt>
      <trkpt lat="45.30111" lon="4.93828">
        <ele>205.4</ele>
        <time>2021-07-31T17:19:20.000Z</time>
      </trkpt>
      <trkpt lat="45.30121" lon="4.93815">
        <ele>205.6</ele>
        <time>2021-07-31T17:19:22.000Z</time>
      </trkpt>
      <trkpt lat="45.30131" lon="4.93802">
        <ele>205.7</ele>
        <time>2021-07-31T17:19:24.000Z</time>
      </trkpt>
      <trkpt lat="45.30141" lon="4.93791">
        <ele>205.9</ele>
        <time>2021-07-31T17:19:26.000Z</time>
      </trkpt>
      <trkpt lat="45.30151" lon="4.93778">
        <ele>205.9</ele>
        <time>2021-07-31T17:19:28.000Z</time>
      </trkpt>
      <trkpt lat="45.3016" lon="4.93766">
        <ele>206</ele>
        <time>2021-07-31T17:19:30.000Z</time>
      </trkpt>
      <trkpt lat="45.3017" lon="4.93754">
        <ele>206</ele>
        <time>2021-07-31T17:19:32.000Z</time>
      </trkpt>
      <trkpt lat="45.30179" lon="4.93741">
        <ele>205.8</ele>
        <time>2021-07-31T17:19:34.000Z</time>
      </trkpt>
      <trkpt lat="45.30188" lon="4.93728">
        <ele>205.5</ele>
        <time>2021-07-31T17:19:36.000Z</time>
      </trkpt>
      <trkpt lat="45.30197" lon="4.93714">
        <ele>205.3</ele>
        <time>2021-07-31T17:19:38.000Z</time>
      </trkpt>
      <trkpt lat="45.30207" lon="4.93701">
        <ele>205.1</ele>
        <time>2021-07-31T17:19:40.000Z</time>
      </trkpt>
      <trkpt lat="45.30217" lon="4.93687">
        <ele>204.9</ele>
        <time>2021-07-31T17:19:42.000Z</time>
      </trkpt>
      <trkpt lat="45.30226" lon="4.93673">
        <ele>204.8</ele>
        <time>2021-07-31T17:19:44.000Z</time>
      </trkpt>
      <trkpt lat="45.30236" lon="4.93659">
        <ele>204.9</ele>
        <time>2021-07-31T17:19:46.000Z</time>
      </trkpt>
      <trkpt lat="45.30245" lon="4.93644">
        <ele>205</ele>
        <time>2021-07-31T17:19:48.000Z</time>
      </trkpt>
      <trkpt lat="45.30254" lon="4.9363">
        <ele>205</ele>
        <time>2021-07-31T17:19:50.000Z</time>
      </trkpt>
      <trkpt lat="45.30263" lon="4.93616">
        <ele>205</ele>
        <time>2021-07-31T17:19:52.000Z</time>
      </trkpt>
      <trkpt lat="45.30272" lon="4.93601">
        <ele>204.8</ele>
        <time>2021-07-31T17:19:54.000Z</time>
      </trkpt>
      <trkpt lat="45.30282" lon="4.93587">
        <ele>204.6</ele>
        <time>2021-07-31T17:19:56.000Z</time>
      </trkpt>
      <trkpt lat="45.30292" lon="4.93573">
        <ele>204.5</ele>
        <time>2021-07-31T17:19:58.000Z</time>
      </trkpt>
      <trkpt lat="45.30302" lon="4.93559">
        <ele>204.4</ele>
        <time>2021-07-31T17:20:00.000Z</time>
      </trkpt>
      <trkpt lat="45.30312" lon="4.93547">
        <ele>204.3</ele>
        <time>2021-07-31T17:20:02.000Z</time>
      </trkpt>
      <trkpt lat="45.30322" lon="4.93533">
        <ele>204.1</ele>
        <time>2021-07-31T17:20:04.000Z</time>
      </trkpt>
      <trkpt lat="45.30331" lon="4.93521">
        <ele>204</ele>
        <time>2021-07-31T17:20:06.000Z</time>
      </trkpt>
      <trkpt lat="45.30339" lon="4.93507">
        <ele>204.1</ele>
        <time>2021-07-31T17:20:08.000Z</time>
      </trkpt>
      <trkpt lat="45.30341" lon="4.93492">
        <ele>204.3</ele>
        <time>2021-07-31T17:20:10.000Z</time>
      </trkpt>
      <trkpt lat="45.30339" lon="4.93477">
        <ele>204.6</ele>
        <time>2021-07-31T17:20:12.000Z</time>
      </trkpt>
      <trkpt lat="45.30337" lon="4.93463">
        <ele>204.9</ele>
        <time>2021-07-31T17:20:14.000Z</time>
      </trkpt>
      <trkpt lat="45.30337" lon="4.9345">
        <ele>205.2</ele>
        <time>2021-07-31T17:20:16.000Z</time>
      </trkpt>
      <trkpt lat="45.30337" lon="4.93432">
        <ele>205.6</ele>
        <time>2021-07-31T17:20:19.000Z</time>
      </trkpt>
      <trkpt lat="45.30336" lon="4.93419">
        <ele>206</ele>
        <time>2021-07-31T17:20:21.000Z</time>
      </trkpt>
      <trkpt lat="45.30335" lon="4.93405">
        <ele>206</ele>
        <time>2021-07-31T17:20:23.000Z</time>
      </trkpt>
      <trkpt lat="45.30334" lon="4.93389">
        <ele>206</ele>
        <time>2021-07-31T17:20:25.000Z</time>
      </trkpt>
      <trkpt lat="45.30333" lon="4.93373">
        <ele>206</ele>
        <time>2021-07-31T17:20:27.000Z</time>
      </trkpt>
      <trkpt lat="45.30331" lon="4.93355">
        <ele>205.9</ele>
        <time>2021-07-31T17:20:29.000Z</time>
      </trkpt>
      <trkpt lat="45.30327" lon="4.9334">
        <ele>205.9</ele>
        <time>2021-07-31T17:20:31.000Z</time>
      </trkpt>
      <trkpt lat="45.30323" lon="4.93324">
        <ele>205.5</ele>
        <time>2021-07-31T17:20:33.000Z</time>
      </trkpt>
      <trkpt lat="45.30321" lon="4.93307">
        <ele>205.1</ele>
        <time>2021-07-31T17:20:35.000Z</time>
      </trkpt>
      <trkpt lat="45.30321" lon="4.93289">
        <ele>204.7</ele>
        <time>2021-07-31T17:20:37.000Z</time>
      </trkpt>
      <trkpt lat="45.30319" lon="4.93272">
        <ele>204.3</ele>
        <time>2021-07-31T17:20:39.000Z</time>
      </trkpt>
      <trkpt lat="45.30319" lon="4.93254">
        <ele>203.9</ele>
        <time>2021-07-31T17:20:41.000Z</time>
      </trkpt>
      <trkpt lat="45.30319" lon="4.93237">
        <ele>203.6</ele>
        <time>2021-07-31T17:20:43.000Z</time>
      </trkpt>
      <trkpt lat="45.30319" lon="4.93221">
        <ele>203.4</ele>
        <time>2021-07-31T17:20:45.000Z</time>
      </trkpt>
      <trkpt lat="45.3032" lon="4.93205">
        <ele>203.2</ele>
        <time>2021-07-31T17:20:47.000Z</time>
      </trkpt>
      <trkpt lat="45.30322" lon="4.93187">
        <ele>203</ele>
        <time>2021-07-31T17:20:49.000Z</time>
      </trkpt>
      <trkpt lat="45.30325" lon="4.9317">
        <ele>202.8</ele>
        <time>2021-07-31T17:20:51.000Z</time>
      </trkpt>
      <trkpt lat="45.30327" lon="4.93154">
        <ele>203</ele>
        <time>2021-07-31T17:20:53.000Z</time>
      </trkpt>
      <trkpt lat="45.30329" lon="4.93136">
        <ele>203.3</ele>
        <time>2021-07-31T17:20:55.000Z</time>
      </trkpt>
      <trkpt lat="45.30331" lon="4.93119">
        <ele>203.5</ele>
        <time>2021-07-31T17:20:57.000Z</time>
      </trkpt>
      <trkpt lat="45.30331" lon="4.93102">
        <ele>203.7</ele>
        <time>2021-07-31T17:20:59.000Z</time>
      </trkpt>
      <trkpt lat="45.30332" lon="4.93084">
        <ele>204</ele>
        <time>2021-07-31T17:21:01.000Z</time>
      </trkpt>
      <trkpt lat="45.30331" lon="4.93065">
        <ele>203.5</ele>
        <time>2021-07-31T17:21:03.000Z</time>
      </trkpt>
      <trkpt lat="45.30332" lon="4.93046">
        <ele>203.1</ele>
        <time>2021-07-31T17:21:05.000Z</time>
      </trkpt>
      <trkpt lat="45.30333" lon="4.93028">
        <ele>202.6</ele>
        <time>2021-07-31T17:21:07.000Z</time>
      </trkpt>
      <trkpt lat="45.30333" lon="4.93009">
        <ele>202.2</ele>
        <time>2021-07-31T17:21:09.000Z</time>
      </trkpt>
      <trkpt lat="45.30332" lon="4.92991">
        <ele>201.8</ele>
        <time>2021-07-31T17:21:11.000Z</time>
      </trkpt>
      <trkpt lat="45.3033" lon="4.92972">
        <ele>201.3</ele>
        <time>2021-07-31T17:21:13.000Z</time>
      </trkpt>
      <trkpt lat="45.30329" lon="4.92952">
        <ele>200.9</ele>
        <time>2021-07-31T17:21:15.000Z</time>
      </trkpt>
      <trkpt lat="45.30329" lon="4.92933">
        <ele>200.4</ele>
        <time>2021-07-31T17:21:17.000Z</time>
      </trkpt>
      <trkpt lat="45.30328" lon="4.92913">
        <ele>200.1</ele>
        <time>2021-07-31T17:21:19.000Z</time>
      </trkpt>
      <trkpt lat="45.30327" lon="4.92893">
        <ele>200.1</ele>
        <time>2021-07-31T17:21:21.000Z</time>
      </trkpt>
      <trkpt lat="45.30326" lon="4.92875">
        <ele>200.1</ele>
        <time>2021-07-31T17:21:23.000Z</time>
      </trkpt>
      <trkpt lat="45.30324" lon="4.92855">
        <ele>200.1</ele>
        <time>2021-07-31T17:21:25.000Z</time>
      </trkpt>
      <trkpt lat="45.30323" lon="4.92835">
        <ele>200.1</ele>
        <time>2021-07-31T17:21:27.000Z</time>
      </trkpt>
      <trkpt lat="45.30323" lon="4.92814">
        <ele>200.1</ele>
        <time>2021-07-31T17:21:29.000Z</time>
      </trkpt>
      <trkpt lat="45.30322" lon="4.92793">
        <ele>200.1</ele>
        <time>2021-07-31T17:21:31.000Z</time>
      </trkpt>
      <trkpt lat="45.30321" lon="4.92773">
        <ele>200.1</ele>
        <time>2021-07-31T17:21:33.000Z</time>
      </trkpt>
      <trkpt lat="45.3032" lon="4.92751">
        <ele>200.2</ele>
        <time>2021-07-31T17:21:35.000Z</time>
      </trkpt>
      <trkpt lat="45.30318" lon="4.9273">
        <ele>200.1</ele>
        <time>2021-07-31T17:21:37.000Z</time>
      </trkpt>
      <trkpt lat="45.30316" lon="4.92709">
        <ele>200.1</ele>
        <time>2021-07-31T17:21:39.000Z</time>
      </trkpt>
      <trkpt lat="45.30315" lon="4.92689">
        <ele>200.1</ele>
        <time>2021-07-31T17:21:41.000Z</time>
      </trkpt>
      <trkpt lat="45.30315" lon="4.92667">
        <ele>200</ele>
        <time>2021-07-31T17:21:43.000Z</time>
      </trkpt>
      <trkpt lat="45.30313" lon="4.92646">
        <ele>199.9</ele>
        <time>2021-07-31T17:21:45.000Z</time>
      </trkpt>
      <trkpt lat="45.30311" lon="4.92624">
        <ele>199.9</ele>
        <time>2021-07-31T17:21:47.000Z</time>
      </trkpt>
      <trkpt lat="45.3031" lon="4.92603">
        <ele>199.8</ele>
        <time>2021-07-31T17:21:49.000Z</time>
      </trkpt>
      <trkpt lat="45.30308" lon="4.92581">
        <ele>199.7</ele>
        <time>2021-07-31T17:21:51.000Z</time>
      </trkpt>
      <trkpt lat="45.30308" lon="4.9256">
        <ele>199.5</ele>
        <time>2021-07-31T17:21:53.000Z</time>
      </trkpt>
      <trkpt lat="45.30306" lon="4.92539">
        <ele>199.3</ele>
        <time>2021-07-31T17:21:55.000Z</time>
      </trkpt>
      <trkpt lat="45.30304" lon="4.92518">
        <ele>199.1</ele>
        <time>2021-07-31T17:21:57.000Z</time>
      </trkpt>
      <trkpt lat="45.30303" lon="4.92496">
        <ele>199</ele>
        <time>2021-07-31T17:21:59.000Z</time>
      </trkpt>
      <trkpt lat="45.30301" lon="4.92474">
        <ele>199</ele>
        <time>2021-07-31T17:22:01.000Z</time>
      </trkpt>
      <trkpt lat="45.303" lon="4.92452">
        <ele>199</ele>
        <time>2021-07-31T17:22:03.000Z</time>
      </trkpt>
      <trkpt lat="45.30298" lon="4.92431">
        <ele>199</ele>
        <time>2021-07-31T17:22:05.000Z</time>
      </trkpt>
      <trkpt lat="45.30296" lon="4.9241">
        <ele>198.9</ele>
        <time>2021-07-31T17:22:07.000Z</time>
      </trkpt>
      <trkpt lat="45.30296" lon="4.92389">
        <ele>198.7</ele>
        <time>2021-07-31T17:22:09.000Z</time>
      </trkpt>
      <trkpt lat="45.30296" lon="4.9237">
        <ele>198.4</ele>
        <time>2021-07-31T17:22:11.000Z</time>
      </trkpt>
      <trkpt lat="45.30296" lon="4.92347">
        <ele>198.2</ele>
        <time>2021-07-31T17:22:13.000Z</time>
      </trkpt>
      <trkpt lat="45.30295" lon="4.92326">
        <ele>197.9</ele>
        <time>2021-07-31T17:22:15.000Z</time>
      </trkpt>
      <trkpt lat="45.30292" lon="4.92306">
        <ele>197.8</ele>
        <time>2021-07-31T17:22:17.000Z</time>
      </trkpt>
      <trkpt lat="45.30291" lon="4.92287">
        <ele>197.7</ele>
        <time>2021-07-31T17:22:19.000Z</time>
      </trkpt>
      <trkpt lat="45.30291" lon="4.9227">
        <ele>197.6</ele>
        <time>2021-07-31T17:22:21.000Z</time>
      </trkpt>
      <trkpt lat="45.30289" lon="4.92255">
        <ele>197.6</ele>
        <time>2021-07-31T17:22:23.000Z</time>
      </trkpt>
      <trkpt lat="45.30287" lon="4.92237">
        <ele>197.7</ele>
        <time>2021-07-31T17:22:26.000Z</time>
      </trkpt>
      <trkpt lat="45.30296" lon="4.92234">
        <ele>197.7</ele>
        <time>2021-07-31T17:22:30.000Z</time>
      </trkpt>
      <trkpt lat="45.30307" lon="4.9224">
        <ele>197.5</ele>
        <time>2021-07-31T17:22:33.000Z</time>
      </trkpt>
      <trkpt lat="45.30316" lon="4.92242">
        <ele>197.3</ele>
        <time>2021-07-31T17:22:35.000Z</time>
      </trkpt>
      <trkpt lat="45.30326" lon="4.92248">
        <ele>197.1</ele>
        <time>2021-07-31T17:22:37.000Z</time>
      </trkpt>
      <trkpt lat="45.30337" lon="4.92255">
        <ele>197</ele>
        <time>2021-07-31T17:22:39.000Z</time>
      </trkpt>
      <trkpt lat="45.30349" lon="4.92261">
        <ele>197.1</ele>
        <time>2021-07-31T17:22:41.000Z</time>
      </trkpt>
      <trkpt lat="45.3036" lon="4.92266">
        <ele>197.2</ele>
        <time>2021-07-31T17:22:43.000Z</time>
      </trkpt>
      <trkpt lat="45.30371" lon="4.92272">
        <ele>197.3</ele>
        <time>2021-07-31T17:22:45.000Z</time>
      </trkpt>
      <trkpt lat="45.30382" lon="4.92277">
        <ele>197.3</ele>
        <time>2021-07-31T17:22:47.000Z</time>
      </trkpt>
      <trkpt lat="45.30393" lon="4.92283">
        <ele>197.4</ele>
        <time>2021-07-31T17:22:49.000Z</time>
      </trkpt>
      <trkpt lat="45.30405" lon="4.92288">
        <ele>197.5</ele>
        <time>2021-07-31T17:22:51.000Z</time>
      </trkpt>
      <trkpt lat="45.30418" lon="4.92294">
        <ele>197.5</ele>
        <time>2021-07-31T17:22:53.000Z</time>
      </trkpt>
      <trkpt lat="45.30429" lon="4.92299">
        <ele>197.9</ele>
        <time>2021-07-31T17:22:55.000Z</time>
      </trkpt>
      <trkpt lat="45.3044" lon="4.92305">
        <ele>198.2</ele>
        <time>2021-07-31T17:22:57.000Z</time>
      </trkpt>
      <trkpt lat="45.30451" lon="4.92309">
        <ele>198.5</ele>
        <time>2021-07-31T17:22:59.000Z</time>
      </trkpt>
      <trkpt lat="45.30463" lon="4.92314">
        <ele>198.9</ele>
        <time>2021-07-31T17:23:01.000Z</time>
      </trkpt>
      <trkpt lat="45.30474" lon="4.92318">
        <ele>199.2</ele>
        <time>2021-07-31T17:23:03.000Z</time>
      </trkpt>
      <trkpt lat="45.30486" lon="4.92323">
        <ele>199.5</ele>
        <time>2021-07-31T17:23:05.000Z</time>
      </trkpt>
      <trkpt lat="45.30497" lon="4.92329">
        <ele>199.9</ele>
        <time>2021-07-31T17:23:07.000Z</time>
      </trkpt>
      <trkpt lat="45.30509" lon="4.92336">
        <ele>200</ele>
        <time>2021-07-31T17:23:09.000Z</time>
      </trkpt>
      <trkpt lat="45.3052" lon="4.92344">
        <ele>200.1</ele>
        <time>2021-07-31T17:23:11.000Z</time>
      </trkpt>
      <trkpt lat="45.30531" lon="4.92352">
        <ele>200.2</ele>
        <time>2021-07-31T17:23:13.000Z</time>
      </trkpt>
      <trkpt lat="45.30543" lon="4.92361">
        <ele>200.3</ele>
        <time>2021-07-31T17:23:15.000Z</time>
      </trkpt>
      <trkpt lat="45.30554" lon="4.92369">
        <ele>200.4</ele>
        <time>2021-07-31T17:23:17.000Z</time>
      </trkpt>
      <trkpt lat="45.30565" lon="4.92378">
        <ele>200.5</ele>
        <time>2021-07-31T17:23:19.000Z</time>
      </trkpt>
      <trkpt lat="45.30576" lon="4.92387">
        <ele>200.6</ele>
        <time>2021-07-31T17:23:21.000Z</time>
      </trkpt>
      <trkpt lat="45.30588" lon="4.92395">
        <ele>200.6</ele>
        <time>2021-07-31T17:23:23.000Z</time>
      </trkpt>
      <trkpt lat="45.30598" lon="4.92404">
        <ele>200.5</ele>
        <time>2021-07-31T17:23:25.000Z</time>
      </trkpt>
      <trkpt lat="45.30609" lon="4.92414">
        <ele>200.3</ele>
        <time>2021-07-31T17:23:27.000Z</time>
      </trkpt>
      <trkpt lat="45.3062" lon="4.92424">
        <ele>200.1</ele>
        <time>2021-07-31T17:23:29.000Z</time>
      </trkpt>
      <trkpt lat="45.3063" lon="4.92436">
        <ele>199.8</ele>
        <time>2021-07-31T17:23:31.000Z</time>
      </trkpt>
      <trkpt lat="45.30639" lon="4.9245">
        <ele>199.5</ele>
        <time>2021-07-31T17:23:33.000Z</time>
      </trkpt>
      <trkpt lat="45.30646" lon="4.92465">
        <ele>199.3</ele>
        <time>2021-07-31T17:23:35.000Z</time>
      </trkpt>
      <trkpt lat="45.30653" lon="4.9248">
        <ele>199.2</ele>
        <time>2021-07-31T17:23:37.000Z</time>
      </trkpt>
      <trkpt lat="45.30659" lon="4.92495">
        <ele>199.1</ele>
        <time>2021-07-31T17:23:39.000Z</time>
      </trkpt>
      <trkpt lat="45.30667" lon="4.92509">
        <ele>199.3</ele>
        <time>2021-07-31T17:23:41.000Z</time>
      </trkpt>
      <trkpt lat="45.30677" lon="4.92519">
        <ele>199.8</ele>
        <time>2021-07-31T17:23:43.000Z</time>
      </trkpt>
      <trkpt lat="45.30688" lon="4.92524">
        <ele>200.1</ele>
        <time>2021-07-31T17:23:45.000Z</time>
      </trkpt>
      <trkpt lat="45.30698" lon="4.92528">
        <ele>200.2</ele>
        <time>2021-07-31T17:23:47.000Z</time>
      </trkpt>
      <trkpt lat="45.30708" lon="4.92529">
        <ele>200.3</ele>
        <time>2021-07-31T17:23:49.000Z</time>
      </trkpt>
      <trkpt lat="45.3072" lon="4.92529">
        <ele>200.4</ele>
        <time>2021-07-31T17:23:52.000Z</time>
      </trkpt>
      <trkpt lat="45.30731" lon="4.92527">
        <ele>200.5</ele>
        <time>2021-07-31T17:23:55.000Z</time>
      </trkpt>
      <trkpt lat="45.30736" lon="4.92515">
        <ele>200.6</ele>
        <time>2021-07-31T17:23:58.000Z</time>
      </trkpt>
      <trkpt lat="45.30735" lon="4.92501">
        <ele>200.6</ele>
        <time>2021-07-31T17:24:01.000Z</time>
      </trkpt>
      <trkpt lat="45.30741" lon="4.92491">
        <ele>200.6</ele>
        <time>2021-07-31T17:24:18.000Z</time>
      </trkpt>
      <trkpt lat="45.30743" lon="4.92485">
        <ele>200.5</ele>
        <time>2021-07-31T17:24:32.000Z</time>
      </trkpt>
      <trkpt lat="45.30743" lon="4.92485">
        <ele>200.5</ele>
        <time>2021-07-31T17:24:33.000Z</time>
      </trkpt>
      <trkpt lat="45.30744" lon="4.92486">
        <ele>200.5</ele>
        <time>2021-07-31T17:24:41.000Z</time>
      </trkpt>
      <trkpt lat="45.30744" lon="4.92486">
        <ele>200.5</ele>
        <time>2021-07-31T17:24:42.000Z</time>
      </trkpt>
      <trkpt lat="45.30744" lon="4.92486">
        <ele>200.5</ele>
        <time>2021-07-31T17:24:43.000Z</time>
      </trkpt>
      <trkpt lat="45.30744" lon="4.92486">
        <ele>200.5</ele>
        <time>2021-07-31T17:24:44.000Z</time>
      </trkpt>
      <trkpt lat="45.30744" lon="4.92487">
        <ele>200.5</ele>
        <time>2021-07-31T17:24:46.000Z</time>
      </trkpt>
      <trkpt lat="45.30744" lon="4.92487">
        <ele>200.5</ele>
        <time>2021-07-31T17:24:54.000Z</time>
      </trkpt>
    </trkseg>
  </trk>
</gpx>